<?xml version='1.0' encoding='UTF-8'?><gpx version="1.1" creator="JPX - https://github.com/jenetics/jpx" xmlns="http://www.topografix.com/GPX/1/1"><trk><trkseg><trkpt lat="43.0956109" lon="13.3278269"><ele>396.0</ele><time>2026-05-03T06:58:27.272Z</time></trkpt><trkpt lat="43.0956675" lon="13.3280091"><ele>396.0</ele><time>2026-05-03T06:58:30.264Z</time></trkpt><trkpt lat="43.0957478" lon="13.3279464"><ele>396.0</ele><time>2026-05-03T07:05:39.147Z</time></trkpt><trkpt lat="43.0958314" lon="13.3279712"><ele>396.0</ele><time>2026-05-03T07:05:47.147Z</time></trkpt><trkpt lat="43.0958875" lon="13.3278778"><ele>396.0</ele><time>2026-05-03T07:05:50.147Z</time></trkpt><trkpt lat="43.0958587" lon="13.3277811"><ele>396.0</ele><time>2026-05-03T07:05:53.147Z</time></trkpt><trkpt lat="43.0958277" lon="13.3276948"><ele>396.0</ele><time>2026-05-03T07:05:56.147Z</time></trkpt><trkpt lat="43.0957864" lon="13.3276203"><ele>396.0</ele><time>2026-05-03T07:05:59.147Z</time></trkpt><trkpt lat="43.095756" lon="13.3275287"><ele>396.0</ele><time>2026-05-03T07:06:02.147Z</time></trkpt><trkpt lat="43.0957323" lon="13.3274409"><ele>396.0</ele><time>2026-05-03T07:06:05.147Z</time></trkpt><trkpt lat="43.0957032" lon="13.3273488"><ele>396.0</ele><time>2026-05-03T07:06:08.147Z</time></trkpt><trkpt lat="43.0956869" lon="13.3272577"><ele>396.0</ele><time>2026-05-03T07:06:11.147Z</time></trkpt><trkpt lat="43.0956704" lon="13.327149"><ele>396.5</ele><time>2026-05-03T07:06:14.147Z</time></trkpt><trkpt lat="43.0956437" lon="13.3270432"><ele>397.0</ele><time>2026-05-03T07:06:17.147Z</time></trkpt><trkpt lat="43.0956194" lon="13.3269309"><ele>397.5</ele><time>2026-05-03T07:06:20.148Z</time></trkpt><trkpt lat="43.0956037" lon="13.3268423"><ele>398.0</ele><time>2026-05-03T07:06:22.147Z</time></trkpt><trkpt lat="43.095565" lon="13.3267195"><ele>398.5</ele><time>2026-05-03T07:06:25.148Z</time></trkpt><trkpt lat="43.0955351" lon="13.3266328"><ele>399.0</ele><time>2026-05-03T07:06:27.147Z</time></trkpt><trkpt lat="43.095517" lon="13.3265459"><ele>399.0</ele><time>2026-05-03T07:06:29.147Z</time></trkpt><trkpt lat="43.0954962" lon="13.3264603"><ele>399.0</ele><time>2026-05-03T07:06:31.148Z</time></trkpt><trkpt lat="43.0954735" lon="13.3263723"><ele>399.0</ele><time>2026-05-03T07:06:33.147Z</time></trkpt><trkpt lat="43.0954522" lon="13.3262786"><ele>399.0</ele><time>2026-05-03T07:06:35.147Z</time></trkpt><trkpt lat="43.0954254" lon="13.3261798"><ele>399.0</ele><time>2026-05-03T07:06:37.147Z</time></trkpt><trkpt lat="43.0953976" lon="13.3260666"><ele>399.0</ele><time>2026-05-03T07:06:39.147Z</time></trkpt><trkpt lat="43.0953786" lon="13.3259569"><ele>399.0</ele><time>2026-05-03T07:06:41.148Z</time></trkpt><trkpt lat="43.0953578" lon="13.3258366"><ele>399.0</ele><time>2026-05-03T07:06:43.147Z</time></trkpt><trkpt lat="43.0953359" lon="13.3257157"><ele>399.0</ele><time>2026-05-03T07:06:45.147Z</time></trkpt><trkpt lat="43.0953197" lon="13.3255924"><ele>399.0</ele><time>2026-05-03T07:06:47.147Z</time></trkpt><trkpt lat="43.0952978" lon="13.3254675"><ele>399.0</ele><time>2026-05-03T07:06:49.147Z</time></trkpt><trkpt lat="43.0952668" lon="13.3253331"><ele>399.25</ele><time>2026-05-03T07:06:51.148Z</time></trkpt><trkpt lat="43.0952356" lon="13.3251995"><ele>399.5</ele><time>2026-05-03T07:06:53.147Z</time></trkpt><trkpt lat="43.0951844" lon="13.3250574"><ele>399.75</ele><time>2026-05-03T07:06:55.147Z</time></trkpt><trkpt lat="43.0951397" lon="13.3249076"><ele>400.0</ele><time>2026-05-03T07:06:57.147Z</time></trkpt><trkpt lat="43.0950854" lon="13.3247584"><ele>399.83333333333337</ele><time>2026-05-03T07:06:59.147Z</time></trkpt><trkpt lat="43.0950189" lon="13.3246253"><ele>399.6666666666667</ele><time>2026-05-03T07:07:01.147Z</time></trkpt><trkpt lat="43.0949863" lon="13.3245507"><ele>399.5</ele><time>2026-05-03T07:07:02.147Z</time></trkpt><trkpt lat="43.0949226" lon="13.3244111"><ele>399.33333333333337</ele><time>2026-05-03T07:07:04.147Z</time></trkpt><trkpt lat="43.0948904" lon="13.3243322"><ele>399.1666666666667</ele><time>2026-05-03T07:07:05.148Z</time></trkpt><trkpt lat="43.0948568" lon="13.3242486"><ele>399.0</ele><time>2026-05-03T07:07:06.147Z</time></trkpt><trkpt lat="43.0948241" lon="13.3241693"><ele>399.0</ele><time>2026-05-03T07:07:07.147Z</time></trkpt><trkpt lat="43.0947745" lon="13.3240982"><ele>399.0</ele><time>2026-05-03T07:07:08.147Z</time></trkpt><trkpt lat="43.0946894" lon="13.3239605"><ele>399.0</ele><time>2026-05-03T07:07:10.147Z</time></trkpt><trkpt lat="43.0946391" lon="13.3238035"><ele>399.0</ele><time>2026-05-03T07:07:12.147Z</time></trkpt><trkpt lat="43.0945825" lon="13.3236923"><ele>399.0</ele><time>2026-05-03T07:07:14.147Z</time></trkpt><trkpt lat="43.0945147" lon="13.3235417"><ele>399.2</ele><time>2026-05-03T07:07:16.147Z</time></trkpt><trkpt lat="43.0944865" lon="13.3234621"><ele>399.4</ele><time>2026-05-03T07:07:17.147Z</time></trkpt><trkpt lat="43.0944349" lon="13.3233177"><ele>399.6</ele><time>2026-05-03T07:07:19.147Z</time></trkpt><trkpt lat="43.0943768" lon="13.3232311"><ele>399.8</ele><time>2026-05-03T07:07:20.147Z</time></trkpt><trkpt lat="43.094334" lon="13.3231399"><ele>400.0</ele><time>2026-05-03T07:07:21.147Z</time></trkpt><trkpt lat="43.0942858" lon="13.3229886"><ele>400.33333333333337</ele><time>2026-05-03T07:07:23.147Z</time></trkpt><trkpt lat="43.0942589" lon="13.3229105"><ele>400.6666666666667</ele><time>2026-05-03T07:07:24.147Z</time></trkpt><trkpt lat="43.0942134" lon="13.3228377"><ele>401.0</ele><time>2026-05-03T07:07:25.147Z</time></trkpt><trkpt lat="43.0941782" lon="13.3227626"><ele>401.33333333333337</ele><time>2026-05-03T07:07:26.147Z</time></trkpt><trkpt lat="43.0941142" lon="13.3226231"><ele>401.6666666666667</ele><time>2026-05-03T07:07:28.147Z</time></trkpt><trkpt lat="43.0940476" lon="13.3224839"><ele>402.0</ele><time>2026-05-03T07:07:30.147Z</time></trkpt><trkpt lat="43.0939876" lon="13.322336"><ele>401.8333333333333</ele><time>2026-05-03T07:07:32.147Z</time></trkpt><trkpt lat="43.0939527" lon="13.3222621"><ele>401.66666666666663</ele><time>2026-05-03T07:07:33.147Z</time></trkpt><trkpt lat="43.0939166" lon="13.32219"><ele>401.5</ele><time>2026-05-03T07:07:34.147Z</time></trkpt><trkpt lat="43.0938403" lon="13.3220545"><ele>401.3333333333333</ele><time>2026-05-03T07:07:36.147Z</time></trkpt><trkpt lat="43.0938005" lon="13.3219766"><ele>401.16666666666663</ele><time>2026-05-03T07:07:37.147Z</time></trkpt><trkpt lat="43.0937355" lon="13.3218425"><ele>401.0</ele><time>2026-05-03T07:07:39.147Z</time></trkpt><trkpt lat="43.0936932" lon="13.3217028"><ele>401.0</ele><time>2026-05-03T07:07:41.147Z</time></trkpt><trkpt lat="43.0936288" lon="13.3216412"><ele>401.0</ele><time>2026-05-03T07:07:42.147Z</time></trkpt><trkpt lat="43.0935851" lon="13.3215165"><ele>401.0</ele><time>2026-05-03T07:07:44.147Z</time></trkpt><trkpt lat="43.0935437" lon="13.3213759"><ele>401.0</ele><time>2026-05-03T07:07:46.147Z</time></trkpt><trkpt lat="43.0934906" lon="13.3212956"><ele>401.0</ele><time>2026-05-03T07:07:47.147Z</time></trkpt><trkpt lat="43.093438" lon="13.3211874"><ele>401.16666666666663</ele><time>2026-05-03T07:07:49.147Z</time></trkpt><trkpt lat="43.0934014" lon="13.3210569"><ele>401.3333333333333</ele><time>2026-05-03T07:07:51.147Z</time></trkpt><trkpt lat="43.0933465" lon="13.320964"><ele>401.5</ele><time>2026-05-03T07:07:53.147Z</time></trkpt><trkpt lat="43.093311" lon="13.3208638"><ele>401.66666666666663</ele><time>2026-05-03T07:07:55.147Z</time></trkpt><trkpt lat="43.0932657" lon="13.3207636"><ele>401.8333333333333</ele><time>2026-05-03T07:07:57.147Z</time></trkpt><trkpt lat="43.0932388" lon="13.3206624"><ele>402.0</ele><time>2026-05-03T07:07:59.147Z</time></trkpt><trkpt lat="43.0931893" lon="13.3205721"><ele>403.0</ele><time>2026-05-03T07:08:01.147Z</time></trkpt><trkpt lat="43.0931436" lon="13.3204488"><ele>404.0</ele><time>2026-05-03T07:08:03.147Z</time></trkpt><trkpt lat="43.0931176" lon="13.3203588"><ele>405.0</ele><time>2026-05-03T07:08:05.147Z</time></trkpt><trkpt lat="43.0930563" lon="13.3202314"><ele>406.0</ele><time>2026-05-03T07:08:07.147Z</time></trkpt><trkpt lat="43.0930183" lon="13.3201117"><ele>407.0</ele><time>2026-05-03T07:08:10.147Z</time></trkpt><trkpt lat="43.0929734" lon="13.319982"><ele>406.99999999999994</ele><time>2026-05-03T07:08:12.147Z</time></trkpt><trkpt lat="43.092954" lon="13.3198593"><ele>407.0</ele><time>2026-05-03T07:08:14.147Z</time></trkpt><trkpt lat="43.0928878" lon="13.3197951"><ele>407.0</ele><time>2026-05-03T07:08:16.147Z</time></trkpt><trkpt lat="43.0928485" lon="13.3197033"><ele>407.0</ele><time>2026-05-03T07:08:18.147Z</time></trkpt><trkpt lat="43.0928269" lon="13.3196069"><ele>406.99999999999994</ele><time>2026-05-03T07:08:20.148Z</time></trkpt><trkpt lat="43.0927845" lon="13.3194962"><ele>407.0</ele><time>2026-05-03T07:08:22.147Z</time></trkpt><trkpt lat="43.0927459" lon="13.3194015"><ele>407.49999999999994</ele><time>2026-05-03T07:08:24.147Z</time></trkpt><trkpt lat="43.0927195" lon="13.3193055"><ele>408.0</ele><time>2026-05-03T07:08:26.148Z</time></trkpt><trkpt lat="43.0926801" lon="13.3192165"><ele>408.5</ele><time>2026-05-03T07:08:28.147Z</time></trkpt><trkpt lat="43.0926351" lon="13.3191264"><ele>409.0</ele><time>2026-05-03T07:08:30.148Z</time></trkpt><trkpt lat="43.0925886" lon="13.3190418"><ele>409.49999999999994</ele><time>2026-05-03T07:08:32.147Z</time></trkpt><trkpt lat="43.0925499" lon="13.3189524"><ele>410.0</ele><time>2026-05-03T07:08:34.147Z</time></trkpt><trkpt lat="43.0925182" lon="13.318865"><ele>410.14285714285717</ele><time>2026-05-03T07:08:36.147Z</time></trkpt><trkpt lat="43.0924815" lon="13.318784"><ele>410.2857142857143</ele><time>2026-05-03T07:08:38.147Z</time></trkpt><trkpt lat="43.092441" lon="13.3186968"><ele>410.42857142857144</ele><time>2026-05-03T07:08:40.147Z</time></trkpt><trkpt lat="43.0924066" lon="13.3186185"><ele>410.57142857142856</ele><time>2026-05-03T07:08:42.147Z</time></trkpt><trkpt lat="43.092371" lon="13.3185359"><ele>410.71428571428567</ele><time>2026-05-03T07:08:44.147Z</time></trkpt><trkpt lat="43.0923367" lon="13.3184508"><ele>410.85714285714283</ele><time>2026-05-03T07:08:46.147Z</time></trkpt><trkpt lat="43.0923072" lon="13.3183653"><ele>411.0</ele><time>2026-05-03T07:08:48.148Z</time></trkpt><trkpt lat="43.092275" lon="13.3182745"><ele>411.0</ele><time>2026-05-03T07:08:50.147Z</time></trkpt><trkpt lat="43.0922395" lon="13.3181736"><ele>411.0</ele><time>2026-05-03T07:08:52.147Z</time></trkpt><trkpt lat="43.0922033" lon="13.3180724"><ele>411.0</ele><time>2026-05-03T07:08:54.147Z</time></trkpt><trkpt lat="43.0921533" lon="13.3179746"><ele>411.0</ele><time>2026-05-03T07:08:56.148Z</time></trkpt><trkpt lat="43.0921108" lon="13.3178881"><ele>411.0</ele><time>2026-05-03T07:08:58.147Z</time></trkpt><trkpt lat="43.0920753" lon="13.3177882"><ele>411.0</ele><time>2026-05-03T07:09:00.147Z</time></trkpt><trkpt lat="43.0920422" lon="13.3176883"><ele>411.1666666666667</ele><time>2026-05-03T07:09:02.147Z</time></trkpt><trkpt lat="43.0920006" lon="13.3175928"><ele>411.33333333333337</ele><time>2026-05-03T07:09:04.147Z</time></trkpt><trkpt lat="43.0919621" lon="13.3174961"><ele>411.5</ele><time>2026-05-03T07:09:06.147Z</time></trkpt><trkpt lat="43.0919169" lon="13.3173915"><ele>411.6666666666667</ele><time>2026-05-03T07:09:08.147Z</time></trkpt><trkpt lat="43.0918747" lon="13.3172878"><ele>411.83333333333337</ele><time>2026-05-03T07:09:10.147Z</time></trkpt><trkpt lat="43.091827" lon="13.3171864"><ele>412.0</ele><time>2026-05-03T07:09:12.147Z</time></trkpt><trkpt lat="43.0917793" lon="13.3170939"><ele>412.33333333333337</ele><time>2026-05-03T07:09:14.147Z</time></trkpt><trkpt lat="43.0917385" lon="13.3169974"><ele>412.6666666666667</ele><time>2026-05-03T07:09:16.147Z</time></trkpt><trkpt lat="43.0916982" lon="13.3168929"><ele>413.0</ele><time>2026-05-03T07:09:18.148Z</time></trkpt><trkpt lat="43.0916454" lon="13.3167851"><ele>413.33333333333337</ele><time>2026-05-03T07:09:20.147Z</time></trkpt><trkpt lat="43.0915929" lon="13.3166711"><ele>413.6666666666667</ele><time>2026-05-03T07:09:22.147Z</time></trkpt><trkpt lat="43.0915643" lon="13.3165844"><ele>414.0</ele><time>2026-05-03T07:09:24.147Z</time></trkpt><trkpt lat="43.0915272" lon="13.3164798"><ele>413.6666666666667</ele><time>2026-05-03T07:09:26.147Z</time></trkpt><trkpt lat="43.0914992" lon="13.3163414"><ele>413.33333333333337</ele><time>2026-05-03T07:09:29.147Z</time></trkpt><trkpt lat="43.0914697" lon="13.3162395"><ele>413.0</ele><time>2026-05-03T07:09:31.147Z</time></trkpt><trkpt lat="43.0914195" lon="13.3161331"><ele>412.6666666666667</ele><time>2026-05-03T07:09:33.147Z</time></trkpt><trkpt lat="43.0913778" lon="13.3160341"><ele>412.33333333333337</ele><time>2026-05-03T07:09:35.148Z</time></trkpt><trkpt lat="43.091332" lon="13.3159342"><ele>412.0</ele><time>2026-05-03T07:09:37.148Z</time></trkpt><trkpt lat="43.0913016" lon="13.3158231"><ele>412.0</ele><time>2026-05-03T07:09:39.147Z</time></trkpt><trkpt lat="43.0912574" lon="13.3157076"><ele>412.0</ele><time>2026-05-03T07:09:41.148Z</time></trkpt><trkpt lat="43.0912001" lon="13.3155954"><ele>412.0</ele><time>2026-05-03T07:09:43.148Z</time></trkpt><trkpt lat="43.0911369" lon="13.3154831"><ele>412.0</ele><time>2026-05-03T07:09:45.147Z</time></trkpt><trkpt lat="43.091095" lon="13.3153782"><ele>412.0</ele><time>2026-05-03T07:09:47.147Z</time></trkpt><trkpt lat="43.0910463" lon="13.3152536"><ele>412.40000000000003</ele><time>2026-05-03T07:09:49.147Z</time></trkpt><trkpt lat="43.091003" lon="13.3151453"><ele>412.8</ele><time>2026-05-03T07:09:51.147Z</time></trkpt><trkpt lat="43.0909658" lon="13.3150385"><ele>413.2</ele><time>2026-05-03T07:09:53.152Z</time></trkpt><trkpt lat="43.0909076" lon="13.3149325"><ele>413.6</ele><time>2026-05-03T07:09:55.151Z</time></trkpt><trkpt lat="43.0908767" lon="13.3148211"><ele>414.0</ele><time>2026-05-03T07:09:57.15Z</time></trkpt><trkpt lat="43.0908409" lon="13.314703"><ele>414.0</ele><time>2026-05-03T07:09:59.151Z</time></trkpt><trkpt lat="43.0908019" lon="13.3145854"><ele>414.0</ele><time>2026-05-03T07:10:01.151Z</time></trkpt><trkpt lat="43.0907548" lon="13.3145246"><ele>414.0</ele><time>2026-05-03T07:10:02.152Z</time></trkpt><trkpt lat="43.0907186" lon="13.3144154"><ele>414.0</ele><time>2026-05-03T07:10:04.148Z</time></trkpt><trkpt lat="43.0906753" lon="13.3142871"><ele>414.0</ele><time>2026-05-03T07:10:06.15Z</time></trkpt><trkpt lat="43.0906224" lon="13.3141678"><ele>413.8333333333333</ele><time>2026-05-03T07:10:08.151Z</time></trkpt><trkpt lat="43.090586" lon="13.3140664"><ele>413.66666666666663</ele><time>2026-05-03T07:10:10.152Z</time></trkpt><trkpt lat="43.0905353" lon="13.3139455"><ele>413.5</ele><time>2026-05-03T07:10:12.151Z</time></trkpt><trkpt lat="43.0904757" lon="13.3138157"><ele>413.3333333333333</ele><time>2026-05-03T07:10:14.152Z</time></trkpt><trkpt lat="43.0904475" lon="13.3137138"><ele>413.16666666666663</ele><time>2026-05-03T07:10:16.151Z</time></trkpt><trkpt lat="43.0903992" lon="13.3136449"><ele>413.0</ele><time>2026-05-03T07:10:17.152Z</time></trkpt><trkpt lat="43.0903779" lon="13.3135553"><ele>413.3333333333333</ele><time>2026-05-03T07:10:19.152Z</time></trkpt><trkpt lat="43.090324" lon="13.3134985"><ele>413.66666666666663</ele><time>2026-05-03T07:10:20.152Z</time></trkpt><trkpt lat="43.0902625" lon="13.3133954"><ele>414.0</ele><time>2026-05-03T07:10:22.151Z</time></trkpt><trkpt lat="43.0902239" lon="13.3132748"><ele>414.33333333333337</ele><time>2026-05-03T07:10:24.151Z</time></trkpt><trkpt lat="43.0901818" lon="13.3131845"><ele>414.6666666666667</ele><time>2026-05-03T07:10:26.151Z</time></trkpt><trkpt lat="43.0901477" lon="13.3130875"><ele>415.0</ele><time>2026-05-03T07:10:28.151Z</time></trkpt><trkpt lat="43.0901051" lon="13.3129749"><ele>415.2</ele><time>2026-05-03T07:10:30.151Z</time></trkpt><trkpt lat="43.0900674" lon="13.3128668"><ele>415.4</ele><time>2026-05-03T07:10:32.151Z</time></trkpt><trkpt lat="43.0900352" lon="13.3127618"><ele>415.6</ele><time>2026-05-03T07:10:34.151Z</time></trkpt><trkpt lat="43.0899626" lon="13.3126534"><ele>415.8</ele><time>2026-05-03T07:10:36.151Z</time></trkpt><trkpt lat="43.0899036" lon="13.3125492"><ele>416.0</ele><time>2026-05-03T07:10:38.152Z</time></trkpt><trkpt lat="43.089859" lon="13.3124585"><ele>416.16666666666663</ele><time>2026-05-03T07:10:40.151Z</time></trkpt><trkpt lat="43.0898383" lon="13.3123649"><ele>416.3333333333333</ele><time>2026-05-03T07:10:42.151Z</time></trkpt><trkpt lat="43.089796" lon="13.3122577"><ele>416.5</ele><time>2026-05-03T07:10:44.151Z</time></trkpt><trkpt lat="43.0897629" lon="13.3121468"><ele>416.66666666666663</ele><time>2026-05-03T07:10:46.151Z</time></trkpt><trkpt lat="43.0896975" lon="13.3120405"><ele>416.8333333333333</ele><time>2026-05-03T07:10:48.151Z</time></trkpt><trkpt lat="43.0896586" lon="13.3119331"><ele>417.0</ele><time>2026-05-03T07:10:50.151Z</time></trkpt><trkpt lat="43.0896086" lon="13.3118391"><ele>417.0</ele><time>2026-05-03T07:10:52.151Z</time></trkpt><trkpt lat="43.0895735" lon="13.3117405"><ele>417.0</ele><time>2026-05-03T07:10:54.151Z</time></trkpt><trkpt lat="43.089539" lon="13.3116381"><ele>417.0</ele><time>2026-05-03T07:10:56.151Z</time></trkpt><trkpt lat="43.0894996" lon="13.311538"><ele>417.0</ele><time>2026-05-03T07:10:58.151Z</time></trkpt><trkpt lat="43.0894561" lon="13.3114295"><ele>417.0</ele><time>2026-05-03T07:11:00.151Z</time></trkpt><trkpt lat="43.0894221" lon="13.3113218"><ele>417.0</ele><time>2026-05-03T07:11:02.151Z</time></trkpt><trkpt lat="43.0893767" lon="13.3112149"><ele>417.1666666666667</ele><time>2026-05-03T07:11:04.151Z</time></trkpt><trkpt lat="43.0893415" lon="13.3111115"><ele>417.33333333333337</ele><time>2026-05-03T07:11:06.151Z</time></trkpt><trkpt lat="43.0892987" lon="13.3110279"><ele>417.5</ele><time>2026-05-03T07:11:08.151Z</time></trkpt><trkpt lat="43.0892842" lon="13.3109397"><ele>417.6666666666667</ele><time>2026-05-03T07:11:10.151Z</time></trkpt><trkpt lat="43.0892575" lon="13.3108477"><ele>417.83333333333337</ele><time>2026-05-03T07:11:12.151Z</time></trkpt><trkpt lat="43.0892231" lon="13.310762"><ele>418.0</ele><time>2026-05-03T07:11:14.151Z</time></trkpt><trkpt lat="43.0891746" lon="13.3106589"><ele>418.33333333333337</ele><time>2026-05-03T07:11:16.151Z</time></trkpt><trkpt lat="43.0891392" lon="13.3105643"><ele>418.6666666666667</ele><time>2026-05-03T07:11:18.152Z</time></trkpt><trkpt lat="43.0890916" lon="13.3104675"><ele>419.0</ele><time>2026-05-03T07:11:20.151Z</time></trkpt><trkpt lat="43.0890434" lon="13.3103742"><ele>419.33333333333337</ele><time>2026-05-03T07:11:22.151Z</time></trkpt><trkpt lat="43.0890087" lon="13.310279"><ele>419.6666666666667</ele><time>2026-05-03T07:11:24.152Z</time></trkpt><trkpt lat="43.0889724" lon="13.3101801"><ele>420.0</ele><time>2026-05-03T07:11:26.151Z</time></trkpt><trkpt lat="43.0889384" lon="13.3100834"><ele>420.14285714285717</ele><time>2026-05-03T07:11:28.151Z</time></trkpt><trkpt lat="43.0889044" lon="13.3099918"><ele>420.2857142857143</ele><time>2026-05-03T07:11:30.151Z</time></trkpt><trkpt lat="43.0888727" lon="13.3099021"><ele>420.42857142857144</ele><time>2026-05-03T07:11:32.152Z</time></trkpt><trkpt lat="43.0888391" lon="13.3098064"><ele>420.57142857142856</ele><time>2026-05-03T07:11:34.152Z</time></trkpt><trkpt lat="43.0887986" lon="13.3097235"><ele>420.7142857142857</ele><time>2026-05-03T07:11:36.151Z</time></trkpt><trkpt lat="43.088763" lon="13.3096499"><ele>420.8571428571429</ele><time>2026-05-03T07:11:38.151Z</time></trkpt><trkpt lat="43.0887309" lon="13.3095414"><ele>421.0</ele><time>2026-05-03T07:11:41.152Z</time></trkpt><trkpt lat="43.0887" lon="13.3094254"><ele>421.28571428571433</ele><time>2026-05-03T07:11:44.151Z</time></trkpt><trkpt lat="43.088662" lon="13.3093039"><ele>421.57142857142856</ele><time>2026-05-03T07:11:47.151Z</time></trkpt><trkpt lat="43.0886292" lon="13.3092102"><ele>421.8571428571429</ele><time>2026-05-03T07:11:49.151Z</time></trkpt><trkpt lat="43.088594" lon="13.3091301"><ele>422.14285714285717</ele><time>2026-05-03T07:11:51.151Z</time></trkpt><trkpt lat="43.0885555" lon="13.3090484"><ele>422.42857142857144</ele><time>2026-05-03T07:11:53.151Z</time></trkpt><trkpt lat="43.0885205" lon="13.3089748"><ele>422.7142857142857</ele><time>2026-05-03T07:11:55.151Z</time></trkpt><trkpt lat="43.0884788" lon="13.3089091"><ele>423.0</ele><time>2026-05-03T07:11:57.151Z</time></trkpt><trkpt lat="43.088438" lon="13.3088392"><ele>423.1666666666667</ele><time>2026-05-03T07:11:59.151Z</time></trkpt><trkpt lat="43.0883941" lon="13.3087471"><ele>423.33333333333337</ele><time>2026-05-03T07:12:01.151Z</time></trkpt><trkpt lat="43.0883374" lon="13.3086493"><ele>423.5</ele><time>2026-05-03T07:12:03.151Z</time></trkpt><trkpt lat="43.0883058" lon="13.3085653"><ele>423.6666666666667</ele><time>2026-05-03T07:12:05.151Z</time></trkpt><trkpt lat="43.0882759" lon="13.3084783"><ele>423.83333333333337</ele><time>2026-05-03T07:12:07.151Z</time></trkpt><trkpt lat="43.088237" lon="13.3083845"><ele>424.0</ele><time>2026-05-03T07:12:09.151Z</time></trkpt><trkpt lat="43.0881907" lon="13.3082842"><ele>424.00000000000006</ele><time>2026-05-03T07:12:11.151Z</time></trkpt><trkpt lat="43.0881373" lon="13.3081784"><ele>424.0</ele><time>2026-05-03T07:12:13.151Z</time></trkpt><trkpt lat="43.0880907" lon="13.3080798"><ele>424.0</ele><time>2026-05-03T07:12:15.151Z</time></trkpt><trkpt lat="43.0880507" lon="13.3079889"><ele>424.0</ele><time>2026-05-03T07:12:17.151Z</time></trkpt><trkpt lat="43.0880143" lon="13.3078866"><ele>424.00000000000006</ele><time>2026-05-03T07:12:19.151Z</time></trkpt><trkpt lat="43.0879759" lon="13.3077764"><ele>424.0</ele><time>2026-05-03T07:12:21.151Z</time></trkpt><trkpt lat="43.0879393" lon="13.3076735"><ele>424.00000000000006</ele><time>2026-05-03T07:12:23.151Z</time></trkpt><trkpt lat="43.0879018" lon="13.3075754"><ele>424.0</ele><time>2026-05-03T07:12:25.151Z</time></trkpt><trkpt lat="43.0878575" lon="13.3074656"><ele>424.0</ele><time>2026-05-03T07:12:27.151Z</time></trkpt><trkpt lat="43.0877628" lon="13.3073473"><ele>424.0</ele><time>2026-05-03T07:12:29.151Z</time></trkpt><trkpt lat="43.087722" lon="13.3072541"><ele>424.00000000000006</ele><time>2026-05-03T07:12:31.151Z</time></trkpt><trkpt lat="43.0876913" lon="13.3071727"><ele>424.0</ele><time>2026-05-03T07:12:33.151Z</time></trkpt><trkpt lat="43.0876536" lon="13.3070671"><ele>424.1666666666667</ele><time>2026-05-03T07:12:35.152Z</time></trkpt><trkpt lat="43.0876038" lon="13.3069497"><ele>424.33333333333337</ele><time>2026-05-03T07:12:37.151Z</time></trkpt><trkpt lat="43.0875761" lon="13.3068591"><ele>424.5</ele><time>2026-05-03T07:12:39.151Z</time></trkpt><trkpt lat="43.0875497" lon="13.3067637"><ele>424.66666666666663</ele><time>2026-05-03T07:12:41.151Z</time></trkpt><trkpt lat="43.0875044" lon="13.3066547"><ele>424.8333333333333</ele><time>2026-05-03T07:12:43.152Z</time></trkpt><trkpt lat="43.0874538" lon="13.3065482"><ele>425.0</ele><time>2026-05-03T07:12:45.151Z</time></trkpt><trkpt lat="43.0874187" lon="13.3064475"><ele>424.6</ele><time>2026-05-03T07:12:47.151Z</time></trkpt><trkpt lat="43.0873687" lon="13.3063269"><ele>424.2</ele><time>2026-05-03T07:12:49.151Z</time></trkpt><trkpt lat="43.0873084" lon="13.3062053"><ele>423.79999999999995</ele><time>2026-05-03T07:12:51.151Z</time></trkpt><trkpt lat="43.087257" lon="13.3061018"><ele>423.4</ele><time>2026-05-03T07:12:53.151Z</time></trkpt><trkpt lat="43.0871532" lon="13.3060053"><ele>423.0</ele><time>2026-05-03T07:12:55.151Z</time></trkpt><trkpt lat="43.0871178" lon="13.3059095"><ele>423.0</ele><time>2026-05-03T07:12:57.151Z</time></trkpt><trkpt lat="43.0870888" lon="13.3057935"><ele>423.0</ele><time>2026-05-03T07:12:59.151Z</time></trkpt><trkpt lat="43.0870512" lon="13.3056766"><ele>423.0</ele><time>2026-05-03T07:13:01.152Z</time></trkpt><trkpt lat="43.086999" lon="13.3055587"><ele>423.0</ele><time>2026-05-03T07:13:03.152Z</time></trkpt><trkpt lat="43.0869686" lon="13.3054393"><ele>423.0</ele><time>2026-05-03T07:13:05.151Z</time></trkpt><trkpt lat="43.0869192" lon="13.3053411"><ele>423.6666666666667</ele><time>2026-05-03T07:13:07.152Z</time></trkpt><trkpt lat="43.0868836" lon="13.3052273"><ele>424.33333333333337</ele><time>2026-05-03T07:13:09.151Z</time></trkpt><trkpt lat="43.0868455" lon="13.3051244"><ele>425.0</ele><time>2026-05-03T07:13:11.152Z</time></trkpt><trkpt lat="43.0867938" lon="13.305012"><ele>425.6666666666667</ele><time>2026-05-03T07:13:13.151Z</time></trkpt><trkpt lat="43.0867416" lon="13.3049104"><ele>426.33333333333337</ele><time>2026-05-03T07:13:15.151Z</time></trkpt><trkpt lat="43.0867089" lon="13.3048049"><ele>427.0</ele><time>2026-05-03T07:13:17.151Z</time></trkpt><trkpt lat="43.0866369" lon="13.3046886"><ele>427.33333333333337</ele><time>2026-05-03T07:13:19.151Z</time></trkpt><trkpt lat="43.0865962" lon="13.304571"><ele>427.6666666666667</ele><time>2026-05-03T07:13:21.152Z</time></trkpt><trkpt lat="43.0865523" lon="13.3044711"><ele>428.0</ele><time>2026-05-03T07:13:23.151Z</time></trkpt><trkpt lat="43.0865112" lon="13.3043597"><ele>428.33333333333337</ele><time>2026-05-03T07:13:25.151Z</time></trkpt><trkpt lat="43.0864705" lon="13.3042603"><ele>428.6666666666667</ele><time>2026-05-03T07:13:27.151Z</time></trkpt><trkpt lat="43.0864174" lon="13.3041646"><ele>429.0</ele><time>2026-05-03T07:13:29.151Z</time></trkpt><trkpt lat="43.0864002" lon="13.3040662"><ele>428.8333333333333</ele><time>2026-05-03T07:13:31.151Z</time></trkpt><trkpt lat="43.0863571" lon="13.3039564"><ele>428.66666666666663</ele><time>2026-05-03T07:13:33.151Z</time></trkpt><trkpt lat="43.086314" lon="13.3038483"><ele>428.5</ele><time>2026-05-03T07:13:35.151Z</time></trkpt><trkpt lat="43.0862672" lon="13.3037599"><ele>428.3333333333333</ele><time>2026-05-03T07:13:37.151Z</time></trkpt><trkpt lat="43.0862314" lon="13.3036552"><ele>428.16666666666663</ele><time>2026-05-03T07:13:39.151Z</time></trkpt><trkpt lat="43.0861972" lon="13.3035502"><ele>428.0</ele><time>2026-05-03T07:13:41.151Z</time></trkpt><trkpt lat="43.086158" lon="13.303442"><ele>427.99999999999994</ele><time>2026-05-03T07:13:43.151Z</time></trkpt><trkpt lat="43.0861167" lon="13.3033398"><ele>428.0</ele><time>2026-05-03T07:13:45.151Z</time></trkpt><trkpt lat="43.0860768" lon="13.3032439"><ele>428.0</ele><time>2026-05-03T07:13:47.151Z</time></trkpt><trkpt lat="43.0860413" lon="13.3031548"><ele>428.0</ele><time>2026-05-03T07:13:49.151Z</time></trkpt><trkpt lat="43.0860049" lon="13.3030734"><ele>427.99999999999994</ele><time>2026-05-03T07:13:51.151Z</time></trkpt><trkpt lat="43.0859754" lon="13.3029876"><ele>428.0</ele><time>2026-05-03T07:13:53.152Z</time></trkpt><trkpt lat="43.0859558" lon="13.3028948"><ele>428.16666666666663</ele><time>2026-05-03T07:13:55.151Z</time></trkpt><trkpt lat="43.0859317" lon="13.3028076"><ele>428.3333333333333</ele><time>2026-05-03T07:13:57.151Z</time></trkpt><trkpt lat="43.0858997" lon="13.3027105"><ele>428.5</ele><time>2026-05-03T07:13:59.151Z</time></trkpt><trkpt lat="43.0858623" lon="13.3026101"><ele>428.66666666666663</ele><time>2026-05-03T07:14:01.151Z</time></trkpt><trkpt lat="43.0858246" lon="13.3025094"><ele>428.8333333333333</ele><time>2026-05-03T07:14:03.151Z</time></trkpt><trkpt lat="43.0857818" lon="13.3024058"><ele>429.0</ele><time>2026-05-03T07:14:05.151Z</time></trkpt><trkpt lat="43.0857443" lon="13.3023081"><ele>429.5</ele><time>2026-05-03T07:14:07.151Z</time></trkpt><trkpt lat="43.0856995" lon="13.302208"><ele>430.0</ele><time>2026-05-03T07:14:09.152Z</time></trkpt><trkpt lat="43.0856461" lon="13.3021114"><ele>430.5</ele><time>2026-05-03T07:14:11.151Z</time></trkpt><trkpt lat="43.0855852" lon="13.302022"><ele>431.0</ele><time>2026-05-03T07:14:13.152Z</time></trkpt><trkpt lat="43.0855295" lon="13.301931"><ele>431.5</ele><time>2026-05-03T07:14:15.152Z</time></trkpt><trkpt lat="43.0854862" lon="13.3018381"><ele>432.0</ele><time>2026-05-03T07:14:17.151Z</time></trkpt><trkpt lat="43.0854483" lon="13.301748"><ele>432.0</ele><time>2026-05-03T07:14:19.151Z</time></trkpt><trkpt lat="43.0854126" lon="13.301652"><ele>432.0</ele><time>2026-05-03T07:14:21.152Z</time></trkpt><trkpt lat="43.0853659" lon="13.3015625"><ele>432.0</ele><time>2026-05-03T07:14:23.151Z</time></trkpt><trkpt lat="43.0853241" lon="13.3014777"><ele>432.0</ele><time>2026-05-03T07:14:25.151Z</time></trkpt><trkpt lat="43.0852967" lon="13.3013954"><ele>432.0</ele><time>2026-05-03T07:14:27.151Z</time></trkpt><trkpt lat="43.0852881" lon="13.3013074"><ele>432.0</ele><time>2026-05-03T07:14:29.151Z</time></trkpt><trkpt lat="43.0852694" lon="13.30121"><ele>432.0</ele><time>2026-05-03T07:14:31.151Z</time></trkpt><trkpt lat="43.0852169" lon="13.3011086"><ele>432.5</ele><time>2026-05-03T07:14:33.151Z</time></trkpt><trkpt lat="43.0851665" lon="13.3010087"><ele>433.0</ele><time>2026-05-03T07:14:35.151Z</time></trkpt><trkpt lat="43.0851282" lon="13.3009109"><ele>433.5</ele><time>2026-05-03T07:14:37.151Z</time></trkpt><trkpt lat="43.0851048" lon="13.3008085"><ele>434.0</ele><time>2026-05-03T07:14:39.152Z</time></trkpt><trkpt lat="43.0850829" lon="13.3007143"><ele>434.5</ele><time>2026-05-03T07:14:41.151Z</time></trkpt><trkpt lat="43.0850403" lon="13.300611"><ele>435.0</ele><time>2026-05-03T07:14:43.151Z</time></trkpt><trkpt lat="43.0849995" lon="13.3004967"><ele>434.5</ele><time>2026-05-03T07:14:45.151Z</time></trkpt><trkpt lat="43.0849445" lon="13.3004417"><ele>434.0</ele><time>2026-05-03T07:14:47.151Z</time></trkpt><trkpt lat="43.0849117" lon="13.3003284"><ele>433.5</ele><time>2026-05-03T07:14:49.151Z</time></trkpt><trkpt lat="43.084875" lon="13.3002198"><ele>433.0</ele><time>2026-05-03T07:14:51.151Z</time></trkpt><trkpt lat="43.0848254" lon="13.3001021"><ele>432.5</ele><time>2026-05-03T07:14:53.151Z</time></trkpt><trkpt lat="43.0847825" lon="13.3000002"><ele>432.0</ele><time>2026-05-03T07:14:55.151Z</time></trkpt><trkpt lat="43.0847282" lon="13.2999007"><ele>432.0</ele><time>2026-05-03T07:14:57.151Z</time></trkpt><trkpt lat="43.0846718" lon="13.2998076"><ele>432.0</ele><time>2026-05-03T07:14:59.151Z</time></trkpt><trkpt lat="43.0846288" lon="13.2997033"><ele>432.0</ele><time>2026-05-03T07:15:01.151Z</time></trkpt><trkpt lat="43.0845897" lon="13.2996048"><ele>432.0</ele><time>2026-05-03T07:15:03.151Z</time></trkpt><trkpt lat="43.0845555" lon="13.2995044"><ele>432.0</ele><time>2026-05-03T07:15:05.151Z</time></trkpt><trkpt lat="43.0844996" lon="13.2993959"><ele>432.0</ele><time>2026-05-03T07:15:07.151Z</time></trkpt><trkpt lat="43.0844556" lon="13.2992857"><ele>432.6666666666667</ele><time>2026-05-03T07:15:09.151Z</time></trkpt><trkpt lat="43.0844157" lon="13.2991699"><ele>433.33333333333337</ele><time>2026-05-03T07:15:11.151Z</time></trkpt><trkpt lat="43.0843517" lon="13.2990689"><ele>434.0</ele><time>2026-05-03T07:15:13.151Z</time></trkpt><trkpt lat="43.0843142" lon="13.2989903"><ele>434.6666666666667</ele><time>2026-05-03T07:15:15.151Z</time></trkpt><trkpt lat="43.0842979" lon="13.2988784"><ele>435.33333333333337</ele><time>2026-05-03T07:15:17.151Z</time></trkpt><trkpt lat="43.0842644" lon="13.2987938"><ele>436.0</ele><time>2026-05-03T07:15:19.151Z</time></trkpt><trkpt lat="43.0842341" lon="13.298696"><ele>435.83333333333337</ele><time>2026-05-03T07:15:21.151Z</time></trkpt><trkpt lat="43.084212" lon="13.2985979"><ele>435.6666666666667</ele><time>2026-05-03T07:15:23.151Z</time></trkpt><trkpt lat="43.0841775" lon="13.2984957"><ele>435.5</ele><time>2026-05-03T07:15:25.151Z</time></trkpt><trkpt lat="43.0841271" lon="13.298401"><ele>435.33333333333337</ele><time>2026-05-03T07:15:27.151Z</time></trkpt><trkpt lat="43.0840738" lon="13.2983086"><ele>435.1666666666667</ele><time>2026-05-03T07:15:29.151Z</time></trkpt><trkpt lat="43.0840329" lon="13.2982112"><ele>435.0</ele><time>2026-05-03T07:15:31.151Z</time></trkpt><trkpt lat="43.0840018" lon="13.2981161"><ele>435.3333333333333</ele><time>2026-05-03T07:15:33.151Z</time></trkpt><trkpt lat="43.0839652" lon="13.2980165"><ele>435.66666666666663</ele><time>2026-05-03T07:15:35.151Z</time></trkpt><trkpt lat="43.0839254" lon="13.2979177"><ele>436.0</ele><time>2026-05-03T07:15:37.151Z</time></trkpt><trkpt lat="43.0838828" lon="13.297817"><ele>436.3333333333333</ele><time>2026-05-03T07:15:39.151Z</time></trkpt><trkpt lat="43.0838477" lon="13.2977171"><ele>436.66666666666663</ele><time>2026-05-03T07:15:41.151Z</time></trkpt><trkpt lat="43.0838147" lon="13.2976234"><ele>437.0</ele><time>2026-05-03T07:15:43.151Z</time></trkpt><trkpt lat="43.0837797" lon="13.2975332"><ele>436.99999999999994</ele><time>2026-05-03T07:15:45.151Z</time></trkpt><trkpt lat="43.0837448" lon="13.2974328"><ele>437.0</ele><time>2026-05-03T07:15:47.151Z</time></trkpt><trkpt lat="43.0837133" lon="13.2973418"><ele>437.0</ele><time>2026-05-03T07:15:49.151Z</time></trkpt><trkpt lat="43.0836672" lon="13.2972666"><ele>437.0</ele><time>2026-05-03T07:15:51.151Z</time></trkpt><trkpt lat="43.0836391" lon="13.2971738"><ele>436.99999999999994</ele><time>2026-05-03T07:15:53.151Z</time></trkpt><trkpt lat="43.0835586" lon="13.2970681"><ele>437.0</ele><time>2026-05-03T07:15:55.152Z</time></trkpt><trkpt lat="43.0835251" lon="13.2969873"><ele>436.99999999999994</ele><time>2026-05-03T07:15:57.151Z</time></trkpt><trkpt lat="43.0834631" lon="13.2968698"><ele>437.0</ele><time>2026-05-03T07:15:59.151Z</time></trkpt><trkpt lat="43.0834331" lon="13.2967563"><ele>437.0</ele><time>2026-05-03T07:16:01.151Z</time></trkpt><trkpt lat="43.0834039" lon="13.2966612"><ele>437.0</ele><time>2026-05-03T07:16:03.151Z</time></trkpt><trkpt lat="43.0833495" lon="13.2965676"><ele>436.99999999999994</ele><time>2026-05-03T07:16:05.151Z</time></trkpt><trkpt lat="43.0833022" lon="13.2964782"><ele>437.0</ele><time>2026-05-03T07:16:07.151Z</time></trkpt><trkpt lat="43.0832561" lon="13.2964155"><ele>437.8333333333333</ele><time>2026-05-03T07:16:08.152Z</time></trkpt><trkpt lat="43.0831957" lon="13.2963791"><ele>438.66666666666663</ele><time>2026-05-03T07:16:09.151Z</time></trkpt><trkpt lat="43.0831792" lon="13.2962865"><ele>439.5</ele><time>2026-05-03T07:16:11.151Z</time></trkpt><trkpt lat="43.0831399" lon="13.2961828"><ele>440.33333333333337</ele><time>2026-05-03T07:16:13.152Z</time></trkpt><trkpt lat="43.0831107" lon="13.2960849"><ele>441.1666666666667</ele><time>2026-05-03T07:16:15.151Z</time></trkpt><trkpt lat="43.0830737" lon="13.2959919"><ele>442.0</ele><time>2026-05-03T07:16:17.151Z</time></trkpt><trkpt lat="43.0830577" lon="13.29589"><ele>442.00000000000006</ele><time>2026-05-03T07:16:19.151Z</time></trkpt><trkpt lat="43.0830254" lon="13.2958032"><ele>442.0</ele><time>2026-05-03T07:16:21.151Z</time></trkpt><trkpt lat="43.0829846" lon="13.2957195"><ele>442.0</ele><time>2026-05-03T07:16:23.152Z</time></trkpt><trkpt lat="43.0829178" lon="13.2956024"><ele>442.0</ele><time>2026-05-03T07:16:25.151Z</time></trkpt><trkpt lat="43.0828805" lon="13.2955264"><ele>442.00000000000006</ele><time>2026-05-03T07:16:26.151Z</time></trkpt><trkpt lat="43.0828181" lon="13.2954647"><ele>442.0</ele><time>2026-05-03T07:16:27.151Z</time></trkpt><trkpt lat="43.0827901" lon="13.2953587"><ele>442.50000000000006</ele><time>2026-05-03T07:16:29.151Z</time></trkpt><trkpt lat="43.0827535" lon="13.2952412"><ele>443.0</ele><time>2026-05-03T07:16:31.151Z</time></trkpt><trkpt lat="43.0827287" lon="13.2951338"><ele>443.5</ele><time>2026-05-03T07:16:33.151Z</time></trkpt><trkpt lat="43.0826973" lon="13.295047"><ele>444.0</ele><time>2026-05-03T07:16:35.151Z</time></trkpt><trkpt lat="43.0826735" lon="13.2949327"><ele>444.50000000000006</ele><time>2026-05-03T07:16:37.151Z</time></trkpt><trkpt lat="43.0826142" lon="13.2948297"><ele>445.0</ele><time>2026-05-03T07:16:39.151Z</time></trkpt><trkpt lat="43.0825802" lon="13.2947122"><ele>445.33333333333337</ele><time>2026-05-03T07:16:41.151Z</time></trkpt><trkpt lat="43.0825224" lon="13.2946528"><ele>445.6666666666667</ele><time>2026-05-03T07:16:42.151Z</time></trkpt><trkpt lat="43.0825028" lon="13.2945457"><ele>446.0</ele><time>2026-05-03T07:16:44.152Z</time></trkpt><trkpt lat="43.0824688" lon="13.2944542"><ele>446.33333333333337</ele><time>2026-05-03T07:16:46.151Z</time></trkpt><trkpt lat="43.0824364" lon="13.2943522"><ele>446.6666666666667</ele><time>2026-05-03T07:16:48.152Z</time></trkpt><trkpt lat="43.0823963" lon="13.2942358"><ele>447.0</ele><time>2026-05-03T07:16:50.151Z</time></trkpt><trkpt lat="43.0823612" lon="13.2941399"><ele>446.40000000000003</ele><time>2026-05-03T07:16:52.151Z</time></trkpt><trkpt lat="43.082315" lon="13.2940786"><ele>445.80000000000007</ele><time>2026-05-03T07:16:53.151Z</time></trkpt><trkpt lat="43.0822766" lon="13.2939536"><ele>445.2</ele><time>2026-05-03T07:16:55.151Z</time></trkpt><trkpt lat="43.0822118" lon="13.2938291"><ele>444.6</ele><time>2026-05-03T07:16:57.151Z</time></trkpt><trkpt lat="43.0821666" lon="13.2937342"><ele>444.0</ele><time>2026-05-03T07:16:59.151Z</time></trkpt><trkpt lat="43.0821212" lon="13.2936109"><ele>444.0</ele><time>2026-05-03T07:17:01.152Z</time></trkpt><trkpt lat="43.0820776" lon="13.2934988"><ele>444.0</ele><time>2026-05-03T07:17:03.151Z</time></trkpt><trkpt lat="43.0820275" lon="13.2933954"><ele>444.0</ele><time>2026-05-03T07:17:05.151Z</time></trkpt><trkpt lat="43.0819574" lon="13.2932855"><ele>444.0</ele><time>2026-05-03T07:17:07.152Z</time></trkpt><trkpt lat="43.0819351" lon="13.2931992"><ele>444.0</ele><time>2026-05-03T07:17:09.151Z</time></trkpt><trkpt lat="43.081919" lon="13.2930901"><ele>444.0</ele><time>2026-05-03T07:17:11.151Z</time></trkpt><trkpt lat="43.0818729" lon="13.2929864"><ele>444.3333333333333</ele><time>2026-05-03T07:17:13.151Z</time></trkpt><trkpt lat="43.0818324" lon="13.2928917"><ele>444.66666666666663</ele><time>2026-05-03T07:17:15.151Z</time></trkpt><trkpt lat="43.0817916" lon="13.2927787"><ele>445.0</ele><time>2026-05-03T07:17:17.151Z</time></trkpt><trkpt lat="43.0817146" lon="13.2926785"><ele>445.3333333333333</ele><time>2026-05-03T07:17:19.151Z</time></trkpt><trkpt lat="43.0816683" lon="13.2925962"><ele>445.66666666666663</ele><time>2026-05-03T07:17:21.151Z</time></trkpt><trkpt lat="43.0816338" lon="13.2924829"><ele>446.0</ele><time>2026-05-03T07:17:23.151Z</time></trkpt><trkpt lat="43.0815977" lon="13.2923887"><ele>445.99999999999994</ele><time>2026-05-03T07:17:25.151Z</time></trkpt><trkpt lat="43.0815854" lon="13.2922822"><ele>446.0</ele><time>2026-05-03T07:17:27.152Z</time></trkpt><trkpt lat="43.0815467" lon="13.2921797"><ele>446.0</ele><time>2026-05-03T07:17:29.151Z</time></trkpt><trkpt lat="43.0815087" lon="13.2920854"><ele>446.0</ele><time>2026-05-03T07:17:31.151Z</time></trkpt><trkpt lat="43.0814653" lon="13.2919948"><ele>445.99999999999994</ele><time>2026-05-03T07:17:33.151Z</time></trkpt><trkpt lat="43.0814232" lon="13.2918851"><ele>446.0</ele><time>2026-05-03T07:17:35.151Z</time></trkpt><trkpt lat="43.081378" lon="13.2917933"><ele>446.16666666666663</ele><time>2026-05-03T07:17:37.151Z</time></trkpt><trkpt lat="43.0813342" lon="13.2916978"><ele>446.3333333333333</ele><time>2026-05-03T07:17:39.151Z</time></trkpt><trkpt lat="43.0812935" lon="13.2916024"><ele>446.5</ele><time>2026-05-03T07:17:41.151Z</time></trkpt><trkpt lat="43.0812576" lon="13.2915085"><ele>446.66666666666663</ele><time>2026-05-03T07:17:43.151Z</time></trkpt><trkpt lat="43.0812214" lon="13.2914062"><ele>446.8333333333333</ele><time>2026-05-03T07:17:45.151Z</time></trkpt><trkpt lat="43.0811814" lon="13.2913021"><ele>447.0</ele><time>2026-05-03T07:17:47.151Z</time></trkpt><trkpt lat="43.0811232" lon="13.2912395"><ele>447.1666666666667</ele><time>2026-05-03T07:17:48.151Z</time></trkpt><trkpt lat="43.0810708" lon="13.2911254"><ele>447.33333333333337</ele><time>2026-05-03T07:17:50.151Z</time></trkpt><trkpt lat="43.0810428" lon="13.2910315"><ele>447.5</ele><time>2026-05-03T07:17:52.151Z</time></trkpt><trkpt lat="43.0810112" lon="13.290933"><ele>447.6666666666667</ele><time>2026-05-03T07:17:54.151Z</time></trkpt><trkpt lat="43.0809843" lon="13.2908275"><ele>447.83333333333337</ele><time>2026-05-03T07:17:56.151Z</time></trkpt><trkpt lat="43.0809574" lon="13.2907436"><ele>448.0</ele><time>2026-05-03T07:17:58.151Z</time></trkpt><trkpt lat="43.0809057" lon="13.2906528"><ele>448.0</ele><time>2026-05-03T07:18:00.151Z</time></trkpt><trkpt lat="43.0808394" lon="13.2905481"><ele>447.99999999999994</ele><time>2026-05-03T07:18:02.152Z</time></trkpt><trkpt lat="43.0807917" lon="13.2904398"><ele>447.99999999999994</ele><time>2026-05-03T07:18:04.151Z</time></trkpt><trkpt lat="43.0807378" lon="13.290335"><ele>448.0</ele><time>2026-05-03T07:18:06.151Z</time></trkpt><trkpt lat="43.0806883" lon="13.2902183"><ele>448.0</ele><time>2026-05-03T07:18:08.151Z</time></trkpt><trkpt lat="43.0806347" lon="13.290106"><ele>448.1666666666667</ele><time>2026-05-03T07:18:10.151Z</time></trkpt><trkpt lat="43.080602" lon="13.2899912"><ele>448.33333333333337</ele><time>2026-05-03T07:18:12.151Z</time></trkpt><trkpt lat="43.0805662" lon="13.2898892"><ele>448.5</ele><time>2026-05-03T07:18:14.151Z</time></trkpt><trkpt lat="43.0805327" lon="13.2897898"><ele>448.66666666666663</ele><time>2026-05-03T07:18:16.151Z</time></trkpt><trkpt lat="43.08051" lon="13.2896716"><ele>448.8333333333333</ele><time>2026-05-03T07:18:18.151Z</time></trkpt><trkpt lat="43.0804608" lon="13.2895688"><ele>449.0</ele><time>2026-05-03T07:18:20.151Z</time></trkpt><trkpt lat="43.0804002" lon="13.2894559"><ele>448.99999999999994</ele><time>2026-05-03T07:18:22.151Z</time></trkpt><trkpt lat="43.0803544" lon="13.28936"><ele>449.0</ele><time>2026-05-03T07:18:24.151Z</time></trkpt><trkpt lat="43.0802903" lon="13.2892713"><ele>449.0</ele><time>2026-05-03T07:18:26.151Z</time></trkpt><trkpt lat="43.0802592" lon="13.2891747"><ele>449.0</ele><time>2026-05-03T07:18:28.151Z</time></trkpt><trkpt lat="43.0802239" lon="13.2890888"><ele>448.99999999999994</ele><time>2026-05-03T07:18:30.151Z</time></trkpt><trkpt lat="43.0801956" lon="13.2889886"><ele>449.0</ele><time>2026-05-03T07:18:32.151Z</time></trkpt><trkpt lat="43.0801439" lon="13.2888775"><ele>449.3333333333333</ele><time>2026-05-03T07:18:34.151Z</time></trkpt><trkpt lat="43.0801142" lon="13.2887609"><ele>449.66666666666663</ele><time>2026-05-03T07:18:36.151Z</time></trkpt><trkpt lat="43.0800757" lon="13.2886376"><ele>450.0</ele><time>2026-05-03T07:18:38.151Z</time></trkpt><trkpt lat="43.0800257" lon="13.2885243"><ele>450.33333333333337</ele><time>2026-05-03T07:18:40.151Z</time></trkpt><trkpt lat="43.0799946" lon="13.2884196"><ele>450.6666666666667</ele><time>2026-05-03T07:18:42.151Z</time></trkpt><trkpt lat="43.0799657" lon="13.288328"><ele>451.0</ele><time>2026-05-03T07:18:44.151Z</time></trkpt><trkpt lat="43.0798826" lon="13.2882226"><ele>451.00000000000006</ele><time>2026-05-03T07:18:46.151Z</time></trkpt><trkpt lat="43.079842" lon="13.2881139"><ele>451.0</ele><time>2026-05-03T07:18:48.151Z</time></trkpt><trkpt lat="43.0797934" lon="13.2880069"><ele>451.0</ele><time>2026-05-03T07:18:50.151Z</time></trkpt><trkpt lat="43.0797355" lon="13.2879067"><ele>451.0</ele><time>2026-05-03T07:18:52.151Z</time></trkpt><trkpt lat="43.0796924" lon="13.2878149"><ele>451.00000000000006</ele><time>2026-05-03T07:18:54.152Z</time></trkpt><trkpt lat="43.0796717" lon="13.2877005"><ele>451.0</ele><time>2026-05-03T07:18:56.151Z</time></trkpt><trkpt lat="43.0796163" lon="13.2875895"><ele>451.1666666666667</ele><time>2026-05-03T07:18:58.151Z</time></trkpt><trkpt lat="43.079575" lon="13.2874918"><ele>451.33333333333337</ele><time>2026-05-03T07:19:00.151Z</time></trkpt><trkpt lat="43.0795387" lon="13.2873831"><ele>451.5</ele><time>2026-05-03T07:19:02.151Z</time></trkpt><trkpt lat="43.079501" lon="13.2872656"><ele>451.66666666666663</ele><time>2026-05-03T07:19:04.152Z</time></trkpt><trkpt lat="43.0794676" lon="13.2871555"><ele>451.8333333333333</ele><time>2026-05-03T07:19:06.151Z</time></trkpt><trkpt lat="43.0794063" lon="13.2870651"><ele>452.0</ele><time>2026-05-03T07:19:08.151Z</time></trkpt><trkpt lat="43.0793431" lon="13.2870195"><ele>452.66666666666663</ele><time>2026-05-03T07:19:09.151Z</time></trkpt><trkpt lat="43.0793077" lon="13.2869029"><ele>453.3333333333333</ele><time>2026-05-03T07:19:11.151Z</time></trkpt><trkpt lat="43.0792544" lon="13.2867963"><ele>454.0</ele><time>2026-05-03T07:19:13.151Z</time></trkpt><trkpt lat="43.0792067" lon="13.2867013"><ele>454.66666666666663</ele><time>2026-05-03T07:19:15.151Z</time></trkpt><trkpt lat="43.0791763" lon="13.286597"><ele>455.3333333333333</ele><time>2026-05-03T07:19:17.151Z</time></trkpt><trkpt lat="43.079135" lon="13.2864949"><ele>456.0</ele><time>2026-05-03T07:19:19.151Z</time></trkpt><trkpt lat="43.0791137" lon="13.2863989"><ele>456.20000000000005</ele><time>2026-05-03T07:19:21.151Z</time></trkpt><trkpt lat="43.0790768" lon="13.2862983"><ele>456.40000000000003</ele><time>2026-05-03T07:19:23.151Z</time></trkpt><trkpt lat="43.0790325" lon="13.2861973"><ele>456.6</ele><time>2026-05-03T07:19:25.152Z</time></trkpt><trkpt lat="43.0789544" lon="13.2860849"><ele>456.8</ele><time>2026-05-03T07:19:27.151Z</time></trkpt><trkpt lat="43.0789223" lon="13.2859744"><ele>457.0</ele><time>2026-05-03T07:19:29.151Z</time></trkpt><trkpt lat="43.0788747" lon="13.2858687"><ele>457.00000000000006</ele><time>2026-05-03T07:19:31.151Z</time></trkpt><trkpt lat="43.078846" lon="13.2857541"><ele>457.0</ele><time>2026-05-03T07:19:33.152Z</time></trkpt><trkpt lat="43.0787997" lon="13.2856473"><ele>457.0</ele><time>2026-05-03T07:19:35.151Z</time></trkpt><trkpt lat="43.0787728" lon="13.2855427"><ele>457.0</ele><time>2026-05-03T07:19:37.151Z</time></trkpt><trkpt lat="43.078745" lon="13.2854485"><ele>457.00000000000006</ele><time>2026-05-03T07:19:39.151Z</time></trkpt><trkpt lat="43.0787132" lon="13.285358"><ele>457.0</ele><time>2026-05-03T07:19:41.151Z</time></trkpt><trkpt lat="43.0786886" lon="13.2852539"><ele>457.20000000000005</ele><time>2026-05-03T07:19:43.152Z</time></trkpt><trkpt lat="43.0786311" lon="13.2851441"><ele>457.40000000000003</ele><time>2026-05-03T07:19:45.151Z</time></trkpt><trkpt lat="43.0785552" lon="13.2850346"><ele>457.59999999999997</ele><time>2026-05-03T07:19:47.151Z</time></trkpt><trkpt lat="43.0784998" lon="13.2849344"><ele>457.79999999999995</ele><time>2026-05-03T07:19:49.151Z</time></trkpt><trkpt lat="43.0784547" lon="13.2848548"><ele>458.0</ele><time>2026-05-03T07:19:51.151Z</time></trkpt><trkpt lat="43.078416" lon="13.2847486"><ele>457.99999999999994</ele><time>2026-05-03T07:19:53.151Z</time></trkpt><trkpt lat="43.0783766" lon="13.2846455"><ele>458.0</ele><time>2026-05-03T07:19:55.151Z</time></trkpt><trkpt lat="43.0783324" lon="13.2845456"><ele>458.0</ele><time>2026-05-03T07:19:57.151Z</time></trkpt><trkpt lat="43.0783047" lon="13.2844491"><ele>458.0</ele><time>2026-05-03T07:19:59.151Z</time></trkpt><trkpt lat="43.078265" lon="13.2843376"><ele>457.99999999999994</ele><time>2026-05-03T07:20:01.151Z</time></trkpt><trkpt lat="43.0782192" lon="13.2842278"><ele>458.0</ele><time>2026-05-03T07:20:03.151Z</time></trkpt><trkpt lat="43.0781768" lon="13.2841203"><ele>458.16666666666663</ele><time>2026-05-03T07:20:05.151Z</time></trkpt><trkpt lat="43.0781258" lon="13.2840085"><ele>458.3333333333333</ele><time>2026-05-03T07:20:07.151Z</time></trkpt><trkpt lat="43.0781026" lon="13.2839247"><ele>458.5</ele><time>2026-05-03T07:20:09.151Z</time></trkpt><trkpt lat="43.0780327" lon="13.2838267"><ele>458.66666666666663</ele><time>2026-05-03T07:20:11.152Z</time></trkpt><trkpt lat="43.077998" lon="13.2837068"><ele>458.8333333333333</ele><time>2026-05-03T07:20:13.152Z</time></trkpt><trkpt lat="43.0779598" lon="13.2836015"><ele>459.0</ele><time>2026-05-03T07:20:15.151Z</time></trkpt><trkpt lat="43.077948" lon="13.2834978"><ele>459.3333333333333</ele><time>2026-05-03T07:20:17.151Z</time></trkpt><trkpt lat="43.0779071" lon="13.2833915"><ele>459.66666666666663</ele><time>2026-05-03T07:20:19.151Z</time></trkpt><trkpt lat="43.0778615" lon="13.2832984"><ele>460.0</ele><time>2026-05-03T07:20:21.151Z</time></trkpt><trkpt lat="43.0778381" lon="13.2831979"><ele>460.3333333333333</ele><time>2026-05-03T07:20:23.151Z</time></trkpt><trkpt lat="43.0778095" lon="13.2830887"><ele>460.66666666666663</ele><time>2026-05-03T07:20:25.152Z</time></trkpt><trkpt lat="43.0777486" lon="13.2829718"><ele>461.0</ele><time>2026-05-03T07:20:27.151Z</time></trkpt><trkpt lat="43.0777039" lon="13.282857"><ele>460.99999999999994</ele><time>2026-05-03T07:20:29.151Z</time></trkpt><trkpt lat="43.0776418" lon="13.2827543"><ele>461.0</ele><time>2026-05-03T07:20:31.151Z</time></trkpt><trkpt lat="43.0775955" lon="13.282645"><ele>461.0</ele><time>2026-05-03T07:20:33.151Z</time></trkpt><trkpt lat="43.0775653" lon="13.2825507"><ele>461.0</ele><time>2026-05-03T07:20:35.151Z</time></trkpt><trkpt lat="43.0775352" lon="13.2824493"><ele>460.99999999999994</ele><time>2026-05-03T07:20:37.152Z</time></trkpt><trkpt lat="43.077497" lon="13.2823499"><ele>461.0</ele><time>2026-05-03T07:20:39.151Z</time></trkpt><trkpt lat="43.0774765" lon="13.2822662"><ele>461.6</ele><time>2026-05-03T07:20:41.151Z</time></trkpt><trkpt lat="43.0774299" lon="13.282172"><ele>462.20000000000005</ele><time>2026-05-03T07:20:43.151Z</time></trkpt><trkpt lat="43.0773652" lon="13.2820508"><ele>462.79999999999995</ele><time>2026-05-03T07:20:45.151Z</time></trkpt><trkpt lat="43.0773152" lon="13.2819475"><ele>463.4</ele><time>2026-05-03T07:20:47.151Z</time></trkpt><trkpt lat="43.077256" lon="13.2818373"><ele>464.0</ele><time>2026-05-03T07:20:49.151Z</time></trkpt><trkpt lat="43.0772401" lon="13.2817491"><ele>463.99999999999994</ele><time>2026-05-03T07:20:51.151Z</time></trkpt><trkpt lat="43.0772112" lon="13.2816451"><ele>464.0</ele><time>2026-05-03T07:20:53.151Z</time></trkpt><trkpt lat="43.0771726" lon="13.2815422"><ele>464.0</ele><time>2026-05-03T07:20:55.151Z</time></trkpt><trkpt lat="43.0771185" lon="13.2814485"><ele>464.0</ele><time>2026-05-03T07:20:57.151Z</time></trkpt><trkpt lat="43.0770701" lon="13.2813564"><ele>463.99999999999994</ele><time>2026-05-03T07:20:59.151Z</time></trkpt><trkpt lat="43.077022" lon="13.2812496"><ele>464.0</ele><time>2026-05-03T07:21:01.151Z</time></trkpt><trkpt lat="43.0769993" lon="13.2811506"><ele>464.16666666666663</ele><time>2026-05-03T07:21:03.151Z</time></trkpt><trkpt lat="43.0769526" lon="13.2810638"><ele>464.3333333333333</ele><time>2026-05-03T07:21:05.151Z</time></trkpt><trkpt lat="43.0768935" lon="13.281008"><ele>464.5</ele><time>2026-05-03T07:21:06.151Z</time></trkpt><trkpt lat="43.0768247" lon="13.2809193"><ele>464.66666666666663</ele><time>2026-05-03T07:21:08.151Z</time></trkpt><trkpt lat="43.0768144" lon="13.2807854"><ele>464.8333333333333</ele><time>2026-05-03T07:21:11.151Z</time></trkpt><trkpt lat="43.0767706" lon="13.2806608"><ele>465.0</ele><time>2026-05-03T07:21:14.151Z</time></trkpt><trkpt lat="43.0767558" lon="13.280537"><ele>465.1666666666667</ele><time>2026-05-03T07:21:17.152Z</time></trkpt><trkpt lat="43.0767109" lon="13.2804348"><ele>465.33333333333337</ele><time>2026-05-03T07:21:19.151Z</time></trkpt><trkpt lat="43.0766752" lon="13.2803426"><ele>465.5</ele><time>2026-05-03T07:21:21.151Z</time></trkpt><trkpt lat="43.0766466" lon="13.2802488"><ele>465.6666666666667</ele><time>2026-05-03T07:21:23.152Z</time></trkpt><trkpt lat="43.0766003" lon="13.2801546"><ele>465.83333333333337</ele><time>2026-05-03T07:21:25.151Z</time></trkpt><trkpt lat="43.0765468" lon="13.2800661"><ele>466.0</ele><time>2026-05-03T07:21:27.151Z</time></trkpt><trkpt lat="43.0764841" lon="13.2799875"><ele>466.00000000000006</ele><time>2026-05-03T07:21:29.151Z</time></trkpt><trkpt lat="43.076429" lon="13.2799225"><ele>466.0</ele><time>2026-05-03T07:21:31.152Z</time></trkpt><trkpt lat="43.0763538" lon="13.279863"><ele>466.0</ele><time>2026-05-03T07:21:33.151Z</time></trkpt><trkpt lat="43.0762897" lon="13.2798095"><ele>466.0</ele><time>2026-05-03T07:21:35.151Z</time></trkpt><trkpt lat="43.0762289" lon="13.2797445"><ele>466.00000000000006</ele><time>2026-05-03T07:21:37.151Z</time></trkpt><trkpt lat="43.0761616" lon="13.279693"><ele>466.0</ele><time>2026-05-03T07:21:39.151Z</time></trkpt><trkpt lat="43.0760898" lon="13.279659"><ele>466.00000000000006</ele><time>2026-05-03T07:21:41.152Z</time></trkpt><trkpt lat="43.0760052" lon="13.2796275"><ele>466.0</ele><time>2026-05-03T07:21:43.151Z</time></trkpt><trkpt lat="43.0759376" lon="13.27959"><ele>466.0</ele><time>2026-05-03T07:21:45.152Z</time></trkpt><trkpt lat="43.0758809" lon="13.2795114"><ele>466.0</ele><time>2026-05-03T07:21:47.151Z</time></trkpt><trkpt lat="43.0758134" lon="13.2794416"><ele>466.00000000000006</ele><time>2026-05-03T07:21:49.151Z</time></trkpt><trkpt lat="43.0757503" lon="13.2794284"><ele>466.0</ele><time>2026-05-03T07:21:50.151Z</time></trkpt><trkpt lat="43.0756503" lon="13.2793809"><ele>466.50000000000006</ele><time>2026-05-03T07:21:53.152Z</time></trkpt><trkpt lat="43.0755791" lon="13.2793296"><ele>467.0</ele><time>2026-05-03T07:21:55.151Z</time></trkpt><trkpt lat="43.0755076" lon="13.2792854"><ele>467.5</ele><time>2026-05-03T07:21:57.152Z</time></trkpt><trkpt lat="43.0754316" lon="13.2792414"><ele>468.0</ele><time>2026-05-03T07:21:59.151Z</time></trkpt><trkpt lat="43.0753606" lon="13.2791914"><ele>468.50000000000006</ele><time>2026-05-03T07:22:01.152Z</time></trkpt><trkpt lat="43.075288" lon="13.2791344"><ele>469.0</ele><time>2026-05-03T07:22:03.151Z</time></trkpt><trkpt lat="43.0752234" lon="13.2790661"><ele>469.00000000000006</ele><time>2026-05-03T07:22:05.151Z</time></trkpt><trkpt lat="43.0751495" lon="13.2790099"><ele>469.0</ele><time>2026-05-03T07:22:07.151Z</time></trkpt><trkpt lat="43.0750755" lon="13.2789573"><ele>469.0</ele><time>2026-05-03T07:22:09.151Z</time></trkpt><trkpt lat="43.0750035" lon="13.2789025"><ele>469.0</ele><time>2026-05-03T07:22:11.151Z</time></trkpt><trkpt lat="43.0749329" lon="13.2788679"><ele>469.00000000000006</ele><time>2026-05-03T07:22:13.151Z</time></trkpt><trkpt lat="43.0748565" lon="13.2788207"><ele>469.0</ele><time>2026-05-03T07:22:15.152Z</time></trkpt><trkpt lat="43.0747849" lon="13.2787636"><ele>469.33333333333337</ele><time>2026-05-03T07:22:17.151Z</time></trkpt><trkpt lat="43.0747209" lon="13.2787033"><ele>469.6666666666667</ele><time>2026-05-03T07:22:19.151Z</time></trkpt><trkpt lat="43.0746353" lon="13.2786612"><ele>470.0</ele><time>2026-05-03T07:22:21.151Z</time></trkpt><trkpt lat="43.0745431" lon="13.2786186"><ele>470.33333333333337</ele><time>2026-05-03T07:22:23.151Z</time></trkpt><trkpt lat="43.0744807" lon="13.2785889"><ele>470.6666666666667</ele><time>2026-05-03T07:22:25.151Z</time></trkpt><trkpt lat="43.0744086" lon="13.2785551"><ele>471.0</ele><time>2026-05-03T07:22:27.152Z</time></trkpt><trkpt lat="43.074334" lon="13.2785132"><ele>471.0</ele><time>2026-05-03T07:22:29.151Z</time></trkpt><trkpt lat="43.0742617" lon="13.2784614"><ele>471.0</ele><time>2026-05-03T07:22:31.151Z</time></trkpt><trkpt lat="43.0741963" lon="13.2784132"><ele>471.0</ele><time>2026-05-03T07:22:33.151Z</time></trkpt><trkpt lat="43.0741278" lon="13.2783631"><ele>471.0</ele><time>2026-05-03T07:22:35.151Z</time></trkpt><trkpt lat="43.0740508" lon="13.278309"><ele>471.0</ele><time>2026-05-03T07:22:37.151Z</time></trkpt><trkpt lat="43.0739775" lon="13.2782526"><ele>471.0</ele><time>2026-05-03T07:22:39.151Z</time></trkpt><trkpt lat="43.0739035" lon="13.2782416"><ele>470.8333333333333</ele><time>2026-05-03T07:22:41.151Z</time></trkpt><trkpt lat="43.0738384" lon="13.2782316"><ele>470.66666666666663</ele><time>2026-05-03T07:22:43.151Z</time></trkpt><trkpt lat="43.0737694" lon="13.2782115"><ele>470.5</ele><time>2026-05-03T07:22:45.151Z</time></trkpt><trkpt lat="43.0736892" lon="13.2781985"><ele>470.3333333333333</ele><time>2026-05-03T07:22:47.151Z</time></trkpt><trkpt lat="43.0736137" lon="13.2781269"><ele>470.16666666666663</ele><time>2026-05-03T07:22:49.151Z</time></trkpt><trkpt lat="43.0735401" lon="13.2781015"><ele>470.0</ele><time>2026-05-03T07:22:51.151Z</time></trkpt><trkpt lat="43.0734705" lon="13.2780804"><ele>470.3333333333333</ele><time>2026-05-03T07:22:53.151Z</time></trkpt><trkpt lat="43.0733984" lon="13.2780363"><ele>470.66666666666663</ele><time>2026-05-03T07:22:55.151Z</time></trkpt><trkpt lat="43.0733265" lon="13.2779974"><ele>471.0</ele><time>2026-05-03T07:22:57.151Z</time></trkpt><trkpt lat="43.0732618" lon="13.27793"><ele>471.33333333333337</ele><time>2026-05-03T07:22:59.151Z</time></trkpt><trkpt lat="43.0731984" lon="13.2778859"><ele>471.6666666666667</ele><time>2026-05-03T07:23:01.152Z</time></trkpt><trkpt lat="43.0731298" lon="13.2778404"><ele>472.0</ele><time>2026-05-03T07:23:03.151Z</time></trkpt><trkpt lat="43.0730649" lon="13.2778162"><ele>472.00000000000006</ele><time>2026-05-03T07:23:05.151Z</time></trkpt><trkpt lat="43.0729518" lon="13.2778106"><ele>472.0</ele><time>2026-05-03T07:23:07.151Z</time></trkpt><trkpt lat="43.0728883" lon="13.2777825"><ele>472.0</ele><time>2026-05-03T07:23:09.151Z</time></trkpt><trkpt lat="43.0728205" lon="13.2777545"><ele>472.0</ele><time>2026-05-03T07:23:11.151Z</time></trkpt><trkpt lat="43.0727714" lon="13.2776169"><ele>472.00000000000006</ele><time>2026-05-03T07:23:13.151Z</time></trkpt><trkpt lat="43.0727396" lon="13.2775365"><ele>472.0</ele><time>2026-05-03T07:23:14.151Z</time></trkpt><trkpt lat="43.0726643" lon="13.2774508"><ele>472.00000000000006</ele><time>2026-05-03T07:23:16.151Z</time></trkpt><trkpt lat="43.0725973" lon="13.2773958"><ele>472.0</ele><time>2026-05-03T07:23:18.151Z</time></trkpt><trkpt lat="43.0725236" lon="13.277353"><ele>472.0</ele><time>2026-05-03T07:23:20.151Z</time></trkpt><trkpt lat="43.0724506" lon="13.2773216"><ele>472.0</ele><time>2026-05-03T07:23:22.151Z</time></trkpt><trkpt lat="43.0723742" lon="13.2773057"><ele>472.00000000000006</ele><time>2026-05-03T07:23:24.151Z</time></trkpt><trkpt lat="43.0723026" lon="13.2772944"><ele>472.0</ele><time>2026-05-03T07:23:26.151Z</time></trkpt><trkpt lat="43.0722095" lon="13.2772646"><ele>472.6666666666667</ele><time>2026-05-03T07:23:29.151Z</time></trkpt><trkpt lat="43.0721324" lon="13.2772122"><ele>473.33333333333337</ele><time>2026-05-03T07:23:32.151Z</time></trkpt><trkpt lat="43.0720575" lon="13.2771282"><ele>474.0</ele><time>2026-05-03T07:23:35.151Z</time></trkpt><trkpt lat="43.0720031" lon="13.2770827"><ele>474.66666666666663</ele><time>2026-05-03T07:23:37.151Z</time></trkpt><trkpt lat="43.0719378" lon="13.2770378"><ele>475.3333333333333</ele><time>2026-05-03T07:23:39.151Z</time></trkpt><trkpt lat="43.0718788" lon="13.2770032"><ele>476.0</ele><time>2026-05-03T07:23:41.151Z</time></trkpt><trkpt lat="43.0718132" lon="13.2769787"><ele>475.99999999999994</ele><time>2026-05-03T07:23:43.152Z</time></trkpt><trkpt lat="43.0717443" lon="13.2769503"><ele>476.0</ele><time>2026-05-03T07:23:45.151Z</time></trkpt><trkpt lat="43.0716738" lon="13.2769133"><ele>476.0</ele><time>2026-05-03T07:23:47.151Z</time></trkpt><trkpt lat="43.0715851" lon="13.2768564"><ele>476.0</ele><time>2026-05-03T07:23:50.151Z</time></trkpt><trkpt lat="43.0715102" lon="13.2768042"><ele>475.99999999999994</ele><time>2026-05-03T07:23:52.151Z</time></trkpt><trkpt lat="43.0714358" lon="13.2767567"><ele>476.0</ele><time>2026-05-03T07:23:54.151Z</time></trkpt><trkpt lat="43.0713646" lon="13.2767223"><ele>476.42857142857144</ele><time>2026-05-03T07:23:56.151Z</time></trkpt><trkpt lat="43.0712918" lon="13.2766772"><ele>476.8571428571429</ele><time>2026-05-03T07:23:58.151Z</time></trkpt><trkpt lat="43.0712262" lon="13.2766277"><ele>477.2857142857143</ele><time>2026-05-03T07:24:00.151Z</time></trkpt><trkpt lat="43.0711641" lon="13.2765699"><ele>477.7142857142857</ele><time>2026-05-03T07:24:02.151Z</time></trkpt><trkpt lat="43.0711012" lon="13.2765264"><ele>478.14285714285717</ele><time>2026-05-03T07:24:04.151Z</time></trkpt><trkpt lat="43.0710361" lon="13.2764834"><ele>478.57142857142856</ele><time>2026-05-03T07:24:06.151Z</time></trkpt><trkpt lat="43.070974" lon="13.2764307"><ele>479.0</ele><time>2026-05-03T07:24:08.151Z</time></trkpt><trkpt lat="43.0709071" lon="13.2763822"><ele>479.16666666666663</ele><time>2026-05-03T07:24:10.151Z</time></trkpt><trkpt lat="43.0708288" lon="13.2763629"><ele>479.3333333333333</ele><time>2026-05-03T07:24:12.151Z</time></trkpt><trkpt lat="43.0707633" lon="13.2763285"><ele>479.5</ele><time>2026-05-03T07:24:14.151Z</time></trkpt><trkpt lat="43.0706945" lon="13.2762995"><ele>479.66666666666663</ele><time>2026-05-03T07:24:16.151Z</time></trkpt><trkpt lat="43.0706221" lon="13.2762771"><ele>479.8333333333333</ele><time>2026-05-03T07:24:18.151Z</time></trkpt><trkpt lat="43.0705527" lon="13.2762401"><ele>480.0</ele><time>2026-05-03T07:24:20.151Z</time></trkpt><trkpt lat="43.0704663" lon="13.276206"><ele>480.6666666666667</ele><time>2026-05-03T07:24:22.151Z</time></trkpt><trkpt lat="43.0703905" lon="13.2761561"><ele>481.33333333333337</ele><time>2026-05-03T07:24:24.151Z</time></trkpt><trkpt lat="43.0703235" lon="13.276098"><ele>482.0</ele><time>2026-05-03T07:24:26.151Z</time></trkpt><trkpt lat="43.0702882" lon="13.2760174"><ele>482.6666666666667</ele><time>2026-05-03T07:24:27.151Z</time></trkpt><trkpt lat="43.0702239" lon="13.2759857"><ele>483.33333333333337</ele><time>2026-05-03T07:24:29.151Z</time></trkpt><trkpt lat="43.0701799" lon="13.2758652"><ele>484.0</ele><time>2026-05-03T07:24:31.151Z</time></trkpt><trkpt lat="43.0700934" lon="13.2758824"><ele>484.0</ele><time>2026-05-03T07:24:33.152Z</time></trkpt><trkpt lat="43.0700341" lon="13.275832"><ele>483.99999999999994</ele><time>2026-05-03T07:24:35.151Z</time></trkpt><trkpt lat="43.0699772" lon="13.2757715"><ele>484.0</ele><time>2026-05-03T07:24:37.151Z</time></trkpt><trkpt lat="43.0699123" lon="13.2757374"><ele>484.0</ele><time>2026-05-03T07:24:39.151Z</time></trkpt><trkpt lat="43.0698378" lon="13.2756791"><ele>483.99999999999994</ele><time>2026-05-03T07:24:41.151Z</time></trkpt><trkpt lat="43.0697745" lon="13.2756575"><ele>484.0</ele><time>2026-05-03T07:24:43.151Z</time></trkpt><trkpt lat="43.0697024" lon="13.2756133"><ele>484.0</ele><time>2026-05-03T07:24:45.152Z</time></trkpt><trkpt lat="43.0696282" lon="13.2755723"><ele>484.4</ele><time>2026-05-03T07:24:47.151Z</time></trkpt><trkpt lat="43.0695328" lon="13.2755359"><ele>484.79999999999995</ele><time>2026-05-03T07:24:49.151Z</time></trkpt><trkpt lat="43.0694529" lon="13.2754704"><ele>485.20000000000005</ele><time>2026-05-03T07:24:51.151Z</time></trkpt><trkpt lat="43.0693666" lon="13.2754271"><ele>485.6</ele><time>2026-05-03T07:24:53.151Z</time></trkpt><trkpt lat="43.0692938" lon="13.2753358"><ele>486.0</ele><time>2026-05-03T07:24:55.151Z</time></trkpt><trkpt lat="43.0692221" lon="13.2753258"><ele>486.0</ele><time>2026-05-03T07:24:57.151Z</time></trkpt><trkpt lat="43.0691444" lon="13.2752568"><ele>486.0</ele><time>2026-05-03T07:24:59.151Z</time></trkpt><trkpt lat="43.0690688" lon="13.2751951"><ele>486.0</ele><time>2026-05-03T07:25:01.152Z</time></trkpt><trkpt lat="43.068992" lon="13.2751392"><ele>486.0</ele><time>2026-05-03T07:25:03.151Z</time></trkpt><trkpt lat="43.0689094" lon="13.2750983"><ele>486.0</ele><time>2026-05-03T07:25:05.151Z</time></trkpt><trkpt lat="43.068827" lon="13.275044"><ele>486.0</ele><time>2026-05-03T07:25:07.151Z</time></trkpt><trkpt lat="43.0687586" lon="13.2750185"><ele>486.6666666666667</ele><time>2026-05-03T07:25:09.151Z</time></trkpt><trkpt lat="43.0686648" lon="13.2750154"><ele>487.33333333333337</ele><time>2026-05-03T07:25:11.152Z</time></trkpt><trkpt lat="43.0685831" lon="13.2749684"><ele>488.0</ele><time>2026-05-03T07:25:13.152Z</time></trkpt><trkpt lat="43.0685106" lon="13.2749318"><ele>488.6666666666667</ele><time>2026-05-03T07:25:15.151Z</time></trkpt><trkpt lat="43.0684417" lon="13.2748857"><ele>489.33333333333337</ele><time>2026-05-03T07:25:17.152Z</time></trkpt><trkpt lat="43.0683621" lon="13.274843"><ele>490.0</ele><time>2026-05-03T07:25:19.151Z</time></trkpt><trkpt lat="43.0682951" lon="13.2747969"><ele>490.50000000000006</ele><time>2026-05-03T07:25:21.151Z</time></trkpt><trkpt lat="43.0682173" lon="13.274753"><ele>491.0</ele><time>2026-05-03T07:25:23.151Z</time></trkpt><trkpt lat="43.0681417" lon="13.2747109"><ele>491.5</ele><time>2026-05-03T07:25:25.151Z</time></trkpt><trkpt lat="43.0680652" lon="13.274668"><ele>492.0</ele><time>2026-05-03T07:25:27.151Z</time></trkpt><trkpt lat="43.0679927" lon="13.2746189"><ele>492.50000000000006</ele><time>2026-05-03T07:25:29.151Z</time></trkpt><trkpt lat="43.0679212" lon="13.2745768"><ele>493.0</ele><time>2026-05-03T07:25:31.151Z</time></trkpt><trkpt lat="43.067848" lon="13.2745417"><ele>493.0</ele><time>2026-05-03T07:25:33.151Z</time></trkpt><trkpt lat="43.0677798" lon="13.2744965"><ele>493.0</ele><time>2026-05-03T07:25:35.151Z</time></trkpt><trkpt lat="43.0677092" lon="13.2744455"><ele>493.0</ele><time>2026-05-03T07:25:37.151Z</time></trkpt><trkpt lat="43.067639" lon="13.2744392"><ele>493.0</ele><time>2026-05-03T07:25:39.152Z</time></trkpt><trkpt lat="43.0675663" lon="13.2744181"><ele>493.0</ele><time>2026-05-03T07:25:41.151Z</time></trkpt><trkpt lat="43.0674945" lon="13.2744056"><ele>493.0</ele><time>2026-05-03T07:25:43.151Z</time></trkpt><trkpt lat="43.0674272" lon="13.2743767"><ele>493.0</ele><time>2026-05-03T07:25:45.151Z</time></trkpt><trkpt lat="43.0673526" lon="13.2743483"><ele>494.00000000000006</ele><time>2026-05-03T07:25:47.151Z</time></trkpt><trkpt lat="43.067286" lon="13.2743106"><ele>495.0</ele><time>2026-05-03T07:25:49.151Z</time></trkpt><trkpt lat="43.0672236" lon="13.2742564"><ele>496.0</ele><time>2026-05-03T07:25:51.151Z</time></trkpt><trkpt lat="43.0671621" lon="13.2742109"><ele>497.0</ele><time>2026-05-03T07:25:53.151Z</time></trkpt><trkpt lat="43.067095" lon="13.2741482"><ele>498.00000000000006</ele><time>2026-05-03T07:25:55.151Z</time></trkpt><trkpt lat="43.0670239" lon="13.2740871"><ele>499.0</ele><time>2026-05-03T07:25:57.151Z</time></trkpt><trkpt lat="43.0669545" lon="13.2740401"><ele>499.00000000000006</ele><time>2026-05-03T07:25:59.151Z</time></trkpt><trkpt lat="43.0668873" lon="13.2739884"><ele>499.0</ele><time>2026-05-03T07:26:01.152Z</time></trkpt><trkpt lat="43.0668155" lon="13.2739419"><ele>499.00000000000006</ele><time>2026-05-03T07:26:03.151Z</time></trkpt><trkpt lat="43.0667533" lon="13.273904"><ele>499.00000000000006</ele><time>2026-05-03T07:26:05.152Z</time></trkpt><trkpt lat="43.0666842" lon="13.2738719"><ele>499.0</ele><time>2026-05-03T07:26:07.152Z</time></trkpt><trkpt lat="43.0666138" lon="13.2738412"><ele>499.00000000000006</ele><time>2026-05-03T07:26:09.151Z</time></trkpt><trkpt lat="43.0665515" lon="13.2737993"><ele>499.00000000000006</ele><time>2026-05-03T07:26:11.151Z</time></trkpt><trkpt lat="43.0664833" lon="13.2737421"><ele>499.6666666666667</ele><time>2026-05-03T07:26:13.151Z</time></trkpt><trkpt lat="43.0664256" lon="13.2736697"><ele>500.33333333333337</ele><time>2026-05-03T07:26:15.151Z</time></trkpt><trkpt lat="43.0663656" lon="13.2736148"><ele>501.0</ele><time>2026-05-03T07:26:17.151Z</time></trkpt><trkpt lat="43.0662991" lon="13.2735422"><ele>501.66666666666663</ele><time>2026-05-03T07:26:19.152Z</time></trkpt><trkpt lat="43.0662425" lon="13.2734603"><ele>502.3333333333333</ele><time>2026-05-03T07:26:21.151Z</time></trkpt><trkpt lat="43.0661879" lon="13.2734079"><ele>503.0</ele><time>2026-05-03T07:26:23.151Z</time></trkpt><trkpt lat="43.0661248" lon="13.2733709"><ele>503.0</ele><time>2026-05-03T07:26:25.151Z</time></trkpt><trkpt lat="43.0660581" lon="13.2733346"><ele>503.00000000000006</ele><time>2026-05-03T07:26:27.151Z</time></trkpt><trkpt lat="43.0659913" lon="13.2732916"><ele>503.0</ele><time>2026-05-03T07:26:29.151Z</time></trkpt><trkpt lat="43.0659314" lon="13.2732457"><ele>503.0</ele><time>2026-05-03T07:26:31.151Z</time></trkpt><trkpt lat="43.0658793" lon="13.2731907"><ele>503.00000000000006</ele><time>2026-05-03T07:26:33.151Z</time></trkpt><trkpt lat="43.0658191" lon="13.2731488"><ele>503.0</ele><time>2026-05-03T07:26:35.151Z</time></trkpt><trkpt lat="43.0657369" lon="13.2730932"><ele>503.0</ele><time>2026-05-03T07:26:38.151Z</time></trkpt><trkpt lat="43.0656738" lon="13.2730669"><ele>503.5714285714286</ele><time>2026-05-03T07:26:40.151Z</time></trkpt><trkpt lat="43.065609" lon="13.2730411"><ele>504.1428571428572</ele><time>2026-05-03T07:26:42.151Z</time></trkpt><trkpt lat="43.0655459" lon="13.2730033"><ele>504.7142857142857</ele><time>2026-05-03T07:26:44.151Z</time></trkpt><trkpt lat="43.0654844" lon="13.272957"><ele>505.28571428571433</ele><time>2026-05-03T07:26:46.151Z</time></trkpt><trkpt lat="43.0654219" lon="13.2729161"><ele>505.8571428571429</ele><time>2026-05-03T07:26:48.151Z</time></trkpt><trkpt lat="43.0653601" lon="13.2728724"><ele>506.42857142857144</ele><time>2026-05-03T07:26:50.152Z</time></trkpt><trkpt lat="43.0652927" lon="13.2728359"><ele>507.0</ele><time>2026-05-03T07:26:52.151Z</time></trkpt><trkpt lat="43.0652296" lon="13.2727915"><ele>507.0</ele><time>2026-05-03T07:26:54.152Z</time></trkpt><trkpt lat="43.0651698" lon="13.2727409"><ele>507.0</ele><time>2026-05-03T07:26:56.151Z</time></trkpt><trkpt lat="43.0651074" lon="13.2726932"><ele>507.0</ele><time>2026-05-03T07:26:58.151Z</time></trkpt><trkpt lat="43.0650381" lon="13.2726547"><ele>507.0</ele><time>2026-05-03T07:27:00.152Z</time></trkpt><trkpt lat="43.0649695" lon="13.2726189"><ele>507.0</ele><time>2026-05-03T07:27:02.152Z</time></trkpt><trkpt lat="43.064903" lon="13.2725749"><ele>507.0</ele><time>2026-05-03T07:27:04.151Z</time></trkpt><trkpt lat="43.0648376" lon="13.2725237"><ele>507.0</ele><time>2026-05-03T07:27:06.151Z</time></trkpt><trkpt lat="43.0647748" lon="13.272468"><ele>507.6666666666667</ele><time>2026-05-03T07:27:08.152Z</time></trkpt><trkpt lat="43.0647027" lon="13.2724376"><ele>508.33333333333337</ele><time>2026-05-03T07:27:10.151Z</time></trkpt><trkpt lat="43.0646455" lon="13.272389"><ele>509.0</ele><time>2026-05-03T07:27:12.152Z</time></trkpt><trkpt lat="43.0645646" lon="13.2723349"><ele>509.6666666666667</ele><time>2026-05-03T07:27:15.151Z</time></trkpt><trkpt lat="43.0644831" lon="13.2722848"><ele>510.33333333333337</ele><time>2026-05-03T07:27:18.151Z</time></trkpt><trkpt lat="43.0644125" lon="13.2722123"><ele>511.0</ele><time>2026-05-03T07:27:21.151Z</time></trkpt><trkpt lat="43.0643564" lon="13.2721698"><ele>511.00000000000006</ele><time>2026-05-03T07:27:23.151Z</time></trkpt><trkpt lat="43.064274" lon="13.2721062"><ele>511.0</ele><time>2026-05-03T07:27:26.151Z</time></trkpt><trkpt lat="43.0642192" lon="13.2720507"><ele>511.0</ele><time>2026-05-03T07:27:28.151Z</time></trkpt><trkpt lat="43.0641432" lon="13.2720181"><ele>511.0</ele><time>2026-05-03T07:27:30.152Z</time></trkpt><trkpt lat="43.0640812" lon="13.2719945"><ele>511.00000000000006</ele><time>2026-05-03T07:27:32.151Z</time></trkpt><trkpt lat="43.0640157" lon="13.2719527"><ele>511.0</ele><time>2026-05-03T07:27:34.151Z</time></trkpt><trkpt lat="43.0639444" lon="13.2719147"><ele>512.0</ele><time>2026-05-03T07:27:36.152Z</time></trkpt><trkpt lat="43.0638804" lon="13.2718971"><ele>513.0</ele><time>2026-05-03T07:27:38.151Z</time></trkpt><trkpt lat="43.0638176" lon="13.2718692"><ele>514.0</ele><time>2026-05-03T07:27:40.151Z</time></trkpt><trkpt lat="43.0637597" lon="13.2718335"><ele>515.0</ele><time>2026-05-03T07:27:42.151Z</time></trkpt><trkpt lat="43.0636965" lon="13.2718"><ele>516.0</ele><time>2026-05-03T07:27:44.151Z</time></trkpt><trkpt lat="43.0636233" lon="13.2717712"><ele>517.0</ele><time>2026-05-03T07:27:46.151Z</time></trkpt><trkpt lat="43.0635572" lon="13.2717446"><ele>518.0</ele><time>2026-05-03T07:27:48.151Z</time></trkpt><trkpt lat="43.063495" lon="13.2717134"><ele>518.0</ele><time>2026-05-03T07:27:50.151Z</time></trkpt><trkpt lat="43.0634336" lon="13.271676"><ele>518.0</ele><time>2026-05-03T07:27:52.152Z</time></trkpt><trkpt lat="43.0633498" lon="13.2716162"><ele>518.0</ele><time>2026-05-03T07:27:55.151Z</time></trkpt><trkpt lat="43.0632765" lon="13.2715419"><ele>518.0</ele><time>2026-05-03T07:27:58.151Z</time></trkpt><trkpt lat="43.0631912" lon="13.2714986"><ele>518.0</ele><time>2026-05-03T07:28:01.151Z</time></trkpt><trkpt lat="43.063131" lon="13.2714624"><ele>518.0</ele><time>2026-05-03T07:28:03.151Z</time></trkpt><trkpt lat="43.0630683" lon="13.2714281"><ele>519.0</ele><time>2026-05-03T07:28:05.151Z</time></trkpt><trkpt lat="43.0630101" lon="13.2713747"><ele>520.0</ele><time>2026-05-03T07:28:07.152Z</time></trkpt><trkpt lat="43.0629477" lon="13.2713316"><ele>521.0</ele><time>2026-05-03T07:28:09.151Z</time></trkpt><trkpt lat="43.0628895" lon="13.2712915"><ele>522.0</ele><time>2026-05-03T07:28:11.152Z</time></trkpt><trkpt lat="43.0628326" lon="13.2712476"><ele>523.0</ele><time>2026-05-03T07:28:13.152Z</time></trkpt><trkpt lat="43.0627548" lon="13.2712092"><ele>524.0</ele><time>2026-05-03T07:28:16.151Z</time></trkpt><trkpt lat="43.0626687" lon="13.2711577"><ele>525.0</ele><time>2026-05-03T07:28:19.151Z</time></trkpt><trkpt lat="43.0626095" lon="13.271117"><ele>525.0</ele><time>2026-05-03T07:28:21.151Z</time></trkpt><trkpt lat="43.0625404" lon="13.2710939"><ele>525.0</ele><time>2026-05-03T07:28:23.152Z</time></trkpt><trkpt lat="43.062481" lon="13.271062"><ele>525.0</ele><time>2026-05-03T07:28:25.151Z</time></trkpt><trkpt lat="43.0624114" lon="13.2710096"><ele>525.0</ele><time>2026-05-03T07:28:28.151Z</time></trkpt><trkpt lat="43.0623349" lon="13.270966"><ele>525.0</ele><time>2026-05-03T07:28:31.151Z</time></trkpt><trkpt lat="43.0622634" lon="13.2709394"><ele>525.0</ele><time>2026-05-03T07:28:33.151Z</time></trkpt><trkpt lat="43.0622031" lon="13.2709"><ele>525.0</ele><time>2026-05-03T07:28:35.151Z</time></trkpt><trkpt lat="43.0621391" lon="13.2708591"><ele>526.0</ele><time>2026-05-03T07:28:37.151Z</time></trkpt><trkpt lat="43.0620454" lon="13.2708171"><ele>527.0</ele><time>2026-05-03T07:28:40.151Z</time></trkpt><trkpt lat="43.0619797" lon="13.2707779"><ele>528.0</ele><time>2026-05-03T07:28:42.151Z</time></trkpt><trkpt lat="43.0619191" lon="13.2707387"><ele>529.0</ele><time>2026-05-03T07:28:44.152Z</time></trkpt><trkpt lat="43.0618346" lon="13.2706753"><ele>530.0</ele><time>2026-05-03T07:28:47.151Z</time></trkpt><trkpt lat="43.0617697" lon="13.2706252"><ele>531.0</ele><time>2026-05-03T07:28:49.151Z</time></trkpt><trkpt lat="43.0617031" lon="13.2705865"><ele>531.0</ele><time>2026-05-03T07:28:51.151Z</time></trkpt><trkpt lat="43.0616419" lon="13.2705496"><ele>531.0</ele><time>2026-05-03T07:28:53.151Z</time></trkpt><trkpt lat="43.0615731" lon="13.2705162"><ele>531.0</ele><time>2026-05-03T07:28:55.151Z</time></trkpt><trkpt lat="43.0615115" lon="13.2704769"><ele>531.0</ele><time>2026-05-03T07:28:57.151Z</time></trkpt><trkpt lat="43.0614542" lon="13.270428"><ele>531.0</ele><time>2026-05-03T07:28:59.151Z</time></trkpt><trkpt lat="43.0613959" lon="13.2703826"><ele>531.0</ele><time>2026-05-03T07:29:01.151Z</time></trkpt><trkpt lat="43.0613347" lon="13.2703223"><ele>531.0</ele><time>2026-05-03T07:29:04.151Z</time></trkpt><trkpt lat="43.0613184" lon="13.2702321"><ele>532.0</ele><time>2026-05-03T07:29:07.151Z</time></trkpt><trkpt lat="43.0613486" lon="13.2700962"><ele>533.0</ele><time>2026-05-03T07:29:10.151Z</time></trkpt><trkpt lat="43.0613578" lon="13.2699843"><ele>534.0</ele><time>2026-05-03T07:29:12.151Z</time></trkpt><trkpt lat="43.0613722" lon="13.2698773"><ele>535.0</ele><time>2026-05-03T07:29:14.151Z</time></trkpt><trkpt lat="43.0613776" lon="13.2697405"><ele>536.0</ele><time>2026-05-03T07:29:16.151Z</time></trkpt><trkpt lat="43.0613813" lon="13.2696174"><ele>536.0</ele><time>2026-05-03T07:29:18.151Z</time></trkpt><trkpt lat="43.0614153" lon="13.2694608"><ele>536.0</ele><time>2026-05-03T07:29:20.151Z</time></trkpt><trkpt lat="43.0614028" lon="13.2693612"><ele>536.0</ele><time>2026-05-03T07:29:21.151Z</time></trkpt><trkpt lat="43.0613756" lon="13.26926"><ele>536.0</ele><time>2026-05-03T07:29:22.152Z</time></trkpt><trkpt lat="43.0612855" lon="13.2691708"><ele>536.0</ele><time>2026-05-03T07:29:24.151Z</time></trkpt><trkpt lat="43.0612537" lon="13.2690884"><ele>535.8</ele><time>2026-05-03T07:29:25.151Z</time></trkpt><trkpt lat="43.0611978" lon="13.2689312"><ele>535.6</ele><time>2026-05-03T07:29:27.151Z</time></trkpt><trkpt lat="43.0611868" lon="13.2688457"><ele>535.4</ele><time>2026-05-03T07:29:28.152Z</time></trkpt><trkpt lat="43.0612106" lon="13.2687094"><ele>535.2</ele><time>2026-05-03T07:29:30.151Z</time></trkpt><trkpt lat="43.0612256" lon="13.2686008"><ele>535.0</ele><time>2026-05-03T07:29:32.151Z</time></trkpt><trkpt lat="43.0612661" lon="13.2684845"><ele>535.0</ele><time>2026-05-03T07:29:35.151Z</time></trkpt><trkpt lat="43.0612767" lon="13.2683969"><ele>535.0</ele><time>2026-05-03T07:29:38.151Z</time></trkpt><trkpt lat="43.0612672" lon="13.2682875"><ele>535.0</ele><time>2026-05-03T07:29:42.151Z</time></trkpt><trkpt lat="43.0612959" lon="13.2682001"><ele>535.0</ele><time>2026-05-03T07:29:45.15Z</time></trkpt><trkpt lat="43.0613211" lon="13.2681143"><ele>535.0</ele><time>2026-05-03T07:29:48.151Z</time></trkpt><trkpt lat="43.0613477" lon="13.2680149"><ele>535.0</ele><time>2026-05-03T07:29:51.151Z</time></trkpt><trkpt lat="43.0613664" lon="13.2679038"><ele>535.0</ele><time>2026-05-03T07:29:54.151Z</time></trkpt><trkpt lat="43.0613902" lon="13.2678172"><ele>535.6666666666667</ele><time>2026-05-03T07:29:56.151Z</time></trkpt><trkpt lat="43.0614081" lon="13.2677256"><ele>536.3333333333334</ele><time>2026-05-03T07:29:58.151Z</time></trkpt><trkpt lat="43.0614268" lon="13.2676209"><ele>537.0</ele><time>2026-05-03T07:30:01.151Z</time></trkpt><trkpt lat="43.0614483" lon="13.2675238"><ele>537.6666666666666</ele><time>2026-05-03T07:30:04.151Z</time></trkpt><trkpt lat="43.0614589" lon="13.2674371"><ele>538.3333333333333</ele><time>2026-05-03T07:30:06.151Z</time></trkpt><trkpt lat="43.0614611" lon="13.2673154"><ele>539.0</ele><time>2026-05-03T07:30:09.151Z</time></trkpt><trkpt lat="43.0614967" lon="13.2671981"><ele>540.1666666666666</ele><time>2026-05-03T07:30:12.151Z</time></trkpt><trkpt lat="43.0615165" lon="13.2671128"><ele>541.3333333333333</ele><time>2026-05-03T07:30:14.151Z</time></trkpt><trkpt lat="43.061543" lon="13.2670149"><ele>542.5</ele><time>2026-05-03T07:30:18.151Z</time></trkpt><trkpt lat="43.0615675" lon="13.2669242"><ele>543.6666666666666</ele><time>2026-05-03T07:30:22.151Z</time></trkpt><trkpt lat="43.0615973" lon="13.266815"><ele>544.8333333333334</ele><time>2026-05-03T07:30:26.151Z</time></trkpt><trkpt lat="43.0616131" lon="13.2667196"><ele>546.0</ele><time>2026-05-03T07:30:29.152Z</time></trkpt><trkpt lat="43.0616157" lon="13.2666085"><ele>546.0</ele><time>2026-05-03T07:30:32.151Z</time></trkpt><trkpt lat="43.0616151" lon="13.2665113"><ele>546.0</ele><time>2026-05-03T07:30:35.151Z</time></trkpt><trkpt lat="43.0615947" lon="13.266416"><ele>546.0</ele><time>2026-05-03T07:30:38.152Z</time></trkpt><trkpt lat="43.0615576" lon="13.2663275"><ele>546.0</ele><time>2026-05-03T07:30:41.151Z</time></trkpt><trkpt lat="43.0615321" lon="13.2662407"><ele>546.0</ele><time>2026-05-03T07:30:44.151Z</time></trkpt><trkpt lat="43.0614985" lon="13.2661392"><ele>546.0</ele><time>2026-05-03T07:30:48.151Z</time></trkpt><trkpt lat="43.0614728" lon="13.266043"><ele>546.0</ele><time>2026-05-03T07:30:52.151Z</time></trkpt><trkpt lat="43.0614233" lon="13.2659476"><ele>548.1666666666666</ele><time>2026-05-03T07:30:56.151Z</time></trkpt><trkpt lat="43.0613879" lon="13.2658636"><ele>550.3333333333334</ele><time>2026-05-03T07:31:00.151Z</time></trkpt><trkpt lat="43.061353" lon="13.2657719"><ele>552.5</ele><time>2026-05-03T07:31:04.151Z</time></trkpt><trkpt lat="43.0613261" lon="13.2656882"><ele>554.6666666666667</ele><time>2026-05-03T07:31:08.151Z</time></trkpt><trkpt lat="43.061276" lon="13.2656052"><ele>556.8333333333334</ele><time>2026-05-03T07:31:12.151Z</time></trkpt><trkpt lat="43.0612404" lon="13.2655061"><ele>559.0</ele><time>2026-05-03T07:31:16.151Z</time></trkpt><trkpt lat="43.0612162" lon="13.2654025"><ele>560.1428571428571</ele><time>2026-05-03T07:31:20.151Z</time></trkpt><trkpt lat="43.0611722" lon="13.265311"><ele>561.2857142857143</ele><time>2026-05-03T07:31:24.151Z</time></trkpt><trkpt lat="43.0611373" lon="13.2652093"><ele>562.4285714285714</ele><time>2026-05-03T07:31:28.151Z</time></trkpt><trkpt lat="43.0611067" lon="13.2651157"><ele>563.5714285714286</ele><time>2026-05-03T07:31:32.151Z</time></trkpt><trkpt lat="43.0610989" lon="13.2650237"><ele>564.7142857142858</ele><time>2026-05-03T07:31:36.151Z</time></trkpt><trkpt lat="43.0610831" lon="13.2649278"><ele>565.8571428571429</ele><time>2026-05-03T07:31:41.151Z</time></trkpt><trkpt lat="43.0610694" lon="13.2648297"><ele>567.0</ele><time>2026-05-03T07:31:46.151Z</time></trkpt><trkpt lat="43.0610726" lon="13.2647436"><ele>568.8571428571429</ele><time>2026-05-03T07:31:50.151Z</time></trkpt><trkpt lat="43.0610937" lon="13.2646573"><ele>570.7142857142858</ele><time>2026-05-03T07:31:55.151Z</time></trkpt><trkpt lat="43.0610981" lon="13.2645574"><ele>572.5714285714286</ele><time>2026-05-03T07:32:00.151Z</time></trkpt><trkpt lat="43.0611121" lon="13.2644695"><ele>574.4285714285714</ele><time>2026-05-03T07:32:05.151Z</time></trkpt><trkpt lat="43.0611267" lon="13.2643833"><ele>576.2857142857143</ele><time>2026-05-03T07:32:10.151Z</time></trkpt><trkpt lat="43.0611361" lon="13.2642912"><ele>578.1428571428571</ele><time>2026-05-03T07:32:14.151Z</time></trkpt><trkpt lat="43.0611373" lon="13.2641934"><ele>580.0</ele><time>2026-05-03T07:32:19.152Z</time></trkpt><trkpt lat="43.0611284" lon="13.2641069"><ele>580.0</ele><time>2026-05-03T07:32:24.151Z</time></trkpt><trkpt lat="43.0611222" lon="13.2640206"><ele>580.0</ele><time>2026-05-03T07:32:27.151Z</time></trkpt><trkpt lat="43.0611229" lon="13.263919"><ele>580.0</ele><time>2026-05-03T07:32:31.151Z</time></trkpt><trkpt lat="43.0611136" lon="13.2638302"><ele>580.0</ele><time>2026-05-03T07:32:34.151Z</time></trkpt><trkpt lat="43.0611206" lon="13.2637249"><ele>580.0</ele><time>2026-05-03T07:32:38.151Z</time></trkpt><trkpt lat="43.0611152" lon="13.2636331"><ele>580.0</ele><time>2026-05-03T07:32:42.151Z</time></trkpt><trkpt lat="43.0610922" lon="13.2635347"><ele>580.0</ele><time>2026-05-03T07:32:47.151Z</time></trkpt><trkpt lat="43.0610795" lon="13.2634452"><ele>581.4285714285714</ele><time>2026-05-03T07:32:51.151Z</time></trkpt><trkpt lat="43.0610843" lon="13.2633554"><ele>582.8571428571429</ele><time>2026-05-03T07:32:55.151Z</time></trkpt><trkpt lat="43.0610699" lon="13.2632578"><ele>584.2857142857143</ele><time>2026-05-03T07:32:59.151Z</time></trkpt><trkpt lat="43.0610544" lon="13.2631648"><ele>585.7142857142858</ele><time>2026-05-03T07:33:03.151Z</time></trkpt><trkpt lat="43.061026" lon="13.2630616"><ele>587.1428571428571</ele><time>2026-05-03T07:33:07.151Z</time></trkpt><trkpt lat="43.0610213" lon="13.2629727"><ele>588.5714285714287</ele><time>2026-05-03T07:33:10.151Z</time></trkpt><trkpt lat="43.0610271" lon="13.2628683"><ele>590.0</ele><time>2026-05-03T07:33:14.151Z</time></trkpt><trkpt lat="43.0610362" lon="13.2627686"><ele>591.8571428571429</ele><time>2026-05-03T07:33:18.151Z</time></trkpt><trkpt lat="43.0610644" lon="13.2626733"><ele>593.7142857142858</ele><time>2026-05-03T07:33:23.152Z</time></trkpt><trkpt lat="43.0610866" lon="13.262579"><ele>595.5714285714287</ele><time>2026-05-03T07:33:26.151Z</time></trkpt><trkpt lat="43.0610986" lon="13.262489"><ele>597.4285714285714</ele><time>2026-05-03T07:33:30.151Z</time></trkpt><trkpt lat="43.0611008" lon="13.2623858"><ele>599.2857142857142</ele><time>2026-05-03T07:33:35.151Z</time></trkpt><trkpt lat="43.0611452" lon="13.2623035"><ele>601.1428571428572</ele><time>2026-05-03T07:33:40.151Z</time></trkpt><trkpt lat="43.0611736" lon="13.2622075"><ele>603.0</ele><time>2026-05-03T07:33:45.151Z</time></trkpt><trkpt lat="43.0611993" lon="13.2621221"><ele>606.0</ele><time>2026-05-03T07:33:49.151Z</time></trkpt><trkpt lat="43.0612218" lon="13.2620321"><ele>609.0</ele><time>2026-05-03T07:33:53.151Z</time></trkpt><trkpt lat="43.0612551" lon="13.2619547"><ele>612.0</ele><time>2026-05-03T07:33:57.151Z</time></trkpt><trkpt lat="43.0612957" lon="13.2618813"><ele>615.0</ele><time>2026-05-03T07:34:01.151Z</time></trkpt><trkpt lat="43.0613453" lon="13.2617876"><ele>618.0</ele><time>2026-05-03T07:34:06.151Z</time></trkpt><trkpt lat="43.0613779" lon="13.2616897"><ele>621.0</ele><time>2026-05-03T07:34:08.151Z</time></trkpt><trkpt lat="43.0614005" lon="13.2616038"><ele>624.0</ele><time>2026-05-03T07:34:10.151Z</time></trkpt><trkpt lat="43.0614556" lon="13.261535"><ele>624.0</ele><time>2026-05-03T07:34:14.152Z</time></trkpt><trkpt lat="43.0615139" lon="13.2614761"><ele>624.0</ele><time>2026-05-03T07:34:18.151Z</time></trkpt><trkpt lat="43.0615836" lon="13.2614519"><ele>624.0</ele><time>2026-05-03T07:34:23.152Z</time></trkpt><trkpt lat="43.061795" lon="13.2613992"><ele>624.0</ele><time>2026-05-03T07:34:37.151Z</time></trkpt><trkpt lat="43.0618563" lon="13.2613474"><ele>624.0</ele><time>2026-05-03T07:34:41.151Z</time></trkpt><trkpt lat="43.0619094" lon="13.2612708"><ele>624.8571428571429</ele><time>2026-05-03T07:34:45.151Z</time></trkpt><trkpt lat="43.0619642" lon="13.261196"><ele>625.7142857142857</ele><time>2026-05-03T07:34:49.151Z</time></trkpt><trkpt lat="43.0620173" lon="13.261114"><ele>626.5714285714286</ele><time>2026-05-03T07:34:53.151Z</time></trkpt><trkpt lat="43.0620507" lon="13.2610252"><ele>627.4285714285714</ele><time>2026-05-03T07:34:56.151Z</time></trkpt><trkpt lat="43.0620822" lon="13.2609402"><ele>628.2857142857142</ele><time>2026-05-03T07:34:59.152Z</time></trkpt><trkpt lat="43.0621124" lon="13.2608608"><ele>629.1428571428571</ele><time>2026-05-03T07:35:01.151Z</time></trkpt><trkpt lat="43.0621382" lon="13.2607667"><ele>630.0</ele><time>2026-05-03T07:35:02.151Z</time></trkpt><trkpt lat="43.0621759" lon="13.2606064"><ele>632.5</ele><time>2026-05-03T07:35:04.151Z</time></trkpt><trkpt lat="43.0622199" lon="13.2605273"><ele>635.0</ele><time>2026-05-03T07:35:06.151Z</time></trkpt><trkpt lat="43.0622284" lon="13.2604205"><ele>637.5</ele><time>2026-05-03T07:35:08.151Z</time></trkpt><trkpt lat="43.0622625" lon="13.2603343"><ele>640.0</ele><time>2026-05-03T07:35:10.151Z</time></trkpt><trkpt lat="43.0623053" lon="13.2602608"><ele>642.5</ele><time>2026-05-03T07:35:12.151Z</time></trkpt><trkpt lat="43.0623616" lon="13.2601608"><ele>645.0</ele><time>2026-05-03T07:35:15.151Z</time></trkpt><trkpt lat="43.0624087" lon="13.2600725"><ele>643.0</ele><time>2026-05-03T07:35:18.152Z</time></trkpt><trkpt lat="43.0624564" lon="13.2599784"><ele>641.0</ele><time>2026-05-03T07:35:21.151Z</time></trkpt><trkpt lat="43.0624938" lon="13.2599012"><ele>639.0</ele><time>2026-05-03T07:35:24.151Z</time></trkpt><trkpt lat="43.0625345" lon="13.2598257"><ele>637.0</ele><time>2026-05-03T07:35:26.151Z</time></trkpt><trkpt lat="43.062602" lon="13.2597625"><ele>635.0</ele><time>2026-05-03T07:35:30.151Z</time></trkpt><trkpt lat="43.0626154" lon="13.2596581"><ele>633.0</ele><time>2026-05-03T07:35:34.151Z</time></trkpt><trkpt lat="43.0625688" lon="13.2595962"><ele>631.0</ele><time>2026-05-03T07:35:37.151Z</time></trkpt><trkpt lat="43.0625161" lon="13.2595461"><ele>631.0</ele><time>2026-05-03T07:39:40.151Z</time></trkpt><trkpt lat="43.0624721" lon="13.2594751"><ele>631.0</ele><time>2026-05-03T07:39:44.152Z</time></trkpt><trkpt lat="43.0624864" lon="13.259378"><ele>631.0</ele><time>2026-05-03T07:39:47.151Z</time></trkpt><trkpt lat="43.0625324" lon="13.2593158"><ele>631.0</ele><time>2026-05-03T07:39:49.152Z</time></trkpt><trkpt lat="43.0626166" lon="13.2592681"><ele>631.0</ele><time>2026-05-03T07:39:52.151Z</time></trkpt><trkpt lat="43.0626848" lon="13.2592769"><ele>631.0</ele><time>2026-05-03T07:39:55.151Z</time></trkpt><trkpt lat="43.0627595" lon="13.2592858"><ele>631.0</ele><time>2026-05-03T07:39:59.151Z</time></trkpt><trkpt lat="43.0628341" lon="13.2592311"><ele>631.0</ele><time>2026-05-03T07:40:04.151Z</time></trkpt><trkpt lat="43.0628994" lon="13.2591516"><ele>631.0</ele><time>2026-05-03T07:40:08.152Z</time></trkpt><trkpt lat="43.0629801" lon="13.2591032"><ele>631.0</ele><time>2026-05-03T07:40:12.151Z</time></trkpt><trkpt lat="43.0630431" lon="13.2590764"><ele>631.0</ele><time>2026-05-03T07:40:15.151Z</time></trkpt><trkpt lat="43.0631081" lon="13.259054"><ele>631.0</ele><time>2026-05-03T07:40:18.151Z</time></trkpt><trkpt lat="43.0631846" lon="13.2590343"><ele>631.0</ele><time>2026-05-03T07:40:21.151Z</time></trkpt><trkpt lat="43.0632541" lon="13.2590245"><ele>631.0</ele><time>2026-05-03T07:40:24.151Z</time></trkpt><trkpt lat="43.0633174" lon="13.2590155"><ele>631.0</ele><time>2026-05-03T07:40:27.151Z</time></trkpt><trkpt lat="43.0633825" lon="13.2589964"><ele>631.0</ele><time>2026-05-03T07:40:30.151Z</time></trkpt><trkpt lat="43.063447" lon="13.258974"><ele>631.0</ele><time>2026-05-03T07:40:34.152Z</time></trkpt><trkpt lat="43.0635284" lon="13.258933"><ele>631.0</ele><time>2026-05-03T07:40:38.151Z</time></trkpt><trkpt lat="43.0636032" lon="13.2588911"><ele>631.0</ele><time>2026-05-03T07:40:41.151Z</time></trkpt><trkpt lat="43.0636714" lon="13.2588559"><ele>631.0</ele><time>2026-05-03T07:40:44.151Z</time></trkpt><trkpt lat="43.0637374" lon="13.2588072"><ele>634.4285714285714</ele><time>2026-05-03T07:40:47.151Z</time></trkpt><trkpt lat="43.0637865" lon="13.2587524"><ele>637.8571428571428</ele><time>2026-05-03T07:40:50.151Z</time></trkpt><trkpt lat="43.0638227" lon="13.2586798"><ele>641.2857142857142</ele><time>2026-05-03T07:40:53.152Z</time></trkpt><trkpt lat="43.0638128" lon="13.2585821"><ele>644.7142857142858</ele><time>2026-05-03T07:40:57.151Z</time></trkpt><trkpt lat="43.0637421" lon="13.2585248"><ele>648.1428571428571</ele><time>2026-05-03T07:41:01.151Z</time></trkpt><trkpt lat="43.0636745" lon="13.2584937"><ele>651.5714285714286</ele><time>2026-05-03T07:41:05.151Z</time></trkpt><trkpt lat="43.0636016" lon="13.2584843"><ele>655.0</ele><time>2026-05-03T07:41:09.151Z</time></trkpt><trkpt lat="43.0635208" lon="13.2584766"><ele>655.0</ele><time>2026-05-03T07:41:13.151Z</time></trkpt><trkpt lat="43.0634548" lon="13.2584726"><ele>655.0</ele><time>2026-05-03T07:41:16.151Z</time></trkpt><trkpt lat="43.0633874" lon="13.2584649"><ele>655.0</ele><time>2026-05-03T07:41:19.151Z</time></trkpt><trkpt lat="43.0633193" lon="13.2584569"><ele>655.0</ele><time>2026-05-03T07:41:23.151Z</time></trkpt><trkpt lat="43.063242" lon="13.2584418"><ele>655.0</ele><time>2026-05-03T07:41:27.151Z</time></trkpt><trkpt lat="43.0631668" lon="13.2584192"><ele>655.0</ele><time>2026-05-03T07:41:31.151Z</time></trkpt><trkpt lat="43.0630843" lon="13.2584088"><ele>655.0</ele><time>2026-05-03T07:41:35.151Z</time></trkpt><trkpt lat="43.0630027" lon="13.2584006"><ele>655.2857142857143</ele><time>2026-05-03T07:41:39.151Z</time></trkpt><trkpt lat="43.0629219" lon="13.2583908"><ele>655.5714285714286</ele><time>2026-05-03T07:41:43.151Z</time></trkpt><trkpt lat="43.0628369" lon="13.258382"><ele>655.8571428571429</ele><time>2026-05-03T07:41:47.151Z</time></trkpt><trkpt lat="43.0627699" lon="13.2583746"><ele>656.1428571428571</ele><time>2026-05-03T07:41:50.151Z</time></trkpt><trkpt lat="43.0626988" lon="13.2583575"><ele>656.4285714285714</ele><time>2026-05-03T07:41:53.151Z</time></trkpt><trkpt lat="43.0626352" lon="13.2583447"><ele>656.7142857142857</ele><time>2026-05-03T07:41:56.151Z</time></trkpt><trkpt lat="43.0625643" lon="13.2583469"><ele>657.0</ele><time>2026-05-03T07:41:59.151Z</time></trkpt><trkpt lat="43.0624807" lon="13.2583529"><ele>658.3333333333334</ele><time>2026-05-03T07:42:03.151Z</time></trkpt><trkpt lat="43.0623999" lon="13.2583589"><ele>659.6666666666666</ele><time>2026-05-03T07:42:07.151Z</time></trkpt><trkpt lat="43.0623123" lon="13.2583688"><ele>661.0</ele><time>2026-05-03T07:42:11.152Z</time></trkpt><trkpt lat="43.0622418" lon="13.258379"><ele>662.3333333333333</ele><time>2026-05-03T07:42:14.151Z</time></trkpt><trkpt lat="43.0621662" lon="13.2583795"><ele>663.6666666666666</ele><time>2026-05-03T07:42:17.151Z</time></trkpt><trkpt lat="43.0620992" lon="13.2583887"><ele>665.0</ele><time>2026-05-03T07:42:20.151Z</time></trkpt><trkpt lat="43.0620216" lon="13.2584021"><ele>665.0</ele><time>2026-05-03T07:42:23.151Z</time></trkpt><trkpt lat="43.0619552" lon="13.2584233"><ele>665.0</ele><time>2026-05-03T07:42:26.151Z</time></trkpt><trkpt lat="43.0618842" lon="13.2584476"><ele>665.0</ele><time>2026-05-03T07:42:29.151Z</time></trkpt><trkpt lat="43.0618119" lon="13.2584648"><ele>665.0</ele><time>2026-05-03T07:42:32.151Z</time></trkpt><trkpt lat="43.0617462" lon="13.258479"><ele>665.0</ele><time>2026-05-03T07:42:35.151Z</time></trkpt><trkpt lat="43.061673" lon="13.2585041"><ele>665.0</ele><time>2026-05-03T07:42:38.151Z</time></trkpt><trkpt lat="43.0616029" lon="13.2585255"><ele>665.0</ele><time>2026-05-03T07:42:41.152Z</time></trkpt><trkpt lat="43.0615339" lon="13.258544"><ele>667.1428571428571</ele><time>2026-05-03T07:42:44.152Z</time></trkpt><trkpt lat="43.0614701" lon="13.2585632"><ele>669.2857142857142</ele><time>2026-05-03T07:42:47.151Z</time></trkpt><trkpt lat="43.0613959" lon="13.2585861"><ele>671.4285714285714</ele><time>2026-05-03T07:42:50.151Z</time></trkpt><trkpt lat="43.0613327" lon="13.2586133"><ele>673.5714285714286</ele><time>2026-05-03T07:42:53.151Z</time></trkpt><trkpt lat="43.0612635" lon="13.2586437"><ele>675.7142857142857</ele><time>2026-05-03T07:42:56.151Z</time></trkpt><trkpt lat="43.0611926" lon="13.2586809"><ele>677.8571428571429</ele><time>2026-05-03T07:42:59.151Z</time></trkpt><trkpt lat="43.0611253" lon="13.2587257"><ele>680.0</ele><time>2026-05-03T07:43:02.151Z</time></trkpt><trkpt lat="43.0610642" lon="13.2587593"><ele>680.0</ele><time>2026-05-03T07:43:05.151Z</time></trkpt><trkpt lat="43.0609865" lon="13.2588078"><ele>680.0</ele><time>2026-05-03T07:43:08.151Z</time></trkpt><trkpt lat="43.06091" lon="13.2588583"><ele>680.0</ele><time>2026-05-03T07:43:11.151Z</time></trkpt><trkpt lat="43.0608347" lon="13.2589049"><ele>680.0</ele><time>2026-05-03T07:43:14.151Z</time></trkpt><trkpt lat="43.0607518" lon="13.2589392"><ele>680.0</ele><time>2026-05-03T07:43:18.151Z</time></trkpt><trkpt lat="43.0606782" lon="13.2589685"><ele>680.0</ele><time>2026-05-03T07:43:21.151Z</time></trkpt><trkpt lat="43.0605951" lon="13.2589918"><ele>679.5</ele><time>2026-05-03T07:43:24.151Z</time></trkpt><trkpt lat="43.0605162" lon="13.2590127"><ele>679.0</ele><time>2026-05-03T07:43:27.151Z</time></trkpt><trkpt lat="43.0604345" lon="13.2590385"><ele>678.5</ele><time>2026-05-03T07:43:30.152Z</time></trkpt><trkpt lat="43.0603465" lon="13.2590536"><ele>678.0</ele><time>2026-05-03T07:43:33.151Z</time></trkpt><trkpt lat="43.0602596" lon="13.2590537"><ele>677.5</ele><time>2026-05-03T07:43:36.151Z</time></trkpt><trkpt lat="43.0601724" lon="13.2590469"><ele>677.0</ele><time>2026-05-03T07:43:39.151Z</time></trkpt><trkpt lat="43.0600847" lon="13.2590404"><ele>677.0</ele><time>2026-05-03T07:43:42.151Z</time></trkpt><trkpt lat="43.0599988" lon="13.2590239"><ele>677.0</ele><time>2026-05-03T07:43:45.151Z</time></trkpt><trkpt lat="43.0599182" lon="13.2590131"><ele>677.0</ele><time>2026-05-03T07:43:48.151Z</time></trkpt><trkpt lat="43.0598429" lon="13.2590022"><ele>677.0</ele><time>2026-05-03T07:43:51.152Z</time></trkpt><trkpt lat="43.0597711" lon="13.2589947"><ele>677.0</ele><time>2026-05-03T07:43:54.151Z</time></trkpt><trkpt lat="43.0596992" lon="13.2589786"><ele>677.0</ele><time>2026-05-03T07:43:57.151Z</time></trkpt><trkpt lat="43.0596325" lon="13.2589717"><ele>676.9999999999999</ele><time>2026-05-03T07:44:00.151Z</time></trkpt><trkpt lat="43.0595667" lon="13.2589634"><ele>677.0</ele><time>2026-05-03T07:44:03.151Z</time></trkpt><trkpt lat="43.0594965" lon="13.2589591"><ele>677.0</ele><time>2026-05-03T07:44:06.152Z</time></trkpt><trkpt lat="43.0594197" lon="13.2589497"><ele>677.0</ele><time>2026-05-03T07:44:09.151Z</time></trkpt><trkpt lat="43.0593487" lon="13.2589393"><ele>677.0</ele><time>2026-05-03T07:44:12.152Z</time></trkpt><trkpt lat="43.0592755" lon="13.258924"><ele>676.9999999999999</ele><time>2026-05-03T07:44:15.151Z</time></trkpt><trkpt lat="43.0591991" lon="13.2589107"><ele>677.0</ele><time>2026-05-03T07:44:18.151Z</time></trkpt><trkpt lat="43.059117" lon="13.2588937"><ele>677.0</ele><time>2026-05-03T07:44:21.152Z</time></trkpt><trkpt lat="43.0590326" lon="13.258868"><ele>677.0</ele><time>2026-05-03T07:44:24.151Z</time></trkpt><trkpt lat="43.058957" lon="13.2588439"><ele>677.0</ele><time>2026-05-03T07:44:27.152Z</time></trkpt><trkpt lat="43.0588682" lon="13.2588061"><ele>677.0</ele><time>2026-05-03T07:44:30.151Z</time></trkpt><trkpt lat="43.0588068" lon="13.2587731"><ele>677.0</ele><time>2026-05-03T07:44:32.151Z</time></trkpt><trkpt lat="43.0587361" lon="13.2587327"><ele>677.0</ele><time>2026-05-03T07:44:34.151Z</time></trkpt><trkpt lat="43.0586597" lon="13.2586881"><ele>677.0</ele><time>2026-05-03T07:44:36.152Z</time></trkpt><trkpt lat="43.0585764" lon="13.2586411"><ele>677.0</ele><time>2026-05-03T07:44:38.151Z</time></trkpt><trkpt lat="43.0584891" lon="13.258585"><ele>677.0</ele><time>2026-05-03T07:44:40.151Z</time></trkpt><trkpt lat="43.0583923" lon="13.2585231"><ele>677.0</ele><time>2026-05-03T07:44:42.151Z</time></trkpt><trkpt lat="43.0583376" lon="13.2584787"><ele>677.0</ele><time>2026-05-03T07:44:43.151Z</time></trkpt><trkpt lat="43.0582281" lon="13.2583928"><ele>676.9999999999999</ele><time>2026-05-03T07:44:45.151Z</time></trkpt><trkpt lat="43.0581687" lon="13.258339"><ele>677.0</ele><time>2026-05-03T07:44:46.152Z</time></trkpt><trkpt lat="43.0581168" lon="13.2582773"><ele>677.0</ele><time>2026-05-03T07:44:47.151Z</time></trkpt><trkpt lat="43.058067" lon="13.2582078"><ele>677.0</ele><time>2026-05-03T07:44:48.151Z</time></trkpt><trkpt lat="43.0580202" lon="13.2581389"><ele>677.0</ele><time>2026-05-03T07:44:49.151Z</time></trkpt><trkpt lat="43.057969" lon="13.258071"><ele>676.9999999999999</ele><time>2026-05-03T07:44:50.151Z</time></trkpt><trkpt lat="43.0579196" lon="13.2580045"><ele>677.0</ele><time>2026-05-03T07:44:51.151Z</time></trkpt><trkpt lat="43.0578688" lon="13.2579419"><ele>676.8</ele><time>2026-05-03T07:44:52.151Z</time></trkpt><trkpt lat="43.0578234" lon="13.2578783"><ele>676.6</ele><time>2026-05-03T07:44:53.151Z</time></trkpt><trkpt lat="43.0577688" lon="13.2578223"><ele>676.4</ele><time>2026-05-03T07:44:54.151Z</time></trkpt><trkpt lat="43.0576811" lon="13.2577033"><ele>676.1999999999999</ele><time>2026-05-03T07:44:56.151Z</time></trkpt><trkpt lat="43.0575813" lon="13.2576007"><ele>676.0</ele><time>2026-05-03T07:44:58.151Z</time></trkpt><trkpt lat="43.057503" lon="13.2575038"><ele>676.0</ele><time>2026-05-03T07:45:00.152Z</time></trkpt><trkpt lat="43.057431" lon="13.2573904"><ele>676.0</ele><time>2026-05-03T07:45:02.151Z</time></trkpt><trkpt lat="43.0573593" lon="13.2572973"><ele>676.0</ele><time>2026-05-03T07:45:04.151Z</time></trkpt><trkpt lat="43.0572959" lon="13.2572355"><ele>676.0</ele><time>2026-05-03T07:45:06.151Z</time></trkpt><trkpt lat="43.0572466" lon="13.2571448"><ele>676.0</ele><time>2026-05-03T07:45:08.151Z</time></trkpt><trkpt lat="43.0572568" lon="13.2570451"><ele>676.0</ele><time>2026-05-03T07:45:10.152Z</time></trkpt><trkpt lat="43.0572297" lon="13.2569473"><ele>676.0</ele><time>2026-05-03T07:45:14.151Z</time></trkpt><trkpt lat="43.0572248" lon="13.256858"><ele>676.0</ele><time>2026-05-03T07:45:18.151Z</time></trkpt><trkpt lat="43.0572147" lon="13.2567728"><ele>676.0</ele><time>2026-05-03T07:45:22.151Z</time></trkpt><trkpt lat="43.0572103" lon="13.2566775"><ele>676.0</ele><time>2026-05-03T07:45:27.151Z</time></trkpt><trkpt lat="43.0571735" lon="13.2565908"><ele>676.0</ele><time>2026-05-03T07:45:32.151Z</time></trkpt><trkpt lat="43.0571324" lon="13.256504"><ele>676.0</ele><time>2026-05-03T07:45:37.152Z</time></trkpt><trkpt lat="43.057087" lon="13.2564265"><ele>676.0</ele><time>2026-05-03T07:45:42.151Z</time></trkpt><trkpt lat="43.0570656" lon="13.2563416"><ele>680.0</ele><time>2026-05-03T07:45:46.151Z</time></trkpt><trkpt lat="43.0570254" lon="13.256253"><ele>684.0</ele><time>2026-05-03T07:45:51.151Z</time></trkpt><trkpt lat="43.0569879" lon="13.2561618"><ele>688.0</ele><time>2026-05-03T07:45:56.151Z</time></trkpt><trkpt lat="43.0569312" lon="13.2560936"><ele>692.0</ele><time>2026-05-03T07:46:01.151Z</time></trkpt><trkpt lat="43.0568985" lon="13.2560172"><ele>696.0</ele><time>2026-05-03T07:46:06.151Z</time></trkpt><trkpt lat="43.0568676" lon="13.2559383"><ele>700.0</ele><time>2026-05-03T07:46:12.151Z</time></trkpt><trkpt lat="43.056829" lon="13.2558545"><ele>704.0</ele><time>2026-05-03T07:46:17.152Z</time></trkpt><trkpt lat="43.0567882" lon="13.255773"><ele>704.0</ele><time>2026-05-03T07:46:22.151Z</time></trkpt><trkpt lat="43.0567637" lon="13.2556842"><ele>704.0</ele><time>2026-05-03T07:46:27.151Z</time></trkpt><trkpt lat="43.0567289" lon="13.2556037"><ele>704.0</ele><time>2026-05-03T07:46:32.151Z</time></trkpt><trkpt lat="43.0567126" lon="13.2555083"><ele>704.0</ele><time>2026-05-03T07:46:37.151Z</time></trkpt><trkpt lat="43.0567106" lon="13.255409"><ele>704.0</ele><time>2026-05-03T07:46:42.152Z</time></trkpt><trkpt lat="43.0566849" lon="13.2553171"><ele>704.0</ele><time>2026-05-03T07:46:47.151Z</time></trkpt><trkpt lat="43.0566679" lon="13.2552235"><ele>704.0</ele><time>2026-05-03T07:46:53.151Z</time></trkpt><trkpt lat="43.0566512" lon="13.2551376"><ele>705.0</ele><time>2026-05-03T07:46:57.151Z</time></trkpt><trkpt lat="43.0566243" lon="13.2550364"><ele>706.0</ele><time>2026-05-03T07:47:02.151Z</time></trkpt><trkpt lat="43.0565746" lon="13.2549757"><ele>707.0</ele><time>2026-05-03T07:47:06.151Z</time></trkpt><trkpt lat="43.0565168" lon="13.2549362"><ele>708.0</ele><time>2026-05-03T07:47:10.151Z</time></trkpt><trkpt lat="43.0564572" lon="13.2548959"><ele>709.0</ele><time>2026-05-03T07:47:15.151Z</time></trkpt><trkpt lat="43.0563912" lon="13.2548705"><ele>710.0</ele><time>2026-05-03T07:47:20.151Z</time></trkpt><trkpt lat="43.0563248" lon="13.2548186"><ele>711.0</ele><time>2026-05-03T07:47:24.151Z</time></trkpt><trkpt lat="43.0562651" lon="13.2547735"><ele>716.1428571428571</ele><time>2026-05-03T07:47:29.151Z</time></trkpt><trkpt lat="43.0561962" lon="13.2547418"><ele>721.2857142857142</ele><time>2026-05-03T07:47:34.152Z</time></trkpt><trkpt lat="43.0561327" lon="13.2547248"><ele>726.4285714285713</ele><time>2026-05-03T07:47:39.151Z</time></trkpt><trkpt lat="43.056067" lon="13.2547097"><ele>731.5714285714286</ele><time>2026-05-03T07:47:44.151Z</time></trkpt><trkpt lat="43.0560744" lon="13.2546145"><ele>736.7142857142857</ele><time>2026-05-03T07:47:51.151Z</time></trkpt><trkpt lat="43.0561054" lon="13.2545334"><ele>741.8571428571428</ele><time>2026-05-03T07:47:56.151Z</time></trkpt><trkpt lat="43.0560711" lon="13.2544442"><ele>747.0</ele><time>2026-05-03T07:48:01.151Z</time></trkpt><trkpt lat="43.0560143" lon="13.2544046"><ele>746.9999999999999</ele><time>2026-05-03T07:48:05.151Z</time></trkpt><trkpt lat="43.0559818" lon="13.2543256"><ele>747.0</ele><time>2026-05-03T07:48:10.151Z</time></trkpt><trkpt lat="43.0559473" lon="13.2542535"><ele>747.0</ele><time>2026-05-03T07:48:14.151Z</time></trkpt><trkpt lat="43.0559215" lon="13.2541727"><ele>747.0</ele><time>2026-05-03T07:48:19.151Z</time></trkpt><trkpt lat="43.0558949" lon="13.2540934"><ele>747.0</ele><time>2026-05-03T07:48:24.151Z</time></trkpt><trkpt lat="43.0558688" lon="13.2540031"><ele>746.9999999999999</ele><time>2026-05-03T07:48:30.151Z</time></trkpt><trkpt lat="43.0558492" lon="13.253915"><ele>747.0</ele><time>2026-05-03T07:48:35.151Z</time></trkpt><trkpt lat="43.0558203" lon="13.2538287"><ele>746.8571428571428</ele><time>2026-05-03T07:48:41.151Z</time></trkpt><trkpt lat="43.055791" lon="13.2537491"><ele>746.7142857142857</ele><time>2026-05-03T07:48:45.151Z</time></trkpt><trkpt lat="43.0557655" lon="13.2536585"><ele>746.5714285714286</ele><time>2026-05-03T07:48:50.151Z</time></trkpt><trkpt lat="43.0557334" lon="13.2535651"><ele>746.4285714285713</ele><time>2026-05-03T07:48:55.151Z</time></trkpt><trkpt lat="43.0556965" lon="13.2534864"><ele>746.2857142857143</ele><time>2026-05-03T07:49:00.152Z</time></trkpt><trkpt lat="43.0556758" lon="13.2534018"><ele>746.1428571428571</ele><time>2026-05-03T07:49:05.151Z</time></trkpt><trkpt lat="43.0556561" lon="13.2533036"><ele>746.0</ele><time>2026-05-03T07:49:11.151Z</time></trkpt><trkpt lat="43.0556182" lon="13.2532221"><ele>746.0</ele><time>2026-05-03T07:49:16.151Z</time></trkpt><trkpt lat="43.0555829" lon="13.2531443"><ele>746.0</ele><time>2026-05-03T07:49:20.151Z</time></trkpt><trkpt lat="43.0555439" lon="13.2530675"><ele>746.0</ele><time>2026-05-03T07:49:24.151Z</time></trkpt><trkpt lat="43.0555018" lon="13.2529916"><ele>746.0</ele><time>2026-05-03T07:49:29.151Z</time></trkpt><trkpt lat="43.0554738" lon="13.2529137"><ele>746.0</ele><time>2026-05-03T07:49:33.151Z</time></trkpt><trkpt lat="43.0554516" lon="13.2528106"><ele>746.0</ele><time>2026-05-03T07:49:39.151Z</time></trkpt><trkpt lat="43.0554068" lon="13.252735"><ele>746.0</ele><time>2026-05-03T07:49:44.151Z</time></trkpt><trkpt lat="43.0553671" lon="13.2526564"><ele>749.7142857142858</ele><time>2026-05-03T07:49:49.151Z</time></trkpt><trkpt lat="43.0553325" lon="13.2525731"><ele>753.4285714285714</ele><time>2026-05-03T07:49:54.151Z</time></trkpt><trkpt lat="43.055304" lon="13.252477"><ele>757.1428571428571</ele><time>2026-05-03T07:49:59.151Z</time></trkpt><trkpt lat="43.0552682" lon="13.2523866"><ele>760.8571428571429</ele><time>2026-05-03T07:50:04.151Z</time></trkpt><trkpt lat="43.0552349" lon="13.2522975"><ele>764.5714285714286</ele><time>2026-05-03T07:50:09.151Z</time></trkpt><trkpt lat="43.0552076" lon="13.2522025"><ele>768.2857142857143</ele><time>2026-05-03T07:50:15.151Z</time></trkpt><trkpt lat="43.0551841" lon="13.2521123"><ele>772.0</ele><time>2026-05-03T07:50:20.152Z</time></trkpt><trkpt lat="43.0551622" lon="13.2520126"><ele>772.1428571428572</ele><time>2026-05-03T07:50:25.151Z</time></trkpt><trkpt lat="43.0551312" lon="13.2519248"><ele>772.2857142857143</ele><time>2026-05-03T07:50:29.151Z</time></trkpt><trkpt lat="43.055104" lon="13.2518429"><ele>772.4285714285714</ele><time>2026-05-03T07:50:33.151Z</time></trkpt><trkpt lat="43.0550794" lon="13.2517574"><ele>772.5714285714287</ele><time>2026-05-03T07:50:37.151Z</time></trkpt><trkpt lat="43.0550467" lon="13.2516624"><ele>772.7142857142857</ele><time>2026-05-03T07:50:42.151Z</time></trkpt><trkpt lat="43.0550123" lon="13.2515731"><ele>772.8571428571429</ele><time>2026-05-03T07:50:47.151Z</time></trkpt><trkpt lat="43.0549782" lon="13.2514754"><ele>773.0</ele><time>2026-05-03T07:50:52.151Z</time></trkpt><trkpt lat="43.0549508" lon="13.2513889"><ele>773.0</ele><time>2026-05-03T07:50:57.152Z</time></trkpt><trkpt lat="43.0549364" lon="13.2512844"><ele>773.0</ele><time>2026-05-03T07:51:02.152Z</time></trkpt><trkpt lat="43.0549342" lon="13.2511926"><ele>773.0</ele><time>2026-05-03T07:51:07.151Z</time></trkpt><trkpt lat="43.0549287" lon="13.2510974"><ele>773.0</ele><time>2026-05-03T07:51:12.151Z</time></trkpt><trkpt lat="43.0549371" lon="13.2510066"><ele>773.0</ele><time>2026-05-03T07:51:17.152Z</time></trkpt><trkpt lat="43.0549368" lon="13.2509122"><ele>773.0</ele><time>2026-05-03T07:51:23.151Z</time></trkpt><trkpt lat="43.0549284" lon="13.2508183"><ele>773.0</ele><time>2026-05-03T07:51:29.151Z</time></trkpt><trkpt lat="43.0549166" lon="13.250719"><ele>773.0</ele><time>2026-05-03T07:51:34.151Z</time></trkpt><trkpt lat="43.0549231" lon="13.2506292"><ele>773.0</ele><time>2026-05-03T07:51:39.151Z</time></trkpt><trkpt lat="43.0549145" lon="13.2505421"><ele>773.0</ele><time>2026-05-03T07:51:44.151Z</time></trkpt><trkpt lat="43.05491" lon="13.2504505"><ele>773.0</ele><time>2026-05-03T07:51:49.151Z</time></trkpt><trkpt lat="43.0548997" lon="13.2503653"><ele>773.0</ele><time>2026-05-03T07:51:54.151Z</time></trkpt><trkpt lat="43.0548758" lon="13.2502723"><ele>773.0</ele><time>2026-05-03T07:51:59.152Z</time></trkpt><trkpt lat="43.0548754" lon="13.2501751"><ele>773.0</ele><time>2026-05-03T07:52:04.151Z</time></trkpt><trkpt lat="43.0548756" lon="13.2500855"><ele>775.6666666666667</ele><time>2026-05-03T07:52:09.151Z</time></trkpt><trkpt lat="43.0548419" lon="13.2499879"><ele>778.3333333333334</ele><time>2026-05-03T07:53:22.151Z</time></trkpt><trkpt lat="43.0548445" lon="13.2498787"><ele>781.0</ele><time>2026-05-03T07:53:29.151Z</time></trkpt><trkpt lat="43.0548528" lon="13.2497698"><ele>783.6666666666667</ele><time>2026-05-03T07:53:33.151Z</time></trkpt><trkpt lat="43.0548691" lon="13.2496665"><ele>786.3333333333334</ele><time>2026-05-03T07:53:37.151Z</time></trkpt><trkpt lat="43.0548857" lon="13.2495499"><ele>789.0</ele><time>2026-05-03T07:53:41.151Z</time></trkpt><trkpt lat="43.0549008" lon="13.2494582"><ele>790.1428571428571</ele><time>2026-05-03T07:53:44.151Z</time></trkpt><trkpt lat="43.0549173" lon="13.2493692"><ele>791.2857142857142</ele><time>2026-05-03T07:53:47.152Z</time></trkpt><trkpt lat="43.0549359" lon="13.2492801"><ele>792.4285714285713</ele><time>2026-05-03T07:53:50.151Z</time></trkpt><trkpt lat="43.0549528" lon="13.2491932"><ele>793.5714285714286</ele><time>2026-05-03T07:53:53.151Z</time></trkpt><trkpt lat="43.054977" lon="13.2490842"><ele>794.7142857142858</ele><time>2026-05-03T07:53:56.151Z</time></trkpt><trkpt lat="43.0549895" lon="13.2489842"><ele>795.8571428571428</ele><time>2026-05-03T07:53:59.151Z</time></trkpt><trkpt lat="43.0549938" lon="13.2488741"><ele>797.0</ele><time>2026-05-03T07:54:02.151Z</time></trkpt><trkpt lat="43.0550008" lon="13.2487785"><ele>802.1428571428571</ele><time>2026-05-03T07:54:06.151Z</time></trkpt><trkpt lat="43.054996" lon="13.2486837"><ele>807.2857142857143</ele><time>2026-05-03T07:54:10.151Z</time></trkpt><trkpt lat="43.0550099" lon="13.2485864"><ele>812.4285714285714</ele><time>2026-05-03T07:54:14.151Z</time></trkpt><trkpt lat="43.0550224" lon="13.248479"><ele>817.5714285714286</ele><time>2026-05-03T07:54:18.151Z</time></trkpt><trkpt lat="43.0550284" lon="13.2483921"><ele>822.7142857142858</ele><time>2026-05-03T07:54:21.152Z</time></trkpt><trkpt lat="43.0550449" lon="13.2483026"><ele>827.8571428571429</ele><time>2026-05-03T07:54:25.151Z</time></trkpt><trkpt lat="43.0550609" lon="13.2482042"><ele>833.0</ele><time>2026-05-03T07:54:28.151Z</time></trkpt><trkpt lat="43.0550744" lon="13.2481114"><ele>833.0000000000001</ele><time>2026-05-03T07:54:31.151Z</time></trkpt><trkpt lat="43.0550945" lon="13.2480054"><ele>833.0</ele><time>2026-05-03T07:54:34.151Z</time></trkpt><trkpt lat="43.0551164" lon="13.2479028"><ele>833.0</ele><time>2026-05-03T07:54:37.152Z</time></trkpt><trkpt lat="43.0551427" lon="13.24778"><ele>833.0</ele><time>2026-05-03T07:54:40.151Z</time></trkpt><trkpt lat="43.0551724" lon="13.2476716"><ele>833.0000000000001</ele><time>2026-05-03T07:54:43.151Z</time></trkpt><trkpt lat="43.0552113" lon="13.2475684"><ele>833.0</ele><time>2026-05-03T07:54:46.151Z</time></trkpt><trkpt lat="43.0552222" lon="13.2474727"><ele>833.0000000000001</ele><time>2026-05-03T07:54:49.151Z</time></trkpt><trkpt lat="43.0552207" lon="13.2473608"><ele>833.0</ele><time>2026-05-03T07:54:52.151Z</time></trkpt><trkpt lat="43.0552259" lon="13.2472282"><ele>833.0</ele><time>2026-05-03T07:54:55.151Z</time></trkpt><trkpt lat="43.0552375" lon="13.2471103"><ele>833.0</ele><time>2026-05-03T07:54:57.151Z</time></trkpt><trkpt lat="43.0552592" lon="13.2470142"><ele>833.0000000000001</ele><time>2026-05-03T07:54:59.151Z</time></trkpt><trkpt lat="43.055256" lon="13.2469136"><ele>833.0</ele><time>2026-05-03T07:55:02.152Z</time></trkpt><trkpt lat="43.0552105" lon="13.2468531"><ele>832.8333333333334</ele><time>2026-05-03T07:55:07.151Z</time></trkpt><trkpt lat="43.0551427" lon="13.2468679"><ele>832.6666666666667</ele><time>2026-05-03T07:55:11.151Z</time></trkpt><trkpt lat="43.0550674" lon="13.2468455"><ele>832.5</ele><time>2026-05-03T07:55:35.152Z</time></trkpt><trkpt lat="43.0550057" lon="13.2467943"><ele>832.3333333333333</ele><time>2026-05-03T07:55:37.151Z</time></trkpt><trkpt lat="43.054941" lon="13.2466897"><ele>832.1666666666666</ele><time>2026-05-03T07:55:39.152Z</time></trkpt><trkpt lat="43.0548608" lon="13.2465925"><ele>832.0</ele><time>2026-05-03T07:55:41.151Z</time></trkpt><trkpt lat="43.0548212" lon="13.2465173"><ele>827.0</ele><time>2026-05-03T07:55:42.151Z</time></trkpt><trkpt lat="43.0547705" lon="13.2463582"><ele>822.0</ele><time>2026-05-03T07:55:44.151Z</time></trkpt><trkpt lat="43.0547154" lon="13.2461992"><ele>817.0</ele><time>2026-05-03T07:55:46.151Z</time></trkpt><trkpt lat="43.0546904" lon="13.2461059"><ele>812.0</ele><time>2026-05-03T07:55:47.151Z</time></trkpt><trkpt lat="43.0546686" lon="13.2460207"><ele>807.0</ele><time>2026-05-03T07:55:48.151Z</time></trkpt><trkpt lat="43.054652" lon="13.245934"><ele>807.0</ele><time>2026-05-03T07:55:49.152Z</time></trkpt><trkpt lat="43.0546291" lon="13.2458425"><ele>807.0</ele><time>2026-05-03T07:55:50.151Z</time></trkpt><trkpt lat="43.0546107" lon="13.2457449"><ele>807.0</ele><time>2026-05-03T07:55:51.152Z</time></trkpt><trkpt lat="43.0545801" lon="13.2456275"><ele>807.0</ele><time>2026-05-03T07:55:53.151Z</time></trkpt><trkpt lat="43.0545684" lon="13.2455388"><ele>807.0</ele><time>2026-05-03T07:55:56.151Z</time></trkpt><trkpt lat="43.0545034" lon="13.2453564"><ele>806.8571428571429</ele><time>2026-05-03T07:58:17.15Z</time></trkpt><trkpt lat="43.054483" lon="13.2452629"><ele>806.7142857142858</ele><time>2026-05-03T07:58:18.15Z</time></trkpt><trkpt lat="43.0544536" lon="13.2451854"><ele>806.5714285714287</ele><time>2026-05-03T07:58:19.149Z</time></trkpt><trkpt lat="43.0544049" lon="13.2451122"><ele>806.4285714285714</ele><time>2026-05-03T07:58:20.15Z</time></trkpt><trkpt lat="43.0543498" lon="13.2450449"><ele>806.2857142857142</ele><time>2026-05-03T07:58:21.152Z</time></trkpt><trkpt lat="43.0542935" lon="13.2449678"><ele>806.1428571428572</ele><time>2026-05-03T07:58:22.15Z</time></trkpt><trkpt lat="43.0542431" lon="13.2448814"><ele>806.0</ele><time>2026-05-03T07:58:23.15Z</time></trkpt><trkpt lat="43.0541972" lon="13.2448033"><ele>805.8</ele><time>2026-05-03T07:58:24.15Z</time></trkpt><trkpt lat="43.0541418" lon="13.2447227"><ele>805.5999999999999</ele><time>2026-05-03T07:58:25.15Z</time></trkpt><trkpt lat="43.0540802" lon="13.2446458"><ele>805.4</ele><time>2026-05-03T07:58:26.151Z</time></trkpt><trkpt lat="43.0540345" lon="13.2445701"><ele>805.2</ele><time>2026-05-03T07:58:27.15Z</time></trkpt><trkpt lat="43.0539598" lon="13.2444371"><ele>805.0</ele><time>2026-05-03T07:58:29.151Z</time></trkpt><trkpt lat="43.0538796" lon="13.2442975"><ele>804.9999999999999</ele><time>2026-05-03T07:58:31.149Z</time></trkpt><trkpt lat="43.0538346" lon="13.244227"><ele>805.0</ele><time>2026-05-03T07:58:32.151Z</time></trkpt><trkpt lat="43.0537881" lon="13.2441562"><ele>805.0</ele><time>2026-05-03T07:58:33.151Z</time></trkpt><trkpt lat="43.0537208" lon="13.2440398"><ele>805.0</ele><time>2026-05-03T07:58:35.151Z</time></trkpt><trkpt lat="43.0536655" lon="13.243972"><ele>804.9999999999999</ele><time>2026-05-03T07:58:38.152Z</time></trkpt><trkpt lat="43.0535955" lon="13.2439328"><ele>805.0</ele><time>2026-05-03T07:58:42.151Z</time></trkpt><trkpt lat="43.053525" lon="13.2438827"><ele>804.6</ele><time>2026-05-03T07:58:46.149Z</time></trkpt><trkpt lat="43.0534485" lon="13.2438514"><ele>804.2</ele><time>2026-05-03T07:58:49.147Z</time></trkpt><trkpt lat="43.0533658" lon="13.2438121"><ele>803.8</ele><time>2026-05-03T07:58:52.151Z</time></trkpt><trkpt lat="43.053278" lon="13.2437572"><ele>803.4</ele><time>2026-05-03T07:58:54.15Z</time></trkpt><trkpt lat="43.0531594" lon="13.2437233"><ele>803.0</ele><time>2026-05-03T07:58:56.151Z</time></trkpt><trkpt lat="43.0530903" lon="13.2437114"><ele>802.8333333333334</ele><time>2026-05-03T07:58:57.153Z</time></trkpt><trkpt lat="43.0530172" lon="13.2436966"><ele>802.6666666666667</ele><time>2026-05-03T07:58:58.151Z</time></trkpt><trkpt lat="43.0529332" lon="13.2436811"><ele>802.5</ele><time>2026-05-03T07:58:59.151Z</time></trkpt><trkpt lat="43.0528421" lon="13.2436673"><ele>802.3333333333333</ele><time>2026-05-03T07:59:00.153Z</time></trkpt><trkpt lat="43.0527697" lon="13.2436596"><ele>802.1666666666666</ele><time>2026-05-03T07:59:01.151Z</time></trkpt><trkpt lat="43.0527003" lon="13.2436629"><ele>802.0</ele><time>2026-05-03T07:59:02.152Z</time></trkpt><trkpt lat="43.0526192" lon="13.2436835"><ele>802.0</ele><time>2026-05-03T07:59:04.152Z</time></trkpt><trkpt lat="43.0525963" lon="13.2435888"><ele>802.0</ele><time>2026-05-03T07:59:09.153Z</time></trkpt><trkpt lat="43.0526111" lon="13.2434929"><ele>802.0</ele><time>2026-05-03T07:59:12.155Z</time></trkpt><trkpt lat="43.0526233" lon="13.2433846"><ele>802.0</ele><time>2026-05-03T07:59:15.155Z</time></trkpt><trkpt lat="43.05261" lon="13.2432775"><ele>802.0</ele><time>2026-05-03T07:59:18.151Z</time></trkpt><trkpt lat="43.0525735" lon="13.2431883"><ele>802.0</ele><time>2026-05-03T07:59:21.148Z</time></trkpt><trkpt lat="43.0525136" lon="13.2431477"><ele>802.0</ele><time>2026-05-03T07:59:24.153Z</time></trkpt><trkpt lat="43.052436" lon="13.2431385"><ele>802.0</ele><time>2026-05-03T07:59:27.153Z</time></trkpt><trkpt lat="43.0524213" lon="13.2430371"><ele>802.0</ele><time>2026-05-03T07:59:31.15Z</time></trkpt><trkpt lat="43.0523766" lon="13.2429727"><ele>802.0</ele><time>2026-05-03T07:59:33.149Z</time></trkpt><trkpt lat="43.052319" lon="13.2429259"><ele>802.0</ele><time>2026-05-03T07:59:35.149Z</time></trkpt><trkpt lat="43.0522635" lon="13.2428784"><ele>802.0</ele><time>2026-05-03T07:59:37.153Z</time></trkpt><trkpt lat="43.0522076" lon="13.2428202"><ele>802.0</ele><time>2026-05-03T07:59:39.15Z</time></trkpt><trkpt lat="43.0521481" lon="13.2427459"><ele>802.0</ele><time>2026-05-03T07:59:41.151Z</time></trkpt><trkpt lat="43.0520851" lon="13.2426751"><ele>801.9999999999999</ele><time>2026-05-03T07:59:43.151Z</time></trkpt><trkpt lat="43.0520197" lon="13.2426203"><ele>802.0</ele><time>2026-05-03T07:59:45.153Z</time></trkpt><trkpt lat="43.0519522" lon="13.2425648"><ele>802.0</ele><time>2026-05-03T07:59:47.151Z</time></trkpt><trkpt lat="43.0518871" lon="13.242507"><ele>802.0</ele><time>2026-05-03T07:59:49.148Z</time></trkpt><trkpt lat="43.0518179" lon="13.2424539"><ele>801.9999999999999</ele><time>2026-05-03T07:59:51.149Z</time></trkpt><trkpt lat="43.051747" lon="13.242397"><ele>802.0</ele><time>2026-05-03T07:59:53.151Z</time></trkpt><trkpt lat="43.0516777" lon="13.2423574"><ele>802.6</ele><time>2026-05-03T07:59:55.15Z</time></trkpt><trkpt lat="43.0515811" lon="13.242346"><ele>803.2</ele><time>2026-05-03T07:59:57.151Z</time></trkpt><trkpt lat="43.0514935" lon="13.2423283"><ele>803.8</ele><time>2026-05-03T07:59:59.15Z</time></trkpt><trkpt lat="43.0513947" lon="13.2423135"><ele>804.4</ele><time>2026-05-03T08:00:01.151Z</time></trkpt><trkpt lat="43.051285" lon="13.2423118"><ele>805.0</ele><time>2026-05-03T08:00:03.15Z</time></trkpt><trkpt lat="43.0511769" lon="13.2422885"><ele>805.0</ele><time>2026-05-03T08:00:05.152Z</time></trkpt><trkpt lat="43.0510763" lon="13.2422061"><ele>805.0</ele><time>2026-05-03T08:00:07.15Z</time></trkpt><trkpt lat="43.0509968" lon="13.2421049"><ele>805.0</ele><time>2026-05-03T08:00:09.15Z</time></trkpt><trkpt lat="43.0509558" lon="13.2420358"><ele>805.0</ele><time>2026-05-03T08:00:10.15Z</time></trkpt><trkpt lat="43.0509118" lon="13.241929"><ele>805.0</ele><time>2026-05-03T08:00:12.15Z</time></trkpt><trkpt lat="43.050897" lon="13.2418292"><ele>804.9999999999999</ele><time>2026-05-03T08:00:14.148Z</time></trkpt><trkpt lat="43.0508884" lon="13.2417178"><ele>805.0</ele><time>2026-05-03T08:00:16.151Z</time></trkpt><trkpt lat="43.0508763" lon="13.2415877"><ele>805.0</ele><time>2026-05-03T08:00:18.153Z</time></trkpt><trkpt lat="43.0508738" lon="13.2414852"><ele>805.0</ele><time>2026-05-03T08:00:20.148Z</time></trkpt><trkpt lat="43.0508855" lon="13.2413732"><ele>804.9999999999999</ele><time>2026-05-03T08:00:22.148Z</time></trkpt><trkpt lat="43.0509181" lon="13.2412453"><ele>805.0</ele><time>2026-05-03T08:00:24.152Z</time></trkpt><trkpt lat="43.0509532" lon="13.2411181"><ele>805.4</ele><time>2026-05-03T08:00:26.152Z</time></trkpt><trkpt lat="43.0509904" lon="13.2409914"><ele>805.8</ele><time>2026-05-03T08:00:28.149Z</time></trkpt><trkpt lat="43.0510331" lon="13.240869"><ele>806.2</ele><time>2026-05-03T08:00:30.147Z</time></trkpt><trkpt lat="43.0511075" lon="13.2407375"><ele>806.6</ele><time>2026-05-03T08:00:32.15Z</time></trkpt><trkpt lat="43.0511339" lon="13.2406582"><ele>807.0</ele><time>2026-05-03T08:00:33.15Z</time></trkpt><trkpt lat="43.0511591" lon="13.2405641"><ele>807.8</ele><time>2026-05-03T08:00:34.151Z</time></trkpt><trkpt lat="43.0512187" lon="13.2404696"><ele>808.6</ele><time>2026-05-03T08:00:35.15Z</time></trkpt><trkpt lat="43.051277" lon="13.2403546"><ele>809.4</ele><time>2026-05-03T08:00:36.149Z</time></trkpt><trkpt lat="43.0513196" lon="13.2402362"><ele>810.1999999999999</ele><time>2026-05-03T08:00:37.15Z</time></trkpt><trkpt lat="43.0513477" lon="13.2401176"><ele>811.0</ele><time>2026-05-03T08:00:38.15Z</time></trkpt><trkpt lat="43.0513709" lon="13.2399995"><ele>810.9999999999999</ele><time>2026-05-03T08:00:39.151Z</time></trkpt><trkpt lat="43.0513911" lon="13.2398711"><ele>811.0</ele><time>2026-05-03T08:00:40.152Z</time></trkpt><trkpt lat="43.0513583" lon="13.2397394"><ele>811.0</ele><time>2026-05-03T08:00:41.151Z</time></trkpt><trkpt lat="43.0513427" lon="13.2396241"><ele>811.0</ele><time>2026-05-03T08:00:42.149Z</time></trkpt><trkpt lat="43.05134" lon="13.2395262"><ele>810.9999999999999</ele><time>2026-05-03T08:00:43.151Z</time></trkpt><trkpt lat="43.0513208" lon="13.2394267"><ele>811.0</ele><time>2026-05-03T08:00:44.15Z</time></trkpt><trkpt lat="43.0512836" lon="13.2393153"><ele>809.6666666666666</ele><time>2026-05-03T08:00:45.15Z</time></trkpt><trkpt lat="43.0512567" lon="13.2392079"><ele>808.3333333333333</ele><time>2026-05-03T08:00:46.151Z</time></trkpt><trkpt lat="43.0512191" lon="13.2390962"><ele>807.0</ele><time>2026-05-03T08:00:47.15Z</time></trkpt><trkpt lat="43.0511869" lon="13.2389901"><ele>805.6666666666667</ele><time>2026-05-03T08:00:48.15Z</time></trkpt><trkpt lat="43.0511503" lon="13.2388873"><ele>804.3333333333334</ele><time>2026-05-03T08:00:49.15Z</time></trkpt><trkpt lat="43.0511219" lon="13.2387734"><ele>803.0</ele><time>2026-05-03T08:00:50.15Z</time></trkpt><trkpt lat="43.0510867" lon="13.2386551"><ele>800.5000000000001</ele><time>2026-05-03T08:00:51.15Z</time></trkpt><trkpt lat="43.0510475" lon="13.2385378"><ele>798.0</ele><time>2026-05-03T08:00:52.15Z</time></trkpt><trkpt lat="43.0510223" lon="13.2384341"><ele>795.5</ele><time>2026-05-03T08:00:53.151Z</time></trkpt><trkpt lat="43.0509861" lon="13.2383334"><ele>793.0</ele><time>2026-05-03T08:00:54.15Z</time></trkpt><trkpt lat="43.050949" lon="13.2382383"><ele>790.5000000000001</ele><time>2026-05-03T08:00:55.151Z</time></trkpt><trkpt lat="43.0509129" lon="13.2381379"><ele>788.0</ele><time>2026-05-03T08:00:56.15Z</time></trkpt><trkpt lat="43.0508826" lon="13.238055"><ele>785.1666666666667</ele><time>2026-05-03T08:00:57.151Z</time></trkpt><trkpt lat="43.0508461" lon="13.2379302"><ele>782.3333333333334</ele><time>2026-05-03T08:00:58.15Z</time></trkpt><trkpt lat="43.0508275" lon="13.2378295"><ele>779.5</ele><time>2026-05-03T08:00:59.152Z</time></trkpt><trkpt lat="43.0507888" lon="13.237737"><ele>776.6666666666667</ele><time>2026-05-03T08:01:00.152Z</time></trkpt><trkpt lat="43.0507576" lon="13.237658"><ele>773.8333333333334</ele><time>2026-05-03T08:01:01.152Z</time></trkpt><trkpt lat="43.0507182" lon="13.2375587"><ele>771.0</ele><time>2026-05-03T08:01:02.152Z</time></trkpt><trkpt lat="43.0506778" lon="13.2374579"><ele>774.0</ele><time>2026-05-03T08:01:03.151Z</time></trkpt><trkpt lat="43.0506643" lon="13.2373552"><ele>777.0</ele><time>2026-05-03T08:01:04.153Z</time></trkpt><trkpt lat="43.0506488" lon="13.2372677"><ele>780.0</ele><time>2026-05-03T08:01:05.152Z</time></trkpt><trkpt lat="43.0505974" lon="13.237123"><ele>783.0</ele><time>2026-05-03T08:01:07.15Z</time></trkpt><trkpt lat="43.0505467" lon="13.2370147"><ele>786.0</ele><time>2026-05-03T08:01:09.152Z</time></trkpt><trkpt lat="43.0504804" lon="13.2369797"><ele>789.0</ele><time>2026-05-03T08:01:11.15Z</time></trkpt><trkpt lat="43.0504191" lon="13.2369545"><ele>789.0</ele><time>2026-05-03T08:01:13.152Z</time></trkpt><trkpt lat="43.0504008" lon="13.2368534"><ele>789.0</ele><time>2026-05-03T08:01:15.151Z</time></trkpt><trkpt lat="43.0503302" lon="13.2367198"><ele>789.0</ele><time>2026-05-03T08:01:17.15Z</time></trkpt><trkpt lat="43.0502857" lon="13.2365932"><ele>789.0</ele><time>2026-05-03T08:01:19.149Z</time></trkpt><trkpt lat="43.0502519" lon="13.2365157"><ele>789.0</ele><time>2026-05-03T08:01:20.151Z</time></trkpt><trkpt lat="43.0501995" lon="13.2363734"><ele>785.8571428571428</ele><time>2026-05-03T08:01:22.153Z</time></trkpt><trkpt lat="43.0501672" lon="13.2362916"><ele>782.7142857142857</ele><time>2026-05-03T08:01:23.152Z</time></trkpt><trkpt lat="43.0501375" lon="13.2362131"><ele>779.5714285714286</ele><time>2026-05-03T08:01:24.152Z</time></trkpt><trkpt lat="43.0500989" lon="13.2361377"><ele>776.4285714285713</ele><time>2026-05-03T08:01:25.151Z</time></trkpt><trkpt lat="43.050061" lon="13.236061"><ele>773.2857142857143</ele><time>2026-05-03T08:01:26.152Z</time></trkpt><trkpt lat="43.0500154" lon="13.2359792"><ele>770.1428571428571</ele><time>2026-05-03T08:01:27.152Z</time></trkpt><trkpt lat="43.0499749" lon="13.2359112"><ele>767.0</ele><time>2026-05-03T08:01:28.151Z</time></trkpt><trkpt lat="43.0499348" lon="13.2358283"><ele>777.8333333333333</ele><time>2026-05-03T08:01:29.15Z</time></trkpt><trkpt lat="43.0498862" lon="13.2357399"><ele>788.6666666666666</ele><time>2026-05-03T08:01:30.149Z</time></trkpt><trkpt lat="43.0498327" lon="13.2356103"><ele>799.5</ele><time>2026-05-03T08:01:32.149Z</time></trkpt><trkpt lat="43.0498378" lon="13.2354945"><ele>810.3333333333333</ele><time>2026-05-03T08:01:34.152Z</time></trkpt><trkpt lat="43.0498246" lon="13.2354007"><ele>821.1666666666666</ele><time>2026-05-03T08:01:36.15Z</time></trkpt><trkpt lat="43.0497654" lon="13.2353176"><ele>832.0</ele><time>2026-05-03T08:01:39.152Z</time></trkpt><trkpt lat="43.0497583" lon="13.2352219"><ele>831.9999999999999</ele><time>2026-05-03T08:01:42.152Z</time></trkpt><trkpt lat="43.0497246" lon="13.2351389"><ele>832.0</ele><time>2026-05-03T08:01:45.154Z</time></trkpt><trkpt lat="43.0496924" lon="13.2350361"><ele>832.0</ele><time>2026-05-03T08:01:49.151Z</time></trkpt><trkpt lat="43.0496656" lon="13.2349467"><ele>832.0</ele><time>2026-05-03T08:01:52.153Z</time></trkpt><trkpt lat="43.0496566" lon="13.2348362"><ele>831.9999999999999</ele><time>2026-05-03T08:01:54.151Z</time></trkpt><trkpt lat="43.0496852" lon="13.2347469"><ele>832.0</ele><time>2026-05-03T08:01:56.151Z</time></trkpt><trkpt lat="43.049762" lon="13.2346939"><ele>834.3333333333333</ele><time>2026-05-03T08:01:59.15Z</time></trkpt><trkpt lat="43.0498272" lon="13.2346714"><ele>836.6666666666666</ele><time>2026-05-03T08:02:01.152Z</time></trkpt><trkpt lat="43.0498908" lon="13.2346572"><ele>839.0</ele><time>2026-05-03T08:02:12.148Z</time></trkpt><trkpt lat="43.0499576" lon="13.2346252"><ele>841.3333333333333</ele><time>2026-05-03T08:03:33.152Z</time></trkpt><trkpt lat="43.0500337" lon="13.2346664"><ele>843.6666666666666</ele><time>2026-05-03T08:03:42.15Z</time></trkpt><trkpt lat="43.0501019" lon="13.2346921"><ele>846.0</ele><time>2026-05-03T08:03:45.152Z</time></trkpt><trkpt lat="43.0501957" lon="13.2347153"><ele>837.5999999999999</ele><time>2026-05-03T08:04:26.15Z</time></trkpt><trkpt lat="43.0502677" lon="13.2346718"><ele>829.2</ele><time>2026-05-03T08:05:17.151Z</time></trkpt><trkpt lat="43.0504547" lon="13.2346945"><ele>820.8</ele><time>2026-05-03T08:05:35.149Z</time></trkpt><trkpt lat="43.0505353" lon="13.2346514"><ele>812.4000000000001</ele><time>2026-05-03T08:06:27.154Z</time></trkpt><trkpt lat="43.0505917" lon="13.2346037"><ele>804.0</ele><time>2026-05-03T08:06:45.148Z</time></trkpt><trkpt lat="43.0506612" lon="13.2345788"><ele>804.0</ele><time>2026-05-03T08:06:50.151Z</time></trkpt><trkpt lat="43.0507251" lon="13.2345716"><ele>804.0</ele><time>2026-05-03T08:06:52.151Z</time></trkpt><trkpt lat="43.0507824" lon="13.2344698"><ele>804.0</ele><time>2026-05-03T08:06:54.153Z</time></trkpt><trkpt lat="43.0508505" lon="13.2343769"><ele>804.0</ele><time>2026-05-03T08:06:56.152Z</time></trkpt><trkpt lat="43.0508938" lon="13.2343101"><ele>804.0</ele><time>2026-05-03T08:06:57.152Z</time></trkpt><trkpt lat="43.0509922" lon="13.2342127"><ele>804.0</ele><time>2026-05-03T08:06:59.151Z</time></trkpt><trkpt lat="43.0511131" lon="13.234202"><ele>799.0</ele><time>2026-05-03T08:07:01.15Z</time></trkpt><trkpt lat="43.0511866" lon="13.2342057"><ele>794.0</ele><time>2026-05-03T08:07:02.151Z</time></trkpt><trkpt lat="43.0512499" lon="13.234204"><ele>789.0</ele><time>2026-05-03T08:07:03.149Z</time></trkpt><trkpt lat="43.0513172" lon="13.2341859"><ele>784.0</ele><time>2026-05-03T08:07:04.15Z</time></trkpt><trkpt lat="43.0514218" lon="13.2341342"><ele>779.0</ele><time>2026-05-03T08:07:06.151Z</time></trkpt><trkpt lat="43.0515033" lon="13.2341084"><ele>774.0</ele><time>2026-05-03T08:07:08.15Z</time></trkpt><trkpt lat="43.0515735" lon="13.234098"><ele>774.0</ele><time>2026-05-03T08:07:10.154Z</time></trkpt><trkpt lat="43.0516184" lon="13.234167"><ele>774.0</ele><time>2026-05-03T08:07:13.151Z</time></trkpt><trkpt lat="43.0516177" lon="13.2342924"><ele>774.0</ele><time>2026-05-03T08:07:16.153Z</time></trkpt><trkpt lat="43.0516258" lon="13.2343957"><ele>774.0</ele><time>2026-05-03T08:07:18.151Z</time></trkpt><trkpt lat="43.0516543" lon="13.2344767"><ele>774.0</ele><time>2026-05-03T08:07:20.15Z</time></trkpt><trkpt lat="43.0517031" lon="13.2345728"><ele>774.0</ele><time>2026-05-03T08:07:22.152Z</time></trkpt><trkpt lat="43.0517543" lon="13.2346594"><ele>774.4000000000001</ele><time>2026-05-03T08:07:24.151Z</time></trkpt><trkpt lat="43.0518167" lon="13.2347409"><ele>774.8</ele><time>2026-05-03T08:07:26.15Z</time></trkpt><trkpt lat="43.0518816" lon="13.2348243"><ele>775.2</ele><time>2026-05-03T08:07:28.153Z</time></trkpt><trkpt lat="43.0519576" lon="13.2349302"><ele>775.5999999999999</ele><time>2026-05-03T08:07:30.151Z</time></trkpt><trkpt lat="43.0519994" lon="13.2349948"><ele>776.0</ele><time>2026-05-03T08:07:31.153Z</time></trkpt><trkpt lat="43.052086" lon="13.2351251"><ele>769.8333333333334</ele><time>2026-05-03T08:07:33.151Z</time></trkpt><trkpt lat="43.0521667" lon="13.2352411"><ele>763.6666666666667</ele><time>2026-05-03T08:07:35.151Z</time></trkpt><trkpt lat="43.0522042" lon="13.235312"><ele>757.5</ele><time>2026-05-03T08:07:36.152Z</time></trkpt><trkpt lat="43.0522811" lon="13.2354395"><ele>751.3333333333334</ele><time>2026-05-03T08:07:38.152Z</time></trkpt><trkpt lat="43.0523252" lon="13.2355011"><ele>745.1666666666667</ele><time>2026-05-03T08:07:39.152Z</time></trkpt><trkpt lat="43.0523758" lon="13.2355535"><ele>739.0</ele><time>2026-05-03T08:07:40.149Z</time></trkpt><trkpt lat="43.0524647" lon="13.2356578"><ele>738.4000000000001</ele><time>2026-05-03T08:07:42.151Z</time></trkpt><trkpt lat="43.052554" lon="13.2357381"><ele>737.8</ele><time>2026-05-03T08:07:44.152Z</time></trkpt><trkpt lat="43.0526547" lon="13.2357761"><ele>737.2</ele><time>2026-05-03T08:07:46.153Z</time></trkpt><trkpt lat="43.0527659" lon="13.2357686"><ele>736.5999999999999</ele><time>2026-05-03T08:07:48.152Z</time></trkpt><trkpt lat="43.0528847" lon="13.2357313"><ele>736.0</ele><time>2026-05-03T08:07:50.151Z</time></trkpt><trkpt lat="43.0530013" lon="13.2356989"><ele>736.0</ele><time>2026-05-03T08:07:52.152Z</time></trkpt><trkpt lat="43.0531166" lon="13.2357132"><ele>736.0</ele><time>2026-05-03T08:07:54.152Z</time></trkpt><trkpt lat="43.0532251" lon="13.2357511"><ele>736.0</ele><time>2026-05-03T08:07:56.152Z</time></trkpt><trkpt lat="43.0533159" lon="13.2357691"><ele>736.0</ele><time>2026-05-03T08:07:58.151Z</time></trkpt><trkpt lat="43.0533947" lon="13.2357928"><ele>736.0</ele><time>2026-05-03T08:08:00.151Z</time></trkpt><trkpt lat="43.0534707" lon="13.2358463"><ele>737.1666666666667</ele><time>2026-05-03T08:08:02.151Z</time></trkpt><trkpt lat="43.0535439" lon="13.2359036"><ele>738.3333333333334</ele><time>2026-05-03T08:08:04.152Z</time></trkpt><trkpt lat="43.0536066" lon="13.2359521"><ele>739.5</ele><time>2026-05-03T08:08:06.15Z</time></trkpt><trkpt lat="43.0536677" lon="13.2359941"><ele>740.6666666666666</ele><time>2026-05-03T08:08:08.147Z</time></trkpt><trkpt lat="43.0537456" lon="13.2360521"><ele>741.8333333333333</ele><time>2026-05-03T08:08:11.152Z</time></trkpt><trkpt lat="43.0538251" lon="13.2361008"><ele>743.0</ele><time>2026-05-03T08:08:14.151Z</time></trkpt><trkpt lat="43.0539088" lon="13.2361348"><ele>743.0</ele><time>2026-05-03T08:08:17.153Z</time></trkpt><trkpt lat="43.0539864" lon="13.2361773"><ele>743.0</ele><time>2026-05-03T08:08:20.153Z</time></trkpt><trkpt lat="43.0540713" lon="13.2362235"><ele>743.0</ele><time>2026-05-03T08:08:23.152Z</time></trkpt><trkpt lat="43.0541488" lon="13.2362611"><ele>743.0</ele><time>2026-05-03T08:08:26.152Z</time></trkpt><trkpt lat="43.0542191" lon="13.2362969"><ele>743.0</ele><time>2026-05-03T08:08:29.152Z</time></trkpt><trkpt lat="43.0542813" lon="13.2363388"><ele>743.0</ele><time>2026-05-03T08:08:32.153Z</time></trkpt><trkpt lat="43.0543479" lon="13.2363748"><ele>741.3333333333333</ele><time>2026-05-03T08:08:35.152Z</time></trkpt><trkpt lat="43.0544145" lon="13.2364271"><ele>739.6666666666666</ele><time>2026-05-03T08:08:38.151Z</time></trkpt><trkpt lat="43.0544791" lon="13.2364698"><ele>738.0</ele><time>2026-05-03T08:08:41.149Z</time></trkpt><trkpt lat="43.054549" lon="13.236534"><ele>736.3333333333334</ele><time>2026-05-03T08:08:44.154Z</time></trkpt><trkpt lat="43.0546089" lon="13.2365683"><ele>734.6666666666667</ele><time>2026-05-03T08:08:47.153Z</time></trkpt><trkpt lat="43.0546874" lon="13.2365922"><ele>733.0</ele><time>2026-05-03T08:08:51.151Z</time></trkpt><trkpt lat="43.0547575" lon="13.2366253"><ele>732.9999999999999</ele><time>2026-05-03T08:08:54.151Z</time></trkpt><trkpt lat="43.0548197" lon="13.2366592"><ele>733.0</ele><time>2026-05-03T08:08:57.158Z</time></trkpt><trkpt lat="43.0548827" lon="13.2366888"><ele>733.0</ele><time>2026-05-03T08:09:00.154Z</time></trkpt><trkpt lat="43.0549451" lon="13.236708"><ele>733.0</ele><time>2026-05-03T08:09:03.148Z</time></trkpt><trkpt lat="43.0550232" lon="13.2367291"><ele>733.0</ele><time>2026-05-03T08:09:06.154Z</time></trkpt><trkpt lat="43.055094" lon="13.2367355"><ele>732.9999999999999</ele><time>2026-05-03T08:09:09.151Z</time></trkpt><trkpt lat="43.0551642" lon="13.236749"><ele>733.0</ele><time>2026-05-03T08:09:12.152Z</time></trkpt><trkpt lat="43.0552515" lon="13.2367436"><ele>736.5</ele><time>2026-05-03T08:09:16.152Z</time></trkpt><trkpt lat="43.055327" lon="13.2367618"><ele>740.0</ele><time>2026-05-03T08:09:19.15Z</time></trkpt><trkpt lat="43.0554097" lon="13.2367867"><ele>743.5</ele><time>2026-05-03T08:09:23.152Z</time></trkpt><trkpt lat="43.0554804" lon="13.2368042"><ele>747.0</ele><time>2026-05-03T08:09:26.152Z</time></trkpt><trkpt lat="43.0555477" lon="13.2368204"><ele>750.5</ele><time>2026-05-03T08:09:29.152Z</time></trkpt><trkpt lat="43.0556141" lon="13.2368321"><ele>754.0</ele><time>2026-05-03T08:09:32.15Z</time></trkpt><trkpt lat="43.0556946" lon="13.2368533"><ele>754.0</ele><time>2026-05-03T08:09:36.153Z</time></trkpt><trkpt lat="43.0557701" lon="13.2368573"><ele>754.0</ele><time>2026-05-03T08:09:40.149Z</time></trkpt><trkpt lat="43.055834" lon="13.2368614"><ele>754.0</ele><time>2026-05-03T08:09:43.153Z</time></trkpt><trkpt lat="43.0559139" lon="13.2368771"><ele>754.0</ele><time>2026-05-03T08:09:47.149Z</time></trkpt><trkpt lat="43.0559736" lon="13.2369092"><ele>754.0</ele><time>2026-05-03T08:09:50.152Z</time></trkpt><trkpt lat="43.0560427" lon="13.2369734"><ele>754.0</ele><time>2026-05-03T08:09:54.153Z</time></trkpt><trkpt lat="43.0561047" lon="13.2370479"><ele>757.1666666666667</ele><time>2026-05-03T08:09:58.148Z</time></trkpt><trkpt lat="43.0561703" lon="13.2371104"><ele>760.3333333333334</ele><time>2026-05-03T08:10:02.153Z</time></trkpt><trkpt lat="43.0562326" lon="13.237163"><ele>763.5</ele><time>2026-05-03T08:10:06.152Z</time></trkpt><trkpt lat="43.0563031" lon="13.2372089"><ele>766.6666666666667</ele><time>2026-05-03T08:10:10.153Z</time></trkpt><trkpt lat="43.0563774" lon="13.2372453"><ele>769.8333333333334</ele><time>2026-05-03T08:10:14.152Z</time></trkpt><trkpt lat="43.0564584" lon="13.2372777"><ele>773.0</ele><time>2026-05-03T08:10:18.153Z</time></trkpt><trkpt lat="43.0565433" lon="13.2372815"><ele>773.0</ele><time>2026-05-03T08:10:22.15Z</time></trkpt><trkpt lat="43.0566167" lon="13.2372865"><ele>773.0</ele><time>2026-05-03T08:10:25.153Z</time></trkpt><trkpt lat="43.0566904" lon="13.2372903"><ele>773.0</ele><time>2026-05-03T08:10:28.152Z</time></trkpt><trkpt lat="43.0567565" lon="13.2373055"><ele>773.0</ele><time>2026-05-03T08:10:31.152Z</time></trkpt><trkpt lat="43.0568197" lon="13.2373496"><ele>773.0</ele><time>2026-05-03T08:10:34.153Z</time></trkpt><trkpt lat="43.0568762" lon="13.2374015"><ele>773.0</ele><time>2026-05-03T08:10:37.152Z</time></trkpt><trkpt lat="43.0569411" lon="13.2374446"><ele>773.0</ele><time>2026-05-03T08:10:40.15Z</time></trkpt><trkpt lat="43.0570042" lon="13.2374881"><ele>773.8571428571429</ele><time>2026-05-03T08:10:43.153Z</time></trkpt><trkpt lat="43.0570743" lon="13.2375265"><ele>774.7142857142857</ele><time>2026-05-03T08:10:46.149Z</time></trkpt><trkpt lat="43.0571454" lon="13.2375589"><ele>775.5714285714287</ele><time>2026-05-03T08:10:49.153Z</time></trkpt><trkpt lat="43.0572138" lon="13.2375898"><ele>776.4285714285714</ele><time>2026-05-03T08:10:52.152Z</time></trkpt><trkpt lat="43.0572827" lon="13.237629"><ele>777.2857142857143</ele><time>2026-05-03T08:10:55.151Z</time></trkpt><trkpt lat="43.0573581" lon="13.2376507"><ele>778.1428571428572</ele><time>2026-05-03T08:10:58.148Z</time></trkpt><trkpt lat="43.0574285" lon="13.237655"><ele>779.0</ele><time>2026-05-03T08:11:01.153Z</time></trkpt><trkpt lat="43.0575079" lon="13.2376897"><ele>779.0000000000001</ele><time>2026-05-03T08:11:05.153Z</time></trkpt><trkpt lat="43.0575711" lon="13.2376997"><ele>779.0</ele><time>2026-05-03T08:11:08.152Z</time></trkpt><trkpt lat="43.0576497" lon="13.2376939"><ele>779.0</ele><time>2026-05-03T08:11:11.152Z</time></trkpt><trkpt lat="43.0577221" lon="13.2377092"><ele>779.0</ele><time>2026-05-03T08:11:14.151Z</time></trkpt><trkpt lat="43.0577973" lon="13.2377248"><ele>779.0</ele><time>2026-05-03T08:11:17.152Z</time></trkpt><trkpt lat="43.057866" lon="13.2377529"><ele>779.0000000000001</ele><time>2026-05-03T08:11:20.153Z</time></trkpt><trkpt lat="43.0579352" lon="13.2377801"><ele>779.0</ele><time>2026-05-03T08:11:23.151Z</time></trkpt><trkpt lat="43.0580106" lon="13.2377912"><ele>779.0000000000001</ele><time>2026-05-03T08:11:26.15Z</time></trkpt><trkpt lat="43.0580883" lon="13.2377998"><ele>779.0</ele><time>2026-05-03T08:11:29.15Z</time></trkpt><trkpt lat="43.0581634" lon="13.2377953"><ele>779.0</ele><time>2026-05-03T08:11:32.153Z</time></trkpt><trkpt lat="43.0582379" lon="13.2378002"><ele>779.0</ele><time>2026-05-03T08:11:35.154Z</time></trkpt><trkpt lat="43.0583085" lon="13.2377918"><ele>779.0000000000001</ele><time>2026-05-03T08:11:38.152Z</time></trkpt><trkpt lat="43.0583812" lon="13.2377797"><ele>779.0</ele><time>2026-05-03T08:11:41.15Z</time></trkpt><trkpt lat="43.0584581" lon="13.2377545"><ele>779.5000000000001</ele><time>2026-05-03T08:11:44.153Z</time></trkpt><trkpt lat="43.0585334" lon="13.237715"><ele>780.0</ele><time>2026-05-03T08:11:47.151Z</time></trkpt><trkpt lat="43.0585978" lon="13.2376558"><ele>780.5</ele><time>2026-05-03T08:11:50.152Z</time></trkpt><trkpt lat="43.0586565" lon="13.2375868"><ele>781.0</ele><time>2026-05-03T08:11:53.151Z</time></trkpt><trkpt lat="43.0587" lon="13.2375069"><ele>781.5000000000001</ele><time>2026-05-03T08:11:56.151Z</time></trkpt><trkpt lat="43.0587318" lon="13.2374133"><ele>782.0</ele><time>2026-05-03T08:11:59.156Z</time></trkpt><trkpt lat="43.0587409" lon="13.2373117"><ele>783.5714285714286</ele><time>2026-05-03T08:12:02.152Z</time></trkpt><trkpt lat="43.0587287" lon="13.2372136"><ele>785.1428571428571</ele><time>2026-05-03T08:12:05.153Z</time></trkpt><trkpt lat="43.0586934" lon="13.2371255"><ele>786.7142857142858</ele><time>2026-05-03T08:12:08.151Z</time></trkpt><trkpt lat="43.0586411" lon="13.237056"><ele>788.2857142857142</ele><time>2026-05-03T08:12:11.151Z</time></trkpt><trkpt lat="43.0585825" lon="13.2369907"><ele>789.8571428571429</ele><time>2026-05-03T08:12:14.15Z</time></trkpt><trkpt lat="43.0585262" lon="13.236941"><ele>791.4285714285714</ele><time>2026-05-03T08:12:17.151Z</time></trkpt><trkpt lat="43.0584765" lon="13.2368555"><ele>793.0</ele><time>2026-05-03T08:12:21.152Z</time></trkpt><trkpt lat="43.0584277" lon="13.2367777"><ele>793.0000000000001</ele><time>2026-05-03T08:12:25.152Z</time></trkpt><trkpt lat="43.05839" lon="13.2367037"><ele>793.0</ele><time>2026-05-03T08:12:29.154Z</time></trkpt><trkpt lat="43.0583418" lon="13.2366248"><ele>793.0</ele><time>2026-05-03T08:12:34.151Z</time></trkpt><trkpt lat="43.0583072" lon="13.2365423"><ele>793.0</ele><time>2026-05-03T08:12:38.153Z</time></trkpt><trkpt lat="43.0582785" lon="13.2364565"><ele>793.0</ele><time>2026-05-03T08:12:42.151Z</time></trkpt><trkpt lat="43.058257" lon="13.2363684"><ele>793.0000000000001</ele><time>2026-05-03T08:12:46.15Z</time></trkpt><trkpt lat="43.0582405" lon="13.2362826"><ele>793.0</ele><time>2026-05-03T08:12:50.15Z</time></trkpt><trkpt lat="43.0582228" lon="13.2361868"><ele>797.0000000000001</ele><time>2026-05-03T08:12:54.152Z</time></trkpt><trkpt lat="43.0582023" lon="13.2360806"><ele>801.0</ele><time>2026-05-03T08:12:59.152Z</time></trkpt><trkpt lat="43.0581833" lon="13.2359885"><ele>805.0</ele><time>2026-05-03T08:13:03.152Z</time></trkpt><trkpt lat="43.0581689" lon="13.2358984"><ele>809.0</ele><time>2026-05-03T08:13:07.152Z</time></trkpt><trkpt lat="43.0581596" lon="13.2358044"><ele>813.0</ele><time>2026-05-03T08:13:11.153Z</time></trkpt><trkpt lat="43.0581665" lon="13.2357004"><ele>817.0000000000001</ele><time>2026-05-03T08:13:15.155Z</time></trkpt><trkpt lat="43.0581778" lon="13.2356055"><ele>821.0</ele><time>2026-05-03T08:13:19.227Z</time></trkpt><trkpt lat="43.0581983" lon="13.2355057"><ele>821.8333333333334</ele><time>2026-05-03T08:13:23.153Z</time></trkpt><trkpt lat="43.0582364" lon="13.2354129"><ele>822.6666666666667</ele><time>2026-05-03T08:13:27.152Z</time></trkpt><trkpt lat="43.0582727" lon="13.2353295"><ele>823.5</ele><time>2026-05-03T08:13:31.149Z</time></trkpt><trkpt lat="43.0583019" lon="13.235234"><ele>824.3333333333333</ele><time>2026-05-03T08:13:35.154Z</time></trkpt><trkpt lat="43.0583249" lon="13.2351532"><ele>825.1666666666666</ele><time>2026-05-03T08:13:38.152Z</time></trkpt><trkpt lat="43.0583537" lon="13.2350509"><ele>826.0</ele><time>2026-05-03T08:13:42.149Z</time></trkpt><trkpt lat="43.0583649" lon="13.2349395"><ele>822.2857142857143</ele><time>2026-05-03T08:13:46.152Z</time></trkpt><trkpt lat="43.0583643" lon="13.2348272"><ele>818.5714285714286</ele><time>2026-05-03T08:13:50.152Z</time></trkpt><trkpt lat="43.0583678" lon="13.2347384"><ele>814.8571428571429</ele><time>2026-05-03T08:13:53.152Z</time></trkpt><trkpt lat="43.0583706" lon="13.2346513"><ele>811.1428571428571</ele><time>2026-05-03T08:13:56.153Z</time></trkpt><trkpt lat="43.0583688" lon="13.2345651"><ele>807.4285714285714</ele><time>2026-05-03T08:13:59.15Z</time></trkpt><trkpt lat="43.0583644" lon="13.2344789"><ele>803.7142857142858</ele><time>2026-05-03T08:14:02.151Z</time></trkpt><trkpt lat="43.0583765" lon="13.2343787"><ele>800.0</ele><time>2026-05-03T08:14:06.153Z</time></trkpt><trkpt lat="43.0583747" lon="13.2342804"><ele>800.0000000000001</ele><time>2026-05-03T08:14:10.151Z</time></trkpt><trkpt lat="43.0583743" lon="13.234175"><ele>800.0</ele><time>2026-05-03T08:14:14.15Z</time></trkpt><trkpt lat="43.0583349" lon="13.2341037"><ele>800.0</ele><time>2026-05-03T08:14:18.154Z</time></trkpt><trkpt lat="43.0582874" lon="13.2340118"><ele>800.0</ele><time>2026-05-03T08:14:22.151Z</time></trkpt><trkpt lat="43.0582487" lon="13.2339282"><ele>800.0000000000001</ele><time>2026-05-03T08:14:25.152Z</time></trkpt><trkpt lat="43.0581997" lon="13.2338405"><ele>800.0</ele><time>2026-05-03T08:14:28.152Z</time></trkpt><trkpt lat="43.0581568" lon="13.2337485"><ele>808.5000000000001</ele><time>2026-05-03T08:14:31.15Z</time></trkpt><trkpt lat="43.0581192" lon="13.2336513"><ele>817.0</ele><time>2026-05-03T08:14:34.152Z</time></trkpt><trkpt lat="43.0580943" lon="13.2335584"><ele>825.5</ele><time>2026-05-03T08:14:37.154Z</time></trkpt><trkpt lat="43.0580334" lon="13.2335085"><ele>834.0</ele><time>2026-05-03T08:14:40.15Z</time></trkpt><trkpt lat="43.0579763" lon="13.2335881"><ele>842.5000000000001</ele><time>2026-05-03T08:14:43.152Z</time></trkpt><trkpt lat="43.0580046" lon="13.2336942"><ele>851.0</ele><time>2026-05-03T08:14:46.149Z</time></trkpt><trkpt lat="43.0580597" lon="13.2337727"><ele>851.0000000000001</ele><time>2026-05-03T08:14:49.153Z</time></trkpt><trkpt lat="43.0581055" lon="13.2338442"><ele>851.0</ele><time>2026-05-03T08:14:52.15Z</time></trkpt><trkpt lat="43.0581527" lon="13.2339172"><ele>851.0</ele><time>2026-05-03T08:14:55.153Z</time></trkpt><trkpt lat="43.058206" lon="13.233998"><ele>851.0</ele><time>2026-05-03T08:14:58.153Z</time></trkpt><trkpt lat="43.0582339" lon="13.234091"><ele>851.0000000000001</ele><time>2026-05-03T08:15:01.15Z</time></trkpt><trkpt lat="43.0582418" lon="13.2341952"><ele>851.0</ele><time>2026-05-03T08:15:04.153Z</time></trkpt><trkpt lat="43.0582334" lon="13.234307"><ele>848.3333333333334</ele><time>2026-05-03T08:15:07.151Z</time></trkpt><trkpt lat="43.0582195" lon="13.2344152"><ele>845.6666666666667</ele><time>2026-05-03T08:15:10.153Z</time></trkpt><trkpt lat="43.0581966" lon="13.2345267"><ele>843.0</ele><time>2026-05-03T08:15:13.152Z</time></trkpt><trkpt lat="43.0581812" lon="13.2346422"><ele>840.3333333333333</ele><time>2026-05-03T08:15:16.15Z</time></trkpt><trkpt lat="43.0581585" lon="13.2347592"><ele>837.6666666666666</ele><time>2026-05-03T08:15:19.151Z</time></trkpt><trkpt lat="43.0581269" lon="13.2348697"><ele>835.0</ele><time>2026-05-03T08:15:22.153Z</time></trkpt><trkpt lat="43.0580959" lon="13.2349867"><ele>833.4999999999999</ele><time>2026-05-03T08:15:25.153Z</time></trkpt><trkpt lat="43.0580665" lon="13.2351102"><ele>832.0</ele><time>2026-05-03T08:15:28.153Z</time></trkpt><trkpt lat="43.0580357" lon="13.2352328"><ele>830.5</ele><time>2026-05-03T08:15:31.149Z</time></trkpt><trkpt lat="43.0580132" lon="13.2353364"><ele>829.0</ele><time>2026-05-03T08:15:34.149Z</time></trkpt><trkpt lat="43.0579868" lon="13.2354501"><ele>827.4999999999999</ele><time>2026-05-03T08:15:37.153Z</time></trkpt><trkpt lat="43.0579578" lon="13.2355684"><ele>826.0</ele><time>2026-05-03T08:15:40.149Z</time></trkpt><trkpt lat="43.0579197" lon="13.235668"><ele>826.0</ele><time>2026-05-03T08:15:43.152Z</time></trkpt><trkpt lat="43.0578574" lon="13.2357146"><ele>826.0</ele><time>2026-05-03T08:15:46.153Z</time></trkpt><trkpt lat="43.0577969" lon="13.23569"><ele>826.0</ele><time>2026-05-03T08:15:49.149Z</time></trkpt><trkpt lat="43.0577479" lon="13.2356179"><ele>826.0</ele><time>2026-05-03T08:15:52.153Z</time></trkpt><trkpt lat="43.0577192" lon="13.2355284"><ele>826.0</ele><time>2026-05-03T08:15:55.153Z</time></trkpt><trkpt lat="43.0576996" lon="13.2354381"><ele>826.0</ele><time>2026-05-03T08:15:58.152Z</time></trkpt><trkpt lat="43.0576663" lon="13.2353539"><ele>826.0</ele><time>2026-05-03T08:16:01.15Z</time></trkpt><trkpt lat="43.0576245" lon="13.2352819"><ele>826.0</ele><time>2026-05-03T08:16:04.149Z</time></trkpt><trkpt lat="43.0575914" lon="13.2351998"><ele>826.0</ele><time>2026-05-03T08:16:07.153Z</time></trkpt><trkpt lat="43.057557" lon="13.2351155"><ele>826.0</ele><time>2026-05-03T08:16:10.152Z</time></trkpt><trkpt lat="43.057527" lon="13.2350269"><ele>826.0</ele><time>2026-05-03T08:16:13.153Z</time></trkpt><trkpt lat="43.057498" lon="13.2349486"><ele>826.0</ele><time>2026-05-03T08:16:16.154Z</time></trkpt><trkpt lat="43.0574698" lon="13.2348657"><ele>826.0</ele><time>2026-05-03T08:16:19.152Z</time></trkpt><trkpt lat="43.0574576" lon="13.2347776"><ele>826.0</ele><time>2026-05-03T08:16:22.151Z</time></trkpt><trkpt lat="43.0574439" lon="13.2346803"><ele>827.2857142857143</ele><time>2026-05-03T08:16:25.153Z</time></trkpt><trkpt lat="43.0574385" lon="13.2345683"><ele>828.5714285714286</ele><time>2026-05-03T08:16:28.151Z</time></trkpt><trkpt lat="43.0574176" lon="13.234475"><ele>829.8571428571429</ele><time>2026-05-03T08:16:31.153Z</time></trkpt><trkpt lat="43.0574204" lon="13.2343805"><ele>831.1428571428571</ele><time>2026-05-03T08:16:34.152Z</time></trkpt><trkpt lat="43.0574314" lon="13.2342815"><ele>832.4285714285714</ele><time>2026-05-03T08:16:37.152Z</time></trkpt><trkpt lat="43.0574539" lon="13.234186"><ele>833.7142857142858</ele><time>2026-05-03T08:16:40.15Z</time></trkpt><trkpt lat="43.0574826" lon="13.2340988"><ele>835.0</ele><time>2026-05-03T08:16:43.151Z</time></trkpt><trkpt lat="43.0575179" lon="13.2340149"><ele>837.2857142857143</ele><time>2026-05-03T08:16:46.151Z</time></trkpt><trkpt lat="43.0575623" lon="13.2339277"><ele>839.5714285714286</ele><time>2026-05-03T08:16:49.152Z</time></trkpt><trkpt lat="43.0576006" lon="13.2338356"><ele>841.8571428571429</ele><time>2026-05-03T08:16:52.153Z</time></trkpt><trkpt lat="43.0576324" lon="13.2337477"><ele>844.1428571428571</ele><time>2026-05-03T08:16:55.152Z</time></trkpt><trkpt lat="43.0576547" lon="13.2336469"><ele>846.4285714285714</ele><time>2026-05-03T08:16:58.152Z</time></trkpt><trkpt lat="43.0576686" lon="13.2335467"><ele>848.7142857142858</ele><time>2026-05-03T08:17:01.15Z</time></trkpt><trkpt lat="43.0576754" lon="13.2334513"><ele>851.0</ele><time>2026-05-03T08:17:04.149Z</time></trkpt><trkpt lat="43.0576721" lon="13.2333562"><ele>851.0</ele><time>2026-05-03T08:17:07.152Z</time></trkpt><trkpt lat="43.0576635" lon="13.2332616"><ele>851.0</ele><time>2026-05-03T08:17:10.153Z</time></trkpt><trkpt lat="43.0576623" lon="13.2331665"><ele>851.0</ele><time>2026-05-03T08:17:13.153Z</time></trkpt><trkpt lat="43.0576545" lon="13.2330707"><ele>851.0</ele><time>2026-05-03T08:17:16.152Z</time></trkpt><trkpt lat="43.0576541" lon="13.2329812"><ele>851.0</ele><time>2026-05-03T08:17:19.153Z</time></trkpt><trkpt lat="43.0576637" lon="13.2328907"><ele>851.0</ele><time>2026-05-03T08:17:22.153Z</time></trkpt><trkpt lat="43.0576481" lon="13.2327831"><ele>851.0</ele><time>2026-05-03T08:17:26.152Z</time></trkpt><trkpt lat="43.0576573" lon="13.2326679"><ele>851.7142857142858</ele><time>2026-05-03T08:17:30.153Z</time></trkpt><trkpt lat="43.0576703" lon="13.2325762"><ele>852.4285714285714</ele><time>2026-05-03T08:17:33.153Z</time></trkpt><trkpt lat="43.0576723" lon="13.2324863"><ele>853.1428571428571</ele><time>2026-05-03T08:17:36.152Z</time></trkpt><trkpt lat="43.0576749" lon="13.2323934"><ele>853.8571428571429</ele><time>2026-05-03T08:17:39.152Z</time></trkpt><trkpt lat="43.0576861" lon="13.2322884"><ele>854.5714285714286</ele><time>2026-05-03T08:17:43.15Z</time></trkpt><trkpt lat="43.0576898" lon="13.232181"><ele>855.2857142857143</ele><time>2026-05-03T08:17:47.186Z</time></trkpt><trkpt lat="43.0576871" lon="13.2320768"><ele>856.0</ele><time>2026-05-03T08:17:51.177Z</time></trkpt><trkpt lat="43.0576938" lon="13.2319767"><ele>855.6666666666666</ele><time>2026-05-03T08:17:55.186Z</time></trkpt><trkpt lat="43.0577069" lon="13.2318808"><ele>855.3333333333333</ele><time>2026-05-03T08:17:59.206Z</time></trkpt><trkpt lat="43.0577341" lon="13.2317926"><ele>855.0</ele><time>2026-05-03T08:18:02.149Z</time></trkpt><trkpt lat="43.0577431" lon="13.2316845"><ele>854.6666666666667</ele><time>2026-05-03T08:18:06.152Z</time></trkpt><trkpt lat="43.0577319" lon="13.2315734"><ele>854.3333333333334</ele><time>2026-05-03T08:18:10.154Z</time></trkpt><trkpt lat="43.0577029" lon="13.2314691"><ele>854.0</ele><time>2026-05-03T08:18:14.152Z</time></trkpt><trkpt lat="43.0576616" lon="13.2313722"><ele>854.0</ele><time>2026-05-03T08:18:18.154Z</time></trkpt><trkpt lat="43.0576469" lon="13.2312672"><ele>854.0</ele><time>2026-05-03T08:18:22.154Z</time></trkpt><trkpt lat="43.057639" lon="13.2311813"><ele>854.0</ele><time>2026-05-03T08:18:25.153Z</time></trkpt><trkpt lat="43.0576234" lon="13.2310844"><ele>854.0</ele><time>2026-05-03T08:18:29.15Z</time></trkpt><trkpt lat="43.0576008" lon="13.2309815"><ele>854.0</ele><time>2026-05-03T08:18:33.153Z</time></trkpt><trkpt lat="43.0575722" lon="13.2308917"><ele>854.0</ele><time>2026-05-03T08:18:37.149Z</time></trkpt><trkpt lat="43.0575351" lon="13.2308034"><ele>854.0</ele><time>2026-05-03T08:18:41.152Z</time></trkpt><trkpt lat="43.0574894" lon="13.2307137"><ele>862.1666666666667</ele><time>2026-05-03T08:18:45.15Z</time></trkpt><trkpt lat="43.0574332" lon="13.2306308"><ele>870.3333333333334</ele><time>2026-05-03T08:18:49.15Z</time></trkpt><trkpt lat="43.0573932" lon="13.2305597"><ele>878.5</ele><time>2026-05-03T08:18:52.152Z</time></trkpt><trkpt lat="43.0573316" lon="13.2304952"><ele>886.6666666666667</ele><time>2026-05-03T08:18:56.154Z</time></trkpt><trkpt lat="43.0573006" lon="13.2304042"><ele>894.8333333333334</ele><time>2026-05-03T08:19:00.152Z</time></trkpt><trkpt lat="43.0572733" lon="13.2303069"><ele>903.0</ele><time>2026-05-03T08:19:04.151Z</time></trkpt><trkpt lat="43.0572671" lon="13.2302025"><ele>903.0</ele><time>2026-05-03T08:19:08.151Z</time></trkpt><trkpt lat="43.0572671" lon="13.2300877"><ele>903.0</ele><time>2026-05-03T08:19:12.152Z</time></trkpt><trkpt lat="43.0572577" lon="13.2299949"><ele>903.0</ele><time>2026-05-03T08:19:15.153Z</time></trkpt><trkpt lat="43.0572673" lon="13.2298883"><ele>903.0</ele><time>2026-05-03T08:19:19.154Z</time></trkpt><trkpt lat="43.0572715" lon="13.2298022"><ele>903.0</ele><time>2026-05-03T08:19:22.153Z</time></trkpt><trkpt lat="43.0572958" lon="13.2297145"><ele>903.0</ele><time>2026-05-03T08:19:25.152Z</time></trkpt><trkpt lat="43.0573474" lon="13.2296287"><ele>903.0</ele><time>2026-05-03T08:19:28.151Z</time></trkpt><trkpt lat="43.057411" lon="13.2295517"><ele>899.4285714285714</ele><time>2026-05-03T08:19:31.149Z</time></trkpt><trkpt lat="43.0574784" lon="13.2294895"><ele>895.8571428571429</ele><time>2026-05-03T08:19:34.15Z</time></trkpt><trkpt lat="43.0575452" lon="13.2294296"><ele>892.2857142857142</ele><time>2026-05-03T08:19:37.154Z</time></trkpt><trkpt lat="43.0576044" lon="13.2293647"><ele>888.7142857142858</ele><time>2026-05-03T08:19:40.148Z</time></trkpt><trkpt lat="43.0576584" lon="13.2293023"><ele>885.1428571428571</ele><time>2026-05-03T08:19:43.153Z</time></trkpt><trkpt lat="43.0577074" lon="13.2292458"><ele>881.5714285714286</ele><time>2026-05-03T08:19:46.152Z</time></trkpt><trkpt lat="43.0577607" lon="13.2291783"><ele>878.0</ele><time>2026-05-03T08:19:49.15Z</time></trkpt><trkpt lat="43.0578114" lon="13.2291032"><ele>878.0</ele><time>2026-05-03T08:19:52.154Z</time></trkpt><trkpt lat="43.0578538" lon="13.2290257"><ele>878.0</ele><time>2026-05-03T08:19:55.154Z</time></trkpt><trkpt lat="43.0579085" lon="13.228947"><ele>878.0</ele><time>2026-05-03T08:19:58.153Z</time></trkpt><trkpt lat="43.0579601" lon="13.2288775"><ele>878.0</ele><time>2026-05-03T08:20:01.15Z</time></trkpt><trkpt lat="43.0580255" lon="13.2288414"><ele>878.0</ele><time>2026-05-03T08:21:14.151Z</time></trkpt><trkpt lat="43.058059" lon="13.2287562"><ele>878.0</ele><time>2026-05-03T08:21:17.151Z</time></trkpt><trkpt lat="43.0580759" lon="13.228665"><ele>878.0</ele><time>2026-05-03T08:21:20.153Z</time></trkpt><trkpt lat="43.0581005" lon="13.228567"><ele>881.0</ele><time>2026-05-03T08:21:23.153Z</time></trkpt><trkpt lat="43.0581372" lon="13.2284744"><ele>884.0</ele><time>2026-05-03T08:21:26.153Z</time></trkpt><trkpt lat="43.0581664" lon="13.2283806"><ele>887.0</ele><time>2026-05-03T08:21:29.152Z</time></trkpt><trkpt lat="43.0581816" lon="13.2282833"><ele>890.0</ele><time>2026-05-03T08:21:32.149Z</time></trkpt><trkpt lat="43.0582064" lon="13.2281929"><ele>893.0</ele><time>2026-05-03T08:21:35.152Z</time></trkpt><trkpt lat="43.0582242" lon="13.2280936"><ele>895.9999999999999</ele><time>2026-05-03T08:21:38.157Z</time></trkpt><trkpt lat="43.0582392" lon="13.2279995"><ele>898.9999999999999</ele><time>2026-05-03T08:21:41.15Z</time></trkpt><trkpt lat="43.0582439" lon="13.2279104"><ele>899.2857142857142</ele><time>2026-05-03T08:21:44.152Z</time></trkpt><trkpt lat="43.0582809" lon="13.227806"><ele>899.5714285714286</ele><time>2026-05-03T08:21:48.151Z</time></trkpt><trkpt lat="43.0583076" lon="13.227724"><ele>899.8571428571429</ele><time>2026-05-03T08:21:51.153Z</time></trkpt><trkpt lat="43.0583291" lon="13.2276173"><ele>900.1428571428571</ele><time>2026-05-03T08:21:55.152Z</time></trkpt><trkpt lat="43.0583435" lon="13.227518"><ele>900.4285714285716</ele><time>2026-05-03T08:21:59.153Z</time></trkpt><trkpt lat="43.0583358" lon="13.227423"><ele>900.7142857142858</ele><time>2026-05-03T08:22:03.152Z</time></trkpt><trkpt lat="43.0582825" lon="13.2273576"><ele>901.0</ele><time>2026-05-03T08:22:07.154Z</time></trkpt><trkpt lat="43.0582063" lon="13.2273741"><ele>900.9999999999999</ele><time>2026-05-03T08:22:11.153Z</time></trkpt><trkpt lat="43.0581679" lon="13.2274697"><ele>901.0</ele><time>2026-05-03T08:22:15.154Z</time></trkpt><trkpt lat="43.058157" lon="13.2275626"><ele>901.0</ele><time>2026-05-03T08:22:19.149Z</time></trkpt><trkpt lat="43.058142" lon="13.2276716"><ele>901.0</ele><time>2026-05-03T08:22:23.155Z</time></trkpt><trkpt lat="43.0581212" lon="13.2277651"><ele>900.9999999999999</ele><time>2026-05-03T08:22:26.152Z</time></trkpt><trkpt lat="43.0580951" lon="13.227878"><ele>901.0</ele><time>2026-05-03T08:22:29.153Z</time></trkpt><trkpt lat="43.0580646" lon="13.2279935"><ele>900.9999999999999</ele><time>2026-05-03T08:22:32.151Z</time></trkpt><trkpt lat="43.0580249" lon="13.2281031"><ele>901.0</ele><time>2026-05-03T08:22:35.154Z</time></trkpt><trkpt lat="43.0579788" lon="13.2282041"><ele>901.0</ele><time>2026-05-03T08:22:38.154Z</time></trkpt><trkpt lat="43.0579311" lon="13.2283014"><ele>901.0</ele><time>2026-05-03T08:22:41.152Z</time></trkpt><trkpt lat="43.0578756" lon="13.2283844"><ele>900.9999999999999</ele><time>2026-05-03T08:22:44.154Z</time></trkpt><trkpt lat="43.0578193" lon="13.2284432"><ele>901.0</ele><time>2026-05-03T08:22:47.15Z</time></trkpt><trkpt lat="43.0577867" lon="13.2283537"><ele>901.0</ele><time>2026-05-03T08:22:52.152Z</time></trkpt><trkpt lat="43.0578296" lon="13.228283"><ele>901.0000000000001</ele><time>2026-05-03T08:22:55.152Z</time></trkpt><trkpt lat="43.0578794" lon="13.2282162"><ele>901.0</ele><time>2026-05-03T08:22:58.153Z</time></trkpt><trkpt lat="43.057925" lon="13.2281468"><ele>901.0</ele><time>2026-05-03T08:23:01.149Z</time></trkpt><trkpt lat="43.0579659" lon="13.2280547"><ele>901.0000000000001</ele><time>2026-05-03T08:23:05.153Z</time></trkpt><trkpt lat="43.0579838" lon="13.2279597"><ele>901.0</ele><time>2026-05-03T08:23:09.154Z</time></trkpt><trkpt lat="43.0579944" lon="13.227853"><ele>901.0</ele><time>2026-05-03T08:23:13.153Z</time></trkpt><trkpt lat="43.0579845" lon="13.2277458"><ele>900.9999999999999</ele><time>2026-05-03T08:23:17.149Z</time></trkpt><trkpt lat="43.0579614" lon="13.2276418"><ele>901.0</ele><time>2026-05-03T08:23:21.153Z</time></trkpt><trkpt lat="43.0579173" lon="13.227553"><ele>901.0</ele><time>2026-05-03T08:23:25.153Z</time></trkpt><trkpt lat="43.0578557" lon="13.2274813"><ele>901.0</ele><time>2026-05-03T08:23:29.153Z</time></trkpt><trkpt lat="43.0577867" lon="13.2274267"><ele>900.9999999999999</ele><time>2026-05-03T08:23:33.151Z</time></trkpt><trkpt lat="43.0577127" lon="13.227389"><ele>901.0</ele><time>2026-05-03T08:23:37.153Z</time></trkpt><trkpt lat="43.0576384" lon="13.227365"><ele>901.0</ele><time>2026-05-03T08:23:41.149Z</time></trkpt><trkpt lat="43.057561" lon="13.227331"><ele>901.0000000000001</ele><time>2026-05-03T08:23:45.152Z</time></trkpt><trkpt lat="43.0574876" lon="13.2272999"><ele>901.0</ele><time>2026-05-03T08:23:49.153Z</time></trkpt><trkpt lat="43.0574287" lon="13.2272661"><ele>901.0</ele><time>2026-05-03T08:23:52.152Z</time></trkpt><trkpt lat="43.0573537" lon="13.2272243"><ele>901.0000000000001</ele><time>2026-05-03T08:23:56.152Z</time></trkpt><trkpt lat="43.0572893" lon="13.2271769"><ele>901.0</ele><time>2026-05-03T08:24:00.155Z</time></trkpt><trkpt lat="43.0572389" lon="13.227107"><ele>901.0</ele><time>2026-05-03T08:24:04.15Z</time></trkpt><trkpt lat="43.0571887" lon="13.2270182"><ele>904.8333333333333</ele><time>2026-05-03T08:24:09.152Z</time></trkpt><trkpt lat="43.0571572" lon="13.2269177"><ele>908.6666666666666</ele><time>2026-05-03T08:24:13.153Z</time></trkpt><trkpt lat="43.0571599" lon="13.2268106"><ele>912.5</ele><time>2026-05-03T08:24:17.149Z</time></trkpt><trkpt lat="43.0571481" lon="13.226709"><ele>916.3333333333333</ele><time>2026-05-03T08:24:21.151Z</time></trkpt><trkpt lat="43.0571436" lon="13.2266031"><ele>920.1666666666666</ele><time>2026-05-03T08:24:25.154Z</time></trkpt><trkpt lat="43.0571589" lon="13.2265086"><ele>924.0</ele><time>2026-05-03T08:24:29.154Z</time></trkpt><trkpt lat="43.0571687" lon="13.226412"><ele>924.0</ele><time>2026-05-03T08:24:33.15Z</time></trkpt><trkpt lat="43.0571975" lon="13.2263164"><ele>924.0</ele><time>2026-05-03T08:24:38.152Z</time></trkpt><trkpt lat="43.0572295" lon="13.2262288"><ele>924.0</ele><time>2026-05-03T08:24:42.15Z</time></trkpt><trkpt lat="43.0572627" lon="13.2261433"><ele>924.0</ele><time>2026-05-03T08:24:46.153Z</time></trkpt><trkpt lat="43.0572883" lon="13.226044"><ele>924.0</ele><time>2026-05-03T08:24:50.154Z</time></trkpt><trkpt lat="43.0572607" lon="13.2259539"><ele>924.0</ele><time>2026-05-03T08:24:54.153Z</time></trkpt><trkpt lat="43.0572146" lon="13.2258873"><ele>924.0</ele><time>2026-05-03T08:24:58.152Z</time></trkpt><trkpt lat="43.0571676" lon="13.2258151"><ele>924.0</ele><time>2026-05-03T08:25:02.151Z</time></trkpt><trkpt lat="43.0571097" lon="13.2257653"><ele>924.0</ele><time>2026-05-03T08:25:06.15Z</time></trkpt><trkpt lat="43.0570524" lon="13.2257127"><ele>924.0</ele><time>2026-05-03T08:25:10.152Z</time></trkpt><trkpt lat="43.0569958" lon="13.2256554"><ele>924.0</ele><time>2026-05-03T08:25:14.153Z</time></trkpt><trkpt lat="43.0569411" lon="13.2256004"><ele>924.0</ele><time>2026-05-03T08:25:18.15Z</time></trkpt><trkpt lat="43.0568772" lon="13.2255776"><ele>924.0</ele><time>2026-05-03T08:25:22.152Z</time></trkpt><trkpt lat="43.0568196" lon="13.2255291"><ele>924.0</ele><time>2026-05-03T08:25:26.152Z</time></trkpt><trkpt lat="43.0567595" lon="13.2254914"><ele>925.2857142857142</ele><time>2026-05-03T08:25:30.153Z</time></trkpt><trkpt lat="43.056698" lon="13.2254538"><ele>926.5714285714286</ele><time>2026-05-03T08:25:34.153Z</time></trkpt><trkpt lat="43.0566362" lon="13.2254211"><ele>927.8571428571429</ele><time>2026-05-03T08:25:38.152Z</time></trkpt><trkpt lat="43.0565742" lon="13.2253986"><ele>929.1428571428571</ele><time>2026-05-03T08:25:42.15Z</time></trkpt><trkpt lat="43.0565109" lon="13.225368"><ele>930.4285714285713</ele><time>2026-05-03T08:25:46.153Z</time></trkpt><trkpt lat="43.0564376" lon="13.225343"><ele>931.7142857142857</ele><time>2026-05-03T08:25:51.152Z</time></trkpt><trkpt lat="43.0563717" lon="13.2252897"><ele>933.0</ele><time>2026-05-03T08:25:56.152Z</time></trkpt><trkpt lat="43.0563175" lon="13.2252368"><ele>933.0</ele><time>2026-05-03T08:26:00.151Z</time></trkpt><trkpt lat="43.0562559" lon="13.225191"><ele>932.9999999999999</ele><time>2026-05-03T08:26:04.15Z</time></trkpt><trkpt lat="43.0561938" lon="13.2251457"><ele>933.0</ele><time>2026-05-03T08:26:08.153Z</time></trkpt><trkpt lat="43.0561307" lon="13.2251134"><ele>933.0</ele><time>2026-05-03T08:26:12.153Z</time></trkpt><trkpt lat="43.0560656" lon="13.2250869"><ele>932.9999999999999</ele><time>2026-05-03T08:26:16.153Z</time></trkpt><trkpt lat="43.055995" lon="13.2250644"><ele>933.0</ele><time>2026-05-03T08:26:20.15Z</time></trkpt><trkpt lat="43.0559272" lon="13.2250387"><ele>933.0</ele><time>2026-05-03T08:26:24.155Z</time></trkpt><trkpt lat="43.0558567" lon="13.225016"><ele>933.0</ele><time>2026-05-03T08:26:28.152Z</time></trkpt><trkpt lat="43.0557937" lon="13.2249681"><ele>932.9999999999999</ele><time>2026-05-03T08:26:32.15Z</time></trkpt><trkpt lat="43.0557201" lon="13.2249228"><ele>933.0</ele><time>2026-05-03T08:26:37.152Z</time></trkpt><trkpt lat="43.055665" lon="13.2248513"><ele>933.0</ele><time>2026-05-03T08:26:41.15Z</time></trkpt><trkpt lat="43.0556114" lon="13.2247833"><ele>932.9999999999999</ele><time>2026-05-03T08:26:45.152Z</time></trkpt><trkpt lat="43.0555623" lon="13.2247189"><ele>933.0</ele><time>2026-05-03T08:26:49.15Z</time></trkpt><trkpt lat="43.0555124" lon="13.2246531"><ele>933.0</ele><time>2026-05-03T08:26:53.151Z</time></trkpt><trkpt lat="43.0554622" lon="13.2245804"><ele>935.0</ele><time>2026-05-03T08:26:57.152Z</time></trkpt><trkpt lat="43.0554063" lon="13.2245324"><ele>936.9999999999999</ele><time>2026-05-03T08:27:01.151Z</time></trkpt><trkpt lat="43.0553413" lon="13.2245025"><ele>939.0</ele><time>2026-05-03T08:27:05.151Z</time></trkpt><trkpt lat="43.0552752" lon="13.2244645"><ele>941.0</ele><time>2026-05-03T08:27:09.151Z</time></trkpt><trkpt lat="43.0552132" lon="13.2244376"><ele>942.9999999999999</ele><time>2026-05-03T08:27:13.151Z</time></trkpt><trkpt lat="43.0551528" lon="13.2244099"><ele>945.0</ele><time>2026-05-03T08:27:17.15Z</time></trkpt><trkpt lat="43.0550875" lon="13.2243974"><ele>947.0</ele><time>2026-05-03T08:27:21.152Z</time></trkpt><trkpt lat="43.0550218" lon="13.2243862"><ele>947.0</ele><time>2026-05-03T08:27:25.153Z</time></trkpt><trkpt lat="43.0549562" lon="13.2243722"><ele>946.9999999999999</ele><time>2026-05-03T08:27:29.151Z</time></trkpt><trkpt lat="43.0548896" lon="13.2243495"><ele>947.0</ele><time>2026-05-03T08:27:33.145Z</time></trkpt><trkpt lat="43.0548271" lon="13.2243251"><ele>947.0</ele><time>2026-05-03T08:27:37.197Z</time></trkpt><trkpt lat="43.0547655" lon="13.2242883"><ele>946.9999999999999</ele><time>2026-05-03T08:27:41.198Z</time></trkpt><trkpt lat="43.0547182" lon="13.2242085"><ele>947.0</ele><time>2026-05-03T08:27:46.197Z</time></trkpt><trkpt lat="43.0546986" lon="13.2241186"><ele>947.0</ele><time>2026-05-03T08:27:49.153Z</time></trkpt><trkpt lat="43.0547116" lon="13.2240117"><ele>950.0000000000001</ele><time>2026-05-03T08:27:53.152Z</time></trkpt><trkpt lat="43.0547591" lon="13.2239237"><ele>953.0</ele><time>2026-05-03T08:27:57.161Z</time></trkpt><trkpt lat="43.0547989" lon="13.2238442"><ele>956.0</ele><time>2026-05-03T08:28:01.151Z</time></trkpt><trkpt lat="43.0548433" lon="13.2237564"><ele>959.0</ele><time>2026-05-03T08:28:05.153Z</time></trkpt><trkpt lat="43.0549044" lon="13.2236974"><ele>962.0000000000001</ele><time>2026-05-03T08:28:08.154Z</time></trkpt><trkpt lat="43.0549561" lon="13.2236303"><ele>965.0</ele><time>2026-05-03T08:28:11.152Z</time></trkpt><trkpt lat="43.0550122" lon="13.2235592"><ele>965.0</ele><time>2026-05-03T08:28:15.153Z</time></trkpt><trkpt lat="43.0550641" lon="13.2235029"><ele>965.0</ele><time>2026-05-03T08:28:18.15Z</time></trkpt><trkpt lat="43.0551277" lon="13.22344"><ele>965.0</ele><time>2026-05-03T08:28:22.153Z</time></trkpt><trkpt lat="43.0552029" lon="13.2234129"><ele>965.0</ele><time>2026-05-03T08:28:26.153Z</time></trkpt><trkpt lat="43.0552794" lon="13.2233946"><ele>965.0</ele><time>2026-05-03T08:28:30.155Z</time></trkpt><trkpt lat="43.0553427" lon="13.2233763"><ele>965.0</ele><time>2026-05-03T08:28:34.15Z</time></trkpt><trkpt lat="43.0554092" lon="13.2233428"><ele>965.0</ele><time>2026-05-03T08:28:38.153Z</time></trkpt><trkpt lat="43.055477" lon="13.2232906"><ele>965.0000000000001</ele><time>2026-05-03T08:28:42.151Z</time></trkpt><trkpt lat="43.0555353" lon="13.2232295"><ele>965.0</ele><time>2026-05-03T08:28:46.151Z</time></trkpt><trkpt lat="43.0556039" lon="13.2231722"><ele>965.0</ele><time>2026-05-03T08:28:50.151Z</time></trkpt><trkpt lat="43.0556661" lon="13.2231179"><ele>965.0</ele><time>2026-05-03T08:28:54.155Z</time></trkpt><trkpt lat="43.0557263" lon="13.2230654"><ele>965.0000000000001</ele><time>2026-05-03T08:28:58.154Z</time></trkpt><trkpt lat="43.0557909" lon="13.2230201"><ele>965.0</ele><time>2026-05-03T08:29:02.15Z</time></trkpt><trkpt lat="43.0558661" lon="13.2229738"><ele>965.4285714285713</ele><time>2026-05-03T08:29:07.153Z</time></trkpt><trkpt lat="43.0559284" lon="13.2229249"><ele>965.8571428571429</ele><time>2026-05-03T08:29:11.153Z</time></trkpt><trkpt lat="43.0559913" lon="13.2228796"><ele>966.2857142857142</ele><time>2026-05-03T08:29:15.152Z</time></trkpt><trkpt lat="43.0560583" lon="13.2228351"><ele>966.7142857142857</ele><time>2026-05-03T08:29:19.155Z</time></trkpt><trkpt lat="43.0561241" lon="13.2227863"><ele>967.1428571428571</ele><time>2026-05-03T08:29:23.152Z</time></trkpt><trkpt lat="43.0561883" lon="13.2227426"><ele>967.5714285714286</ele><time>2026-05-03T08:29:27.153Z</time></trkpt><trkpt lat="43.0562555" lon="13.2227086"><ele>968.0</ele><time>2026-05-03T08:29:31.154Z</time></trkpt><trkpt lat="43.0563227" lon="13.2226906"><ele>968.0</ele><time>2026-05-03T08:29:35.156Z</time></trkpt><trkpt lat="43.0563923" lon="13.2226847"><ele>967.9999999999999</ele><time>2026-05-03T08:29:39.153Z</time></trkpt><trkpt lat="43.0564665" lon="13.2226566"><ele>968.0</ele><time>2026-05-03T08:29:43.153Z</time></trkpt><trkpt lat="43.0565337" lon="13.2226027"><ele>968.0</ele><time>2026-05-03T08:29:47.154Z</time></trkpt><trkpt lat="43.0565873" lon="13.2225375"><ele>967.9999999999999</ele><time>2026-05-03T08:29:51.155Z</time></trkpt><trkpt lat="43.0566232" lon="13.2224575"><ele>968.0</ele><time>2026-05-03T08:29:55.154Z</time></trkpt><trkpt lat="43.0566494" lon="13.2223689"><ele>968.0</ele><time>2026-05-03T08:29:59.154Z</time></trkpt><trkpt lat="43.0566788" lon="13.2222657"><ele>968.6666666666667</ele><time>2026-05-03T08:30:03.153Z</time></trkpt><trkpt lat="43.0567154" lon="13.2221687"><ele>969.3333333333334</ele><time>2026-05-03T08:30:07.154Z</time></trkpt><trkpt lat="43.0567441" lon="13.2220879"><ele>970.0</ele><time>2026-05-03T08:30:10.152Z</time></trkpt><trkpt lat="43.0567826" lon="13.2219897"><ele>970.6666666666667</ele><time>2026-05-03T08:30:14.153Z</time></trkpt><trkpt lat="43.0568254" lon="13.2219022"><ele>971.3333333333334</ele><time>2026-05-03T08:30:18.154Z</time></trkpt><trkpt lat="43.0568656" lon="13.2218116"><ele>972.0</ele><time>2026-05-03T08:30:22.153Z</time></trkpt><trkpt lat="43.0569082" lon="13.2217243"><ele>972.0</ele><time>2026-05-03T08:30:26.154Z</time></trkpt><trkpt lat="43.0569152" lon="13.221618"><ele>972.0</ele><time>2026-05-03T08:30:30.154Z</time></trkpt><trkpt lat="43.0568794" lon="13.2215467"><ele>972.0</ele><time>2026-05-03T08:30:33.154Z</time></trkpt><trkpt lat="43.0568268" lon="13.2214924"><ele>972.0</ele><time>2026-05-03T08:30:36.153Z</time></trkpt><trkpt lat="43.0567675" lon="13.2214559"><ele>972.0</ele><time>2026-05-03T08:30:39.154Z</time></trkpt><trkpt lat="43.0567117" lon="13.221415"><ele>972.0</ele><time>2026-05-03T08:30:42.152Z</time></trkpt><trkpt lat="43.0566403" lon="13.2213607"><ele>972.0</ele><time>2026-05-03T08:30:46.153Z</time></trkpt><trkpt lat="43.0565824" lon="13.2213157"><ele>972.5714285714286</ele><time>2026-05-03T08:30:49.154Z</time></trkpt><trkpt lat="43.0565252" lon="13.221274"><ele>973.1428571428571</ele><time>2026-05-03T08:30:52.152Z</time></trkpt><trkpt lat="43.0564582" lon="13.2212149"><ele>973.7142857142857</ele><time>2026-05-03T08:30:56.155Z</time></trkpt><trkpt lat="43.0563883" lon="13.2211618"><ele>974.2857142857142</ele><time>2026-05-03T08:31:00.153Z</time></trkpt><trkpt lat="43.0563151" lon="13.2211134"><ele>974.8571428571429</ele><time>2026-05-03T08:31:04.153Z</time></trkpt><trkpt lat="43.056256" lon="13.2210776"><ele>975.4285714285713</ele><time>2026-05-03T08:31:08.151Z</time></trkpt><trkpt lat="43.0561945" lon="13.2210516"><ele>975.9999999999999</ele><time>2026-05-03T08:31:11.153Z</time></trkpt><trkpt lat="43.0561237" lon="13.2210189"><ele>975.9999999999999</ele><time>2026-05-03T08:31:14.155Z</time></trkpt><trkpt lat="43.0560559" lon="13.2209772"><ele>976.0</ele><time>2026-05-03T08:31:17.151Z</time></trkpt><trkpt lat="43.055987" lon="13.2209397"><ele>975.9999999999999</ele><time>2026-05-03T08:31:20.155Z</time></trkpt><trkpt lat="43.0559221" lon="13.2208914"><ele>975.9999999999999</ele><time>2026-05-03T08:31:23.153Z</time></trkpt><trkpt lat="43.0558538" lon="13.2208488"><ele>976.0</ele><time>2026-05-03T08:31:26.154Z</time></trkpt><trkpt lat="43.0557932" lon="13.2208176"><ele>975.9999999999999</ele><time>2026-05-03T08:31:29.154Z</time></trkpt><trkpt lat="43.0557149" lon="13.2207746"><ele>975.9999999999999</ele><time>2026-05-03T08:31:33.15Z</time></trkpt><trkpt lat="43.0556397" lon="13.2207356"><ele>977.6666666666666</ele><time>2026-05-03T08:31:37.152Z</time></trkpt><trkpt lat="43.0555622" lon="13.2207015"><ele>979.3333333333333</ele><time>2026-05-03T08:31:41.154Z</time></trkpt><trkpt lat="43.0554808" lon="13.2206916"><ele>981.0</ele><time>2026-05-03T08:31:45.154Z</time></trkpt><trkpt lat="43.0554021" lon="13.2207002"><ele>982.6666666666667</ele><time>2026-05-03T08:31:49.154Z</time></trkpt><trkpt lat="43.0553384" lon="13.2207081"><ele>984.3333333333334</ele><time>2026-05-03T08:31:52.153Z</time></trkpt><trkpt lat="43.0552576" lon="13.2207277"><ele>986.0</ele><time>2026-05-03T08:31:56.152Z</time></trkpt><trkpt lat="43.0551756" lon="13.220737"><ele>986.0</ele><time>2026-05-03T08:32:00.154Z</time></trkpt><trkpt lat="43.0550985" lon="13.2207476"><ele>986.0</ele><time>2026-05-03T08:32:04.153Z</time></trkpt><trkpt lat="43.0550284" lon="13.2207644"><ele>986.0</ele><time>2026-05-03T08:32:08.153Z</time></trkpt><trkpt lat="43.0549559" lon="13.2207827"><ele>986.0</ele><time>2026-05-03T08:32:12.152Z</time></trkpt><trkpt lat="43.0548852" lon="13.2207977"><ele>986.0</ele><time>2026-05-03T08:32:16.151Z</time></trkpt><trkpt lat="43.0548169" lon="13.2208137"><ele>986.0</ele><time>2026-05-03T08:32:20.153Z</time></trkpt><trkpt lat="43.0547415" lon="13.2208459"><ele>986.0</ele><time>2026-05-03T08:32:25.152Z</time></trkpt><trkpt lat="43.0546805" lon="13.2209022"><ele>990.8571428571429</ele><time>2026-05-03T08:32:29.151Z</time></trkpt><trkpt lat="43.054637" lon="13.2209699"><ele>995.7142857142858</ele><time>2026-05-03T08:32:33.154Z</time></trkpt><trkpt lat="43.0546094" lon="13.221052"><ele>1000.5714285714287</ele><time>2026-05-03T08:32:37.154Z</time></trkpt><trkpt lat="43.0545942" lon="13.2211449"><ele>1005.4285714285714</ele><time>2026-05-03T08:32:41.154Z</time></trkpt><trkpt lat="43.0545862" lon="13.2212444"><ele>1010.2857142857144</ele><time>2026-05-03T08:32:45.154Z</time></trkpt><trkpt lat="43.0545773" lon="13.2213337"><ele>1015.1428571428572</ele><time>2026-05-03T08:32:49.152Z</time></trkpt><trkpt lat="43.0545698" lon="13.2214333"><ele>1020.0</ele><time>2026-05-03T08:32:54.158Z</time></trkpt><trkpt lat="43.0545639" lon="13.2215272"><ele>1020.0</ele><time>2026-05-03T08:32:58.158Z</time></trkpt><trkpt lat="43.0545653" lon="13.2216147"><ele>1020.0000000000001</ele><time>2026-05-03T08:33:01.153Z</time></trkpt><trkpt lat="43.054575" lon="13.2217112"><ele>1020.0</ele><time>2026-05-03T08:33:05.153Z</time></trkpt><trkpt lat="43.054584" lon="13.2218064"><ele>1020.0</ele><time>2026-05-03T08:33:09.154Z</time></trkpt><trkpt lat="43.054599" lon="13.2218943"><ele>1020.0000000000001</ele><time>2026-05-03T08:33:13.154Z</time></trkpt><trkpt lat="43.0546054" lon="13.2219839"><ele>1020.0</ele><time>2026-05-03T08:33:17.153Z</time></trkpt><trkpt lat="43.0545818" lon="13.2220694"><ele>1020.0</ele><time>2026-05-03T08:33:21.154Z</time></trkpt><trkpt lat="43.0545413" lon="13.2221429"><ele>1020.0</ele><time>2026-05-03T08:33:25.152Z</time></trkpt><trkpt lat="43.0544877" lon="13.2221957"><ele>1020.0000000000001</ele><time>2026-05-03T08:33:29.153Z</time></trkpt><trkpt lat="43.0544238" lon="13.2222215"><ele>1020.0</ele><time>2026-05-03T08:33:33.152Z</time></trkpt><trkpt lat="43.0543601" lon="13.2222555"><ele>1020.0</ele><time>2026-05-03T08:33:37.154Z</time></trkpt><trkpt lat="43.0542968" lon="13.2223175"><ele>1020.0000000000001</ele><time>2026-05-03T08:33:41.154Z</time></trkpt><trkpt lat="43.0542389" lon="13.222378"><ele>1020.0</ele><time>2026-05-03T08:33:45.154Z</time></trkpt><trkpt lat="43.0541925" lon="13.2224497"><ele>1020.0</ele><time>2026-05-03T08:33:49.154Z</time></trkpt><trkpt lat="43.054152" lon="13.2225371"><ele>1024.2857142857142</ele><time>2026-05-03T08:33:54.156Z</time></trkpt><trkpt lat="43.0541192" lon="13.2226252"><ele>1028.5714285714287</ele><time>2026-05-03T08:33:59.152Z</time></trkpt><trkpt lat="43.0540979" lon="13.2227177"><ele>1032.857142857143</ele><time>2026-05-03T08:34:03.155Z</time></trkpt><trkpt lat="43.0540694" lon="13.2228021"><ele>1037.142857142857</ele><time>2026-05-03T08:34:07.154Z</time></trkpt><trkpt lat="43.0540384" lon="13.2228897"><ele>1041.4285714285716</ele><time>2026-05-03T08:34:11.154Z</time></trkpt><trkpt lat="43.0539756" lon="13.2229325"><ele>1045.7142857142858</ele><time>2026-05-03T08:34:16.15Z</time></trkpt><trkpt lat="43.0539411" lon="13.2228456"><ele>1050.0</ele><time>2026-05-03T08:34:20.152Z</time></trkpt><trkpt lat="43.0539506" lon="13.2227406"><ele>1050.0</ele><time>2026-05-03T08:34:24.154Z</time></trkpt><trkpt lat="43.0539611" lon="13.222644"><ele>1050.0</ele><time>2026-05-03T08:34:28.154Z</time></trkpt><trkpt lat="43.0539662" lon="13.2225515"><ele>1050.0</ele><time>2026-05-03T08:34:32.154Z</time></trkpt><trkpt lat="43.0539664" lon="13.2224403"><ele>1050.0</ele><time>2026-05-03T08:34:36.152Z</time></trkpt><trkpt lat="43.0539572" lon="13.2223532"><ele>1050.0</ele><time>2026-05-03T08:34:39.155Z</time></trkpt><trkpt lat="43.0539543" lon="13.2222639"><ele>1050.0</ele><time>2026-05-03T08:34:42.154Z</time></trkpt><trkpt lat="43.053974" lon="13.2221522"><ele>1050.0</ele><time>2026-05-03T08:34:46.153Z</time></trkpt><trkpt lat="43.0539923" lon="13.2220456"><ele>1049.8333333333333</ele><time>2026-05-03T08:34:50.154Z</time></trkpt><trkpt lat="43.0540119" lon="13.2219376"><ele>1049.6666666666667</ele><time>2026-05-03T08:34:54.152Z</time></trkpt><trkpt lat="43.0540314" lon="13.2218346"><ele>1049.5</ele><time>2026-05-03T08:34:58.154Z</time></trkpt><trkpt lat="43.0540471" lon="13.2217309"><ele>1049.3333333333335</ele><time>2026-05-03T08:35:02.155Z</time></trkpt><trkpt lat="43.0540615" lon="13.2216195"><ele>1049.1666666666667</ele><time>2026-05-03T08:35:06.153Z</time></trkpt><trkpt lat="43.0540667" lon="13.2215118"><ele>1049.0</ele><time>2026-05-03T08:35:10.154Z</time></trkpt><trkpt lat="43.054069" lon="13.221411"><ele>1048.857142857143</ele><time>2026-05-03T08:35:14.152Z</time></trkpt><trkpt lat="43.0540685" lon="13.2213044"><ele>1048.7142857142858</ele><time>2026-05-03T08:35:18.154Z</time></trkpt><trkpt lat="43.054055" lon="13.2211946"><ele>1048.5714285714287</ele><time>2026-05-03T08:35:22.153Z</time></trkpt><trkpt lat="43.0540283" lon="13.2210902"><ele>1048.4285714285716</ele><time>2026-05-03T08:35:26.154Z</time></trkpt><trkpt lat="43.0540127" lon="13.220996"><ele>1048.2857142857144</ele><time>2026-05-03T08:35:30.155Z</time></trkpt><trkpt lat="43.0539574" lon="13.2209506"><ele>1048.142857142857</ele><time>2026-05-03T08:35:34.155Z</time></trkpt><trkpt lat="43.0538889" lon="13.2209222"><ele>1048.0</ele><time>2026-05-03T08:35:45.156Z</time></trkpt><trkpt lat="43.0538254" lon="13.2209018"><ele>1048.0</ele><time>2026-05-03T08:36:12.153Z</time></trkpt><trkpt lat="43.0537635" lon="13.2208527"><ele>1048.0</ele><time>2026-05-03T08:36:17.15Z</time></trkpt><trkpt lat="43.0537035" lon="13.2207944"><ele>1048.0</ele><time>2026-05-03T08:36:22.154Z</time></trkpt><trkpt lat="43.0536407" lon="13.220737"><ele>1048.0</ele><time>2026-05-03T08:36:27.155Z</time></trkpt><trkpt lat="43.0535796" lon="13.2206857"><ele>1048.0</ele><time>2026-05-03T08:36:32.156Z</time></trkpt><trkpt lat="43.0535139" lon="13.2206384"><ele>1048.0</ele><time>2026-05-03T08:36:37.153Z</time></trkpt><trkpt lat="43.0534575" lon="13.2205997"><ele>1048.0</ele><time>2026-05-03T08:36:41.153Z</time></trkpt><trkpt lat="43.0533937" lon="13.2205762"><ele>1046.0</ele><time>2026-05-03T08:36:45.155Z</time></trkpt><trkpt lat="43.0533177" lon="13.220569"><ele>1044.0</ele><time>2026-05-03T08:36:50.154Z</time></trkpt><trkpt lat="43.0532486" lon="13.2206089"><ele>1042.0</ele><time>2026-05-03T08:36:55.156Z</time></trkpt><trkpt lat="43.0531895" lon="13.2206604"><ele>1040.0</ele><time>2026-05-03T08:37:00.151Z</time></trkpt><trkpt lat="43.053135" lon="13.2207351"><ele>1038.0</ele><time>2026-05-03T08:37:05.158Z</time></trkpt><trkpt lat="43.0530952" lon="13.2208057"><ele>1036.0</ele><time>2026-05-03T08:37:09.152Z</time></trkpt><trkpt lat="43.0530664" lon="13.2208943"><ele>1034.0</ele><time>2026-05-03T08:37:14.152Z</time></trkpt><trkpt lat="43.0530736" lon="13.2210015"><ele>1041.857142857143</ele><time>2026-05-03T08:37:19.152Z</time></trkpt><trkpt lat="43.0530746" lon="13.2211013"><ele>1049.7142857142858</ele><time>2026-05-03T08:37:23.154Z</time></trkpt><trkpt lat="43.0530693" lon="13.221192"><ele>1057.5714285714287</ele><time>2026-05-03T08:37:27.154Z</time></trkpt><trkpt lat="43.0530703" lon="13.2212839"><ele>1065.4285714285716</ele><time>2026-05-03T08:37:31.154Z</time></trkpt><trkpt lat="43.0530673" lon="13.2213769"><ele>1073.2857142857142</ele><time>2026-05-03T08:37:35.153Z</time></trkpt><trkpt lat="43.0530682" lon="13.2214676"><ele>1081.1428571428573</ele><time>2026-05-03T08:37:39.153Z</time></trkpt><trkpt lat="43.0530616" lon="13.221572"><ele>1089.0</ele><time>2026-05-03T08:37:44.151Z</time></trkpt><trkpt lat="43.0530605" lon="13.2216662"><ele>1089.857142857143</ele><time>2026-05-03T08:37:48.153Z</time></trkpt><trkpt lat="43.0530637" lon="13.2217559"><ele>1090.7142857142858</ele><time>2026-05-03T08:37:52.154Z</time></trkpt><trkpt lat="43.0530666" lon="13.2218514"><ele>1091.5714285714284</ele><time>2026-05-03T08:37:56.153Z</time></trkpt><trkpt lat="43.0530667" lon="13.2219476"><ele>1092.4285714285716</ele><time>2026-05-03T08:38:00.152Z</time></trkpt><trkpt lat="43.0530709" lon="13.2220375"><ele>1093.2857142857142</ele><time>2026-05-03T08:38:04.154Z</time></trkpt><trkpt lat="43.0530655" lon="13.2221271"><ele>1094.142857142857</ele><time>2026-05-03T08:38:08.155Z</time></trkpt><trkpt lat="43.0530592" lon="13.2222304"><ele>1095.0</ele><time>2026-05-03T08:38:12.154Z</time></trkpt><trkpt lat="43.0530633" lon="13.222323"><ele>1095.2857142857142</ele><time>2026-05-03T08:38:16.152Z</time></trkpt><trkpt lat="43.0530596" lon="13.2224171"><ele>1095.5714285714284</ele><time>2026-05-03T08:38:20.151Z</time></trkpt><trkpt lat="43.0530497" lon="13.2225226"><ele>1095.857142857143</ele><time>2026-05-03T08:38:24.154Z</time></trkpt><trkpt lat="43.0530305" lon="13.2226256"><ele>1096.142857142857</ele><time>2026-05-03T08:38:28.154Z</time></trkpt><trkpt lat="43.0530071" lon="13.2227222"><ele>1096.4285714285716</ele><time>2026-05-03T08:38:32.158Z</time></trkpt><trkpt lat="43.0529971" lon="13.2228093"><ele>1096.7142857142858</ele><time>2026-05-03T08:38:36.152Z</time></trkpt><trkpt lat="43.0529843" lon="13.2229153"><ele>1097.0</ele><time>2026-05-03T08:38:40.155Z</time></trkpt><trkpt lat="43.0529558" lon="13.22302"><ele>1097.0</ele><time>2026-05-03T08:38:44.154Z</time></trkpt><trkpt lat="43.0529264" lon="13.2230995"><ele>1097.0</ele><time>2026-05-03T08:38:47.153Z</time></trkpt><trkpt lat="43.052882" lon="13.2231921"><ele>1097.0</ele><time>2026-05-03T08:38:51.154Z</time></trkpt><trkpt lat="43.0528454" lon="13.2232718"><ele>1097.0</ele><time>2026-05-03T08:38:54.155Z</time></trkpt><trkpt lat="43.0527958" lon="13.2233713"><ele>1097.0</ele><time>2026-05-03T08:38:57.151Z</time></trkpt><trkpt lat="43.0527555" lon="13.2234521"><ele>1097.0</ele><time>2026-05-03T08:39:00.153Z</time></trkpt><trkpt lat="43.0527509" lon="13.223541"><ele>1097.0</ele><time>2026-05-03T08:39:03.155Z</time></trkpt><trkpt lat="43.0527118" lon="13.2236281"><ele>1097.4285714285716</ele><time>2026-05-03T08:39:07.153Z</time></trkpt><trkpt lat="43.052676" lon="13.2237155"><ele>1097.857142857143</ele><time>2026-05-03T08:39:10.155Z</time></trkpt><trkpt lat="43.052669" lon="13.2238039"><ele>1098.2857142857142</ele><time>2026-05-03T08:39:13.154Z</time></trkpt><trkpt lat="43.0526888" lon="13.2238954"><ele>1098.7142857142858</ele><time>2026-05-03T08:39:16.151Z</time></trkpt><trkpt lat="43.0527192" lon="13.2239888"><ele>1099.142857142857</ele><time>2026-05-03T08:39:19.155Z</time></trkpt><trkpt lat="43.0527567" lon="13.2240719"><ele>1099.5714285714287</ele><time>2026-05-03T08:39:22.154Z</time></trkpt><trkpt lat="43.0528014" lon="13.2241646"><ele>1100.0</ele><time>2026-05-03T08:39:25.154Z</time></trkpt><trkpt lat="43.0528405" lon="13.2242455"><ele>1101.1666666666667</ele><time>2026-05-03T08:39:28.154Z</time></trkpt><trkpt lat="43.0528713" lon="13.2243385"><ele>1102.3333333333335</ele><time>2026-05-03T08:39:31.151Z</time></trkpt><trkpt lat="43.0528978" lon="13.224433"><ele>1103.5</ele><time>2026-05-03T08:39:34.153Z</time></trkpt><trkpt lat="43.052934" lon="13.2245245"><ele>1104.6666666666667</ele><time>2026-05-03T08:39:37.153Z</time></trkpt><trkpt lat="43.0529679" lon="13.2246198"><ele>1105.8333333333333</ele><time>2026-05-03T08:39:40.154Z</time></trkpt><trkpt lat="43.052993" lon="13.2247187"><ele>1107.0</ele><time>2026-05-03T08:39:43.154Z</time></trkpt><trkpt lat="43.0530099" lon="13.224814"><ele>1108.6666666666667</ele><time>2026-05-03T08:39:46.155Z</time></trkpt><trkpt lat="43.053027" lon="13.2248973"><ele>1110.3333333333333</ele><time>2026-05-03T08:39:49.197Z</time></trkpt><trkpt lat="43.0530542" lon="13.225008"><ele>1112.0</ele><time>2026-05-03T08:39:53.106Z</time></trkpt><trkpt lat="43.0530758" lon="13.2250991"><ele>1113.6666666666665</ele><time>2026-05-03T08:39:56.074Z</time></trkpt><trkpt lat="43.053097" lon="13.2251976"><ele>1115.3333333333333</ele><time>2026-05-03T08:39:59.217Z</time></trkpt><trkpt lat="43.0531141" lon="13.2253118"><ele>1117.0</ele><time>2026-05-03T08:40:02.15Z</time></trkpt><trkpt lat="43.053138" lon="13.2254046"><ele>1117.0000000000002</ele><time>2026-05-03T08:40:05.152Z</time></trkpt><trkpt lat="43.0531585" lon="13.2254958"><ele>1117.0</ele><time>2026-05-03T08:40:08.155Z</time></trkpt><trkpt lat="43.0531834" lon="13.2255947"><ele>1117.0</ele><time>2026-05-03T08:40:11.154Z</time></trkpt><trkpt lat="43.0532051" lon="13.2256903"><ele>1117.0</ele><time>2026-05-03T08:40:14.154Z</time></trkpt><trkpt lat="43.0532247" lon="13.2257891"><ele>1117.0</ele><time>2026-05-03T08:40:17.154Z</time></trkpt><trkpt lat="43.0532406" lon="13.2258855"><ele>1117.0000000000002</ele><time>2026-05-03T08:40:20.152Z</time></trkpt><trkpt lat="43.0532489" lon="13.2259947"><ele>1117.0</ele><time>2026-05-03T08:40:24.154Z</time></trkpt><trkpt lat="43.0532663" lon="13.226104"><ele>1117.5</ele><time>2026-05-03T08:40:28.153Z</time></trkpt><trkpt lat="43.0532798" lon="13.2262161"><ele>1118.0</ele><time>2026-05-03T08:40:32.158Z</time></trkpt><trkpt lat="43.0532804" lon="13.2263292"><ele>1118.5</ele><time>2026-05-03T08:40:36.151Z</time></trkpt><trkpt lat="43.0532837" lon="13.2264315"><ele>1119.0</ele><time>2026-05-03T08:40:40.153Z</time></trkpt><trkpt lat="43.0532853" lon="13.2265377"><ele>1119.5</ele><time>2026-05-03T08:40:44.152Z</time></trkpt><trkpt lat="43.0532821" lon="13.2266474"><ele>1120.0</ele><time>2026-05-03T08:40:48.152Z</time></trkpt><trkpt lat="43.0532697" lon="13.2267549"><ele>1120.0</ele><time>2026-05-03T08:40:52.151Z</time></trkpt><trkpt lat="43.0532518" lon="13.2268635"><ele>1120.0</ele><time>2026-05-03T08:40:56.154Z</time></trkpt><trkpt lat="43.0532376" lon="13.2269734"><ele>1120.0</ele><time>2026-05-03T08:41:00.151Z</time></trkpt><trkpt lat="43.0532259" lon="13.2270732"><ele>1120.0</ele><time>2026-05-03T08:41:04.153Z</time></trkpt><trkpt lat="43.0532031" lon="13.2271817"><ele>1120.0</ele><time>2026-05-03T08:41:08.155Z</time></trkpt><trkpt lat="43.0531796" lon="13.2272938"><ele>1120.0</ele><time>2026-05-03T08:41:12.154Z</time></trkpt><trkpt lat="43.053152" lon="13.2273947"><ele>1118.3333333333333</ele><time>2026-05-03T08:41:16.151Z</time></trkpt><trkpt lat="43.053108" lon="13.2274813"><ele>1116.6666666666665</ele><time>2026-05-03T08:41:20.154Z</time></trkpt><trkpt lat="43.0530593" lon="13.2275592"><ele>1115.0</ele><time>2026-05-03T08:41:24.152Z</time></trkpt><trkpt lat="43.0530033" lon="13.2276279"><ele>1113.3333333333333</ele><time>2026-05-03T08:41:28.153Z</time></trkpt><trkpt lat="43.0529339" lon="13.2276903"><ele>1111.6666666666667</ele><time>2026-05-03T08:41:32.153Z</time></trkpt><trkpt lat="43.0528631" lon="13.2277479"><ele>1110.0</ele><time>2026-05-03T08:41:36.15Z</time></trkpt><trkpt lat="43.0527934" lon="13.227797"><ele>1110.0000000000002</ele><time>2026-05-03T08:41:40.155Z</time></trkpt><trkpt lat="43.0527239" lon="13.2278323"><ele>1110.0</ele><time>2026-05-03T08:41:44.154Z</time></trkpt><trkpt lat="43.0526515" lon="13.2278679"><ele>1110.0</ele><time>2026-05-03T08:41:48.154Z</time></trkpt><trkpt lat="43.0525845" lon="13.2279012"><ele>1110.0</ele><time>2026-05-03T08:41:52.153Z</time></trkpt><trkpt lat="43.0525193" lon="13.2279211"><ele>1110.0</ele><time>2026-05-03T08:41:56.155Z</time></trkpt><trkpt lat="43.0524509" lon="13.2279358"><ele>1110.0000000000002</ele><time>2026-05-03T08:42:00.154Z</time></trkpt><trkpt lat="43.0523785" lon="13.2279825"><ele>1110.0</ele><time>2026-05-03T08:42:05.154Z</time></trkpt><trkpt lat="43.0523132" lon="13.2279999"><ele>1112.0000000000002</ele><time>2026-05-03T08:42:09.155Z</time></trkpt><trkpt lat="43.052249" lon="13.2280066"><ele>1114.0</ele><time>2026-05-03T08:42:13.154Z</time></trkpt><trkpt lat="43.0521903" lon="13.2280428"><ele>1116.0</ele><time>2026-05-03T08:43:16.154Z</time></trkpt><trkpt lat="43.052126" lon="13.228022"><ele>1118.0</ele><time>2026-05-03T08:48:04.157Z</time></trkpt><trkpt lat="43.0520548" lon="13.2280486"><ele>1120.0</ele><time>2026-05-03T08:48:08.154Z</time></trkpt><trkpt lat="43.0519904" lon="13.2280782"><ele>1122.0000000000002</ele><time>2026-05-03T08:48:11.155Z</time></trkpt><trkpt lat="43.0519224" lon="13.2281091"><ele>1124.0</ele><time>2026-05-03T08:48:14.154Z</time></trkpt><trkpt lat="43.0518573" lon="13.2281401"><ele>1124.5714285714287</ele><time>2026-05-03T08:48:17.154Z</time></trkpt><trkpt lat="43.0517947" lon="13.2281619"><ele>1125.142857142857</ele><time>2026-05-03T08:48:20.152Z</time></trkpt><trkpt lat="43.0517108" lon="13.2281728"><ele>1125.7142857142858</ele><time>2026-05-03T08:48:24.154Z</time></trkpt><trkpt lat="43.0516482" lon="13.2281942"><ele>1126.2857142857142</ele><time>2026-05-03T08:48:27.154Z</time></trkpt><trkpt lat="43.0515832" lon="13.2282194"><ele>1126.857142857143</ele><time>2026-05-03T08:48:30.154Z</time></trkpt><trkpt lat="43.0515191" lon="13.2282431"><ele>1127.4285714285716</ele><time>2026-05-03T08:48:33.152Z</time></trkpt><trkpt lat="43.0514524" lon="13.2282636"><ele>1128.0</ele><time>2026-05-03T08:48:36.154Z</time></trkpt><trkpt lat="43.0513718" lon="13.2282971"><ele>1128.0</ele><time>2026-05-03T08:48:40.155Z</time></trkpt><trkpt lat="43.0513094" lon="13.2283267"><ele>1128.0</ele><time>2026-05-03T08:48:43.154Z</time></trkpt><trkpt lat="43.0512478" lon="13.2283564"><ele>1128.0</ele><time>2026-05-03T08:48:46.15Z</time></trkpt><trkpt lat="43.0511868" lon="13.2283885"><ele>1128.0</ele><time>2026-05-03T08:48:49.152Z</time></trkpt><trkpt lat="43.051124" lon="13.2284168"><ele>1128.0</ele><time>2026-05-03T08:48:52.155Z</time></trkpt><trkpt lat="43.0510607" lon="13.2284454"><ele>1128.0</ele><time>2026-05-03T08:48:55.156Z</time></trkpt><trkpt lat="43.0510009" lon="13.2284793"><ele>1128.0</ele><time>2026-05-03T08:48:58.158Z</time></trkpt><trkpt lat="43.0509389" lon="13.2285141"><ele>1128.0</ele><time>2026-05-03T08:49:01.153Z</time></trkpt><trkpt lat="43.0508736" lon="13.2285477"><ele>1128.0</ele><time>2026-05-03T08:49:04.152Z</time></trkpt><trkpt lat="43.0508089" lon="13.2285818"><ele>1128.0</ele><time>2026-05-03T08:49:07.153Z</time></trkpt><trkpt lat="43.050749" lon="13.228619"><ele>1128.0</ele><time>2026-05-03T08:49:10.154Z</time></trkpt><trkpt lat="43.050688" lon="13.228657"><ele>1128.0</ele><time>2026-05-03T08:49:13.155Z</time></trkpt><trkpt lat="43.0506272" lon="13.2287"><ele>1128.0</ele><time>2026-05-03T08:49:16.152Z</time></trkpt><trkpt lat="43.0505631" lon="13.2287396"><ele>1128.0</ele><time>2026-05-03T08:49:19.154Z</time></trkpt><trkpt lat="43.0504864" lon="13.2287882"><ele>1127.5714285714287</ele><time>2026-05-03T08:49:23.152Z</time></trkpt><trkpt lat="43.0504248" lon="13.2288177"><ele>1127.142857142857</ele><time>2026-05-03T08:49:26.152Z</time></trkpt><trkpt lat="43.0503668" lon="13.2288556"><ele>1126.7142857142858</ele><time>2026-05-03T08:49:29.153Z</time></trkpt><trkpt lat="43.0503085" lon="13.2288915"><ele>1126.2857142857142</ele><time>2026-05-03T08:49:32.154Z</time></trkpt><trkpt lat="43.050257" lon="13.2289454"><ele>1125.857142857143</ele><time>2026-05-03T08:49:35.153Z</time></trkpt><trkpt lat="43.0501921" lon="13.228987"><ele>1125.4285714285716</ele><time>2026-05-03T08:49:39.155Z</time></trkpt><trkpt lat="43.0501201" lon="13.229022"><ele>1125.0</ele><time>2026-05-03T08:49:43.153Z</time></trkpt><trkpt lat="43.0500389" lon="13.2290489"><ele>1125.0</ele><time>2026-05-03T08:49:47.153Z</time></trkpt><trkpt lat="43.0499642" lon="13.2290974"><ele>1125.0</ele><time>2026-05-03T08:49:51.153Z</time></trkpt><trkpt lat="43.0498955" lon="13.2291413"><ele>1125.0</ele><time>2026-05-03T08:49:55.153Z</time></trkpt><trkpt lat="43.0498342" lon="13.229195"><ele>1125.0</ele><time>2026-05-03T08:49:59.152Z</time></trkpt><trkpt lat="43.0497701" lon="13.2292431"><ele>1125.0</ele><time>2026-05-03T08:50:03.152Z</time></trkpt><trkpt lat="43.0497057" lon="13.2292875"><ele>1125.0</ele><time>2026-05-03T08:50:07.153Z</time></trkpt><trkpt lat="43.0496375" lon="13.2293231"><ele>1125.0</ele><time>2026-05-03T08:50:11.151Z</time></trkpt><trkpt lat="43.0495672" lon="13.2293584"><ele>1127.857142857143</ele><time>2026-05-03T08:50:15.153Z</time></trkpt><trkpt lat="43.0495073" lon="13.2294015"><ele>1130.7142857142858</ele><time>2026-05-03T08:50:19.154Z</time></trkpt><trkpt lat="43.0494465" lon="13.2294584"><ele>1133.5714285714287</ele><time>2026-05-03T08:50:23.151Z</time></trkpt><trkpt lat="43.0493885" lon="13.2295154"><ele>1136.4285714285716</ele><time>2026-05-03T08:50:27.154Z</time></trkpt><trkpt lat="43.0493228" lon="13.2295531"><ele>1139.2857142857142</ele><time>2026-05-03T08:50:31.154Z</time></trkpt><trkpt lat="43.0492564" lon="13.2295767"><ele>1142.1428571428573</ele><time>2026-05-03T08:50:35.154Z</time></trkpt><trkpt lat="43.0491861" lon="13.2295647"><ele>1145.0</ele><time>2026-05-03T08:50:39.153Z</time></trkpt><trkpt lat="43.0491241" lon="13.229501"><ele>1145.0000000000002</ele><time>2026-05-03T08:50:43.153Z</time></trkpt><trkpt lat="43.049107" lon="13.2294086"><ele>1145.0</ele><time>2026-05-03T08:50:46.155Z</time></trkpt><trkpt lat="43.0491285" lon="13.2293269"><ele>1145.0</ele><time>2026-05-03T08:50:49.154Z</time></trkpt><trkpt lat="43.0491797" lon="13.2292641"><ele>1145.0</ele><time>2026-05-03T08:50:52.155Z</time></trkpt><trkpt lat="43.049237" lon="13.2292219"><ele>1145.0</ele><time>2026-05-03T08:50:55.156Z</time></trkpt><trkpt lat="43.0493097" lon="13.229169"><ele>1145.0000000000002</ele><time>2026-05-03T08:50:59.155Z</time></trkpt><trkpt lat="43.0493684" lon="13.2291229"><ele>1145.0</ele><time>2026-05-03T08:51:02.153Z</time></trkpt><trkpt lat="43.049421" lon="13.2290755"><ele>1145.0000000000002</ele><time>2026-05-03T08:51:05.153Z</time></trkpt><trkpt lat="43.0494703" lon="13.2290216"><ele>1145.0</ele><time>2026-05-03T08:51:08.152Z</time></trkpt><trkpt lat="43.0495304" lon="13.2289467"><ele>1145.0</ele><time>2026-05-03T08:51:12.152Z</time></trkpt><trkpt lat="43.0495748" lon="13.2288842"><ele>1145.0</ele><time>2026-05-03T08:51:15.154Z</time></trkpt><trkpt lat="43.0496225" lon="13.2288155"><ele>1145.0</ele><time>2026-05-03T08:51:18.155Z</time></trkpt><trkpt lat="43.0496752" lon="13.2287313"><ele>1145.0000000000002</ele><time>2026-05-03T08:51:22.152Z</time></trkpt><trkpt lat="43.0497266" lon="13.2286483"><ele>1145.0</ele><time>2026-05-03T08:51:26.151Z</time></trkpt><trkpt lat="43.0497749" lon="13.228568"><ele>1145.5714285714287</ele><time>2026-05-03T08:51:30.154Z</time></trkpt><trkpt lat="43.0498219" lon="13.228477"><ele>1146.142857142857</ele><time>2026-05-03T08:51:34.153Z</time></trkpt><trkpt lat="43.0498667" lon="13.2283933"><ele>1146.7142857142858</ele><time>2026-05-03T08:51:38.153Z</time></trkpt><trkpt lat="43.0499041" lon="13.2283236"><ele>1147.2857142857142</ele><time>2026-05-03T08:51:41.151Z</time></trkpt><trkpt lat="43.0499446" lon="13.2282552"><ele>1147.857142857143</ele><time>2026-05-03T08:51:44.154Z</time></trkpt><trkpt lat="43.0499862" lon="13.2281868"><ele>1148.4285714285716</ele><time>2026-05-03T08:51:47.154Z</time></trkpt><trkpt lat="43.0500388" lon="13.2281007"><ele>1149.0</ele><time>2026-05-03T08:51:51.153Z</time></trkpt><trkpt lat="43.0500787" lon="13.2280332"><ele>1150.857142857143</ele><time>2026-05-03T08:51:54.154Z</time></trkpt><trkpt lat="43.0501347" lon="13.2279456"><ele>1152.7142857142858</ele><time>2026-05-03T08:51:58.151Z</time></trkpt><trkpt lat="43.0501719" lon="13.2278714"><ele>1154.5714285714284</ele><time>2026-05-03T08:52:01.154Z</time></trkpt><trkpt lat="43.0502172" lon="13.2277816"><ele>1156.4285714285716</ele><time>2026-05-03T08:52:05.154Z</time></trkpt><trkpt lat="43.0502537" lon="13.227711"><ele>1158.2857142857142</ele><time>2026-05-03T08:52:08.154Z</time></trkpt><trkpt lat="43.0502919" lon="13.2276403"><ele>1160.142857142857</ele><time>2026-05-03T08:52:11.152Z</time></trkpt><trkpt lat="43.0503319" lon="13.2275728"><ele>1162.0</ele><time>2026-05-03T08:52:14.153Z</time></trkpt><trkpt lat="43.0503843" lon="13.2274823"><ele>1162.0</ele><time>2026-05-03T08:52:18.155Z</time></trkpt><trkpt lat="43.0504226" lon="13.2274088"><ele>1162.0</ele><time>2026-05-03T08:52:21.155Z</time></trkpt><trkpt lat="43.0504597" lon="13.2273372"><ele>1162.0</ele><time>2026-05-03T08:52:24.151Z</time></trkpt><trkpt lat="43.0504961" lon="13.2272647"><ele>1162.0</ele><time>2026-05-03T08:52:27.153Z</time></trkpt><trkpt lat="43.0505443" lon="13.2271715"><ele>1162.0</ele><time>2026-05-03T08:52:31.155Z</time></trkpt><trkpt lat="43.0505822" lon="13.227102"><ele>1162.0</ele><time>2026-05-03T08:52:34.156Z</time></trkpt><trkpt lat="43.0506304" lon="13.2270104"><ele>1162.0</ele><time>2026-05-03T08:52:38.153Z</time></trkpt><trkpt lat="43.0506746" lon="13.2269202"><ele>1161.8333333333333</ele><time>2026-05-03T08:52:42.151Z</time></trkpt><trkpt lat="43.0507243" lon="13.2268287"><ele>1161.6666666666665</ele><time>2026-05-03T08:52:46.153Z</time></trkpt><trkpt lat="43.0507662" lon="13.226752"><ele>1161.5</ele><time>2026-05-03T08:52:49.155Z</time></trkpt><trkpt lat="43.0508165" lon="13.2266672"><ele>1161.3333333333333</ele><time>2026-05-03T08:52:52.155Z</time></trkpt><trkpt lat="43.0508607" lon="13.2265764"><ele>1161.1666666666667</ele><time>2026-05-03T08:52:55.152Z</time></trkpt><trkpt lat="43.0509007" lon="13.2264858"><ele>1161.0</ele><time>2026-05-03T08:52:58.154Z</time></trkpt><trkpt lat="43.0509487" lon="13.2264028"><ele>1163.1666666666667</ele><time>2026-05-03T08:53:01.153Z</time></trkpt><trkpt lat="43.0509922" lon="13.2263149"><ele>1165.3333333333333</ele><time>2026-05-03T08:53:04.157Z</time></trkpt><trkpt lat="43.0510332" lon="13.2262292"><ele>1167.5</ele><time>2026-05-03T08:53:07.156Z</time></trkpt><trkpt lat="43.0510755" lon="13.2261461"><ele>1169.6666666666665</ele><time>2026-05-03T08:53:10.151Z</time></trkpt><trkpt lat="43.051121" lon="13.226064"><ele>1171.8333333333333</ele><time>2026-05-03T08:53:13.155Z</time></trkpt><trkpt lat="43.0511693" lon="13.2259758"><ele>1174.0</ele><time>2026-05-03T08:53:16.153Z</time></trkpt><trkpt lat="43.0512138" lon="13.2258873"><ele>1174.0</ele><time>2026-05-03T08:53:19.154Z</time></trkpt><trkpt lat="43.0512627" lon="13.225802"><ele>1174.0</ele><time>2026-05-03T08:53:22.15Z</time></trkpt><trkpt lat="43.0513109" lon="13.2257144"><ele>1174.0</ele><time>2026-05-03T08:53:25.151Z</time></trkpt><trkpt lat="43.0513521" lon="13.225625"><ele>1174.0</ele><time>2026-05-03T08:53:28.151Z</time></trkpt><trkpt lat="43.0513966" lon="13.2255459"><ele>1174.0</ele><time>2026-05-03T08:53:31.155Z</time></trkpt><trkpt lat="43.0514472" lon="13.2254661"><ele>1174.0</ele><time>2026-05-03T08:53:34.154Z</time></trkpt><trkpt lat="43.0514929" lon="13.2253885"><ele>1175.1666666666665</ele><time>2026-05-03T08:53:37.153Z</time></trkpt><trkpt lat="43.0515379" lon="13.2253046"><ele>1176.3333333333333</ele><time>2026-05-03T08:53:40.154Z</time></trkpt><trkpt lat="43.0515666" lon="13.2252083"><ele>1177.5</ele><time>2026-05-03T08:53:43.152Z</time></trkpt><trkpt lat="43.0515711" lon="13.2251037"><ele>1178.6666666666667</ele><time>2026-05-03T08:53:46.154Z</time></trkpt><trkpt lat="43.0515456" lon="13.2250096"><ele>1179.8333333333335</ele><time>2026-05-03T08:53:49.154Z</time></trkpt><trkpt lat="43.0514866" lon="13.2249435"><ele>1181.0</ele><time>2026-05-03T08:53:52.153Z</time></trkpt><trkpt lat="43.051412" lon="13.2249283"><ele>1181.0</ele><time>2026-05-03T08:53:55.152Z</time></trkpt><trkpt lat="43.0513412" lon="13.2249584"><ele>1181.0</ele><time>2026-05-03T08:53:58.154Z</time></trkpt><trkpt lat="43.0512782" lon="13.2249914"><ele>1181.0</ele><time>2026-05-03T08:54:01.156Z</time></trkpt><trkpt lat="43.0512196" lon="13.2250414"><ele>1181.0</ele><time>2026-05-03T08:54:04.152Z</time></trkpt><trkpt lat="43.0511666" lon="13.2250985"><ele>1181.0</ele><time>2026-05-03T08:54:07.154Z</time></trkpt><trkpt lat="43.0510955" lon="13.2251584"><ele>1181.0</ele><time>2026-05-03T08:54:11.154Z</time></trkpt><trkpt lat="43.0510275" lon="13.2252217"><ele>1181.0</ele><time>2026-05-03T08:54:15.154Z</time></trkpt><trkpt lat="43.0509621" lon="13.2252769"><ele>1181.0</ele><time>2026-05-03T08:54:19.152Z</time></trkpt><trkpt lat="43.0508915" lon="13.2253302"><ele>1181.0</ele><time>2026-05-03T08:54:23.152Z</time></trkpt><trkpt lat="43.0508198" lon="13.225385"><ele>1181.0</ele><time>2026-05-03T08:54:27.154Z</time></trkpt><trkpt lat="43.0507509" lon="13.2254459"><ele>1181.0</ele><time>2026-05-03T08:54:31.154Z</time></trkpt><trkpt lat="43.0506776" lon="13.2254995"><ele>1181.0</ele><time>2026-05-03T08:54:35.151Z</time></trkpt><trkpt lat="43.0506051" lon="13.2255497"><ele>1181.0</ele><time>2026-05-03T08:54:39.154Z</time></trkpt><trkpt lat="43.0505322" lon="13.2255961"><ele>1182.1666666666667</ele><time>2026-05-03T08:54:43.154Z</time></trkpt><trkpt lat="43.0504576" lon="13.2256424"><ele>1183.3333333333335</ele><time>2026-05-03T08:54:47.153Z</time></trkpt><trkpt lat="43.0503877" lon="13.2256893"><ele>1184.5</ele><time>2026-05-03T08:54:51.152Z</time></trkpt><trkpt lat="43.050309" lon="13.2257225"><ele>1185.6666666666667</ele><time>2026-05-03T08:54:55.154Z</time></trkpt><trkpt lat="43.0502328" lon="13.225758"><ele>1186.8333333333333</ele><time>2026-05-03T08:54:59.154Z</time></trkpt><trkpt lat="43.0501603" lon="13.2257975"><ele>1188.0</ele><time>2026-05-03T08:55:03.154Z</time></trkpt><trkpt lat="43.0500907" lon="13.2258401"><ele>1188.0</ele><time>2026-05-03T08:55:07.151Z</time></trkpt><trkpt lat="43.0500153" lon="13.225883"><ele>1188.0</ele><time>2026-05-03T08:55:11.154Z</time></trkpt><trkpt lat="43.0499467" lon="13.2259237"><ele>1188.0</ele><time>2026-05-03T08:55:15.154Z</time></trkpt><trkpt lat="43.049881" lon="13.2259612"><ele>1188.0</ele><time>2026-05-03T08:55:19.156Z</time></trkpt><trkpt lat="43.0498216" lon="13.2259954"><ele>1188.0</ele><time>2026-05-03T08:55:23.151Z</time></trkpt><trkpt lat="43.0497558" lon="13.2260383"><ele>1188.0</ele><time>2026-05-03T08:55:27.154Z</time></trkpt><trkpt lat="43.0496889" lon="13.2260763"><ele>1188.0</ele><time>2026-05-03T08:55:31.156Z</time></trkpt><trkpt lat="43.0496256" lon="13.226118"><ele>1190.0</ele><time>2026-05-03T08:55:35.155Z</time></trkpt><trkpt lat="43.0495587" lon="13.2261504"><ele>1192.0</ele><time>2026-05-03T08:55:39.151Z</time></trkpt><trkpt lat="43.0494983" lon="13.2261918"><ele>1194.0</ele><time>2026-05-03T08:55:43.154Z</time></trkpt><trkpt lat="43.0494311" lon="13.226222"><ele>1196.0</ele><time>2026-05-03T08:55:47.153Z</time></trkpt><trkpt lat="43.0493685" lon="13.2262505"><ele>1198.0</ele><time>2026-05-03T08:55:51.155Z</time></trkpt><trkpt lat="43.0492972" lon="13.2262759"><ele>1200.0</ele><time>2026-05-03T08:55:55.152Z</time></trkpt><trkpt lat="43.0492283" lon="13.2262975"><ele>1202.0</ele><time>2026-05-03T08:55:59.153Z</time></trkpt><trkpt lat="43.0491568" lon="13.2263029"><ele>1203.4285714285713</ele><time>2026-05-03T08:56:03.154Z</time></trkpt><trkpt lat="43.0490871" lon="13.2263114"><ele>1204.857142857143</ele><time>2026-05-03T08:56:07.153Z</time></trkpt><trkpt lat="43.0490166" lon="13.226336"><ele>1206.2857142857142</ele><time>2026-05-03T08:56:11.151Z</time></trkpt><trkpt lat="43.048945" lon="13.2263539"><ele>1207.7142857142858</ele><time>2026-05-03T08:56:15.154Z</time></trkpt><trkpt lat="43.0488731" lon="13.2263639"><ele>1209.142857142857</ele><time>2026-05-03T08:56:19.154Z</time></trkpt><trkpt lat="43.0488006" lon="13.2263765"><ele>1210.5714285714287</ele><time>2026-05-03T08:56:23.154Z</time></trkpt><trkpt lat="43.0487264" lon="13.2263988"><ele>1212.0</ele><time>2026-05-03T08:56:27.153Z</time></trkpt><trkpt lat="43.0486519" lon="13.2264187"><ele>1212.0</ele><time>2026-05-03T08:56:31.153Z</time></trkpt><trkpt lat="43.0485784" lon="13.2264331"><ele>1212.0</ele><time>2026-05-03T08:56:35.156Z</time></trkpt><trkpt lat="43.0485078" lon="13.2264462"><ele>1212.0</ele><time>2026-05-03T08:56:39.154Z</time></trkpt><trkpt lat="43.0484323" lon="13.2264644"><ele>1212.0</ele><time>2026-05-03T08:56:43.151Z</time></trkpt><trkpt lat="43.0483579" lon="13.2264833"><ele>1212.0</ele><time>2026-05-03T08:56:47.153Z</time></trkpt><trkpt lat="43.0482868" lon="13.2265013"><ele>1212.0</ele><time>2026-05-03T08:56:51.155Z</time></trkpt><trkpt lat="43.0482157" lon="13.2265153"><ele>1212.0</ele><time>2026-05-03T08:56:55.155Z</time></trkpt><trkpt lat="43.0481466" lon="13.2265339"><ele>1212.4285714285716</ele><time>2026-05-03T08:56:59.153Z</time></trkpt><trkpt lat="43.0480794" lon="13.2265506"><ele>1212.857142857143</ele><time>2026-05-03T08:57:03.154Z</time></trkpt><trkpt lat="43.0480073" lon="13.2265729"><ele>1213.2857142857142</ele><time>2026-05-03T08:57:07.154Z</time></trkpt><trkpt lat="43.0479374" lon="13.2265933"><ele>1213.7142857142858</ele><time>2026-05-03T08:57:11.152Z</time></trkpt><trkpt lat="43.0478689" lon="13.2266121"><ele>1214.142857142857</ele><time>2026-05-03T08:57:15.154Z</time></trkpt><trkpt lat="43.0477976" lon="13.2266247"><ele>1214.5714285714287</ele><time>2026-05-03T08:57:19.157Z</time></trkpt><trkpt lat="43.0477265" lon="13.2266369"><ele>1215.0</ele><time>2026-05-03T08:57:23.154Z</time></trkpt><trkpt lat="43.0476573" lon="13.2266533"><ele>1215.0000000000002</ele><time>2026-05-03T08:57:27.154Z</time></trkpt><trkpt lat="43.0475899" lon="13.2266596"><ele>1215.0</ele><time>2026-05-03T08:57:31.154Z</time></trkpt><trkpt lat="43.0475167" lon="13.2266547"><ele>1215.0</ele><time>2026-05-03T08:57:35.153Z</time></trkpt><trkpt lat="43.0474447" lon="13.2266484"><ele>1215.0</ele><time>2026-05-03T08:57:39.153Z</time></trkpt><trkpt lat="43.0473784" lon="13.2266452"><ele>1215.0</ele><time>2026-05-03T08:57:43.151Z</time></trkpt><trkpt lat="43.0473087" lon="13.2266407"><ele>1215.0000000000002</ele><time>2026-05-03T08:57:47.153Z</time></trkpt><trkpt lat="43.0472401" lon="13.2266411"><ele>1215.0</ele><time>2026-05-03T08:57:51.152Z</time></trkpt><trkpt lat="43.0471717" lon="13.2266389"><ele>1216.4285714285716</ele><time>2026-05-03T08:57:55.156Z</time></trkpt><trkpt lat="43.0471042" lon="13.2266368"><ele>1217.857142857143</ele><time>2026-05-03T08:57:59.153Z</time></trkpt><trkpt lat="43.0470347" lon="13.2266273"><ele>1219.2857142857142</ele><time>2026-05-03T08:58:03.156Z</time></trkpt><trkpt lat="43.0469634" lon="13.2266207"><ele>1220.7142857142858</ele><time>2026-05-03T08:58:07.154Z</time></trkpt><trkpt lat="43.0468878" lon="13.2266406"><ele>1222.142857142857</ele><time>2026-05-03T08:58:12.154Z</time></trkpt><trkpt lat="43.0468178" lon="13.2266404"><ele>1223.5714285714287</ele><time>2026-05-03T08:58:16.155Z</time></trkpt><trkpt lat="43.0467513" lon="13.2266282"><ele>1225.0</ele><time>2026-05-03T08:58:20.151Z</time></trkpt><trkpt lat="43.0466821" lon="13.2266206"><ele>1226.4285714285713</ele><time>2026-05-03T08:58:24.155Z</time></trkpt><trkpt lat="43.0466104" lon="13.2266125"><ele>1227.857142857143</ele><time>2026-05-03T08:58:28.152Z</time></trkpt><trkpt lat="43.0465417" lon="13.2266014"><ele>1229.2857142857142</ele><time>2026-05-03T08:58:32.154Z</time></trkpt><trkpt lat="43.0464679" lon="13.2265943"><ele>1230.7142857142858</ele><time>2026-05-03T08:58:36.152Z</time></trkpt><trkpt lat="43.0463989" lon="13.2265878"><ele>1232.142857142857</ele><time>2026-05-03T08:58:40.153Z</time></trkpt><trkpt lat="43.0463314" lon="13.226589"><ele>1233.5714285714284</ele><time>2026-05-03T08:58:44.154Z</time></trkpt><trkpt lat="43.0462628" lon="13.2265646"><ele>1235.0</ele><time>2026-05-03T08:58:48.156Z</time></trkpt><trkpt lat="43.0461964" lon="13.2265503"><ele>1234.9999999999998</ele><time>2026-05-03T08:58:52.151Z</time></trkpt><trkpt lat="43.0461327" lon="13.2265367"><ele>1235.0</ele><time>2026-05-03T08:58:56.154Z</time></trkpt><trkpt lat="43.046069" lon="13.2265307"><ele>1235.0</ele><time>2026-05-03T08:59:00.153Z</time></trkpt><trkpt lat="43.0459998" lon="13.226527"><ele>1235.0</ele><time>2026-05-03T08:59:04.155Z</time></trkpt><trkpt lat="43.0459315" lon="13.2265276"><ele>1235.0</ele><time>2026-05-03T08:59:08.151Z</time></trkpt><trkpt lat="43.0458622" lon="13.2265263"><ele>1234.9999999999998</ele><time>2026-05-03T08:59:12.154Z</time></trkpt><trkpt lat="43.0457947" lon="13.2265242"><ele>1235.0</ele><time>2026-05-03T08:59:16.153Z</time></trkpt><trkpt lat="43.0457258" lon="13.2265174"><ele>1235.9999999999998</ele><time>2026-05-03T08:59:20.155Z</time></trkpt><trkpt lat="43.0456517" lon="13.2265092"><ele>1237.0</ele><time>2026-05-03T08:59:24.151Z</time></trkpt><trkpt lat="43.0455796" lon="13.2264898"><ele>1238.0</ele><time>2026-05-03T08:59:28.151Z</time></trkpt><trkpt lat="43.0455077" lon="13.2264751"><ele>1239.0</ele><time>2026-05-03T08:59:32.154Z</time></trkpt><trkpt lat="43.0454364" lon="13.226469"><ele>1240.0</ele><time>2026-05-03T08:59:36.154Z</time></trkpt><trkpt lat="43.045365" lon="13.2264622"><ele>1240.9999999999998</ele><time>2026-05-03T08:59:40.151Z</time></trkpt><trkpt lat="43.0452992" lon="13.2264607"><ele>1242.0</ele><time>2026-05-03T08:59:44.156Z</time></trkpt><trkpt lat="43.0452246" lon="13.2264555"><ele>1243.2857142857142</ele><time>2026-05-03T08:59:49.155Z</time></trkpt><trkpt lat="43.0451473" lon="13.2264476"><ele>1244.5714285714284</ele><time>2026-05-03T08:59:54.151Z</time></trkpt><trkpt lat="43.0450844" lon="13.2264335"><ele>1245.8571428571427</ele><time>2026-05-03T08:59:58.154Z</time></trkpt><trkpt lat="43.045014" lon="13.2264149"><ele>1247.142857142857</ele><time>2026-05-03T09:00:02.154Z</time></trkpt><trkpt lat="43.0449435" lon="13.2263956"><ele>1248.4285714285716</ele><time>2026-05-03T09:00:06.153Z</time></trkpt><trkpt lat="43.0448726" lon="13.2263765"><ele>1249.7142857142856</ele><time>2026-05-03T09:00:10.151Z</time></trkpt><trkpt lat="43.0448038" lon="13.2263601"><ele>1251.0</ele><time>2026-05-03T09:00:14.153Z</time></trkpt><trkpt lat="43.044738" lon="13.2263501"><ele>1252.142857142857</ele><time>2026-05-03T09:00:18.155Z</time></trkpt><trkpt lat="43.044671" lon="13.2263381"><ele>1253.2857142857144</ele><time>2026-05-03T09:00:22.156Z</time></trkpt><trkpt lat="43.0446033" lon="13.2263157"><ele>1254.4285714285716</ele><time>2026-05-03T09:00:26.151Z</time></trkpt><trkpt lat="43.0445362" lon="13.2262839"><ele>1255.5714285714284</ele><time>2026-05-03T09:00:30.154Z</time></trkpt><trkpt lat="43.0444728" lon="13.2262531"><ele>1256.7142857142858</ele><time>2026-05-03T09:00:34.154Z</time></trkpt><trkpt lat="43.0444111" lon="13.2262129"><ele>1257.857142857143</ele><time>2026-05-03T09:00:38.154Z</time></trkpt><trkpt lat="43.0443484" lon="13.2261718"><ele>1259.0</ele><time>2026-05-03T09:00:42.153Z</time></trkpt><trkpt lat="43.0442895" lon="13.2261268"><ele>1259.0</ele><time>2026-05-03T09:00:46.154Z</time></trkpt><trkpt lat="43.0442323" lon="13.2260816"><ele>1259.0</ele><time>2026-05-03T09:00:50.155Z</time></trkpt><trkpt lat="43.0441746" lon="13.2260398"><ele>1259.0</ele><time>2026-05-03T09:00:54.155Z</time></trkpt><trkpt lat="43.0441118" lon="13.2259879"><ele>1259.0</ele><time>2026-05-03T09:00:58.152Z</time></trkpt><trkpt lat="43.0440506" lon="13.2259362"><ele>1259.0</ele><time>2026-05-03T09:01:02.153Z</time></trkpt><trkpt lat="43.0439904" lon="13.2258837"><ele>1259.0</ele><time>2026-05-03T09:01:06.153Z</time></trkpt><trkpt lat="43.0439282" lon="13.2258278"><ele>1259.0</ele><time>2026-05-03T09:01:10.156Z</time></trkpt><trkpt lat="43.0438648" lon="13.2257665"><ele>1257.857142857143</ele><time>2026-05-03T09:01:14.152Z</time></trkpt><trkpt lat="43.0437989" lon="13.2257096"><ele>1256.7142857142858</ele><time>2026-05-03T09:01:18.155Z</time></trkpt><trkpt lat="43.0437349" lon="13.2256458"><ele>1255.5714285714284</ele><time>2026-05-03T09:01:22.154Z</time></trkpt><trkpt lat="43.0436819" lon="13.225597"><ele>1254.4285714285716</ele><time>2026-05-03T09:01:25.154Z</time></trkpt><trkpt lat="43.0436293" lon="13.2255489"><ele>1253.2857142857144</ele><time>2026-05-03T09:01:28.152Z</time></trkpt><trkpt lat="43.0435663" lon="13.225487"><ele>1252.142857142857</ele><time>2026-05-03T09:01:32.152Z</time></trkpt><trkpt lat="43.0434991" lon="13.2254235"><ele>1251.0</ele><time>2026-05-03T09:01:36.153Z</time></trkpt><trkpt lat="43.0434405" lon="13.2253842"><ele>1252.0</ele><time>2026-05-03T09:01:39.157Z</time></trkpt><trkpt lat="43.043387" lon="13.2253344"><ele>1253.0</ele><time>2026-05-03T09:01:42.154Z</time></trkpt><trkpt lat="43.04332" lon="13.2252752"><ele>1254.0</ele><time>2026-05-03T09:01:46.153Z</time></trkpt><trkpt lat="43.0432541" lon="13.2252121"><ele>1255.0</ele><time>2026-05-03T09:01:50.154Z</time></trkpt><trkpt lat="43.0432027" lon="13.2251609"><ele>1256.0</ele><time>2026-05-03T09:01:53.153Z</time></trkpt><trkpt lat="43.0431522" lon="13.2251037"><ele>1257.0</ele><time>2026-05-03T09:01:56.153Z</time></trkpt><trkpt lat="43.0431034" lon="13.2250184"><ele>1258.0</ele><time>2026-05-03T09:02:00.152Z</time></trkpt><trkpt lat="43.0430476" lon="13.2249426"><ele>1258.0</ele><time>2026-05-03T09:02:03.206Z</time></trkpt><trkpt lat="43.0429701" lon="13.2248872"><ele>1258.0</ele><time>2026-05-03T09:02:06.153Z</time></trkpt><trkpt lat="43.0429251" lon="13.2248055"><ele>1258.0</ele><time>2026-05-03T09:02:09.155Z</time></trkpt><trkpt lat="43.0428802" lon="13.2247242"><ele>1258.0</ele><time>2026-05-03T09:02:12.152Z</time></trkpt><trkpt lat="43.0428318" lon="13.2246492"><ele>1258.0</ele><time>2026-05-03T09:02:15.154Z</time></trkpt><trkpt lat="43.042787" lon="13.2245668"><ele>1258.0</ele><time>2026-05-03T09:02:18.154Z</time></trkpt><trkpt lat="43.0427334" lon="13.2244834"><ele>1259.8333333333333</ele><time>2026-05-03T09:02:21.154Z</time></trkpt><trkpt lat="43.0426818" lon="13.2244004"><ele>1261.6666666666665</ele><time>2026-05-03T09:02:24.151Z</time></trkpt><trkpt lat="43.0426333" lon="13.2243219"><ele>1263.5</ele><time>2026-05-03T09:02:27.159Z</time></trkpt><trkpt lat="43.0425841" lon="13.2242417"><ele>1265.3333333333333</ele><time>2026-05-03T09:02:30.154Z</time></trkpt><trkpt lat="43.0425375" lon="13.2241628"><ele>1267.1666666666667</ele><time>2026-05-03T09:02:33.153Z</time></trkpt><trkpt lat="43.042486" lon="13.2240939"><ele>1269.0</ele><time>2026-05-03T09:02:36.153Z</time></trkpt><trkpt lat="43.0424345" lon="13.2240202"><ele>1270.857142857143</ele><time>2026-05-03T09:02:39.155Z</time></trkpt><trkpt lat="43.0423888" lon="13.223946"><ele>1272.7142857142856</ele><time>2026-05-03T09:02:42.154Z</time></trkpt><trkpt lat="43.0423406" lon="13.2238723"><ele>1274.5714285714284</ele><time>2026-05-03T09:02:45.152Z</time></trkpt><trkpt lat="43.0422933" lon="13.2237916"><ele>1276.4285714285716</ele><time>2026-05-03T09:02:48.153Z</time></trkpt><trkpt lat="43.0422449" lon="13.2237162"><ele>1278.2857142857142</ele><time>2026-05-03T09:02:51.155Z</time></trkpt><trkpt lat="43.0421945" lon="13.2236356"><ele>1280.142857142857</ele><time>2026-05-03T09:02:54.155Z</time></trkpt><trkpt lat="43.0421485" lon="13.2235506"><ele>1282.0</ele><time>2026-05-03T09:02:57.155Z</time></trkpt><trkpt lat="43.0421016" lon="13.2234759"><ele>1282.0</ele><time>2026-05-03T09:03:00.156Z</time></trkpt><trkpt lat="43.0420562" lon="13.2233957"><ele>1282.0</ele><time>2026-05-03T09:03:03.154Z</time></trkpt><trkpt lat="43.0420104" lon="13.2233197"><ele>1282.0</ele><time>2026-05-03T09:03:06.155Z</time></trkpt><trkpt lat="43.0419611" lon="13.2232405"><ele>1282.0</ele><time>2026-05-03T09:03:09.155Z</time></trkpt><trkpt lat="43.041922" lon="13.223165"><ele>1282.0</ele><time>2026-05-03T09:03:12.156Z</time></trkpt><trkpt lat="43.0418751" lon="13.2230779"><ele>1282.0</ele><time>2026-05-03T09:03:15.152Z</time></trkpt><trkpt lat="43.0418272" lon="13.2229916"><ele>1282.0</ele><time>2026-05-03T09:03:18.153Z</time></trkpt><trkpt lat="43.0417824" lon="13.2229093"><ele>1283.2857142857142</ele><time>2026-05-03T09:03:21.155Z</time></trkpt><trkpt lat="43.0417366" lon="13.2228189"><ele>1284.5714285714284</ele><time>2026-05-03T09:03:24.153Z</time></trkpt><trkpt lat="43.0416909" lon="13.2227284"><ele>1285.8571428571427</ele><time>2026-05-03T09:03:27.155Z</time></trkpt><trkpt lat="43.0416442" lon="13.2226464"><ele>1287.142857142857</ele><time>2026-05-03T09:03:30.152Z</time></trkpt><trkpt lat="43.0416001" lon="13.2225756"><ele>1288.4285714285713</ele><time>2026-05-03T09:03:33.153Z</time></trkpt><trkpt lat="43.0415618" lon="13.2224941"><ele>1289.7142857142856</ele><time>2026-05-03T09:03:36.154Z</time></trkpt><trkpt lat="43.0415197" lon="13.222413"><ele>1291.0</ele><time>2026-05-03T09:03:39.155Z</time></trkpt><trkpt lat="43.0414763" lon="13.2223248"><ele>1291.2857142857142</ele><time>2026-05-03T09:03:42.156Z</time></trkpt><trkpt lat="43.041432" lon="13.222239"><ele>1291.5714285714284</ele><time>2026-05-03T09:03:45.154Z</time></trkpt><trkpt lat="43.041391" lon="13.2221493"><ele>1291.8571428571427</ele><time>2026-05-03T09:03:48.152Z</time></trkpt><trkpt lat="43.0413561" lon="13.2220536"><ele>1292.142857142857</ele><time>2026-05-03T09:03:51.155Z</time></trkpt><trkpt lat="43.0413145" lon="13.2219752"><ele>1292.4285714285716</ele><time>2026-05-03T09:03:54.154Z</time></trkpt><trkpt lat="43.0412581" lon="13.2219137"><ele>1292.7142857142856</ele><time>2026-05-03T09:03:57.155Z</time></trkpt><trkpt lat="43.0411958" lon="13.2218736"><ele>1293.0</ele><time>2026-05-03T09:04:00.154Z</time></trkpt><trkpt lat="43.0411265" lon="13.2218426"><ele>1293.0</ele><time>2026-05-03T09:04:03.153Z</time></trkpt><trkpt lat="43.0410512" lon="13.2218317"><ele>1293.0</ele><time>2026-05-03T09:04:06.155Z</time></trkpt><trkpt lat="43.0409757" lon="13.2218343"><ele>1293.0</ele><time>2026-05-03T09:04:09.154Z</time></trkpt><trkpt lat="43.0408967" lon="13.2218524"><ele>1293.0</ele><time>2026-05-03T09:04:12.152Z</time></trkpt><trkpt lat="43.0408214" lon="13.221879"><ele>1293.0</ele><time>2026-05-03T09:04:15.156Z</time></trkpt><trkpt lat="43.0407455" lon="13.2219072"><ele>1293.0</ele><time>2026-05-03T09:04:18.154Z</time></trkpt><trkpt lat="43.040674" lon="13.2219218"><ele>1294.142857142857</ele><time>2026-05-03T09:04:21.155Z</time></trkpt><trkpt lat="43.040601" lon="13.2219132"><ele>1295.2857142857144</ele><time>2026-05-03T09:04:24.155Z</time></trkpt><trkpt lat="43.0405297" lon="13.2219061"><ele>1296.4285714285716</ele><time>2026-05-03T09:04:27.155Z</time></trkpt><trkpt lat="43.0404597" lon="13.2219174"><ele>1297.5714285714284</ele><time>2026-05-03T09:04:30.155Z</time></trkpt><trkpt lat="43.040386" lon="13.2219156"><ele>1298.7142857142858</ele><time>2026-05-03T09:04:33.156Z</time></trkpt><trkpt lat="43.0403193" lon="13.2219071"><ele>1299.857142857143</ele><time>2026-05-03T09:04:36.154Z</time></trkpt><trkpt lat="43.0402478" lon="13.2219278"><ele>1301.0</ele><time>2026-05-03T09:04:39.153Z</time></trkpt><trkpt lat="43.0401797" lon="13.2219514"><ele>1301.0</ele><time>2026-05-03T09:04:42.163Z</time></trkpt><trkpt lat="43.0401074" lon="13.2219605"><ele>1301.0</ele><time>2026-05-03T09:04:45.153Z</time></trkpt><trkpt lat="43.040031" lon="13.2219663"><ele>1301.0</ele><time>2026-05-03T09:04:48.154Z</time></trkpt><trkpt lat="43.0399577" lon="13.2219626"><ele>1301.0</ele><time>2026-05-03T09:04:51.153Z</time></trkpt><trkpt lat="43.039891" lon="13.2219648"><ele>1301.0</ele><time>2026-05-03T09:04:54.155Z</time></trkpt><trkpt lat="43.03981" lon="13.2219876"><ele>1301.0</ele><time>2026-05-03T09:04:58.152Z</time></trkpt><trkpt lat="43.0397358" lon="13.2220041"><ele>1301.0</ele><time>2026-05-03T09:05:02.154Z</time></trkpt><trkpt lat="43.0396525" lon="13.2220161"><ele>1302.4285714285713</ele><time>2026-05-03T09:05:06.154Z</time></trkpt><trkpt lat="43.0395894" lon="13.2220256"><ele>1303.857142857143</ele><time>2026-05-03T09:05:09.153Z</time></trkpt><trkpt lat="43.0395251" lon="13.2220237"><ele>1305.2857142857142</ele><time>2026-05-03T09:05:12.154Z</time></trkpt><trkpt lat="43.0394435" lon="13.2220049"><ele>1306.7142857142858</ele><time>2026-05-03T09:05:16.152Z</time></trkpt><trkpt lat="43.0393774" lon="13.2220037"><ele>1308.142857142857</ele><time>2026-05-03T09:05:19.154Z</time></trkpt><trkpt lat="43.039313" lon="13.221999"><ele>1309.5714285714287</ele><time>2026-05-03T09:05:22.157Z</time></trkpt><trkpt lat="43.0392329" lon="13.2220028"><ele>1311.0</ele><time>2026-05-03T09:05:26.156Z</time></trkpt><trkpt lat="43.0391659" lon="13.2220007"><ele>1311.7142857142858</ele><time>2026-05-03T09:05:29.154Z</time></trkpt><trkpt lat="43.0390989" lon="13.222019"><ele>1312.4285714285713</ele><time>2026-05-03T09:05:32.151Z</time></trkpt><trkpt lat="43.0390322" lon="13.2220395"><ele>1313.142857142857</ele><time>2026-05-03T09:05:35.154Z</time></trkpt><trkpt lat="43.0389647" lon="13.2220466"><ele>1313.857142857143</ele><time>2026-05-03T09:05:38.155Z</time></trkpt><trkpt lat="43.0388949" lon="13.22206"><ele>1314.5714285714284</ele><time>2026-05-03T09:05:41.155Z</time></trkpt><trkpt lat="43.038826" lon="13.2220859"><ele>1315.2857142857142</ele><time>2026-05-03T09:05:44.154Z</time></trkpt><trkpt lat="43.0387509" lon="13.2221013"><ele>1316.0</ele><time>2026-05-03T09:05:47.154Z</time></trkpt><trkpt lat="43.0386772" lon="13.2221172"><ele>1316.0</ele><time>2026-05-03T09:05:50.154Z</time></trkpt><trkpt lat="43.038606" lon="13.2221306"><ele>1316.0</ele><time>2026-05-03T09:05:53.155Z</time></trkpt><trkpt lat="43.0385291" lon="13.2221499"><ele>1316.0</ele><time>2026-05-03T09:05:56.157Z</time></trkpt><trkpt lat="43.0384531" lon="13.2221652"><ele>1316.0</ele><time>2026-05-03T09:05:59.153Z</time></trkpt><trkpt lat="43.0383665" lon="13.2221708"><ele>1316.0</ele><time>2026-05-03T09:06:02.153Z</time></trkpt><trkpt lat="43.0382734" lon="13.2221858"><ele>1316.0</ele><time>2026-05-03T09:06:05.154Z</time></trkpt><trkpt lat="43.038184" lon="13.2222138"><ele>1316.5714285714287</ele><time>2026-05-03T09:06:08.154Z</time></trkpt><trkpt lat="43.0380965" lon="13.2222334"><ele>1317.142857142857</ele><time>2026-05-03T09:06:11.154Z</time></trkpt><trkpt lat="43.0380339" lon="13.2222481"><ele>1317.7142857142858</ele><time>2026-05-03T09:06:13.152Z</time></trkpt><trkpt lat="43.0379685" lon="13.2222642"><ele>1318.2857142857142</ele><time>2026-05-03T09:06:15.154Z</time></trkpt><trkpt lat="43.0379005" lon="13.222279"><ele>1318.857142857143</ele><time>2026-05-03T09:06:17.152Z</time></trkpt><trkpt lat="43.0378294" lon="13.2222923"><ele>1319.4285714285716</ele><time>2026-05-03T09:06:19.153Z</time></trkpt><trkpt lat="43.0377577" lon="13.2223064"><ele>1320.0</ele><time>2026-05-03T09:06:21.157Z</time></trkpt><trkpt lat="43.0376772" lon="13.2223244"><ele>1320.0</ele><time>2026-05-03T09:06:23.156Z</time></trkpt><trkpt lat="43.0375947" lon="13.2223411"><ele>1320.0</ele><time>2026-05-03T09:06:25.154Z</time></trkpt><trkpt lat="43.0375116" lon="13.2223525"><ele>1320.0</ele><time>2026-05-03T09:06:27.154Z</time></trkpt><trkpt lat="43.0374275" lon="13.2223652"><ele>1320.0</ele><time>2026-05-03T09:06:29.156Z</time></trkpt><trkpt lat="43.0373451" lon="13.2223766"><ele>1320.0</ele><time>2026-05-03T09:06:31.152Z</time></trkpt><trkpt lat="43.0372602" lon="13.2223907"><ele>1320.0</ele><time>2026-05-03T09:06:33.155Z</time></trkpt><trkpt lat="43.0371773" lon="13.2224002"><ele>1320.5</ele><time>2026-05-03T09:06:35.152Z</time></trkpt><trkpt lat="43.0370941" lon="13.222433"><ele>1321.0</ele><time>2026-05-03T09:06:37.155Z</time></trkpt><trkpt lat="43.03701" lon="13.2224444"><ele>1321.5</ele><time>2026-05-03T09:06:39.154Z</time></trkpt><trkpt lat="43.0369381" lon="13.2224471"><ele>1322.0</ele><time>2026-05-03T09:06:41.155Z</time></trkpt><trkpt lat="43.0368641" lon="13.2224587"><ele>1322.5</ele><time>2026-05-03T09:06:43.155Z</time></trkpt><trkpt lat="43.0367981" lon="13.2224461"><ele>1323.0</ele><time>2026-05-03T09:06:45.155Z</time></trkpt><trkpt lat="43.0367347" lon="13.2224886"><ele>1323.0</ele><time>2026-05-03T09:11:45.154Z</time></trkpt><trkpt lat="43.0366712" lon="13.2225154"><ele>1323.0</ele><time>2026-05-03T09:11:48.154Z</time></trkpt><trkpt lat="43.036608" lon="13.2225237"><ele>1323.0</ele><time>2026-05-03T09:11:50.156Z</time></trkpt><trkpt lat="43.0365346" lon="13.2225317"><ele>1323.0</ele><time>2026-05-03T09:11:52.154Z</time></trkpt><trkpt lat="43.0364571" lon="13.2225456"><ele>1323.0</ele><time>2026-05-03T09:11:54.155Z</time></trkpt><trkpt lat="43.0363794" lon="13.2225633"><ele>1323.0</ele><time>2026-05-03T09:11:56.152Z</time></trkpt><trkpt lat="43.0363014" lon="13.2225803"><ele>1323.0</ele><time>2026-05-03T09:11:58.153Z</time></trkpt><trkpt lat="43.0362254" lon="13.2226002"><ele>1322.857142857143</ele><time>2026-05-03T09:12:00.153Z</time></trkpt><trkpt lat="43.0361523" lon="13.2226196"><ele>1322.7142857142858</ele><time>2026-05-03T09:12:02.155Z</time></trkpt><trkpt lat="43.0360741" lon="13.2226323"><ele>1322.5714285714284</ele><time>2026-05-03T09:12:04.156Z</time></trkpt><trkpt lat="43.0359953" lon="13.2226459"><ele>1322.4285714285716</ele><time>2026-05-03T09:12:06.155Z</time></trkpt><trkpt lat="43.0359217" lon="13.222663"><ele>1322.2857142857142</ele><time>2026-05-03T09:12:08.154Z</time></trkpt><trkpt lat="43.0358511" lon="13.2226727"><ele>1322.142857142857</ele><time>2026-05-03T09:12:10.157Z</time></trkpt><trkpt lat="43.0357858" lon="13.2226817"><ele>1322.0</ele><time>2026-05-03T09:12:12.153Z</time></trkpt><trkpt lat="43.0356952" lon="13.2226954"><ele>1324.3333333333335</ele><time>2026-05-03T09:12:15.155Z</time></trkpt><trkpt lat="43.0356076" lon="13.2227004"><ele>1326.6666666666667</ele><time>2026-05-03T09:12:18.155Z</time></trkpt><trkpt lat="43.0355227" lon="13.2226997"><ele>1329.0</ele><time>2026-05-03T09:12:21.152Z</time></trkpt><trkpt lat="43.0354561" lon="13.2226946"><ele>1331.3333333333333</ele><time>2026-05-03T09:12:24.154Z</time></trkpt><trkpt lat="43.0353807" lon="13.2226777"><ele>1333.6666666666665</ele><time>2026-05-03T09:12:28.155Z</time></trkpt><trkpt lat="43.0353111" lon="13.2226664"><ele>1336.0</ele><time>2026-05-03T09:12:32.156Z</time></trkpt><trkpt lat="43.0352348" lon="13.2226737"><ele>1336.0</ele><time>2026-05-03T09:12:36.155Z</time></trkpt><trkpt lat="43.0351934" lon="13.2227455"><ele>1336.0</ele><time>2026-05-03T09:12:39.155Z</time></trkpt><trkpt lat="43.0351729" lon="13.2228316"><ele>1336.0</ele><time>2026-05-03T09:12:42.155Z</time></trkpt><trkpt lat="43.0351514" lon="13.222933"><ele>1336.0</ele><time>2026-05-03T09:12:46.155Z</time></trkpt><trkpt lat="43.0350999" lon="13.2230062"><ele>1336.0</ele><time>2026-05-03T09:12:50.155Z</time></trkpt><trkpt lat="43.0350342" lon="13.2230515"><ele>1336.0</ele><time>2026-05-03T09:12:54.156Z</time></trkpt><trkpt lat="43.0349642" lon="13.2230436"><ele>1336.0</ele><time>2026-05-03T09:12:59.156Z</time></trkpt><trkpt lat="43.0348907" lon="13.2230226"><ele>1338.2857142857142</ele><time>2026-05-03T09:13:04.155Z</time></trkpt><trkpt lat="43.0348308" lon="13.222949"><ele>1340.5714285714287</ele><time>2026-05-03T09:13:08.153Z</time></trkpt><trkpt lat="43.0347736" lon="13.22288"><ele>1342.857142857143</ele><time>2026-05-03T09:13:12.154Z</time></trkpt><trkpt lat="43.0347136" lon="13.2228266"><ele>1345.142857142857</ele><time>2026-05-03T09:13:16.154Z</time></trkpt><trkpt lat="43.0346457" lon="13.2227972"><ele>1347.4285714285713</ele><time>2026-05-03T09:13:20.154Z</time></trkpt><trkpt lat="43.0345806" lon="13.2227835"><ele>1349.7142857142858</ele><time>2026-05-03T09:13:24.154Z</time></trkpt><trkpt lat="43.0345118" lon="13.2227636"><ele>1352.0</ele><time>2026-05-03T09:13:28.156Z</time></trkpt><trkpt lat="43.0344551" lon="13.2227062"><ele>1352.0</ele><time>2026-05-03T09:13:32.152Z</time></trkpt><trkpt lat="43.034401" lon="13.2226396"><ele>1352.0</ele><time>2026-05-03T09:13:35.153Z</time></trkpt><trkpt lat="43.0343478" lon="13.2225815"><ele>1352.0</ele><time>2026-05-03T09:13:38.152Z</time></trkpt><trkpt lat="43.0342903" lon="13.2225181"><ele>1352.0</ele><time>2026-05-03T09:13:42.159Z</time></trkpt><trkpt lat="43.0342344" lon="13.2224398"><ele>1352.0</ele><time>2026-05-03T09:13:46.154Z</time></trkpt><trkpt lat="43.034168" lon="13.2223775"><ele>1352.0</ele><time>2026-05-03T09:13:50.155Z</time></trkpt><trkpt lat="43.0341155" lon="13.2223297"><ele>1352.0</ele><time>2026-05-03T09:13:53.155Z</time></trkpt><trkpt lat="43.0340638" lon="13.2222795"><ele>1353.142857142857</ele><time>2026-05-03T09:13:56.153Z</time></trkpt><trkpt lat="43.0340056" lon="13.2222424"><ele>1354.2857142857142</ele><time>2026-05-03T09:13:59.154Z</time></trkpt><trkpt lat="43.033947" lon="13.2221806"><ele>1355.4285714285716</ele><time>2026-05-03T09:14:03.154Z</time></trkpt><trkpt lat="43.0338775" lon="13.2221313"><ele>1356.5714285714284</ele><time>2026-05-03T09:14:07.155Z</time></trkpt><trkpt lat="43.0338105" lon="13.2221121"><ele>1357.7142857142856</ele><time>2026-05-03T09:14:11.156Z</time></trkpt><trkpt lat="43.0337433" lon="13.222092"><ele>1358.857142857143</ele><time>2026-05-03T09:14:15.157Z</time></trkpt><trkpt lat="43.0336789" lon="13.2220746"><ele>1360.0</ele><time>2026-05-03T09:14:19.155Z</time></trkpt><trkpt lat="43.0336128" lon="13.2220549"><ele>1360.0</ele><time>2026-05-03T09:14:24.157Z</time></trkpt><trkpt lat="43.0335498" lon="13.2220078"><ele>1360.0</ele><time>2026-05-03T09:14:29.153Z</time></trkpt><trkpt lat="43.0334851" lon="13.2219564"><ele>1360.0</ele><time>2026-05-03T09:14:34.156Z</time></trkpt><trkpt lat="43.0334206" lon="13.2219401"><ele>1360.0</ele><time>2026-05-03T09:14:38.152Z</time></trkpt><trkpt lat="43.0333562" lon="13.2219645"><ele>1360.0</ele><time>2026-05-03T09:14:42.155Z</time></trkpt><trkpt lat="43.0332787" lon="13.2219775"><ele>1360.0</ele><time>2026-05-03T09:14:47.156Z</time></trkpt><trkpt lat="43.0332149" lon="13.2219844"><ele>1360.0</ele><time>2026-05-03T09:14:51.155Z</time></trkpt><trkpt lat="43.0331505" lon="13.221979"><ele>1363.0</ele><time>2026-05-03T09:14:55.155Z</time></trkpt><trkpt lat="43.0330726" lon="13.2219863"><ele>1366.0</ele><time>2026-05-03T09:15:00.155Z</time></trkpt><trkpt lat="43.0330072" lon="13.2219484"><ele>1369.0</ele><time>2026-05-03T09:15:05.156Z</time></trkpt><trkpt lat="43.0329492" lon="13.2218789"><ele>1372.0</ele><time>2026-05-03T09:15:10.154Z</time></trkpt><trkpt lat="43.0329031" lon="13.2217907"><ele>1375.0</ele><time>2026-05-03T09:15:15.155Z</time></trkpt><trkpt lat="43.0328619" lon="13.221721"><ele>1378.0</ele><time>2026-05-03T09:15:19.156Z</time></trkpt><trkpt lat="43.0328003" lon="13.2216742"><ele>1381.0</ele><time>2026-05-03T09:15:24.154Z</time></trkpt><trkpt lat="43.0327302" lon="13.2216393"><ele>1381.0</ele><time>2026-05-03T09:15:29.154Z</time></trkpt><trkpt lat="43.0326617" lon="13.2215954"><ele>1381.0</ele><time>2026-05-03T09:15:34.156Z</time></trkpt><trkpt lat="43.0325904" lon="13.2215595"><ele>1381.0</ele><time>2026-05-03T09:15:39.154Z</time></trkpt><trkpt lat="43.032518" lon="13.2215166"><ele>1381.0</ele><time>2026-05-03T09:15:44.155Z</time></trkpt><trkpt lat="43.0324589" lon="13.2214556"><ele>1381.0</ele><time>2026-05-03T09:15:49.155Z</time></trkpt><trkpt lat="43.0324106" lon="13.2213853"><ele>1381.0</ele><time>2026-05-03T09:15:54.153Z</time></trkpt><trkpt lat="43.0323613" lon="13.2213261"><ele>1381.0</ele><time>2026-05-03T09:15:58.156Z</time></trkpt><trkpt lat="43.0323086" lon="13.2212776"><ele>1382.5714285714287</ele><time>2026-05-03T09:16:02.156Z</time></trkpt><trkpt lat="43.0322417" lon="13.2212216"><ele>1384.142857142857</ele><time>2026-05-03T09:16:07.155Z</time></trkpt><trkpt lat="43.0321698" lon="13.2211735"><ele>1385.7142857142858</ele><time>2026-05-03T09:16:12.153Z</time></trkpt><trkpt lat="43.0321054" lon="13.2211407"><ele>1387.2857142857142</ele><time>2026-05-03T09:16:16.154Z</time></trkpt><trkpt lat="43.0320329" lon="13.2211195"><ele>1388.857142857143</ele><time>2026-05-03T09:16:21.155Z</time></trkpt><trkpt lat="43.0319592" lon="13.2210943"><ele>1390.4285714285713</ele><time>2026-05-03T09:16:26.155Z</time></trkpt><trkpt lat="43.0318933" lon="13.2210636"><ele>1392.0</ele><time>2026-05-03T09:16:31.155Z</time></trkpt><trkpt lat="43.031827" lon="13.2210218"><ele>1392.0</ele><time>2026-05-03T09:16:36.154Z</time></trkpt><trkpt lat="43.0317646" lon="13.2209813"><ele>1392.0</ele><time>2026-05-03T09:16:41.156Z</time></trkpt><trkpt lat="43.0316996" lon="13.2209313"><ele>1392.0</ele><time>2026-05-03T09:16:46.153Z</time></trkpt><trkpt lat="43.0316302" lon="13.2208874"><ele>1392.0</ele><time>2026-05-03T09:16:51.156Z</time></trkpt><trkpt lat="43.0315749" lon="13.2208454"><ele>1392.0</ele><time>2026-05-03T09:16:55.158Z</time></trkpt><trkpt lat="43.0315124" lon="13.2207924"><ele>1392.0</ele><time>2026-05-03T09:17:00.153Z</time></trkpt><trkpt lat="43.0314485" lon="13.2207497"><ele>1392.0</ele><time>2026-05-03T09:17:05.154Z</time></trkpt><trkpt lat="43.0313852" lon="13.2207024"><ele>1392.142857142857</ele><time>2026-05-03T09:17:10.154Z</time></trkpt><trkpt lat="43.0313134" lon="13.2206636"><ele>1392.2857142857142</ele><time>2026-05-03T09:17:15.155Z</time></trkpt><trkpt lat="43.0312474" lon="13.2206352"><ele>1392.4285714285716</ele><time>2026-05-03T09:17:20.154Z</time></trkpt><trkpt lat="43.0311802" lon="13.2206296"><ele>1392.5714285714284</ele><time>2026-05-03T09:17:25.156Z</time></trkpt><trkpt lat="43.0311171" lon="13.2205882"><ele>1392.7142857142858</ele><time>2026-05-03T09:17:30.154Z</time></trkpt><trkpt lat="43.0310557" lon="13.2205512"><ele>1392.857142857143</ele><time>2026-05-03T09:17:35.154Z</time></trkpt><trkpt lat="43.0309924" lon="13.2205247"><ele>1393.0</ele><time>2026-05-03T09:17:40.156Z</time></trkpt><trkpt lat="43.0309208" lon="13.2205003"><ele>1393.0</ele><time>2026-05-03T09:17:45.155Z</time></trkpt><trkpt lat="43.0308504" lon="13.2204735"><ele>1393.0</ele><time>2026-05-03T09:17:50.155Z</time></trkpt><trkpt lat="43.0307881" lon="13.2204467"><ele>1393.0</ele><time>2026-05-03T09:17:55.154Z</time></trkpt><trkpt lat="43.0307188" lon="13.220416"><ele>1393.0</ele><time>2026-05-03T09:18:01.154Z</time></trkpt><trkpt lat="43.0306602" lon="13.2203754"><ele>1393.0</ele><time>2026-05-03T09:18:06.155Z</time></trkpt><trkpt lat="43.0305922" lon="13.2203277"><ele>1393.0</ele><time>2026-05-03T09:18:11.155Z</time></trkpt><trkpt lat="43.0305223" lon="13.2202876"><ele>1393.0</ele><time>2026-05-03T09:18:16.153Z</time></trkpt><trkpt lat="43.0304537" lon="13.2202454"><ele>1396.142857142857</ele><time>2026-05-03T09:18:21.154Z</time></trkpt><trkpt lat="43.0303925" lon="13.2202196"><ele>1399.2857142857142</ele><time>2026-05-03T09:18:25.153Z</time></trkpt><trkpt lat="43.0303294" lon="13.2201959"><ele>1402.4285714285716</ele><time>2026-05-03T09:18:30.155Z</time></trkpt><trkpt lat="43.0302629" lon="13.2201809"><ele>1405.5714285714284</ele><time>2026-05-03T09:18:35.153Z</time></trkpt><trkpt lat="43.0301882" lon="13.2201648"><ele>1408.7142857142858</ele><time>2026-05-03T09:18:40.156Z</time></trkpt><trkpt lat="43.0301243" lon="13.2201574"><ele>1411.857142857143</ele><time>2026-05-03T09:18:44.154Z</time></trkpt><trkpt lat="43.0300494" lon="13.2201517"><ele>1415.0</ele><time>2026-05-03T09:18:50.154Z</time></trkpt><trkpt lat="43.0299812" lon="13.2201554"><ele>1417.142857142857</ele><time>2026-05-03T09:18:55.154Z</time></trkpt><trkpt lat="43.0299084" lon="13.2201644"><ele>1419.2857142857142</ele><time>2026-05-03T09:19:00.155Z</time></trkpt><trkpt lat="43.0298327" lon="13.2201759"><ele>1421.4285714285716</ele><time>2026-05-03T09:19:05.155Z</time></trkpt><trkpt lat="43.0297575" lon="13.2201838"><ele>1423.5714285714284</ele><time>2026-05-03T09:19:10.157Z</time></trkpt><trkpt lat="43.0296882" lon="13.220183"><ele>1425.7142857142856</ele><time>2026-05-03T09:19:15.156Z</time></trkpt><trkpt lat="43.029623" lon="13.2201902"><ele>1427.857142857143</ele><time>2026-05-03T09:19:20.155Z</time></trkpt><trkpt lat="43.0295529" lon="13.2202027"><ele>1430.0</ele><time>2026-05-03T09:19:25.155Z</time></trkpt><trkpt lat="43.0294869" lon="13.2202338"><ele>1430.0</ele><time>2026-05-03T09:19:30.156Z</time></trkpt><trkpt lat="43.0294168" lon="13.2202577"><ele>1430.0</ele><time>2026-05-03T09:19:35.156Z</time></trkpt><trkpt lat="43.0293451" lon="13.2202855"><ele>1430.0</ele><time>2026-05-03T09:19:40.154Z</time></trkpt><trkpt lat="43.0292781" lon="13.2203046"><ele>1430.0</ele><time>2026-05-03T09:19:45.154Z</time></trkpt><trkpt lat="43.0292111" lon="13.2203324"><ele>1430.0</ele><time>2026-05-03T09:19:50.156Z</time></trkpt><trkpt lat="43.0291451" lon="13.220335"><ele>1430.0</ele><time>2026-05-03T09:19:55.155Z</time></trkpt><trkpt lat="43.0290697" lon="13.2203442"><ele>1430.0</ele><time>2026-05-03T09:20:00.155Z</time></trkpt><trkpt lat="43.0289947" lon="13.2203499"><ele>1431.5714285714287</ele><time>2026-05-03T09:20:05.155Z</time></trkpt><trkpt lat="43.028919" lon="13.2203403"><ele>1433.142857142857</ele><time>2026-05-03T09:20:10.155Z</time></trkpt><trkpt lat="43.0288432" lon="13.2203291"><ele>1434.7142857142858</ele><time>2026-05-03T09:20:15.154Z</time></trkpt><trkpt lat="43.0287696" lon="13.2203298"><ele>1436.2857142857142</ele><time>2026-05-03T09:20:20.154Z</time></trkpt><trkpt lat="43.0286933" lon="13.2203443"><ele>1437.8571428571427</ele><time>2026-05-03T09:20:25.155Z</time></trkpt><trkpt lat="43.0286202" lon="13.2203493"><ele>1439.4285714285713</ele><time>2026-05-03T09:20:30.155Z</time></trkpt><trkpt lat="43.0285479" lon="13.2203375"><ele>1441.0</ele><time>2026-05-03T09:20:35.155Z</time></trkpt><trkpt lat="43.0284775" lon="13.2203547"><ele>1441.0</ele><time>2026-05-03T09:20:40.155Z</time></trkpt><trkpt lat="43.0284196" lon="13.2204094"><ele>1441.0</ele><time>2026-05-03T09:20:45.154Z</time></trkpt><trkpt lat="43.0283579" lon="13.2204505"><ele>1441.0</ele><time>2026-05-03T09:20:50.156Z</time></trkpt><trkpt lat="43.0282892" lon="13.2204629"><ele>1441.0</ele><time>2026-05-03T09:20:55.155Z</time></trkpt><trkpt lat="43.028219" lon="13.2204995"><ele>1441.0</ele><time>2026-05-03T09:21:00.154Z</time></trkpt><trkpt lat="43.0281614" lon="13.2205451"><ele>1441.0</ele><time>2026-05-03T09:21:04.156Z</time></trkpt><trkpt lat="43.0281024" lon="13.2205802"><ele>1441.0</ele><time>2026-05-03T09:21:08.158Z</time></trkpt><trkpt lat="43.0280392" lon="13.220641"><ele>1443.4285714285713</ele><time>2026-05-03T09:21:13.155Z</time></trkpt><trkpt lat="43.0279772" lon="13.2206701"><ele>1445.8571428571427</ele><time>2026-05-03T09:21:17.157Z</time></trkpt><trkpt lat="43.027926" lon="13.220722"><ele>1448.2857142857142</ele><time>2026-05-03T09:21:21.156Z</time></trkpt><trkpt lat="43.0278716" lon="13.2207731"><ele>1450.7142857142858</ele><time>2026-05-03T09:21:25.152Z</time></trkpt><trkpt lat="43.0277984" lon="13.2208062"><ele>1453.142857142857</ele><time>2026-05-03T09:21:30.155Z</time></trkpt><trkpt lat="43.0277414" lon="13.2208434"><ele>1455.5714285714287</ele><time>2026-05-03T09:21:34.158Z</time></trkpt><trkpt lat="43.0276826" lon="13.2208982"><ele>1458.0</ele><time>2026-05-03T09:21:38.152Z</time></trkpt><trkpt lat="43.0276182" lon="13.2209612"><ele>1458.0</ele><time>2026-05-03T09:21:43.153Z</time></trkpt><trkpt lat="43.0275678" lon="13.2210129"><ele>1458.0</ele><time>2026-05-03T09:21:47.155Z</time></trkpt><trkpt lat="43.0275073" lon="13.2210793"><ele>1458.0</ele><time>2026-05-03T09:21:52.155Z</time></trkpt><trkpt lat="43.0274536" lon="13.2211297"><ele>1458.0</ele><time>2026-05-03T09:21:56.154Z</time></trkpt><trkpt lat="43.0273974" lon="13.2211891"><ele>1458.0</ele><time>2026-05-03T09:22:01.154Z</time></trkpt><trkpt lat="43.0273444" lon="13.2212571"><ele>1458.0</ele><time>2026-05-03T09:22:06.156Z</time></trkpt><trkpt lat="43.0272915" lon="13.2213243"><ele>1458.0</ele><time>2026-05-03T09:22:11.155Z</time></trkpt><trkpt lat="43.0272399" lon="13.2213846"><ele>1457.142857142857</ele><time>2026-05-03T09:22:16.155Z</time></trkpt><trkpt lat="43.0271922" lon="13.2214489"><ele>1456.2857142857142</ele><time>2026-05-03T09:22:21.155Z</time></trkpt><trkpt lat="43.0271515" lon="13.2215242"><ele>1455.4285714285713</ele><time>2026-05-03T09:22:26.154Z</time></trkpt><trkpt lat="43.0271038" lon="13.221604"><ele>1454.5714285714284</ele><time>2026-05-03T09:22:32.154Z</time></trkpt><trkpt lat="43.0270639" lon="13.2216744"><ele>1453.7142857142858</ele><time>2026-05-03T09:22:37.152Z</time></trkpt><trkpt lat="43.0270241" lon="13.2217536"><ele>1452.8571428571427</ele><time>2026-05-03T09:22:43.155Z</time></trkpt><trkpt lat="43.0269837" lon="13.2218378"><ele>1452.0</ele><time>2026-05-03T09:22:48.156Z</time></trkpt><trkpt lat="43.0269396" lon="13.2219199"><ele>1453.7142857142856</ele><time>2026-05-03T09:22:53.153Z</time></trkpt><trkpt lat="43.0269007" lon="13.2219965"><ele>1455.4285714285713</ele><time>2026-05-03T09:22:58.155Z</time></trkpt><trkpt lat="43.0268611" lon="13.2220754"><ele>1457.142857142857</ele><time>2026-05-03T09:23:03.156Z</time></trkpt><trkpt lat="43.0268186" lon="13.2221604"><ele>1458.8571428571427</ele><time>2026-05-03T09:23:08.153Z</time></trkpt><trkpt lat="43.026774" lon="13.2222398"><ele>1460.5714285714287</ele><time>2026-05-03T09:23:13.156Z</time></trkpt><trkpt lat="43.0267334" lon="13.2223175"><ele>1462.2857142857142</ele><time>2026-05-03T09:23:17.157Z</time></trkpt><trkpt lat="43.0267005" lon="13.2223912"><ele>1464.0</ele><time>2026-05-03T09:23:21.155Z</time></trkpt><trkpt lat="43.0266644" lon="13.2224753"><ele>1466.142857142857</ele><time>2026-05-03T09:23:26.156Z</time></trkpt><trkpt lat="43.0266502" lon="13.2225753"><ele>1468.2857142857142</ele><time>2026-05-03T09:23:31.155Z</time></trkpt><trkpt lat="43.0266552" lon="13.2226621"><ele>1470.4285714285716</ele><time>2026-05-03T09:23:35.156Z</time></trkpt><trkpt lat="43.0266625" lon="13.2227592"><ele>1472.5714285714284</ele><time>2026-05-03T09:23:39.155Z</time></trkpt><trkpt lat="43.0266735" lon="13.2228581"><ele>1474.7142857142856</ele><time>2026-05-03T09:23:43.155Z</time></trkpt><trkpt lat="43.0266735" lon="13.2229583"><ele>1476.857142857143</ele><time>2026-05-03T09:23:47.155Z</time></trkpt><trkpt lat="43.0266725" lon="13.2230696"><ele>1479.0</ele><time>2026-05-03T09:23:51.155Z</time></trkpt><trkpt lat="43.0266654" lon="13.2231564"><ele>1479.6666666666667</ele><time>2026-05-03T09:23:54.154Z</time></trkpt><trkpt lat="43.0266473" lon="13.2232576"><ele>1480.3333333333333</ele><time>2026-05-03T09:23:58.156Z</time></trkpt><trkpt lat="43.026636" lon="13.2233556"><ele>1481.0</ele><time>2026-05-03T09:24:01.155Z</time></trkpt><trkpt lat="43.0266535" lon="13.2234427"><ele>1481.6666666666665</ele><time>2026-05-03T09:24:03.156Z</time></trkpt><trkpt lat="43.0266947" lon="13.223564"><ele>1482.3333333333333</ele><time>2026-05-03T09:24:05.154Z</time></trkpt><trkpt lat="43.0267448" lon="13.2236901"><ele>1483.0</ele><time>2026-05-03T09:24:07.156Z</time></trkpt><trkpt lat="43.026777" lon="13.2238183"><ele>1483.0</ele><time>2026-05-03T09:24:09.156Z</time></trkpt><trkpt lat="43.0267799" lon="13.2239462"><ele>1483.0</ele><time>2026-05-03T09:24:11.156Z</time></trkpt><trkpt lat="43.0267509" lon="13.2240655"><ele>1483.0</ele><time>2026-05-03T09:24:13.156Z</time></trkpt><trkpt lat="43.0266909" lon="13.2241246"><ele>1483.0</ele><time>2026-05-03T09:24:15.155Z</time></trkpt><trkpt lat="43.0266228" lon="13.2241615"><ele>1483.0</ele><time>2026-05-03T09:24:18.155Z</time></trkpt><trkpt lat="43.0265449" lon="13.2241908"><ele>1483.0</ele><time>2026-05-03T09:24:22.152Z</time></trkpt><trkpt lat="43.0264693" lon="13.2242002"><ele>1483.0</ele><time>2026-05-03T09:24:26.155Z</time></trkpt><trkpt lat="43.0263919" lon="13.2242123"><ele>1483.0</ele><time>2026-05-03T09:24:30.156Z</time></trkpt><trkpt lat="43.0263279" lon="13.2242129"><ele>1483.0</ele><time>2026-05-03T09:24:33.155Z</time></trkpt><trkpt lat="43.0262594" lon="13.2242316"><ele>1483.0</ele><time>2026-05-03T09:24:36.156Z</time></trkpt><trkpt lat="43.0261854" lon="13.2242568"><ele>1483.0</ele><time>2026-05-03T09:24:39.158Z</time></trkpt><trkpt lat="43.026112" lon="13.2242985"><ele>1483.0</ele><time>2026-05-03T09:24:42.155Z</time></trkpt><trkpt lat="43.0260478" lon="13.2243486"><ele>1483.0</ele><time>2026-05-03T09:24:45.155Z</time></trkpt><trkpt lat="43.0259748" lon="13.2244076"><ele>1483.0</ele><time>2026-05-03T09:24:48.155Z</time></trkpt><trkpt lat="43.0259168" lon="13.2244574"><ele>1483.0</ele><time>2026-05-03T09:24:50.156Z</time></trkpt><trkpt lat="43.0258459" lon="13.2245407"><ele>1483.0</ele><time>2026-05-03T09:24:53.157Z</time></trkpt><trkpt lat="43.025798" lon="13.2245973"><ele>1483.0</ele><time>2026-05-03T09:24:55.156Z</time></trkpt><trkpt lat="43.0257478" lon="13.2246644"><ele>1483.0</ele><time>2026-05-03T09:24:57.157Z</time></trkpt><trkpt lat="43.0256957" lon="13.2247448"><ele>1483.0</ele><time>2026-05-03T09:24:59.156Z</time></trkpt><trkpt lat="43.0256445" lon="13.2248518"><ele>1480.8000000000002</ele><time>2026-05-03T09:25:01.156Z</time></trkpt><trkpt lat="43.0255865" lon="13.2249666"><ele>1478.6</ele><time>2026-05-03T09:25:03.155Z</time></trkpt><trkpt lat="43.0255372" lon="13.2250963"><ele>1476.4</ele><time>2026-05-03T09:25:05.156Z</time></trkpt><trkpt lat="43.0254816" lon="13.2252209"><ele>1474.1999999999998</ele><time>2026-05-03T09:25:07.155Z</time></trkpt><trkpt lat="43.025418" lon="13.225351"><ele>1472.0</ele><time>2026-05-03T09:25:09.153Z</time></trkpt><trkpt lat="43.0253627" lon="13.2254693"><ele>1472.0</ele><time>2026-05-03T09:25:11.157Z</time></trkpt><trkpt lat="43.0252867" lon="13.2255716"><ele>1472.0</ele><time>2026-05-03T09:25:13.156Z</time></trkpt><trkpt lat="43.0252119" lon="13.225663"><ele>1472.0</ele><time>2026-05-03T09:25:15.156Z</time></trkpt><trkpt lat="43.0251363" lon="13.2257088"><ele>1472.0</ele><time>2026-05-03T09:25:17.157Z</time></trkpt><trkpt lat="43.0250595" lon="13.2257699"><ele>1472.0</ele><time>2026-05-03T09:25:19.155Z</time></trkpt><trkpt lat="43.024993" lon="13.2258558"><ele>1473.6666666666667</ele><time>2026-05-03T09:25:21.157Z</time></trkpt><trkpt lat="43.0249178" lon="13.2259263"><ele>1475.3333333333335</ele><time>2026-05-03T09:25:23.155Z</time></trkpt><trkpt lat="43.024846" lon="13.2259848"><ele>1477.0</ele><time>2026-05-03T09:25:25.152Z</time></trkpt><trkpt lat="43.0247762" lon="13.2260353"><ele>1478.6666666666667</ele><time>2026-05-03T09:25:27.153Z</time></trkpt><trkpt lat="43.0247066" lon="13.2260968"><ele>1480.3333333333333</ele><time>2026-05-03T09:25:29.155Z</time></trkpt><trkpt lat="43.0246346" lon="13.2261525"><ele>1482.0</ele><time>2026-05-03T09:25:31.157Z</time></trkpt><trkpt lat="43.024568" lon="13.2262056"><ele>1482.0</ele><time>2026-05-03T09:25:33.158Z</time></trkpt><trkpt lat="43.0245016" lon="13.2262567"><ele>1482.0</ele><time>2026-05-03T09:25:35.155Z</time></trkpt><trkpt lat="43.0244427" lon="13.2263112"><ele>1482.0</ele><time>2026-05-03T09:25:37.152Z</time></trkpt><trkpt lat="43.0243816" lon="13.2263688"><ele>1482.0</ele><time>2026-05-03T09:25:39.155Z</time></trkpt><trkpt lat="43.0243226" lon="13.2264153"><ele>1482.0</ele><time>2026-05-03T09:25:41.154Z</time></trkpt><trkpt lat="43.0242624" lon="13.2264575"><ele>1482.0</ele><time>2026-05-03T09:25:43.156Z</time></trkpt><trkpt lat="43.0242028" lon="13.2264932"><ele>1482.0</ele><time>2026-05-03T09:25:45.155Z</time></trkpt><trkpt lat="43.0241447" lon="13.2265324"><ele>1483.6666666666667</ele><time>2026-05-03T09:25:47.156Z</time></trkpt><trkpt lat="43.0240863" lon="13.2265692"><ele>1485.3333333333333</ele><time>2026-05-03T09:25:49.155Z</time></trkpt><trkpt lat="43.0240057" lon="13.2266171"><ele>1487.0</ele><time>2026-05-03T09:25:52.155Z</time></trkpt><trkpt lat="43.0239325" lon="13.2266649"><ele>1488.6666666666665</ele><time>2026-05-03T09:25:55.156Z</time></trkpt><trkpt lat="43.0238579" lon="13.2267151"><ele>1490.3333333333333</ele><time>2026-05-03T09:25:58.155Z</time></trkpt><trkpt lat="43.0237843" lon="13.2267655"><ele>1492.0</ele><time>2026-05-03T09:26:01.157Z</time></trkpt><trkpt lat="43.0237061" lon="13.2268148"><ele>1492.0</ele><time>2026-05-03T09:26:04.154Z</time></trkpt><trkpt lat="43.023624" lon="13.226864"><ele>1492.0</ele><time>2026-05-03T09:26:07.155Z</time></trkpt><trkpt lat="43.0235414" lon="13.2269185"><ele>1492.0</ele><time>2026-05-03T09:26:10.156Z</time></trkpt><trkpt lat="43.0234635" lon="13.2269745"><ele>1492.0</ele><time>2026-05-03T09:26:13.154Z</time></trkpt><trkpt lat="43.0234062" lon="13.2270173"><ele>1492.0</ele><time>2026-05-03T09:26:15.157Z</time></trkpt><trkpt lat="43.0233413" lon="13.2270648"><ele>1492.0</ele><time>2026-05-03T09:26:17.156Z</time></trkpt><trkpt lat="43.0232789" lon="13.2271125"><ele>1492.142857142857</ele><time>2026-05-03T09:26:19.159Z</time></trkpt><trkpt lat="43.0232148" lon="13.2271586"><ele>1492.2857142857142</ele><time>2026-05-03T09:26:21.156Z</time></trkpt><trkpt lat="43.0231536" lon="13.2272019"><ele>1492.4285714285716</ele><time>2026-05-03T09:26:23.157Z</time></trkpt><trkpt lat="43.0230921" lon="13.2272409"><ele>1492.5714285714284</ele><time>2026-05-03T09:26:25.155Z</time></trkpt><trkpt lat="43.0230318" lon="13.2272772"><ele>1492.7142857142856</ele><time>2026-05-03T09:26:27.156Z</time></trkpt><trkpt lat="43.0229709" lon="13.2273044"><ele>1492.857142857143</ele><time>2026-05-03T09:26:29.157Z</time></trkpt><trkpt lat="43.0229108" lon="13.227344"><ele>1493.0</ele><time>2026-05-03T09:26:31.156Z</time></trkpt><trkpt lat="43.0228324" lon="13.2274061"><ele>1493.8333333333335</ele><time>2026-05-03T09:26:34.156Z</time></trkpt><trkpt lat="43.0227515" lon="13.2274657"><ele>1494.6666666666667</ele><time>2026-05-03T09:26:37.154Z</time></trkpt><trkpt lat="43.0226698" lon="13.2275287"><ele>1495.5</ele><time>2026-05-03T09:26:40.157Z</time></trkpt><trkpt lat="43.0226141" lon="13.227572"><ele>1496.3333333333333</ele><time>2026-05-03T09:26:42.156Z</time></trkpt><trkpt lat="43.0225343" lon="13.2276357"><ele>1497.1666666666665</ele><time>2026-05-03T09:26:45.153Z</time></trkpt><trkpt lat="43.022454" lon="13.2276938"><ele>1498.0</ele><time>2026-05-03T09:26:48.157Z</time></trkpt><trkpt lat="43.0223819" lon="13.2277599"><ele>1498.6666666666665</ele><time>2026-05-03T09:26:51.157Z</time></trkpt><trkpt lat="43.022308" lon="13.2278278"><ele>1499.3333333333333</ele><time>2026-05-03T09:26:54.157Z</time></trkpt><trkpt lat="43.0222363" lon="13.2278893"><ele>1500.0</ele><time>2026-05-03T09:26:57.157Z</time></trkpt><trkpt lat="43.0221642" lon="13.2279548"><ele>1500.6666666666667</ele><time>2026-05-03T09:27:00.156Z</time></trkpt><trkpt lat="43.0220869" lon="13.2280123"><ele>1501.3333333333335</ele><time>2026-05-03T09:27:03.157Z</time></trkpt><trkpt lat="43.0220128" lon="13.2280662"><ele>1502.0</ele><time>2026-05-03T09:27:06.159Z</time></trkpt><trkpt lat="43.0219376" lon="13.2281101"><ele>1502.0</ele><time>2026-05-03T09:27:09.158Z</time></trkpt><trkpt lat="43.021862" lon="13.2281627"><ele>1502.0</ele><time>2026-05-03T09:27:12.155Z</time></trkpt><trkpt lat="43.0217849" lon="13.2282042"><ele>1502.0</ele><time>2026-05-03T09:27:15.155Z</time></trkpt><trkpt lat="43.0217038" lon="13.2282482"><ele>1502.0</ele><time>2026-05-03T09:27:18.156Z</time></trkpt><trkpt lat="43.0216219" lon="13.228299"><ele>1502.0</ele><time>2026-05-03T09:27:21.157Z</time></trkpt><trkpt lat="43.0215449" lon="13.2283435"><ele>1502.0</ele><time>2026-05-03T09:27:24.155Z</time></trkpt><trkpt lat="43.0214695" lon="13.2283909"><ele>1502.3333333333335</ele><time>2026-05-03T09:27:27.155Z</time></trkpt><trkpt lat="43.0214094" lon="13.2284419"><ele>1502.6666666666667</ele><time>2026-05-03T09:27:29.156Z</time></trkpt><trkpt lat="43.0213423" lon="13.2285066"><ele>1503.0</ele><time>2026-05-03T09:27:31.155Z</time></trkpt><trkpt lat="43.0212757" lon="13.2285661"><ele>1503.3333333333333</ele><time>2026-05-03T09:27:33.154Z</time></trkpt><trkpt lat="43.0212082" lon="13.228622"><ele>1503.6666666666665</ele><time>2026-05-03T09:27:35.155Z</time></trkpt><trkpt lat="43.0211414" lon="13.2286661"><ele>1504.0</ele><time>2026-05-03T09:27:37.153Z</time></trkpt><trkpt lat="43.0210774" lon="13.2287085"><ele>1504.0</ele><time>2026-05-03T09:27:39.159Z</time></trkpt><trkpt lat="43.0210145" lon="13.2287547"><ele>1504.0</ele><time>2026-05-03T09:27:41.155Z</time></trkpt><trkpt lat="43.020949" lon="13.2288019"><ele>1504.0</ele><time>2026-05-03T09:27:43.157Z</time></trkpt><trkpt lat="43.0208833" lon="13.2288498"><ele>1504.0</ele><time>2026-05-03T09:27:45.159Z</time></trkpt><trkpt lat="43.0208161" lon="13.2288976"><ele>1504.0</ele><time>2026-05-03T09:27:47.157Z</time></trkpt><trkpt lat="43.0207494" lon="13.228937"><ele>1504.0</ele><time>2026-05-03T09:27:49.157Z</time></trkpt><trkpt lat="43.0206879" lon="13.2289762"><ele>1504.0</ele><time>2026-05-03T09:27:51.157Z</time></trkpt><trkpt lat="43.0206281" lon="13.2290153"><ele>1504.5</ele><time>2026-05-03T09:27:53.157Z</time></trkpt><trkpt lat="43.0205594" lon="13.2290492"><ele>1505.0</ele><time>2026-05-03T09:27:56.155Z</time></trkpt><trkpt lat="43.0205013" lon="13.2290934"><ele>1505.5</ele><time>2026-05-03T09:29:05.155Z</time></trkpt><trkpt lat="43.0204322" lon="13.2291424"><ele>1506.0</ele><time>2026-05-03T09:29:09.153Z</time></trkpt><trkpt lat="43.0203702" lon="13.2291892"><ele>1506.5</ele><time>2026-05-03T09:29:12.159Z</time></trkpt><trkpt lat="43.0203004" lon="13.2292372"><ele>1507.0</ele><time>2026-05-03T09:29:15.155Z</time></trkpt><trkpt lat="43.020224" lon="13.2292914"><ele>1507.0</ele><time>2026-05-03T09:29:18.158Z</time></trkpt><trkpt lat="43.0201429" lon="13.2293498"><ele>1507.0</ele><time>2026-05-03T09:29:21.157Z</time></trkpt><trkpt lat="43.0200588" lon="13.2294012"><ele>1507.0</ele><time>2026-05-03T09:29:24.153Z</time></trkpt><trkpt lat="43.0199746" lon="13.2294433"><ele>1507.0</ele><time>2026-05-03T09:29:27.154Z</time></trkpt><trkpt lat="43.0198926" lon="13.2294776"><ele>1507.0</ele><time>2026-05-03T09:29:30.156Z</time></trkpt><trkpt lat="43.0198042" lon="13.2295163"><ele>1508.8333333333333</ele><time>2026-05-03T09:29:33.154Z</time></trkpt><trkpt lat="43.0197155" lon="13.2295509"><ele>1510.6666666666665</ele><time>2026-05-03T09:29:36.155Z</time></trkpt><trkpt lat="43.0196258" lon="13.2295743"><ele>1512.5</ele><time>2026-05-03T09:29:39.156Z</time></trkpt><trkpt lat="43.0195346" lon="13.2296052"><ele>1514.3333333333333</ele><time>2026-05-03T09:29:42.157Z</time></trkpt><trkpt lat="43.0194731" lon="13.2296297"><ele>1516.1666666666667</ele><time>2026-05-03T09:29:44.154Z</time></trkpt><trkpt lat="43.0193851" lon="13.2296696"><ele>1518.0</ele><time>2026-05-03T09:29:47.156Z</time></trkpt><trkpt lat="43.0192961" lon="13.2297088"><ele>1518.0</ele><time>2026-05-03T09:29:50.15Z</time></trkpt><trkpt lat="43.0192101" lon="13.2297545"><ele>1518.0</ele><time>2026-05-03T09:29:53.156Z</time></trkpt><trkpt lat="43.0191294" lon="13.2298014"><ele>1518.0</ele><time>2026-05-03T09:29:56.155Z</time></trkpt><trkpt lat="43.0190577" lon="13.2298395"><ele>1518.0</ele><time>2026-05-03T09:29:59.156Z</time></trkpt><trkpt lat="43.0189875" lon="13.2298706"><ele>1518.0</ele><time>2026-05-03T09:30:02.157Z</time></trkpt><trkpt lat="43.018915" lon="13.2299047"><ele>1518.0</ele><time>2026-05-03T09:30:05.157Z</time></trkpt><trkpt lat="43.0188423" lon="13.2299424"><ele>1518.142857142857</ele><time>2026-05-03T09:30:08.155Z</time></trkpt><trkpt lat="43.0187704" lon="13.2299754"><ele>1518.2857142857142</ele><time>2026-05-03T09:30:11.156Z</time></trkpt><trkpt lat="43.0187008" lon="13.2300102"><ele>1518.4285714285716</ele><time>2026-05-03T09:30:14.157Z</time></trkpt><trkpt lat="43.0186349" lon="13.2300358"><ele>1518.5714285714284</ele><time>2026-05-03T09:30:17.157Z</time></trkpt><trkpt lat="43.0185655" lon="13.2300719"><ele>1518.7142857142858</ele><time>2026-05-03T09:30:20.156Z</time></trkpt><trkpt lat="43.018492" lon="13.2301084"><ele>1518.857142857143</ele><time>2026-05-03T09:30:23.155Z</time></trkpt><trkpt lat="43.0184226" lon="13.2301402"><ele>1519.0</ele><time>2026-05-03T09:30:26.154Z</time></trkpt><trkpt lat="43.0183562" lon="13.2301744"><ele>1521.0</ele><time>2026-05-03T09:30:29.156Z</time></trkpt><trkpt lat="43.0182877" lon="13.2302124"><ele>1523.0</ele><time>2026-05-03T09:30:32.155Z</time></trkpt><trkpt lat="43.0182213" lon="13.2302496"><ele>1525.0</ele><time>2026-05-03T09:30:35.156Z</time></trkpt><trkpt lat="43.0181607" lon="13.2302857"><ele>1527.0</ele><time>2026-05-03T09:30:38.155Z</time></trkpt><trkpt lat="43.0180945" lon="13.2303227"><ele>1529.0</ele><time>2026-05-03T09:30:41.156Z</time></trkpt><trkpt lat="43.0180364" lon="13.2303565"><ele>1531.0</ele><time>2026-05-03T09:30:44.155Z</time></trkpt><trkpt lat="43.0179578" lon="13.2303989"><ele>1533.0</ele><time>2026-05-03T09:30:48.156Z</time></trkpt><trkpt lat="43.0178876" lon="13.2304334"><ele>1533.0</ele><time>2026-05-03T09:30:52.154Z</time></trkpt><trkpt lat="43.0178243" lon="13.2304851"><ele>1533.0</ele><time>2026-05-03T09:30:56.138Z</time></trkpt><trkpt lat="43.0177557" lon="13.2305038"><ele>1533.0</ele><time>2026-05-03T09:30:59.158Z</time></trkpt><trkpt lat="43.0176876" lon="13.2305293"><ele>1533.0</ele><time>2026-05-03T09:31:02.197Z</time></trkpt><trkpt lat="43.0176164" lon="13.2305854"><ele>1533.0</ele><time>2026-05-03T09:31:06.218Z</time></trkpt><trkpt lat="43.0175555" lon="13.2306162"><ele>1533.0</ele><time>2026-05-03T09:31:09.155Z</time></trkpt><trkpt lat="43.0174896" lon="13.230668"><ele>1533.0</ele><time>2026-05-03T09:31:13.153Z</time></trkpt><trkpt lat="43.0174234" lon="13.2307147"><ele>1533.4285714285713</ele><time>2026-05-03T09:31:17.156Z</time></trkpt><trkpt lat="43.0173533" lon="13.2307644"><ele>1533.857142857143</ele><time>2026-05-03T09:31:21.153Z</time></trkpt><trkpt lat="43.0172907" lon="13.2308091"><ele>1534.2857142857142</ele><time>2026-05-03T09:31:24.157Z</time></trkpt><trkpt lat="43.0172332" lon="13.2308569"><ele>1534.7142857142858</ele><time>2026-05-03T09:31:27.154Z</time></trkpt><trkpt lat="43.0171712" lon="13.2309042"><ele>1535.142857142857</ele><time>2026-05-03T09:31:30.152Z</time></trkpt><trkpt lat="43.0171087" lon="13.2309492"><ele>1535.5714285714284</ele><time>2026-05-03T09:31:33.156Z</time></trkpt><trkpt lat="43.0170409" lon="13.2309779"><ele>1536.0</ele><time>2026-05-03T09:31:36.154Z</time></trkpt><trkpt lat="43.0169677" lon="13.2310229"><ele>1535.9999999999998</ele><time>2026-05-03T09:31:40.155Z</time></trkpt><trkpt lat="43.0169085" lon="13.231062"><ele>1536.0</ele><time>2026-05-03T09:31:43.152Z</time></trkpt><trkpt lat="43.016851" lon="13.2310984"><ele>1536.0</ele><time>2026-05-03T09:31:46.156Z</time></trkpt><trkpt lat="43.0167934" lon="13.2311353"><ele>1536.0</ele><time>2026-05-03T09:31:49.159Z</time></trkpt><trkpt lat="43.0167332" lon="13.2311703"><ele>1536.0</ele><time>2026-05-03T09:31:52.154Z</time></trkpt><trkpt lat="43.0166755" lon="13.2312094"><ele>1535.9999999999998</ele><time>2026-05-03T09:31:55.152Z</time></trkpt><trkpt lat="43.0166172" lon="13.2312446"><ele>1536.0</ele><time>2026-05-03T09:31:58.156Z</time></trkpt><trkpt lat="43.0165403" lon="13.231296"><ele>1536.5</ele><time>2026-05-03T09:32:02.154Z</time></trkpt><trkpt lat="43.0164723" lon="13.231334"><ele>1537.0</ele><time>2026-05-03T09:32:05.156Z</time></trkpt><trkpt lat="43.0163966" lon="13.2313549"><ele>1537.5</ele><time>2026-05-03T09:32:08.154Z</time></trkpt><trkpt lat="43.0163223" lon="13.2313663"><ele>1538.0</ele><time>2026-05-03T09:32:11.153Z</time></trkpt><trkpt lat="43.016247" lon="13.2313748"><ele>1538.5</ele><time>2026-05-03T09:32:14.156Z</time></trkpt><trkpt lat="43.0161686" lon="13.2313867"><ele>1539.0</ele><time>2026-05-03T09:32:17.154Z</time></trkpt><trkpt lat="43.0160818" lon="13.2314131"><ele>1539.0</ele><time>2026-05-03T09:32:20.158Z</time></trkpt><trkpt lat="43.0160163" lon="13.231436"><ele>1539.0</ele><time>2026-05-03T09:32:22.157Z</time></trkpt><trkpt lat="43.0159365" lon="13.2314583"><ele>1539.0</ele><time>2026-05-03T09:32:24.154Z</time></trkpt><trkpt lat="43.015856" lon="13.231489"><ele>1539.0</ele><time>2026-05-03T09:32:26.154Z</time></trkpt><trkpt lat="43.0157809" lon="13.2315144"><ele>1539.0</ele><time>2026-05-03T09:32:28.157Z</time></trkpt><trkpt lat="43.0157183" lon="13.2315339"><ele>1539.0</ele><time>2026-05-03T09:32:30.154Z</time></trkpt><trkpt lat="43.0156515" lon="13.2315766"><ele>1539.0</ele><time>2026-05-03T09:32:32.154Z</time></trkpt><trkpt lat="43.015571" lon="13.2316424"><ele>1538.3333333333333</ele><time>2026-05-03T09:32:34.154Z</time></trkpt><trkpt lat="43.015477" lon="13.23171"><ele>1537.6666666666667</ele><time>2026-05-03T09:32:36.154Z</time></trkpt><trkpt lat="43.0153918" lon="13.2317663"><ele>1537.0</ele><time>2026-05-03T09:32:38.156Z</time></trkpt><trkpt lat="43.0153232" lon="13.2318284"><ele>1536.3333333333335</ele><time>2026-05-03T09:32:40.156Z</time></trkpt><trkpt lat="43.0152536" lon="13.2318797"><ele>1535.6666666666667</ele><time>2026-05-03T09:32:42.153Z</time></trkpt><trkpt lat="43.0152094" lon="13.2319587"><ele>1535.0</ele><time>2026-05-03T09:32:44.156Z</time></trkpt><trkpt lat="43.015195" lon="13.2320699"><ele>1535.0</ele><time>2026-05-03T09:32:46.156Z</time></trkpt><trkpt lat="43.0152147" lon="13.2321853"><ele>1535.0</ele><time>2026-05-03T09:32:48.155Z</time></trkpt><trkpt lat="43.0152401" lon="13.2322973"><ele>1535.0</ele><time>2026-05-03T09:32:50.153Z</time></trkpt><trkpt lat="43.0152686" lon="13.2324064"><ele>1535.0</ele><time>2026-05-03T09:32:52.153Z</time></trkpt><trkpt lat="43.0152967" lon="13.2325124"><ele>1535.0</ele><time>2026-05-03T09:32:54.157Z</time></trkpt><trkpt lat="43.0153163" lon="13.2326115"><ele>1535.0</ele><time>2026-05-03T09:32:56.153Z</time></trkpt><trkpt lat="43.0153404" lon="13.2327024"><ele>1534.6666666666667</ele><time>2026-05-03T09:32:58.153Z</time></trkpt><trkpt lat="43.015373" lon="13.232807"><ele>1534.3333333333335</ele><time>2026-05-03T09:33:01.154Z</time></trkpt><trkpt lat="43.0154057" lon="13.2329044"><ele>1534.0</ele><time>2026-05-03T09:33:05.154Z</time></trkpt><trkpt lat="43.0154395" lon="13.2330044"><ele>1533.6666666666667</ele><time>2026-05-03T09:33:09.155Z</time></trkpt><trkpt lat="43.0154594" lon="13.2331224"><ele>1533.3333333333333</ele><time>2026-05-03T09:33:12.154Z</time></trkpt><trkpt lat="43.0154478" lon="13.2332403"><ele>1533.0</ele><time>2026-05-03T09:33:15.153Z</time></trkpt><trkpt lat="43.0154005" lon="13.2333216"><ele>1531.8333333333333</ele><time>2026-05-03T09:33:18.155Z</time></trkpt><trkpt lat="43.0153347" lon="13.2333565"><ele>1530.6666666666667</ele><time>2026-05-03T09:33:21.154Z</time></trkpt><trkpt lat="43.0152704" lon="13.2333831"><ele>1529.5</ele><time>2026-05-03T09:33:26.153Z</time></trkpt><trkpt lat="43.0152346" lon="13.2334975"><ele>1528.3333333333335</ele><time>2026-05-03T09:33:29.153Z</time></trkpt><trkpt lat="43.0151995" lon="13.2335967"><ele>1527.1666666666667</ele><time>2026-05-03T09:33:31.155Z</time></trkpt><trkpt lat="43.0151439" lon="13.2336902"><ele>1526.0</ele><time>2026-05-03T09:33:34.153Z</time></trkpt><trkpt lat="43.0150938" lon="13.2337525"><ele>1526.0</ele><time>2026-05-03T09:33:36.157Z</time></trkpt><trkpt lat="43.0150094" lon="13.233812"><ele>1526.0</ele><time>2026-05-03T09:33:39.153Z</time></trkpt><trkpt lat="43.0149308" lon="13.2338188"><ele>1526.0</ele><time>2026-05-03T09:33:42.157Z</time></trkpt><trkpt lat="43.0149343" lon="13.2339094"><ele>1526.0</ele><time>2026-05-03T09:37:01.154Z</time></trkpt><trkpt lat="43.0149956" lon="13.2338681"><ele>1526.0</ele><time>2026-05-03T09:37:04.156Z</time></trkpt><trkpt lat="43.0150075" lon="13.2337554"><ele>1526.0</ele><time>2026-05-03T09:37:07.154Z</time></trkpt><trkpt lat="43.0150083" lon="13.233652"><ele>1526.0</ele><time>2026-05-03T09:37:09.154Z</time></trkpt><trkpt lat="43.0150007" lon="13.2335624"><ele>1526.0</ele><time>2026-05-03T09:37:10.155Z</time></trkpt><trkpt lat="43.0149936" lon="13.23347"><ele>1526.0</ele><time>2026-05-03T09:37:11.155Z</time></trkpt><trkpt lat="43.014986" lon="13.2333772"><ele>1526.0</ele><time>2026-05-03T09:37:12.157Z</time></trkpt><trkpt lat="43.0149833" lon="13.2332887"><ele>1526.0</ele><time>2026-05-03T09:37:13.154Z</time></trkpt><trkpt lat="43.0149699" lon="13.2331324"><ele>1526.0</ele><time>2026-05-03T09:37:15.155Z</time></trkpt><trkpt lat="43.0149502" lon="13.2329693"><ele>1521.6</ele><time>2026-05-03T09:37:17.155Z</time></trkpt><trkpt lat="43.0149309" lon="13.2328226"><ele>1517.1999999999998</ele><time>2026-05-03T09:37:19.155Z</time></trkpt><trkpt lat="43.0149325" lon="13.2326888"><ele>1512.8000000000002</ele><time>2026-05-03T09:37:21.156Z</time></trkpt><trkpt lat="43.0149173" lon="13.2325792"><ele>1508.4</ele><time>2026-05-03T09:37:23.154Z</time></trkpt><trkpt lat="43.0149074" lon="13.2324709"><ele>1504.0</ele><time>2026-05-03T09:37:25.155Z</time></trkpt><trkpt lat="43.0148745" lon="13.2323579"><ele>1505.4</ele><time>2026-05-03T09:37:27.155Z</time></trkpt><trkpt lat="43.0148438" lon="13.2322467"><ele>1506.8000000000002</ele><time>2026-05-03T09:37:29.156Z</time></trkpt><trkpt lat="43.0147948" lon="13.2321557"><ele>1508.1999999999998</ele><time>2026-05-03T09:37:31.155Z</time></trkpt><trkpt lat="43.0147396" lon="13.2320671"><ele>1509.6</ele><time>2026-05-03T09:37:33.154Z</time></trkpt><trkpt lat="43.0146763" lon="13.2319624"><ele>1511.0</ele><time>2026-05-03T09:37:35.153Z</time></trkpt><trkpt lat="43.014611" lon="13.2318348"><ele>1511.0</ele><time>2026-05-03T09:37:37.156Z</time></trkpt><trkpt lat="43.0145245" lon="13.2317013"><ele>1511.0</ele><time>2026-05-03T09:37:39.155Z</time></trkpt><trkpt lat="43.0144749" lon="13.231623"><ele>1511.0</ele><time>2026-05-03T09:37:40.157Z</time></trkpt><trkpt lat="43.0144242" lon="13.2315406"><ele>1511.0</ele><time>2026-05-03T09:37:41.155Z</time></trkpt><trkpt lat="43.0143778" lon="13.2314458"><ele>1511.0</ele><time>2026-05-03T09:37:42.153Z</time></trkpt><trkpt lat="43.0143299" lon="13.2313422"><ele>1512.0</ele><time>2026-05-03T09:37:43.156Z</time></trkpt><trkpt lat="43.0142854" lon="13.2312403"><ele>1513.0</ele><time>2026-05-03T09:37:44.155Z</time></trkpt><trkpt lat="43.0142425" lon="13.2311408"><ele>1514.0</ele><time>2026-05-03T09:37:45.156Z</time></trkpt><trkpt lat="43.0142012" lon="13.231029"><ele>1515.0</ele><time>2026-05-03T09:37:46.156Z</time></trkpt><trkpt lat="43.0141561" lon="13.2309123"><ele>1516.0</ele><time>2026-05-03T09:37:47.155Z</time></trkpt><trkpt lat="43.0141089" lon="13.230793"><ele>1511.0</ele><time>2026-05-03T09:37:48.154Z</time></trkpt><trkpt lat="43.0140585" lon="13.230675"><ele>1506.0</ele><time>2026-05-03T09:37:49.154Z</time></trkpt><trkpt lat="43.0139989" lon="13.2305522"><ele>1501.0</ele><time>2026-05-03T09:37:50.156Z</time></trkpt><trkpt lat="43.0139495" lon="13.2304405"><ele>1496.0</ele><time>2026-05-03T09:37:51.156Z</time></trkpt><trkpt lat="43.0139041" lon="13.230351"><ele>1491.0</ele><time>2026-05-03T09:37:52.155Z</time></trkpt><trkpt lat="43.0138561" lon="13.2302709"><ele>1491.0</ele><time>2026-05-03T09:37:53.155Z</time></trkpt><trkpt lat="43.0137778" lon="13.2301351"><ele>1491.0</ele><time>2026-05-03T09:37:55.156Z</time></trkpt><trkpt lat="43.013727" lon="13.230069"><ele>1491.0</ele><time>2026-05-03T09:37:56.156Z</time></trkpt><trkpt lat="43.0136787" lon="13.2299874"><ele>1491.0</ele><time>2026-05-03T09:37:57.155Z</time></trkpt><trkpt lat="43.0136233" lon="13.2299022"><ele>1491.0</ele><time>2026-05-03T09:37:58.154Z</time></trkpt><trkpt lat="43.0135749" lon="13.2298019"><ele>1491.0</ele><time>2026-05-03T09:37:59.157Z</time></trkpt><trkpt lat="43.0135167" lon="13.2296878"><ele>1493.0</ele><time>2026-05-03T09:38:00.156Z</time></trkpt><trkpt lat="43.0134643" lon="13.229569"><ele>1495.0</ele><time>2026-05-03T09:38:01.155Z</time></trkpt><trkpt lat="43.0133997" lon="13.2294517"><ele>1497.0</ele><time>2026-05-03T09:38:02.156Z</time></trkpt><trkpt lat="43.0133267" lon="13.2293379"><ele>1499.0</ele><time>2026-05-03T09:38:03.155Z</time></trkpt><trkpt lat="43.0132582" lon="13.2292085"><ele>1501.0</ele><time>2026-05-03T09:38:04.156Z</time></trkpt><trkpt lat="43.0131808" lon="13.229089"><ele>1496.0</ele><time>2026-05-03T09:38:05.156Z</time></trkpt><trkpt lat="43.0130972" lon="13.2289669"><ele>1491.0</ele><time>2026-05-03T09:38:06.155Z</time></trkpt><trkpt lat="43.0130222" lon="13.2288397"><ele>1486.0</ele><time>2026-05-03T09:38:07.156Z</time></trkpt><trkpt lat="43.0129449" lon="13.2287015"><ele>1481.0</ele><time>2026-05-03T09:38:08.156Z</time></trkpt><trkpt lat="43.0128663" lon="13.22856"><ele>1481.0</ele><time>2026-05-03T09:38:09.154Z</time></trkpt><trkpt lat="43.012782" lon="13.2284294"><ele>1481.0</ele><time>2026-05-03T09:38:10.154Z</time></trkpt><trkpt lat="43.0126991" lon="13.2282944"><ele>1481.0</ele><time>2026-05-03T09:38:11.156Z</time></trkpt><trkpt lat="43.0126213" lon="13.2281574"><ele>1481.0</ele><time>2026-05-03T09:38:12.155Z</time></trkpt><trkpt lat="43.0125362" lon="13.2280288"><ele>1476.25</ele><time>2026-05-03T09:38:13.156Z</time></trkpt><trkpt lat="43.0124551" lon="13.2278966"><ele>1471.5</ele><time>2026-05-03T09:38:14.156Z</time></trkpt><trkpt lat="43.0123749" lon="13.2277538"><ele>1466.75</ele><time>2026-05-03T09:38:15.156Z</time></trkpt><trkpt lat="43.0122998" lon="13.227615"><ele>1462.0</ele><time>2026-05-03T09:38:16.155Z</time></trkpt><trkpt lat="43.0122139" lon="13.2274753"><ele>1462.0</ele><time>2026-05-03T09:38:17.156Z</time></trkpt><trkpt lat="43.0121365" lon="13.2273395"><ele>1462.0</ele><time>2026-05-03T09:38:18.156Z</time></trkpt><trkpt lat="43.0120608" lon="13.2271989"><ele>1462.0</ele><time>2026-05-03T09:38:19.157Z</time></trkpt><trkpt lat="43.0119743" lon="13.2270684"><ele>1462.0</ele><time>2026-05-03T09:38:20.156Z</time></trkpt><trkpt lat="43.0118929" lon="13.2269316"><ele>1462.5</ele><time>2026-05-03T09:38:21.155Z</time></trkpt><trkpt lat="43.0118121" lon="13.2268032"><ele>1463.0</ele><time>2026-05-03T09:38:22.156Z</time></trkpt><trkpt lat="43.0117283" lon="13.2266681"><ele>1463.5</ele><time>2026-05-03T09:38:23.156Z</time></trkpt><trkpt lat="43.0116487" lon="13.2265282"><ele>1464.0</ele><time>2026-05-03T09:38:24.155Z</time></trkpt><trkpt lat="43.0115666" lon="13.2263987"><ele>1464.0</ele><time>2026-05-03T09:38:25.156Z</time></trkpt><trkpt lat="43.0114839" lon="13.2262688"><ele>1464.0</ele><time>2026-05-03T09:38:26.156Z</time></trkpt><trkpt lat="43.0114057" lon="13.2261467"><ele>1464.0</ele><time>2026-05-03T09:38:27.155Z</time></trkpt><trkpt lat="43.0113296" lon="13.2260225"><ele>1464.0</ele><time>2026-05-03T09:38:28.155Z</time></trkpt><trkpt lat="43.011248" lon="13.2258982"><ele>1464.0</ele><time>2026-05-03T09:38:29.154Z</time></trkpt><trkpt lat="43.0111642" lon="13.2257766"><ele>1464.0</ele><time>2026-05-03T09:38:30.156Z</time></trkpt><trkpt lat="43.0110901" lon="13.2256611"><ele>1464.0</ele><time>2026-05-03T09:38:31.155Z</time></trkpt><trkpt lat="43.0110173" lon="13.2255695"><ele>1464.0</ele><time>2026-05-03T09:38:32.155Z</time></trkpt><trkpt lat="43.0109601" lon="13.2254863"><ele>1464.0</ele><time>2026-05-03T09:38:33.155Z</time></trkpt><trkpt lat="43.0109155" lon="13.2254164"><ele>1465.6</ele><time>2026-05-03T09:38:34.155Z</time></trkpt><trkpt lat="43.01085" lon="13.2253494"><ele>1467.2</ele><time>2026-05-03T09:38:36.155Z</time></trkpt><trkpt lat="43.0107871" lon="13.2253811"><ele>1468.8</ele><time>2026-05-03T09:38:38.157Z</time></trkpt><trkpt lat="43.0107365" lon="13.225484"><ele>1470.3999999999999</ele><time>2026-05-03T09:38:40.154Z</time></trkpt><trkpt lat="43.0107099" lon="13.2256166"><ele>1472.0</ele><time>2026-05-03T09:38:42.155Z</time></trkpt><trkpt lat="43.0106765" lon="13.2257624"><ele>1469.1666666666667</ele><time>2026-05-03T09:38:44.156Z</time></trkpt><trkpt lat="43.0106397" lon="13.2258742"><ele>1466.3333333333335</ele><time>2026-05-03T09:38:46.154Z</time></trkpt><trkpt lat="43.0106001" lon="13.2259476"><ele>1463.5</ele><time>2026-05-03T09:38:48.153Z</time></trkpt><trkpt lat="43.0105598" lon="13.2260142"><ele>1460.6666666666667</ele><time>2026-05-03T09:38:51.155Z</time></trkpt><trkpt lat="43.0104884" lon="13.2261061"><ele>1457.8333333333333</ele><time>2026-05-03T09:38:54.154Z</time></trkpt><trkpt lat="43.0104228" lon="13.226171"><ele>1455.0</ele><time>2026-05-03T09:38:56.155Z</time></trkpt><trkpt lat="43.0103672" lon="13.2262118"><ele>1455.0</ele><time>2026-05-03T09:38:57.154Z</time></trkpt><trkpt lat="43.0102543" lon="13.2262494"><ele>1455.0</ele><time>2026-05-03T09:38:59.154Z</time></trkpt><trkpt lat="43.0101552" lon="13.2262561"><ele>1455.0</ele><time>2026-05-03T09:39:01.154Z</time></trkpt><trkpt lat="43.0100786" lon="13.2262882"><ele>1455.0</ele><time>2026-05-03T09:39:03.159Z</time></trkpt><trkpt lat="43.0100068" lon="13.2263129"><ele>1455.0</ele><time>2026-05-03T09:39:05.154Z</time></trkpt><trkpt lat="43.009958" lon="13.226225"><ele>1455.6666666666667</ele><time>2026-05-03T09:39:08.156Z</time></trkpt><trkpt lat="43.0099381" lon="13.2261308"><ele>1456.3333333333333</ele><time>2026-05-03T09:41:35.153Z</time></trkpt><trkpt lat="43.0099757" lon="13.2260458"><ele>1457.0</ele><time>2026-05-03T09:41:38.153Z</time></trkpt><trkpt lat="43.0099877" lon="13.2259612"><ele>1457.6666666666665</ele><time>2026-05-03T09:41:41.155Z</time></trkpt><trkpt lat="43.0099617" lon="13.2258329"><ele>1458.3333333333333</ele><time>2026-05-03T09:41:44.156Z</time></trkpt><trkpt lat="43.0099327" lon="13.22573"><ele>1459.0</ele><time>2026-05-03T09:41:46.155Z</time></trkpt><trkpt lat="43.0099038" lon="13.2256283"><ele>1459.0</ele><time>2026-05-03T09:41:48.154Z</time></trkpt><trkpt lat="43.0098953" lon="13.2254786"><ele>1459.0</ele><time>2026-05-03T09:41:50.156Z</time></trkpt><trkpt lat="43.0098784" lon="13.2253456"><ele>1459.0</ele><time>2026-05-03T09:41:52.155Z</time></trkpt><trkpt lat="43.0098316" lon="13.2251956"><ele>1459.0</ele><time>2026-05-03T09:41:54.154Z</time></trkpt><trkpt lat="43.0098013" lon="13.2251162"><ele>1459.0</ele><time>2026-05-03T09:41:55.153Z</time></trkpt><trkpt lat="43.0097648" lon="13.2250283"><ele>1459.0</ele><time>2026-05-03T09:41:56.154Z</time></trkpt><trkpt lat="43.0097082" lon="13.2248618"><ele>1459.0</ele><time>2026-05-03T09:41:58.154Z</time></trkpt><trkpt lat="43.0096739" lon="13.2247666"><ele>1459.0</ele><time>2026-05-03T09:41:59.155Z</time></trkpt><trkpt lat="43.0096362" lon="13.2246668"><ele>1459.0</ele><time>2026-05-03T09:42:00.156Z</time></trkpt><trkpt lat="43.0096005" lon="13.224561"><ele>1459.0</ele><time>2026-05-03T09:42:01.155Z</time></trkpt><trkpt lat="43.0095553" lon="13.2244585"><ele>1458.2</ele><time>2026-05-03T09:42:02.155Z</time></trkpt><trkpt lat="43.009506" lon="13.224349"><ele>1457.4</ele><time>2026-05-03T09:42:03.155Z</time></trkpt><trkpt lat="43.0094845" lon="13.2242357"><ele>1456.6</ele><time>2026-05-03T09:42:04.154Z</time></trkpt><trkpt lat="43.0094607" lon="13.2241067"><ele>1455.8</ele><time>2026-05-03T09:42:05.153Z</time></trkpt><trkpt lat="43.0094296" lon="13.2239753"><ele>1455.0</ele><time>2026-05-03T09:42:06.157Z</time></trkpt><trkpt lat="43.0094246" lon="13.2238333"><ele>1452.8</ele><time>2026-05-03T09:42:07.156Z</time></trkpt><trkpt lat="43.0094007" lon="13.2236997"><ele>1450.6</ele><time>2026-05-03T09:42:08.155Z</time></trkpt><trkpt lat="43.0093657" lon="13.2235632"><ele>1448.4</ele><time>2026-05-03T09:42:09.154Z</time></trkpt><trkpt lat="43.0093246" lon="13.2234302"><ele>1446.2</ele><time>2026-05-03T09:42:10.154Z</time></trkpt><trkpt lat="43.0092624" lon="13.2233074"><ele>1444.0</ele><time>2026-05-03T09:42:11.156Z</time></trkpt><trkpt lat="43.009207" lon="13.2231761"><ele>1441.75</ele><time>2026-05-03T09:42:12.156Z</time></trkpt><trkpt lat="43.0091166" lon="13.223084"><ele>1439.5</ele><time>2026-05-03T09:42:13.154Z</time></trkpt><trkpt lat="43.009008" lon="13.223003"><ele>1437.25</ele><time>2026-05-03T09:42:14.157Z</time></trkpt><trkpt lat="43.0088956" lon="13.2229117"><ele>1435.0</ele><time>2026-05-03T09:42:15.158Z</time></trkpt><trkpt lat="43.0087973" lon="13.2228173"><ele>1435.0</ele><time>2026-05-03T09:42:16.158Z</time></trkpt><trkpt lat="43.008707" lon="13.2227462"><ele>1435.0</ele><time>2026-05-03T09:42:17.154Z</time></trkpt><trkpt lat="43.0086226" lon="13.2226419"><ele>1435.0</ele><time>2026-05-03T09:42:18.154Z</time></trkpt><trkpt lat="43.0085271" lon="13.2225372"><ele>1435.0</ele><time>2026-05-03T09:42:19.154Z</time></trkpt><trkpt lat="43.0084383" lon="13.2224511"><ele>1435.0</ele><time>2026-05-03T09:42:20.154Z</time></trkpt><trkpt lat="43.0083412" lon="13.2223518"><ele>1433.0</ele><time>2026-05-03T09:42:21.154Z</time></trkpt><trkpt lat="43.0082768" lon="13.222295"><ele>1431.0</ele><time>2026-05-03T09:42:22.154Z</time></trkpt><trkpt lat="43.0081972" lon="13.222236"><ele>1429.0</ele><time>2026-05-03T09:42:23.155Z</time></trkpt><trkpt lat="43.0080996" lon="13.222168"><ele>1427.0</ele><time>2026-05-03T09:42:24.156Z</time></trkpt><trkpt lat="43.007997" lon="13.2221368"><ele>1425.0</ele><time>2026-05-03T09:42:25.155Z</time></trkpt><trkpt lat="43.0079058" lon="13.2221353"><ele>1425.0</ele><time>2026-05-03T09:42:26.155Z</time></trkpt><trkpt lat="43.0078107" lon="13.222082"><ele>1425.0</ele><time>2026-05-03T09:42:27.156Z</time></trkpt><trkpt lat="43.0077311" lon="13.2220587"><ele>1425.0</ele><time>2026-05-03T09:42:28.156Z</time></trkpt><trkpt lat="43.0076742" lon="13.2221099"><ele>1425.0</ele><time>2026-05-03T09:42:29.154Z</time></trkpt><trkpt lat="43.0075763" lon="13.2220655"><ele>1425.0</ele><time>2026-05-03T09:42:30.156Z</time></trkpt><trkpt lat="43.0075066" lon="13.2220676"><ele>1425.0</ele><time>2026-05-03T09:42:31.154Z</time></trkpt><trkpt lat="43.0074393" lon="13.2220588"><ele>1425.0</ele><time>2026-05-03T09:42:32.155Z</time></trkpt><trkpt lat="43.0072996" lon="13.2220509"><ele>1425.0</ele><time>2026-05-03T09:42:34.154Z</time></trkpt><trkpt lat="43.0071499" lon="13.2220468"><ele>1425.0</ele><time>2026-05-03T09:42:36.155Z</time></trkpt><trkpt lat="43.0070826" lon="13.2220533"><ele>1425.0</ele><time>2026-05-03T09:42:37.155Z</time></trkpt><trkpt lat="43.0069435" lon="13.2220588"><ele>1425.0</ele><time>2026-05-03T09:42:39.155Z</time></trkpt><trkpt lat="43.0068762" lon="13.2220542"><ele>1425.0</ele><time>2026-05-03T09:42:40.155Z</time></trkpt><trkpt lat="43.0067609" lon="13.2220658"><ele>1425.0</ele><time>2026-05-03T09:42:42.155Z</time></trkpt><trkpt lat="43.0066923" lon="13.2220376"><ele>1425.0</ele><time>2026-05-03T09:42:43.154Z</time></trkpt><trkpt lat="43.0066292" lon="13.2220267"><ele>1425.0</ele><time>2026-05-03T09:42:44.155Z</time></trkpt><trkpt lat="43.0065458" lon="13.2219831"><ele>1425.0</ele><time>2026-05-03T09:42:45.158Z</time></trkpt><trkpt lat="43.0064826" lon="13.2219635"><ele>1426.8</ele><time>2026-05-03T09:42:46.155Z</time></trkpt><trkpt lat="43.0063734" lon="13.2219445"><ele>1428.6</ele><time>2026-05-03T09:42:48.158Z</time></trkpt><trkpt lat="43.0062832" lon="13.2219195"><ele>1430.4</ele><time>2026-05-03T09:42:50.155Z</time></trkpt><trkpt lat="43.0061832" lon="13.2219226"><ele>1432.2</ele><time>2026-05-03T09:42:52.159Z</time></trkpt><trkpt lat="43.0060824" lon="13.221922"><ele>1434.0</ele><time>2026-05-03T09:42:55.153Z</time></trkpt><trkpt lat="43.0060296" lon="13.2218465"><ele>1434.0</ele><time>2026-05-03T09:42:56.155Z</time></trkpt><trkpt lat="43.0059312" lon="13.2217704"><ele>1434.0</ele><time>2026-05-03T09:42:58.156Z</time></trkpt><trkpt lat="43.0058474" lon="13.221745"><ele>1434.0</ele><time>2026-05-03T09:43:00.157Z</time></trkpt><trkpt lat="43.0057534" lon="13.2217607"><ele>1434.0</ele><time>2026-05-03T09:43:02.156Z</time></trkpt><trkpt lat="43.0056758" lon="13.2218205"><ele>1434.0</ele><time>2026-05-03T09:43:04.158Z</time></trkpt><trkpt lat="43.0056278" lon="13.2219171"><ele>1432.3333333333333</ele><time>2026-05-03T09:43:06.155Z</time></trkpt><trkpt lat="43.005608" lon="13.2220289"><ele>1430.6666666666667</ele><time>2026-05-03T09:43:08.153Z</time></trkpt><trkpt lat="43.0055764" lon="13.2221326"><ele>1429.0</ele><time>2026-05-03T09:43:10.159Z</time></trkpt><trkpt lat="43.0055306" lon="13.222223"><ele>1427.3333333333335</ele><time>2026-05-03T09:43:12.154Z</time></trkpt><trkpt lat="43.0054989" lon="13.2223279"><ele>1425.6666666666667</ele><time>2026-05-03T09:43:15.152Z</time></trkpt><trkpt lat="43.0054895" lon="13.2224342"><ele>1424.0</ele><time>2026-05-03T09:43:17.151Z</time></trkpt><trkpt lat="43.0054413" lon="13.2225328"><ele>1423.5</ele><time>2026-05-03T09:43:19.153Z</time></trkpt><trkpt lat="43.0054054" lon="13.2226486"><ele>1423.0</ele><time>2026-05-03T09:43:21.152Z</time></trkpt><trkpt lat="43.0054003" lon="13.2227472"><ele>1422.5</ele><time>2026-05-03T09:43:22.159Z</time></trkpt><trkpt lat="43.0053482" lon="13.2228559"><ele>1422.0</ele><time>2026-05-03T09:43:24.196Z</time></trkpt><trkpt lat="43.005277" lon="13.2229333"><ele>1421.5</ele><time>2026-05-03T09:43:26.163Z</time></trkpt><trkpt lat="43.0052139" lon="13.2230228"><ele>1421.0</ele><time>2026-05-03T09:43:28.155Z</time></trkpt><trkpt lat="43.0051593" lon="13.2231486"><ele>1423.4</ele><time>2026-05-03T09:43:30.155Z</time></trkpt><trkpt lat="43.0051113" lon="13.2232646"><ele>1425.8</ele><time>2026-05-03T09:43:32.156Z</time></trkpt><trkpt lat="43.0050224" lon="13.2233394"><ele>1428.2</ele><time>2026-05-03T09:43:34.155Z</time></trkpt><trkpt lat="43.0049865" lon="13.2234217"><ele>1430.6000000000001</ele><time>2026-05-03T09:43:35.154Z</time></trkpt><trkpt lat="43.0049127" lon="13.2235227"><ele>1433.0</ele><time>2026-05-03T09:43:37.155Z</time></trkpt><trkpt lat="43.0048546" lon="13.223614"><ele>1429.6000000000001</ele><time>2026-05-03T09:43:39.155Z</time></trkpt><trkpt lat="43.0047982" lon="13.2237391"><ele>1426.2</ele><time>2026-05-03T09:43:41.153Z</time></trkpt><trkpt lat="43.004751" lon="13.2238883"><ele>1422.8</ele><time>2026-05-03T09:43:43.155Z</time></trkpt><trkpt lat="43.0047066" lon="13.2240171"><ele>1419.4</ele><time>2026-05-03T09:43:45.155Z</time></trkpt><trkpt lat="43.0046552" lon="13.224151"><ele>1416.0</ele><time>2026-05-03T09:43:47.158Z</time></trkpt><trkpt lat="43.004593" lon="13.2242861"><ele>1416.0</ele><time>2026-05-03T09:43:49.155Z</time></trkpt><trkpt lat="43.0045145" lon="13.224401"><ele>1416.0</ele><time>2026-05-03T09:43:51.156Z</time></trkpt><trkpt lat="43.0044429" lon="13.2245599"><ele>1416.0</ele><time>2026-05-03T09:43:53.157Z</time></trkpt><trkpt lat="43.0044086" lon="13.2246413"><ele>1416.0</ele><time>2026-05-03T09:43:54.156Z</time></trkpt><trkpt lat="43.0043173" lon="13.2247499"><ele>1416.0</ele><time>2026-05-03T09:43:56.155Z</time></trkpt><trkpt lat="43.0042747" lon="13.2248228"><ele>1414.6</ele><time>2026-05-03T09:43:57.155Z</time></trkpt><trkpt lat="43.0042201" lon="13.2248776"><ele>1413.1999999999998</ele><time>2026-05-03T09:43:58.156Z</time></trkpt><trkpt lat="43.0041297" lon="13.2249627"><ele>1411.8000000000002</ele><time>2026-05-03T09:44:00.156Z</time></trkpt><trkpt lat="43.0040402" lon="13.2250554"><ele>1410.4</ele><time>2026-05-03T09:44:02.157Z</time></trkpt><trkpt lat="43.0039536" lon="13.2251391"><ele>1409.0</ele><time>2026-05-03T09:44:04.155Z</time></trkpt><trkpt lat="43.0038519" lon="13.2252281"><ele>1409.0</ele><time>2026-05-03T09:44:06.163Z</time></trkpt><trkpt lat="43.0037527" lon="13.2253078"><ele>1409.0</ele><time>2026-05-03T09:44:08.157Z</time></trkpt><trkpt lat="43.0036695" lon="13.2254052"><ele>1409.0</ele><time>2026-05-03T09:44:10.155Z</time></trkpt><trkpt lat="43.0036136" lon="13.2254562"><ele>1409.0</ele><time>2026-05-03T09:44:11.155Z</time></trkpt><trkpt lat="43.0035102" lon="13.2255457"><ele>1409.0</ele><time>2026-05-03T09:44:13.155Z</time></trkpt><trkpt lat="43.0034613" lon="13.2256007"><ele>1405.4</ele><time>2026-05-03T09:44:14.154Z</time></trkpt><trkpt lat="43.0033996" lon="13.225663"><ele>1401.8000000000002</ele><time>2026-05-03T09:44:15.156Z</time></trkpt><trkpt lat="43.003303" lon="13.2257413"><ele>1398.1999999999998</ele><time>2026-05-03T09:44:17.155Z</time></trkpt><trkpt lat="43.0032428" lon="13.2258047"><ele>1394.6</ele><time>2026-05-03T09:44:18.155Z</time></trkpt><trkpt lat="43.0031509" lon="13.2259085"><ele>1391.0</ele><time>2026-05-03T09:44:20.157Z</time></trkpt><trkpt lat="43.0030988" lon="13.2259736"><ele>1391.0</ele><time>2026-05-03T09:44:21.153Z</time></trkpt><trkpt lat="43.0030463" lon="13.2260277"><ele>1391.0</ele><time>2026-05-03T09:44:22.153Z</time></trkpt><trkpt lat="43.0030139" lon="13.2261018"><ele>1391.0</ele><time>2026-05-03T09:44:23.157Z</time></trkpt><trkpt lat="43.0029672" lon="13.2261894"><ele>1391.0</ele><time>2026-05-03T09:44:24.154Z</time></trkpt><trkpt lat="43.0028854" lon="13.2262798"><ele>1391.0</ele><time>2026-05-03T09:44:26.155Z</time></trkpt><trkpt lat="43.0028461" lon="13.2263608"><ele>1391.0</ele><time>2026-05-03T09:44:27.156Z</time></trkpt><trkpt lat="43.0028045" lon="13.2264281"><ele>1391.0</ele><time>2026-05-03T09:44:28.155Z</time></trkpt><trkpt lat="43.002769" lon="13.2264992"><ele>1394.5</ele><time>2026-05-03T09:44:29.155Z</time></trkpt><trkpt lat="43.0027302" lon="13.2265905"><ele>1398.0</ele><time>2026-05-03T09:44:30.155Z</time></trkpt><trkpt lat="43.0026914" lon="13.2266673"><ele>1401.5</ele><time>2026-05-03T09:44:31.156Z</time></trkpt><trkpt lat="43.0026571" lon="13.2267606"><ele>1405.0</ele><time>2026-05-03T09:44:32.157Z</time></trkpt><trkpt lat="43.0025808" lon="13.2269138"><ele>1408.5</ele><time>2026-05-03T09:44:34.156Z</time></trkpt><trkpt lat="43.0025378" lon="13.2270028"><ele>1412.0</ele><time>2026-05-03T09:44:35.156Z</time></trkpt><trkpt lat="43.0024891" lon="13.2270913"><ele>1407.1666666666667</ele><time>2026-05-03T09:44:36.154Z</time></trkpt><trkpt lat="43.0024427" lon="13.227199"><ele>1402.3333333333335</ele><time>2026-05-03T09:44:37.155Z</time></trkpt><trkpt lat="43.0023945" lon="13.2272814"><ele>1397.5</ele><time>2026-05-03T09:44:38.155Z</time></trkpt><trkpt lat="43.0023493" lon="13.2273667"><ele>1392.6666666666667</ele><time>2026-05-03T09:44:39.156Z</time></trkpt><trkpt lat="43.0023041" lon="13.2274639"><ele>1387.8333333333333</ele><time>2026-05-03T09:44:40.155Z</time></trkpt><trkpt lat="43.0022607" lon="13.2275621"><ele>1383.0</ele><time>2026-05-03T09:44:41.155Z</time></trkpt><trkpt lat="43.0022149" lon="13.2276586"><ele>1383.0</ele><time>2026-05-03T09:44:42.155Z</time></trkpt><trkpt lat="43.0021675" lon="13.2277577"><ele>1383.0</ele><time>2026-05-03T09:44:43.155Z</time></trkpt><trkpt lat="43.0021192" lon="13.2278537"><ele>1383.0</ele><time>2026-05-03T09:44:44.155Z</time></trkpt><trkpt lat="43.0020774" lon="13.2279497"><ele>1383.0</ele><time>2026-05-03T09:44:45.155Z</time></trkpt><trkpt lat="43.0020333" lon="13.2280461"><ele>1383.0</ele><time>2026-05-03T09:44:46.156Z</time></trkpt><trkpt lat="43.0019914" lon="13.2281432"><ele>1383.0</ele><time>2026-05-03T09:44:47.156Z</time></trkpt><trkpt lat="43.0019489" lon="13.228233"><ele>1385.6666666666667</ele><time>2026-05-03T09:44:48.155Z</time></trkpt><trkpt lat="43.0018945" lon="13.228322"><ele>1388.3333333333333</ele><time>2026-05-03T09:44:49.156Z</time></trkpt><trkpt lat="43.0018534" lon="13.2284199"><ele>1391.0</ele><time>2026-05-03T09:44:50.154Z</time></trkpt><trkpt lat="43.0018168" lon="13.2285154"><ele>1393.6666666666665</ele><time>2026-05-03T09:44:51.155Z</time></trkpt><trkpt lat="43.0017977" lon="13.2286198"><ele>1396.3333333333333</ele><time>2026-05-03T09:44:52.155Z</time></trkpt><trkpt lat="43.0017943" lon="13.2287429"><ele>1399.0</ele><time>2026-05-03T09:44:53.155Z</time></trkpt><trkpt lat="43.0017802" lon="13.2288486"><ele>1399.0</ele><time>2026-05-03T09:44:54.155Z</time></trkpt><trkpt lat="43.0017616" lon="13.2289544"><ele>1399.0</ele><time>2026-05-03T09:44:55.156Z</time></trkpt><trkpt lat="43.0017405" lon="13.2290605"><ele>1399.0</ele><time>2026-05-03T09:44:56.156Z</time></trkpt><trkpt lat="43.0017249" lon="13.2291666"><ele>1399.0</ele><time>2026-05-03T09:44:57.155Z</time></trkpt><trkpt lat="43.0016984" lon="13.2292646"><ele>1399.0</ele><time>2026-05-03T09:44:58.155Z</time></trkpt><trkpt lat="43.0016741" lon="13.2293603"><ele>1399.0</ele><time>2026-05-03T09:44:59.156Z</time></trkpt><trkpt lat="43.0016477" lon="13.2294387"><ele>1395.142857142857</ele><time>2026-05-03T09:45:00.155Z</time></trkpt><trkpt lat="43.0016246" lon="13.2295219"><ele>1391.2857142857142</ele><time>2026-05-03T09:45:01.155Z</time></trkpt><trkpt lat="43.0016218" lon="13.2296131"><ele>1387.4285714285716</ele><time>2026-05-03T09:45:02.156Z</time></trkpt><trkpt lat="43.0016084" lon="13.2297113"><ele>1383.5714285714284</ele><time>2026-05-03T09:45:03.155Z</time></trkpt><trkpt lat="43.0015909" lon="13.2297996"><ele>1379.7142857142858</ele><time>2026-05-03T09:45:04.158Z</time></trkpt><trkpt lat="43.001568" lon="13.2298903"><ele>1375.857142857143</ele><time>2026-05-03T09:45:05.157Z</time></trkpt><trkpt lat="43.0015512" lon="13.2299821"><ele>1372.0</ele><time>2026-05-03T09:45:06.156Z</time></trkpt><trkpt lat="43.0015259" lon="13.2301377"><ele>1372.0</ele><time>2026-05-03T09:45:08.156Z</time></trkpt><trkpt lat="43.001464" lon="13.2302984"><ele>1372.0</ele><time>2026-05-03T09:45:10.155Z</time></trkpt><trkpt lat="43.001441" lon="13.2303814"><ele>1372.0</ele><time>2026-05-03T09:45:11.156Z</time></trkpt><trkpt lat="43.0014193" lon="13.2304699"><ele>1372.0</ele><time>2026-05-03T09:45:12.155Z</time></trkpt><trkpt lat="43.0013874" lon="13.2305561"><ele>1372.0</ele><time>2026-05-03T09:45:13.155Z</time></trkpt><trkpt lat="43.001379" lon="13.2306427"><ele>1372.0</ele><time>2026-05-03T09:45:14.156Z</time></trkpt><trkpt lat="43.0013474" lon="13.2307177"><ele>1374.3333333333333</ele><time>2026-05-03T09:45:15.156Z</time></trkpt><trkpt lat="43.0012936" lon="13.2308693"><ele>1376.6666666666665</ele><time>2026-05-03T09:45:17.155Z</time></trkpt><trkpt lat="43.0012667" lon="13.2309584"><ele>1379.0</ele><time>2026-05-03T09:45:18.155Z</time></trkpt><trkpt lat="43.0012423" lon="13.2310459"><ele>1381.3333333333333</ele><time>2026-05-03T09:45:19.155Z</time></trkpt><trkpt lat="43.0012124" lon="13.2311239"><ele>1383.6666666666667</ele><time>2026-05-03T09:45:20.156Z</time></trkpt><trkpt lat="43.0011674" lon="13.2311884"><ele>1386.0</ele><time>2026-05-03T09:45:21.153Z</time></trkpt><trkpt lat="43.0011317" lon="13.2312699"><ele>1386.0</ele><time>2026-05-03T09:45:22.153Z</time></trkpt><trkpt lat="43.001093" lon="13.2313553"><ele>1386.0</ele><time>2026-05-03T09:45:23.155Z</time></trkpt><trkpt lat="43.0010499" lon="13.2314236"><ele>1386.0</ele><time>2026-05-03T09:45:24.154Z</time></trkpt><trkpt lat="43.0010095" lon="13.2315096"><ele>1386.0</ele><time>2026-05-03T09:45:25.154Z</time></trkpt><trkpt lat="43.0009604" lon="13.2315803"><ele>1386.0</ele><time>2026-05-03T09:45:26.156Z</time></trkpt><trkpt lat="43.0008805" lon="13.2317259"><ele>1386.0</ele><time>2026-05-03T09:45:28.157Z</time></trkpt><trkpt lat="43.0008366" lon="13.231801"><ele>1385.2857142857142</ele><time>2026-05-03T09:45:29.157Z</time></trkpt><trkpt lat="43.0007972" lon="13.2318877"><ele>1384.5714285714284</ele><time>2026-05-03T09:45:30.156Z</time></trkpt><trkpt lat="43.000761" lon="13.2319873"><ele>1383.857142857143</ele><time>2026-05-03T09:45:31.156Z</time></trkpt><trkpt lat="43.0007187" lon="13.2320655"><ele>1383.142857142857</ele><time>2026-05-03T09:45:32.155Z</time></trkpt><trkpt lat="43.0006968" lon="13.2321566"><ele>1382.4285714285713</ele><time>2026-05-03T09:45:33.155Z</time></trkpt><trkpt lat="43.0006672" lon="13.2322434"><ele>1381.7142857142858</ele><time>2026-05-03T09:45:34.156Z</time></trkpt><trkpt lat="43.0006276" lon="13.2323228"><ele>1381.0</ele><time>2026-05-03T09:45:35.158Z</time></trkpt><trkpt lat="43.0006084" lon="13.2324128"><ele>1381.0</ele><time>2026-05-03T09:45:36.157Z</time></trkpt><trkpt lat="43.0005761" lon="13.232499"><ele>1381.0</ele><time>2026-05-03T09:45:37.155Z</time></trkpt><trkpt lat="43.0005405" lon="13.232591"><ele>1381.0</ele><time>2026-05-03T09:45:38.156Z</time></trkpt><trkpt lat="43.0005184" lon="13.2326843"><ele>1381.0</ele><time>2026-05-03T09:45:39.154Z</time></trkpt><trkpt lat="43.0004667" lon="13.2327769"><ele>1381.0</ele><time>2026-05-03T09:45:40.155Z</time></trkpt><trkpt lat="43.0004298" lon="13.2328568"><ele>1381.0</ele><time>2026-05-03T09:45:41.155Z</time></trkpt><trkpt lat="43.00038" lon="13.2329529"><ele>1381.0</ele><time>2026-05-03T09:45:42.157Z</time></trkpt><trkpt lat="43.0003235" lon="13.2330399"><ele>1381.0</ele><time>2026-05-03T09:45:43.155Z</time></trkpt><trkpt lat="43.0002824" lon="13.2331209"><ele>1381.0</ele><time>2026-05-03T09:45:44.156Z</time></trkpt><trkpt lat="43.0002411" lon="13.2332246"><ele>1381.0</ele><time>2026-05-03T09:45:45.155Z</time></trkpt><trkpt lat="43.0001876" lon="13.2333211"><ele>1381.0</ele><time>2026-05-03T09:45:46.155Z</time></trkpt><trkpt lat="43.0001284" lon="13.2334133"><ele>1381.0</ele><time>2026-05-03T09:45:47.155Z</time></trkpt><trkpt lat="43.0000924" lon="13.2335016"><ele>1384.3333333333333</ele><time>2026-05-03T09:45:48.156Z</time></trkpt><trkpt lat="43.0000527" lon="13.2336132"><ele>1387.6666666666665</ele><time>2026-05-03T09:45:49.154Z</time></trkpt><trkpt lat="43.0000003" lon="13.2337173"><ele>1391.0</ele><time>2026-05-03T09:45:50.156Z</time></trkpt><trkpt lat="42.9999808" lon="13.2338267"><ele>1394.3333333333333</ele><time>2026-05-03T09:45:51.155Z</time></trkpt><trkpt lat="42.9999328" lon="13.233934"><ele>1397.6666666666667</ele><time>2026-05-03T09:45:52.157Z</time></trkpt><trkpt lat="42.9998833" lon="13.2340312"><ele>1401.0</ele><time>2026-05-03T09:45:53.155Z</time></trkpt><trkpt lat="42.9998252" lon="13.234131"><ele>1403.5</ele><time>2026-05-03T09:45:54.155Z</time></trkpt><trkpt lat="42.9997939" lon="13.2342382"><ele>1406.0</ele><time>2026-05-03T09:45:55.155Z</time></trkpt><trkpt lat="42.9997497" lon="13.2343431"><ele>1408.5</ele><time>2026-05-03T09:45:56.157Z</time></trkpt><trkpt lat="42.9997109" lon="13.2344461"><ele>1411.0</ele><time>2026-05-03T09:45:57.155Z</time></trkpt><trkpt lat="42.9996727" lon="13.2345566"><ele>1413.5</ele><time>2026-05-03T09:45:58.156Z</time></trkpt><trkpt lat="42.9996302" lon="13.2346629"><ele>1416.0</ele><time>2026-05-03T09:45:59.155Z</time></trkpt><trkpt lat="42.9995963" lon="13.2347777"><ele>1419.0</ele><time>2026-05-03T09:46:00.155Z</time></trkpt><trkpt lat="42.9995583" lon="13.2348786"><ele>1422.0</ele><time>2026-05-03T09:46:01.155Z</time></trkpt><trkpt lat="42.9995152" lon="13.2349954"><ele>1425.0</ele><time>2026-05-03T09:46:02.154Z</time></trkpt><trkpt lat="42.999469" lon="13.2351019"><ele>1428.0</ele><time>2026-05-03T09:46:03.157Z</time></trkpt><trkpt lat="42.9994266" lon="13.235216"><ele>1431.0</ele><time>2026-05-03T09:46:04.155Z</time></trkpt><trkpt lat="42.9993964" lon="13.2353339"><ele>1431.0</ele><time>2026-05-03T09:46:05.156Z</time></trkpt><trkpt lat="42.9993585" lon="13.2354417"><ele>1431.0</ele><time>2026-05-03T09:46:06.155Z</time></trkpt><trkpt lat="42.9993233" lon="13.2355612"><ele>1431.0</ele><time>2026-05-03T09:46:07.155Z</time></trkpt><trkpt lat="42.9992937" lon="13.2356626"><ele>1431.0</ele><time>2026-05-03T09:46:08.155Z</time></trkpt><trkpt lat="42.9992643" lon="13.2357776"><ele>1431.0</ele><time>2026-05-03T09:46:09.155Z</time></trkpt><trkpt lat="42.999222" lon="13.2358841"><ele>1431.0</ele><time>2026-05-03T09:46:10.155Z</time></trkpt><trkpt lat="42.9991704" lon="13.2359874"><ele>1428.5</ele><time>2026-05-03T09:46:11.157Z</time></trkpt><trkpt lat="42.9991297" lon="13.2360789"><ele>1426.0</ele><time>2026-05-03T09:46:12.155Z</time></trkpt><trkpt lat="42.9990775" lon="13.2361708"><ele>1423.5</ele><time>2026-05-03T09:46:13.156Z</time></trkpt><trkpt lat="42.9990282" lon="13.2362546"><ele>1421.0</ele><time>2026-05-03T09:46:14.155Z</time></trkpt><trkpt lat="42.9989849" lon="13.2363458"><ele>1418.5</ele><time>2026-05-03T09:46:15.154Z</time></trkpt><trkpt lat="42.9989341" lon="13.236431"><ele>1416.0</ele><time>2026-05-03T09:46:16.154Z</time></trkpt><trkpt lat="42.9988795" lon="13.2365078"><ele>1416.0</ele><time>2026-05-03T09:46:17.155Z</time></trkpt><trkpt lat="42.9988313" lon="13.236586"><ele>1416.0</ele><time>2026-05-03T09:46:18.155Z</time></trkpt><trkpt lat="42.9987956" lon="13.2366711"><ele>1416.0</ele><time>2026-05-03T09:46:19.156Z</time></trkpt><trkpt lat="42.9987519" lon="13.2367532"><ele>1416.0</ele><time>2026-05-03T09:46:20.155Z</time></trkpt><trkpt lat="42.9987009" lon="13.2368277"><ele>1416.0</ele><time>2026-05-03T09:46:21.154Z</time></trkpt><trkpt lat="42.9986544" lon="13.2369154"><ele>1416.0</ele><time>2026-05-03T09:46:22.153Z</time></trkpt><trkpt lat="42.9986054" lon="13.2369937"><ele>1416.0</ele><time>2026-05-03T09:46:23.155Z</time></trkpt><trkpt lat="42.9985611" lon="13.237085"><ele>1416.0</ele><time>2026-05-03T09:46:24.156Z</time></trkpt><trkpt lat="42.9985104" lon="13.2371787"><ele>1416.0</ele><time>2026-05-03T09:46:25.154Z</time></trkpt><trkpt lat="42.9984724" lon="13.2372755"><ele>1416.0</ele><time>2026-05-03T09:46:26.154Z</time></trkpt><trkpt lat="42.9984317" lon="13.2373741"><ele>1416.0</ele><time>2026-05-03T09:46:27.155Z</time></trkpt><trkpt lat="42.9983915" lon="13.2374671"><ele>1416.0</ele><time>2026-05-03T09:46:28.155Z</time></trkpt><trkpt lat="42.9983528" lon="13.237556"><ele>1412.3333333333333</ele><time>2026-05-03T09:46:29.155Z</time></trkpt><trkpt lat="42.9983188" lon="13.2376502"><ele>1408.6666666666667</ele><time>2026-05-03T09:46:30.155Z</time></trkpt><trkpt lat="42.9982886" lon="13.2377387"><ele>1405.0</ele><time>2026-05-03T09:46:31.154Z</time></trkpt><trkpt lat="42.9982559" lon="13.2378362"><ele>1401.3333333333335</ele><time>2026-05-03T09:46:32.156Z</time></trkpt><trkpt lat="42.9982251" lon="13.2379293"><ele>1397.6666666666667</ele><time>2026-05-03T09:46:33.154Z</time></trkpt><trkpt lat="42.9981954" lon="13.2380373"><ele>1394.0</ele><time>2026-05-03T09:46:34.155Z</time></trkpt><trkpt lat="42.9981792" lon="13.2381293"><ele>1395.4285714285716</ele><time>2026-05-03T09:46:35.156Z</time></trkpt><trkpt lat="42.9981531" lon="13.2382212"><ele>1396.857142857143</ele><time>2026-05-03T09:46:36.155Z</time></trkpt><trkpt lat="42.9981157" lon="13.2383037"><ele>1398.2857142857142</ele><time>2026-05-03T09:46:37.155Z</time></trkpt><trkpt lat="42.998084" lon="13.2383879"><ele>1399.7142857142858</ele><time>2026-05-03T09:46:38.155Z</time></trkpt><trkpt lat="42.9980404" lon="13.2384738"><ele>1401.142857142857</ele><time>2026-05-03T09:46:39.155Z</time></trkpt><trkpt lat="42.9979978" lon="13.2385505"><ele>1402.5714285714287</ele><time>2026-05-03T09:46:40.156Z</time></trkpt><trkpt lat="42.9979367" lon="13.2386243"><ele>1404.0</ele><time>2026-05-03T09:46:41.157Z</time></trkpt><trkpt lat="42.997873" lon="13.2386903"><ele>1404.0000000000002</ele><time>2026-05-03T09:46:42.155Z</time></trkpt><trkpt lat="42.9977992" lon="13.2387247"><ele>1404.0</ele><time>2026-05-03T09:46:43.155Z</time></trkpt><trkpt lat="42.9977298" lon="13.2387284"><ele>1404.0</ele><time>2026-05-03T09:46:44.155Z</time></trkpt><trkpt lat="42.9976583" lon="13.2387282"><ele>1404.0</ele><time>2026-05-03T09:46:45.157Z</time></trkpt><trkpt lat="42.9975844" lon="13.2387052"><ele>1404.0</ele><time>2026-05-03T09:46:46.155Z</time></trkpt><trkpt lat="42.9975123" lon="13.238669"><ele>1404.0000000000002</ele><time>2026-05-03T09:46:47.156Z</time></trkpt><trkpt lat="42.9974439" lon="13.2386186"><ele>1404.0</ele><time>2026-05-03T09:46:48.154Z</time></trkpt><trkpt lat="42.9973744" lon="13.2385429"><ele>1401.1666666666667</ele><time>2026-05-03T09:46:49.157Z</time></trkpt><trkpt lat="42.9973157" lon="13.2384514"><ele>1398.3333333333333</ele><time>2026-05-03T09:46:50.155Z</time></trkpt><trkpt lat="42.997254" lon="13.2383673"><ele>1395.5</ele><time>2026-05-03T09:46:51.156Z</time></trkpt><trkpt lat="42.9971944" lon="13.238271"><ele>1392.6666666666665</ele><time>2026-05-03T09:46:52.156Z</time></trkpt><trkpt lat="42.9971249" lon="13.2381889"><ele>1389.8333333333333</ele><time>2026-05-03T09:46:53.155Z</time></trkpt><trkpt lat="42.9970701" lon="13.2380969"><ele>1387.0</ele><time>2026-05-03T09:46:54.155Z</time></trkpt><trkpt lat="42.9970017" lon="13.2380252"><ele>1384.6</ele><time>2026-05-03T09:46:55.156Z</time></trkpt><trkpt lat="42.9969364" lon="13.2379477"><ele>1382.1999999999998</ele><time>2026-05-03T09:46:56.154Z</time></trkpt><trkpt lat="42.996859" lon="13.2378626"><ele>1379.8</ele><time>2026-05-03T09:46:57.155Z</time></trkpt><trkpt lat="42.9967879" lon="13.2377761"><ele>1377.4</ele><time>2026-05-03T09:46:58.154Z</time></trkpt><trkpt lat="42.9967166" lon="13.2376855"><ele>1375.0</ele><time>2026-05-03T09:46:59.155Z</time></trkpt><trkpt lat="42.996653" lon="13.2376045"><ele>1375.0</ele><time>2026-05-03T09:47:00.155Z</time></trkpt><trkpt lat="42.9965811" lon="13.2375357"><ele>1375.0</ele><time>2026-05-03T09:47:01.155Z</time></trkpt><trkpt lat="42.9965116" lon="13.2374485"><ele>1375.0</ele><time>2026-05-03T09:47:02.154Z</time></trkpt><trkpt lat="42.9964403" lon="13.2374071"><ele>1375.0</ele><time>2026-05-03T09:47:03.155Z</time></trkpt><trkpt lat="42.9963542" lon="13.2373633"><ele>1375.0</ele><time>2026-05-03T09:47:04.154Z</time></trkpt><trkpt lat="42.996273" lon="13.2373622"><ele>1375.0</ele><time>2026-05-03T09:47:05.156Z</time></trkpt><trkpt lat="42.9961955" lon="13.2373716"><ele>1375.0</ele><time>2026-05-03T09:47:06.154Z</time></trkpt><trkpt lat="42.9961181" lon="13.2373936"><ele>1375.0</ele><time>2026-05-03T09:47:07.154Z</time></trkpt><trkpt lat="42.9960237" lon="13.2374512"><ele>1375.0</ele><time>2026-05-03T09:47:08.155Z</time></trkpt><trkpt lat="42.9959648" lon="13.2375021"><ele>1375.0</ele><time>2026-05-03T09:47:09.156Z</time></trkpt><trkpt lat="42.9959018" lon="13.23756"><ele>1375.0</ele><time>2026-05-03T09:47:10.157Z</time></trkpt><trkpt lat="42.99585" lon="13.2376266"><ele>1375.0</ele><time>2026-05-03T09:47:11.155Z</time></trkpt><trkpt lat="42.9957837" lon="13.2376963"><ele>1374.5</ele><time>2026-05-03T09:47:12.156Z</time></trkpt><trkpt lat="42.9957206" lon="13.2377595"><ele>1374.0</ele><time>2026-05-03T09:47:13.154Z</time></trkpt><trkpt lat="42.995663" lon="13.2378249"><ele>1373.5</ele><time>2026-05-03T09:47:14.154Z</time></trkpt><trkpt lat="42.9956172" lon="13.2379"><ele>1373.0</ele><time>2026-05-03T09:47:15.154Z</time></trkpt><trkpt lat="42.9955573" lon="13.2379766"><ele>1372.5</ele><time>2026-05-03T09:47:16.154Z</time></trkpt><trkpt lat="42.9955004" lon="13.2380476"><ele>1372.0</ele><time>2026-05-03T09:47:17.155Z</time></trkpt><trkpt lat="42.9954288" lon="13.2381342"><ele>1376.1999999999998</ele><time>2026-05-03T09:47:18.155Z</time></trkpt><trkpt lat="42.9953722" lon="13.2382055"><ele>1380.4</ele><time>2026-05-03T09:47:19.155Z</time></trkpt><trkpt lat="42.9953041" lon="13.2382677"><ele>1384.6</ele><time>2026-05-03T09:47:20.156Z</time></trkpt><trkpt lat="42.9952322" lon="13.2383591"><ele>1388.8000000000002</ele><time>2026-05-03T09:47:21.154Z</time></trkpt><trkpt lat="42.9951629" lon="13.2384652"><ele>1393.0</ele><time>2026-05-03T09:47:22.154Z</time></trkpt><trkpt lat="42.9950856" lon="13.2385833"><ele>1387.6000000000001</ele><time>2026-05-03T09:47:23.154Z</time></trkpt><trkpt lat="42.9949948" lon="13.2386545"><ele>1382.2</ele><time>2026-05-03T09:47:24.155Z</time></trkpt><trkpt lat="42.9949113" lon="13.2387361"><ele>1376.8</ele><time>2026-05-03T09:47:25.155Z</time></trkpt><trkpt lat="42.9948123" lon="13.2388038"><ele>1371.4</ele><time>2026-05-03T09:47:26.157Z</time></trkpt><trkpt lat="42.9947033" lon="13.2388197"><ele>1366.0</ele><time>2026-05-03T09:47:27.155Z</time></trkpt><trkpt lat="42.9945999" lon="13.2388705"><ele>1366.0</ele><time>2026-05-03T09:47:28.155Z</time></trkpt><trkpt lat="42.9944986" lon="13.2389074"><ele>1366.0</ele><time>2026-05-03T09:47:29.155Z</time></trkpt><trkpt lat="42.9943832" lon="13.2388886"><ele>1366.0</ele><time>2026-05-03T09:47:30.155Z</time></trkpt><trkpt lat="42.9942726" lon="13.2389184"><ele>1366.0</ele><time>2026-05-03T09:47:31.155Z</time></trkpt><trkpt lat="42.9941626" lon="13.2389485"><ele>1366.0</ele><time>2026-05-03T09:47:32.156Z</time></trkpt><trkpt lat="42.9940571" lon="13.2389898"><ele>1369.0</ele><time>2026-05-03T09:47:33.155Z</time></trkpt><trkpt lat="42.9939482" lon="13.2390305"><ele>1372.0</ele><time>2026-05-03T09:47:34.151Z</time></trkpt><trkpt lat="42.9938401" lon="13.239118"><ele>1375.0</ele><time>2026-05-03T09:47:35.155Z</time></trkpt><trkpt lat="42.9937317" lon="13.2391683"><ele>1378.0</ele><time>2026-05-03T09:47:36.151Z</time></trkpt><trkpt lat="42.9936066" lon="13.2391784"><ele>1378.0</ele><time>2026-05-03T09:47:37.157Z</time></trkpt><trkpt lat="42.9935386" lon="13.2392989"><ele>1378.0</ele><time>2026-05-03T09:47:38.154Z</time></trkpt><trkpt lat="42.9934201" lon="13.2393481"><ele>1378.0</ele><time>2026-05-03T09:47:39.155Z</time></trkpt><trkpt lat="42.9932993" lon="13.2394064"><ele>1378.0</ele><time>2026-05-03T09:47:40.155Z</time></trkpt><trkpt lat="42.9931927" lon="13.2394497"><ele>1372.75</ele><time>2026-05-03T09:47:41.155Z</time></trkpt><trkpt lat="42.993078" lon="13.2394913"><ele>1367.5</ele><time>2026-05-03T09:47:42.155Z</time></trkpt><trkpt lat="42.9929639" lon="13.2395554"><ele>1362.25</ele><time>2026-05-03T09:47:43.154Z</time></trkpt><trkpt lat="42.9928504" lon="13.2396021"><ele>1357.0</ele><time>2026-05-03T09:47:44.155Z</time></trkpt><trkpt lat="42.9927415" lon="13.2396502"><ele>1357.0</ele><time>2026-05-03T09:47:45.155Z</time></trkpt><trkpt lat="42.9926273" lon="13.2396854"><ele>1357.0</ele><time>2026-05-03T09:47:46.154Z</time></trkpt><trkpt lat="42.9925068" lon="13.2397141"><ele>1357.0</ele><time>2026-05-03T09:47:47.156Z</time></trkpt><trkpt lat="42.9923857" lon="13.2396478"><ele>1357.0</ele><time>2026-05-03T09:47:48.156Z</time></trkpt><trkpt lat="42.9922746" lon="13.2396214"><ele>1355.1999999999998</ele><time>2026-05-03T09:47:49.156Z</time></trkpt><trkpt lat="42.9921715" lon="13.2395794"><ele>1353.4</ele><time>2026-05-03T09:47:50.162Z</time></trkpt><trkpt lat="42.992071" lon="13.2395446"><ele>1351.6</ele><time>2026-05-03T09:47:51.155Z</time></trkpt><trkpt lat="42.9919615" lon="13.2394725"><ele>1349.8000000000002</ele><time>2026-05-03T09:47:52.156Z</time></trkpt><trkpt lat="42.9918579" lon="13.2394469"><ele>1348.0</ele><time>2026-05-03T09:47:53.156Z</time></trkpt><trkpt lat="42.9917638" lon="13.2393981"><ele>1348.0</ele><time>2026-05-03T09:47:54.156Z</time></trkpt><trkpt lat="42.9916924" lon="13.2393529"><ele>1348.0</ele><time>2026-05-03T09:47:55.155Z</time></trkpt><trkpt lat="42.9916043" lon="13.2392998"><ele>1348.0</ele><time>2026-05-03T09:47:56.155Z</time></trkpt><trkpt lat="42.9915239" lon="13.2392664"><ele>1348.0</ele><time>2026-05-03T09:47:57.156Z</time></trkpt><trkpt lat="42.9914418" lon="13.2392454"><ele>1348.0</ele><time>2026-05-03T09:47:58.157Z</time></trkpt><trkpt lat="42.9913735" lon="13.2392162"><ele>1348.0</ele><time>2026-05-03T09:47:59.156Z</time></trkpt><trkpt lat="42.9913006" lon="13.2392"><ele>1347.5</ele><time>2026-05-03T09:48:00.157Z</time></trkpt><trkpt lat="42.9912317" lon="13.2391893"><ele>1347.0</ele><time>2026-05-03T09:48:01.157Z</time></trkpt><trkpt lat="42.9911554" lon="13.2391909"><ele>1346.5</ele><time>2026-05-03T09:48:02.155Z</time></trkpt><trkpt lat="42.9910811" lon="13.2391971"><ele>1346.0</ele><time>2026-05-03T09:48:03.155Z</time></trkpt><trkpt lat="42.9909457" lon="13.2391903"><ele>1345.5</ele><time>2026-05-03T09:48:05.154Z</time></trkpt><trkpt lat="42.9908608" lon="13.2391878"><ele>1345.0</ele><time>2026-05-03T09:48:06.156Z</time></trkpt><trkpt lat="42.9907722" lon="13.2391494"><ele>1345.0</ele><time>2026-05-03T09:48:07.156Z</time></trkpt><trkpt lat="42.9907" lon="13.2391059"><ele>1345.0</ele><time>2026-05-03T09:48:08.155Z</time></trkpt><trkpt lat="42.9906284" lon="13.2390402"><ele>1345.0</ele><time>2026-05-03T09:48:09.155Z</time></trkpt><trkpt lat="42.9905706" lon="13.2389568"><ele>1345.0</ele><time>2026-05-03T09:48:10.155Z</time></trkpt><trkpt lat="42.9905135" lon="13.2388883"><ele>1345.0</ele><time>2026-05-03T09:48:11.155Z</time></trkpt><trkpt lat="42.9904512" lon="13.2388195"><ele>1345.0</ele><time>2026-05-03T09:48:12.155Z</time></trkpt><trkpt lat="42.9903767" lon="13.2387723"><ele>1344.5</ele><time>2026-05-03T09:48:13.157Z</time></trkpt><trkpt lat="42.9902964" lon="13.2387871"><ele>1344.0</ele><time>2026-05-03T09:48:14.154Z</time></trkpt><trkpt lat="42.9902135" lon="13.2388209"><ele>1343.5</ele><time>2026-05-03T09:48:15.156Z</time></trkpt><trkpt lat="42.9901288" lon="13.2388747"><ele>1343.0</ele><time>2026-05-03T09:48:16.156Z</time></trkpt><trkpt lat="42.9900566" lon="13.2389318"><ele>1342.5</ele><time>2026-05-03T09:48:17.155Z</time></trkpt><trkpt lat="42.9899787" lon="13.2389973"><ele>1342.0</ele><time>2026-05-03T09:48:18.155Z</time></trkpt><trkpt lat="42.9899031" lon="13.2390707"><ele>1342.0</ele><time>2026-05-03T09:48:19.154Z</time></trkpt><trkpt lat="42.9898346" lon="13.2391429"><ele>1342.0</ele><time>2026-05-03T09:48:20.154Z</time></trkpt><trkpt lat="42.9897691" lon="13.2392113"><ele>1342.0</ele><time>2026-05-03T09:48:21.153Z</time></trkpt><trkpt lat="42.9897093" lon="13.239277"><ele>1342.0</ele><time>2026-05-03T09:48:22.152Z</time></trkpt><trkpt lat="42.9896476" lon="13.2393468"><ele>1342.0</ele><time>2026-05-03T09:48:23.155Z</time></trkpt><trkpt lat="42.9895944" lon="13.2394176"><ele>1342.0</ele><time>2026-05-03T09:48:24.154Z</time></trkpt><trkpt lat="42.9895492" lon="13.2394789"><ele>1342.0</ele><time>2026-05-03T09:48:25.156Z</time></trkpt><trkpt lat="42.9894581" lon="13.2395945"><ele>1342.0</ele><time>2026-05-03T09:48:27.156Z</time></trkpt><trkpt lat="42.9893751" lon="13.2397086"><ele>1342.0</ele><time>2026-05-03T09:48:29.156Z</time></trkpt><trkpt lat="42.9892841" lon="13.2398048"><ele>1342.0</ele><time>2026-05-03T09:48:31.155Z</time></trkpt><trkpt lat="42.9892152" lon="13.2399163"><ele>1341.6</ele><time>2026-05-03T09:48:33.155Z</time></trkpt><trkpt lat="42.9891423" lon="13.2400086"><ele>1341.1999999999998</ele><time>2026-05-03T09:48:35.156Z</time></trkpt><trkpt lat="42.9890753" lon="13.2401193"><ele>1340.8</ele><time>2026-05-03T09:48:37.155Z</time></trkpt><trkpt lat="42.9890098" lon="13.2402096"><ele>1340.4</ele><time>2026-05-03T09:48:39.155Z</time></trkpt><trkpt lat="42.9889398" lon="13.2403234"><ele>1340.0</ele><time>2026-05-03T09:48:41.156Z</time></trkpt><trkpt lat="42.9888815" lon="13.2404539"><ele>1340.0</ele><time>2026-05-03T09:48:43.156Z</time></trkpt><trkpt lat="42.9888495" lon="13.2405313"><ele>1340.0</ele><time>2026-05-03T09:48:44.154Z</time></trkpt><trkpt lat="42.988789" lon="13.2406818"><ele>1340.0</ele><time>2026-05-03T09:48:46.154Z</time></trkpt><trkpt lat="42.9887873" lon="13.2407915"><ele>1340.0</ele><time>2026-05-03T09:48:47.156Z</time></trkpt><trkpt lat="42.9887656" lon="13.2408757"><ele>1340.0</ele><time>2026-05-03T09:48:48.155Z</time></trkpt><trkpt lat="42.9887493" lon="13.2410455"><ele>1339.8</ele><time>2026-05-03T09:48:50.154Z</time></trkpt><trkpt lat="42.9887441" lon="13.241188"><ele>1339.6</ele><time>2026-05-03T09:48:52.155Z</time></trkpt><trkpt lat="42.9887203" lon="13.2413365"><ele>1339.4</ele><time>2026-05-03T09:48:54.156Z</time></trkpt><trkpt lat="42.9886674" lon="13.2414591"><ele>1339.2</ele><time>2026-05-03T09:48:56.155Z</time></trkpt><trkpt lat="42.9885842" lon="13.2415036"><ele>1339.0</ele><time>2026-05-03T09:48:58.155Z</time></trkpt><trkpt lat="42.9884801" lon="13.2414944"><ele>1338.1666666666665</ele><time>2026-05-03T09:49:00.156Z</time></trkpt><trkpt lat="42.9884123" lon="13.2415079"><ele>1337.3333333333333</ele><time>2026-05-03T09:49:02.156Z</time></trkpt><trkpt lat="42.9883434" lon="13.2415257"><ele>1336.5</ele><time>2026-05-03T09:49:04.156Z</time></trkpt><trkpt lat="42.9883007" lon="13.2416245"><ele>1335.6666666666667</ele><time>2026-05-03T09:49:07.154Z</time></trkpt><trkpt lat="42.9882705" lon="13.2417005"><ele>1334.8333333333335</ele><time>2026-05-03T09:49:09.154Z</time></trkpt><trkpt lat="42.9882428" lon="13.2418225"><ele>1334.0</ele><time>2026-05-03T09:49:12.156Z</time></trkpt><trkpt lat="42.9882075" lon="13.2419088"><ele>1334.0000000000002</ele><time>2026-05-03T09:49:15.157Z</time></trkpt><trkpt lat="42.9881831" lon="13.2420066"><ele>1334.0</ele><time>2026-05-03T09:49:18.156Z</time></trkpt><trkpt lat="42.9881756" lon="13.2420968"><ele>1334.0</ele><time>2026-05-03T09:49:22.153Z</time></trkpt><trkpt lat="42.9881312" lon="13.2421683"><ele>1334.0</ele><time>2026-05-03T09:49:28.152Z</time></trkpt><trkpt lat="42.9880561" lon="13.2421805"><ele>1334.0</ele><time>2026-05-03T09:49:32.154Z</time></trkpt><trkpt lat="42.9879958" lon="13.242208"><ele>1334.0000000000002</ele><time>2026-05-03T09:49:35.155Z</time></trkpt><trkpt lat="42.9879617" lon="13.2421328"><ele>1334.0</ele><time>2026-05-03T09:49:38.156Z</time></trkpt><trkpt lat="42.9880203" lon="13.2420244"><ele>1334.0</ele><time>2026-05-03T09:49:41.155Z</time></trkpt><trkpt lat="42.9880595" lon="13.2419412"><ele>1334.0</ele><time>2026-05-03T09:49:43.154Z</time></trkpt><trkpt lat="42.9880782" lon="13.241848"><ele>1334.0</ele><time>2026-05-03T09:49:45.153Z</time></trkpt><trkpt lat="42.9880876" lon="13.2417355"><ele>1334.0</ele><time>2026-05-03T09:49:48.158Z</time></trkpt><trkpt lat="42.9881093" lon="13.2416448"><ele>1334.0</ele><time>2026-05-03T09:49:51.156Z</time></trkpt><trkpt lat="42.9881616" lon="13.2415445"><ele>1334.0</ele><time>2026-05-03T09:49:54.157Z</time></trkpt><trkpt lat="42.9881963" lon="13.2414368"><ele>1334.0</ele><time>2026-05-03T09:49:57.155Z</time></trkpt><trkpt lat="42.9882252" lon="13.2413362"><ele>1334.0</ele><time>2026-05-03T09:50:00.157Z</time></trkpt><trkpt lat="42.9882532" lon="13.2412289"><ele>1334.0</ele><time>2026-05-03T09:50:03.156Z</time></trkpt><trkpt lat="42.9882753" lon="13.2411466"><ele>1334.0</ele><time>2026-05-03T09:50:06.155Z</time></trkpt><trkpt lat="42.9882727" lon="13.2410443"><ele>1334.0</ele><time>2026-05-03T09:50:09.156Z</time></trkpt><trkpt lat="42.9882184" lon="13.2409527"><ele>1334.0</ele><time>2026-05-03T09:50:13.156Z</time></trkpt><trkpt lat="42.9881769" lon="13.2408853"><ele>1334.0000000000002</ele><time>2026-05-03T09:50:15.156Z</time></trkpt><trkpt lat="42.9881556" lon="13.240777"><ele>1334.0</ele><time>2026-05-03T09:50:18.154Z</time></trkpt><trkpt lat="42.9881816" lon="13.2406779"><ele>1334.0</ele><time>2026-05-03T09:50:21.155Z</time></trkpt><trkpt lat="42.9881808" lon="13.2405853"><ele>1334.0</ele><time>2026-05-03T09:50:25.153Z</time></trkpt><trkpt lat="42.9881769" lon="13.2404886"><ele>1334.0</ele><time>2026-05-03T09:50:29.156Z</time></trkpt><trkpt lat="42.9881736" lon="13.2403946"><ele>1334.0000000000002</ele><time>2026-05-03T09:50:32.156Z</time></trkpt><trkpt lat="42.9881358" lon="13.2403045"><ele>1334.0</ele><time>2026-05-03T09:50:36.155Z</time></trkpt><trkpt lat="42.9880894" lon="13.2402256"><ele>1333.8000000000002</ele><time>2026-05-03T09:50:40.155Z</time></trkpt><trkpt lat="42.9880056" lon="13.2401618"><ele>1333.6000000000001</ele><time>2026-05-03T09:58:17.156Z</time></trkpt><trkpt lat="42.9880027" lon="13.2402557"><ele>1333.4</ele><time>2026-05-03T09:58:24.156Z</time></trkpt><trkpt lat="42.9880689" lon="13.2403084"><ele>1333.2</ele><time>2026-05-03T09:58:25.155Z</time></trkpt><trkpt lat="42.9881333" lon="13.2404195"><ele>1333.0</ele><time>2026-05-03T09:58:27.156Z</time></trkpt><trkpt lat="42.9881994" lon="13.2405589"><ele>1333.1666666666665</ele><time>2026-05-03T09:58:29.156Z</time></trkpt><trkpt lat="42.9882473" lon="13.2406973"><ele>1333.3333333333333</ele><time>2026-05-03T09:58:31.156Z</time></trkpt><trkpt lat="42.9882416" lon="13.2408405"><ele>1333.5</ele><time>2026-05-03T09:58:33.156Z</time></trkpt><trkpt lat="42.9882477" lon="13.2409378"><ele>1333.6666666666667</ele><time>2026-05-03T09:58:35.152Z</time></trkpt><trkpt lat="42.9882675" lon="13.2410214"><ele>1333.8333333333335</ele><time>2026-05-03T09:58:37.151Z</time></trkpt><trkpt lat="42.9883042" lon="13.2411229"><ele>1334.0</ele><time>2026-05-03T09:58:39.156Z</time></trkpt><trkpt lat="42.9883377" lon="13.2412042"><ele>1334.0</ele><time>2026-05-03T09:58:41.156Z</time></trkpt><trkpt lat="42.9883492" lon="13.2413169"><ele>1334.0</ele><time>2026-05-03T09:58:44.157Z</time></trkpt><trkpt lat="42.9883771" lon="13.2414416"><ele>1334.0</ele><time>2026-05-03T09:58:46.156Z</time></trkpt><trkpt lat="42.9884098" lon="13.2415249"><ele>1334.0</ele><time>2026-05-03T09:58:48.157Z</time></trkpt><trkpt lat="42.9884737" lon="13.2415656"><ele>1334.0</ele><time>2026-05-03T09:58:51.156Z</time></trkpt><trkpt lat="42.9885515" lon="13.2415115"><ele>1334.0</ele><time>2026-05-03T09:58:53.156Z</time></trkpt><trkpt lat="42.9886353" lon="13.241514"><ele>1334.0000000000002</ele><time>2026-05-03T09:58:56.154Z</time></trkpt><trkpt lat="42.9886987" lon="13.2414926"><ele>1334.0</ele><time>2026-05-03T09:58:58.157Z</time></trkpt><trkpt lat="42.9887437" lon="13.2414222"><ele>1334.0</ele><time>2026-05-03T09:59:02.156Z</time></trkpt><trkpt lat="42.9887502" lon="13.241335"><ele>1334.0</ele><time>2026-05-03T09:59:06.155Z</time></trkpt><trkpt lat="42.988808" lon="13.2412551"><ele>1334.0</ele><time>2026-05-03T09:59:10.157Z</time></trkpt><trkpt lat="42.9888744" lon="13.2412229"><ele>1334.0000000000002</ele><time>2026-05-03T09:59:12.157Z</time></trkpt><trkpt lat="42.9889496" lon="13.2412108"><ele>1334.0</ele><time>2026-05-03T09:59:14.156Z</time></trkpt><trkpt lat="42.9890213" lon="13.2412295"><ele>1334.0</ele><time>2026-05-03T09:59:16.156Z</time></trkpt><trkpt lat="42.9890617" lon="13.2413037"><ele>1334.0</ele><time>2026-05-03T09:59:18.155Z</time></trkpt><trkpt lat="42.9890553" lon="13.2414697"><ele>1334.0</ele><time>2026-05-03T09:59:20.157Z</time></trkpt><trkpt lat="42.9890914" lon="13.2416249"><ele>1334.0</ele><time>2026-05-03T09:59:22.155Z</time></trkpt><trkpt lat="42.9891091" lon="13.2417189"><ele>1334.0</ele><time>2026-05-03T09:59:23.157Z</time></trkpt><trkpt lat="42.9891247" lon="13.241818"><ele>1334.0</ele><time>2026-05-03T09:59:24.154Z</time></trkpt><trkpt lat="42.9891342" lon="13.2419079"><ele>1334.0</ele><time>2026-05-03T09:59:25.156Z</time></trkpt><trkpt lat="42.9892017" lon="13.242017"><ele>1334.0</ele><time>2026-05-03T09:59:27.156Z</time></trkpt><trkpt lat="42.9892842" lon="13.2420004"><ele>1334.0</ele><time>2026-05-03T09:59:29.155Z</time></trkpt><trkpt lat="42.9892244" lon="13.2419336"><ele>1334.0</ele><time>2026-05-03T10:01:11.155Z</time></trkpt><trkpt lat="42.9892644" lon="13.2420155"><ele>1334.0</ele><time>2026-05-03T10:07:16.158Z</time></trkpt><trkpt lat="42.9891966" lon="13.2420352"><ele>1334.0</ele><time>2026-05-03T10:07:23.158Z</time></trkpt><trkpt lat="42.9891671" lon="13.241955"><ele>1334.0</ele><time>2026-05-03T10:07:25.155Z</time></trkpt><trkpt lat="42.9891619" lon="13.2418466"><ele>1334.0</ele><time>2026-05-03T10:07:27.156Z</time></trkpt><trkpt lat="42.9891431" lon="13.2417466"><ele>1334.0</ele><time>2026-05-03T10:07:29.156Z</time></trkpt><trkpt lat="42.9891235" lon="13.2416435"><ele>1334.0</ele><time>2026-05-03T10:07:31.156Z</time></trkpt><trkpt lat="42.9890919" lon="13.2415476"><ele>1334.0</ele><time>2026-05-03T10:07:33.158Z</time></trkpt><trkpt lat="42.9890439" lon="13.2414449"><ele>1334.8333333333335</ele><time>2026-05-03T10:07:36.152Z</time></trkpt><trkpt lat="42.9890233" lon="13.2413438"><ele>1335.6666666666667</ele><time>2026-05-03T10:07:39.154Z</time></trkpt><trkpt lat="42.9889714" lon="13.2412461"><ele>1336.5</ele><time>2026-05-03T10:07:42.158Z</time></trkpt><trkpt lat="42.9888997" lon="13.2411822"><ele>1337.3333333333333</ele><time>2026-05-03T10:07:45.156Z</time></trkpt><trkpt lat="42.9888321" lon="13.2411328"><ele>1338.1666666666665</ele><time>2026-05-03T10:07:48.158Z</time></trkpt><trkpt lat="42.9887731" lon="13.2410505"><ele>1339.0</ele><time>2026-05-03T10:07:52.155Z</time></trkpt><trkpt lat="42.9887334" lon="13.2409674"><ele>1339.0</ele><time>2026-05-03T10:07:55.157Z</time></trkpt><trkpt lat="42.9886572" lon="13.240928"><ele>1339.0</ele><time>2026-05-03T10:07:58.156Z</time></trkpt><trkpt lat="42.9885725" lon="13.2408762"><ele>1339.0</ele><time>2026-05-03T10:08:00.157Z</time></trkpt><trkpt lat="42.9884905" lon="13.2408373"><ele>1339.0</ele><time>2026-05-03T10:08:02.155Z</time></trkpt><trkpt lat="42.9883891" lon="13.2407665"><ele>1339.0</ele><time>2026-05-03T10:08:04.157Z</time></trkpt><trkpt lat="42.9883017" lon="13.2406713"><ele>1338.0</ele><time>2026-05-03T10:08:06.156Z</time></trkpt><trkpt lat="42.9882227" lon="13.2405858"><ele>1337.0</ele><time>2026-05-03T10:08:08.158Z</time></trkpt><trkpt lat="42.9881544" lon="13.240489"><ele>1336.0</ele><time>2026-05-03T10:08:10.154Z</time></trkpt><trkpt lat="42.9881175" lon="13.2404127"><ele>1335.0</ele><time>2026-05-03T10:08:12.154Z</time></trkpt><trkpt lat="42.9880856" lon="13.2403383"><ele>1334.0</ele><time>2026-05-03T10:08:14.157Z</time></trkpt><trkpt lat="42.9880458" lon="13.2402681"><ele>1333.0</ele><time>2026-05-03T10:08:16.156Z</time></trkpt><trkpt lat="42.9880006" lon="13.2401908"><ele>1333.0</ele><time>2026-05-03T10:08:19.154Z</time></trkpt><trkpt lat="42.9879491" lon="13.2401113"><ele>1333.0</ele><time>2026-05-03T10:08:22.156Z</time></trkpt><trkpt lat="42.9878993" lon="13.2400312"><ele>1333.0</ele><time>2026-05-03T10:08:25.154Z</time></trkpt><trkpt lat="42.987862" lon="13.2399288"><ele>1333.0</ele><time>2026-05-03T10:08:28.154Z</time></trkpt><trkpt lat="42.9878284" lon="13.2398368"><ele>1333.0</ele><time>2026-05-03T10:08:31.156Z</time></trkpt><trkpt lat="42.9877769" lon="13.2397791"><ele>1333.0</ele><time>2026-05-03T10:08:34.156Z</time></trkpt><trkpt lat="42.9877193" lon="13.2397193"><ele>1332.5</ele><time>2026-05-03T10:08:37.156Z</time></trkpt><trkpt lat="42.9876521" lon="13.2396464"><ele>1332.0</ele><time>2026-05-03T10:08:41.157Z</time></trkpt><trkpt lat="42.9875941" lon="13.2395901"><ele>1331.5</ele><time>2026-05-03T10:08:45.156Z</time></trkpt><trkpt lat="42.9875387" lon="13.2395402"><ele>1331.0</ele><time>2026-05-03T10:08:48.157Z</time></trkpt><trkpt lat="42.9874701" lon="13.2394895"><ele>1330.5</ele><time>2026-05-03T10:08:52.156Z</time></trkpt><trkpt lat="42.9873899" lon="13.2394535"><ele>1330.0</ele><time>2026-05-03T10:08:56.157Z</time></trkpt><trkpt lat="42.9873083" lon="13.2394155"><ele>1330.0</ele><time>2026-05-03T10:09:00.155Z</time></trkpt><trkpt lat="42.9872383" lon="13.2393701"><ele>1330.0</ele><time>2026-05-03T10:09:04.156Z</time></trkpt><trkpt lat="42.9871713" lon="13.2393519"><ele>1330.0</ele><time>2026-05-03T10:09:07.157Z</time></trkpt><trkpt lat="42.9870874" lon="13.2393061"><ele>1330.0</ele><time>2026-05-03T10:09:10.151Z</time></trkpt><trkpt lat="42.9870134" lon="13.2393137"><ele>1330.0</ele><time>2026-05-03T10:09:14.156Z</time></trkpt><trkpt lat="42.9869457" lon="13.2393253"><ele>1330.0</ele><time>2026-05-03T10:09:17.156Z</time></trkpt><trkpt lat="42.986877" lon="13.239345"><ele>1330.0</ele><time>2026-05-03T10:09:20.158Z</time></trkpt><trkpt lat="42.9868131" lon="13.2393492"><ele>1330.0</ele><time>2026-05-03T10:09:23.157Z</time></trkpt><trkpt lat="42.9867409" lon="13.2393627"><ele>1330.0</ele><time>2026-05-03T10:09:26.157Z</time></trkpt><trkpt lat="42.9866706" lon="13.23937"><ele>1330.0</ele><time>2026-05-03T10:09:29.157Z</time></trkpt><trkpt lat="42.986606" lon="13.2393447"><ele>1330.0</ele><time>2026-05-03T10:09:32.154Z</time></trkpt><trkpt lat="42.9865329" lon="13.2393502"><ele>1330.0</ele><time>2026-05-03T10:09:35.156Z</time></trkpt><trkpt lat="42.9864577" lon="13.2393546"><ele>1330.0</ele><time>2026-05-03T10:09:38.157Z</time></trkpt><trkpt lat="42.9863784" lon="13.2393585"><ele>1330.0</ele><time>2026-05-03T10:09:42.158Z</time></trkpt><trkpt lat="42.986311" lon="13.2393623"><ele>1331.2857142857142</ele><time>2026-05-03T10:09:45.151Z</time></trkpt><trkpt lat="42.9862383" lon="13.2393544"><ele>1332.5714285714284</ele><time>2026-05-03T10:09:49.157Z</time></trkpt><trkpt lat="42.9861597" lon="13.2393903"><ele>1333.857142857143</ele><time>2026-05-03T10:09:53.157Z</time></trkpt><trkpt lat="42.9860989" lon="13.2394313"><ele>1335.142857142857</ele><time>2026-05-03T10:09:56.156Z</time></trkpt><trkpt lat="42.9860337" lon="13.2394611"><ele>1336.4285714285713</ele><time>2026-05-03T10:10:00.156Z</time></trkpt><trkpt lat="42.98597" lon="13.2395166"><ele>1337.7142857142858</ele><time>2026-05-03T10:10:04.155Z</time></trkpt><trkpt lat="42.98593" lon="13.2395944"><ele>1339.0</ele><time>2026-05-03T10:10:07.156Z</time></trkpt><trkpt lat="42.9858769" lon="13.2396704"><ele>1338.8333333333333</ele><time>2026-05-03T10:10:10.154Z</time></trkpt><trkpt lat="42.9858288" lon="13.2397607"><ele>1338.6666666666665</ele><time>2026-05-03T10:10:13.157Z</time></trkpt><trkpt lat="42.9857805" lon="13.2398488"><ele>1338.5</ele><time>2026-05-03T10:10:17.157Z</time></trkpt><trkpt lat="42.9857406" lon="13.2399338"><ele>1338.3333333333333</ele><time>2026-05-03T10:10:22.158Z</time></trkpt><trkpt lat="42.9857081" lon="13.2400232"><ele>1338.1666666666667</ele><time>2026-05-03T10:10:26.157Z</time></trkpt><trkpt lat="42.9856848" lon="13.2401295"><ele>1338.0</ele><time>2026-05-03T10:10:31.157Z</time></trkpt><trkpt lat="42.9856771" lon="13.2402207"><ele>1342.142857142857</ele><time>2026-05-03T10:10:35.156Z</time></trkpt><trkpt lat="42.9856555" lon="13.2403101"><ele>1346.2857142857142</ele><time>2026-05-03T10:10:39.156Z</time></trkpt><trkpt lat="42.9856379" lon="13.2404013"><ele>1350.4285714285716</ele><time>2026-05-03T10:10:43.157Z</time></trkpt><trkpt lat="42.9856251" lon="13.2404866"><ele>1354.5714285714284</ele><time>2026-05-03T10:10:46.156Z</time></trkpt><trkpt lat="42.9856056" lon="13.2406053"><ele>1358.7142857142856</ele><time>2026-05-03T10:10:50.156Z</time></trkpt><trkpt lat="42.9855871" lon="13.2407046"><ele>1362.857142857143</ele><time>2026-05-03T10:10:53.157Z</time></trkpt><trkpt lat="42.9855811" lon="13.2408039"><ele>1367.0</ele><time>2026-05-03T10:10:56.155Z</time></trkpt><trkpt lat="42.9855668" lon="13.2409177"><ele>1369.5</ele><time>2026-05-03T10:10:59.156Z</time></trkpt><trkpt lat="42.9855579" lon="13.2410094"><ele>1372.0</ele><time>2026-05-03T10:11:02.156Z</time></trkpt><trkpt lat="42.9855302" lon="13.2411056"><ele>1374.5</ele><time>2026-05-03T10:11:05.157Z</time></trkpt><trkpt lat="42.9854869" lon="13.2411867"><ele>1377.0</ele><time>2026-05-03T10:11:08.155Z</time></trkpt><trkpt lat="42.9854311" lon="13.2412637"><ele>1379.5</ele><time>2026-05-03T10:11:11.153Z</time></trkpt><trkpt lat="42.9853619" lon="13.2412919"><ele>1382.0</ele><time>2026-05-03T10:11:14.157Z</time></trkpt><trkpt lat="42.9852885" lon="13.2412243"><ele>1382.0</ele><time>2026-05-03T10:11:17.154Z</time></trkpt><trkpt lat="42.9852324" lon="13.2411349"><ele>1382.0</ele><time>2026-05-03T10:11:20.157Z</time></trkpt><trkpt lat="42.9851841" lon="13.2410542"><ele>1382.0</ele><time>2026-05-03T10:11:23.157Z</time></trkpt><trkpt lat="42.9851263" lon="13.2409741"><ele>1382.0</ele><time>2026-05-03T10:11:26.157Z</time></trkpt><trkpt lat="42.985065" lon="13.2409013"><ele>1382.0</ele><time>2026-05-03T10:11:29.157Z</time></trkpt><trkpt lat="42.985003" lon="13.2408191"><ele>1382.0</ele><time>2026-05-03T10:11:32.156Z</time></trkpt><trkpt lat="42.9849488" lon="13.2407632"><ele>1380.5</ele><time>2026-05-03T10:11:35.157Z</time></trkpt><trkpt lat="42.9848726" lon="13.2407077"><ele>1379.0</ele><time>2026-05-03T10:11:38.157Z</time></trkpt><trkpt lat="42.9847943" lon="13.240663"><ele>1377.5</ele><time>2026-05-03T10:11:41.156Z</time></trkpt><trkpt lat="42.9847087" lon="13.2406545"><ele>1376.0</ele><time>2026-05-03T10:11:44.158Z</time></trkpt><trkpt lat="42.9846394" lon="13.2406426"><ele>1374.5</ele><time>2026-05-03T10:11:47.158Z</time></trkpt><trkpt lat="42.9845719" lon="13.2406257"><ele>1373.0</ele><time>2026-05-03T10:11:50.156Z</time></trkpt><trkpt lat="42.9844928" lon="13.2406006"><ele>1373.0</ele><time>2026-05-03T10:11:54.156Z</time></trkpt><trkpt lat="42.9844112" lon="13.2406046"><ele>1373.0</ele><time>2026-05-03T10:11:58.156Z</time></trkpt><trkpt lat="42.9843391" lon="13.240643"><ele>1373.0</ele><time>2026-05-03T10:12:02.156Z</time></trkpt><trkpt lat="42.984278" lon="13.2406657"><ele>1373.0</ele><time>2026-05-03T10:12:05.154Z</time></trkpt><trkpt lat="42.9842039" lon="13.240669"><ele>1373.0</ele><time>2026-05-03T10:12:09.157Z</time></trkpt><trkpt lat="42.9841296" lon="13.2406898"><ele>1373.0</ele><time>2026-05-03T10:12:13.156Z</time></trkpt><trkpt lat="42.9840634" lon="13.2407103"><ele>1373.0</ele><time>2026-05-03T10:12:16.157Z</time></trkpt><trkpt lat="42.9839906" lon="13.2407397"><ele>1373.2857142857142</ele><time>2026-05-03T10:12:19.155Z</time></trkpt><trkpt lat="42.9839159" lon="13.2407681"><ele>1373.5714285714284</ele><time>2026-05-03T10:12:23.159Z</time></trkpt><trkpt lat="42.9838629" lon="13.2408258"><ele>1373.8571428571427</ele><time>2026-05-03T10:12:26.156Z</time></trkpt><trkpt lat="42.9837961" lon="13.2408473"><ele>1374.142857142857</ele><time>2026-05-03T10:12:29.156Z</time></trkpt><trkpt lat="42.983722" lon="13.2408804"><ele>1374.4285714285713</ele><time>2026-05-03T10:12:33.157Z</time></trkpt><trkpt lat="42.9836608" lon="13.2409328"><ele>1374.7142857142856</ele><time>2026-05-03T10:12:37.155Z</time></trkpt><trkpt lat="42.9836186" lon="13.241017"><ele>1375.0</ele><time>2026-05-03T10:12:41.155Z</time></trkpt><trkpt lat="42.9835913" lon="13.2411161"><ele>1374.9999999999998</ele><time>2026-05-03T10:12:44.155Z</time></trkpt><trkpt lat="42.9835551" lon="13.2412062"><ele>1375.0</ele><time>2026-05-03T10:12:48.157Z</time></trkpt><trkpt lat="42.9835047" lon="13.2412746"><ele>1375.0</ele><time>2026-05-03T10:12:52.157Z</time></trkpt><trkpt lat="42.9834318" lon="13.2412941"><ele>1375.0</ele><time>2026-05-03T10:12:57.156Z</time></trkpt><trkpt lat="42.9833709" lon="13.2413478"><ele>1375.0</ele><time>2026-05-03T10:13:01.157Z</time></trkpt><trkpt lat="42.9833056" lon="13.2413341"><ele>1374.9999999999998</ele><time>2026-05-03T10:13:05.154Z</time></trkpt><trkpt lat="42.9832401" lon="13.2412819"><ele>1375.0</ele><time>2026-05-03T10:13:10.154Z</time></trkpt><trkpt lat="42.9831649" lon="13.2412446"><ele>1375.8333333333333</ele><time>2026-05-03T10:13:14.154Z</time></trkpt><trkpt lat="42.9831054" lon="13.2412059"><ele>1376.6666666666665</ele><time>2026-05-03T10:13:18.156Z</time></trkpt><trkpt lat="42.9830332" lon="13.2411741"><ele>1377.5</ele><time>2026-05-03T10:13:21.159Z</time></trkpt><trkpt lat="42.9829603" lon="13.2411315"><ele>1378.3333333333333</ele><time>2026-05-03T10:13:25.156Z</time></trkpt><trkpt lat="42.9828764" lon="13.2411056"><ele>1379.1666666666667</ele><time>2026-05-03T10:13:29.157Z</time></trkpt><trkpt lat="42.9828012" lon="13.2410781"><ele>1380.0</ele><time>2026-05-03T10:13:33.154Z</time></trkpt><trkpt lat="42.9827352" lon="13.2410867"><ele>1380.0</ele><time>2026-05-03T10:13:36.154Z</time></trkpt><trkpt lat="42.982665" lon="13.2411105"><ele>1380.0</ele><time>2026-05-03T10:13:40.156Z</time></trkpt><trkpt lat="42.9826009" lon="13.2411399"><ele>1380.0</ele><time>2026-05-03T10:13:43.157Z</time></trkpt><trkpt lat="42.9825158" lon="13.2412004"><ele>1380.0</ele><time>2026-05-03T10:13:47.161Z</time></trkpt><trkpt lat="42.9824512" lon="13.2412646"><ele>1380.0</ele><time>2026-05-03T10:13:50.155Z</time></trkpt><trkpt lat="42.9823747" lon="13.2412718"><ele>1380.0</ele><time>2026-05-03T10:13:54.157Z</time></trkpt><trkpt lat="42.9822976" lon="13.2412957"><ele>1380.2857142857142</ele><time>2026-05-03T10:13:58.156Z</time></trkpt><trkpt lat="42.9822341" lon="13.2413024"><ele>1380.5714285714284</ele><time>2026-05-03T10:14:02.155Z</time></trkpt><trkpt lat="42.982171" lon="13.2413017"><ele>1380.8571428571427</ele><time>2026-05-03T10:14:05.155Z</time></trkpt><trkpt lat="42.9821062" lon="13.2413068"><ele>1381.142857142857</ele><time>2026-05-03T10:14:08.156Z</time></trkpt><trkpt lat="42.9820277" lon="13.2413227"><ele>1381.4285714285713</ele><time>2026-05-03T10:14:12.158Z</time></trkpt><trkpt lat="42.9819497" lon="13.2413481"><ele>1381.7142857142856</ele><time>2026-05-03T10:14:16.156Z</time></trkpt><trkpt lat="42.9818681" lon="13.241365"><ele>1382.0</ele><time>2026-05-03T10:14:20.155Z</time></trkpt><trkpt lat="42.9817916" lon="13.241377"><ele>1381.9999999999998</ele><time>2026-05-03T10:14:24.155Z</time></trkpt><trkpt lat="42.981718" lon="13.2413853"><ele>1382.0</ele><time>2026-05-03T10:14:28.156Z</time></trkpt><trkpt lat="42.9816563" lon="13.2414138"><ele>1382.0</ele><time>2026-05-03T10:14:31.156Z</time></trkpt><trkpt lat="42.9815733" lon="13.24144"><ele>1382.0</ele><time>2026-05-03T10:14:35.156Z</time></trkpt><trkpt lat="42.9815095" lon="13.2414471"><ele>1382.0</ele><time>2026-05-03T10:14:38.158Z</time></trkpt><trkpt lat="42.981447" lon="13.2414742"><ele>1381.9999999999998</ele><time>2026-05-03T10:14:41.157Z</time></trkpt><trkpt lat="42.9813854" lon="13.241492"><ele>1382.0</ele><time>2026-05-03T10:14:44.162Z</time></trkpt><trkpt lat="42.9813133" lon="13.2415132"><ele>1387.8333333333335</ele><time>2026-05-03T10:14:47.155Z</time></trkpt><trkpt lat="42.9812369" lon="13.2415326"><ele>1393.6666666666667</ele><time>2026-05-03T10:14:51.156Z</time></trkpt><trkpt lat="42.9811647" lon="13.241566"><ele>1399.5</ele><time>2026-05-03T10:14:55.157Z</time></trkpt><trkpt lat="42.98109" lon="13.241609"><ele>1405.3333333333333</ele><time>2026-05-03T10:14:58.156Z</time></trkpt><trkpt lat="42.9810149" lon="13.2416005"><ele>1411.1666666666665</ele><time>2026-05-03T10:15:02.155Z</time></trkpt><trkpt lat="42.980936" lon="13.2416075"><ele>1417.0</ele><time>2026-05-03T10:15:06.157Z</time></trkpt><trkpt lat="42.9808627" lon="13.2416175"><ele>1416.142857142857</ele><time>2026-05-03T10:15:10.155Z</time></trkpt><trkpt lat="42.9807965" lon="13.2416125"><ele>1415.2857142857142</ele><time>2026-05-03T10:15:14.157Z</time></trkpt><trkpt lat="42.9807323" lon="13.2415892"><ele>1414.4285714285716</ele><time>2026-05-03T10:15:17.159Z</time></trkpt><trkpt lat="42.9806477" lon="13.2416107"><ele>1413.5714285714284</ele><time>2026-05-03T10:15:21.157Z</time></trkpt><trkpt lat="42.9805661" lon="13.2416184"><ele>1412.7142857142858</ele><time>2026-05-03T10:15:25.157Z</time></trkpt><trkpt lat="42.9805021" lon="13.2416557"><ele>1411.857142857143</ele><time>2026-05-03T10:15:28.157Z</time></trkpt><trkpt lat="42.9804277" lon="13.2416563"><ele>1411.0</ele><time>2026-05-03T10:15:32.156Z</time></trkpt><trkpt lat="42.9803621" lon="13.2416841"><ele>1411.0000000000002</ele><time>2026-05-03T10:15:36.151Z</time></trkpt><trkpt lat="42.9802791" lon="13.2417119"><ele>1411.0</ele><time>2026-05-03T10:15:41.156Z</time></trkpt><trkpt lat="42.9802083" lon="13.2417439"><ele>1411.0</ele><time>2026-05-03T10:15:45.157Z</time></trkpt><trkpt lat="42.98014" lon="13.2417757"><ele>1411.0</ele><time>2026-05-03T10:15:48.157Z</time></trkpt><trkpt lat="42.9800741" lon="13.2417975"><ele>1411.0</ele><time>2026-05-03T10:15:51.156Z</time></trkpt><trkpt lat="42.980008" lon="13.2418074"><ele>1411.0000000000002</ele><time>2026-05-03T10:15:54.157Z</time></trkpt><trkpt lat="42.9799288" lon="13.2418265"><ele>1411.0</ele><time>2026-05-03T10:15:58.158Z</time></trkpt><trkpt lat="42.979862" lon="13.2418581"><ele>1411.5714285714287</ele><time>2026-05-03T10:16:01.155Z</time></trkpt><trkpt lat="42.9797878" lon="13.2418737"><ele>1412.142857142857</ele><time>2026-05-03T10:16:04.156Z</time></trkpt><trkpt lat="42.9797343" lon="13.2419211"><ele>1412.7142857142858</ele><time>2026-05-03T10:16:07.156Z</time></trkpt><trkpt lat="42.9796754" lon="13.2419574"><ele>1413.2857142857142</ele><time>2026-05-03T10:16:10.154Z</time></trkpt><trkpt lat="42.9796016" lon="13.2419771"><ele>1413.857142857143</ele><time>2026-05-03T10:16:15.156Z</time></trkpt><trkpt lat="42.9795312" lon="13.2419867"><ele>1414.4285714285716</ele><time>2026-05-03T10:16:19.156Z</time></trkpt><trkpt lat="42.9794508" lon="13.2420036"><ele>1415.0</ele><time>2026-05-03T10:16:23.157Z</time></trkpt><trkpt lat="42.979376" lon="13.2420256"><ele>1415.0</ele><time>2026-05-03T10:16:27.157Z</time></trkpt><trkpt lat="42.9793024" lon="13.2420128"><ele>1415.0</ele><time>2026-05-03T10:16:31.152Z</time></trkpt><trkpt lat="42.9792326" lon="13.2420082"><ele>1415.0</ele><time>2026-05-03T10:16:35.156Z</time></trkpt><trkpt lat="42.9791579" lon="13.2420456"><ele>1415.0</ele><time>2026-05-03T10:16:39.156Z</time></trkpt><trkpt lat="42.9790761" lon="13.2420123"><ele>1415.0</ele><time>2026-05-03T10:16:42.156Z</time></trkpt><trkpt lat="42.9790071" lon="13.2420175"><ele>1415.0</ele><time>2026-05-03T10:16:45.155Z</time></trkpt><trkpt lat="42.9789294" lon="13.2420272"><ele>1415.142857142857</ele><time>2026-05-03T10:16:48.158Z</time></trkpt><trkpt lat="42.9788549" lon="13.2420501"><ele>1415.2857142857142</ele><time>2026-05-03T10:16:51.156Z</time></trkpt><trkpt lat="42.978791" lon="13.2420452"><ele>1415.4285714285716</ele><time>2026-05-03T10:16:54.151Z</time></trkpt><trkpt lat="42.9787244" lon="13.2420332"><ele>1415.5714285714284</ele><time>2026-05-03T10:16:57.154Z</time></trkpt><trkpt lat="42.9786555" lon="13.2420347"><ele>1415.7142857142856</ele><time>2026-05-03T10:17:01.158Z</time></trkpt><trkpt lat="42.9785772" lon="13.2420173"><ele>1415.857142857143</ele><time>2026-05-03T10:17:05.156Z</time></trkpt><trkpt lat="42.9784959" lon="13.2420017"><ele>1416.0</ele><time>2026-05-03T10:17:09.154Z</time></trkpt><trkpt lat="42.9784187" lon="13.2419791"><ele>1416.8333333333333</ele><time>2026-05-03T10:17:12.156Z</time></trkpt><trkpt lat="42.9783447" lon="13.2419542"><ele>1417.6666666666667</ele><time>2026-05-03T10:17:16.154Z</time></trkpt><trkpt lat="42.9782656" lon="13.2419435"><ele>1418.5</ele><time>2026-05-03T10:17:19.155Z</time></trkpt><trkpt lat="42.9781864" lon="13.241928"><ele>1419.3333333333335</ele><time>2026-05-03T10:17:26.156Z</time></trkpt><trkpt lat="42.9781181" lon="13.2419319"><ele>1420.1666666666667</ele><time>2026-05-03T10:17:29.156Z</time></trkpt><trkpt lat="42.9780441" lon="13.2419429"><ele>1421.0</ele><time>2026-05-03T10:17:32.156Z</time></trkpt><trkpt lat="42.9779651" lon="13.2419359"><ele>1421.0</ele><time>2026-05-03T10:17:35.156Z</time></trkpt><trkpt lat="42.9778906" lon="13.2419385"><ele>1421.0</ele><time>2026-05-03T10:17:38.154Z</time></trkpt><trkpt lat="42.9778223" lon="13.2419434"><ele>1421.0</ele><time>2026-05-03T10:17:41.156Z</time></trkpt><trkpt lat="42.977741" lon="13.2419535"><ele>1421.0</ele><time>2026-05-03T10:17:45.153Z</time></trkpt><trkpt lat="42.9776593" lon="13.2419495"><ele>1421.0</ele><time>2026-05-03T10:17:49.158Z</time></trkpt><trkpt lat="42.9775825" lon="13.2419599"><ele>1421.0</ele><time>2026-05-03T10:17:52.159Z</time></trkpt><trkpt lat="42.9775061" lon="13.241978"><ele>1422.142857142857</ele><time>2026-05-03T10:17:55.156Z</time></trkpt><trkpt lat="42.9774323" lon="13.2419807"><ele>1423.2857142857142</ele><time>2026-05-03T10:17:58.152Z</time></trkpt><trkpt lat="42.9773542" lon="13.2419955"><ele>1424.4285714285716</ele><time>2026-05-03T10:18:01.155Z</time></trkpt><trkpt lat="42.977281" lon="13.2420172"><ele>1425.5714285714284</ele><time>2026-05-03T10:18:04.155Z</time></trkpt><trkpt lat="42.9772151" lon="13.2420322"><ele>1426.7142857142858</ele><time>2026-05-03T10:18:07.159Z</time></trkpt><trkpt lat="42.9771738" lon="13.2421157"><ele>1427.857142857143</ele><time>2026-05-03T10:18:10.155Z</time></trkpt><trkpt lat="42.9771074" lon="13.2421363"><ele>1429.0</ele><time>2026-05-03T10:18:13.157Z</time></trkpt><trkpt lat="42.977021" lon="13.2421679"><ele>1429.0</ele><time>2026-05-03T10:18:17.155Z</time></trkpt><trkpt lat="42.976939" lon="13.2421437"><ele>1429.0</ele><time>2026-05-03T10:18:20.154Z</time></trkpt><trkpt lat="42.9768864" lon="13.2420914"><ele>1429.0</ele><time>2026-05-03T10:18:23.153Z</time></trkpt><trkpt lat="42.9768311" lon="13.2420225"><ele>1429.0</ele><time>2026-05-03T10:18:26.155Z</time></trkpt><trkpt lat="42.9767748" lon="13.2419625"><ele>1429.0</ele><time>2026-05-03T10:18:29.155Z</time></trkpt><trkpt lat="42.9767044" lon="13.2419065"><ele>1429.0</ele><time>2026-05-03T10:18:32.154Z</time></trkpt><trkpt lat="42.9766491" lon="13.2418347"><ele>1431.1666666666665</ele><time>2026-05-03T10:18:35.152Z</time></trkpt><trkpt lat="42.9765805" lon="13.2417792"><ele>1433.3333333333333</ele><time>2026-05-03T10:18:38.153Z</time></trkpt><trkpt lat="42.9765101" lon="13.2417251"><ele>1435.5</ele><time>2026-05-03T10:18:41.155Z</time></trkpt><trkpt lat="42.9764449" lon="13.2416846"><ele>1437.6666666666667</ele><time>2026-05-03T10:18:44.154Z</time></trkpt><trkpt lat="42.9763777" lon="13.2416399"><ele>1439.8333333333335</ele><time>2026-05-03T10:18:47.157Z</time></trkpt><trkpt lat="42.9762987" lon="13.2416054"><ele>1442.0</ele><time>2026-05-03T10:18:51.155Z</time></trkpt><trkpt lat="42.9762346" lon="13.2415538"><ele>1442.0</ele><time>2026-05-03T10:18:55.153Z</time></trkpt><trkpt lat="42.9761581" lon="13.2414991"><ele>1442.0</ele><time>2026-05-03T10:18:59.154Z</time></trkpt><trkpt lat="42.9760994" lon="13.2414659"><ele>1442.0</ele><time>2026-05-03T10:19:02.157Z</time></trkpt><trkpt lat="42.9760407" lon="13.2414325"><ele>1442.0</ele><time>2026-05-03T10:19:05.152Z</time></trkpt><trkpt lat="42.9759705" lon="13.2413679"><ele>1442.0</ele><time>2026-05-03T10:19:09.152Z</time></trkpt><trkpt lat="42.9759043" lon="13.2413663"><ele>1442.0</ele><time>2026-05-03T10:19:13.154Z</time></trkpt><trkpt lat="42.975843" lon="13.2413437"><ele>1442.0</ele><time>2026-05-03T10:19:16.156Z</time></trkpt><trkpt lat="42.9757789" lon="13.2412913"><ele>1441.8333333333335</ele><time>2026-05-03T10:19:19.156Z</time></trkpt><trkpt lat="42.9757085" lon="13.2412329"><ele>1441.6666666666667</ele><time>2026-05-03T10:19:22.157Z</time></trkpt><trkpt lat="42.9756454" lon="13.2411584"><ele>1441.5</ele><time>2026-05-03T10:19:25.157Z</time></trkpt><trkpt lat="42.9755728" lon="13.2411115"><ele>1441.3333333333333</ele><time>2026-05-03T10:19:28.154Z</time></trkpt><trkpt lat="42.9755022" lon="13.2410991"><ele>1441.1666666666665</ele><time>2026-05-03T10:19:32.156Z</time></trkpt><trkpt lat="42.9754381" lon="13.2410826"><ele>1441.0</ele><time>2026-05-03T10:19:35.156Z</time></trkpt><trkpt lat="42.9753676" lon="13.2410486"><ele>1441.0</ele><time>2026-05-03T10:19:38.157Z</time></trkpt><trkpt lat="42.9752993" lon="13.2410077"><ele>1441.0</ele><time>2026-05-03T10:19:41.157Z</time></trkpt><trkpt lat="42.9752377" lon="13.2409642"><ele>1441.0</ele><time>2026-05-03T10:19:44.156Z</time></trkpt><trkpt lat="42.9751714" lon="13.2409277"><ele>1441.0</ele><time>2026-05-03T10:19:47.155Z</time></trkpt><trkpt lat="42.9750959" lon="13.2409052"><ele>1441.0</ele><time>2026-05-03T10:19:50.156Z</time></trkpt><trkpt lat="42.9750241" lon="13.2408747"><ele>1441.0</ele><time>2026-05-03T10:19:53.156Z</time></trkpt><trkpt lat="42.9749646" lon="13.2408237"><ele>1441.0</ele><time>2026-05-03T10:19:56.154Z</time></trkpt><trkpt lat="42.974909" lon="13.2407799"><ele>1439.6666666666665</ele><time>2026-05-03T10:19:59.153Z</time></trkpt><trkpt lat="42.9748541" lon="13.2407325"><ele>1438.3333333333333</ele><time>2026-05-03T10:20:02.152Z</time></trkpt><trkpt lat="42.9748008" lon="13.2406808"><ele>1437.0</ele><time>2026-05-03T10:20:05.155Z</time></trkpt><trkpt lat="42.9747416" lon="13.2406246"><ele>1435.6666666666667</ele><time>2026-05-03T10:20:08.155Z</time></trkpt><trkpt lat="42.9746694" lon="13.240566"><ele>1434.3333333333335</ele><time>2026-05-03T10:20:11.158Z</time></trkpt><trkpt lat="42.9745898" lon="13.2405586"><ele>1433.0</ele><time>2026-05-03T10:20:17.152Z</time></trkpt><trkpt lat="42.9745035" lon="13.2405251"><ele>1433.0</ele><time>2026-05-03T10:20:21.157Z</time></trkpt><trkpt lat="42.9744252" lon="13.2404796"><ele>1433.0</ele><time>2026-05-03T10:20:24.151Z</time></trkpt><trkpt lat="42.974354" lon="13.24046"><ele>1433.0</ele><time>2026-05-03T10:20:28.154Z</time></trkpt><trkpt lat="42.9742773" lon="13.2404619"><ele>1433.0</ele><time>2026-05-03T10:20:33.157Z</time></trkpt><trkpt lat="42.9742078" lon="13.2404527"><ele>1433.0</ele><time>2026-05-03T10:20:36.154Z</time></trkpt><trkpt lat="42.9741388" lon="13.2404208"><ele>1433.0</ele><time>2026-05-03T10:20:40.159Z</time></trkpt><trkpt lat="42.97407" lon="13.2403968"><ele>1433.0</ele><time>2026-05-03T10:20:43.155Z</time></trkpt><trkpt lat="42.9739863" lon="13.2403611"><ele>1436.0</ele><time>2026-05-03T10:20:46.151Z</time></trkpt><trkpt lat="42.9739186" lon="13.2403317"><ele>1439.0</ele><time>2026-05-03T10:20:50.154Z</time></trkpt><trkpt lat="42.9738444" lon="13.2402754"><ele>1442.0</ele><time>2026-05-03T10:20:53.155Z</time></trkpt><trkpt lat="42.9737687" lon="13.2402251"><ele>1445.0</ele><time>2026-05-03T10:20:56.154Z</time></trkpt><trkpt lat="42.9737011" lon="13.2401872"><ele>1448.0</ele><time>2026-05-03T10:20:59.156Z</time></trkpt><trkpt lat="42.9736184" lon="13.2401462"><ele>1451.0</ele><time>2026-05-03T10:21:02.157Z</time></trkpt><trkpt lat="42.97354" lon="13.240115"><ele>1451.0</ele><time>2026-05-03T10:21:05.155Z</time></trkpt><trkpt lat="42.9734699" lon="13.2400884"><ele>1451.0</ele><time>2026-05-03T10:21:08.157Z</time></trkpt><trkpt lat="42.9733973" lon="13.2400683"><ele>1451.0</ele><time>2026-05-03T10:21:12.156Z</time></trkpt><trkpt lat="42.973327" lon="13.240045"><ele>1451.0</ele><time>2026-05-03T10:21:16.154Z</time></trkpt><trkpt lat="42.9732534" lon="13.240047"><ele>1451.0</ele><time>2026-05-03T10:21:20.157Z</time></trkpt><trkpt lat="42.9731825" lon="13.2400235"><ele>1451.0</ele><time>2026-05-03T10:21:49.157Z</time></trkpt><trkpt lat="42.9731131" lon="13.2400242"><ele>1451.0</ele><time>2026-05-03T10:22:57.155Z</time></trkpt><trkpt lat="42.9730492" lon="13.2399578"><ele>1449.7142857142858</ele><time>2026-05-03T10:23:22.154Z</time></trkpt><trkpt lat="42.9729794" lon="13.2399254"><ele>1448.4285714285713</ele><time>2026-05-03T10:23:28.156Z</time></trkpt><trkpt lat="42.9729089" lon="13.2398978"><ele>1447.142857142857</ele><time>2026-05-03T10:23:32.155Z</time></trkpt><trkpt lat="42.9728677" lon="13.239832"><ele>1445.857142857143</ele><time>2026-05-03T10:23:36.157Z</time></trkpt><trkpt lat="42.9728155" lon="13.2397645"><ele>1444.5714285714284</ele><time>2026-05-03T10:23:43.154Z</time></trkpt><trkpt lat="42.9727448" lon="13.2397292"><ele>1443.2857142857142</ele><time>2026-05-03T10:23:48.156Z</time></trkpt><trkpt lat="42.9726884" lon="13.2396871"><ele>1442.0</ele><time>2026-05-03T10:23:52.153Z</time></trkpt><trkpt lat="42.9726135" lon="13.2396236"><ele>1442.0</ele><time>2026-05-03T10:24:02.154Z</time></trkpt><trkpt lat="42.9725538" lon="13.239571"><ele>1442.0</ele><time>2026-05-03T10:24:06.156Z</time></trkpt><trkpt lat="42.9724937" lon="13.2395287"><ele>1442.0</ele><time>2026-05-03T10:24:24.157Z</time></trkpt><trkpt lat="42.9724343" lon="13.2394799"><ele>1442.0</ele><time>2026-05-03T10:24:31.156Z</time></trkpt><trkpt lat="42.9723771" lon="13.2394056"><ele>1442.0</ele><time>2026-05-03T10:24:39.155Z</time></trkpt><trkpt lat="42.9723166" lon="13.2393679"><ele>1442.0</ele><time>2026-05-03T10:24:43.154Z</time></trkpt><trkpt lat="42.9722543" lon="13.2393271"><ele>1442.0</ele><time>2026-05-03T10:24:47.157Z</time></trkpt><trkpt lat="42.9721922" lon="13.2392622"><ele>1445.142857142857</ele><time>2026-05-03T10:24:51.156Z</time></trkpt><trkpt lat="42.9721303" lon="13.2392243"><ele>1448.2857142857142</ele><time>2026-05-03T10:24:55.156Z</time></trkpt><trkpt lat="42.9720676" lon="13.2392053"><ele>1451.4285714285716</ele><time>2026-05-03T10:24:58.157Z</time></trkpt><trkpt lat="42.9720036" lon="13.2391826"><ele>1454.5714285714284</ele><time>2026-05-03T10:25:02.157Z</time></trkpt><trkpt lat="42.9719423" lon="13.2391557"><ele>1457.7142857142858</ele><time>2026-05-03T10:25:06.156Z</time></trkpt><trkpt lat="42.9718821" lon="13.239126"><ele>1460.857142857143</ele><time>2026-05-03T10:25:10.156Z</time></trkpt><trkpt lat="42.9719399" lon="13.2391738"><ele>1464.0</ele><time>2026-05-03T10:28:12.152Z</time></trkpt><trkpt lat="42.9720104" lon="13.239222"><ele>1464.0</ele><time>2026-05-03T10:28:17.156Z</time></trkpt><trkpt lat="42.9720711" lon="13.239269"><ele>1464.0</ele><time>2026-05-03T10:28:20.156Z</time></trkpt><trkpt lat="42.9721464" lon="13.2393309"><ele>1464.0</ele><time>2026-05-03T10:28:23.155Z</time></trkpt><trkpt lat="42.9722064" lon="13.2393807"><ele>1464.0</ele><time>2026-05-03T10:28:25.156Z</time></trkpt><trkpt lat="42.9722698" lon="13.2394409"><ele>1464.0</ele><time>2026-05-03T10:28:27.155Z</time></trkpt><trkpt lat="42.9723376" lon="13.2395016"><ele>1464.0</ele><time>2026-05-03T10:28:29.157Z</time></trkpt><trkpt lat="42.9723981" lon="13.239552"><ele>1464.0</ele><time>2026-05-03T10:28:31.156Z</time></trkpt><trkpt lat="42.9724549" lon="13.2396199"><ele>1464.0</ele><time>2026-05-03T10:28:37.158Z</time></trkpt><trkpt lat="42.9725041" lon="13.2396857"><ele>1464.0</ele><time>2026-05-03T10:28:42.151Z</time></trkpt><trkpt lat="42.9725672" lon="13.2397568"><ele>1464.0</ele><time>2026-05-03T10:28:47.154Z</time></trkpt><trkpt lat="42.9726381" lon="13.2397886"><ele>1464.0</ele><time>2026-05-03T10:28:51.156Z</time></trkpt><trkpt lat="42.9726962" lon="13.2398293"><ele>1464.0</ele><time>2026-05-03T10:28:54.155Z</time></trkpt><trkpt lat="42.9727494" lon="13.2398814"><ele>1464.0</ele><time>2026-05-03T10:28:56.156Z</time></trkpt><trkpt lat="42.9728097" lon="13.239922"><ele>1464.6666666666667</ele><time>2026-05-03T10:29:00.155Z</time></trkpt><trkpt lat="42.9728741" lon="13.2399653"><ele>1465.3333333333333</ele><time>2026-05-03T10:29:12.156Z</time></trkpt><trkpt lat="42.972934" lon="13.2400301"><ele>1466.0</ele><time>2026-05-03T10:29:16.155Z</time></trkpt><trkpt lat="42.9730192" lon="13.2400692"><ele>1466.6666666666665</ele><time>2026-05-03T10:29:21.156Z</time></trkpt><trkpt lat="42.9731115" lon="13.2401126"><ele>1467.3333333333333</ele><time>2026-05-03T10:29:41.273Z</time></trkpt><trkpt lat="42.9731741" lon="13.2400741"><ele>1468.0</ele><time>2026-05-03T10:29:46.154Z</time></trkpt><trkpt lat="42.9732369" lon="13.2400977"><ele>1468.0</ele><time>2026-05-03T10:29:57.154Z</time></trkpt><trkpt lat="42.9732941" lon="13.2401395"><ele>1468.0</ele><time>2026-05-03T10:30:06.153Z</time></trkpt><trkpt lat="42.9733636" lon="13.2401563"><ele>1468.0</ele><time>2026-05-03T10:30:09.155Z</time></trkpt><trkpt lat="42.9734248" lon="13.2401905"><ele>1468.0</ele><time>2026-05-03T10:30:11.152Z</time></trkpt><trkpt lat="42.9734948" lon="13.2402266"><ele>1468.0</ele><time>2026-05-03T10:30:13.152Z</time></trkpt><trkpt lat="42.9735822" lon="13.2402711"><ele>1468.0</ele><time>2026-05-03T10:30:16.156Z</time></trkpt><trkpt lat="42.9736775" lon="13.2403256"><ele>1465.1666666666665</ele><time>2026-05-03T10:30:18.158Z</time></trkpt><trkpt lat="42.9736997" lon="13.2404165"><ele>1462.3333333333333</ele><time>2026-05-03T10:30:20.158Z</time></trkpt><trkpt lat="42.9737975" lon="13.2404342"><ele>1459.5</ele><time>2026-05-03T10:30:22.157Z</time></trkpt><trkpt lat="42.9738976" lon="13.2404638"><ele>1456.6666666666667</ele><time>2026-05-03T10:30:24.157Z</time></trkpt><trkpt lat="42.9739655" lon="13.2404906"><ele>1453.8333333333335</ele><time>2026-05-03T10:30:26.154Z</time></trkpt><trkpt lat="42.9740414" lon="13.2405172"><ele>1451.0</ele><time>2026-05-03T10:30:28.153Z</time></trkpt><trkpt lat="42.9741175" lon="13.240564"><ele>1452.1999999999998</ele><time>2026-05-03T10:30:30.155Z</time></trkpt><trkpt lat="42.9741973" lon="13.2406068"><ele>1453.3999999999999</ele><time>2026-05-03T10:30:32.155Z</time></trkpt><trkpt lat="42.9743127" lon="13.2406868"><ele>1454.6</ele><time>2026-05-03T10:30:34.156Z</time></trkpt><trkpt lat="42.9744263" lon="13.2407441"><ele>1455.8</ele><time>2026-05-03T10:30:36.154Z</time></trkpt><trkpt lat="42.974526" lon="13.240801"><ele>1457.0</ele><time>2026-05-03T10:30:38.155Z</time></trkpt><trkpt lat="42.9746288" lon="13.2408611"><ele>1457.0</ele><time>2026-05-03T10:30:40.155Z</time></trkpt><trkpt lat="42.9747668" lon="13.2409241"><ele>1457.0</ele><time>2026-05-03T10:30:42.154Z</time></trkpt><trkpt lat="42.9748582" lon="13.2410088"><ele>1457.0</ele><time>2026-05-03T10:30:44.155Z</time></trkpt><trkpt lat="42.9749537" lon="13.2410707"><ele>1457.0</ele><time>2026-05-03T10:30:46.155Z</time></trkpt><trkpt lat="42.9750167" lon="13.2410978"><ele>1457.0</ele><time>2026-05-03T10:30:47.155Z</time></trkpt><trkpt lat="42.9750873" lon="13.2411628"><ele>1458.1666666666667</ele><time>2026-05-03T10:30:49.155Z</time></trkpt><trkpt lat="42.9751491" lon="13.2412104"><ele>1459.3333333333335</ele><time>2026-05-03T10:30:51.154Z</time></trkpt><trkpt lat="42.9752272" lon="13.2412489"><ele>1460.5</ele><time>2026-05-03T10:30:53.154Z</time></trkpt><trkpt lat="42.9752836" lon="13.2413021"><ele>1461.6666666666667</ele><time>2026-05-03T10:30:55.155Z</time></trkpt><trkpt lat="42.9753558" lon="13.2413606"><ele>1462.8333333333333</ele><time>2026-05-03T10:30:58.155Z</time></trkpt><trkpt lat="42.9754122" lon="13.2414176"><ele>1464.0</ele><time>2026-05-03T10:31:00.155Z</time></trkpt><trkpt lat="42.9754738" lon="13.2414873"><ele>1464.0</ele><time>2026-05-03T10:31:02.154Z</time></trkpt><trkpt lat="42.9755487" lon="13.2415535"><ele>1464.0</ele><time>2026-05-03T10:31:04.155Z</time></trkpt><trkpt lat="42.9756578" lon="13.2416229"><ele>1464.0</ele><time>2026-05-03T10:31:06.156Z</time></trkpt><trkpt lat="42.9757345" lon="13.2416796"><ele>1464.0</ele><time>2026-05-03T10:31:07.154Z</time></trkpt><trkpt lat="42.9758168" lon="13.2417124"><ele>1464.0</ele><time>2026-05-03T10:31:08.155Z</time></trkpt><trkpt lat="42.9759135" lon="13.2417739"><ele>1460.3333333333333</ele><time>2026-05-03T10:31:10.155Z</time></trkpt><trkpt lat="42.9760192" lon="13.2418633"><ele>1456.6666666666667</ele><time>2026-05-03T10:31:12.153Z</time></trkpt><trkpt lat="42.976081" lon="13.2418963"><ele>1453.0</ele><time>2026-05-03T10:31:13.153Z</time></trkpt><trkpt lat="42.9761885" lon="13.2419594"><ele>1449.3333333333335</ele><time>2026-05-03T10:31:15.155Z</time></trkpt><trkpt lat="42.9762547" lon="13.2419792"><ele>1445.6666666666667</ele><time>2026-05-03T10:31:16.155Z</time></trkpt><trkpt lat="42.9763151" lon="13.2420124"><ele>1442.0</ele><time>2026-05-03T10:31:17.155Z</time></trkpt><trkpt lat="42.9764114" lon="13.2420861"><ele>1442.0</ele><time>2026-05-03T10:31:19.154Z</time></trkpt><trkpt lat="42.9764757" lon="13.242094"><ele>1442.0</ele><time>2026-05-03T10:31:20.154Z</time></trkpt><trkpt lat="42.9765447" lon="13.2421296"><ele>1442.0</ele><time>2026-05-03T10:31:21.156Z</time></trkpt><trkpt lat="42.9766717" lon="13.2421634"><ele>1442.0</ele><time>2026-05-03T10:31:23.155Z</time></trkpt><trkpt lat="42.9767537" lon="13.2421983"><ele>1442.0</ele><time>2026-05-03T10:31:24.155Z</time></trkpt><trkpt lat="42.9768609" lon="13.2422017"><ele>1439.8333333333335</ele><time>2026-05-03T10:31:25.156Z</time></trkpt><trkpt lat="42.9769426" lon="13.2421968"><ele>1437.6666666666667</ele><time>2026-05-03T10:31:26.155Z</time></trkpt><trkpt lat="42.9770122" lon="13.2421984"><ele>1435.5</ele><time>2026-05-03T10:31:27.155Z</time></trkpt><trkpt lat="42.9770923" lon="13.2421986"><ele>1433.3333333333333</ele><time>2026-05-03T10:31:28.156Z</time></trkpt><trkpt lat="42.9771691" lon="13.2421929"><ele>1431.1666666666665</ele><time>2026-05-03T10:31:29.153Z</time></trkpt><trkpt lat="42.9772475" lon="13.2421934"><ele>1429.0</ele><time>2026-05-03T10:31:30.153Z</time></trkpt><trkpt lat="42.9773186" lon="13.242191"><ele>1429.0</ele><time>2026-05-03T10:31:31.154Z</time></trkpt><trkpt lat="42.9773937" lon="13.242184"><ele>1429.0</ele><time>2026-05-03T10:31:32.155Z</time></trkpt><trkpt lat="42.9774693" lon="13.2421773"><ele>1429.0</ele><time>2026-05-03T10:31:33.154Z</time></trkpt><trkpt lat="42.9775459" lon="13.2421727"><ele>1429.0</ele><time>2026-05-03T10:31:34.155Z</time></trkpt><trkpt lat="42.977619" lon="13.2421698"><ele>1429.0</ele><time>2026-05-03T10:31:35.155Z</time></trkpt><trkpt lat="42.9777119" lon="13.2421478"><ele>1429.0</ele><time>2026-05-03T10:31:36.154Z</time></trkpt><trkpt lat="42.9777913" lon="13.2421387"><ele>1427.4</ele><time>2026-05-03T10:31:37.155Z</time></trkpt><trkpt lat="42.9778832" lon="13.2421149"><ele>1425.8000000000002</ele><time>2026-05-03T10:31:38.154Z</time></trkpt><trkpt lat="42.9779455" lon="13.2421347"><ele>1424.1999999999998</ele><time>2026-05-03T10:31:39.156Z</time></trkpt><trkpt lat="42.9780195" lon="13.2421477"><ele>1422.6</ele><time>2026-05-03T10:31:40.154Z</time></trkpt><trkpt lat="42.978164" lon="13.2421638"><ele>1421.0</ele><time>2026-05-03T10:31:42.155Z</time></trkpt><trkpt lat="42.9782526" lon="13.2421567"><ele>1421.0</ele><time>2026-05-03T10:31:43.154Z</time></trkpt><trkpt lat="42.9783391" lon="13.2421474"><ele>1421.0</ele><time>2026-05-03T10:31:44.155Z</time></trkpt><trkpt lat="42.9784326" lon="13.242164"><ele>1421.0</ele><time>2026-05-03T10:31:45.155Z</time></trkpt><trkpt lat="42.9785252" lon="13.2421753"><ele>1421.0</ele><time>2026-05-03T10:31:46.154Z</time></trkpt><trkpt lat="42.9786053" lon="13.2421997"><ele>1421.0</ele><time>2026-05-03T10:31:47.155Z</time></trkpt><trkpt lat="42.978687" lon="13.2422104"><ele>1421.0</ele><time>2026-05-03T10:31:48.155Z</time></trkpt><trkpt lat="42.9787725" lon="13.2422098"><ele>1420.1666666666667</ele><time>2026-05-03T10:31:49.155Z</time></trkpt><trkpt lat="42.9788558" lon="13.2422113"><ele>1419.3333333333335</ele><time>2026-05-03T10:31:50.154Z</time></trkpt><trkpt lat="42.9789384" lon="13.2422047"><ele>1418.5</ele><time>2026-05-03T10:31:51.155Z</time></trkpt><trkpt lat="42.979009" lon="13.2421925"><ele>1417.6666666666667</ele><time>2026-05-03T10:31:52.155Z</time></trkpt><trkpt lat="42.9790927" lon="13.2421576"><ele>1416.8333333333333</ele><time>2026-05-03T10:31:53.154Z</time></trkpt><trkpt lat="42.9791912" lon="13.2421322"><ele>1416.0</ele><time>2026-05-03T10:31:54.155Z</time></trkpt><trkpt lat="42.979277" lon="13.2421129"><ele>1415.8</ele><time>2026-05-03T10:31:55.155Z</time></trkpt><trkpt lat="42.9793817" lon="13.2420669"><ele>1415.6</ele><time>2026-05-03T10:31:56.153Z</time></trkpt><trkpt lat="42.9794684" lon="13.2420427"><ele>1415.4</ele><time>2026-05-03T10:31:57.154Z</time></trkpt><trkpt lat="42.9795607" lon="13.242006"><ele>1415.2</ele><time>2026-05-03T10:31:58.155Z</time></trkpt><trkpt lat="42.9796527" lon="13.2419858"><ele>1415.0</ele><time>2026-05-03T10:31:59.154Z</time></trkpt><trkpt lat="42.9797425" lon="13.2419755"><ele>1415.0</ele><time>2026-05-03T10:32:00.155Z</time></trkpt><trkpt lat="42.9798332" lon="13.2419556"><ele>1415.0</ele><time>2026-05-03T10:32:01.155Z</time></trkpt><trkpt lat="42.9799244" lon="13.2419347"><ele>1415.0</ele><time>2026-05-03T10:32:02.154Z</time></trkpt><trkpt lat="42.9800163" lon="13.2419128"><ele>1415.0</ele><time>2026-05-03T10:32:03.154Z</time></trkpt><trkpt lat="42.9801076" lon="13.2418897"><ele>1415.0</ele><time>2026-05-03T10:32:04.154Z</time></trkpt><trkpt lat="42.9801993" lon="13.241861"><ele>1414.2</ele><time>2026-05-03T10:32:05.154Z</time></trkpt><trkpt lat="42.9802931" lon="13.2418306"><ele>1413.4</ele><time>2026-05-03T10:32:06.155Z</time></trkpt><trkpt lat="42.9803821" lon="13.2417956"><ele>1412.6</ele><time>2026-05-03T10:32:07.154Z</time></trkpt><trkpt lat="42.9804745" lon="13.2417539"><ele>1411.8</ele><time>2026-05-03T10:32:08.156Z</time></trkpt><trkpt lat="42.9805632" lon="13.2417089"><ele>1411.0</ele><time>2026-05-03T10:32:09.156Z</time></trkpt><trkpt lat="42.9806604" lon="13.2417111"><ele>1411.0</ele><time>2026-05-03T10:32:10.155Z</time></trkpt><trkpt lat="42.9807492" lon="13.2416755"><ele>1411.0</ele><time>2026-05-03T10:32:11.156Z</time></trkpt><trkpt lat="42.9808448" lon="13.2416626"><ele>1411.0</ele><time>2026-05-03T10:32:12.153Z</time></trkpt><trkpt lat="42.980939" lon="13.2416458"><ele>1411.0</ele><time>2026-05-03T10:32:13.154Z</time></trkpt><trkpt lat="42.9810272" lon="13.2416355"><ele>1411.0</ele><time>2026-05-03T10:32:14.155Z</time></trkpt><trkpt lat="42.9811214" lon="13.2415979"><ele>1412.1999999999998</ele><time>2026-05-03T10:32:15.157Z</time></trkpt><trkpt lat="42.9812256" lon="13.2415737"><ele>1413.3999999999999</ele><time>2026-05-03T10:32:16.156Z</time></trkpt><trkpt lat="42.9813211" lon="13.2415334"><ele>1414.6</ele><time>2026-05-03T10:32:17.157Z</time></trkpt><trkpt lat="42.9814049" lon="13.2415164"><ele>1415.8</ele><time>2026-05-03T10:32:18.157Z</time></trkpt><trkpt lat="42.981489" lon="13.2414808"><ele>1417.0</ele><time>2026-05-03T10:32:19.157Z</time></trkpt><trkpt lat="42.9815758" lon="13.2414505"><ele>1411.1666666666665</ele><time>2026-05-03T10:32:20.156Z</time></trkpt><trkpt lat="42.9816629" lon="13.2414262"><ele>1405.3333333333333</ele><time>2026-05-03T10:32:21.157Z</time></trkpt><trkpt lat="42.9817511" lon="13.2413978"><ele>1399.5</ele><time>2026-05-03T10:32:22.156Z</time></trkpt><trkpt lat="42.9818364" lon="13.2413776"><ele>1393.6666666666667</ele><time>2026-05-03T10:32:23.158Z</time></trkpt><trkpt lat="42.9819247" lon="13.2413555"><ele>1387.8333333333335</ele><time>2026-05-03T10:32:24.158Z</time></trkpt><trkpt lat="42.9820038" lon="13.241331"><ele>1382.0</ele><time>2026-05-03T10:32:25.162Z</time></trkpt><trkpt lat="42.9820854" lon="13.2412969"><ele>1382.0</ele><time>2026-05-03T10:32:26.157Z</time></trkpt><trkpt lat="42.9821789" lon="13.241267"><ele>1382.0</ele><time>2026-05-03T10:32:27.156Z</time></trkpt><trkpt lat="42.9822652" lon="13.2412533"><ele>1382.0</ele><time>2026-05-03T10:32:28.156Z</time></trkpt><trkpt lat="42.9823537" lon="13.2412301"><ele>1382.0</ele><time>2026-05-03T10:32:29.154Z</time></trkpt><trkpt lat="42.9824435" lon="13.2412102"><ele>1382.0</ele><time>2026-05-03T10:32:30.154Z</time></trkpt><trkpt lat="42.982525" lon="13.2411862"><ele>1382.0</ele><time>2026-05-03T10:32:31.155Z</time></trkpt><trkpt lat="42.9826118" lon="13.2411624"><ele>1381.6666666666667</ele><time>2026-05-03T10:32:32.155Z</time></trkpt><trkpt lat="42.9826922" lon="13.2411325"><ele>1381.3333333333335</ele><time>2026-05-03T10:32:33.156Z</time></trkpt><trkpt lat="42.982771" lon="13.241106"><ele>1381.0</ele><time>2026-05-03T10:32:34.157Z</time></trkpt><trkpt lat="42.982861" lon="13.2410887"><ele>1380.6666666666667</ele><time>2026-05-03T10:32:35.155Z</time></trkpt><trkpt lat="42.9829484" lon="13.2410812"><ele>1380.3333333333333</ele><time>2026-05-03T10:32:36.159Z</time></trkpt><trkpt lat="42.9830268" lon="13.2410993"><ele>1380.0</ele><time>2026-05-03T10:32:37.156Z</time></trkpt><trkpt lat="42.9831029" lon="13.2411216"><ele>1380.0</ele><time>2026-05-03T10:32:38.156Z</time></trkpt><trkpt lat="42.9831708" lon="13.2411429"><ele>1380.0</ele><time>2026-05-03T10:32:39.155Z</time></trkpt><trkpt lat="42.9832151" lon="13.241248"><ele>1380.0</ele><time>2026-05-03T10:32:40.156Z</time></trkpt><trkpt lat="42.9832757" lon="13.241283"><ele>1380.0</ele><time>2026-05-03T10:32:41.157Z</time></trkpt><trkpt lat="42.9834087" lon="13.2413285"><ele>1380.0</ele><time>2026-05-03T10:32:43.157Z</time></trkpt><trkpt lat="42.9835001" lon="13.2413174"><ele>1379.0</ele><time>2026-05-03T10:32:45.157Z</time></trkpt><trkpt lat="42.983586" lon="13.2412218"><ele>1378.0</ele><time>2026-05-03T10:32:47.158Z</time></trkpt><trkpt lat="42.983659" lon="13.2411273"><ele>1377.0</ele><time>2026-05-03T10:32:49.156Z</time></trkpt><trkpt lat="42.983732" lon="13.2410214"><ele>1376.0</ele><time>2026-05-03T10:32:51.158Z</time></trkpt><trkpt lat="42.9838273" lon="13.2409346"><ele>1375.0</ele><time>2026-05-03T10:32:53.157Z</time></trkpt><trkpt lat="42.9839162" lon="13.2409187"><ele>1375.0</ele><time>2026-05-03T10:32:56.155Z</time></trkpt><trkpt lat="42.9840242" lon="13.2408614"><ele>1375.0</ele><time>2026-05-03T10:32:58.157Z</time></trkpt><trkpt lat="42.98409" lon="13.2408388"><ele>1375.0</ele><time>2026-05-03T10:32:59.156Z</time></trkpt><trkpt lat="42.9841582" lon="13.2408163"><ele>1375.0</ele><time>2026-05-03T10:33:00.155Z</time></trkpt><trkpt lat="42.9842313" lon="13.2408109"><ele>1375.0</ele><time>2026-05-03T10:33:01.156Z</time></trkpt><trkpt lat="42.984299" lon="13.2408159"><ele>1375.0</ele><time>2026-05-03T10:33:02.158Z</time></trkpt><trkpt lat="42.9843641" lon="13.2407963"><ele>1374.6666666666665</ele><time>2026-05-03T10:33:03.157Z</time></trkpt><trkpt lat="42.9844366" lon="13.2407766"><ele>1374.3333333333333</ele><time>2026-05-03T10:33:04.157Z</time></trkpt><trkpt lat="42.9844959" lon="13.2407352"><ele>1374.0</ele><time>2026-05-03T10:33:05.157Z</time></trkpt><trkpt lat="42.9845749" lon="13.2407229"><ele>1373.6666666666667</ele><time>2026-05-03T10:33:06.158Z</time></trkpt><trkpt lat="42.9846554" lon="13.2407405"><ele>1373.3333333333335</ele><time>2026-05-03T10:33:07.155Z</time></trkpt><trkpt lat="42.9847345" lon="13.2407565"><ele>1373.0</ele><time>2026-05-03T10:33:08.155Z</time></trkpt><trkpt lat="42.9848103" lon="13.2407601"><ele>1373.0</ele><time>2026-05-03T10:33:09.158Z</time></trkpt><trkpt lat="42.9849023" lon="13.2407599"><ele>1373.0</ele><time>2026-05-03T10:33:10.155Z</time></trkpt><trkpt lat="42.9849788" lon="13.2408017"><ele>1373.0</ele><time>2026-05-03T10:33:11.155Z</time></trkpt><trkpt lat="42.9850473" lon="13.2408341"><ele>1373.0</ele><time>2026-05-03T10:33:12.158Z</time></trkpt><trkpt lat="42.9851114" lon="13.2408682"><ele>1373.0</ele><time>2026-05-03T10:33:13.155Z</time></trkpt><trkpt lat="42.985153" lon="13.2409332"><ele>1373.0</ele><time>2026-05-03T10:33:14.155Z</time></trkpt><trkpt lat="42.9851975" lon="13.2410129"><ele>1374.5</ele><time>2026-05-03T10:33:15.157Z</time></trkpt><trkpt lat="42.9852496" lon="13.2410759"><ele>1376.0</ele><time>2026-05-03T10:33:16.156Z</time></trkpt><trkpt lat="42.985296" lon="13.2411362"><ele>1377.5</ele><time>2026-05-03T10:33:17.157Z</time></trkpt><trkpt lat="42.9853857" lon="13.2412389"><ele>1379.0</ele><time>2026-05-03T10:33:19.156Z</time></trkpt><trkpt lat="42.9854689" lon="13.2413202"><ele>1380.5</ele><time>2026-05-03T10:33:21.156Z</time></trkpt><trkpt lat="42.9855192" lon="13.2413724"><ele>1382.0</ele><time>2026-05-03T10:33:23.153Z</time></trkpt><trkpt lat="42.9855517" lon="13.2414548"><ele>1382.0</ele><time>2026-05-03T10:33:25.158Z</time></trkpt><trkpt lat="42.9855797" lon="13.2415344"><ele>1382.0</ele><time>2026-05-03T10:33:28.157Z</time></trkpt><trkpt lat="42.9855324" lon="13.2414299"><ele>1382.0</ele><time>2026-05-03T10:33:36.157Z</time></trkpt><trkpt lat="42.9854977" lon="13.2412796"><ele>1382.0</ele><time>2026-05-03T10:33:38.156Z</time></trkpt><trkpt lat="42.9855205" lon="13.2410965"><ele>1382.0</ele><time>2026-05-03T10:33:40.157Z</time></trkpt><trkpt lat="42.9855517" lon="13.2409799"><ele>1382.0</ele><time>2026-05-03T10:33:41.155Z</time></trkpt><trkpt lat="42.9855663" lon="13.2408723"><ele>1382.0</ele><time>2026-05-03T10:33:42.156Z</time></trkpt><trkpt lat="42.9855983" lon="13.2407558"><ele>1382.0</ele><time>2026-05-03T10:33:43.156Z</time></trkpt><trkpt lat="42.9856216" lon="13.2406519"><ele>1382.0</ele><time>2026-05-03T10:33:44.157Z</time></trkpt><trkpt lat="42.98564" lon="13.2405298"><ele>1382.0</ele><time>2026-05-03T10:33:45.156Z</time></trkpt><trkpt lat="42.9856544" lon="13.2404179"><ele>1382.0</ele><time>2026-05-03T10:33:46.152Z</time></trkpt><trkpt lat="42.9856815" lon="13.2402881"><ele>1379.0</ele><time>2026-05-03T10:33:47.157Z</time></trkpt><trkpt lat="42.9857075" lon="13.2401755"><ele>1376.0</ele><time>2026-05-03T10:33:48.154Z</time></trkpt><trkpt lat="42.9857411" lon="13.2400514"><ele>1373.0</ele><time>2026-05-03T10:33:49.157Z</time></trkpt><trkpt lat="42.9857874" lon="13.2399293"><ele>1370.0</ele><time>2026-05-03T10:33:50.157Z</time></trkpt><trkpt lat="42.985836" lon="13.2398152"><ele>1367.0</ele><time>2026-05-03T10:33:51.156Z</time></trkpt><trkpt lat="42.9859017" lon="13.2397153"><ele>1361.3999999999999</ele><time>2026-05-03T10:33:52.158Z</time></trkpt><trkpt lat="42.9859526" lon="13.2396142"><ele>1355.8</ele><time>2026-05-03T10:33:53.157Z</time></trkpt><trkpt lat="42.9860132" lon="13.2395185"><ele>1350.2</ele><time>2026-05-03T10:33:54.159Z</time></trkpt><trkpt lat="42.9860743" lon="13.2393896"><ele>1344.6</ele><time>2026-05-03T10:33:55.157Z</time></trkpt><trkpt lat="42.9861492" lon="13.2393874"><ele>1339.0</ele><time>2026-05-03T10:33:56.156Z</time></trkpt><trkpt lat="42.9862408" lon="13.2393641"><ele>1339.0</ele><time>2026-05-03T10:33:57.154Z</time></trkpt><trkpt lat="42.9863234" lon="13.2393467"><ele>1339.0</ele><time>2026-05-03T10:33:58.156Z</time></trkpt><trkpt lat="42.986405" lon="13.2393549"><ele>1339.0</ele><time>2026-05-03T10:33:59.156Z</time></trkpt><trkpt lat="42.9865079" lon="13.2393559"><ele>1339.0</ele><time>2026-05-03T10:34:00.156Z</time></trkpt><trkpt lat="42.9865961" lon="13.2393318"><ele>1339.0</ele><time>2026-05-03T10:34:01.156Z</time></trkpt><trkpt lat="42.9866874" lon="13.2393229"><ele>1337.2</ele><time>2026-05-03T10:34:02.156Z</time></trkpt><trkpt lat="42.9867797" lon="13.2393173"><ele>1335.4</ele><time>2026-05-03T10:34:03.157Z</time></trkpt><trkpt lat="42.9868699" lon="13.2393147"><ele>1333.6</ele><time>2026-05-03T10:34:04.155Z</time></trkpt><trkpt lat="42.9869614" lon="13.2393258"><ele>1331.8</ele><time>2026-05-03T10:34:05.155Z</time></trkpt><trkpt lat="42.9870547" lon="13.2393374"><ele>1330.0</ele><time>2026-05-03T10:34:06.159Z</time></trkpt><trkpt lat="42.9871468" lon="13.2393309"><ele>1330.0</ele><time>2026-05-03T10:34:07.158Z</time></trkpt><trkpt lat="42.9872326" lon="13.2393515"><ele>1330.0</ele><time>2026-05-03T10:34:08.155Z</time></trkpt><trkpt lat="42.9873109" lon="13.2393872"><ele>1330.0</ele><time>2026-05-03T10:34:09.157Z</time></trkpt><trkpt lat="42.9874009" lon="13.2394144"><ele>1330.0</ele><time>2026-05-03T10:34:10.157Z</time></trkpt><trkpt lat="42.9874894" lon="13.2394547"><ele>1330.0</ele><time>2026-05-03T10:34:11.157Z</time></trkpt><trkpt lat="42.987564" lon="13.2395336"><ele>1330.0</ele><time>2026-05-03T10:34:12.156Z</time></trkpt><trkpt lat="42.9876491" lon="13.2395818"><ele>1329.6666666666665</ele><time>2026-05-03T10:34:13.155Z</time></trkpt><trkpt lat="42.9877157" lon="13.2396358"><ele>1329.3333333333333</ele><time>2026-05-03T10:34:14.156Z</time></trkpt><trkpt lat="42.9877709" lon="13.2396852"><ele>1329.0</ele><time>2026-05-03T10:34:15.155Z</time></trkpt><trkpt lat="42.9878375" lon="13.2397483"><ele>1328.6666666666667</ele><time>2026-05-03T10:34:16.156Z</time></trkpt><trkpt lat="42.9878894" lon="13.2398571"><ele>1328.3333333333335</ele><time>2026-05-03T10:34:17.159Z</time></trkpt><trkpt lat="42.9879322" lon="13.2399507"><ele>1328.0</ele><time>2026-05-03T10:34:18.158Z</time></trkpt><trkpt lat="42.9879753" lon="13.2400558"><ele>1328.8333333333335</ele><time>2026-05-03T10:34:19.157Z</time></trkpt><trkpt lat="42.9880206" lon="13.2401543"><ele>1329.6666666666667</ele><time>2026-05-03T10:34:20.156Z</time></trkpt><trkpt lat="42.9880701" lon="13.2402563"><ele>1330.5</ele><time>2026-05-03T10:34:21.155Z</time></trkpt><trkpt lat="42.9881189" lon="13.2403544"><ele>1331.3333333333333</ele><time>2026-05-03T10:34:22.155Z</time></trkpt><trkpt lat="42.9881658" lon="13.2404511"><ele>1332.1666666666665</ele><time>2026-05-03T10:34:23.156Z</time></trkpt><trkpt lat="42.9882042" lon="13.2405462"><ele>1333.0</ele><time>2026-05-03T10:34:24.158Z</time></trkpt><trkpt lat="42.9882288" lon="13.2406386"><ele>1333.2</ele><time>2026-05-03T10:34:25.157Z</time></trkpt><trkpt lat="42.9882464" lon="13.2407992"><ele>1333.4</ele><time>2026-05-03T10:34:27.156Z</time></trkpt><trkpt lat="42.9882688" lon="13.2409385"><ele>1333.6000000000001</ele><time>2026-05-03T10:34:29.154Z</time></trkpt><trkpt lat="42.9883147" lon="13.2410698"><ele>1333.8000000000002</ele><time>2026-05-03T10:34:31.153Z</time></trkpt><trkpt lat="42.988342" lon="13.2411886"><ele>1334.0</ele><time>2026-05-03T10:34:33.156Z</time></trkpt><trkpt lat="42.9883407" lon="13.2412799"><ele>1334.0</ele><time>2026-05-03T10:34:36.156Z</time></trkpt><trkpt lat="42.9883064" lon="13.2413586"><ele>1334.0</ele><time>2026-05-03T10:34:38.154Z</time></trkpt><trkpt lat="42.9882558" lon="13.2414354"><ele>1334.0</ele><time>2026-05-03T10:34:40.159Z</time></trkpt><trkpt lat="42.988208" lon="13.2415224"><ele>1334.0</ele><time>2026-05-03T10:34:42.157Z</time></trkpt><trkpt lat="42.9881593" lon="13.2416343"><ele>1334.0</ele><time>2026-05-03T10:34:44.156Z</time></trkpt><trkpt lat="42.9881056" lon="13.241768"><ele>1334.0</ele><time>2026-05-03T10:34:46.157Z</time></trkpt><trkpt lat="42.9880784" lon="13.2419056"><ele>1334.0</ele><time>2026-05-03T10:34:48.158Z</time></trkpt><trkpt lat="42.9880524" lon="13.2420189"><ele>1334.0</ele><time>2026-05-03T10:34:50.158Z</time></trkpt><trkpt lat="42.9880014" lon="13.2421394"><ele>1334.0</ele><time>2026-05-03T10:34:52.155Z</time></trkpt><trkpt lat="42.9879498" lon="13.2422662"><ele>1334.0</ele><time>2026-05-03T10:34:54.157Z</time></trkpt><trkpt lat="42.9878967" lon="13.2423756"><ele>1334.0</ele><time>2026-05-03T10:34:56.154Z</time></trkpt><trkpt lat="42.9878528" lon="13.2424574"><ele>1333.5714285714287</ele><time>2026-05-03T10:34:58.154Z</time></trkpt><trkpt lat="42.9878076" lon="13.2425245"><ele>1333.142857142857</ele><time>2026-05-03T10:35:00.156Z</time></trkpt><trkpt lat="42.9877524" lon="13.2425721"><ele>1332.7142857142858</ele><time>2026-05-03T10:35:02.156Z</time></trkpt><trkpt lat="42.9876912" lon="13.2426163"><ele>1332.2857142857142</ele><time>2026-05-03T10:35:05.157Z</time></trkpt><trkpt lat="42.9876291" lon="13.2426986"><ele>1331.857142857143</ele><time>2026-05-03T10:35:08.154Z</time></trkpt><trkpt lat="42.9875822" lon="13.2427694"><ele>1331.4285714285716</ele><time>2026-05-03T10:35:11.157Z</time></trkpt><trkpt lat="42.987536" lon="13.2428604"><ele>1331.0</ele><time>2026-05-03T10:35:15.156Z</time></trkpt><trkpt lat="42.9874748" lon="13.2429221"><ele>1331.5</ele><time>2026-05-03T10:35:19.158Z</time></trkpt><trkpt lat="42.9874193" lon="13.2429831"><ele>1332.0</ele><time>2026-05-03T10:35:23.157Z</time></trkpt><trkpt lat="42.9873777" lon="13.2430547"><ele>1332.5</ele><time>2026-05-03T10:35:27.157Z</time></trkpt><trkpt lat="42.9873148" lon="13.2431297"><ele>1333.0</ele><time>2026-05-03T10:35:31.156Z</time></trkpt><trkpt lat="42.9872747" lon="13.2432288"><ele>1333.5</ele><time>2026-05-03T10:35:35.155Z</time></trkpt><trkpt lat="42.9872346" lon="13.2433094"><ele>1334.0</ele><time>2026-05-03T10:35:38.156Z</time></trkpt><trkpt lat="42.9871879" lon="13.243395"><ele>1334.0000000000002</ele><time>2026-05-03T10:35:42.158Z</time></trkpt><trkpt lat="42.9871421" lon="13.243481"><ele>1334.0</ele><time>2026-05-03T10:35:46.156Z</time></trkpt><trkpt lat="42.9870972" lon="13.2435441"><ele>1334.0</ele><time>2026-05-03T10:35:50.156Z</time></trkpt><trkpt lat="42.9870633" lon="13.2436167"><ele>1334.0</ele><time>2026-05-03T10:35:53.157Z</time></trkpt><trkpt lat="42.9870419" lon="13.2437034"><ele>1334.0</ele><time>2026-05-03T10:35:56.156Z</time></trkpt><trkpt lat="42.9870183" lon="13.2438101"><ele>1334.0000000000002</ele><time>2026-05-03T10:36:00.156Z</time></trkpt><trkpt lat="42.9869762" lon="13.2438781"><ele>1334.0</ele><time>2026-05-03T10:36:03.156Z</time></trkpt><trkpt lat="42.9869323" lon="13.2439633"><ele>1334.0</ele><time>2026-05-03T10:36:07.157Z</time></trkpt><trkpt lat="42.9868929" lon="13.2440402"><ele>1334.0</ele><time>2026-05-03T10:36:10.158Z</time></trkpt><trkpt lat="42.9868481" lon="13.2441257"><ele>1334.0</ele><time>2026-05-03T10:36:16.157Z</time></trkpt><trkpt lat="42.9867953" lon="13.2441895"><ele>1334.0</ele><time>2026-05-03T10:36:21.157Z</time></trkpt><trkpt lat="42.9867274" lon="13.2442531"><ele>1334.0</ele><time>2026-05-03T10:36:26.156Z</time></trkpt><trkpt lat="42.9866835" lon="13.2443351"><ele>1334.0</ele><time>2026-05-03T10:36:30.152Z</time></trkpt><trkpt lat="42.9866506" lon="13.244438"><ele>1337.7142857142858</ele><time>2026-05-03T10:36:35.156Z</time></trkpt><trkpt lat="42.9866162" lon="13.2445215"><ele>1341.4285714285716</ele><time>2026-05-03T10:36:40.157Z</time></trkpt><trkpt lat="42.9865391" lon="13.2445383"><ele>1345.1428571428573</ele><time>2026-05-03T10:36:44.155Z</time></trkpt><trkpt lat="42.9864781" lon="13.2445697"><ele>1348.857142857143</ele><time>2026-05-03T10:36:48.157Z</time></trkpt><trkpt lat="42.9864619" lon="13.2446585"><ele>1352.5714285714284</ele><time>2026-05-03T10:36:53.158Z</time></trkpt><trkpt lat="42.9865113" lon="13.2447707"><ele>1356.2857142857144</ele><time>2026-05-03T10:36:56.156Z</time></trkpt><trkpt lat="42.986533" lon="13.2448658"><ele>1360.0</ele><time>2026-05-03T10:36:59.157Z</time></trkpt><trkpt lat="42.9864938" lon="13.2449789"><ele>1360.0</ele><time>2026-05-03T10:37:03.156Z</time></trkpt><trkpt lat="42.9864634" lon="13.2450778"><ele>1360.0</ele><time>2026-05-03T10:37:05.158Z</time></trkpt><trkpt lat="42.9863778" lon="13.2452068"><ele>1360.0</ele><time>2026-05-03T10:37:07.156Z</time></trkpt><trkpt lat="42.98633" lon="13.2452887"><ele>1360.0</ele><time>2026-05-03T10:37:08.156Z</time></trkpt><trkpt lat="42.986279" lon="13.2453981"><ele>1360.0</ele><time>2026-05-03T10:37:09.155Z</time></trkpt><trkpt lat="42.9862338" lon="13.2455104"><ele>1360.0</ele><time>2026-05-03T10:37:10.156Z</time></trkpt><trkpt lat="42.9861981" lon="13.2456267"><ele>1360.0</ele><time>2026-05-03T10:37:11.156Z</time></trkpt><trkpt lat="42.9861751" lon="13.2457509"><ele>1360.0</ele><time>2026-05-03T10:37:12.157Z</time></trkpt><trkpt lat="42.9861649" lon="13.2458777"><ele>1360.0</ele><time>2026-05-03T10:37:13.158Z</time></trkpt><trkpt lat="42.986149" lon="13.2460172"><ele>1360.0</ele><time>2026-05-03T10:37:14.156Z</time></trkpt><trkpt lat="42.9861283" lon="13.246142"><ele>1358.5</ele><time>2026-05-03T10:37:15.156Z</time></trkpt><trkpt lat="42.9861015" lon="13.2462566"><ele>1357.0</ele><time>2026-05-03T10:37:16.155Z</time></trkpt><trkpt lat="42.9860505" lon="13.2463496"><ele>1355.5</ele><time>2026-05-03T10:37:17.156Z</time></trkpt><trkpt lat="42.9859909" lon="13.2464159"><ele>1354.0</ele><time>2026-05-03T10:37:18.155Z</time></trkpt><trkpt lat="42.9859365" lon="13.2464781"><ele>1352.5</ele><time>2026-05-03T10:37:19.156Z</time></trkpt><trkpt lat="42.9858602" lon="13.2465165"><ele>1351.0</ele><time>2026-05-03T10:37:20.156Z</time></trkpt><trkpt lat="42.9858017" lon="13.246603"><ele>1346.6</ele><time>2026-05-03T10:37:21.156Z</time></trkpt><trkpt lat="42.9857541" lon="13.2467198"><ele>1342.1999999999998</ele><time>2026-05-03T10:37:22.155Z</time></trkpt><trkpt lat="42.9857204" lon="13.2468253"><ele>1337.8000000000002</ele><time>2026-05-03T10:37:23.157Z</time></trkpt><trkpt lat="42.9857341" lon="13.2469608"><ele>1333.4</ele><time>2026-05-03T10:37:24.155Z</time></trkpt><trkpt lat="42.9857505" lon="13.2470892"><ele>1329.0</ele><time>2026-05-03T10:37:25.157Z</time></trkpt><trkpt lat="42.9857967" lon="13.2471794"><ele>1328.5</ele><time>2026-05-03T10:37:26.157Z</time></trkpt><trkpt lat="42.9858531" lon="13.2472726"><ele>1328.0</ele><time>2026-05-03T10:37:27.156Z</time></trkpt><trkpt lat="42.9859284" lon="13.2473352"><ele>1327.5</ele><time>2026-05-03T10:37:28.157Z</time></trkpt><trkpt lat="42.9860158" lon="13.2473863"><ele>1327.0</ele><time>2026-05-03T10:37:29.155Z</time></trkpt><trkpt lat="42.9860832" lon="13.2474235"><ele>1326.5</ele><time>2026-05-03T10:37:30.153Z</time></trkpt><trkpt lat="42.9861403" lon="13.2474806"><ele>1326.0</ele><time>2026-05-03T10:37:31.156Z</time></trkpt><trkpt lat="42.9862359" lon="13.247574"><ele>1326.0</ele><time>2026-05-03T10:37:33.156Z</time></trkpt><trkpt lat="42.9862103" lon="13.2476966"><ele>1326.0</ele><time>2026-05-03T10:37:35.153Z</time></trkpt><trkpt lat="42.9861349" lon="13.2477235"><ele>1326.0</ele><time>2026-05-03T10:37:37.155Z</time></trkpt><trkpt lat="42.986064" lon="13.247697"><ele>1326.0</ele><time>2026-05-03T10:37:39.157Z</time></trkpt><trkpt lat="42.9859885" lon="13.2476663"><ele>1326.0</ele><time>2026-05-03T10:37:44.156Z</time></trkpt><trkpt lat="42.9859232" lon="13.247631"><ele>1326.0</ele><time>2026-05-03T10:37:47.158Z</time></trkpt><trkpt lat="42.9858398" lon="13.2476141"><ele>1324.6666666666667</ele><time>2026-05-03T10:37:50.156Z</time></trkpt><trkpt lat="42.9857616" lon="13.2476253"><ele>1323.3333333333333</ele><time>2026-05-03T10:37:53.157Z</time></trkpt><trkpt lat="42.9856723" lon="13.247596"><ele>1322.0</ele><time>2026-05-03T10:37:56.156Z</time></trkpt><trkpt lat="42.9855899" lon="13.2476013"><ele>1320.6666666666665</ele><time>2026-05-03T10:37:59.156Z</time></trkpt><trkpt lat="42.9855183" lon="13.2476035"><ele>1319.3333333333333</ele><time>2026-05-03T10:38:02.154Z</time></trkpt><trkpt lat="42.9854487" lon="13.2476321"><ele>1318.0</ele><time>2026-05-03T10:38:05.156Z</time></trkpt><trkpt lat="42.9853891" lon="13.2476657"><ele>1318.0</ele><time>2026-05-03T10:38:08.155Z</time></trkpt><trkpt lat="42.9853236" lon="13.2477253"><ele>1318.0</ele><time>2026-05-03T10:38:11.155Z</time></trkpt><trkpt lat="42.9852653" lon="13.2477905"><ele>1318.0</ele><time>2026-05-03T10:38:15.156Z</time></trkpt><trkpt lat="42.9852055" lon="13.2478511"><ele>1318.0</ele><time>2026-05-03T10:38:18.151Z</time></trkpt><trkpt lat="42.9851569" lon="13.2479271"><ele>1318.0</ele><time>2026-05-03T10:38:21.157Z</time></trkpt><trkpt lat="42.9851229" lon="13.2480286"><ele>1318.0</ele><time>2026-05-03T10:38:24.153Z</time></trkpt><trkpt lat="42.9850419" lon="13.2480584"><ele>1318.142857142857</ele><time>2026-05-03T10:38:28.153Z</time></trkpt><trkpt lat="42.9849732" lon="13.2480487"><ele>1318.2857142857142</ele><time>2026-05-03T10:38:31.153Z</time></trkpt><trkpt lat="42.9849107" lon="13.248036"><ele>1318.4285714285713</ele><time>2026-05-03T10:38:34.152Z</time></trkpt><trkpt lat="42.984834" lon="13.2480338"><ele>1318.5714285714284</ele><time>2026-05-03T10:38:37.155Z</time></trkpt><trkpt lat="42.9847838" lon="13.2480893"><ele>1318.7142857142858</ele><time>2026-05-03T10:38:41.155Z</time></trkpt><trkpt lat="42.9847301" lon="13.248146"><ele>1318.8571428571427</ele><time>2026-05-03T10:38:44.155Z</time></trkpt><trkpt lat="42.9846677" lon="13.2482026"><ele>1319.0</ele><time>2026-05-03T10:38:47.159Z</time></trkpt><trkpt lat="42.9846127" lon="13.2482777"><ele>1318.9999999999998</ele><time>2026-05-03T10:38:51.155Z</time></trkpt><trkpt lat="42.9845684" lon="13.2483418"><ele>1319.0</ele><time>2026-05-03T10:38:54.155Z</time></trkpt><trkpt lat="42.9845135" lon="13.2483998"><ele>1319.0</ele><time>2026-05-03T10:38:57.155Z</time></trkpt><trkpt lat="42.9844689" lon="13.2484627"><ele>1319.0</ele><time>2026-05-03T10:39:01.155Z</time></trkpt><trkpt lat="42.9844121" lon="13.2485347"><ele>1319.0</ele><time>2026-05-03T10:39:05.155Z</time></trkpt><trkpt lat="42.9843588" lon="13.2485916"><ele>1318.9999999999998</ele><time>2026-05-03T10:39:09.155Z</time></trkpt><trkpt lat="42.9843108" lon="13.248662"><ele>1319.0</ele><time>2026-05-03T10:39:13.155Z</time></trkpt><trkpt lat="42.9842625" lon="13.2487578"><ele>1319.0</ele><time>2026-05-03T10:39:17.155Z</time></trkpt><trkpt lat="42.9842062" lon="13.2488373"><ele>1319.0</ele><time>2026-05-03T10:39:21.156Z</time></trkpt><trkpt lat="42.9841418" lon="13.2489105"><ele>1319.0</ele><time>2026-05-03T10:39:25.155Z</time></trkpt><trkpt lat="42.9840783" lon="13.2489666"><ele>1319.0</ele><time>2026-05-03T10:39:29.152Z</time></trkpt><trkpt lat="42.984019" lon="13.2490367"><ele>1319.0</ele><time>2026-05-03T10:39:33.152Z</time></trkpt><trkpt lat="42.983973" lon="13.2491044"><ele>1319.0</ele><time>2026-05-03T10:39:37.155Z</time></trkpt><trkpt lat="42.9839162" lon="13.2491516"><ele>1321.5714285714284</ele><time>2026-05-03T10:39:40.155Z</time></trkpt><trkpt lat="42.9838492" lon="13.2492112"><ele>1324.142857142857</ele><time>2026-05-03T10:39:44.155Z</time></trkpt><trkpt lat="42.9837726" lon="13.249245"><ele>1326.7142857142858</ele><time>2026-05-03T10:39:48.156Z</time></trkpt><trkpt lat="42.9837185" lon="13.2493108"><ele>1329.2857142857142</ele><time>2026-05-03T10:39:52.157Z</time></trkpt><trkpt lat="42.9836749" lon="13.2493805"><ele>1331.857142857143</ele><time>2026-05-03T10:39:55.156Z</time></trkpt><trkpt lat="42.9836225" lon="13.2494351"><ele>1334.4285714285713</ele><time>2026-05-03T10:39:58.155Z</time></trkpt><trkpt lat="42.9835634" lon="13.2494783"><ele>1337.0</ele><time>2026-05-03T10:40:01.156Z</time></trkpt><trkpt lat="42.9835014" lon="13.2495188"><ele>1337.0</ele><time>2026-05-03T10:40:04.155Z</time></trkpt><trkpt lat="42.9834248" lon="13.2495603"><ele>1337.0</ele><time>2026-05-03T10:40:08.155Z</time></trkpt><trkpt lat="42.9833645" lon="13.2496062"><ele>1337.0</ele><time>2026-05-03T10:40:11.155Z</time></trkpt><trkpt lat="42.9833081" lon="13.2496471"><ele>1337.0</ele><time>2026-05-03T10:40:14.156Z</time></trkpt><trkpt lat="42.9832466" lon="13.2496711"><ele>1337.0</ele><time>2026-05-03T10:40:17.156Z</time></trkpt><trkpt lat="42.9831737" lon="13.2496957"><ele>1337.0</ele><time>2026-05-03T10:40:21.158Z</time></trkpt><trkpt lat="42.9831074" lon="13.249693"><ele>1337.0</ele><time>2026-05-03T10:40:25.157Z</time></trkpt><trkpt lat="42.9830374" lon="13.2497022"><ele>1338.0</ele><time>2026-05-03T10:40:29.153Z</time></trkpt><trkpt lat="42.9829759" lon="13.2497249"><ele>1339.0</ele><time>2026-05-03T10:40:33.156Z</time></trkpt><trkpt lat="42.9829166" lon="13.2497553"><ele>1340.0</ele><time>2026-05-03T10:40:40.156Z</time></trkpt><trkpt lat="42.9828379" lon="13.2497757"><ele>1341.0</ele><time>2026-05-03T10:40:44.155Z</time></trkpt><trkpt lat="42.9827727" lon="13.2498002"><ele>1342.0</ele><time>2026-05-03T10:40:48.156Z</time></trkpt><trkpt lat="42.9826956" lon="13.2498345"><ele>1343.0</ele><time>2026-05-03T10:40:52.156Z</time></trkpt><trkpt lat="42.9826265" lon="13.2498456"><ele>1344.0</ele><time>2026-05-03T10:40:56.156Z</time></trkpt><trkpt lat="42.9825497" lon="13.2498738"><ele>1346.4285714285713</ele><time>2026-05-03T10:41:01.156Z</time></trkpt><trkpt lat="42.9824828" lon="13.2498974"><ele>1348.857142857143</ele><time>2026-05-03T10:41:05.161Z</time></trkpt><trkpt lat="42.9824168" lon="13.2498928"><ele>1351.2857142857142</ele><time>2026-05-03T10:41:09.157Z</time></trkpt><trkpt lat="42.9823407" lon="13.2498953"><ele>1353.7142857142858</ele><time>2026-05-03T10:41:14.155Z</time></trkpt><trkpt lat="42.9822784" lon="13.2499132"><ele>1356.142857142857</ele><time>2026-05-03T10:41:18.155Z</time></trkpt><trkpt lat="42.9822039" lon="13.2499521"><ele>1358.5714285714284</ele><time>2026-05-03T10:41:23.156Z</time></trkpt><trkpt lat="42.9821283" lon="13.2499641"><ele>1361.0</ele><time>2026-05-03T10:41:27.156Z</time></trkpt><trkpt lat="42.982057" lon="13.2499818"><ele>1360.9999999999998</ele><time>2026-05-03T10:41:31.155Z</time></trkpt><trkpt lat="42.9819871" lon="13.2499856"><ele>1361.0</ele><time>2026-05-03T10:41:35.156Z</time></trkpt><trkpt lat="42.9819218" lon="13.2499946"><ele>1361.0</ele><time>2026-05-03T10:41:39.156Z</time></trkpt><trkpt lat="42.9818435" lon="13.2499968"><ele>1361.0</ele><time>2026-05-03T10:41:43.154Z</time></trkpt><trkpt lat="42.9817776" lon="13.2499976"><ele>1361.0</ele><time>2026-05-03T10:41:47.153Z</time></trkpt><trkpt lat="42.981707" lon="13.2500281"><ele>1360.9999999999998</ele><time>2026-05-03T10:41:51.151Z</time></trkpt><trkpt lat="42.98163" lon="13.2500458"><ele>1361.0</ele><time>2026-05-03T10:41:55.157Z</time></trkpt><trkpt lat="42.9815592" lon="13.2500406"><ele>1363.2857142857142</ele><time>2026-05-03T10:42:00.154Z</time></trkpt><trkpt lat="42.9814934" lon="13.2500448"><ele>1365.5714285714284</ele><time>2026-05-03T10:42:04.156Z</time></trkpt><trkpt lat="42.9814231" lon="13.2500759"><ele>1367.8571428571427</ele><time>2026-05-03T10:42:09.156Z</time></trkpt><trkpt lat="42.9813619" lon="13.2500986"><ele>1370.142857142857</ele><time>2026-05-03T10:42:13.156Z</time></trkpt><trkpt lat="42.9812997" lon="13.2501132"><ele>1372.4285714285716</ele><time>2026-05-03T10:42:18.155Z</time></trkpt><trkpt lat="42.9812209" lon="13.2501293"><ele>1374.7142857142856</ele><time>2026-05-03T10:42:23.156Z</time></trkpt><trkpt lat="42.9811514" lon="13.2501723"><ele>1377.0</ele><time>2026-05-03T10:42:27.156Z</time></trkpt><trkpt lat="42.981091" lon="13.2502189"><ele>1377.0</ele><time>2026-05-03T10:42:30.154Z</time></trkpt><trkpt lat="42.9810362" lon="13.2502641"><ele>1377.0</ele><time>2026-05-03T10:42:33.157Z</time></trkpt><trkpt lat="42.9809599" lon="13.2503097"><ele>1377.0</ele><time>2026-05-03T10:42:37.156Z</time></trkpt><trkpt lat="42.9808988" lon="13.2503415"><ele>1377.0</ele><time>2026-05-03T10:42:40.155Z</time></trkpt><trkpt lat="42.9808376" lon="13.2503827"><ele>1377.0</ele><time>2026-05-03T10:42:44.156Z</time></trkpt><trkpt lat="42.9807613" lon="13.2504137"><ele>1377.0</ele><time>2026-05-03T10:42:48.157Z</time></trkpt><trkpt lat="42.9806839" lon="13.250428"><ele>1377.0</ele><time>2026-05-03T10:42:51.156Z</time></trkpt><trkpt lat="42.9806037" lon="13.2504666"><ele>1375.0</ele><time>2026-05-03T10:42:54.156Z</time></trkpt><trkpt lat="42.9805464" lon="13.2505253"><ele>1373.0</ele><time>2026-05-03T10:42:56.156Z</time></trkpt><trkpt lat="42.9804828" lon="13.2505901"><ele>1371.0</ele><time>2026-05-03T10:42:58.155Z</time></trkpt><trkpt lat="42.9804153" lon="13.2506612"><ele>1369.0</ele><time>2026-05-03T10:43:00.157Z</time></trkpt><trkpt lat="42.9803571" lon="13.2507481"><ele>1367.0</ele><time>2026-05-03T10:43:02.156Z</time></trkpt><trkpt lat="42.9803068" lon="13.2508276"><ele>1365.0</ele><time>2026-05-03T10:43:04.155Z</time></trkpt><trkpt lat="42.9802508" lon="13.2509274"><ele>1365.0</ele><time>2026-05-03T10:43:06.155Z</time></trkpt><trkpt lat="42.9801676" lon="13.2510307"><ele>1365.0</ele><time>2026-05-03T10:43:08.156Z</time></trkpt><trkpt lat="42.9801552" lon="13.251147"><ele>1365.0</ele><time>2026-05-03T10:43:10.156Z</time></trkpt><trkpt lat="42.980052" lon="13.2512331"><ele>1365.0</ele><time>2026-05-03T10:43:12.156Z</time></trkpt><trkpt lat="42.9799855" lon="13.2513715"><ele>1365.0</ele><time>2026-05-03T10:43:14.155Z</time></trkpt><trkpt lat="42.979931" lon="13.2514284"><ele>1366.142857142857</ele><time>2026-05-03T10:43:15.154Z</time></trkpt><trkpt lat="42.9798836" lon="13.2514925"><ele>1367.2857142857142</ele><time>2026-05-03T10:43:16.154Z</time></trkpt><trkpt lat="42.9798455" lon="13.251567"><ele>1368.4285714285716</ele><time>2026-05-03T10:43:17.154Z</time></trkpt><trkpt lat="42.9797862" lon="13.2516272"><ele>1369.5714285714284</ele><time>2026-05-03T10:43:18.157Z</time></trkpt><trkpt lat="42.9797297" lon="13.2516871"><ele>1370.7142857142858</ele><time>2026-05-03T10:43:19.156Z</time></trkpt><trkpt lat="42.9796524" lon="13.2517288"><ele>1371.857142857143</ele><time>2026-05-03T10:43:20.155Z</time></trkpt><trkpt lat="42.9796053" lon="13.2517982"><ele>1373.0</ele><time>2026-05-03T10:43:21.155Z</time></trkpt><trkpt lat="42.9795404" lon="13.2518605"><ele>1373.0</ele><time>2026-05-03T10:43:22.156Z</time></trkpt><trkpt lat="42.9794706" lon="13.2519269"><ele>1373.0</ele><time>2026-05-03T10:43:23.156Z</time></trkpt><trkpt lat="42.9794091" lon="13.2519981"><ele>1373.0</ele><time>2026-05-03T10:43:24.156Z</time></trkpt><trkpt lat="42.9793537" lon="13.2520507"><ele>1373.0</ele><time>2026-05-03T10:43:25.156Z</time></trkpt><trkpt lat="42.9793152" lon="13.2521487"><ele>1373.0</ele><time>2026-05-03T10:43:26.155Z</time></trkpt><trkpt lat="42.9792879" lon="13.2522681"><ele>1373.0</ele><time>2026-05-03T10:43:27.156Z</time></trkpt><trkpt lat="42.9792446" lon="13.2523578"><ele>1373.4</ele><time>2026-05-03T10:43:28.156Z</time></trkpt><trkpt lat="42.9792114" lon="13.2524345"><ele>1373.8000000000002</ele><time>2026-05-03T10:43:29.155Z</time></trkpt><trkpt lat="42.9792014" lon="13.252523"><ele>1374.2</ele><time>2026-05-03T10:43:30.154Z</time></trkpt><trkpt lat="42.9791806" lon="13.2526767"><ele>1374.6</ele><time>2026-05-03T10:43:32.156Z</time></trkpt><trkpt lat="42.9791789" lon="13.2528218"><ele>1375.0</ele><time>2026-05-03T10:43:34.155Z</time></trkpt><trkpt lat="42.9791902" lon="13.252963"><ele>1370.3333333333333</ele><time>2026-05-03T10:43:36.156Z</time></trkpt><trkpt lat="42.979212" lon="13.2530574"><ele>1365.6666666666665</ele><time>2026-05-03T10:43:37.156Z</time></trkpt><trkpt lat="42.9792531" lon="13.2531941"><ele>1361.0</ele><time>2026-05-03T10:43:39.155Z</time></trkpt><trkpt lat="42.9793088" lon="13.2532983"><ele>1356.3333333333333</ele><time>2026-05-03T10:43:41.155Z</time></trkpt><trkpt lat="42.9793493" lon="13.2533922"><ele>1351.6666666666667</ele><time>2026-05-03T10:43:43.155Z</time></trkpt><trkpt lat="42.9793777" lon="13.2534869"><ele>1347.0</ele><time>2026-05-03T10:43:45.154Z</time></trkpt><trkpt lat="42.9794116" lon="13.2535938"><ele>1345.0</ele><time>2026-05-03T10:43:47.155Z</time></trkpt><trkpt lat="42.9794134" lon="13.253697"><ele>1343.0</ele><time>2026-05-03T10:43:49.157Z</time></trkpt><trkpt lat="42.9794579" lon="13.2537901"><ele>1341.0</ele><time>2026-05-03T10:43:51.156Z</time></trkpt><trkpt lat="42.9794906" lon="13.2538887"><ele>1339.0</ele><time>2026-05-03T10:43:54.157Z</time></trkpt><trkpt lat="42.9795141" lon="13.2539983"><ele>1337.0</ele><time>2026-05-03T10:44:13.153Z</time></trkpt><trkpt lat="42.9795313" lon="13.2538907"><ele>1335.0</ele><time>2026-05-03T10:45:26.156Z</time></trkpt><trkpt lat="42.9794968" lon="13.2538158"><ele>1333.5714285714284</ele><time>2026-05-03T10:45:29.156Z</time></trkpt><trkpt lat="42.9794552" lon="13.2537368"><ele>1332.1428571428573</ele><time>2026-05-03T10:45:32.156Z</time></trkpt><trkpt lat="42.9794367" lon="13.2536524"><ele>1330.7142857142858</ele><time>2026-05-03T10:45:35.157Z</time></trkpt><trkpt lat="42.9794106" lon="13.2535686"><ele>1329.2857142857142</ele><time>2026-05-03T10:45:38.155Z</time></trkpt><trkpt lat="42.9793818" lon="13.253469"><ele>1327.8571428571427</ele><time>2026-05-03T10:45:42.156Z</time></trkpt><trkpt lat="42.9793375" lon="13.2533961"><ele>1326.4285714285716</ele><time>2026-05-03T10:45:45.157Z</time></trkpt><trkpt lat="42.9792934" lon="13.2533311"><ele>1325.0</ele><time>2026-05-03T10:45:48.156Z</time></trkpt><trkpt lat="42.9792744" lon="13.2532298"><ele>1325.0</ele><time>2026-05-03T10:45:52.155Z</time></trkpt><trkpt lat="42.979273" lon="13.2531377"><ele>1325.0</ele><time>2026-05-03T10:45:55.153Z</time></trkpt><trkpt lat="42.9792733" lon="13.2530469"><ele>1325.0</ele><time>2026-05-03T10:45:59.156Z</time></trkpt><trkpt lat="42.9792434" lon="13.252946"><ele>1325.0</ele><time>2026-05-03T10:46:03.158Z</time></trkpt><trkpt lat="42.9792272" lon="13.2528365"><ele>1325.0</ele><time>2026-05-03T10:46:07.156Z</time></trkpt><trkpt lat="42.9792409" lon="13.2527461"><ele>1325.0</ele><time>2026-05-03T10:46:10.158Z</time></trkpt><trkpt lat="42.9792769" lon="13.2526671"><ele>1325.0</ele><time>2026-05-03T10:46:13.154Z</time></trkpt><trkpt lat="42.9793122" lon="13.2525958"><ele>1328.142857142857</ele><time>2026-05-03T10:46:16.156Z</time></trkpt><trkpt lat="42.9793632" lon="13.2525184"><ele>1331.2857142857142</ele><time>2026-05-03T10:46:20.157Z</time></trkpt><trkpt lat="42.979423" lon="13.25244"><ele>1334.4285714285713</ele><time>2026-05-03T10:46:24.155Z</time></trkpt><trkpt lat="42.9794761" lon="13.2523649"><ele>1337.5714285714284</ele><time>2026-05-03T10:46:28.158Z</time></trkpt><trkpt lat="42.9795197" lon="13.2522998"><ele>1340.7142857142858</ele><time>2026-05-03T10:46:31.157Z</time></trkpt><trkpt lat="42.9795709" lon="13.2522228"><ele>1343.8571428571427</ele><time>2026-05-03T10:46:34.16Z</time></trkpt><trkpt lat="42.979622" lon="13.2521604"><ele>1347.0</ele><time>2026-05-03T10:46:37.155Z</time></trkpt><trkpt lat="42.9796682" lon="13.2520992"><ele>1345.8571428571427</ele><time>2026-05-03T10:46:40.157Z</time></trkpt><trkpt lat="42.9797298" lon="13.2520262"><ele>1344.7142857142858</ele><time>2026-05-03T10:46:43.156Z</time></trkpt><trkpt lat="42.9797717" lon="13.2519546"><ele>1343.5714285714284</ele><time>2026-05-03T10:46:46.158Z</time></trkpt><trkpt lat="42.9798188" lon="13.251891"><ele>1342.4285714285713</ele><time>2026-05-03T10:46:49.157Z</time></trkpt><trkpt lat="42.9798739" lon="13.2518075"><ele>1341.2857142857142</ele><time>2026-05-03T10:46:53.158Z</time></trkpt><trkpt lat="42.9799242" lon="13.2517274"><ele>1340.142857142857</ele><time>2026-05-03T10:46:56.154Z</time></trkpt><trkpt lat="42.9799737" lon="13.25166"><ele>1339.0</ele><time>2026-05-03T10:46:59.155Z</time></trkpt><trkpt lat="42.9800253" lon="13.2515788"><ele>1339.0</ele><time>2026-05-03T10:47:03.157Z</time></trkpt><trkpt lat="42.9800744" lon="13.2515086"><ele>1339.0</ele><time>2026-05-03T10:47:06.158Z</time></trkpt><trkpt lat="42.980127" lon="13.2514356"><ele>1339.0</ele><time>2026-05-03T10:47:09.157Z</time></trkpt><trkpt lat="42.9801919" lon="13.2513755"><ele>1339.0</ele><time>2026-05-03T10:47:12.156Z</time></trkpt><trkpt lat="42.9802448" lon="13.2513091"><ele>1339.0</ele><time>2026-05-03T10:47:15.154Z</time></trkpt><trkpt lat="42.9802843" lon="13.2512078"><ele>1339.0</ele><time>2026-05-03T10:47:19.156Z</time></trkpt><trkpt lat="42.9803248" lon="13.2511381"><ele>1339.0</ele><time>2026-05-03T10:47:22.156Z</time></trkpt><trkpt lat="42.9803638" lon="13.2510505"><ele>1342.7142857142858</ele><time>2026-05-03T10:47:25.156Z</time></trkpt><trkpt lat="42.9804014" lon="13.2509716"><ele>1346.4285714285713</ele><time>2026-05-03T10:47:27.158Z</time></trkpt><trkpt lat="42.9804546" lon="13.2508926"><ele>1350.142857142857</ele><time>2026-05-03T10:47:29.154Z</time></trkpt><trkpt lat="42.9805119" lon="13.2508264"><ele>1353.857142857143</ele><time>2026-05-03T10:47:31.154Z</time></trkpt><trkpt lat="42.9805699" lon="13.2507631"><ele>1357.5714285714284</ele><time>2026-05-03T10:47:33.158Z</time></trkpt><trkpt lat="42.9806286" lon="13.2507121"><ele>1361.2857142857142</ele><time>2026-05-03T10:47:35.156Z</time></trkpt><trkpt lat="42.9806994" lon="13.2506575"><ele>1365.0</ele><time>2026-05-03T10:47:37.156Z</time></trkpt><trkpt lat="42.9808141" lon="13.2505901"><ele>1367.4</ele><time>2026-05-03T10:47:39.157Z</time></trkpt><trkpt lat="42.9808966" lon="13.2505697"><ele>1369.8</ele><time>2026-05-03T10:47:41.157Z</time></trkpt><trkpt lat="42.9809869" lon="13.2505118"><ele>1372.1999999999998</ele><time>2026-05-03T10:47:43.157Z</time></trkpt><trkpt lat="42.9810782" lon="13.2504492"><ele>1374.6</ele><time>2026-05-03T10:47:45.157Z</time></trkpt><trkpt lat="42.9811828" lon="13.2503963"><ele>1377.0</ele><time>2026-05-03T10:47:47.155Z</time></trkpt><trkpt lat="42.9812533" lon="13.2503732"><ele>1377.0</ele><time>2026-05-03T10:47:48.158Z</time></trkpt><trkpt lat="42.9813727" lon="13.2503368"><ele>1377.0</ele><time>2026-05-03T10:47:50.157Z</time></trkpt><trkpt lat="42.9814912" lon="13.2503121"><ele>1377.0</ele><time>2026-05-03T10:47:52.16Z</time></trkpt><trkpt lat="42.9816153" lon="13.2502897"><ele>1377.0</ele><time>2026-05-03T10:47:54.157Z</time></trkpt><trkpt lat="42.9817094" lon="13.2502299"><ele>1374.3333333333333</ele><time>2026-05-03T10:47:55.157Z</time></trkpt><trkpt lat="42.9817858" lon="13.2502117"><ele>1371.6666666666667</ele><time>2026-05-03T10:47:56.158Z</time></trkpt><trkpt lat="42.9818497" lon="13.2501989"><ele>1369.0</ele><time>2026-05-03T10:47:57.157Z</time></trkpt><trkpt lat="42.9819815" lon="13.250177"><ele>1366.3333333333335</ele><time>2026-05-03T10:47:59.158Z</time></trkpt><trkpt lat="42.9820671" lon="13.2501608"><ele>1363.6666666666667</ele><time>2026-05-03T10:48:00.158Z</time></trkpt><trkpt lat="42.9821473" lon="13.2501522"><ele>1361.0</ele><time>2026-05-03T10:48:01.156Z</time></trkpt><trkpt lat="42.9822201" lon="13.2501476"><ele>1361.0</ele><time>2026-05-03T10:48:02.156Z</time></trkpt><trkpt lat="42.9822884" lon="13.2501103"><ele>1361.0</ele><time>2026-05-03T10:48:03.157Z</time></trkpt><trkpt lat="42.9823969" lon="13.2500762"><ele>1361.0</ele><time>2026-05-03T10:48:04.158Z</time></trkpt><trkpt lat="42.9824943" lon="13.2500459"><ele>1361.0</ele><time>2026-05-03T10:48:05.158Z</time></trkpt><trkpt lat="42.9825936" lon="13.2500272"><ele>1361.0</ele><time>2026-05-03T10:48:06.159Z</time></trkpt><trkpt lat="42.9827041" lon="13.249999"><ele>1358.1666666666667</ele><time>2026-05-03T10:48:07.156Z</time></trkpt><trkpt lat="42.982787" lon="13.2499897"><ele>1355.3333333333335</ele><time>2026-05-03T10:48:08.158Z</time></trkpt><trkpt lat="42.982889" lon="13.2499854"><ele>1352.5</ele><time>2026-05-03T10:48:09.156Z</time></trkpt><trkpt lat="42.98298" lon="13.2499723"><ele>1349.6666666666667</ele><time>2026-05-03T10:48:10.155Z</time></trkpt><trkpt lat="42.9830704" lon="13.24996"><ele>1346.8333333333333</ele><time>2026-05-03T10:48:11.157Z</time></trkpt><trkpt lat="42.9831475" lon="13.2499405"><ele>1344.0</ele><time>2026-05-03T10:48:12.158Z</time></trkpt><trkpt lat="42.9832384" lon="13.2499094"><ele>1344.0</ele><time>2026-05-03T10:48:13.158Z</time></trkpt><trkpt lat="42.9833256" lon="13.2498666"><ele>1344.0</ele><time>2026-05-03T10:48:14.156Z</time></trkpt><trkpt lat="42.9834172" lon="13.2498091"><ele>1344.0</ele><time>2026-05-03T10:48:15.154Z</time></trkpt><trkpt lat="42.9834966" lon="13.2497547"><ele>1344.0</ele><time>2026-05-03T10:48:16.155Z</time></trkpt><trkpt lat="42.9835792" lon="13.2496934"><ele>1344.0</ele><time>2026-05-03T10:48:17.157Z</time></trkpt><trkpt lat="42.9836574" lon="13.2496169"><ele>1342.6</ele><time>2026-05-03T10:48:18.157Z</time></trkpt><trkpt lat="42.9837372" lon="13.2495222"><ele>1341.2</ele><time>2026-05-03T10:48:19.157Z</time></trkpt><trkpt lat="42.983804" lon="13.2494338"><ele>1339.8</ele><time>2026-05-03T10:48:20.158Z</time></trkpt><trkpt lat="42.9838875" lon="13.2493441"><ele>1338.3999999999999</ele><time>2026-05-03T10:48:21.157Z</time></trkpt><trkpt lat="42.9839847" lon="13.2492615"><ele>1337.0</ele><time>2026-05-03T10:48:22.158Z</time></trkpt><trkpt lat="42.9840832" lon="13.2491743"><ele>1337.0</ele><time>2026-05-03T10:48:23.158Z</time></trkpt><trkpt lat="42.9841788" lon="13.2490852"><ele>1337.0</ele><time>2026-05-03T10:48:24.158Z</time></trkpt><trkpt lat="42.9842426" lon="13.2489933"><ele>1337.0</ele><time>2026-05-03T10:48:25.159Z</time></trkpt><trkpt lat="42.9843178" lon="13.2489114"><ele>1337.0</ele><time>2026-05-03T10:48:26.157Z</time></trkpt><trkpt lat="42.9843936" lon="13.2488056"><ele>1337.0</ele><time>2026-05-03T10:48:27.156Z</time></trkpt><trkpt lat="42.9844602" lon="13.2487093"><ele>1333.3999999999999</ele><time>2026-05-03T10:48:28.157Z</time></trkpt><trkpt lat="42.9845411" lon="13.2486212"><ele>1329.8</ele><time>2026-05-03T10:48:29.157Z</time></trkpt><trkpt lat="42.9846107" lon="13.2485283"><ele>1326.2</ele><time>2026-05-03T10:48:30.156Z</time></trkpt><trkpt lat="42.9846912" lon="13.2484494"><ele>1322.6</ele><time>2026-05-03T10:48:31.158Z</time></trkpt><trkpt lat="42.9847514" lon="13.2483317"><ele>1319.0</ele><time>2026-05-03T10:48:32.156Z</time></trkpt><trkpt lat="42.9848301" lon="13.2482481"><ele>1319.0</ele><time>2026-05-03T10:48:33.157Z</time></trkpt><trkpt lat="42.9849064" lon="13.2481794"><ele>1319.0</ele><time>2026-05-03T10:48:34.156Z</time></trkpt><trkpt lat="42.9849922" lon="13.2481157"><ele>1319.0</ele><time>2026-05-03T10:48:35.158Z</time></trkpt><trkpt lat="42.9850991" lon="13.2480846"><ele>1319.0</ele><time>2026-05-03T10:48:36.157Z</time></trkpt><trkpt lat="42.9852074" lon="13.2480045"><ele>1319.0</ele><time>2026-05-03T10:48:37.157Z</time></trkpt><trkpt lat="42.9853081" lon="13.2479483"><ele>1318.8000000000002</ele><time>2026-05-03T10:48:38.158Z</time></trkpt><trkpt lat="42.9854062" lon="13.2478764"><ele>1318.6000000000001</ele><time>2026-05-03T10:48:39.157Z</time></trkpt><trkpt lat="42.9854943" lon="13.2478216"><ele>1318.4</ele><time>2026-05-03T10:48:40.157Z</time></trkpt><trkpt lat="42.9855748" lon="13.2477588"><ele>1318.2</ele><time>2026-05-03T10:48:41.158Z</time></trkpt><trkpt lat="42.9856928" lon="13.2477527"><ele>1318.0</ele><time>2026-05-03T10:48:42.158Z</time></trkpt><trkpt lat="42.9857956" lon="13.247722"><ele>1319.6000000000001</ele><time>2026-05-03T10:48:43.157Z</time></trkpt><trkpt lat="42.9858852" lon="13.2477188"><ele>1321.2</ele><time>2026-05-03T10:48:44.158Z</time></trkpt><trkpt lat="42.9859778" lon="13.2477334"><ele>1322.8</ele><time>2026-05-03T10:48:45.157Z</time></trkpt><trkpt lat="42.9860783" lon="13.2477631"><ele>1324.4</ele><time>2026-05-03T10:48:46.157Z</time></trkpt><trkpt lat="42.9861707" lon="13.2477913"><ele>1326.0</ele><time>2026-05-03T10:48:47.157Z</time></trkpt><trkpt lat="42.986258" lon="13.2478175"><ele>1326.0</ele><time>2026-05-03T10:48:48.158Z</time></trkpt><trkpt lat="42.9863446" lon="13.247845"><ele>1326.0</ele><time>2026-05-03T10:48:49.157Z</time></trkpt><trkpt lat="42.9864313" lon="13.2478725"><ele>1326.0</ele><time>2026-05-03T10:48:50.157Z</time></trkpt><trkpt lat="42.9865064" lon="13.2478895"><ele>1326.0</ele><time>2026-05-03T10:48:51.158Z</time></trkpt><trkpt lat="42.9866305" lon="13.2479345"><ele>1326.0</ele><time>2026-05-03T10:48:53.158Z</time></trkpt><trkpt lat="42.9867073" lon="13.2479355"><ele>1320.8</ele><time>2026-05-03T10:48:54.157Z</time></trkpt><trkpt lat="42.9868239" lon="13.2479473"><ele>1315.6</ele><time>2026-05-03T10:48:56.157Z</time></trkpt><trkpt lat="42.9869257" lon="13.2479058"><ele>1310.4</ele><time>2026-05-03T10:48:58.156Z</time></trkpt><trkpt lat="42.9869767" lon="13.2478295"><ele>1305.2</ele><time>2026-05-03T10:49:00.154Z</time></trkpt><trkpt lat="42.9870268" lon="13.2477385"><ele>1300.0</ele><time>2026-05-03T10:49:02.157Z</time></trkpt><trkpt lat="42.9870766" lon="13.2476519"><ele>1300.0</ele><time>2026-05-03T10:49:04.16Z</time></trkpt><trkpt lat="42.9871255" lon="13.2475561"><ele>1300.0</ele><time>2026-05-03T10:49:06.155Z</time></trkpt><trkpt lat="42.9871607" lon="13.2474535"><ele>1300.0</ele><time>2026-05-03T10:49:08.157Z</time></trkpt><trkpt lat="42.9871952" lon="13.2473458"><ele>1300.0</ele><time>2026-05-03T10:49:10.158Z</time></trkpt><trkpt lat="42.9872176" lon="13.2472477"><ele>1300.0</ele><time>2026-05-03T10:49:12.158Z</time></trkpt><trkpt lat="42.9872513" lon="13.24714"><ele>1300.0</ele><time>2026-05-03T10:49:14.158Z</time></trkpt><trkpt lat="42.9872908" lon="13.2470378"><ele>1301.5</ele><time>2026-05-03T10:49:16.154Z</time></trkpt><trkpt lat="42.9873099" lon="13.2469215"><ele>1303.0</ele><time>2026-05-03T10:49:18.155Z</time></trkpt><trkpt lat="42.9873463" lon="13.2468342"><ele>1304.5</ele><time>2026-05-03T10:49:20.154Z</time></trkpt><trkpt lat="42.9873697" lon="13.2467218"><ele>1306.0</ele><time>2026-05-03T10:49:22.156Z</time></trkpt><trkpt lat="42.987382" lon="13.2466052"><ele>1307.5</ele><time>2026-05-03T10:49:24.158Z</time></trkpt><trkpt lat="42.9873786" lon="13.2464917"><ele>1309.0</ele><time>2026-05-03T10:49:26.154Z</time></trkpt><trkpt lat="42.9873983" lon="13.2463915"><ele>1307.5</ele><time>2026-05-03T10:49:28.156Z</time></trkpt><trkpt lat="42.9874345" lon="13.2463014"><ele>1306.0</ele><time>2026-05-03T10:49:30.159Z</time></trkpt><trkpt lat="42.9874471" lon="13.2461848"><ele>1304.5</ele><time>2026-05-03T10:49:32.157Z</time></trkpt><trkpt lat="42.9874727" lon="13.2460728"><ele>1303.0</ele><time>2026-05-03T10:49:35.157Z</time></trkpt><trkpt lat="42.9874719" lon="13.2459867"><ele>1301.5</ele><time>2026-05-03T10:49:37.157Z</time></trkpt><trkpt lat="42.9875009" lon="13.2458686"><ele>1300.0</ele><time>2026-05-03T10:49:40.155Z</time></trkpt><trkpt lat="42.987512" lon="13.2457466"><ele>1301.3333333333333</ele><time>2026-05-03T10:49:43.158Z</time></trkpt><trkpt lat="42.9875224" lon="13.2456249"><ele>1302.6666666666665</ele><time>2026-05-03T10:49:46.157Z</time></trkpt><trkpt lat="42.9875358" lon="13.2455216"><ele>1304.0</ele><time>2026-05-03T10:49:49.157Z</time></trkpt><trkpt lat="42.9875234" lon="13.2454171"><ele>1305.3333333333333</ele><time>2026-05-03T10:49:52.156Z</time></trkpt><trkpt lat="42.9875251" lon="13.2453083"><ele>1306.6666666666667</ele><time>2026-05-03T10:49:55.155Z</time></trkpt><trkpt lat="42.9875303" lon="13.2451891"><ele>1308.0</ele><time>2026-05-03T10:49:58.159Z</time></trkpt><trkpt lat="42.9875349" lon="13.2450697"><ele>1308.0</ele><time>2026-05-03T10:50:01.157Z</time></trkpt><trkpt lat="42.9875559" lon="13.2449758"><ele>1308.0</ele><time>2026-05-03T10:50:04.158Z</time></trkpt><trkpt lat="42.9875612" lon="13.244873"><ele>1308.0</ele><time>2026-05-03T10:50:07.156Z</time></trkpt><trkpt lat="42.9875702" lon="13.2447719"><ele>1308.0</ele><time>2026-05-03T10:50:10.155Z</time></trkpt><trkpt lat="42.9875697" lon="13.2446787"><ele>1308.0</ele><time>2026-05-03T10:50:13.157Z</time></trkpt><trkpt lat="42.9875802" lon="13.24459"><ele>1308.0</ele><time>2026-05-03T10:50:16.154Z</time></trkpt><trkpt lat="42.9876007" lon="13.2445035"><ele>1308.0</ele><time>2026-05-03T10:50:19.156Z</time></trkpt><trkpt lat="42.9876285" lon="13.2444174"><ele>1309.142857142857</ele><time>2026-05-03T10:50:22.154Z</time></trkpt><trkpt lat="42.9876518" lon="13.2443271"><ele>1310.2857142857142</ele><time>2026-05-03T10:50:25.155Z</time></trkpt><trkpt lat="42.9876637" lon="13.2442329"><ele>1311.4285714285716</ele><time>2026-05-03T10:50:28.157Z</time></trkpt><trkpt lat="42.9876698" lon="13.2441407"><ele>1312.5714285714284</ele><time>2026-05-03T10:50:31.155Z</time></trkpt><trkpt lat="42.9876796" lon="13.2440517"><ele>1313.7142857142858</ele><time>2026-05-03T10:50:34.158Z</time></trkpt><trkpt lat="42.9876906" lon="13.2439566"><ele>1314.857142857143</ele><time>2026-05-03T10:50:37.157Z</time></trkpt><trkpt lat="42.987696" lon="13.2438579"><ele>1316.0</ele><time>2026-05-03T10:50:40.157Z</time></trkpt><trkpt lat="42.9877124" lon="13.2437648"><ele>1317.2857142857142</ele><time>2026-05-03T10:50:43.157Z</time></trkpt><trkpt lat="42.9877275" lon="13.2436729"><ele>1318.5714285714284</ele><time>2026-05-03T10:50:46.156Z</time></trkpt><trkpt lat="42.987729" lon="13.2435837"><ele>1319.857142857143</ele><time>2026-05-03T10:50:49.158Z</time></trkpt><trkpt lat="42.9877397" lon="13.2434943"><ele>1321.142857142857</ele><time>2026-05-03T10:50:52.158Z</time></trkpt><trkpt lat="42.9877605" lon="13.2434105"><ele>1322.4285714285713</ele><time>2026-05-03T10:50:55.158Z</time></trkpt><trkpt lat="42.9877991" lon="13.2433299"><ele>1323.7142857142858</ele><time>2026-05-03T10:50:58.154Z</time></trkpt><trkpt lat="42.9878245" lon="13.2432393"><ele>1325.0</ele><time>2026-05-03T10:51:01.154Z</time></trkpt><trkpt lat="42.98784" lon="13.2431445"><ele>1325.857142857143</ele><time>2026-05-03T10:51:04.157Z</time></trkpt><trkpt lat="42.9878653" lon="13.2430567"><ele>1326.7142857142856</ele><time>2026-05-03T10:51:07.156Z</time></trkpt><trkpt lat="42.9878817" lon="13.2429733"><ele>1327.5714285714284</ele><time>2026-05-03T10:51:10.158Z</time></trkpt><trkpt lat="42.9878967" lon="13.2428771"><ele>1328.4285714285716</ele><time>2026-05-03T10:51:13.155Z</time></trkpt><trkpt lat="42.9879263" lon="13.2427859"><ele>1329.2857142857142</ele><time>2026-05-03T10:51:16.154Z</time></trkpt><trkpt lat="42.9879586" lon="13.2427057"><ele>1330.142857142857</ele><time>2026-05-03T10:51:19.159Z</time></trkpt><trkpt lat="42.9879869" lon="13.2426181"><ele>1331.0</ele><time>2026-05-03T10:51:22.157Z</time></trkpt><trkpt lat="42.9880153" lon="13.2425289"><ele>1331.0</ele><time>2026-05-03T10:51:25.157Z</time></trkpt><trkpt lat="42.9880463" lon="13.2424455"><ele>1331.0</ele><time>2026-05-03T10:51:28.154Z</time></trkpt><trkpt lat="42.9880823" lon="13.2423473"><ele>1331.0</ele><time>2026-05-03T10:51:31.158Z</time></trkpt><trkpt lat="42.9881148" lon="13.2422484"><ele>1331.0</ele><time>2026-05-03T10:51:34.158Z</time></trkpt><trkpt lat="42.9881442" lon="13.2421483"><ele>1331.0</ele><time>2026-05-03T10:51:37.156Z</time></trkpt><trkpt lat="42.9881805" lon="13.2420531"><ele>1331.0</ele><time>2026-05-03T10:51:40.157Z</time></trkpt><trkpt lat="42.988224" lon="13.2419569"><ele>1331.5</ele><time>2026-05-03T10:51:43.155Z</time></trkpt><trkpt lat="42.9882706" lon="13.2418625"><ele>1332.0</ele><time>2026-05-03T10:51:46.158Z</time></trkpt><trkpt lat="42.98831" lon="13.2417643"><ele>1332.5</ele><time>2026-05-03T10:51:49.16Z</time></trkpt><trkpt lat="42.988353" lon="13.2416711"><ele>1333.0</ele><time>2026-05-03T10:51:52.159Z</time></trkpt><trkpt lat="42.988396" lon="13.241569"><ele>1333.5</ele><time>2026-05-03T10:51:55.154Z</time></trkpt><trkpt lat="42.988437" lon="13.2414666"><ele>1334.0</ele><time>2026-05-03T10:51:58.154Z</time></trkpt><trkpt lat="42.9884576" lon="13.2413784"><ele>1334.7142857142858</ele><time>2026-05-03T10:52:00.157Z</time></trkpt><trkpt lat="42.9884702" lon="13.2412934"><ele>1335.4285714285716</ele><time>2026-05-03T10:52:02.157Z</time></trkpt><trkpt lat="42.9884815" lon="13.2411911"><ele>1336.1428571428573</ele><time>2026-05-03T10:52:05.158Z</time></trkpt><trkpt lat="42.9884783" lon="13.2411045"><ele>1336.857142857143</ele><time>2026-05-03T10:52:08.158Z</time></trkpt><trkpt lat="42.9884811" lon="13.2410082"><ele>1337.5714285714284</ele><time>2026-05-03T10:52:11.155Z</time></trkpt><trkpt lat="42.9884666" lon="13.2409212"><ele>1338.2857142857144</ele><time>2026-05-03T10:52:14.157Z</time></trkpt><trkpt lat="42.9884463" lon="13.2407929"><ele>1339.0</ele><time>2026-05-03T10:52:17.155Z</time></trkpt><trkpt lat="42.9884352" lon="13.2406784"><ele>1339.1666666666665</ele><time>2026-05-03T10:52:19.156Z</time></trkpt><trkpt lat="42.9884342" lon="13.240559"><ele>1339.3333333333333</ele><time>2026-05-03T10:52:21.158Z</time></trkpt><trkpt lat="42.9884415" lon="13.2404468"><ele>1339.5</ele><time>2026-05-03T10:52:23.159Z</time></trkpt><trkpt lat="42.9884526" lon="13.2403355"><ele>1339.6666666666667</ele><time>2026-05-03T10:52:25.155Z</time></trkpt><trkpt lat="42.9884517" lon="13.2402392"><ele>1339.8333333333335</ele><time>2026-05-03T10:52:28.159Z</time></trkpt><trkpt lat="42.988444" lon="13.2401186"><ele>1340.0</ele><time>2026-05-03T10:54:45.154Z</time></trkpt><trkpt lat="42.9884234" lon="13.2400299"><ele>1340.0</ele><time>2026-05-03T10:54:47.156Z</time></trkpt><trkpt lat="42.9884168" lon="13.2399354"><ele>1340.0</ele><time>2026-05-03T10:54:49.158Z</time></trkpt><trkpt lat="42.9884094" lon="13.2398317"><ele>1340.0</ele><time>2026-05-03T10:54:51.157Z</time></trkpt><trkpt lat="42.9883966" lon="13.2397257"><ele>1340.0</ele><time>2026-05-03T10:54:53.159Z</time></trkpt><trkpt lat="42.9883789" lon="13.2396015"><ele>1340.0</ele><time>2026-05-03T10:54:55.157Z</time></trkpt><trkpt lat="42.9883567" lon="13.2394626"><ele>1340.0</ele><time>2026-05-03T10:54:57.157Z</time></trkpt><trkpt lat="42.9883234" lon="13.2393031"><ele>1338.0</ele><time>2026-05-03T10:54:59.157Z</time></trkpt><trkpt lat="42.9882938" lon="13.2392229"><ele>1336.0</ele><time>2026-05-03T10:55:00.156Z</time></trkpt><trkpt lat="42.9882654" lon="13.2391264"><ele>1334.0</ele><time>2026-05-03T10:55:01.158Z</time></trkpt><trkpt lat="42.988237" lon="13.2390413"><ele>1332.0</ele><time>2026-05-03T10:55:02.158Z</time></trkpt><trkpt lat="42.9881853" lon="13.2389523"><ele>1330.0</ele><time>2026-05-03T10:55:03.158Z</time></trkpt><trkpt lat="42.9881265" lon="13.2388745"><ele>1328.0</ele><time>2026-05-03T10:55:04.157Z</time></trkpt><trkpt lat="42.9880598" lon="13.2388054"><ele>1325.1666666666667</ele><time>2026-05-03T10:55:05.156Z</time></trkpt><trkpt lat="42.9879896" lon="13.2387305"><ele>1322.3333333333335</ele><time>2026-05-03T10:55:06.157Z</time></trkpt><trkpt lat="42.9879281" lon="13.2386598"><ele>1319.5</ele><time>2026-05-03T10:55:07.158Z</time></trkpt><trkpt lat="42.9879079" lon="13.2385714"><ele>1316.6666666666667</ele><time>2026-05-03T10:55:08.157Z</time></trkpt><trkpt lat="42.9880042" lon="13.2384723"><ele>1313.8333333333333</ele><time>2026-05-03T10:55:10.159Z</time></trkpt><trkpt lat="42.9880881" lon="13.2384619"><ele>1311.0</ele><time>2026-05-03T10:55:11.158Z</time></trkpt><trkpt lat="42.9881724" lon="13.2384637"><ele>1311.0</ele><time>2026-05-03T10:55:12.157Z</time></trkpt><trkpt lat="42.9882646" lon="13.2384632"><ele>1311.0</ele><time>2026-05-03T10:55:13.157Z</time></trkpt><trkpt lat="42.9883585" lon="13.2384566"><ele>1311.0</ele><time>2026-05-03T10:55:14.157Z</time></trkpt><trkpt lat="42.9884566" lon="13.2384508"><ele>1311.0</ele><time>2026-05-03T10:55:15.156Z</time></trkpt><trkpt lat="42.9885606" lon="13.2384381"><ele>1311.0</ele><time>2026-05-03T10:55:16.157Z</time></trkpt><trkpt lat="42.9886645" lon="13.2384307"><ele>1310.0</ele><time>2026-05-03T10:55:17.159Z</time></trkpt><trkpt lat="42.988766" lon="13.2384251"><ele>1309.0</ele><time>2026-05-03T10:55:18.158Z</time></trkpt><trkpt lat="42.9888687" lon="13.2384169"><ele>1308.0</ele><time>2026-05-03T10:55:19.157Z</time></trkpt><trkpt lat="42.9889763" lon="13.238405"><ele>1307.0</ele><time>2026-05-03T10:55:20.154Z</time></trkpt><trkpt lat="42.9890966" lon="13.2383875"><ele>1306.0</ele><time>2026-05-03T10:55:21.155Z</time></trkpt><trkpt lat="42.9892132" lon="13.2383703"><ele>1309.0</ele><time>2026-05-03T10:55:22.157Z</time></trkpt><trkpt lat="42.9893335" lon="13.2383485"><ele>1312.0</ele><time>2026-05-03T10:55:23.157Z</time></trkpt><trkpt lat="42.9894532" lon="13.2383184"><ele>1315.0</ele><time>2026-05-03T10:55:24.157Z</time></trkpt><trkpt lat="42.9895752" lon="13.2382779"><ele>1318.0</ele><time>2026-05-03T10:55:25.157Z</time></trkpt><trkpt lat="42.9896895" lon="13.2382082"><ele>1311.25</ele><time>2026-05-03T10:55:26.156Z</time></trkpt><trkpt lat="42.9897947" lon="13.2381232"><ele>1304.5</ele><time>2026-05-03T10:55:27.156Z</time></trkpt><trkpt lat="42.9899013" lon="13.2380298"><ele>1297.75</ele><time>2026-05-03T10:55:28.156Z</time></trkpt><trkpt lat="42.9900092" lon="13.2379393"><ele>1291.0</ele><time>2026-05-03T10:55:29.157Z</time></trkpt><trkpt lat="42.9901305" lon="13.2378611"><ele>1291.0</ele><time>2026-05-03T10:55:30.157Z</time></trkpt><trkpt lat="42.9902563" lon="13.2378097"><ele>1291.0</ele><time>2026-05-03T10:55:31.156Z</time></trkpt><trkpt lat="42.9903852" lon="13.2377697"><ele>1291.0</ele><time>2026-05-03T10:55:32.157Z</time></trkpt><trkpt lat="42.9905168" lon="13.2377374"><ele>1291.0</ele><time>2026-05-03T10:55:33.157Z</time></trkpt><trkpt lat="42.9906474" lon="13.2377001"><ele>1291.0</ele><time>2026-05-03T10:55:34.158Z</time></trkpt><trkpt lat="42.9907789" lon="13.2376391"><ele>1291.0</ele><time>2026-05-03T10:55:35.157Z</time></trkpt><trkpt lat="42.9909088" lon="13.2375727"><ele>1291.0</ele><time>2026-05-03T10:55:36.156Z</time></trkpt><trkpt lat="42.9910293" lon="13.2374919"><ele>1291.0</ele><time>2026-05-03T10:55:37.157Z</time></trkpt><trkpt lat="42.9911487" lon="13.2374008"><ele>1293.25</ele><time>2026-05-03T10:55:38.158Z</time></trkpt><trkpt lat="42.9912752" lon="13.237303"><ele>1295.5</ele><time>2026-05-03T10:55:39.158Z</time></trkpt><trkpt lat="42.9913986" lon="13.2372033"><ele>1297.75</ele><time>2026-05-03T10:55:40.157Z</time></trkpt><trkpt lat="42.9915221" lon="13.2370962"><ele>1300.0</ele><time>2026-05-03T10:55:41.157Z</time></trkpt><trkpt lat="42.9916423" lon="13.2369982"><ele>1296.75</ele><time>2026-05-03T10:55:42.157Z</time></trkpt><trkpt lat="42.9917638" lon="13.2368926"><ele>1293.5</ele><time>2026-05-03T10:55:43.156Z</time></trkpt><trkpt lat="42.9918915" lon="13.2368066"><ele>1290.25</ele><time>2026-05-03T10:55:44.157Z</time></trkpt><trkpt lat="42.9920157" lon="13.2367046"><ele>1287.0</ele><time>2026-05-03T10:55:45.156Z</time></trkpt><trkpt lat="42.9921408" lon="13.2366142"><ele>1287.0</ele><time>2026-05-03T10:55:46.157Z</time></trkpt><trkpt lat="42.9922669" lon="13.2365242"><ele>1287.0</ele><time>2026-05-03T10:55:47.156Z</time></trkpt><trkpt lat="42.9923953" lon="13.2364299"><ele>1287.0</ele><time>2026-05-03T10:55:48.156Z</time></trkpt><trkpt lat="42.9925285" lon="13.2363431"><ele>1287.0</ele><time>2026-05-03T10:55:49.158Z</time></trkpt><trkpt lat="42.9926573" lon="13.2362508"><ele>1283.0</ele><time>2026-05-03T10:55:50.157Z</time></trkpt><trkpt lat="42.9927819" lon="13.2361646"><ele>1279.0</ele><time>2026-05-03T10:55:51.157Z</time></trkpt><trkpt lat="42.9929122" lon="13.2360759"><ele>1275.0</ele><time>2026-05-03T10:55:52.156Z</time></trkpt><trkpt lat="42.9930489" lon="13.2359862"><ele>1271.0</ele><time>2026-05-03T10:55:53.156Z</time></trkpt><trkpt lat="42.9931839" lon="13.2358845"><ele>1271.0</ele><time>2026-05-03T10:55:54.157Z</time></trkpt><trkpt lat="42.9933157" lon="13.2357718"><ele>1271.0</ele><time>2026-05-03T10:55:55.157Z</time></trkpt><trkpt lat="42.9934414" lon="13.2356553"><ele>1271.0</ele><time>2026-05-03T10:55:56.158Z</time></trkpt><trkpt lat="42.9935713" lon="13.2355253"><ele>1266.6666666666667</ele><time>2026-05-03T10:55:57.156Z</time></trkpt><trkpt lat="42.9937091" lon="13.2354018"><ele>1262.3333333333333</ele><time>2026-05-03T10:55:58.158Z</time></trkpt><trkpt lat="42.9938422" lon="13.2352889"><ele>1258.0</ele><time>2026-05-03T10:55:59.157Z</time></trkpt><trkpt lat="42.9939852" lon="13.2352022"><ele>1258.0</ele><time>2026-05-03T10:56:00.157Z</time></trkpt><trkpt lat="42.9941269" lon="13.2350878"><ele>1258.0</ele><time>2026-05-03T10:56:01.157Z</time></trkpt><trkpt lat="42.9942571" lon="13.2349772"><ele>1258.0</ele><time>2026-05-03T10:56:02.157Z</time></trkpt><trkpt lat="42.994379" lon="13.2348585"><ele>1255.75</ele><time>2026-05-03T10:56:03.157Z</time></trkpt><trkpt lat="42.9944993" lon="13.2347318"><ele>1253.5</ele><time>2026-05-03T10:56:04.156Z</time></trkpt><trkpt lat="42.9946046" lon="13.2345969"><ele>1251.25</ele><time>2026-05-03T10:56:05.156Z</time></trkpt><trkpt lat="42.9947077" lon="13.2344666"><ele>1249.0</ele><time>2026-05-03T10:56:06.159Z</time></trkpt><trkpt lat="42.9948054" lon="13.2343454"><ele>1249.0</ele><time>2026-05-03T10:56:07.157Z</time></trkpt><trkpt lat="42.994902" lon="13.2342405"><ele>1249.0</ele><time>2026-05-03T10:56:08.157Z</time></trkpt><trkpt lat="42.9949975" lon="13.2341558"><ele>1249.0</ele><time>2026-05-03T10:56:09.156Z</time></trkpt><trkpt lat="42.9950847" lon="13.2340841"><ele>1249.0</ele><time>2026-05-03T10:56:10.157Z</time></trkpt><trkpt lat="42.9951412" lon="13.2340088"><ele>1249.0</ele><time>2026-05-03T10:56:11.158Z</time></trkpt><trkpt lat="42.9951457" lon="13.2338995"><ele>1249.0</ele><time>2026-05-03T10:56:12.156Z</time></trkpt><trkpt lat="42.9951015" lon="13.2338357"><ele>1249.0</ele><time>2026-05-03T10:56:13.157Z</time></trkpt><trkpt lat="42.9950218" lon="13.2338197"><ele>1249.0</ele><time>2026-05-03T10:56:14.157Z</time></trkpt><trkpt lat="42.9949416" lon="13.2338411"><ele>1249.0</ele><time>2026-05-03T10:56:15.157Z</time></trkpt><trkpt lat="42.9948588" lon="13.2338809"><ele>1249.0</ele><time>2026-05-03T10:56:16.156Z</time></trkpt><trkpt lat="42.9947897" lon="13.2339407"><ele>1249.0</ele><time>2026-05-03T10:56:17.158Z</time></trkpt><trkpt lat="42.9947075" lon="13.2339874"><ele>1249.0</ele><time>2026-05-03T10:56:18.158Z</time></trkpt><trkpt lat="42.9946207" lon="13.2340245"><ele>1249.0</ele><time>2026-05-03T10:56:19.156Z</time></trkpt><trkpt lat="42.9945334" lon="13.2340602"><ele>1249.0</ele><time>2026-05-03T10:56:20.155Z</time></trkpt><trkpt lat="42.9944419" lon="13.2340893"><ele>1249.0</ele><time>2026-05-03T10:56:21.154Z</time></trkpt><trkpt lat="42.9943515" lon="13.234126"><ele>1249.0</ele><time>2026-05-03T10:56:22.158Z</time></trkpt><trkpt lat="42.9942572" lon="13.2341442"><ele>1246.8</ele><time>2026-05-03T10:56:23.158Z</time></trkpt><trkpt lat="42.9941603" lon="13.2341509"><ele>1244.6000000000001</ele><time>2026-05-03T10:56:24.158Z</time></trkpt><trkpt lat="42.9940675" lon="13.2341689"><ele>1242.4</ele><time>2026-05-03T10:56:25.156Z</time></trkpt><trkpt lat="42.9939699" lon="13.2341858"><ele>1240.2</ele><time>2026-05-03T10:56:26.157Z</time></trkpt><trkpt lat="42.9938677" lon="13.234196"><ele>1238.0</ele><time>2026-05-03T10:56:27.157Z</time></trkpt><trkpt lat="42.993764" lon="13.234215"><ele>1238.0</ele><time>2026-05-03T10:56:28.158Z</time></trkpt><trkpt lat="42.9936563" lon="13.2342338"><ele>1238.0</ele><time>2026-05-03T10:56:29.157Z</time></trkpt><trkpt lat="42.9935473" lon="13.2342612"><ele>1238.0</ele><time>2026-05-03T10:56:30.158Z</time></trkpt><trkpt lat="42.993434" lon="13.2342702"><ele>1238.0</ele><time>2026-05-03T10:56:31.156Z</time></trkpt><trkpt lat="42.9933195" lon="13.2342871"><ele>1238.0</ele><time>2026-05-03T10:56:32.157Z</time></trkpt><trkpt lat="42.9932103" lon="13.2343167"><ele>1235.5</ele><time>2026-05-03T10:56:33.157Z</time></trkpt><trkpt lat="42.9931044" lon="13.2343558"><ele>1233.0</ele><time>2026-05-03T10:56:34.157Z</time></trkpt><trkpt lat="42.9929909" lon="13.2344184"><ele>1230.5</ele><time>2026-05-03T10:56:35.157Z</time></trkpt><trkpt lat="42.9928862" lon="13.2344816"><ele>1228.0</ele><time>2026-05-03T10:56:36.157Z</time></trkpt><trkpt lat="42.9927789" lon="13.234548"><ele>1228.0</ele><time>2026-05-03T10:56:37.157Z</time></trkpt><trkpt lat="42.992673" lon="13.2346168"><ele>1228.0</ele><time>2026-05-03T10:56:38.158Z</time></trkpt><trkpt lat="42.9925692" lon="13.2346849"><ele>1228.0</ele><time>2026-05-03T10:56:39.157Z</time></trkpt><trkpt lat="42.9924595" lon="13.2347405"><ele>1228.0</ele><time>2026-05-03T10:56:40.157Z</time></trkpt><trkpt lat="42.992359" lon="13.2348059"><ele>1231.25</ele><time>2026-05-03T10:56:41.159Z</time></trkpt><trkpt lat="42.9922439" lon="13.2348619"><ele>1234.5</ele><time>2026-05-03T10:56:42.156Z</time></trkpt><trkpt lat="42.9921327" lon="13.2349078"><ele>1237.75</ele><time>2026-05-03T10:56:43.158Z</time></trkpt><trkpt lat="42.9920238" lon="13.2349515"><ele>1241.0</ele><time>2026-05-03T10:56:44.156Z</time></trkpt><trkpt lat="42.9919034" lon="13.2349916"><ele>1241.0</ele><time>2026-05-03T10:56:45.156Z</time></trkpt><trkpt lat="42.9917869" lon="13.2350196"><ele>1241.0</ele><time>2026-05-03T10:56:46.157Z</time></trkpt><trkpt lat="42.9916647" lon="13.2350421"><ele>1241.0</ele><time>2026-05-03T10:56:47.158Z</time></trkpt><trkpt lat="42.9915351" lon="13.2350623"><ele>1241.0</ele><time>2026-05-03T10:56:48.157Z</time></trkpt><trkpt lat="42.9914068" lon="13.2350815"><ele>1235.5</ele><time>2026-05-03T10:56:49.157Z</time></trkpt><trkpt lat="42.9912758" lon="13.2351011"><ele>1230.0</ele><time>2026-05-03T10:56:50.158Z</time></trkpt><trkpt lat="42.9911395" lon="13.2351145"><ele>1224.5</ele><time>2026-05-03T10:56:51.157Z</time></trkpt><trkpt lat="42.9910078" lon="13.2351456"><ele>1219.0</ele><time>2026-05-03T10:56:52.158Z</time></trkpt><trkpt lat="42.9908787" lon="13.2351562"><ele>1214.0</ele><time>2026-05-03T10:56:53.157Z</time></trkpt><trkpt lat="42.9907494" lon="13.23518"><ele>1209.0</ele><time>2026-05-03T10:56:54.158Z</time></trkpt><trkpt lat="42.9906141" lon="13.2351972"><ele>1204.0</ele><time>2026-05-03T10:56:55.158Z</time></trkpt><trkpt lat="42.9904821" lon="13.2352365"><ele>1199.0</ele><time>2026-05-03T10:56:56.157Z</time></trkpt><trkpt lat="42.9903465" lon="13.23526"><ele>1199.0</ele><time>2026-05-03T10:56:57.158Z</time></trkpt><trkpt lat="42.9902158" lon="13.2352937"><ele>1199.0</ele><time>2026-05-03T10:56:58.156Z</time></trkpt><trkpt lat="42.9900988" lon="13.2353415"><ele>1199.0</ele><time>2026-05-03T10:56:59.158Z</time></trkpt><trkpt lat="42.9899978" lon="13.2353865"><ele>1199.0</ele><time>2026-05-03T10:57:00.157Z</time></trkpt><trkpt lat="42.9899249" lon="13.235353"><ele>1199.0</ele><time>2026-05-03T10:57:01.156Z</time></trkpt><trkpt lat="42.9898978" lon="13.2352216"><ele>1199.0</ele><time>2026-05-03T10:57:03.156Z</time></trkpt><trkpt lat="42.990012" lon="13.2351706"><ele>1199.0</ele><time>2026-05-03T10:57:05.157Z</time></trkpt><trkpt lat="42.9900819" lon="13.2351505"><ele>1199.0</ele><time>2026-05-03T10:57:06.158Z</time></trkpt><trkpt lat="42.9901484" lon="13.2351289"><ele>1199.0</ele><time>2026-05-03T10:57:07.157Z</time></trkpt><trkpt lat="42.9902207" lon="13.235113"><ele>1199.0</ele><time>2026-05-03T10:57:08.158Z</time></trkpt><trkpt lat="42.9902972" lon="13.2350785"><ele>1199.0</ele><time>2026-05-03T10:57:09.158Z</time></trkpt><trkpt lat="42.9903772" lon="13.2350443"><ele>1199.0</ele><time>2026-05-03T10:57:10.157Z</time></trkpt><trkpt lat="42.9904513" lon="13.2350077"><ele>1199.0</ele><time>2026-05-03T10:57:11.156Z</time></trkpt><trkpt lat="42.9905254" lon="13.2349699"><ele>1199.0</ele><time>2026-05-03T10:57:12.155Z</time></trkpt><trkpt lat="42.990594" lon="13.2349254"><ele>1199.0</ele><time>2026-05-03T10:57:13.157Z</time></trkpt><trkpt lat="42.9906739" lon="13.234867"><ele>1199.0</ele><time>2026-05-03T10:57:14.156Z</time></trkpt><trkpt lat="42.9907546" lon="13.2348032"><ele>1199.0</ele><time>2026-05-03T10:57:15.157Z</time></trkpt><trkpt lat="42.9908309" lon="13.2347399"><ele>1196.2</ele><time>2026-05-03T10:57:16.155Z</time></trkpt><trkpt lat="42.9909101" lon="13.2346686"><ele>1193.4</ele><time>2026-05-03T10:57:17.158Z</time></trkpt><trkpt lat="42.9909896" lon="13.2345898"><ele>1190.6</ele><time>2026-05-03T10:57:18.159Z</time></trkpt><trkpt lat="42.9910725" lon="13.2345001"><ele>1187.8</ele><time>2026-05-03T10:57:19.157Z</time></trkpt><trkpt lat="42.9911599" lon="13.2344207"><ele>1185.0</ele><time>2026-05-03T10:57:20.155Z</time></trkpt><trkpt lat="42.9912495" lon="13.2343483"><ele>1185.0</ele><time>2026-05-03T10:57:21.155Z</time></trkpt><trkpt lat="42.9913424" lon="13.2342662"><ele>1185.0</ele><time>2026-05-03T10:57:22.159Z</time></trkpt><trkpt lat="42.9914392" lon="13.2341958"><ele>1185.0</ele><time>2026-05-03T10:57:23.157Z</time></trkpt><trkpt lat="42.9915405" lon="13.2341152"><ele>1185.0</ele><time>2026-05-03T10:57:24.158Z</time></trkpt><trkpt lat="42.9916327" lon="13.2340552"><ele>1185.0</ele><time>2026-05-03T10:57:25.159Z</time></trkpt><trkpt lat="42.9916883" lon="13.2339675"><ele>1181.1666666666667</ele><time>2026-05-03T10:57:26.157Z</time></trkpt><trkpt lat="42.991713" lon="13.2338711"><ele>1177.3333333333333</ele><time>2026-05-03T10:57:27.157Z</time></trkpt><trkpt lat="42.9916605" lon="13.2337891"><ele>1173.5</ele><time>2026-05-03T10:57:28.158Z</time></trkpt><trkpt lat="42.9915871" lon="13.2337867"><ele>1169.6666666666665</ele><time>2026-05-03T10:57:29.158Z</time></trkpt><trkpt lat="42.991509" lon="13.2338253"><ele>1165.8333333333333</ele><time>2026-05-03T10:57:30.158Z</time></trkpt><trkpt lat="42.991433" lon="13.2338821"><ele>1162.0</ele><time>2026-05-03T10:57:31.159Z</time></trkpt><trkpt lat="42.9913518" lon="13.233947"><ele>1166.6</ele><time>2026-05-03T10:57:32.16Z</time></trkpt><trkpt lat="42.9912701" lon="13.2339956"><ele>1171.2</ele><time>2026-05-03T10:57:33.157Z</time></trkpt><trkpt lat="42.9911848" lon="13.2340433"><ele>1175.8</ele><time>2026-05-03T10:57:34.16Z</time></trkpt><trkpt lat="42.9910912" lon="13.2340946"><ele>1180.4</ele><time>2026-05-03T10:57:35.158Z</time></trkpt><trkpt lat="42.9909954" lon="13.234141"><ele>1185.0</ele><time>2026-05-03T10:57:36.158Z</time></trkpt><trkpt lat="42.9909005" lon="13.2341973"><ele>1181.8</ele><time>2026-05-03T10:57:37.157Z</time></trkpt><trkpt lat="42.990795" lon="13.2342288"><ele>1178.6</ele><time>2026-05-03T10:57:38.157Z</time></trkpt><trkpt lat="42.9906853" lon="13.2342589"><ele>1175.4</ele><time>2026-05-03T10:57:39.156Z</time></trkpt><trkpt lat="42.9905731" lon="13.2342783"><ele>1172.2</ele><time>2026-05-03T10:57:40.156Z</time></trkpt><trkpt lat="42.9904625" lon="13.2342817"><ele>1169.0</ele><time>2026-05-03T10:57:41.155Z</time></trkpt><trkpt lat="42.9903475" lon="13.2342867"><ele>1169.0</ele><time>2026-05-03T10:57:42.157Z</time></trkpt><trkpt lat="42.9902357" lon="13.234272"><ele>1169.0</ele><time>2026-05-03T10:57:43.157Z</time></trkpt><trkpt lat="42.990119" lon="13.2342658"><ele>1169.0</ele><time>2026-05-03T10:57:44.158Z</time></trkpt><trkpt lat="42.9900043" lon="13.2342766"><ele>1169.0</ele><time>2026-05-03T10:57:45.158Z</time></trkpt><trkpt lat="42.9898869" lon="13.2342922"><ele>1167.3333333333335</ele><time>2026-05-03T10:57:46.156Z</time></trkpt><trkpt lat="42.989777" lon="13.2342939"><ele>1165.6666666666667</ele><time>2026-05-03T10:57:47.156Z</time></trkpt><trkpt lat="42.9896834" lon="13.2343006"><ele>1164.0</ele><time>2026-05-03T10:57:48.155Z</time></trkpt><trkpt lat="42.9895963" lon="13.2342741"><ele>1162.3333333333333</ele><time>2026-05-03T10:57:49.158Z</time></trkpt><trkpt lat="42.9895551" lon="13.2341949"><ele>1160.6666666666665</ele><time>2026-05-03T10:57:50.157Z</time></trkpt><trkpt lat="42.9895612" lon="13.2341041"><ele>1159.0</ele><time>2026-05-03T10:57:51.156Z</time></trkpt><trkpt lat="42.9896293" lon="13.2340567"><ele>1159.0</ele><time>2026-05-03T10:57:52.158Z</time></trkpt><trkpt lat="42.9897052" lon="13.2340408"><ele>1159.0</ele><time>2026-05-03T10:57:53.157Z</time></trkpt><trkpt lat="42.9897911" lon="13.2340284"><ele>1159.0</ele><time>2026-05-03T10:57:54.157Z</time></trkpt><trkpt lat="42.9898798" lon="13.2340115"><ele>1159.0</ele><time>2026-05-03T10:57:55.157Z</time></trkpt><trkpt lat="42.9899709" lon="13.2339848"><ele>1159.0</ele><time>2026-05-03T10:57:56.157Z</time></trkpt><trkpt lat="42.9900626" lon="13.2339531"><ele>1159.0</ele><time>2026-05-03T10:57:57.158Z</time></trkpt><trkpt lat="42.9901583" lon="13.2339036"><ele>1155.6000000000001</ele><time>2026-05-03T10:57:58.157Z</time></trkpt><trkpt lat="42.9902563" lon="13.2338635"><ele>1152.2</ele><time>2026-05-03T10:57:59.157Z</time></trkpt><trkpt lat="42.9903548" lon="13.2338169"><ele>1148.8000000000002</ele><time>2026-05-03T10:58:00.157Z</time></trkpt><trkpt lat="42.9904438" lon="13.2337675"><ele>1145.4</ele><time>2026-05-03T10:58:01.158Z</time></trkpt><trkpt lat="42.9905176" lon="13.2336987"><ele>1142.0</ele><time>2026-05-03T10:58:02.158Z</time></trkpt><trkpt lat="42.9905476" lon="13.2336036"><ele>1142.0</ele><time>2026-05-03T10:58:03.158Z</time></trkpt><trkpt lat="42.9905195" lon="13.2335075"><ele>1142.0</ele><time>2026-05-03T10:58:04.156Z</time></trkpt><trkpt lat="42.9904519" lon="13.2334551"><ele>1142.0</ele><time>2026-05-03T10:58:05.156Z</time></trkpt><trkpt lat="42.9903714" lon="13.2334549"><ele>1142.0</ele><time>2026-05-03T10:58:06.157Z</time></trkpt><trkpt lat="42.9902903" lon="13.2334793"><ele>1142.0</ele><time>2026-05-03T10:58:07.156Z</time></trkpt><trkpt lat="42.9902113" lon="13.2335161"><ele>1142.0</ele><time>2026-05-03T10:58:08.16Z</time></trkpt><trkpt lat="42.9901251" lon="13.2335367"><ele>1142.0</ele><time>2026-05-03T10:58:09.158Z</time></trkpt><trkpt lat="42.9900336" lon="13.233542"><ele>1142.0</ele><time>2026-05-03T10:58:10.159Z</time></trkpt><trkpt lat="42.989934" lon="13.2335231"><ele>1142.0</ele><time>2026-05-03T10:58:11.158Z</time></trkpt><trkpt lat="42.9898388" lon="13.2334961"><ele>1142.0</ele><time>2026-05-03T10:58:12.157Z</time></trkpt><trkpt lat="42.9897361" lon="13.2334551"><ele>1142.0</ele><time>2026-05-03T10:58:13.155Z</time></trkpt><trkpt lat="42.9896319" lon="13.2334285"><ele>1139.8</ele><time>2026-05-03T10:58:14.157Z</time></trkpt><trkpt lat="42.9895317" lon="13.2334197"><ele>1137.6</ele><time>2026-05-03T10:58:15.158Z</time></trkpt><trkpt lat="42.9894175" lon="13.2334303"><ele>1135.3999999999999</ele><time>2026-05-03T10:58:16.156Z</time></trkpt><trkpt lat="42.9893001" lon="13.2334489"><ele>1133.2</ele><time>2026-05-03T10:58:17.159Z</time></trkpt><trkpt lat="42.9891961" lon="13.2334908"><ele>1131.0</ele><time>2026-05-03T10:58:18.157Z</time></trkpt><trkpt lat="42.9891077" lon="13.2335143"><ele>1131.0</ele><time>2026-05-03T10:58:19.157Z</time></trkpt><trkpt lat="42.9890261" lon="13.2335138"><ele>1131.0</ele><time>2026-05-03T10:58:20.155Z</time></trkpt><trkpt lat="42.9889694" lon="13.2334605"><ele>1131.0</ele><time>2026-05-03T10:58:21.155Z</time></trkpt><trkpt lat="42.9889748" lon="13.2333735"><ele>1131.0</ele><time>2026-05-03T10:58:22.158Z</time></trkpt><trkpt lat="42.9890824" lon="13.2332793"><ele>1131.0</ele><time>2026-05-03T10:58:24.157Z</time></trkpt><trkpt lat="42.989156" lon="13.233231"><ele>1131.0</ele><time>2026-05-03T10:58:25.156Z</time></trkpt><trkpt lat="42.9892291" lon="13.2331848"><ele>1124.3999999999999</ele><time>2026-05-03T10:58:26.157Z</time></trkpt><trkpt lat="42.9893028" lon="13.2331267"><ele>1117.8</ele><time>2026-05-03T10:58:27.157Z</time></trkpt><trkpt lat="42.9893831" lon="13.2330646"><ele>1111.1999999999998</ele><time>2026-05-03T10:58:28.159Z</time></trkpt><trkpt lat="42.9894647" lon="13.2330124"><ele>1104.6</ele><time>2026-05-03T10:58:29.157Z</time></trkpt><trkpt lat="42.9895516" lon="13.2329625"><ele>1098.0</ele><time>2026-05-03T10:58:30.157Z</time></trkpt><trkpt lat="42.9896467" lon="13.2329224"><ele>1098.0</ele><time>2026-05-03T10:58:31.157Z</time></trkpt><trkpt lat="42.9897464" lon="13.232901"><ele>1098.0</ele><time>2026-05-03T10:58:32.156Z</time></trkpt><trkpt lat="42.9898511" lon="13.2328774"><ele>1098.0</ele><time>2026-05-03T10:58:33.157Z</time></trkpt><trkpt lat="42.9899589" lon="13.2328556"><ele>1098.0</ele><time>2026-05-03T10:58:34.156Z</time></trkpt><trkpt lat="42.9900728" lon="13.2328273"><ele>1098.0</ele><time>2026-05-03T10:58:35.156Z</time></trkpt><trkpt lat="42.9901848" lon="13.2327912"><ele>1099.75</ele><time>2026-05-03T10:58:36.155Z</time></trkpt><trkpt lat="42.9902981" lon="13.232748"><ele>1101.5</ele><time>2026-05-03T10:58:37.158Z</time></trkpt><trkpt lat="42.990404" lon="13.2326915"><ele>1103.25</ele><time>2026-05-03T10:58:38.157Z</time></trkpt><trkpt lat="42.9905173" lon="13.2326422"><ele>1105.0</ele><time>2026-05-03T10:58:39.157Z</time></trkpt><trkpt lat="42.9906428" lon="13.2325857"><ele>1105.0</ele><time>2026-05-03T10:58:40.157Z</time></trkpt><trkpt lat="42.9907599" lon="13.2325297"><ele>1105.0</ele><time>2026-05-03T10:58:41.158Z</time></trkpt><trkpt lat="42.9908805" lon="13.2324827"><ele>1105.0</ele><time>2026-05-03T10:58:42.157Z</time></trkpt><trkpt lat="42.9910019" lon="13.2324354"><ele>1105.0</ele><time>2026-05-03T10:58:43.157Z</time></trkpt><trkpt lat="42.9911192" lon="13.232375"><ele>1101.5</ele><time>2026-05-03T10:58:44.156Z</time></trkpt><trkpt lat="42.9912273" lon="13.2322666"><ele>1098.0</ele><time>2026-05-03T10:58:45.155Z</time></trkpt><trkpt lat="42.9913146" lon="13.2321294"><ele>1094.5</ele><time>2026-05-03T10:58:46.157Z</time></trkpt><trkpt lat="42.9913972" lon="13.2319725"><ele>1091.0</ele><time>2026-05-03T10:58:47.158Z</time></trkpt><trkpt lat="42.9914856" lon="13.2318255"><ele>1091.0</ele><time>2026-05-03T10:58:48.156Z</time></trkpt><trkpt lat="42.9915888" lon="13.231729"><ele>1091.0</ele><time>2026-05-03T10:58:49.157Z</time></trkpt><trkpt lat="42.9917007" lon="13.2316348"><ele>1091.0</ele><time>2026-05-03T10:58:50.158Z</time></trkpt><trkpt lat="42.9917882" lon="13.231502"><ele>1091.0</ele><time>2026-05-03T10:58:51.156Z</time></trkpt><trkpt lat="42.9918541" lon="13.2313407"><ele>1090.0</ele><time>2026-05-03T10:58:52.156Z</time></trkpt><trkpt lat="42.9919172" lon="13.2311716"><ele>1089.0</ele><time>2026-05-03T10:58:53.156Z</time></trkpt><trkpt lat="42.9919989" lon="13.2310234"><ele>1088.0</ele><time>2026-05-03T10:58:54.158Z</time></trkpt><trkpt lat="42.9920957" lon="13.2308904"><ele>1087.0</ele><time>2026-05-03T10:58:55.157Z</time></trkpt><trkpt lat="42.9922152" lon="13.2307727"><ele>1087.0</ele><time>2026-05-03T10:58:56.156Z</time></trkpt><trkpt lat="42.9923284" lon="13.2306655"><ele>1087.0</ele><time>2026-05-03T10:58:57.158Z</time></trkpt><trkpt lat="42.9924361" lon="13.230564"><ele>1087.0</ele><time>2026-05-03T10:58:58.158Z</time></trkpt><trkpt lat="42.9925337" lon="13.230457"><ele>1087.0</ele><time>2026-05-03T10:58:59.159Z</time></trkpt><trkpt lat="42.9926368" lon="13.2303325"><ele>1085.0</ele><time>2026-05-03T10:59:00.157Z</time></trkpt><trkpt lat="42.9927308" lon="13.2301968"><ele>1083.0</ele><time>2026-05-03T10:59:01.157Z</time></trkpt><trkpt lat="42.9928316" lon="13.2300679"><ele>1081.0</ele><time>2026-05-03T10:59:02.157Z</time></trkpt><trkpt lat="42.9929226" lon="13.2299265"><ele>1079.0</ele><time>2026-05-03T10:59:03.157Z</time></trkpt><trkpt lat="42.9930108" lon="13.2297767"><ele>1076.0</ele><time>2026-05-03T10:59:04.156Z</time></trkpt><trkpt lat="42.9930872" lon="13.2296325"><ele>1073.0</ele><time>2026-05-03T10:59:05.158Z</time></trkpt><trkpt lat="42.9931424" lon="13.2294697"><ele>1070.0</ele><time>2026-05-03T10:59:06.158Z</time></trkpt><trkpt lat="42.9931771" lon="13.2292918"><ele>1067.0</ele><time>2026-05-03T10:59:07.157Z</time></trkpt><trkpt lat="42.9932021" lon="13.2291127"><ele>1066.0</ele><time>2026-05-03T10:59:08.156Z</time></trkpt><trkpt lat="42.9932216" lon="13.228928"><ele>1065.0</ele><time>2026-05-03T10:59:09.158Z</time></trkpt><trkpt lat="42.9932253" lon="13.2287606"><ele>1064.0</ele><time>2026-05-03T10:59:10.159Z</time></trkpt><trkpt lat="42.9932348" lon="13.2286169"><ele>1063.0</ele><time>2026-05-03T10:59:11.158Z</time></trkpt><trkpt lat="42.993259" lon="13.2284743"><ele>1063.0</ele><time>2026-05-03T10:59:12.157Z</time></trkpt><trkpt lat="42.9933129" lon="13.2283506"><ele>1063.0</ele><time>2026-05-03T10:59:13.156Z</time></trkpt><trkpt lat="42.9933669" lon="13.2282486"><ele>1063.0</ele><time>2026-05-03T10:59:14.158Z</time></trkpt><trkpt lat="42.9934043" lon="13.2281313"><ele>1063.0</ele><time>2026-05-03T10:59:15.157Z</time></trkpt><trkpt lat="42.9934404" lon="13.2280141"><ele>1063.0</ele><time>2026-05-03T10:59:16.157Z</time></trkpt><trkpt lat="42.9934458" lon="13.2278757"><ele>1064.0</ele><time>2026-05-03T10:59:17.154Z</time></trkpt><trkpt lat="42.993443" lon="13.2277426"><ele>1065.0</ele><time>2026-05-03T10:59:18.157Z</time></trkpt><trkpt lat="42.9934306" lon="13.2276169"><ele>1066.0</ele><time>2026-05-03T10:59:19.16Z</time></trkpt><trkpt lat="42.9934238" lon="13.2274945"><ele>1067.0</ele><time>2026-05-03T10:59:20.155Z</time></trkpt><trkpt lat="42.9934748" lon="13.2274175"><ele>1068.0</ele><time>2026-05-03T10:59:21.153Z</time></trkpt><trkpt lat="42.9935651" lon="13.227318"><ele>1064.75</ele><time>2026-05-03T10:59:22.158Z</time></trkpt><trkpt lat="42.9936434" lon="13.2272227"><ele>1061.5</ele><time>2026-05-03T10:59:23.157Z</time></trkpt><trkpt lat="42.9937394" lon="13.2271212"><ele>1058.25</ele><time>2026-05-03T10:59:24.157Z</time></trkpt><trkpt lat="42.9938302" lon="13.2270143"><ele>1055.0</ele><time>2026-05-03T10:59:25.157Z</time></trkpt><trkpt lat="42.9939239" lon="13.2269036"><ele>1055.0</ele><time>2026-05-03T10:59:26.158Z</time></trkpt><trkpt lat="42.9940116" lon="13.2267786"><ele>1055.0</ele><time>2026-05-03T10:59:27.157Z</time></trkpt><trkpt lat="42.9940935" lon="13.2266373"><ele>1055.0</ele><time>2026-05-03T10:59:28.158Z</time></trkpt><trkpt lat="42.9941555" lon="13.2264907"><ele>1055.0</ele><time>2026-05-03T10:59:29.158Z</time></trkpt><trkpt lat="42.9942223" lon="13.2263275"><ele>1055.0</ele><time>2026-05-03T10:59:30.157Z</time></trkpt><trkpt lat="42.9943013" lon="13.2261846"><ele>1055.0</ele><time>2026-05-03T10:59:31.157Z</time></trkpt><trkpt lat="42.994375" lon="13.2260315"><ele>1055.0</ele><time>2026-05-03T10:59:32.152Z</time></trkpt><trkpt lat="42.9944532" lon="13.2258753"><ele>1055.0</ele><time>2026-05-03T10:59:33.159Z</time></trkpt><trkpt lat="42.9945372" lon="13.225706"><ele>1050.5</ele><time>2026-05-03T10:59:34.158Z</time></trkpt><trkpt lat="42.9946295" lon="13.2255446"><ele>1046.0</ele><time>2026-05-03T10:59:35.158Z</time></trkpt><trkpt lat="42.9947196" lon="13.2253793"><ele>1041.5</ele><time>2026-05-03T10:59:36.158Z</time></trkpt><trkpt lat="42.9948068" lon="13.225224"><ele>1037.0</ele><time>2026-05-03T10:59:37.158Z</time></trkpt><trkpt lat="42.9949076" lon="13.2250668"><ele>1034.6666666666667</ele><time>2026-05-03T10:59:38.157Z</time></trkpt><trkpt lat="42.9950138" lon="13.2249095"><ele>1032.3333333333333</ele><time>2026-05-03T10:59:39.156Z</time></trkpt><trkpt lat="42.9951001" lon="13.2247498"><ele>1030.0</ele><time>2026-05-03T10:59:40.157Z</time></trkpt><trkpt lat="42.9951998" lon="13.2245843"><ele>1030.0</ele><time>2026-05-03T10:59:41.157Z</time></trkpt><trkpt lat="42.9953104" lon="13.2244285"><ele>1030.0</ele><time>2026-05-03T10:59:42.157Z</time></trkpt><trkpt lat="42.9954299" lon="13.2242764"><ele>1030.0</ele><time>2026-05-03T10:59:43.157Z</time></trkpt><trkpt lat="42.9955489" lon="13.2241304"><ele>1030.0</ele><time>2026-05-03T10:59:44.158Z</time></trkpt><trkpt lat="42.995655" lon="13.2239787"><ele>1030.0</ele><time>2026-05-03T10:59:45.157Z</time></trkpt><trkpt lat="42.995762" lon="13.2238202"><ele>1030.0</ele><time>2026-05-03T10:59:46.159Z</time></trkpt><trkpt lat="42.9958694" lon="13.2236652"><ele>1030.0</ele><time>2026-05-03T10:59:47.157Z</time></trkpt><trkpt lat="42.9959787" lon="13.2235112"><ele>1030.0</ele><time>2026-05-03T10:59:48.156Z</time></trkpt><trkpt lat="42.9960898" lon="13.2233553"><ele>1030.0</ele><time>2026-05-03T10:59:49.156Z</time></trkpt><trkpt lat="42.996205" lon="13.2231973"><ele>1024.0</ele><time>2026-05-03T10:59:50.157Z</time></trkpt><trkpt lat="42.9963146" lon="13.223033"><ele>1018.0</ele><time>2026-05-03T10:59:51.159Z</time></trkpt><trkpt lat="42.9964177" lon="13.2228673"><ele>1012.0</ele><time>2026-05-03T10:59:52.158Z</time></trkpt><trkpt lat="42.9965177" lon="13.2226872"><ele>1012.0</ele><time>2026-05-03T10:59:53.158Z</time></trkpt><trkpt lat="42.9966036" lon="13.2224997"><ele>1012.0</ele><time>2026-05-03T10:59:54.157Z</time></trkpt><trkpt lat="42.9966928" lon="13.2223221"><ele>1012.0</ele><time>2026-05-03T10:59:55.157Z</time></trkpt><trkpt lat="42.9967835" lon="13.2221556"><ele>1013.5</ele><time>2026-05-03T10:59:56.157Z</time></trkpt><trkpt lat="42.9968605" lon="13.2219834"><ele>1015.0</ele><time>2026-05-03T10:59:57.159Z</time></trkpt><trkpt lat="42.9969428" lon="13.2218205"><ele>1016.5</ele><time>2026-05-03T10:59:58.158Z</time></trkpt><trkpt lat="42.9970179" lon="13.2216608"><ele>1018.0</ele><time>2026-05-03T10:59:59.157Z</time></trkpt><trkpt lat="42.9970891" lon="13.2215076"><ele>1013.25</ele><time>2026-05-03T11:00:00.156Z</time></trkpt><trkpt lat="42.9971333" lon="13.2213581"><ele>1008.5</ele><time>2026-05-03T11:00:01.157Z</time></trkpt><trkpt lat="42.9971721" lon="13.2212038"><ele>1003.75</ele><time>2026-05-03T11:00:02.157Z</time></trkpt><trkpt lat="42.9972051" lon="13.2210579"><ele>999.0</ele><time>2026-05-03T11:00:03.158Z</time></trkpt><trkpt lat="42.9972388" lon="13.2209063"><ele>999.0</ele><time>2026-05-03T11:00:04.156Z</time></trkpt><trkpt lat="42.9972894" lon="13.2207542"><ele>999.0</ele><time>2026-05-03T11:00:05.158Z</time></trkpt><trkpt lat="42.9973645" lon="13.2206297"><ele>999.0</ele><time>2026-05-03T11:00:06.157Z</time></trkpt><trkpt lat="42.9974537" lon="13.2205199"><ele>999.0</ele><time>2026-05-03T11:00:07.157Z</time></trkpt><trkpt lat="42.9975393" lon="13.2203972"><ele>1004.75</ele><time>2026-05-03T11:00:08.156Z</time></trkpt><trkpt lat="42.9976179" lon="13.2202675"><ele>1010.5</ele><time>2026-05-03T11:00:09.157Z</time></trkpt><trkpt lat="42.9976874" lon="13.2201266"><ele>1016.25</ele><time>2026-05-03T11:00:10.158Z</time></trkpt><trkpt lat="42.9977144" lon="13.2199548"><ele>1022.0</ele><time>2026-05-03T11:00:11.156Z</time></trkpt><trkpt lat="42.9977386" lon="13.2197902"><ele>1022.0</ele><time>2026-05-03T11:00:12.156Z</time></trkpt><trkpt lat="42.9977407" lon="13.2196068"><ele>1022.0</ele><time>2026-05-03T11:00:13.158Z</time></trkpt><trkpt lat="42.9977428" lon="13.2194424"><ele>1022.0</ele><time>2026-05-03T11:00:14.156Z</time></trkpt><trkpt lat="42.9977394" lon="13.2192816"><ele>1022.0</ele><time>2026-05-03T11:00:15.157Z</time></trkpt><trkpt lat="42.9977554" lon="13.2191127"><ele>1017.25</ele><time>2026-05-03T11:00:16.159Z</time></trkpt><trkpt lat="42.9977716" lon="13.2189397"><ele>1012.5</ele><time>2026-05-03T11:00:17.158Z</time></trkpt><trkpt lat="42.9977851" lon="13.2187688"><ele>1007.75</ele><time>2026-05-03T11:00:18.157Z</time></trkpt><trkpt lat="42.9977796" lon="13.2185908"><ele>1003.0</ele><time>2026-05-03T11:00:19.156Z</time></trkpt><trkpt lat="42.997762" lon="13.2184285"><ele>1003.0</ele><time>2026-05-03T11:00:20.154Z</time></trkpt><trkpt lat="42.9977438" lon="13.2182562"><ele>1003.0</ele><time>2026-05-03T11:00:21.155Z</time></trkpt><trkpt lat="42.9977326" lon="13.2180728"><ele>1003.0</ele><time>2026-05-03T11:00:22.158Z</time></trkpt><trkpt lat="42.9977442" lon="13.2178992"><ele>1003.0</ele><time>2026-05-03T11:00:23.157Z</time></trkpt><trkpt lat="42.9977654" lon="13.2177224"><ele>1001.0</ele><time>2026-05-03T11:00:24.158Z</time></trkpt><trkpt lat="42.9978151" lon="13.2175624"><ele>999.0</ele><time>2026-05-03T11:00:25.156Z</time></trkpt><trkpt lat="42.9978756" lon="13.2174236"><ele>997.0</ele><time>2026-05-03T11:00:26.157Z</time></trkpt><trkpt lat="42.9979398" lon="13.2172845"><ele>995.0</ele><time>2026-05-03T11:00:27.158Z</time></trkpt><trkpt lat="42.9979934" lon="13.2171387"><ele>990.0</ele><time>2026-05-03T11:00:28.155Z</time></trkpt><trkpt lat="42.998053" lon="13.2169899"><ele>985.0</ele><time>2026-05-03T11:00:29.158Z</time></trkpt><trkpt lat="42.9981115" lon="13.216846"><ele>980.0</ele><time>2026-05-03T11:00:30.158Z</time></trkpt><trkpt lat="42.9981607" lon="13.2166949"><ele>975.0</ele><time>2026-05-03T11:00:31.158Z</time></trkpt><trkpt lat="42.9982016" lon="13.2165339"><ele>973.25</ele><time>2026-05-03T11:00:32.156Z</time></trkpt><trkpt lat="42.9982324" lon="13.2163652"><ele>971.5</ele><time>2026-05-03T11:00:33.157Z</time></trkpt><trkpt lat="42.9982402" lon="13.2161944"><ele>969.75</ele><time>2026-05-03T11:00:34.158Z</time></trkpt><trkpt lat="42.9982204" lon="13.2160195"><ele>968.0</ele><time>2026-05-03T11:00:35.158Z</time></trkpt><trkpt lat="42.9981914" lon="13.2158661"><ele>968.0</ele><time>2026-05-03T11:00:36.157Z</time></trkpt><trkpt lat="42.9981402" lon="13.2156957"><ele>968.0</ele><time>2026-05-03T11:00:37.157Z</time></trkpt><trkpt lat="42.9981175" lon="13.2155327"><ele>968.0</ele><time>2026-05-03T11:00:38.157Z</time></trkpt><trkpt lat="42.998105" lon="13.2153549"><ele>968.0</ele><time>2026-05-03T11:00:39.156Z</time></trkpt><trkpt lat="42.9981091" lon="13.2151661"><ele>965.5</ele><time>2026-05-03T11:00:40.158Z</time></trkpt><trkpt lat="42.9981249" lon="13.2149828"><ele>963.0</ele><time>2026-05-03T11:00:41.157Z</time></trkpt><trkpt lat="42.9981632" lon="13.2148081"><ele>960.5</ele><time>2026-05-03T11:00:42.157Z</time></trkpt><trkpt lat="42.9981988" lon="13.214632"><ele>958.0</ele><time>2026-05-03T11:00:43.157Z</time></trkpt><trkpt lat="42.9982436" lon="13.2144576"><ele>957.25</ele><time>2026-05-03T11:00:44.156Z</time></trkpt><trkpt lat="42.9982706" lon="13.2142834"><ele>956.5</ele><time>2026-05-03T11:00:45.158Z</time></trkpt><trkpt lat="42.998289" lon="13.2141087"><ele>955.75</ele><time>2026-05-03T11:00:46.157Z</time></trkpt><trkpt lat="42.9983024" lon="13.2139544"><ele>955.0</ele><time>2026-05-03T11:00:47.158Z</time></trkpt><trkpt lat="42.9983145" lon="13.213799"><ele>962.75</ele><time>2026-05-03T11:00:48.158Z</time></trkpt><trkpt lat="42.9983388" lon="13.2136317"><ele>970.5</ele><time>2026-05-03T11:00:49.158Z</time></trkpt><trkpt lat="42.9983614" lon="13.213477"><ele>978.25</ele><time>2026-05-03T11:00:50.156Z</time></trkpt><trkpt lat="42.9984001" lon="13.2133294"><ele>986.0</ele><time>2026-05-03T11:00:51.157Z</time></trkpt><trkpt lat="42.9984455" lon="13.213189"><ele>983.0</ele><time>2026-05-03T11:00:52.158Z</time></trkpt><trkpt lat="42.9984842" lon="13.2130549"><ele>979.9999999999999</ele><time>2026-05-03T11:00:53.156Z</time></trkpt><trkpt lat="42.9985229" lon="13.212914"><ele>976.9999999999999</ele><time>2026-05-03T11:00:54.158Z</time></trkpt><trkpt lat="42.9985659" lon="13.2127838"><ele>974.0</ele><time>2026-05-03T11:00:55.158Z</time></trkpt><trkpt lat="42.9986038" lon="13.2126501"><ele>971.0</ele><time>2026-05-03T11:00:56.157Z</time></trkpt><trkpt lat="42.9986501" lon="13.2125286"><ele>971.0</ele><time>2026-05-03T11:00:57.157Z</time></trkpt><trkpt lat="42.9987028" lon="13.2124099"><ele>970.9999999999999</ele><time>2026-05-03T11:00:58.157Z</time></trkpt><trkpt lat="42.9987606" lon="13.2122954"><ele>970.9999999999999</ele><time>2026-05-03T11:00:59.157Z</time></trkpt><trkpt lat="42.9988197" lon="13.2121872"><ele>971.0</ele><time>2026-05-03T11:01:00.155Z</time></trkpt><trkpt lat="42.9988889" lon="13.2120681"><ele>971.0</ele><time>2026-05-03T11:01:01.158Z</time></trkpt><trkpt lat="42.9989549" lon="13.2119677"><ele>970.4</ele><time>2026-05-03T11:01:02.156Z</time></trkpt><trkpt lat="42.9990241" lon="13.2118683"><ele>969.8</ele><time>2026-05-03T11:01:03.156Z</time></trkpt><trkpt lat="42.9990837" lon="13.2117551"><ele>969.1999999999999</ele><time>2026-05-03T11:01:04.156Z</time></trkpt><trkpt lat="42.9991378" lon="13.2116451"><ele>968.5999999999999</ele><time>2026-05-03T11:01:05.157Z</time></trkpt><trkpt lat="42.9991887" lon="13.2115375"><ele>968.0</ele><time>2026-05-03T11:01:06.158Z</time></trkpt><trkpt lat="42.9992269" lon="13.2114112"><ele>968.0</ele><time>2026-05-03T11:01:07.158Z</time></trkpt><trkpt lat="42.9992614" lon="13.2112825"><ele>968.0</ele><time>2026-05-03T11:01:08.156Z</time></trkpt><trkpt lat="42.9992957" lon="13.211157"><ele>968.0</ele><time>2026-05-03T11:01:09.157Z</time></trkpt><trkpt lat="42.9993221" lon="13.2110331"><ele>968.0</ele><time>2026-05-03T11:01:10.159Z</time></trkpt><trkpt lat="42.9993486" lon="13.2109134"><ele>968.0</ele><time>2026-05-03T11:01:11.156Z</time></trkpt><trkpt lat="42.9993855" lon="13.2107865"><ele>968.0</ele><time>2026-05-03T11:01:12.157Z</time></trkpt><trkpt lat="42.9994249" lon="13.2106644"><ele>968.0</ele><time>2026-05-03T11:01:13.158Z</time></trkpt><trkpt lat="42.99948" lon="13.2105607"><ele>968.0</ele><time>2026-05-03T11:01:14.156Z</time></trkpt><trkpt lat="42.9995571" lon="13.2104703"><ele>968.0</ele><time>2026-05-03T11:01:15.156Z</time></trkpt><trkpt lat="42.9996233" lon="13.2103677"><ele>968.0</ele><time>2026-05-03T11:01:16.157Z</time></trkpt><trkpt lat="42.999683" lon="13.2102544"><ele>965.2</ele><time>2026-05-03T11:01:17.156Z</time></trkpt><trkpt lat="42.9997319" lon="13.2101345"><ele>962.4</ele><time>2026-05-03T11:01:18.156Z</time></trkpt><trkpt lat="42.9997168" lon="13.2099831"><ele>959.6000000000001</ele><time>2026-05-03T11:01:19.157Z</time></trkpt><trkpt lat="42.9996916" lon="13.2098491"><ele>956.8000000000001</ele><time>2026-05-03T11:01:20.154Z</time></trkpt><trkpt lat="42.9996627" lon="13.2097024"><ele>954.0</ele><time>2026-05-03T11:01:21.154Z</time></trkpt><trkpt lat="42.9996481" lon="13.2095561"><ele>952.25</ele><time>2026-05-03T11:01:22.158Z</time></trkpt><trkpt lat="42.9996486" lon="13.2093976"><ele>950.5</ele><time>2026-05-03T11:01:23.159Z</time></trkpt><trkpt lat="42.9996735" lon="13.2092374"><ele>948.75</ele><time>2026-05-03T11:01:24.158Z</time></trkpt><trkpt lat="42.9997035" lon="13.2090638"><ele>947.0</ele><time>2026-05-03T11:01:25.154Z</time></trkpt><trkpt lat="42.9997344" lon="13.2088989"><ele>943.75</ele><time>2026-05-03T11:01:26.158Z</time></trkpt><trkpt lat="42.999778" lon="13.2087456"><ele>940.5</ele><time>2026-05-03T11:01:27.159Z</time></trkpt><trkpt lat="42.9998251" lon="13.2085955"><ele>937.25</ele><time>2026-05-03T11:01:28.156Z</time></trkpt><trkpt lat="42.9998732" lon="13.2084627"><ele>934.0</ele><time>2026-05-03T11:01:29.158Z</time></trkpt><trkpt lat="42.9998894" lon="13.2083083"><ele>934.0</ele><time>2026-05-03T11:01:30.157Z</time></trkpt><trkpt lat="42.9998836" lon="13.20816"><ele>934.0</ele><time>2026-05-03T11:01:31.157Z</time></trkpt><trkpt lat="42.9998505" lon="13.2080079"><ele>934.0</ele><time>2026-05-03T11:01:32.156Z</time></trkpt><trkpt lat="42.9997993" lon="13.207864"><ele>934.0</ele><time>2026-05-03T11:01:33.157Z</time></trkpt><trkpt lat="42.9997357" lon="13.2077116"><ele>934.75</ele><time>2026-05-03T11:01:34.156Z</time></trkpt><trkpt lat="42.999683" lon="13.2076"><ele>935.5</ele><time>2026-05-03T11:01:35.158Z</time></trkpt><trkpt lat="42.9996182" lon="13.2074484"><ele>936.25</ele><time>2026-05-03T11:01:36.157Z</time></trkpt><trkpt lat="42.9995638" lon="13.2073124"><ele>937.0</ele><time>2026-05-03T11:01:37.158Z</time></trkpt><trkpt lat="42.9995052" lon="13.2071601"><ele>937.0</ele><time>2026-05-03T11:01:38.158Z</time></trkpt><trkpt lat="42.9994817" lon="13.2070086"><ele>937.0</ele><time>2026-05-03T11:01:39.156Z</time></trkpt><trkpt lat="42.9994607" lon="13.2068658"><ele>937.0</ele><time>2026-05-03T11:01:40.158Z</time></trkpt><trkpt lat="42.9995009" lon="13.2067029"><ele>937.0</ele><time>2026-05-03T11:01:41.157Z</time></trkpt><trkpt lat="42.9995342" lon="13.2065617"><ele>934.2</ele><time>2026-05-03T11:01:42.157Z</time></trkpt><trkpt lat="42.9995715" lon="13.2064156"><ele>931.4000000000001</ele><time>2026-05-03T11:01:43.157Z</time></trkpt><trkpt lat="42.9996015" lon="13.206273"><ele>928.5999999999999</ele><time>2026-05-03T11:01:44.158Z</time></trkpt><trkpt lat="42.9996282" lon="13.2061397"><ele>925.8</ele><time>2026-05-03T11:01:45.157Z</time></trkpt><trkpt lat="42.999653" lon="13.2060048"><ele>923.0</ele><time>2026-05-03T11:01:46.156Z</time></trkpt><trkpt lat="42.9996746" lon="13.2058651"><ele>923.0</ele><time>2026-05-03T11:01:47.158Z</time></trkpt><trkpt lat="42.9996922" lon="13.2057267"><ele>923.0</ele><time>2026-05-03T11:01:48.156Z</time></trkpt><trkpt lat="42.9997022" lon="13.2055961"><ele>923.0</ele><time>2026-05-03T11:01:49.157Z</time></trkpt><trkpt lat="42.9997153" lon="13.2054564"><ele>923.0</ele><time>2026-05-03T11:01:50.158Z</time></trkpt><trkpt lat="42.9997284" lon="13.2053183"><ele>923.0</ele><time>2026-05-03T11:01:51.157Z</time></trkpt><trkpt lat="42.9997486" lon="13.2051854"><ele>921.0</ele><time>2026-05-03T11:01:52.156Z</time></trkpt><trkpt lat="42.9997671" lon="13.2050559"><ele>919.0</ele><time>2026-05-03T11:01:53.158Z</time></trkpt><trkpt lat="42.9997899" lon="13.2049229"><ele>917.0</ele><time>2026-05-03T11:01:54.157Z</time></trkpt><trkpt lat="42.9998123" lon="13.2047971"><ele>915.0</ele><time>2026-05-03T11:01:55.157Z</time></trkpt><trkpt lat="42.9998335" lon="13.2046795"><ele>913.0</ele><time>2026-05-03T11:01:56.157Z</time></trkpt><trkpt lat="42.999861" lon="13.2045634"><ele>910.8</ele><time>2026-05-03T11:01:57.155Z</time></trkpt><trkpt lat="42.9998911" lon="13.2044362"><ele>908.5999999999999</ele><time>2026-05-03T11:01:58.157Z</time></trkpt><trkpt lat="42.999923" lon="13.2043125"><ele>906.4000000000001</ele><time>2026-05-03T11:01:59.157Z</time></trkpt><trkpt lat="42.999956" lon="13.2041911"><ele>904.2</ele><time>2026-05-03T11:02:00.157Z</time></trkpt><trkpt lat="42.9999967" lon="13.2040814"><ele>902.0</ele><time>2026-05-03T11:02:01.157Z</time></trkpt><trkpt lat="43.0000354" lon="13.2039562"><ele>899.6</ele><time>2026-05-03T11:02:02.156Z</time></trkpt><trkpt lat="43.0000717" lon="13.2038372"><ele>897.2</ele><time>2026-05-03T11:02:03.157Z</time></trkpt><trkpt lat="43.0001097" lon="13.2037139"><ele>894.8</ele><time>2026-05-03T11:02:04.156Z</time></trkpt><trkpt lat="43.0001449" lon="13.2035875"><ele>892.4</ele><time>2026-05-03T11:02:05.157Z</time></trkpt><trkpt lat="43.000175" lon="13.2034563"><ele>890.0</ele><time>2026-05-03T11:02:06.156Z</time></trkpt><trkpt lat="43.0002049" lon="13.2033328"><ele>890.0</ele><time>2026-05-03T11:02:07.158Z</time></trkpt><trkpt lat="43.0002352" lon="13.2032072"><ele>890.0</ele><time>2026-05-03T11:02:08.157Z</time></trkpt><trkpt lat="43.0002705" lon="13.2030825"><ele>890.0</ele><time>2026-05-03T11:02:09.158Z</time></trkpt><trkpt lat="43.0003079" lon="13.2029642"><ele>890.0</ele><time>2026-05-03T11:02:10.159Z</time></trkpt><trkpt lat="43.0003482" lon="13.2028422"><ele>890.0</ele><time>2026-05-03T11:02:11.158Z</time></trkpt><trkpt lat="43.0003975" lon="13.2027211"><ele>887.0</ele><time>2026-05-03T11:02:12.157Z</time></trkpt><trkpt lat="43.000446" lon="13.2026075"><ele>884.0</ele><time>2026-05-03T11:02:13.158Z</time></trkpt><trkpt lat="43.0004891" lon="13.2025039"><ele>881.0</ele><time>2026-05-03T11:02:14.159Z</time></trkpt><trkpt lat="43.0005342" lon="13.2023812"><ele>878.0</ele><time>2026-05-03T11:02:15.158Z</time></trkpt><trkpt lat="43.000581" lon="13.2022525"><ele>875.0</ele><time>2026-05-03T11:02:16.157Z</time></trkpt><trkpt lat="43.0006263" lon="13.202141"><ele>874.0</ele><time>2026-05-03T11:02:17.158Z</time></trkpt><trkpt lat="43.0006736" lon="13.2020133"><ele>873.0</ele><time>2026-05-03T11:02:18.157Z</time></trkpt><trkpt lat="43.0007136" lon="13.2018772"><ele>872.0</ele><time>2026-05-03T11:02:19.157Z</time></trkpt><trkpt lat="43.0007546" lon="13.2017496"><ele>871.0</ele><time>2026-05-03T11:02:20.155Z</time></trkpt><trkpt lat="43.0008004" lon="13.2016103"><ele>870.0</ele><time>2026-05-03T11:02:21.155Z</time></trkpt><trkpt lat="43.0008365" lon="13.2014722"><ele>870.0</ele><time>2026-05-03T11:02:22.157Z</time></trkpt><trkpt lat="43.0008783" lon="13.2013243"><ele>870.0</ele><time>2026-05-03T11:02:23.157Z</time></trkpt><trkpt lat="43.0009199" lon="13.2011871"><ele>870.0</ele><time>2026-05-03T11:02:24.157Z</time></trkpt><trkpt lat="43.0009659" lon="13.2010588"><ele>870.0</ele><time>2026-05-03T11:02:25.157Z</time></trkpt><trkpt lat="43.0010174" lon="13.2009292"><ele>870.0</ele><time>2026-05-03T11:02:26.157Z</time></trkpt><trkpt lat="43.0010767" lon="13.200796"><ele>864.25</ele><time>2026-05-03T11:02:27.158Z</time></trkpt><trkpt lat="43.0011292" lon="13.200654"><ele>858.5</ele><time>2026-05-03T11:02:28.159Z</time></trkpt><trkpt lat="43.0011718" lon="13.2005052"><ele>852.75</ele><time>2026-05-03T11:02:29.157Z</time></trkpt><trkpt lat="43.0012239" lon="13.2003591"><ele>847.0</ele><time>2026-05-03T11:02:30.157Z</time></trkpt><trkpt lat="43.0012797" lon="13.2002223"><ele>847.0</ele><time>2026-05-03T11:02:31.158Z</time></trkpt><trkpt lat="43.0013404" lon="13.2000705"><ele>847.0</ele><time>2026-05-03T11:02:32.157Z</time></trkpt><trkpt lat="43.0013917" lon="13.1999313"><ele>847.0</ele><time>2026-05-03T11:02:33.157Z</time></trkpt><trkpt lat="43.0014429" lon="13.1997886"><ele>847.0</ele><time>2026-05-03T11:02:34.158Z</time></trkpt><trkpt lat="43.0014975" lon="13.1996426"><ele>851.25</ele><time>2026-05-03T11:02:35.157Z</time></trkpt><trkpt lat="43.0015508" lon="13.1994982"><ele>855.5</ele><time>2026-05-03T11:02:36.156Z</time></trkpt><trkpt lat="43.0016148" lon="13.1993809"><ele>859.75</ele><time>2026-05-03T11:02:37.157Z</time></trkpt><trkpt lat="43.0017044" lon="13.1992683"><ele>864.0</ele><time>2026-05-03T11:02:38.156Z</time></trkpt><trkpt lat="43.0018069" lon="13.1991797"><ele>864.0</ele><time>2026-05-03T11:02:39.156Z</time></trkpt><trkpt lat="43.0019111" lon="13.1991111"><ele>864.0</ele><time>2026-05-03T11:02:40.157Z</time></trkpt><trkpt lat="43.0020109" lon="13.1990431"><ele>864.0</ele><time>2026-05-03T11:02:41.157Z</time></trkpt><trkpt lat="43.002109" lon="13.1989641"><ele>864.0</ele><time>2026-05-03T11:02:42.157Z</time></trkpt><trkpt lat="43.0022091" lon="13.1988806"><ele>862.0</ele><time>2026-05-03T11:02:43.157Z</time></trkpt><trkpt lat="43.0022952" lon="13.1987876"><ele>860.0000000000001</ele><time>2026-05-03T11:02:44.157Z</time></trkpt><trkpt lat="43.0023834" lon="13.198697"><ele>858.0000000000001</ele><time>2026-05-03T11:02:45.158Z</time></trkpt><trkpt lat="43.0024848" lon="13.1986132"><ele>856.0</ele><time>2026-05-03T11:02:46.156Z</time></trkpt><trkpt lat="43.0025768" lon="13.1985484"><ele>854.0</ele><time>2026-05-03T11:02:47.157Z</time></trkpt><trkpt lat="43.0026795" lon="13.1984886"><ele>854.0</ele><time>2026-05-03T11:02:48.158Z</time></trkpt><trkpt lat="43.0027749" lon="13.1984303"><ele>854.0000000000001</ele><time>2026-05-03T11:02:49.157Z</time></trkpt><trkpt lat="43.0028702" lon="13.1983779"><ele>854.0000000000001</ele><time>2026-05-03T11:02:50.157Z</time></trkpt><trkpt lat="43.0029642" lon="13.1983114"><ele>854.0</ele><time>2026-05-03T11:02:51.157Z</time></trkpt><trkpt lat="43.0030682" lon="13.198253"><ele>854.0</ele><time>2026-05-03T11:02:52.156Z</time></trkpt><trkpt lat="43.0031623" lon="13.1981971"><ele>850.0</ele><time>2026-05-03T11:02:53.157Z</time></trkpt><trkpt lat="43.0032553" lon="13.1981254"><ele>846.0000000000001</ele><time>2026-05-03T11:02:54.157Z</time></trkpt><trkpt lat="43.0033443" lon="13.1980413"><ele>842.0</ele><time>2026-05-03T11:02:55.157Z</time></trkpt><trkpt lat="43.0034308" lon="13.197961"><ele>838.0</ele><time>2026-05-03T11:02:56.159Z</time></trkpt><trkpt lat="43.0035131" lon="13.1978672"><ele>834.0</ele><time>2026-05-03T11:02:57.157Z</time></trkpt><trkpt lat="43.0035942" lon="13.1977845"><ele>834.0</ele><time>2026-05-03T11:02:58.158Z</time></trkpt><trkpt lat="43.0036818" lon="13.1976925"><ele>834.0</ele><time>2026-05-03T11:02:59.157Z</time></trkpt><trkpt lat="43.0037704" lon="13.1976135"><ele>834.0</ele><time>2026-05-03T11:03:00.158Z</time></trkpt><trkpt lat="43.0038562" lon="13.1975293"><ele>834.0</ele><time>2026-05-03T11:03:01.173Z</time></trkpt><trkpt lat="43.0039356" lon="13.1974454"><ele>834.0</ele><time>2026-05-03T11:03:02.162Z</time></trkpt><trkpt lat="43.0040179" lon="13.1973614"><ele>832.8000000000001</ele><time>2026-05-03T11:03:03.155Z</time></trkpt><trkpt lat="43.0041017" lon="13.1972877"><ele>831.6</ele><time>2026-05-03T11:03:04.155Z</time></trkpt><trkpt lat="43.0041921" lon="13.1972049"><ele>830.4</ele><time>2026-05-03T11:03:05.159Z</time></trkpt><trkpt lat="43.0042777" lon="13.1971302"><ele>829.2</ele><time>2026-05-03T11:03:06.158Z</time></trkpt><trkpt lat="43.0043671" lon="13.1970577"><ele>828.0</ele><time>2026-05-03T11:03:07.157Z</time></trkpt><trkpt lat="43.004453" lon="13.1969841"><ele>828.0</ele><time>2026-05-03T11:03:08.157Z</time></trkpt><trkpt lat="43.0045415" lon="13.1969125"><ele>828.0</ele><time>2026-05-03T11:03:09.158Z</time></trkpt><trkpt lat="43.0046391" lon="13.1968525"><ele>828.0</ele><time>2026-05-03T11:03:10.159Z</time></trkpt><trkpt lat="43.0047249" lon="13.1967854"><ele>828.0</ele><time>2026-05-03T11:03:11.158Z</time></trkpt><trkpt lat="43.0049055" lon="13.196667"><ele>824.2</ele><time>2026-05-03T11:03:13.165Z</time></trkpt><trkpt lat="43.004997" lon="13.1966077"><ele>820.4</ele><time>2026-05-03T11:03:14.157Z</time></trkpt><trkpt lat="43.0050876" lon="13.1965508"><ele>816.6</ele><time>2026-05-03T11:03:15.164Z</time></trkpt><trkpt lat="43.0051717" lon="13.1964917"><ele>812.8000000000001</ele><time>2026-05-03T11:03:16.164Z</time></trkpt><trkpt lat="43.0052566" lon="13.19643"><ele>809.0</ele><time>2026-05-03T11:03:17.16Z</time></trkpt><trkpt lat="43.0053537" lon="13.1963729"><ele>809.0</ele><time>2026-05-03T11:03:18.157Z</time></trkpt><trkpt lat="43.0054477" lon="13.1963218"><ele>809.0</ele><time>2026-05-03T11:03:19.155Z</time></trkpt><trkpt lat="43.0055456" lon="13.1962577"><ele>809.0</ele><time>2026-05-03T11:03:20.156Z</time></trkpt><trkpt lat="43.005633" lon="13.1962062"><ele>809.0</ele><time>2026-05-03T11:03:21.157Z</time></trkpt><trkpt lat="43.0057262" lon="13.19614"><ele>809.0</ele><time>2026-05-03T11:03:22.159Z</time></trkpt><trkpt lat="43.0058175" lon="13.1960887"><ele>812.75</ele><time>2026-05-03T11:03:23.158Z</time></trkpt><trkpt lat="43.0059181" lon="13.1960392"><ele>816.5</ele><time>2026-05-03T11:03:24.157Z</time></trkpt><trkpt lat="43.0061024" lon="13.1959359"><ele>820.25</ele><time>2026-05-03T11:03:26.161Z</time></trkpt><trkpt lat="43.0062058" lon="13.1959047"><ele>824.0</ele><time>2026-05-03T11:03:27.159Z</time></trkpt><trkpt lat="43.0063982" lon="13.1958353"><ele>824.0</ele><time>2026-05-03T11:03:29.16Z</time></trkpt><trkpt lat="43.0064923" lon="13.1957911"><ele>824.0</ele><time>2026-05-03T11:03:30.159Z</time></trkpt><trkpt lat="43.0065805" lon="13.1957292"><ele>824.0</ele><time>2026-05-03T11:03:31.159Z</time></trkpt><trkpt lat="43.0066501" lon="13.1956355"><ele>824.0</ele><time>2026-05-03T11:03:32.162Z</time></trkpt><trkpt lat="43.0067008" lon="13.1955196"><ele>824.0</ele><time>2026-05-03T11:03:33.163Z</time></trkpt><trkpt lat="43.0067398" lon="13.1954005"><ele>823.3333333333334</ele><time>2026-05-03T11:03:34.156Z</time></trkpt><trkpt lat="43.0067786" lon="13.195294"><ele>822.6666666666667</ele><time>2026-05-03T11:03:35.157Z</time></trkpt><trkpt lat="43.0068227" lon="13.1951914"><ele>822.0</ele><time>2026-05-03T11:03:36.157Z</time></trkpt><trkpt lat="43.0068728" lon="13.1951042"><ele>821.3333333333333</ele><time>2026-05-03T11:03:37.162Z</time></trkpt><trkpt lat="43.0069274" lon="13.1950161"><ele>820.6666666666666</ele><time>2026-05-03T11:03:38.162Z</time></trkpt><trkpt lat="43.0069721" lon="13.1949255"><ele>820.0</ele><time>2026-05-03T11:03:39.159Z</time></trkpt><trkpt lat="43.0070281" lon="13.1948467"><ele>816.3333333333333</ele><time>2026-05-03T11:03:40.156Z</time></trkpt><trkpt lat="43.0070804" lon="13.194769"><ele>812.6666666666666</ele><time>2026-05-03T11:03:41.158Z</time></trkpt><trkpt lat="43.0071317" lon="13.194696"><ele>809.0</ele><time>2026-05-03T11:03:42.16Z</time></trkpt><trkpt lat="43.007185" lon="13.1946219"><ele>805.3333333333333</ele><time>2026-05-03T11:03:43.157Z</time></trkpt><trkpt lat="43.0072899" lon="13.1945183"><ele>801.6666666666666</ele><time>2026-05-03T11:03:45.157Z</time></trkpt><trkpt lat="43.0073451" lon="13.194456"><ele>798.0</ele><time>2026-05-03T11:03:46.157Z</time></trkpt><trkpt lat="43.007398" lon="13.1943924"><ele>798.0</ele><time>2026-05-03T11:03:47.155Z</time></trkpt><trkpt lat="43.0074512" lon="13.1943309"><ele>798.0</ele><time>2026-05-03T11:03:48.158Z</time></trkpt><trkpt lat="43.0075322" lon="13.1942098"><ele>798.0</ele><time>2026-05-03T11:03:50.157Z</time></trkpt><trkpt lat="43.0076057" lon="13.1941122"><ele>798.0</ele><time>2026-05-03T11:03:52.157Z</time></trkpt><trkpt lat="43.0076695" lon="13.1939829"><ele>798.0</ele><time>2026-05-03T11:03:54.156Z</time></trkpt><trkpt lat="43.007726" lon="13.1938569"><ele>800.0</ele><time>2026-05-03T11:03:56.156Z</time></trkpt><trkpt lat="43.0077843" lon="13.1937351"><ele>802.0</ele><time>2026-05-03T11:03:58.157Z</time></trkpt><trkpt lat="43.0078232" lon="13.1936013"><ele>804.0</ele><time>2026-05-03T11:04:00.157Z</time></trkpt><trkpt lat="43.0078884" lon="13.1934936"><ele>806.0</ele><time>2026-05-03T11:04:02.158Z</time></trkpt><trkpt lat="43.0079459" lon="13.1933901"><ele>808.0</ele><time>2026-05-03T11:04:04.16Z</time></trkpt><trkpt lat="43.0079883" lon="13.1932716"><ele>803.8</ele><time>2026-05-03T11:04:06.158Z</time></trkpt><trkpt lat="43.0080405" lon="13.1931667"><ele>799.5999999999999</ele><time>2026-05-03T11:04:08.155Z</time></trkpt><trkpt lat="43.0080988" lon="13.1930764"><ele>795.4000000000001</ele><time>2026-05-03T11:04:10.159Z</time></trkpt><trkpt lat="43.0081591" lon="13.1929621"><ele>791.2</ele><time>2026-05-03T11:04:12.156Z</time></trkpt><trkpt lat="43.0082137" lon="13.192857"><ele>787.0</ele><time>2026-05-03T11:04:14.158Z</time></trkpt><trkpt lat="43.0082642" lon="13.1927517"><ele>787.0</ele><time>2026-05-03T11:04:16.159Z</time></trkpt><trkpt lat="43.0083043" lon="13.1926392"><ele>787.0</ele><time>2026-05-03T11:04:18.157Z</time></trkpt><trkpt lat="43.0083269" lon="13.1925175"><ele>787.0</ele><time>2026-05-03T11:04:20.157Z</time></trkpt><trkpt lat="43.0083603" lon="13.1923851"><ele>787.0</ele><time>2026-05-03T11:04:22.158Z</time></trkpt><trkpt lat="43.008403" lon="13.192232"><ele>787.0</ele><time>2026-05-03T11:04:24.157Z</time></trkpt><trkpt lat="43.0084575" lon="13.1920862"><ele>789.2</ele><time>2026-05-03T11:04:26.158Z</time></trkpt><trkpt lat="43.0085264" lon="13.1919504"><ele>791.4000000000001</ele><time>2026-05-03T11:04:28.156Z</time></trkpt><trkpt lat="43.0085772" lon="13.1918829"><ele>793.5999999999999</ele><time>2026-05-03T11:04:29.158Z</time></trkpt><trkpt lat="43.008651" lon="13.1917417"><ele>795.8</ele><time>2026-05-03T11:04:31.158Z</time></trkpt><trkpt lat="43.0087117" lon="13.1916079"><ele>798.0</ele><time>2026-05-03T11:04:33.158Z</time></trkpt><trkpt lat="43.0087588" lon="13.191471"><ele>798.0</ele><time>2026-05-03T11:04:35.16Z</time></trkpt><trkpt lat="43.0087879" lon="13.1913222"><ele>798.0</ele><time>2026-05-03T11:04:37.158Z</time></trkpt><trkpt lat="43.0088145" lon="13.1911731"><ele>798.0</ele><time>2026-05-03T11:04:39.159Z</time></trkpt><trkpt lat="43.0088234" lon="13.1910812"><ele>798.0</ele><time>2026-05-03T11:04:40.157Z</time></trkpt><trkpt lat="43.0088421" lon="13.1909231"><ele>798.0</ele><time>2026-05-03T11:04:42.157Z</time></trkpt><trkpt lat="43.008844" lon="13.1908327"><ele>798.0</ele><time>2026-05-03T11:04:43.157Z</time></trkpt><trkpt lat="43.008856" lon="13.1907415"><ele>798.0</ele><time>2026-05-03T11:04:44.156Z</time></trkpt><trkpt lat="43.0088683" lon="13.1906504"><ele>798.0</ele><time>2026-05-03T11:04:45.157Z</time></trkpt><trkpt lat="43.0088906" lon="13.1904901"><ele>798.0</ele><time>2026-05-03T11:04:47.157Z</time></trkpt><trkpt lat="43.0088982" lon="13.1903991"><ele>798.0</ele><time>2026-05-03T11:04:48.158Z</time></trkpt><trkpt lat="43.008909" lon="13.1903138"><ele>798.0</ele><time>2026-05-03T11:04:49.156Z</time></trkpt><trkpt lat="43.0089205" lon="13.1902181"><ele>795.6666666666666</ele><time>2026-05-03T11:04:50.157Z</time></trkpt><trkpt lat="43.00893" lon="13.1901243"><ele>793.3333333333333</ele><time>2026-05-03T11:04:51.157Z</time></trkpt><trkpt lat="43.0089594" lon="13.1899535"><ele>791.0</ele><time>2026-05-03T11:04:53.16Z</time></trkpt><trkpt lat="43.0089765" lon="13.1898594"><ele>788.6666666666666</ele><time>2026-05-03T11:04:54.159Z</time></trkpt><trkpt lat="43.0089946" lon="13.1897667"><ele>786.3333333333333</ele><time>2026-05-03T11:04:55.156Z</time></trkpt><trkpt lat="43.009009" lon="13.1896823"><ele>784.0</ele><time>2026-05-03T11:04:56.158Z</time></trkpt><trkpt lat="43.0090259" lon="13.1895946"><ele>781.8000000000001</ele><time>2026-05-03T11:04:57.157Z</time></trkpt><trkpt lat="43.0090414" lon="13.1895031"><ele>779.6</ele><time>2026-05-03T11:04:58.157Z</time></trkpt><trkpt lat="43.009061" lon="13.1894205"><ele>777.4</ele><time>2026-05-03T11:04:59.16Z</time></trkpt><trkpt lat="43.0090961" lon="13.1892575"><ele>775.2</ele><time>2026-05-03T11:05:01.157Z</time></trkpt><trkpt lat="43.0091145" lon="13.1891727"><ele>773.0</ele><time>2026-05-03T11:05:02.159Z</time></trkpt><trkpt lat="43.0091453" lon="13.1889993"><ele>779.3333333333334</ele><time>2026-05-03T11:05:04.157Z</time></trkpt><trkpt lat="43.0091872" lon="13.1888368"><ele>785.6666666666667</ele><time>2026-05-03T11:05:06.157Z</time></trkpt><trkpt lat="43.0092061" lon="13.188753"><ele>792.0</ele><time>2026-05-03T11:05:07.158Z</time></trkpt><trkpt lat="43.0092251" lon="13.1886647"><ele>798.3333333333333</ele><time>2026-05-03T11:05:08.158Z</time></trkpt><trkpt lat="43.0092472" lon="13.1885808"><ele>804.6666666666666</ele><time>2026-05-03T11:05:09.157Z</time></trkpt><trkpt lat="43.0092649" lon="13.1884926"><ele>811.0</ele><time>2026-05-03T11:05:10.157Z</time></trkpt><trkpt lat="43.0092819" lon="13.1883992"><ele>811.0</ele><time>2026-05-03T11:05:11.159Z</time></trkpt><trkpt lat="43.0093004" lon="13.1883062"><ele>811.0</ele><time>2026-05-03T11:05:12.157Z</time></trkpt><trkpt lat="43.0093311" lon="13.1882203"><ele>811.0</ele><time>2026-05-03T11:05:13.158Z</time></trkpt><trkpt lat="43.0093601" lon="13.188133"><ele>811.0</ele><time>2026-05-03T11:05:14.158Z</time></trkpt><trkpt lat="43.0093896" lon="13.1880435"><ele>811.0</ele><time>2026-05-03T11:05:15.158Z</time></trkpt><trkpt lat="43.009419" lon="13.1879567"><ele>811.0</ele><time>2026-05-03T11:05:16.156Z</time></trkpt><trkpt lat="43.0094537" lon="13.1878664"><ele>811.0</ele><time>2026-05-03T11:05:17.158Z</time></trkpt><trkpt lat="43.0094879" lon="13.187775"><ele>808.5999999999999</ele><time>2026-05-03T11:05:18.158Z</time></trkpt><trkpt lat="43.0095371" lon="13.187614"><ele>806.2</ele><time>2026-05-03T11:05:20.159Z</time></trkpt><trkpt lat="43.009562" lon="13.1875263"><ele>803.8</ele><time>2026-05-03T11:05:21.158Z</time></trkpt><trkpt lat="43.0095818" lon="13.1874371"><ele>801.4000000000001</ele><time>2026-05-03T11:05:22.158Z</time></trkpt><trkpt lat="43.009615" lon="13.187274"><ele>799.0</ele><time>2026-05-03T11:05:24.157Z</time></trkpt><trkpt lat="43.009632" lon="13.1871753"><ele>795.9999999999999</ele><time>2026-05-03T11:05:25.155Z</time></trkpt><trkpt lat="43.0096557" lon="13.1870788"><ele>793.0</ele><time>2026-05-03T11:05:26.158Z</time></trkpt><trkpt lat="43.0096777" lon="13.1869861"><ele>790.0</ele><time>2026-05-03T11:05:27.156Z</time></trkpt><trkpt lat="43.0097054" lon="13.1868935"><ele>787.0</ele><time>2026-05-03T11:05:28.155Z</time></trkpt><trkpt lat="43.0097257" lon="13.1867941"><ele>783.9999999999999</ele><time>2026-05-03T11:05:29.157Z</time></trkpt><trkpt lat="43.0097551" lon="13.1866886"><ele>781.0</ele><time>2026-05-03T11:05:30.157Z</time></trkpt><trkpt lat="43.009821" lon="13.1865424"><ele>783.8333333333333</ele><time>2026-05-03T11:05:32.157Z</time></trkpt><trkpt lat="43.0099" lon="13.1864102"><ele>786.6666666666666</ele><time>2026-05-03T11:05:34.155Z</time></trkpt><trkpt lat="43.0099413" lon="13.1863317"><ele>789.5</ele><time>2026-05-03T11:05:35.158Z</time></trkpt><trkpt lat="43.0100177" lon="13.1861973"><ele>792.3333333333333</ele><time>2026-05-03T11:05:37.158Z</time></trkpt><trkpt lat="43.0100552" lon="13.1861279"><ele>795.1666666666666</ele><time>2026-05-03T11:05:38.158Z</time></trkpt><trkpt lat="43.0100946" lon="13.1860597"><ele>798.0</ele><time>2026-05-03T11:05:39.158Z</time></trkpt><trkpt lat="43.010175" lon="13.185941"><ele>798.0</ele><time>2026-05-03T11:05:41.158Z</time></trkpt><trkpt lat="43.0102562" lon="13.1858284"><ele>798.0</ele><time>2026-05-03T11:05:43.158Z</time></trkpt><trkpt lat="43.0103054" lon="13.1857556"><ele>798.0</ele><time>2026-05-03T11:05:44.158Z</time></trkpt><trkpt lat="43.010353" lon="13.1856908"><ele>798.0</ele><time>2026-05-03T11:05:45.157Z</time></trkpt><trkpt lat="43.0104043" lon="13.1856312"><ele>798.0</ele><time>2026-05-03T11:05:46.157Z</time></trkpt><trkpt lat="43.0104983" lon="13.185516"><ele>798.0</ele><time>2026-05-03T11:05:48.155Z</time></trkpt><trkpt lat="43.0105527" lon="13.1854579"><ele>799.1666666666666</ele><time>2026-05-03T11:05:49.158Z</time></trkpt><trkpt lat="43.0106039" lon="13.1854033"><ele>800.3333333333333</ele><time>2026-05-03T11:05:50.159Z</time></trkpt><trkpt lat="43.0107" lon="13.1852952"><ele>801.5</ele><time>2026-05-03T11:05:52.158Z</time></trkpt><trkpt lat="43.0107598" lon="13.1852532"><ele>802.6666666666666</ele><time>2026-05-03T11:05:53.159Z</time></trkpt><trkpt lat="43.0108188" lon="13.1852015"><ele>803.8333333333333</ele><time>2026-05-03T11:05:54.157Z</time></trkpt><trkpt lat="43.0108754" lon="13.1851527"><ele>805.0</ele><time>2026-05-03T11:05:55.158Z</time></trkpt><trkpt lat="43.0109375" lon="13.1851084"><ele>804.9999999999999</ele><time>2026-05-03T11:05:56.158Z</time></trkpt><trkpt lat="43.0109989" lon="13.1850764"><ele>805.0</ele><time>2026-05-03T11:05:57.155Z</time></trkpt><trkpt lat="43.0111063" lon="13.1849847"><ele>805.0</ele><time>2026-05-03T11:05:59.158Z</time></trkpt><trkpt lat="43.0111738" lon="13.1849556"><ele>805.0</ele><time>2026-05-03T11:06:00.158Z</time></trkpt><trkpt lat="43.0112449" lon="13.1849023"><ele>804.9999999999999</ele><time>2026-05-03T11:06:01.157Z</time></trkpt><trkpt lat="43.0113061" lon="13.1848502"><ele>805.0</ele><time>2026-05-03T11:06:02.157Z</time></trkpt><trkpt lat="43.0113704" lon="13.184796"><ele>801.8333333333333</ele><time>2026-05-03T11:06:03.158Z</time></trkpt><trkpt lat="43.0114432" lon="13.1847434"><ele>798.6666666666666</ele><time>2026-05-03T11:06:04.156Z</time></trkpt><trkpt lat="43.0115178" lon="13.1847016"><ele>795.5</ele><time>2026-05-03T11:06:05.157Z</time></trkpt><trkpt lat="43.0115955" lon="13.1846578"><ele>792.3333333333333</ele><time>2026-05-03T11:06:06.159Z</time></trkpt><trkpt lat="43.0116649" lon="13.184626"><ele>789.1666666666666</ele><time>2026-05-03T11:06:07.159Z</time></trkpt><trkpt lat="43.0117384" lon="13.1845882"><ele>786.0</ele><time>2026-05-03T11:06:08.158Z</time></trkpt><trkpt lat="43.0118084" lon="13.1845678"><ele>786.0</ele><time>2026-05-03T11:06:09.157Z</time></trkpt><trkpt lat="43.0118848" lon="13.1845379"><ele>786.0</ele><time>2026-05-03T11:06:10.157Z</time></trkpt><trkpt lat="43.011963" lon="13.1845245"><ele>786.0</ele><time>2026-05-03T11:06:11.158Z</time></trkpt><trkpt lat="43.0120422" lon="13.1845077"><ele>786.0</ele><time>2026-05-03T11:06:12.157Z</time></trkpt><trkpt lat="43.0121192" lon="13.1844991"><ele>786.0</ele><time>2026-05-03T11:06:13.158Z</time></trkpt><trkpt lat="43.0122039" lon="13.1844847"><ele>786.0</ele><time>2026-05-03T11:06:14.166Z</time></trkpt><trkpt lat="43.0122841" lon="13.1844715"><ele>786.0</ele><time>2026-05-03T11:06:15.157Z</time></trkpt><trkpt lat="43.0123599" lon="13.1844652"><ele>786.0</ele><time>2026-05-03T11:06:16.158Z</time></trkpt><trkpt lat="43.012445" lon="13.1844591"><ele>786.0</ele><time>2026-05-03T11:06:17.159Z</time></trkpt><trkpt lat="43.0125304" lon="13.1844608"><ele>786.0</ele><time>2026-05-03T11:06:18.158Z</time></trkpt><trkpt lat="43.0126187" lon="13.1844624"><ele>786.0</ele><time>2026-05-03T11:06:19.158Z</time></trkpt><trkpt lat="43.0127038" lon="13.1844486"><ele>786.0</ele><time>2026-05-03T11:06:20.155Z</time></trkpt><trkpt lat="43.0127885" lon="13.1844388"><ele>786.5999999999999</ele><time>2026-05-03T11:06:21.158Z</time></trkpt><trkpt lat="43.012876" lon="13.1844325"><ele>787.2</ele><time>2026-05-03T11:06:22.158Z</time></trkpt><trkpt lat="43.0129648" lon="13.1844169"><ele>787.8</ele><time>2026-05-03T11:06:23.156Z</time></trkpt><trkpt lat="43.0130532" lon="13.184389"><ele>788.4000000000001</ele><time>2026-05-03T11:06:24.159Z</time></trkpt><trkpt lat="43.013143" lon="13.1843562"><ele>789.0</ele><time>2026-05-03T11:06:25.155Z</time></trkpt><trkpt lat="43.0132342" lon="13.1843188"><ele>789.0</ele><time>2026-05-03T11:06:26.158Z</time></trkpt><trkpt lat="43.0133198" lon="13.1842784"><ele>789.0</ele><time>2026-05-03T11:06:27.155Z</time></trkpt><trkpt lat="43.01341" lon="13.1842298"><ele>789.0</ele><time>2026-05-03T11:06:28.155Z</time></trkpt><trkpt lat="43.0134932" lon="13.1841799"><ele>789.0</ele><time>2026-05-03T11:06:29.159Z</time></trkpt><trkpt lat="43.0135766" lon="13.1841229"><ele>789.0</ele><time>2026-05-03T11:06:30.159Z</time></trkpt><trkpt lat="43.0136777" lon="13.1840573"><ele>782.2</ele><time>2026-05-03T11:06:31.157Z</time></trkpt><trkpt lat="43.013766" lon="13.1840028"><ele>775.4000000000001</ele><time>2026-05-03T11:06:32.158Z</time></trkpt><trkpt lat="43.0138573" lon="13.1839402"><ele>768.6</ele><time>2026-05-03T11:06:33.157Z</time></trkpt><trkpt lat="43.01395" lon="13.1838725"><ele>761.8</ele><time>2026-05-03T11:06:34.156Z</time></trkpt><trkpt lat="43.0140443" lon="13.183825"><ele>755.0</ele><time>2026-05-03T11:06:35.158Z</time></trkpt><trkpt lat="43.0141424" lon="13.1837813"><ele>758.2</ele><time>2026-05-03T11:06:36.156Z</time></trkpt><trkpt lat="43.0142365" lon="13.1837489"><ele>761.4</ele><time>2026-05-03T11:06:37.157Z</time></trkpt><trkpt lat="43.0143402" lon="13.1837137"><ele>764.5999999999999</ele><time>2026-05-03T11:06:38.158Z</time></trkpt><trkpt lat="43.0144435" lon="13.1836816"><ele>767.8</ele><time>2026-05-03T11:06:39.157Z</time></trkpt><trkpt lat="43.0145427" lon="13.1836444"><ele>771.0</ele><time>2026-05-03T11:06:40.158Z</time></trkpt><trkpt lat="43.0146437" lon="13.1836093"><ele>771.0</ele><time>2026-05-03T11:06:41.157Z</time></trkpt><trkpt lat="43.0147456" lon="13.1835786"><ele>771.0</ele><time>2026-05-03T11:06:42.158Z</time></trkpt><trkpt lat="43.0148475" lon="13.1835397"><ele>771.0</ele><time>2026-05-03T11:06:43.157Z</time></trkpt><trkpt lat="43.0149415" lon="13.183504"><ele>771.0</ele><time>2026-05-03T11:06:44.157Z</time></trkpt><trkpt lat="43.0150447" lon="13.183455"><ele>771.0</ele><time>2026-05-03T11:06:45.158Z</time></trkpt><trkpt lat="43.0151427" lon="13.183405"><ele>772.8</ele><time>2026-05-03T11:06:46.156Z</time></trkpt><trkpt lat="43.0152408" lon="13.1833605"><ele>774.5999999999999</ele><time>2026-05-03T11:06:47.154Z</time></trkpt><trkpt lat="43.0153425" lon="13.1833225"><ele>776.4</ele><time>2026-05-03T11:06:48.157Z</time></trkpt><trkpt lat="43.0154527" lon="13.1832922"><ele>778.2</ele><time>2026-05-03T11:06:49.158Z</time></trkpt><trkpt lat="43.0155567" lon="13.1832785"><ele>780.0</ele><time>2026-05-03T11:06:50.157Z</time></trkpt><trkpt lat="43.0156556" lon="13.1832597"><ele>780.0</ele><time>2026-05-03T11:06:51.157Z</time></trkpt><trkpt lat="43.0157552" lon="13.1832522"><ele>780.0</ele><time>2026-05-03T11:06:52.156Z</time></trkpt><trkpt lat="43.0158624" lon="13.1832606"><ele>780.0</ele><time>2026-05-03T11:06:53.159Z</time></trkpt><trkpt lat="43.015964" lon="13.1832852"><ele>780.0</ele><time>2026-05-03T11:06:54.157Z</time></trkpt><trkpt lat="43.016062" lon="13.1833116"><ele>780.0</ele><time>2026-05-03T11:06:55.162Z</time></trkpt><trkpt lat="43.0161536" lon="13.1833478"><ele>779.6</ele><time>2026-05-03T11:06:56.157Z</time></trkpt><trkpt lat="43.0162596" lon="13.1833791"><ele>779.2</ele><time>2026-05-03T11:06:57.157Z</time></trkpt><trkpt lat="43.016371" lon="13.1833996"><ele>778.8</ele><time>2026-05-03T11:06:58.158Z</time></trkpt><trkpt lat="43.0164838" lon="13.1834147"><ele>778.4</ele><time>2026-05-03T11:06:59.157Z</time></trkpt><trkpt lat="43.016592" lon="13.1834113"><ele>778.0</ele><time>2026-05-03T11:07:00.157Z</time></trkpt><trkpt lat="43.0166972" lon="13.1834087"><ele>778.0</ele><time>2026-05-03T11:07:01.158Z</time></trkpt><trkpt lat="43.0168004" lon="13.1834059"><ele>778.0</ele><time>2026-05-03T11:07:02.156Z</time></trkpt><trkpt lat="43.0169107" lon="13.1833901"><ele>778.0</ele><time>2026-05-03T11:07:03.156Z</time></trkpt><trkpt lat="43.0170213" lon="13.1833843"><ele>778.0</ele><time>2026-05-03T11:07:04.156Z</time></trkpt><trkpt lat="43.0171291" lon="13.1833585"><ele>778.0</ele><time>2026-05-03T11:07:05.157Z</time></trkpt><trkpt lat="43.0172301" lon="13.1833261"><ele>778.0</ele><time>2026-05-03T11:07:06.158Z</time></trkpt><trkpt lat="43.0173423" lon="13.1833024"><ele>778.0</ele><time>2026-05-03T11:07:07.158Z</time></trkpt><trkpt lat="43.0174552" lon="13.1832826"><ele>778.0</ele><time>2026-05-03T11:07:08.156Z</time></trkpt><trkpt lat="43.0175629" lon="13.1832605"><ele>778.0</ele><time>2026-05-03T11:07:09.157Z</time></trkpt><trkpt lat="43.0176654" lon="13.1832292"><ele>778.0</ele><time>2026-05-03T11:07:10.157Z</time></trkpt><trkpt lat="43.0177653" lon="13.1832045"><ele>767.4</ele><time>2026-05-03T11:07:11.157Z</time></trkpt><trkpt lat="43.0178709" lon="13.1831793"><ele>756.8</ele><time>2026-05-03T11:07:12.157Z</time></trkpt><trkpt lat="43.0179582" lon="13.1831398"><ele>746.2</ele><time>2026-05-03T11:07:13.157Z</time></trkpt><trkpt lat="43.0180522" lon="13.1831257"><ele>735.6</ele><time>2026-05-03T11:07:14.158Z</time></trkpt><trkpt lat="43.0181433" lon="13.1830777"><ele>725.0</ele><time>2026-05-03T11:07:15.158Z</time></trkpt><trkpt lat="43.0182334" lon="13.1830534"><ele>726.0</ele><time>2026-05-03T11:07:16.158Z</time></trkpt><trkpt lat="43.0183318" lon="13.1830195"><ele>727.0</ele><time>2026-05-03T11:07:17.158Z</time></trkpt><trkpt lat="43.0184313" lon="13.1829825"><ele>728.0</ele><time>2026-05-03T11:07:18.157Z</time></trkpt><trkpt lat="43.0185246" lon="13.1829563"><ele>729.0</ele><time>2026-05-03T11:07:19.157Z</time></trkpt><trkpt lat="43.0186288" lon="13.1829318"><ele>730.0</ele><time>2026-05-03T11:07:20.159Z</time></trkpt><trkpt lat="43.018735" lon="13.1829413"><ele>730.0</ele><time>2026-05-03T11:07:21.16Z</time></trkpt><trkpt lat="43.0188259" lon="13.1829409"><ele>730.0</ele><time>2026-05-03T11:07:22.157Z</time></trkpt><trkpt lat="43.0189146" lon="13.182966"><ele>730.0</ele><time>2026-05-03T11:07:23.158Z</time></trkpt><trkpt lat="43.0190154" lon="13.1829987"><ele>730.0</ele><time>2026-05-03T11:07:24.156Z</time></trkpt><trkpt lat="43.0191104" lon="13.1831128"><ele>730.0</ele><time>2026-05-03T11:07:25.157Z</time></trkpt><trkpt lat="43.0191993" lon="13.1831522"><ele>730.4</ele><time>2026-05-03T11:07:26.158Z</time></trkpt><trkpt lat="43.0192887" lon="13.1831665"><ele>730.8</ele><time>2026-05-03T11:07:27.155Z</time></trkpt><trkpt lat="43.019371" lon="13.1831207"><ele>731.2</ele><time>2026-05-03T11:07:28.156Z</time></trkpt><trkpt lat="43.0194375" lon="13.1830331"><ele>731.6</ele><time>2026-05-03T11:07:29.158Z</time></trkpt><trkpt lat="43.019475" lon="13.1829184"><ele>732.0</ele><time>2026-05-03T11:07:30.157Z</time></trkpt><trkpt lat="43.0194999" lon="13.1827898"><ele>732.0</ele><time>2026-05-03T11:07:31.158Z</time></trkpt><trkpt lat="43.0195257" lon="13.1826579"><ele>732.0</ele><time>2026-05-03T11:07:32.158Z</time></trkpt><trkpt lat="43.0195693" lon="13.1825368"><ele>732.0</ele><time>2026-05-03T11:07:33.158Z</time></trkpt><trkpt lat="43.019631" lon="13.1824329"><ele>732.0</ele><time>2026-05-03T11:07:34.157Z</time></trkpt><trkpt lat="43.0196892" lon="13.1823153"><ele>732.0</ele><time>2026-05-03T11:07:35.158Z</time></trkpt><trkpt lat="43.0197971" lon="13.1822554"><ele>729.6</ele><time>2026-05-03T11:07:36.158Z</time></trkpt><trkpt lat="43.0199023" lon="13.1822112"><ele>727.2</ele><time>2026-05-03T11:07:37.158Z</time></trkpt><trkpt lat="43.0200117" lon="13.1822061"><ele>724.8</ele><time>2026-05-03T11:07:38.158Z</time></trkpt><trkpt lat="43.0201033" lon="13.1821862"><ele>722.4</ele><time>2026-05-03T11:07:39.157Z</time></trkpt><trkpt lat="43.0202046" lon="13.1821875"><ele>720.0</ele><time>2026-05-03T11:07:40.155Z</time></trkpt><trkpt lat="43.0203087" lon="13.1822016"><ele>720.0</ele><time>2026-05-03T11:07:41.157Z</time></trkpt><trkpt lat="43.0204008" lon="13.1821793"><ele>720.0</ele><time>2026-05-03T11:07:42.157Z</time></trkpt><trkpt lat="43.0204902" lon="13.1821406"><ele>720.0</ele><time>2026-05-03T11:07:43.158Z</time></trkpt><trkpt lat="43.020568" lon="13.1820709"><ele>720.0</ele><time>2026-05-03T11:07:44.157Z</time></trkpt><trkpt lat="43.0206415" lon="13.1819926"><ele>720.0</ele><time>2026-05-03T11:07:45.158Z</time></trkpt><trkpt lat="43.0207035" lon="13.1819276"><ele>720.0</ele><time>2026-05-03T11:07:46.157Z</time></trkpt><trkpt lat="43.0207657" lon="13.1818517"><ele>720.0</ele><time>2026-05-03T11:07:47.158Z</time></trkpt><trkpt lat="43.0208236" lon="13.1817831"><ele>720.0</ele><time>2026-05-03T11:07:48.157Z</time></trkpt><trkpt lat="43.0208908" lon="13.1817262"><ele>720.0</ele><time>2026-05-03T11:07:49.158Z</time></trkpt><trkpt lat="43.0209531" lon="13.1816672"><ele>720.0</ele><time>2026-05-03T11:07:50.158Z</time></trkpt><trkpt lat="43.0210235" lon="13.1816412"><ele>720.0</ele><time>2026-05-03T11:07:51.158Z</time></trkpt><trkpt lat="43.0210876" lon="13.1816044"><ele>723.1666666666666</ele><time>2026-05-03T11:07:52.159Z</time></trkpt><trkpt lat="43.0212189" lon="13.1815592"><ele>726.3333333333334</ele><time>2026-05-03T11:07:54.157Z</time></trkpt><trkpt lat="43.0212864" lon="13.1815447"><ele>729.5</ele><time>2026-05-03T11:07:55.158Z</time></trkpt><trkpt lat="43.0213612" lon="13.1815192"><ele>732.6666666666667</ele><time>2026-05-03T11:07:56.156Z</time></trkpt><trkpt lat="43.021425" lon="13.1815399"><ele>735.8333333333334</ele><time>2026-05-03T11:07:57.158Z</time></trkpt><trkpt lat="43.0214843" lon="13.1815778"><ele>739.0</ele><time>2026-05-03T11:07:58.158Z</time></trkpt><trkpt lat="43.021592" lon="13.181648"><ele>741.6</ele><time>2026-05-03T11:08:00.159Z</time></trkpt><trkpt lat="43.0216578" lon="13.1817173"><ele>744.2</ele><time>2026-05-03T11:08:02.157Z</time></trkpt><trkpt lat="43.0217434" lon="13.1817527"><ele>746.8000000000001</ele><time>2026-05-03T11:08:04.156Z</time></trkpt><trkpt lat="43.0218388" lon="13.18175"><ele>749.4000000000001</ele><time>2026-05-03T11:08:06.157Z</time></trkpt><trkpt lat="43.0219244" lon="13.1816869"><ele>752.0</ele><time>2026-05-03T11:08:08.157Z</time></trkpt><trkpt lat="43.0219895" lon="13.1815764"><ele>747.8</ele><time>2026-05-03T11:08:10.159Z</time></trkpt><trkpt lat="43.0220474" lon="13.1814683"><ele>743.6</ele><time>2026-05-03T11:08:12.156Z</time></trkpt><trkpt lat="43.0221008" lon="13.1813593"><ele>739.4</ele><time>2026-05-03T11:08:14.158Z</time></trkpt><trkpt lat="43.0221583" lon="13.181257"><ele>735.1999999999999</ele><time>2026-05-03T11:08:16.158Z</time></trkpt><trkpt lat="43.0222343" lon="13.1811524"><ele>731.0</ele><time>2026-05-03T11:08:18.157Z</time></trkpt><trkpt lat="43.0223054" lon="13.1810492"><ele>731.0</ele><time>2026-05-03T11:08:20.157Z</time></trkpt><trkpt lat="43.0223726" lon="13.1809455"><ele>731.0</ele><time>2026-05-03T11:08:22.158Z</time></trkpt><trkpt lat="43.0224429" lon="13.1808481"><ele>731.0</ele><time>2026-05-03T11:08:24.158Z</time></trkpt><trkpt lat="43.0225059" lon="13.1807361"><ele>731.0</ele><time>2026-05-03T11:08:26.159Z</time></trkpt><trkpt lat="43.0225614" lon="13.1806114"><ele>731.0</ele><time>2026-05-03T11:08:28.155Z</time></trkpt><trkpt lat="43.022612" lon="13.1804828"><ele>729.8333333333333</ele><time>2026-05-03T11:08:30.159Z</time></trkpt><trkpt lat="43.0226608" lon="13.1803818"><ele>728.6666666666666</ele><time>2026-05-03T11:08:32.157Z</time></trkpt><trkpt lat="43.0227165" lon="13.1802834"><ele>727.5</ele><time>2026-05-03T11:08:34.157Z</time></trkpt><trkpt lat="43.022777" lon="13.1801932"><ele>726.3333333333334</ele><time>2026-05-03T11:08:36.158Z</time></trkpt><trkpt lat="43.0228416" lon="13.1801267"><ele>725.1666666666667</ele><time>2026-05-03T11:08:38.154Z</time></trkpt><trkpt lat="43.022914" lon="13.1800622"><ele>724.0</ele><time>2026-05-03T11:08:40.161Z</time></trkpt><trkpt lat="43.0229897" lon="13.1799954"><ele>724.0</ele><time>2026-05-03T11:08:42.159Z</time></trkpt><trkpt lat="43.023083" lon="13.1799434"><ele>724.0</ele><time>2026-05-03T11:08:44.155Z</time></trkpt><trkpt lat="43.0231639" lon="13.1798837"><ele>724.0</ele><time>2026-05-03T11:08:46.157Z</time></trkpt><trkpt lat="43.023242" lon="13.1798364"><ele>724.0</ele><time>2026-05-03T11:08:48.157Z</time></trkpt><trkpt lat="43.0233387" lon="13.1797747"><ele>724.0</ele><time>2026-05-03T11:08:50.159Z</time></trkpt><trkpt lat="43.0234106" lon="13.1797235"><ele>724.5</ele><time>2026-05-03T11:08:52.158Z</time></trkpt><trkpt lat="43.0234868" lon="13.1796677"><ele>725.0</ele><time>2026-05-03T11:08:54.158Z</time></trkpt><trkpt lat="43.0235652" lon="13.1796061"><ele>725.5</ele><time>2026-05-03T11:08:56.157Z</time></trkpt><trkpt lat="43.0236322" lon="13.1795395"><ele>726.0</ele><time>2026-05-03T11:08:58.157Z</time></trkpt><trkpt lat="43.0237043" lon="13.179477"><ele>726.5</ele><time>2026-05-03T11:09:00.156Z</time></trkpt><trkpt lat="43.0237714" lon="13.1793914"><ele>727.0</ele><time>2026-05-03T11:09:02.158Z</time></trkpt><trkpt lat="43.0238371" lon="13.179313"><ele>727.0</ele><time>2026-05-03T11:09:04.155Z</time></trkpt><trkpt lat="43.0239061" lon="13.1792193"><ele>727.0</ele><time>2026-05-03T11:09:06.156Z</time></trkpt><trkpt lat="43.0239743" lon="13.179147"><ele>727.0</ele><time>2026-05-03T11:09:08.157Z</time></trkpt><trkpt lat="43.0240446" lon="13.1790655"><ele>727.0</ele><time>2026-05-03T11:09:10.157Z</time></trkpt><trkpt lat="43.0241161" lon="13.1789614"><ele>727.0</ele><time>2026-05-03T11:09:12.157Z</time></trkpt><trkpt lat="43.0241803" lon="13.1788552"><ele>728.2</ele><time>2026-05-03T11:09:14.157Z</time></trkpt><trkpt lat="43.024238" lon="13.1787353"><ele>729.4000000000001</ele><time>2026-05-03T11:09:16.156Z</time></trkpt><trkpt lat="43.0243056" lon="13.1786275"><ele>730.5999999999999</ele><time>2026-05-03T11:09:18.157Z</time></trkpt><trkpt lat="43.0243796" lon="13.1785134"><ele>731.8</ele><time>2026-05-03T11:09:20.159Z</time></trkpt><trkpt lat="43.0244509" lon="13.1784154"><ele>733.0</ele><time>2026-05-03T11:09:22.157Z</time></trkpt><trkpt lat="43.0244882" lon="13.1783457"><ele>733.0</ele><time>2026-05-03T11:09:23.157Z</time></trkpt><trkpt lat="43.0245846" lon="13.1782233"><ele>733.0</ele><time>2026-05-03T11:09:25.156Z</time></trkpt><trkpt lat="43.0246379" lon="13.1781725"><ele>733.0</ele><time>2026-05-03T11:09:26.157Z</time></trkpt><trkpt lat="43.0246895" lon="13.1781218"><ele>733.0</ele><time>2026-05-03T11:09:27.155Z</time></trkpt><trkpt lat="43.0248012" lon="13.1780265"><ele>733.0</ele><time>2026-05-03T11:09:29.158Z</time></trkpt><trkpt lat="43.0248629" lon="13.1779691"><ele>733.0</ele><time>2026-05-03T11:09:30.158Z</time></trkpt><trkpt lat="43.0249303" lon="13.1779269"><ele>733.0</ele><time>2026-05-03T11:09:31.158Z</time></trkpt><trkpt lat="43.0249935" lon="13.1778705"><ele>733.0</ele><time>2026-05-03T11:09:32.156Z</time></trkpt><trkpt lat="43.0250549" lon="13.1778232"><ele>733.0</ele><time>2026-05-03T11:09:33.157Z</time></trkpt><trkpt lat="43.0251271" lon="13.1777887"><ele>733.0</ele><time>2026-05-03T11:09:34.159Z</time></trkpt><trkpt lat="43.0252044" lon="13.1777546"><ele>733.0</ele><time>2026-05-03T11:09:35.158Z</time></trkpt><trkpt lat="43.0252876" lon="13.1777115"><ele>733.0</ele><time>2026-05-03T11:09:36.157Z</time></trkpt><trkpt lat="43.0253811" lon="13.1777038"><ele>733.0</ele><time>2026-05-03T11:09:37.159Z</time></trkpt><trkpt lat="43.0254536" lon="13.1776722"><ele>733.0</ele><time>2026-05-03T11:09:38.159Z</time></trkpt><trkpt lat="43.0255241" lon="13.1776081"><ele>733.0</ele><time>2026-05-03T11:09:39.157Z</time></trkpt><trkpt lat="43.0255983" lon="13.1775748"><ele>733.0</ele><time>2026-05-03T11:09:40.158Z</time></trkpt><trkpt lat="43.0256718" lon="13.1775177"><ele>733.0</ele><time>2026-05-03T11:09:41.158Z</time></trkpt><trkpt lat="43.0257539" lon="13.1774761"><ele>731.8333333333334</ele><time>2026-05-03T11:09:42.158Z</time></trkpt><trkpt lat="43.0258214" lon="13.1774384"><ele>730.6666666666667</ele><time>2026-05-03T11:09:43.158Z</time></trkpt><trkpt lat="43.0258911" lon="13.1774086"><ele>729.5</ele><time>2026-05-03T11:09:44.158Z</time></trkpt><trkpt lat="43.0259631" lon="13.1773743"><ele>728.3333333333334</ele><time>2026-05-03T11:09:45.157Z</time></trkpt><trkpt lat="43.0260686" lon="13.1773122"><ele>727.1666666666666</ele><time>2026-05-03T11:09:47.158Z</time></trkpt><trkpt lat="43.026174" lon="13.1772597"><ele>726.0</ele><time>2026-05-03T11:09:49.158Z</time></trkpt><trkpt lat="43.0262781" lon="13.1772039"><ele>726.0</ele><time>2026-05-03T11:09:51.157Z</time></trkpt><trkpt lat="43.0263884" lon="13.17716"><ele>726.0</ele><time>2026-05-03T11:09:53.157Z</time></trkpt><trkpt lat="43.0264831" lon="13.1771082"><ele>726.0</ele><time>2026-05-03T11:09:55.157Z</time></trkpt><trkpt lat="43.0265587" lon="13.1770616"><ele>726.0</ele><time>2026-05-03T11:09:57.155Z</time></trkpt><trkpt lat="43.026642" lon="13.1770182"><ele>726.0</ele><time>2026-05-03T11:09:59.158Z</time></trkpt><trkpt lat="43.0267254" lon="13.176972"><ele>727.5999999999999</ele><time>2026-05-03T11:10:01.158Z</time></trkpt><trkpt lat="43.0268129" lon="13.1769308"><ele>729.2</ele><time>2026-05-03T11:10:03.155Z</time></trkpt><trkpt lat="43.0269117" lon="13.1768939"><ele>730.8</ele><time>2026-05-03T11:10:05.155Z</time></trkpt><trkpt lat="43.0269968" lon="13.1768644"><ele>732.4000000000001</ele><time>2026-05-03T11:10:07.159Z</time></trkpt><trkpt lat="43.0270777" lon="13.1768407"><ele>734.0</ele><time>2026-05-03T11:10:09.156Z</time></trkpt><trkpt lat="43.027168" lon="13.1768297"><ele>734.0</ele><time>2026-05-03T11:10:11.155Z</time></trkpt><trkpt lat="43.0272606" lon="13.1768244"><ele>734.0</ele><time>2026-05-03T11:10:13.156Z</time></trkpt><trkpt lat="43.0273442" lon="13.1767961"><ele>734.0</ele><time>2026-05-03T11:10:15.156Z</time></trkpt><trkpt lat="43.027436" lon="13.176771"><ele>734.0</ele><time>2026-05-03T11:10:17.155Z</time></trkpt><trkpt lat="43.0275306" lon="13.1767264"><ele>734.0</ele><time>2026-05-03T11:10:19.158Z</time></trkpt><trkpt lat="43.0276322" lon="13.1766745"><ele>735.6666666666666</ele><time>2026-05-03T11:10:21.158Z</time></trkpt><trkpt lat="43.0276962" lon="13.1766749"><ele>737.3333333333333</ele><time>2026-05-03T11:10:22.158Z</time></trkpt><trkpt lat="43.0277587" lon="13.1766979"><ele>739.0</ele><time>2026-05-03T11:10:23.158Z</time></trkpt><trkpt lat="43.0278198" lon="13.1767419"><ele>740.6666666666666</ele><time>2026-05-03T11:10:24.157Z</time></trkpt><trkpt lat="43.0278718" lon="13.1767947"><ele>742.3333333333334</ele><time>2026-05-03T11:10:25.158Z</time></trkpt><trkpt lat="43.0279204" lon="13.1768579"><ele>744.0</ele><time>2026-05-03T11:10:26.158Z</time></trkpt><trkpt lat="43.0280109" lon="13.1770078"><ele>744.0</ele><time>2026-05-03T11:10:28.155Z</time></trkpt><trkpt lat="43.0280517" lon="13.1771032"><ele>744.0</ele><time>2026-05-03T11:10:29.159Z</time></trkpt><trkpt lat="43.0280992" lon="13.1772111"><ele>744.0</ele><time>2026-05-03T11:10:30.159Z</time></trkpt><trkpt lat="43.0281309" lon="13.1773066"><ele>744.0</ele><time>2026-05-03T11:10:31.158Z</time></trkpt><trkpt lat="43.0281579" lon="13.177406"><ele>744.0</ele><time>2026-05-03T11:10:32.158Z</time></trkpt><trkpt lat="43.0282047" lon="13.1775189"><ele>744.0</ele><time>2026-05-03T11:10:33.159Z</time></trkpt><trkpt lat="43.0282424" lon="13.1776314"><ele>745.0</ele><time>2026-05-03T11:10:34.159Z</time></trkpt><trkpt lat="43.0282872" lon="13.177745"><ele>746.0</ele><time>2026-05-03T11:10:35.159Z</time></trkpt><trkpt lat="43.0283381" lon="13.1778515"><ele>747.0</ele><time>2026-05-03T11:10:36.155Z</time></trkpt><trkpt lat="43.0283985" lon="13.1779483"><ele>748.0</ele><time>2026-05-03T11:10:37.16Z</time></trkpt><trkpt lat="43.0284854" lon="13.1780119"><ele>749.0</ele><time>2026-05-03T11:10:38.16Z</time></trkpt><trkpt lat="43.0285844" lon="13.1780256"><ele>749.0</ele><time>2026-05-03T11:10:39.158Z</time></trkpt><trkpt lat="43.028668" lon="13.1779958"><ele>749.0</ele><time>2026-05-03T11:10:40.158Z</time></trkpt><trkpt lat="43.0287481" lon="13.1779367"><ele>749.0</ele><time>2026-05-03T11:10:41.16Z</time></trkpt><trkpt lat="43.0287925" lon="13.1778552"><ele>749.0</ele><time>2026-05-03T11:10:42.159Z</time></trkpt><trkpt lat="43.0288263" lon="13.1777126"><ele>749.0</ele><time>2026-05-03T11:10:44.161Z</time></trkpt><trkpt lat="43.0288542" lon="13.1775461"><ele>749.0</ele><time>2026-05-03T11:10:46.158Z</time></trkpt><trkpt lat="43.0288664" lon="13.1773932"><ele>749.0</ele><time>2026-05-03T11:10:48.158Z</time></trkpt><trkpt lat="43.028872" lon="13.1772459"><ele>749.0</ele><time>2026-05-03T11:10:50.157Z</time></trkpt><trkpt lat="43.0288733" lon="13.177107"><ele>749.0</ele><time>2026-05-03T11:10:52.156Z</time></trkpt><trkpt lat="43.0288867" lon="13.1769685"><ele>749.0</ele><time>2026-05-03T11:10:54.158Z</time></trkpt><trkpt lat="43.028889" lon="13.176843"><ele>746.3333333333333</ele><time>2026-05-03T11:10:56.158Z</time></trkpt><trkpt lat="43.02891" lon="13.1767167"><ele>743.6666666666666</ele><time>2026-05-03T11:10:58.158Z</time></trkpt><trkpt lat="43.0289474" lon="13.176627"><ele>741.0</ele><time>2026-05-03T11:11:00.158Z</time></trkpt><trkpt lat="43.0289877" lon="13.176519"><ele>738.3333333333334</ele><time>2026-05-03T11:11:02.157Z</time></trkpt><trkpt lat="43.0290484" lon="13.1764223"><ele>735.6666666666667</ele><time>2026-05-03T11:11:04.156Z</time></trkpt><trkpt lat="43.0291137" lon="13.1763376"><ele>733.0</ele><time>2026-05-03T11:11:06.156Z</time></trkpt><trkpt lat="43.029184" lon="13.1762274"><ele>733.0</ele><time>2026-05-03T11:11:08.156Z</time></trkpt><trkpt lat="43.029248" lon="13.1761392"><ele>733.0</ele><time>2026-05-03T11:11:10.156Z</time></trkpt><trkpt lat="43.0293151" lon="13.1760468"><ele>733.0</ele><time>2026-05-03T11:11:12.159Z</time></trkpt><trkpt lat="43.0293818" lon="13.1759464"><ele>733.0</ele><time>2026-05-03T11:11:14.158Z</time></trkpt><trkpt lat="43.0294427" lon="13.1758526"><ele>733.0</ele><time>2026-05-03T11:11:16.158Z</time></trkpt><trkpt lat="43.0295039" lon="13.1757567"><ele>731.0</ele><time>2026-05-03T11:11:18.157Z</time></trkpt><trkpt lat="43.0295783" lon="13.175679"><ele>729.0</ele><time>2026-05-03T11:11:20.158Z</time></trkpt><trkpt lat="43.0296385" lon="13.1755892"><ele>727.0</ele><time>2026-05-03T11:11:22.158Z</time></trkpt><trkpt lat="43.0297128" lon="13.1755077"><ele>725.0</ele><time>2026-05-03T11:11:24.156Z</time></trkpt><trkpt lat="43.029795" lon="13.1754206"><ele>723.0</ele><time>2026-05-03T11:11:26.157Z</time></trkpt><trkpt lat="43.0298876" lon="13.1753547"><ele>723.0</ele><time>2026-05-03T11:11:28.156Z</time></trkpt><trkpt lat="43.0299723" lon="13.1752881"><ele>723.0</ele><time>2026-05-03T11:11:30.158Z</time></trkpt><trkpt lat="43.0300812" lon="13.1752425"><ele>723.0</ele><time>2026-05-03T11:11:32.159Z</time></trkpt><trkpt lat="43.030178" lon="13.1751758"><ele>723.0</ele><time>2026-05-03T11:11:34.159Z</time></trkpt><trkpt lat="43.0302833" lon="13.175127"><ele>723.0</ele><time>2026-05-03T11:11:36.157Z</time></trkpt><trkpt lat="43.0303737" lon="13.1750641"><ele>723.1666666666666</ele><time>2026-05-03T11:11:38.157Z</time></trkpt><trkpt lat="43.0304814" lon="13.175012"><ele>723.3333333333334</ele><time>2026-05-03T11:11:40.157Z</time></trkpt><trkpt lat="43.0305961" lon="13.1749481"><ele>723.5</ele><time>2026-05-03T11:11:42.159Z</time></trkpt><trkpt lat="43.0306534" lon="13.1749105"><ele>723.6666666666667</ele><time>2026-05-03T11:11:43.158Z</time></trkpt><trkpt lat="43.0307139" lon="13.1748772"><ele>723.8333333333334</ele><time>2026-05-03T11:11:44.159Z</time></trkpt><trkpt lat="43.0307798" lon="13.1748437"><ele>724.0</ele><time>2026-05-03T11:11:45.158Z</time></trkpt><trkpt lat="43.030841" lon="13.174799"><ele>725.0</ele><time>2026-05-03T11:11:46.157Z</time></trkpt><trkpt lat="43.0309038" lon="13.1747553"><ele>726.0</ele><time>2026-05-03T11:11:47.157Z</time></trkpt><trkpt lat="43.0309623" lon="13.1747088"><ele>727.0</ele><time>2026-05-03T11:11:48.158Z</time></trkpt><trkpt lat="43.0310244" lon="13.1746686"><ele>728.0</ele><time>2026-05-03T11:11:49.158Z</time></trkpt><trkpt lat="43.0310916" lon="13.1746285"><ele>729.0</ele><time>2026-05-03T11:11:50.157Z</time></trkpt><trkpt lat="43.0311529" lon="13.1745885"><ele>730.0</ele><time>2026-05-03T11:11:51.157Z</time></trkpt><trkpt lat="43.0312222" lon="13.1745496"><ele>731.0</ele><time>2026-05-03T11:11:52.157Z</time></trkpt><trkpt lat="43.0312921" lon="13.1745037"><ele>731.0</ele><time>2026-05-03T11:11:53.16Z</time></trkpt><trkpt lat="43.0313642" lon="13.1744681"><ele>731.0</ele><time>2026-05-03T11:11:54.159Z</time></trkpt><trkpt lat="43.0314352" lon="13.1744265"><ele>731.0</ele><time>2026-05-03T11:11:55.159Z</time></trkpt><trkpt lat="43.0315024" lon="13.1743916"><ele>731.0</ele><time>2026-05-03T11:11:56.155Z</time></trkpt><trkpt lat="43.0315763" lon="13.1743628"><ele>731.0</ele><time>2026-05-03T11:11:57.157Z</time></trkpt><trkpt lat="43.0316463" lon="13.1743442"><ele>731.0</ele><time>2026-05-03T11:11:58.156Z</time></trkpt><trkpt lat="43.0317226" lon="13.1743238"><ele>731.3333333333333</ele><time>2026-05-03T11:11:59.157Z</time></trkpt><trkpt lat="43.0317965" lon="13.1742826"><ele>731.6666666666666</ele><time>2026-05-03T11:12:00.16Z</time></trkpt><trkpt lat="43.0318695" lon="13.1742399"><ele>732.0</ele><time>2026-05-03T11:12:01.157Z</time></trkpt><trkpt lat="43.031937" lon="13.1741837"><ele>732.3333333333334</ele><time>2026-05-03T11:12:02.159Z</time></trkpt><trkpt lat="43.0319781" lon="13.1740916"><ele>732.6666666666667</ele><time>2026-05-03T11:12:03.158Z</time></trkpt><trkpt lat="43.0320209" lon="13.1739917"><ele>733.0</ele><time>2026-05-03T11:12:04.157Z</time></trkpt><trkpt lat="43.0320591" lon="13.1739005"><ele>731.1666666666667</ele><time>2026-05-03T11:12:05.158Z</time></trkpt><trkpt lat="43.0321003" lon="13.1737943"><ele>729.3333333333334</ele><time>2026-05-03T11:12:06.158Z</time></trkpt><trkpt lat="43.0321455" lon="13.1736959"><ele>727.5</ele><time>2026-05-03T11:12:07.158Z</time></trkpt><trkpt lat="43.0322003" lon="13.1735976"><ele>725.6666666666666</ele><time>2026-05-03T11:12:08.157Z</time></trkpt><trkpt lat="43.0322643" lon="13.1735251"><ele>723.8333333333333</ele><time>2026-05-03T11:12:09.157Z</time></trkpt><trkpt lat="43.0323372" lon="13.1734652"><ele>722.0</ele><time>2026-05-03T11:12:10.157Z</time></trkpt><trkpt lat="43.032409" lon="13.1734311"><ele>722.5</ele><time>2026-05-03T11:12:11.158Z</time></trkpt><trkpt lat="43.0324898" lon="13.1734172"><ele>723.0</ele><time>2026-05-03T11:12:12.156Z</time></trkpt><trkpt lat="43.0325668" lon="13.1734103"><ele>723.5</ele><time>2026-05-03T11:12:13.157Z</time></trkpt><trkpt lat="43.0326432" lon="13.1734086"><ele>724.0</ele><time>2026-05-03T11:12:14.158Z</time></trkpt><trkpt lat="43.0327133" lon="13.1734137"><ele>724.5</ele><time>2026-05-03T11:12:15.158Z</time></trkpt><trkpt lat="43.0327867" lon="13.1734197"><ele>725.0</ele><time>2026-05-03T11:12:16.157Z</time></trkpt><trkpt lat="43.0328608" lon="13.1734306"><ele>725.0</ele><time>2026-05-03T11:12:17.157Z</time></trkpt><trkpt lat="43.03293" lon="13.1734507"><ele>725.0</ele><time>2026-05-03T11:12:18.157Z</time></trkpt><trkpt lat="43.0330002" lon="13.1734697"><ele>725.0</ele><time>2026-05-03T11:12:19.158Z</time></trkpt><trkpt lat="43.0330704" lon="13.1734837"><ele>725.0</ele><time>2026-05-03T11:12:20.158Z</time></trkpt><trkpt lat="43.0331387" lon="13.1735029"><ele>725.0</ele><time>2026-05-03T11:12:21.175Z</time></trkpt><trkpt lat="43.033215" lon="13.1735399"><ele>725.0</ele><time>2026-05-03T11:12:22.159Z</time></trkpt><trkpt lat="43.0332781" lon="13.173584"><ele>725.0</ele><time>2026-05-03T11:12:23.159Z</time></trkpt><trkpt lat="43.0333349" lon="13.1736266"><ele>724.0</ele><time>2026-05-03T11:12:24.158Z</time></trkpt><trkpt lat="43.0333936" lon="13.1736854"><ele>723.0</ele><time>2026-05-03T11:12:25.157Z</time></trkpt><trkpt lat="43.0334477" lon="13.1737441"><ele>722.0</ele><time>2026-05-03T11:12:26.157Z</time></trkpt><trkpt lat="43.033506" lon="13.1738078"><ele>721.0</ele><time>2026-05-03T11:12:27.155Z</time></trkpt><trkpt lat="43.0335627" lon="13.1738763"><ele>720.0</ele><time>2026-05-03T11:12:28.155Z</time></trkpt><trkpt lat="43.0336297" lon="13.1739556"><ele>719.0</ele><time>2026-05-03T11:12:29.158Z</time></trkpt><trkpt lat="43.0336961" lon="13.1740209"><ele>722.1666666666666</ele><time>2026-05-03T11:12:30.158Z</time></trkpt><trkpt lat="43.0337639" lon="13.1740791"><ele>725.3333333333333</ele><time>2026-05-03T11:12:31.157Z</time></trkpt><trkpt lat="43.0338337" lon="13.174127"><ele>728.5</ele><time>2026-05-03T11:12:32.158Z</time></trkpt><trkpt lat="43.0338924" lon="13.1741661"><ele>731.6666666666666</ele><time>2026-05-03T11:12:33.157Z</time></trkpt><trkpt lat="43.0339591" lon="13.1742089"><ele>734.8333333333334</ele><time>2026-05-03T11:12:34.158Z</time></trkpt><trkpt lat="43.0340299" lon="13.1742607"><ele>738.0</ele><time>2026-05-03T11:12:35.157Z</time></trkpt><trkpt lat="43.0340967" lon="13.1743062"><ele>735.8333333333334</ele><time>2026-05-03T11:12:36.158Z</time></trkpt><trkpt lat="43.034164" lon="13.1743294"><ele>733.6666666666666</ele><time>2026-05-03T11:12:37.158Z</time></trkpt><trkpt lat="43.0342313" lon="13.1743565"><ele>731.5</ele><time>2026-05-03T11:12:38.157Z</time></trkpt><trkpt lat="43.0342965" lon="13.1743571"><ele>729.3333333333333</ele><time>2026-05-03T11:12:39.158Z</time></trkpt><trkpt lat="43.0344023" lon="13.1742966"><ele>727.1666666666666</ele><time>2026-05-03T11:12:41.157Z</time></trkpt><trkpt lat="43.0344576" lon="13.1742149"><ele>725.0</ele><time>2026-05-03T11:12:42.157Z</time></trkpt><trkpt lat="43.0344807" lon="13.1741219"><ele>725.0</ele><time>2026-05-03T11:12:43.158Z</time></trkpt><trkpt lat="43.0344775" lon="13.1740341"><ele>725.0</ele><time>2026-05-03T11:12:44.157Z</time></trkpt><trkpt lat="43.0344535" lon="13.1739349"><ele>725.0</ele><time>2026-05-03T11:12:45.159Z</time></trkpt><trkpt lat="43.034422" lon="13.1738378"><ele>725.0</ele><time>2026-05-03T11:12:46.157Z</time></trkpt><trkpt lat="43.0343899" lon="13.1737303"><ele>725.0</ele><time>2026-05-03T11:12:47.158Z</time></trkpt><trkpt lat="43.0343538" lon="13.1736262"><ele>725.0</ele><time>2026-05-03T11:12:48.158Z</time></trkpt><trkpt lat="43.0343208" lon="13.1735238"><ele>723.5</ele><time>2026-05-03T11:12:49.157Z</time></trkpt><trkpt lat="43.0342818" lon="13.1734071"><ele>722.0</ele><time>2026-05-03T11:12:50.16Z</time></trkpt><trkpt lat="43.0342497" lon="13.1733123"><ele>720.5</ele><time>2026-05-03T11:12:51.157Z</time></trkpt><trkpt lat="43.0342092" lon="13.1732011"><ele>719.0</ele><time>2026-05-03T11:12:52.159Z</time></trkpt><trkpt lat="43.0341721" lon="13.1730789"><ele>717.5</ele><time>2026-05-03T11:12:53.159Z</time></trkpt><trkpt lat="43.0341318" lon="13.1729667"><ele>716.0</ele><time>2026-05-03T11:12:54.157Z</time></trkpt><trkpt lat="43.0340829" lon="13.1728404"><ele>713.0</ele><time>2026-05-03T11:12:55.158Z</time></trkpt><trkpt lat="43.0340209" lon="13.1727335"><ele>710.0</ele><time>2026-05-03T11:12:56.158Z</time></trkpt><trkpt lat="43.0339657" lon="13.1726347"><ele>707.0</ele><time>2026-05-03T11:12:57.159Z</time></trkpt><trkpt lat="43.033905" lon="13.1725172"><ele>704.0</ele><time>2026-05-03T11:12:58.158Z</time></trkpt><trkpt lat="43.0338493" lon="13.1724396"><ele>701.0</ele><time>2026-05-03T11:12:59.158Z</time></trkpt><trkpt lat="43.0337839" lon="13.1723268"><ele>700.4</ele><time>2026-05-03T11:13:00.158Z</time></trkpt><trkpt lat="43.0337171" lon="13.1721992"><ele>699.8</ele><time>2026-05-03T11:13:01.158Z</time></trkpt><trkpt lat="43.0336557" lon="13.1720766"><ele>699.1999999999999</ele><time>2026-05-03T11:13:02.157Z</time></trkpt><trkpt lat="43.033603" lon="13.1719632"><ele>698.5999999999999</ele><time>2026-05-03T11:13:03.158Z</time></trkpt><trkpt lat="43.033559" lon="13.1718379"><ele>698.0</ele><time>2026-05-03T11:13:04.158Z</time></trkpt><trkpt lat="43.0335306" lon="13.1717195"><ele>698.0</ele><time>2026-05-03T11:13:05.158Z</time></trkpt><trkpt lat="43.033496" lon="13.1715891"><ele>698.0</ele><time>2026-05-03T11:13:06.157Z</time></trkpt><trkpt lat="43.033473" lon="13.1714708"><ele>698.0</ele><time>2026-05-03T11:13:07.157Z</time></trkpt><trkpt lat="43.0334447" lon="13.1713513"><ele>698.0</ele><time>2026-05-03T11:13:08.157Z</time></trkpt><trkpt lat="43.0334106" lon="13.1712273"><ele>698.0</ele><time>2026-05-03T11:13:09.158Z</time></trkpt><trkpt lat="43.03338" lon="13.1711096"><ele>698.1666666666666</ele><time>2026-05-03T11:13:10.158Z</time></trkpt><trkpt lat="43.0333464" lon="13.1710139"><ele>698.3333333333333</ele><time>2026-05-03T11:13:11.158Z</time></trkpt><trkpt lat="43.0333048" lon="13.1709157"><ele>698.5</ele><time>2026-05-03T11:13:12.157Z</time></trkpt><trkpt lat="43.0332591" lon="13.1708078"><ele>698.6666666666666</ele><time>2026-05-03T11:13:13.158Z</time></trkpt><trkpt lat="43.033208" lon="13.1707121"><ele>698.8333333333334</ele><time>2026-05-03T11:13:14.157Z</time></trkpt><trkpt lat="43.0331602" lon="13.1705987"><ele>699.0</ele><time>2026-05-03T11:13:15.158Z</time></trkpt><trkpt lat="43.0331061" lon="13.1704954"><ele>696.0</ele><time>2026-05-03T11:13:16.156Z</time></trkpt><trkpt lat="43.0330652" lon="13.1703865"><ele>693.0</ele><time>2026-05-03T11:13:17.159Z</time></trkpt><trkpt lat="43.0330124" lon="13.1702857"><ele>690.0</ele><time>2026-05-03T11:13:18.158Z</time></trkpt><trkpt lat="43.0329694" lon="13.1701783"><ele>687.0</ele><time>2026-05-03T11:13:19.157Z</time></trkpt><trkpt lat="43.0329211" lon="13.1700882"><ele>684.0</ele><time>2026-05-03T11:13:20.159Z</time></trkpt><trkpt lat="43.0328739" lon="13.1699888"><ele>681.0</ele><time>2026-05-03T11:13:21.158Z</time></trkpt><trkpt lat="43.0328377" lon="13.1698728"><ele>679.3333333333334</ele><time>2026-05-03T11:13:22.158Z</time></trkpt><trkpt lat="43.0328282" lon="13.1697552"><ele>677.6666666666666</ele><time>2026-05-03T11:13:23.158Z</time></trkpt><trkpt lat="43.0328529" lon="13.1696413"><ele>676.0</ele><time>2026-05-03T11:13:24.158Z</time></trkpt><trkpt lat="43.0329111" lon="13.1695477"><ele>674.3333333333333</ele><time>2026-05-03T11:13:25.159Z</time></trkpt><trkpt lat="43.032989" lon="13.1694774"><ele>672.6666666666666</ele><time>2026-05-03T11:13:26.158Z</time></trkpt><trkpt lat="43.0330691" lon="13.1694186"><ele>671.0</ele><time>2026-05-03T11:13:27.155Z</time></trkpt><trkpt lat="43.0331478" lon="13.1693672"><ele>671.0</ele><time>2026-05-03T11:13:28.155Z</time></trkpt><trkpt lat="43.0332203" lon="13.1693055"><ele>671.0</ele><time>2026-05-03T11:13:29.157Z</time></trkpt><trkpt lat="43.0332949" lon="13.1692473"><ele>671.0</ele><time>2026-05-03T11:13:30.158Z</time></trkpt><trkpt lat="43.0333699" lon="13.1691901"><ele>671.0</ele><time>2026-05-03T11:13:31.158Z</time></trkpt><trkpt lat="43.033446" lon="13.1691288"><ele>671.0</ele><time>2026-05-03T11:13:32.155Z</time></trkpt><trkpt lat="43.0335197" lon="13.1690839"><ele>671.0</ele><time>2026-05-03T11:13:33.158Z</time></trkpt><trkpt lat="43.0335942" lon="13.1690251"><ele>669.7142857142857</ele><time>2026-05-03T11:13:34.16Z</time></trkpt><trkpt lat="43.0336641" lon="13.1689631"><ele>668.4285714285714</ele><time>2026-05-03T11:13:35.157Z</time></trkpt><trkpt lat="43.0337235" lon="13.1689143"><ele>667.1428571428571</ele><time>2026-05-03T11:13:36.158Z</time></trkpt><trkpt lat="43.0337862" lon="13.1688723"><ele>665.8571428571429</ele><time>2026-05-03T11:13:37.157Z</time></trkpt><trkpt lat="43.0338492" lon="13.1688231"><ele>664.5714285714286</ele><time>2026-05-03T11:13:38.159Z</time></trkpt><trkpt lat="43.033916" lon="13.1687713"><ele>663.2857142857143</ele><time>2026-05-03T11:13:39.157Z</time></trkpt><trkpt lat="43.0339825" lon="13.1687162"><ele>662.0</ele><time>2026-05-03T11:13:40.157Z</time></trkpt><trkpt lat="43.0340515" lon="13.1686647"><ele>662.0</ele><time>2026-05-03T11:13:41.158Z</time></trkpt><trkpt lat="43.0341179" lon="13.1686103"><ele>662.0</ele><time>2026-05-03T11:13:42.158Z</time></trkpt><trkpt lat="43.0341833" lon="13.1685725"><ele>662.0</ele><time>2026-05-03T11:13:43.157Z</time></trkpt><trkpt lat="43.0342542" lon="13.1685255"><ele>662.0</ele><time>2026-05-03T11:13:44.158Z</time></trkpt><trkpt lat="43.0343113" lon="13.1684857"><ele>662.0</ele><time>2026-05-03T11:13:45.158Z</time></trkpt><trkpt lat="43.0343731" lon="13.1684447"><ele>662.0</ele><time>2026-05-03T11:13:46.158Z</time></trkpt><trkpt lat="43.034438" lon="13.168395"><ele>662.0</ele><time>2026-05-03T11:13:47.157Z</time></trkpt><trkpt lat="43.0345052" lon="13.1683404"><ele>660.6666666666666</ele><time>2026-05-03T11:13:48.157Z</time></trkpt><trkpt lat="43.0345719" lon="13.1682913"><ele>659.3333333333333</ele><time>2026-05-03T11:13:49.157Z</time></trkpt><trkpt lat="43.0346414" lon="13.1682331"><ele>658.0</ele><time>2026-05-03T11:13:50.157Z</time></trkpt><trkpt lat="43.0347086" lon="13.1681743"><ele>656.6666666666666</ele><time>2026-05-03T11:13:51.158Z</time></trkpt><trkpt lat="43.0347801" lon="13.1681094"><ele>655.3333333333334</ele><time>2026-05-03T11:13:52.158Z</time></trkpt><trkpt lat="43.0348506" lon="13.1680589"><ele>654.0</ele><time>2026-05-03T11:13:53.157Z</time></trkpt><trkpt lat="43.0349237" lon="13.1680011"><ele>656.3333333333334</ele><time>2026-05-03T11:13:54.158Z</time></trkpt><trkpt lat="43.0349999" lon="13.1679377"><ele>658.6666666666666</ele><time>2026-05-03T11:13:55.159Z</time></trkpt><trkpt lat="43.0350757" lon="13.1678691"><ele>661.0</ele><time>2026-05-03T11:13:56.16Z</time></trkpt><trkpt lat="43.0351496" lon="13.1678035"><ele>663.3333333333333</ele><time>2026-05-03T11:13:57.159Z</time></trkpt><trkpt lat="43.0352248" lon="13.1677365"><ele>665.6666666666666</ele><time>2026-05-03T11:13:58.157Z</time></trkpt><trkpt lat="43.0352999" lon="13.1676744"><ele>668.0</ele><time>2026-05-03T11:13:59.158Z</time></trkpt><trkpt lat="43.0353756" lon="13.1676088"><ele>668.0</ele><time>2026-05-03T11:14:00.157Z</time></trkpt><trkpt lat="43.0354507" lon="13.1675402"><ele>668.0</ele><time>2026-05-03T11:14:01.158Z</time></trkpt><trkpt lat="43.0355255" lon="13.1674844"><ele>668.0</ele><time>2026-05-03T11:14:02.158Z</time></trkpt><trkpt lat="43.0356018" lon="13.1674141"><ele>668.0</ele><time>2026-05-03T11:14:03.158Z</time></trkpt><trkpt lat="43.0356786" lon="13.1673544"><ele>668.0</ele><time>2026-05-03T11:14:04.157Z</time></trkpt><trkpt lat="43.0357551" lon="13.1672901"><ele>668.0</ele><time>2026-05-03T11:14:05.157Z</time></trkpt><trkpt lat="43.03583" lon="13.1672318"><ele>666.3333333333333</ele><time>2026-05-03T11:14:06.158Z</time></trkpt><trkpt lat="43.0359042" lon="13.1671724"><ele>664.6666666666666</ele><time>2026-05-03T11:14:07.158Z</time></trkpt><trkpt lat="43.0359815" lon="13.167118"><ele>663.0</ele><time>2026-05-03T11:14:08.157Z</time></trkpt><trkpt lat="43.0360596" lon="13.1670654"><ele>661.3333333333334</ele><time>2026-05-03T11:14:09.158Z</time></trkpt><trkpt lat="43.0361321" lon="13.1670192"><ele>659.6666666666667</ele><time>2026-05-03T11:14:10.158Z</time></trkpt><trkpt lat="43.0362184" lon="13.1669792"><ele>658.0</ele><time>2026-05-03T11:14:11.157Z</time></trkpt><trkpt lat="43.0362998" lon="13.1669403"><ele>658.0</ele><time>2026-05-03T11:14:12.157Z</time></trkpt><trkpt lat="43.0363825" lon="13.1669026"><ele>658.0</ele><time>2026-05-03T11:14:13.158Z</time></trkpt><trkpt lat="43.0364666" lon="13.1668657"><ele>658.0</ele><time>2026-05-03T11:14:14.158Z</time></trkpt><trkpt lat="43.0365493" lon="13.1668303"><ele>658.0</ele><time>2026-05-03T11:14:15.158Z</time></trkpt><trkpt lat="43.0366334" lon="13.1667867"><ele>658.0</ele><time>2026-05-03T11:14:16.16Z</time></trkpt><trkpt lat="43.0367104" lon="13.1667414"><ele>658.0</ele><time>2026-05-03T11:14:17.159Z</time></trkpt><trkpt lat="43.0367991" lon="13.1666939"><ele>659.0</ele><time>2026-05-03T11:14:18.157Z</time></trkpt><trkpt lat="43.0368853" lon="13.1666344"><ele>660.0</ele><time>2026-05-03T11:14:19.158Z</time></trkpt><trkpt lat="43.036961" lon="13.1665619"><ele>661.0</ele><time>2026-05-03T11:14:20.156Z</time></trkpt><trkpt lat="43.0370466" lon="13.1664849"><ele>662.0</ele><time>2026-05-03T11:14:21.158Z</time></trkpt><trkpt lat="43.0371337" lon="13.1664195"><ele>663.0</ele><time>2026-05-03T11:14:22.158Z</time></trkpt><trkpt lat="43.0372255" lon="13.1663591"><ele>661.0</ele><time>2026-05-03T11:14:23.158Z</time></trkpt><trkpt lat="43.0373153" lon="13.1662937"><ele>659.0</ele><time>2026-05-03T11:14:24.158Z</time></trkpt><trkpt lat="43.0374046" lon="13.1662332"><ele>657.0</ele><time>2026-05-03T11:14:25.158Z</time></trkpt><trkpt lat="43.0374871" lon="13.1661818"><ele>655.0</ele><time>2026-05-03T11:14:26.158Z</time></trkpt><trkpt lat="43.0375701" lon="13.1661392"><ele>653.0</ele><time>2026-05-03T11:14:27.156Z</time></trkpt><trkpt lat="43.0376594" lon="13.1660896"><ele>653.0</ele><time>2026-05-03T11:14:28.156Z</time></trkpt><trkpt lat="43.0377435" lon="13.1660414"><ele>653.0</ele><time>2026-05-03T11:14:29.159Z</time></trkpt><trkpt lat="43.0378229" lon="13.165996"><ele>653.0</ele><time>2026-05-03T11:14:30.157Z</time></trkpt><trkpt lat="43.0379039" lon="13.1659585"><ele>653.0</ele><time>2026-05-03T11:14:31.158Z</time></trkpt><trkpt lat="43.0379859" lon="13.1659278"><ele>653.0</ele><time>2026-05-03T11:14:32.158Z</time></trkpt><trkpt lat="43.0380653" lon="13.1658972"><ele>653.0</ele><time>2026-05-03T11:14:33.159Z</time></trkpt><trkpt lat="43.0381482" lon="13.1658735"><ele>653.0</ele><time>2026-05-03T11:14:34.158Z</time></trkpt><trkpt lat="43.0382276" lon="13.1658456"><ele>653.0</ele><time>2026-05-03T11:14:35.158Z</time></trkpt><trkpt lat="43.0383044" lon="13.1658141"><ele>653.0</ele><time>2026-05-03T11:14:36.158Z</time></trkpt><trkpt lat="43.038379" lon="13.1657795"><ele>653.0</ele><time>2026-05-03T11:14:37.157Z</time></trkpt><trkpt lat="43.0384508" lon="13.1657523"><ele>653.0</ele><time>2026-05-03T11:14:38.159Z</time></trkpt><trkpt lat="43.0385263" lon="13.1657251"><ele>653.0</ele><time>2026-05-03T11:14:39.158Z</time></trkpt><trkpt lat="43.0385961" lon="13.1656946"><ele>651.5714285714287</ele><time>2026-05-03T11:14:40.157Z</time></trkpt><trkpt lat="43.0386643" lon="13.1656663"><ele>650.1428571428571</ele><time>2026-05-03T11:14:41.158Z</time></trkpt><trkpt lat="43.0387293" lon="13.165645"><ele>648.7142857142858</ele><time>2026-05-03T11:14:42.158Z</time></trkpt><trkpt lat="43.0388004" lon="13.1656127"><ele>647.2857142857143</ele><time>2026-05-03T11:14:43.158Z</time></trkpt><trkpt lat="43.0388736" lon="13.1655964"><ele>645.8571428571429</ele><time>2026-05-03T11:14:44.158Z</time></trkpt><trkpt lat="43.0389444" lon="13.165586"><ele>644.4285714285714</ele><time>2026-05-03T11:14:45.156Z</time></trkpt><trkpt lat="43.0390179" lon="13.1655923"><ele>643.0</ele><time>2026-05-03T11:14:46.159Z</time></trkpt><trkpt lat="43.0390804" lon="13.165576"><ele>644.1666666666667</ele><time>2026-05-03T11:14:47.159Z</time></trkpt><trkpt lat="43.0391507" lon="13.1655685"><ele>645.3333333333334</ele><time>2026-05-03T11:14:48.158Z</time></trkpt><trkpt lat="43.0392142" lon="13.1655591"><ele>646.5</ele><time>2026-05-03T11:14:49.159Z</time></trkpt><trkpt lat="43.0393299" lon="13.1655555"><ele>647.6666666666666</ele><time>2026-05-03T11:14:51.157Z</time></trkpt><trkpt lat="43.039452" lon="13.1655524"><ele>648.8333333333333</ele><time>2026-05-03T11:14:53.157Z</time></trkpt><trkpt lat="43.0395168" lon="13.1655397"><ele>650.0</ele><time>2026-05-03T11:14:54.159Z</time></trkpt><trkpt lat="43.0395858" lon="13.1655309"><ele>650.0</ele><time>2026-05-03T11:14:55.158Z</time></trkpt><trkpt lat="43.039696" lon="13.165515"><ele>650.0</ele><time>2026-05-03T11:14:57.157Z</time></trkpt><trkpt lat="43.0397863" lon="13.1654843"><ele>650.0</ele><time>2026-05-03T11:14:59.158Z</time></trkpt><trkpt lat="43.0398713" lon="13.1654864"><ele>650.0</ele><time>2026-05-03T11:15:01.159Z</time></trkpt><trkpt lat="43.0399431" lon="13.1654722"><ele>650.0</ele><time>2026-05-03T11:15:03.159Z</time></trkpt><trkpt lat="43.0400274" lon="13.1654082"><ele>649.4285714285714</ele><time>2026-05-03T11:15:06.155Z</time></trkpt><trkpt lat="43.040088" lon="13.1653509"><ele>648.8571428571429</ele><time>2026-05-03T11:15:09.158Z</time></trkpt><trkpt lat="43.0401549" lon="13.1653578"><ele>648.2857142857143</ele><time>2026-05-03T11:15:13.158Z</time></trkpt><trkpt lat="43.0402413" lon="13.1653708"><ele>647.7142857142858</ele><time>2026-05-03T11:15:17.159Z</time></trkpt><trkpt lat="43.0403071" lon="13.1653294"><ele>647.1428571428571</ele><time>2026-05-03T11:15:19.159Z</time></trkpt><trkpt lat="43.0403615" lon="13.1652568"><ele>646.5714285714287</ele><time>2026-05-03T11:15:33.161Z</time></trkpt><trkpt lat="43.0404139" lon="13.1652088"><ele>646.0</ele><time>2026-05-03T11:15:37.158Z</time></trkpt><trkpt lat="43.0403323" lon="13.1651757"><ele>646.0000000000001</ele><time>2026-05-03T11:15:41.157Z</time></trkpt><trkpt lat="43.0402674" lon="13.1652457"><ele>646.0</ele><time>2026-05-03T11:15:44.159Z</time></trkpt><trkpt lat="43.0402167" lon="13.1653018"><ele>646.0</ele><time>2026-05-03T11:15:46.155Z</time></trkpt><trkpt lat="43.0401861" lon="13.1654078"><ele>646.0</ele><time>2026-05-03T11:15:49.156Z</time></trkpt><trkpt lat="43.0401869" lon="13.1654972"><ele>646.0</ele><time>2026-05-03T11:15:51.16Z</time></trkpt><trkpt lat="43.0401988" lon="13.1655972"><ele>646.0000000000001</ele><time>2026-05-03T11:15:53.155Z</time></trkpt><trkpt lat="43.0402553" lon="13.1656352"><ele>646.0</ele><time>2026-05-03T11:15:55.155Z</time></trkpt><trkpt lat="43.0403284" lon="13.1656045"><ele>646.0</ele><time>2026-05-03T11:15:57.158Z</time></trkpt><trkpt lat="43.0403964" lon="13.1655964"><ele>646.0</ele><time>2026-05-03T11:16:00.16Z</time></trkpt><trkpt lat="43.0404444" lon="13.1657112"><ele>646.0</ele><time>2026-05-03T11:16:03.16Z</time></trkpt><trkpt lat="43.0404798" lon="13.1657958"><ele>646.0</ele><time>2026-05-03T11:16:05.159Z</time></trkpt><trkpt lat="43.0405334" lon="13.165853"><ele>646.0</ele><time>2026-05-03T11:16:07.16Z</time></trkpt><trkpt lat="43.0406049" lon="13.1658273"><ele>646.0</ele><time>2026-05-03T11:16:10.155Z</time></trkpt><trkpt lat="43.0406785" lon="13.1657689"><ele>646.0</ele><time>2026-05-03T11:16:13.158Z</time></trkpt><trkpt lat="43.0407872" lon="13.1656942"><ele>646.0</ele><time>2026-05-03T11:16:16.158Z</time></trkpt><trkpt lat="43.0408713" lon="13.165616"><ele>646.0</ele><time>2026-05-03T11:16:18.158Z</time></trkpt><trkpt lat="43.0409349" lon="13.165545"><ele>646.0</ele><time>2026-05-03T11:16:20.158Z</time></trkpt><trkpt lat="43.0410053" lon="13.1654664"><ele>646.0</ele><time>2026-05-03T11:16:22.156Z</time></trkpt><trkpt lat="43.0410598" lon="13.1654064"><ele>644.8571428571429</ele><time>2026-05-03T11:16:24.159Z</time></trkpt><trkpt lat="43.0411171" lon="13.165353"><ele>643.7142857142858</ele><time>2026-05-03T11:16:26.155Z</time></trkpt><trkpt lat="43.0411734" lon="13.1652916"><ele>642.5714285714287</ele><time>2026-05-03T11:16:28.155Z</time></trkpt><trkpt lat="43.0412306" lon="13.1652315"><ele>641.4285714285714</ele><time>2026-05-03T11:16:30.156Z</time></trkpt><trkpt lat="43.0412877" lon="13.165189"><ele>640.2857142857142</ele><time>2026-05-03T11:16:32.159Z</time></trkpt><trkpt lat="43.0413569" lon="13.1652014"><ele>639.1428571428572</ele><time>2026-05-03T11:16:35.159Z</time></trkpt><trkpt lat="43.0414325" lon="13.1652368"><ele>638.0</ele><time>2026-05-03T11:16:44.156Z</time></trkpt><trkpt lat="43.0415093" lon="13.1652611"><ele>638.0</ele><time>2026-05-03T11:16:46.158Z</time></trkpt><trkpt lat="43.0415936" lon="13.165337"><ele>638.0</ele><time>2026-05-03T11:16:49.159Z</time></trkpt><trkpt lat="43.0416512" lon="13.1654441"><ele>638.0</ele><time>2026-05-03T11:16:51.158Z</time></trkpt><trkpt lat="43.041694" lon="13.1655447"><ele>638.0</ele><time>2026-05-03T11:16:53.157Z</time></trkpt><trkpt lat="43.0417458" lon="13.1656296"><ele>638.0</ele><time>2026-05-03T11:16:55.158Z</time></trkpt><trkpt lat="43.0418225" lon="13.1656333"><ele>638.0</ele><time>2026-05-03T11:16:57.159Z</time></trkpt><trkpt lat="43.0419045" lon="13.1656349"><ele>638.0</ele><time>2026-05-03T11:16:59.157Z</time></trkpt><trkpt lat="43.0419946" lon="13.1656274"><ele>638.0</ele><time>2026-05-03T11:17:01.157Z</time></trkpt><trkpt lat="43.0420781" lon="13.1656128"><ele>638.0</ele><time>2026-05-03T11:17:03.158Z</time></trkpt><trkpt lat="43.0421778" lon="13.1656055"><ele>638.0</ele><time>2026-05-03T11:17:05.158Z</time></trkpt><trkpt lat="43.0422716" lon="13.1656064"><ele>638.0</ele><time>2026-05-03T11:17:07.158Z</time></trkpt><trkpt lat="43.0423651" lon="13.1656117"><ele>638.0</ele><time>2026-05-03T11:17:09.159Z</time></trkpt><trkpt lat="43.0424577" lon="13.165608"><ele>638.0</ele><time>2026-05-03T11:17:11.158Z</time></trkpt><trkpt lat="43.0425518" lon="13.1656016"><ele>638.0</ele><time>2026-05-03T11:17:13.157Z</time></trkpt><trkpt lat="43.0426455" lon="13.1656051"><ele>638.0</ele><time>2026-05-03T11:17:15.158Z</time></trkpt><trkpt lat="43.0427383" lon="13.1656136"><ele>638.0</ele><time>2026-05-03T11:17:17.157Z</time></trkpt><trkpt lat="43.042823" lon="13.165629"><ele>637.1999999999999</ele><time>2026-05-03T11:17:19.159Z</time></trkpt><trkpt lat="43.0429211" lon="13.1656428"><ele>636.4</ele><time>2026-05-03T11:17:21.159Z</time></trkpt><trkpt lat="43.0430045" lon="13.1656451"><ele>635.5999999999999</ele><time>2026-05-03T11:17:23.157Z</time></trkpt><trkpt lat="43.0431073" lon="13.1656686"><ele>634.8</ele><time>2026-05-03T11:17:25.158Z</time></trkpt><trkpt lat="43.0431955" lon="13.1656876"><ele>634.0</ele><time>2026-05-03T11:17:27.159Z</time></trkpt><trkpt lat="43.0432811" lon="13.1657085"><ele>636.0</ele><time>2026-05-03T11:17:29.155Z</time></trkpt><trkpt lat="43.043375" lon="13.1657449"><ele>638.0</ele><time>2026-05-03T11:17:31.159Z</time></trkpt><trkpt lat="43.043465" lon="13.1658036"><ele>640.0</ele><time>2026-05-03T11:17:33.158Z</time></trkpt><trkpt lat="43.0435491" lon="13.1658463"><ele>642.0</ele><time>2026-05-03T11:17:35.158Z</time></trkpt><trkpt lat="43.0436361" lon="13.1658916"><ele>644.0</ele><time>2026-05-03T11:17:37.156Z</time></trkpt><trkpt lat="43.0437247" lon="13.1659323"><ele>644.0</ele><time>2026-05-03T11:17:39.158Z</time></trkpt><trkpt lat="43.0438191" lon="13.1660301"><ele>644.0</ele><time>2026-05-03T11:17:41.157Z</time></trkpt><trkpt lat="43.0438963" lon="13.1660917"><ele>644.0</ele><time>2026-05-03T11:17:43.159Z</time></trkpt><trkpt lat="43.0439588" lon="13.1661949"><ele>644.0</ele><time>2026-05-03T11:17:45.155Z</time></trkpt><trkpt lat="43.0440357" lon="13.1662826"><ele>644.0</ele><time>2026-05-03T11:17:47.155Z</time></trkpt><trkpt lat="43.0441166" lon="13.1663671"><ele>644.6</ele><time>2026-05-03T11:17:49.155Z</time></trkpt><trkpt lat="43.0441897" lon="13.1664482"><ele>645.2</ele><time>2026-05-03T11:17:51.159Z</time></trkpt><trkpt lat="43.0442735" lon="13.1665304"><ele>645.8000000000001</ele><time>2026-05-03T11:17:53.158Z</time></trkpt><trkpt lat="43.0443476" lon="13.1666146"><ele>646.4000000000001</ele><time>2026-05-03T11:17:55.158Z</time></trkpt><trkpt lat="43.0444134" lon="13.1667301"><ele>647.0</ele><time>2026-05-03T11:17:57.157Z</time></trkpt><trkpt lat="43.0444729" lon="13.1668543"><ele>647.0</ele><time>2026-05-03T11:17:59.158Z</time></trkpt><trkpt lat="43.0445326" lon="13.1669521"><ele>647.0</ele><time>2026-05-03T11:18:01.159Z</time></trkpt><trkpt lat="43.0446036" lon="13.1670571"><ele>647.0</ele><time>2026-05-03T11:18:03.157Z</time></trkpt><trkpt lat="43.0446749" lon="13.1671504"><ele>647.0</ele><time>2026-05-03T11:18:05.158Z</time></trkpt><trkpt lat="43.0447521" lon="13.1672508"><ele>647.0</ele><time>2026-05-03T11:18:07.157Z</time></trkpt><trkpt lat="43.0448053" lon="13.1673347"><ele>646.0</ele><time>2026-05-03T11:18:09.155Z</time></trkpt><trkpt lat="43.0448489" lon="13.1674025"><ele>645.0</ele><time>2026-05-03T11:18:11.158Z</time></trkpt><trkpt lat="43.0449065" lon="13.1674552"><ele>644.0</ele><time>2026-05-03T11:18:13.159Z</time></trkpt><trkpt lat="43.0449862" lon="13.1675231"><ele>643.0</ele><time>2026-05-03T11:18:15.159Z</time></trkpt><trkpt lat="43.0450443" lon="13.1676023"><ele>642.0</ele><time>2026-05-03T11:18:17.156Z</time></trkpt><trkpt lat="43.0450906" lon="13.1677158"><ele>641.0</ele><time>2026-05-03T11:18:19.156Z</time></trkpt><trkpt lat="43.0451314" lon="13.1678228"><ele>641.0</ele><time>2026-05-03T11:18:21.158Z</time></trkpt><trkpt lat="43.0451603" lon="13.167954"><ele>641.0</ele><time>2026-05-03T11:18:23.158Z</time></trkpt><trkpt lat="43.0451412" lon="13.1680915"><ele>641.0</ele><time>2026-05-03T11:18:25.158Z</time></trkpt><trkpt lat="43.0451168" lon="13.168215"><ele>641.0</ele><time>2026-05-03T11:18:27.159Z</time></trkpt><trkpt lat="43.0450452" lon="13.1683259"><ele>641.0</ele><time>2026-05-03T11:18:29.159Z</time></trkpt><trkpt lat="43.0449716" lon="13.168408"><ele>642.8</ele><time>2026-05-03T11:18:31.159Z</time></trkpt><trkpt lat="43.0448823" lon="13.1684806"><ele>644.5999999999999</ele><time>2026-05-03T11:18:33.158Z</time></trkpt><trkpt lat="43.0447967" lon="13.1685755"><ele>646.4</ele><time>2026-05-03T11:18:35.158Z</time></trkpt><trkpt lat="43.0447386" lon="13.1686162"><ele>648.2</ele><time>2026-05-03T11:18:36.157Z</time></trkpt><trkpt lat="43.0446594" lon="13.168722"><ele>650.0</ele><time>2026-05-03T11:18:38.157Z</time></trkpt><trkpt lat="43.0446228" lon="13.1688527"><ele>650.0</ele><time>2026-05-03T11:18:40.159Z</time></trkpt><trkpt lat="43.0446326" lon="13.1690064"><ele>650.0</ele><time>2026-05-03T11:18:42.159Z</time></trkpt><trkpt lat="43.0446763" lon="13.169144"><ele>650.0</ele><time>2026-05-03T11:18:44.157Z</time></trkpt><trkpt lat="43.0447733" lon="13.1692034"><ele>650.0</ele><time>2026-05-03T11:18:46.158Z</time></trkpt><trkpt lat="43.0448612" lon="13.1692701"><ele>650.0</ele><time>2026-05-03T11:18:48.157Z</time></trkpt><trkpt lat="43.0449458" lon="13.1693383"><ele>648.6666666666666</ele><time>2026-05-03T11:18:50.157Z</time></trkpt><trkpt lat="43.0449959" lon="13.1693962"><ele>647.3333333333333</ele><time>2026-05-03T11:18:51.158Z</time></trkpt><trkpt lat="43.0450812" lon="13.1694583"><ele>646.0</ele><time>2026-05-03T11:18:53.157Z</time></trkpt><trkpt lat="43.0451858" lon="13.1694891"><ele>644.6666666666666</ele><time>2026-05-03T11:18:56.158Z</time></trkpt><trkpt lat="43.0452554" lon="13.1694983"><ele>643.3333333333334</ele><time>2026-05-03T11:18:58.158Z</time></trkpt><trkpt lat="43.0453552" lon="13.1695126"><ele>642.0</ele><time>2026-05-03T11:19:00.159Z</time></trkpt><trkpt lat="43.0454542" lon="13.1695049"><ele>642.0</ele><time>2026-05-03T11:19:02.158Z</time></trkpt><trkpt lat="43.0455349" lon="13.169452"><ele>642.0</ele><time>2026-05-03T11:19:04.158Z</time></trkpt><trkpt lat="43.0455944" lon="13.1693487"><ele>642.0</ele><time>2026-05-03T11:19:06.158Z</time></trkpt><trkpt lat="43.0456299" lon="13.1692329"><ele>642.0</ele><time>2026-05-03T11:19:08.155Z</time></trkpt><trkpt lat="43.045659" lon="13.1691367"><ele>642.0</ele><time>2026-05-03T11:19:10.156Z</time></trkpt><trkpt lat="43.0456878" lon="13.1690256"><ele>642.0</ele><time>2026-05-03T11:19:12.158Z</time></trkpt><trkpt lat="43.0457361" lon="13.1689316"><ele>641.8333333333334</ele><time>2026-05-03T11:19:14.158Z</time></trkpt><trkpt lat="43.0457776" lon="13.1688319"><ele>641.6666666666666</ele><time>2026-05-03T11:19:16.156Z</time></trkpt><trkpt lat="43.0458134" lon="13.1687071"><ele>641.5</ele><time>2026-05-03T11:19:19.159Z</time></trkpt><trkpt lat="43.0458542" lon="13.168611"><ele>641.3333333333333</ele><time>2026-05-03T11:19:21.158Z</time></trkpt><trkpt lat="43.0459072" lon="13.1685458"><ele>641.1666666666666</ele><time>2026-05-03T11:19:23.159Z</time></trkpt><trkpt lat="43.045984" lon="13.1685036"><ele>641.0</ele><time>2026-05-03T11:19:25.158Z</time></trkpt><trkpt lat="43.0460672" lon="13.1684848"><ele>640.4</ele><time>2026-05-03T11:19:27.158Z</time></trkpt><trkpt lat="43.0461663" lon="13.1685551"><ele>639.8</ele><time>2026-05-03T11:19:29.158Z</time></trkpt><trkpt lat="43.046229" lon="13.1686418"><ele>639.1999999999999</ele><time>2026-05-03T11:19:31.157Z</time></trkpt><trkpt lat="43.0462834" lon="13.1687152"><ele>638.5999999999999</ele><time>2026-05-03T11:19:33.156Z</time></trkpt><trkpt lat="43.0463276" lon="13.1687951"><ele>638.0</ele><time>2026-05-03T11:19:34.157Z</time></trkpt><trkpt lat="43.0464011" lon="13.1688892"><ele>638.0</ele><time>2026-05-03T11:19:36.158Z</time></trkpt><trkpt lat="43.0464512" lon="13.1689542"><ele>638.0</ele><time>2026-05-03T11:19:38.16Z</time></trkpt><trkpt lat="43.0464837" lon="13.1690657"><ele>638.0</ele><time>2026-05-03T11:19:40.156Z</time></trkpt><trkpt lat="43.0465235" lon="13.1691713"><ele>638.0</ele><time>2026-05-03T11:19:42.156Z</time></trkpt><trkpt lat="43.0465708" lon="13.1692743"><ele>638.0</ele><time>2026-05-03T11:19:44.159Z</time></trkpt><trkpt lat="43.0466365" lon="13.1693741"><ele>638.0</ele><time>2026-05-03T11:19:46.16Z</time></trkpt><trkpt lat="43.0467195" lon="13.1694728"><ele>639.0</ele><time>2026-05-03T11:19:48.158Z</time></trkpt><trkpt lat="43.0468153" lon="13.169543"><ele>640.0</ele><time>2026-05-03T11:19:50.158Z</time></trkpt><trkpt lat="43.0469114" lon="13.1695897"><ele>641.0</ele><time>2026-05-03T11:19:52.159Z</time></trkpt><trkpt lat="43.0470064" lon="13.1696387"><ele>642.0</ele><time>2026-05-03T11:19:54.157Z</time></trkpt><trkpt lat="43.047087" lon="13.1696724"><ele>643.0</ele><time>2026-05-03T11:19:56.155Z</time></trkpt><trkpt lat="43.0471575" lon="13.169722"><ele>643.0</ele><time>2026-05-03T11:19:58.159Z</time></trkpt><trkpt lat="43.0471646" lon="13.1698159"><ele>643.0</ele><time>2026-05-03T11:20:01.158Z</time></trkpt><trkpt lat="43.047128" lon="13.1699227"><ele>643.0</ele><time>2026-05-03T11:20:03.156Z</time></trkpt><trkpt lat="43.0471012" lon="13.1700095"><ele>643.0</ele><time>2026-05-03T11:20:05.155Z</time></trkpt><trkpt lat="43.0471026" lon="13.170106"><ele>643.0</ele><time>2026-05-03T11:20:07.158Z</time></trkpt><trkpt lat="43.0471088" lon="13.1702184"><ele>643.0</ele><time>2026-05-03T11:20:10.156Z</time></trkpt><trkpt lat="43.0471602" lon="13.1703075"><ele>642.4</ele><time>2026-05-03T11:20:12.156Z</time></trkpt><trkpt lat="43.047206" lon="13.1704052"><ele>641.8</ele><time>2026-05-03T11:20:14.156Z</time></trkpt><trkpt lat="43.0473025" lon="13.1704661"><ele>641.2</ele><time>2026-05-03T11:20:16.158Z</time></trkpt><trkpt lat="43.0474069" lon="13.1704739"><ele>640.6</ele><time>2026-05-03T11:20:18.158Z</time></trkpt><trkpt lat="43.047517" lon="13.1704617"><ele>640.0</ele><time>2026-05-03T11:20:20.158Z</time></trkpt><trkpt lat="43.0476041" lon="13.1704667"><ele>640.0</ele><time>2026-05-03T11:20:22.158Z</time></trkpt><trkpt lat="43.0476939" lon="13.1704788"><ele>640.0</ele><time>2026-05-03T11:20:24.159Z</time></trkpt><trkpt lat="43.0477906" lon="13.1704826"><ele>640.0</ele><time>2026-05-03T11:20:26.158Z</time></trkpt><trkpt lat="43.047872" lon="13.1705104"><ele>640.0</ele><time>2026-05-03T11:20:28.156Z</time></trkpt><trkpt lat="43.047943" lon="13.1705378"><ele>640.0</ele><time>2026-05-03T11:20:30.159Z</time></trkpt><trkpt lat="43.0480148" lon="13.1705353"><ele>640.0</ele><time>2026-05-03T11:20:32.158Z</time></trkpt><trkpt lat="43.0480764" lon="13.1706121"><ele>640.5</ele><time>2026-05-03T11:20:34.155Z</time></trkpt><trkpt lat="43.0481149" lon="13.1707025"><ele>641.0</ele><time>2026-05-03T11:20:36.155Z</time></trkpt><trkpt lat="43.0481379" lon="13.1707946"><ele>641.5</ele><time>2026-05-03T11:20:38.159Z</time></trkpt><trkpt lat="43.0481708" lon="13.1708865"><ele>642.0</ele><time>2026-05-03T11:20:40.157Z</time></trkpt><trkpt lat="43.048205" lon="13.1709752"><ele>642.5</ele><time>2026-05-03T11:20:42.158Z</time></trkpt><trkpt lat="43.0482527" lon="13.1710478"><ele>643.0</ele><time>2026-05-03T11:20:44.155Z</time></trkpt><trkpt lat="43.0483516" lon="13.171088"><ele>643.0</ele><time>2026-05-03T11:20:46.158Z</time></trkpt><trkpt lat="43.0484391" lon="13.1711472"><ele>643.0</ele><time>2026-05-03T11:20:48.157Z</time></trkpt><trkpt lat="43.0485013" lon="13.171235"><ele>643.0</ele><time>2026-05-03T11:20:50.157Z</time></trkpt><trkpt lat="43.0485607" lon="13.1713152"><ele>643.0</ele><time>2026-05-03T11:20:52.155Z</time></trkpt><trkpt lat="43.0486278" lon="13.1713905"><ele>643.0</ele><time>2026-05-03T11:20:54.159Z</time></trkpt><trkpt lat="43.0487004" lon="13.171466"><ele>643.0</ele><time>2026-05-03T11:20:56.159Z</time></trkpt><trkpt lat="43.0487641" lon="13.1715457"><ele>644.0</ele><time>2026-05-03T11:20:58.158Z</time></trkpt><trkpt lat="43.0488411" lon="13.1716121"><ele>645.0</ele><time>2026-05-03T11:21:00.156Z</time></trkpt><trkpt lat="43.0489479" lon="13.171614"><ele>646.0</ele><time>2026-05-03T11:21:02.159Z</time></trkpt><trkpt lat="43.0490567" lon="13.1715774"><ele>647.0</ele><time>2026-05-03T11:21:04.157Z</time></trkpt><trkpt lat="43.0491182" lon="13.1715507"><ele>648.0</ele><time>2026-05-03T11:21:05.158Z</time></trkpt><trkpt lat="43.0492162" lon="13.1715502"><ele>648.0</ele><time>2026-05-03T11:21:07.159Z</time></trkpt><trkpt lat="43.0493227" lon="13.1715768"><ele>648.0</ele><time>2026-05-03T11:21:09.158Z</time></trkpt><trkpt lat="43.0494229" lon="13.1716011"><ele>648.0</ele><time>2026-05-03T11:21:11.156Z</time></trkpt><trkpt lat="43.0495244" lon="13.1716219"><ele>648.0</ele><time>2026-05-03T11:21:13.159Z</time></trkpt><trkpt lat="43.049615" lon="13.1716588"><ele>648.0</ele><time>2026-05-03T11:21:15.159Z</time></trkpt><trkpt lat="43.0497072" lon="13.1717135"><ele>648.0</ele><time>2026-05-03T11:21:17.159Z</time></trkpt><trkpt lat="43.0497989" lon="13.1717418"><ele>648.0</ele><time>2026-05-03T11:21:19.158Z</time></trkpt><trkpt lat="43.0498875" lon="13.1718144"><ele>648.0</ele><time>2026-05-03T11:21:21.159Z</time></trkpt><trkpt lat="43.0499733" lon="13.1719104"><ele>648.0</ele><time>2026-05-03T11:21:23.159Z</time></trkpt><trkpt lat="43.0500546" lon="13.1719714"><ele>648.0</ele><time>2026-05-03T11:21:25.156Z</time></trkpt><trkpt lat="43.0501502" lon="13.1720487"><ele>646.8333333333334</ele><time>2026-05-03T11:21:27.157Z</time></trkpt><trkpt lat="43.0502399" lon="13.172117"><ele>645.6666666666666</ele><time>2026-05-03T11:21:29.157Z</time></trkpt><trkpt lat="43.0503264" lon="13.1721693"><ele>644.5</ele><time>2026-05-03T11:21:31.159Z</time></trkpt><trkpt lat="43.0503898" lon="13.1722182"><ele>643.3333333333333</ele><time>2026-05-03T11:21:33.155Z</time></trkpt><trkpt lat="43.0504401" lon="13.1722963"><ele>642.1666666666666</ele><time>2026-05-03T11:21:35.159Z</time></trkpt><trkpt lat="43.0504868" lon="13.1723707"><ele>641.0</ele><time>2026-05-03T11:21:38.159Z</time></trkpt><trkpt lat="43.0505439" lon="13.1724407"><ele>642.6666666666666</ele><time>2026-05-03T11:21:41.159Z</time></trkpt><trkpt lat="43.050598" lon="13.1725074"><ele>644.3333333333333</ele><time>2026-05-03T11:21:44.159Z</time></trkpt><trkpt lat="43.0506642" lon="13.1725755"><ele>646.0</ele><time>2026-05-03T11:21:47.157Z</time></trkpt><trkpt lat="43.0507395" lon="13.1726519"><ele>647.6666666666666</ele><time>2026-05-03T11:21:50.154Z</time></trkpt><trkpt lat="43.0508312" lon="13.1726621"><ele>649.3333333333334</ele><time>2026-05-03T11:21:52.159Z</time></trkpt><trkpt lat="43.0509269" lon="13.172637"><ele>651.0</ele><time>2026-05-03T11:21:54.159Z</time></trkpt><trkpt lat="43.051012" lon="13.1726304"><ele>651.0</ele><time>2026-05-03T11:21:56.156Z</time></trkpt><trkpt lat="43.0510817" lon="13.1726715"><ele>651.0</ele><time>2026-05-03T11:21:58.155Z</time></trkpt><trkpt lat="43.0511612" lon="13.1726788"><ele>651.0</ele><time>2026-05-03T11:22:00.158Z</time></trkpt><trkpt lat="43.0512279" lon="13.1726553"><ele>651.0</ele><time>2026-05-03T11:22:02.158Z</time></trkpt><trkpt lat="43.0513037" lon="13.1726854"><ele>651.0</ele><time>2026-05-03T11:22:04.158Z</time></trkpt><trkpt lat="43.0513971" lon="13.1727223"><ele>651.0</ele><time>2026-05-03T11:22:07.155Z</time></trkpt><trkpt lat="43.0514652" lon="13.1727633"><ele>651.0</ele><time>2026-05-03T11:22:10.155Z</time></trkpt><trkpt lat="43.0515242" lon="13.1728302"><ele>651.0</ele><time>2026-05-03T11:22:14.158Z</time></trkpt><trkpt lat="43.0515827" lon="13.1728902"><ele>651.0</ele><time>2026-05-03T11:22:19.158Z</time></trkpt><trkpt lat="43.0516479" lon="13.172911"><ele>651.0</ele><time>2026-05-03T11:22:22.157Z</time></trkpt><trkpt lat="43.0517489" lon="13.1729102"><ele>651.0</ele><time>2026-05-03T11:22:25.156Z</time></trkpt><trkpt lat="43.0518413" lon="13.1729243"><ele>651.0</ele><time>2026-05-03T11:22:28.158Z</time></trkpt><trkpt lat="43.0519055" lon="13.1729416"><ele>652.1666666666666</ele><time>2026-05-03T11:22:30.158Z</time></trkpt><trkpt lat="43.0519706" lon="13.1729494"><ele>653.3333333333334</ele><time>2026-05-03T11:22:32.158Z</time></trkpt><trkpt lat="43.0520388" lon="13.1729613"><ele>654.5</ele><time>2026-05-03T11:22:35.159Z</time></trkpt><trkpt lat="43.0520976" lon="13.1730026"><ele>655.6666666666667</ele><time>2026-05-03T11:22:38.156Z</time></trkpt><trkpt lat="43.0521569" lon="13.1731126"><ele>656.8333333333334</ele><time>2026-05-03T11:22:41.156Z</time></trkpt><trkpt lat="43.0521903" lon="13.173244"><ele>658.0</ele><time>2026-05-03T11:22:43.158Z</time></trkpt><trkpt lat="43.0522056" lon="13.1734041"><ele>658.0</ele><time>2026-05-03T11:22:45.16Z</time></trkpt><trkpt lat="43.0521949" lon="13.1735059"><ele>658.0</ele><time>2026-05-03T11:22:46.159Z</time></trkpt><trkpt lat="43.0521974" lon="13.1736072"><ele>658.0</ele><time>2026-05-03T11:22:47.159Z</time></trkpt><trkpt lat="43.0521983" lon="13.1737137"><ele>658.0</ele><time>2026-05-03T11:22:48.158Z</time></trkpt><trkpt lat="43.0522105" lon="13.1738795"><ele>658.0</ele><time>2026-05-03T11:22:50.16Z</time></trkpt><trkpt lat="43.0522324" lon="13.1740295"><ele>658.1666666666667</ele><time>2026-05-03T11:22:52.163Z</time></trkpt><trkpt lat="43.0522511" lon="13.1741635"><ele>658.3333333333334</ele><time>2026-05-03T11:22:54.16Z</time></trkpt><trkpt lat="43.0522642" lon="13.1742932"><ele>658.5</ele><time>2026-05-03T11:22:56.158Z</time></trkpt><trkpt lat="43.0522783" lon="13.1744105"><ele>658.6666666666666</ele><time>2026-05-03T11:22:58.157Z</time></trkpt><trkpt lat="43.0522933" lon="13.1745069"><ele>658.8333333333333</ele><time>2026-05-03T11:23:00.156Z</time></trkpt><trkpt lat="43.0523229" lon="13.1746187"><ele>659.0</ele><time>2026-05-03T11:23:02.159Z</time></trkpt><trkpt lat="43.0523585" lon="13.1747433"><ele>659.8333333333333</ele><time>2026-05-03T11:23:04.158Z</time></trkpt><trkpt lat="43.0523864" lon="13.1748585"><ele>660.6666666666666</ele><time>2026-05-03T11:23:06.158Z</time></trkpt><trkpt lat="43.0524346" lon="13.1749752"><ele>661.5</ele><time>2026-05-03T11:23:08.158Z</time></trkpt><trkpt lat="43.0524784" lon="13.1750679"><ele>662.3333333333334</ele><time>2026-05-03T11:23:10.155Z</time></trkpt><trkpt lat="43.0525123" lon="13.1751602"><ele>663.1666666666667</ele><time>2026-05-03T11:23:12.156Z</time></trkpt><trkpt lat="43.0525532" lon="13.1752671"><ele>664.0</ele><time>2026-05-03T11:23:14.155Z</time></trkpt><trkpt lat="43.0525932" lon="13.1753783"><ele>661.1666666666667</ele><time>2026-05-03T11:23:16.159Z</time></trkpt><trkpt lat="43.0526344" lon="13.1754801"><ele>658.3333333333334</ele><time>2026-05-03T11:23:18.159Z</time></trkpt><trkpt lat="43.0526658" lon="13.1755795"><ele>655.5</ele><time>2026-05-03T11:23:20.157Z</time></trkpt><trkpt lat="43.0526995" lon="13.175683"><ele>652.6666666666666</ele><time>2026-05-03T11:23:22.159Z</time></trkpt><trkpt lat="43.0527307" lon="13.1757801"><ele>649.8333333333333</ele><time>2026-05-03T11:23:24.156Z</time></trkpt><trkpt lat="43.0527593" lon="13.1758758"><ele>647.0</ele><time>2026-05-03T11:23:26.16Z</time></trkpt><trkpt lat="43.0527835" lon="13.1759764"><ele>647.0</ele><time>2026-05-03T11:23:28.158Z</time></trkpt><trkpt lat="43.052804" lon="13.1760759"><ele>647.0</ele><time>2026-05-03T11:23:30.159Z</time></trkpt><trkpt lat="43.0527865" lon="13.176182"><ele>647.0</ele><time>2026-05-03T11:23:32.159Z</time></trkpt><trkpt lat="43.0527316" lon="13.1762661"><ele>647.0</ele><time>2026-05-03T11:23:34.158Z</time></trkpt><trkpt lat="43.0526748" lon="13.1763218"><ele>647.0</ele><time>2026-05-03T11:23:36.159Z</time></trkpt><trkpt lat="43.0526222" lon="13.1763727"><ele>647.0</ele><time>2026-05-03T11:23:38.156Z</time></trkpt><trkpt lat="43.0525809" lon="13.1764548"><ele>647.0</ele><time>2026-05-03T11:24:24.159Z</time></trkpt><trkpt lat="43.0525153" lon="13.1765603"><ele>651.5</ele><time>2026-05-03T11:24:27.158Z</time></trkpt><trkpt lat="43.0524482" lon="13.1766479"><ele>656.0</ele><time>2026-05-03T11:24:29.159Z</time></trkpt><trkpt lat="43.0523931" lon="13.1767502"><ele>660.5</ele><time>2026-05-03T11:24:31.16Z</time></trkpt><trkpt lat="43.0523457" lon="13.1768371"><ele>665.0</ele><time>2026-05-03T11:24:33.157Z</time></trkpt><trkpt lat="43.0522878" lon="13.1769201"><ele>669.5</ele><time>2026-05-03T11:24:35.158Z</time></trkpt><trkpt lat="43.0522085" lon="13.1769918"><ele>674.0</ele><time>2026-05-03T11:24:37.153Z</time></trkpt><trkpt lat="43.0521646" lon="13.1770973"><ele>674.0</ele><time>2026-05-03T11:24:39.157Z</time></trkpt><trkpt lat="43.0521909" lon="13.1772159"><ele>674.0</ele><time>2026-05-03T11:24:41.159Z</time></trkpt><trkpt lat="43.0522604" lon="13.1772674"><ele>674.0</ele><time>2026-05-03T11:24:44.157Z</time></trkpt><trkpt lat="43.0523308" lon="13.1772997"><ele>674.0</ele><time>2026-05-03T11:24:46.159Z</time></trkpt><trkpt lat="43.0524103" lon="13.1773386"><ele>674.0</ele><time>2026-05-03T11:24:48.158Z</time></trkpt><trkpt lat="43.0524919" lon="13.1773426"><ele>674.0</ele><time>2026-05-03T11:24:50.158Z</time></trkpt><trkpt lat="43.0525898" lon="13.1773912"><ele>670.0</ele><time>2026-05-03T11:24:52.159Z</time></trkpt><trkpt lat="43.0526879" lon="13.1774421"><ele>666.0</ele><time>2026-05-03T11:24:54.156Z</time></trkpt><trkpt lat="43.0527639" lon="13.1775026"><ele>662.0</ele><time>2026-05-03T11:24:56.156Z</time></trkpt><trkpt lat="43.0528451" lon="13.1775665"><ele>658.0</ele><time>2026-05-03T11:24:58.157Z</time></trkpt><trkpt lat="43.0529139" lon="13.1776168"><ele>654.0</ele><time>2026-05-03T11:25:00.157Z</time></trkpt><trkpt lat="43.0529794" lon="13.1776513"><ele>650.0</ele><time>2026-05-03T11:25:02.157Z</time></trkpt><trkpt lat="43.0530599" lon="13.177681"><ele>650.0</ele><time>2026-05-03T11:25:04.159Z</time></trkpt><trkpt lat="43.0531364" lon="13.1777284"><ele>650.0</ele><time>2026-05-03T11:25:06.159Z</time></trkpt><trkpt lat="43.0532092" lon="13.1778253"><ele>650.0</ele><time>2026-05-03T11:25:08.158Z</time></trkpt><trkpt lat="43.0532541" lon="13.1779447"><ele>650.0</ele><time>2026-05-03T11:25:10.158Z</time></trkpt><trkpt lat="43.0533056" lon="13.1780789"><ele>650.0</ele><time>2026-05-03T11:25:12.158Z</time></trkpt><trkpt lat="43.0533503" lon="13.1781988"><ele>649.5</ele><time>2026-05-03T11:25:14.16Z</time></trkpt><trkpt lat="43.0533912" lon="13.1783017"><ele>649.0</ele><time>2026-05-03T11:25:16.155Z</time></trkpt><trkpt lat="43.0534401" lon="13.1783933"><ele>648.5</ele><time>2026-05-03T11:25:18.159Z</time></trkpt><trkpt lat="43.0534833" lon="13.1784971"><ele>648.0</ele><time>2026-05-03T11:25:20.159Z</time></trkpt><trkpt lat="43.0535255" lon="13.1785813"><ele>647.5</ele><time>2026-05-03T11:25:22.156Z</time></trkpt><trkpt lat="43.053579" lon="13.1786708"><ele>647.0</ele><time>2026-05-03T11:25:24.156Z</time></trkpt><trkpt lat="43.0536347" lon="13.1787532"><ele>647.0</ele><time>2026-05-03T11:25:26.158Z</time></trkpt><trkpt lat="43.053688" lon="13.1788424"><ele>647.0</ele><time>2026-05-03T11:25:28.158Z</time></trkpt><trkpt lat="43.0537473" lon="13.1789373"><ele>647.0</ele><time>2026-05-03T11:25:30.158Z</time></trkpt><trkpt lat="43.0538026" lon="13.1790153"><ele>647.0</ele><time>2026-05-03T11:25:32.157Z</time></trkpt><trkpt lat="43.0538721" lon="13.1790883"><ele>647.0</ele><time>2026-05-03T11:25:34.159Z</time></trkpt><trkpt lat="43.0539237" lon="13.1791534"><ele>647.0</ele><time>2026-05-03T11:25:36.159Z</time></trkpt><trkpt lat="43.0539751" lon="13.1792119"><ele>645.8333333333333</ele><time>2026-05-03T11:25:38.158Z</time></trkpt><trkpt lat="43.0540312" lon="13.1792878"><ele>644.6666666666666</ele><time>2026-05-03T11:25:42.157Z</time></trkpt><trkpt lat="43.0541014" lon="13.1793556"><ele>643.5</ele><time>2026-05-03T11:25:46.157Z</time></trkpt><trkpt lat="43.0541681" lon="13.1794419"><ele>642.3333333333334</ele><time>2026-05-03T11:25:49.158Z</time></trkpt><trkpt lat="43.0542223" lon="13.1795021"><ele>641.1666666666667</ele><time>2026-05-03T11:25:51.159Z</time></trkpt><trkpt lat="43.0542823" lon="13.1795623"><ele>640.0</ele><time>2026-05-03T11:25:53.159Z</time></trkpt><trkpt lat="43.0543594" lon="13.1796206"><ele>640.0</ele><time>2026-05-03T11:25:55.16Z</time></trkpt><trkpt lat="43.054434" lon="13.1796905"><ele>640.0</ele><time>2026-05-03T11:25:57.158Z</time></trkpt><trkpt lat="43.0545096" lon="13.1797655"><ele>640.0</ele><time>2026-05-03T11:25:59.158Z</time></trkpt><trkpt lat="43.0545828" lon="13.1798301"><ele>640.0</ele><time>2026-05-03T11:26:01.155Z</time></trkpt><trkpt lat="43.0546613" lon="13.179895"><ele>640.0</ele><time>2026-05-03T11:26:03.159Z</time></trkpt><trkpt lat="43.0547144" lon="13.1799696"><ele>640.0</ele><time>2026-05-03T11:26:05.159Z</time></trkpt><trkpt lat="43.0547518" lon="13.1800923"><ele>642.7142857142857</ele><time>2026-05-03T11:26:07.159Z</time></trkpt><trkpt lat="43.0547794" lon="13.1801711"><ele>645.4285714285714</ele><time>2026-05-03T11:26:09.158Z</time></trkpt><trkpt lat="43.0548066" lon="13.1802543"><ele>648.1428571428571</ele><time>2026-05-03T11:26:11.158Z</time></trkpt><trkpt lat="43.0548198" lon="13.1803599"><ele>650.8571428571429</ele><time>2026-05-03T11:26:14.158Z</time></trkpt><trkpt lat="43.0548108" lon="13.1804534"><ele>653.5714285714286</ele><time>2026-05-03T11:26:17.155Z</time></trkpt><trkpt lat="43.0548097" lon="13.1805709"><ele>656.2857142857143</ele><time>2026-05-03T11:26:21.159Z</time></trkpt><trkpt lat="43.0547833" lon="13.1806566"><ele>659.0</ele><time>2026-05-03T11:26:24.159Z</time></trkpt><trkpt lat="43.0547807" lon="13.1807634"><ele>663.0</ele><time>2026-05-03T11:26:27.158Z</time></trkpt><trkpt lat="43.0547979" lon="13.1808726"><ele>667.0</ele><time>2026-05-03T11:26:30.158Z</time></trkpt><trkpt lat="43.0548069" lon="13.1809741"><ele>671.0</ele><time>2026-05-03T11:26:33.156Z</time></trkpt><trkpt lat="43.0547554" lon="13.180914"><ele>675.0</ele><time>2026-05-03T11:26:43.158Z</time></trkpt><trkpt lat="43.0547055" lon="13.1808347"><ele>679.0</ele><time>2026-05-03T11:26:47.156Z</time></trkpt><trkpt lat="43.0546504" lon="13.1807482"><ele>683.0</ele><time>2026-05-03T11:26:51.159Z</time></trkpt><trkpt lat="43.0545714" lon="13.1807541"><ele>683.0</ele><time>2026-05-03T11:26:55.156Z</time></trkpt><trkpt lat="43.0545603" lon="13.180877"><ele>683.0</ele><time>2026-05-03T11:26:58.159Z</time></trkpt><trkpt lat="43.0545768" lon="13.1809621"><ele>683.0</ele><time>2026-05-03T11:27:00.158Z</time></trkpt><trkpt lat="43.0545922" lon="13.1810529"><ele>683.0</ele><time>2026-05-03T11:27:02.158Z</time></trkpt><trkpt lat="43.0546162" lon="13.1811603"><ele>683.0</ele><time>2026-05-03T11:27:04.157Z</time></trkpt><trkpt lat="43.0546388" lon="13.1812874"><ele>683.0</ele><time>2026-05-03T11:27:06.158Z</time></trkpt><trkpt lat="43.0546702" lon="13.181399"><ele>683.0</ele><time>2026-05-03T11:27:08.157Z</time></trkpt><trkpt lat="43.0546871" lon="13.1815128"><ele>683.0</ele><time>2026-05-03T11:27:10.157Z</time></trkpt><trkpt lat="43.0546923" lon="13.1816353"><ele>683.0</ele><time>2026-05-03T11:27:12.159Z</time></trkpt><trkpt lat="43.0547061" lon="13.1817677"><ele>683.0</ele><time>2026-05-03T11:27:14.159Z</time></trkpt><trkpt lat="43.0547187" lon="13.1819051"><ele>683.0</ele><time>2026-05-03T11:27:16.158Z</time></trkpt><trkpt lat="43.0547094" lon="13.1820608"><ele>682.0</ele><time>2026-05-03T11:27:18.159Z</time></trkpt><trkpt lat="43.0546622" lon="13.1822048"><ele>681.0</ele><time>2026-05-03T11:27:20.158Z</time></trkpt><trkpt lat="43.054622" lon="13.1822878"><ele>680.0</ele><time>2026-05-03T11:27:21.159Z</time></trkpt><trkpt lat="43.0545834" lon="13.1823731"><ele>679.0</ele><time>2026-05-03T11:27:22.159Z</time></trkpt><trkpt lat="43.0545002" lon="13.1825035"><ele>678.0</ele><time>2026-05-03T11:27:24.156Z</time></trkpt><trkpt lat="43.0544329" lon="13.1825713"><ele>678.0</ele><time>2026-05-03T11:27:25.158Z</time></trkpt><trkpt lat="43.0543657" lon="13.182634"><ele>678.0</ele><time>2026-05-03T11:27:26.157Z</time></trkpt><trkpt lat="43.0543011" lon="13.1827028"><ele>678.0</ele><time>2026-05-03T11:27:27.159Z</time></trkpt><trkpt lat="43.054245" lon="13.1827848"><ele>678.0</ele><time>2026-05-03T11:27:28.157Z</time></trkpt><trkpt lat="43.0541974" lon="13.1828685"><ele>678.0</ele><time>2026-05-03T11:27:29.158Z</time></trkpt><trkpt lat="43.0541635" lon="13.1829668"><ele>678.0</ele><time>2026-05-03T11:27:30.157Z</time></trkpt><trkpt lat="43.0541324" lon="13.1830735"><ele>683.6666666666666</ele><time>2026-05-03T11:27:31.158Z</time></trkpt><trkpt lat="43.0541136" lon="13.1831742"><ele>689.3333333333334</ele><time>2026-05-03T11:27:32.159Z</time></trkpt><trkpt lat="43.0540844" lon="13.1832884"><ele>695.0</ele><time>2026-05-03T11:27:33.158Z</time></trkpt><trkpt lat="43.0540563" lon="13.1834001"><ele>700.6666666666667</ele><time>2026-05-03T11:27:34.158Z</time></trkpt><trkpt lat="43.0540304" lon="13.1835129"><ele>706.3333333333334</ele><time>2026-05-03T11:27:35.157Z</time></trkpt><trkpt lat="43.0540038" lon="13.1836234"><ele>712.0</ele><time>2026-05-03T11:27:36.158Z</time></trkpt><trkpt lat="43.0539931" lon="13.1837423"><ele>712.0</ele><time>2026-05-03T11:27:37.158Z</time></trkpt><trkpt lat="43.0539905" lon="13.1838655"><ele>712.0</ele><time>2026-05-03T11:27:38.158Z</time></trkpt><trkpt lat="43.0539848" lon="13.1839857"><ele>712.0</ele><time>2026-05-03T11:27:39.157Z</time></trkpt><trkpt lat="43.05399" lon="13.1840917"><ele>712.0</ele><time>2026-05-03T11:27:40.156Z</time></trkpt><trkpt lat="43.0539782" lon="13.1842182"><ele>712.0</ele><time>2026-05-03T11:27:41.159Z</time></trkpt><trkpt lat="43.0539752" lon="13.1843282"><ele>712.0</ele><time>2026-05-03T11:27:42.16Z</time></trkpt><trkpt lat="43.0539747" lon="13.1844367"><ele>711.0</ele><time>2026-05-03T11:27:43.157Z</time></trkpt><trkpt lat="43.0539976" lon="13.1845522"><ele>710.0</ele><time>2026-05-03T11:27:44.158Z</time></trkpt><trkpt lat="43.054008" lon="13.1846589"><ele>709.0</ele><time>2026-05-03T11:27:45.158Z</time></trkpt><trkpt lat="43.0540093" lon="13.1847681"><ele>708.0</ele><time>2026-05-03T11:27:46.16Z</time></trkpt><trkpt lat="43.0540245" lon="13.1848695"><ele>707.0</ele><time>2026-05-03T11:27:47.158Z</time></trkpt><trkpt lat="43.0540548" lon="13.1849517"><ele>706.0</ele><time>2026-05-03T11:27:48.158Z</time></trkpt><trkpt lat="43.0541206" lon="13.1850066"><ele>693.75</ele><time>2026-05-03T11:27:49.156Z</time></trkpt><trkpt lat="43.054241" lon="13.1849876"><ele>681.5</ele><time>2026-05-03T11:27:51.158Z</time></trkpt><trkpt lat="43.0543277" lon="13.1848817"><ele>669.25</ele><time>2026-05-03T11:27:53.159Z</time></trkpt><trkpt lat="43.0543747" lon="13.1847348"><ele>657.0</ele><time>2026-05-03T11:27:55.157Z</time></trkpt><trkpt lat="43.0544178" lon="13.1845694"><ele>656.8333333333334</ele><time>2026-05-03T11:27:57.158Z</time></trkpt><trkpt lat="43.0544416" lon="13.1844819"><ele>656.6666666666666</ele><time>2026-05-03T11:27:58.16Z</time></trkpt><trkpt lat="43.0544561" lon="13.1843918"><ele>656.5</ele><time>2026-05-03T11:27:59.157Z</time></trkpt><trkpt lat="43.0544649" lon="13.1842992"><ele>656.3333333333333</ele><time>2026-05-03T11:28:00.156Z</time></trkpt><trkpt lat="43.0544825" lon="13.1841261"><ele>656.1666666666666</ele><time>2026-05-03T11:28:02.159Z</time></trkpt><trkpt lat="43.0545268" lon="13.1839845"><ele>656.0</ele><time>2026-05-03T11:28:04.158Z</time></trkpt><trkpt lat="43.0545383" lon="13.1838964"><ele>656.0</ele><time>2026-05-03T11:28:05.158Z</time></trkpt><trkpt lat="43.0545947" lon="13.1837737"><ele>656.0</ele><time>2026-05-03T11:28:07.159Z</time></trkpt><trkpt lat="43.0546875" lon="13.1837038"><ele>656.0</ele><time>2026-05-03T11:28:09.158Z</time></trkpt><trkpt lat="43.0547932" lon="13.1836837"><ele>656.0</ele><time>2026-05-03T11:28:11.158Z</time></trkpt><trkpt lat="43.0549178" lon="13.1836858"><ele>656.0</ele><time>2026-05-03T11:28:13.157Z</time></trkpt><trkpt lat="43.055028" lon="13.1836891"><ele>653.5999999999999</ele><time>2026-05-03T11:28:15.157Z</time></trkpt><trkpt lat="43.0551421" lon="13.1836766"><ele>651.2</ele><time>2026-05-03T11:28:17.158Z</time></trkpt><trkpt lat="43.0552516" lon="13.1836398"><ele>648.8</ele><time>2026-05-03T11:28:19.158Z</time></trkpt><trkpt lat="43.0553141" lon="13.1836074"><ele>646.4000000000001</ele><time>2026-05-03T11:28:20.159Z</time></trkpt><trkpt lat="43.055416" lon="13.1835398"><ele>644.0</ele><time>2026-05-03T11:28:22.157Z</time></trkpt><trkpt lat="43.0555177" lon="13.1834636"><ele>644.0</ele><time>2026-05-03T11:28:24.158Z</time></trkpt><trkpt lat="43.0556162" lon="13.1833541"><ele>644.0</ele><time>2026-05-03T11:28:26.157Z</time></trkpt><trkpt lat="43.0556912" lon="13.183225"><ele>644.0</ele><time>2026-05-03T11:28:28.155Z</time></trkpt><trkpt lat="43.0557545" lon="13.1830833"><ele>644.0</ele><time>2026-05-03T11:28:30.158Z</time></trkpt><trkpt lat="43.0558153" lon="13.1829488"><ele>644.4000000000001</ele><time>2026-05-03T11:28:32.16Z</time></trkpt><trkpt lat="43.0558603" lon="13.1828113"><ele>644.8</ele><time>2026-05-03T11:28:34.159Z</time></trkpt><trkpt lat="43.0559153" lon="13.1826779"><ele>645.2</ele><time>2026-05-03T11:28:36.16Z</time></trkpt><trkpt lat="43.0559501" lon="13.1825378"><ele>645.5999999999999</ele><time>2026-05-03T11:28:38.157Z</time></trkpt><trkpt lat="43.0559774" lon="13.1823813"><ele>646.0</ele><time>2026-05-03T11:28:40.159Z</time></trkpt><trkpt lat="43.0560113" lon="13.1822505"><ele>644.5999999999999</ele><time>2026-05-03T11:28:42.157Z</time></trkpt><trkpt lat="43.0560456" lon="13.1821186"><ele>643.1999999999999</ele><time>2026-05-03T11:28:44.157Z</time></trkpt><trkpt lat="43.0560807" lon="13.1819787"><ele>641.8</ele><time>2026-05-03T11:28:46.158Z</time></trkpt><trkpt lat="43.0561223" lon="13.1818678"><ele>640.4</ele><time>2026-05-03T11:28:48.161Z</time></trkpt><trkpt lat="43.0561625" lon="13.1817659"><ele>639.0</ele><time>2026-05-03T11:28:50.157Z</time></trkpt><trkpt lat="43.0562448" lon="13.1816789"><ele>639.0</ele><time>2026-05-03T11:28:52.158Z</time></trkpt><trkpt lat="43.0563461" lon="13.1816166"><ele>639.0</ele><time>2026-05-03T11:28:54.155Z</time></trkpt><trkpt lat="43.0564566" lon="13.1816243"><ele>639.0</ele><time>2026-05-03T11:28:56.161Z</time></trkpt><trkpt lat="43.0565188" lon="13.1816553"><ele>639.0</ele><time>2026-05-03T11:28:57.158Z</time></trkpt><trkpt lat="43.0566321" lon="13.1817267"><ele>639.0</ele><time>2026-05-03T11:28:59.158Z</time></trkpt><trkpt lat="43.0567359" lon="13.181827"><ele>639.0</ele><time>2026-05-03T11:29:01.158Z</time></trkpt><trkpt lat="43.0568325" lon="13.1819193"><ele>639.0</ele><time>2026-05-03T11:29:03.158Z</time></trkpt><trkpt lat="43.0569221" lon="13.1820214"><ele>639.0</ele><time>2026-05-03T11:29:05.158Z</time></trkpt><trkpt lat="43.0570047" lon="13.1821247"><ele>639.0</ele><time>2026-05-03T11:29:07.157Z</time></trkpt><trkpt lat="43.0570536" lon="13.1821888"><ele>639.0</ele><time>2026-05-03T11:29:09.158Z</time></trkpt><trkpt lat="43.0571111" lon="13.1822469"><ele>639.0</ele><time>2026-05-03T11:29:22.159Z</time></trkpt><trkpt lat="43.0571652" lon="13.1823029"><ele>639.0</ele><time>2026-05-03T11:29:24.158Z</time></trkpt><trkpt lat="43.0572367" lon="13.182378"><ele>639.0</ele><time>2026-05-03T11:29:26.159Z</time></trkpt><trkpt lat="43.0573131" lon="13.1824664"><ele>639.0</ele><time>2026-05-03T11:29:28.158Z</time></trkpt><trkpt lat="43.0574072" lon="13.1825499"><ele>639.0</ele><time>2026-05-03T11:29:30.158Z</time></trkpt><trkpt lat="43.0574811" lon="13.1826503"><ele>639.8</ele><time>2026-05-03T11:29:32.157Z</time></trkpt><trkpt lat="43.057578" lon="13.1827528"><ele>640.5999999999999</ele><time>2026-05-03T11:29:34.158Z</time></trkpt><trkpt lat="43.057685" lon="13.1828483"><ele>641.4</ele><time>2026-05-03T11:29:36.157Z</time></trkpt><trkpt lat="43.0577776" lon="13.1829314"><ele>642.1999999999999</ele><time>2026-05-03T11:29:38.158Z</time></trkpt><trkpt lat="43.0578377" lon="13.1829594"><ele>643.0</ele><time>2026-05-03T11:29:39.157Z</time></trkpt><trkpt lat="43.0579343" lon="13.1830294"><ele>643.0</ele><time>2026-05-03T11:29:41.157Z</time></trkpt><trkpt lat="43.0580137" lon="13.1830968"><ele>643.0</ele><time>2026-05-03T11:29:43.158Z</time></trkpt><trkpt lat="43.0580908" lon="13.1831611"><ele>643.0</ele><time>2026-05-03T11:29:45.16Z</time></trkpt><trkpt lat="43.0581663" lon="13.1832204"><ele>643.0</ele><time>2026-05-03T11:29:47.157Z</time></trkpt><trkpt lat="43.0582453" lon="13.1832821"><ele>643.0</ele><time>2026-05-03T11:29:49.158Z</time></trkpt><trkpt lat="43.0583366" lon="13.183353"><ele>643.8</ele><time>2026-05-03T11:29:51.157Z</time></trkpt><trkpt lat="43.0584348" lon="13.1834303"><ele>644.5999999999999</ele><time>2026-05-03T11:29:53.157Z</time></trkpt><trkpt lat="43.0585306" lon="13.1835036"><ele>645.4000000000001</ele><time>2026-05-03T11:29:55.156Z</time></trkpt><trkpt lat="43.058621" lon="13.1835744"><ele>646.2</ele><time>2026-05-03T11:29:57.159Z</time></trkpt><trkpt lat="43.0587294" lon="13.1836403"><ele>647.0</ele><time>2026-05-03T11:29:59.158Z</time></trkpt><trkpt lat="43.0588327" lon="13.1837271"><ele>647.0</ele><time>2026-05-03T11:30:01.156Z</time></trkpt><trkpt lat="43.0589435" lon="13.1837936"><ele>647.0</ele><time>2026-05-03T11:30:03.159Z</time></trkpt><trkpt lat="43.0590484" lon="13.1838727"><ele>647.0</ele><time>2026-05-03T11:30:05.158Z</time></trkpt><trkpt lat="43.0591045" lon="13.1839163"><ele>647.0</ele><time>2026-05-03T11:30:06.158Z</time></trkpt><trkpt lat="43.0591949" lon="13.1839799"><ele>647.0</ele><time>2026-05-03T11:30:08.158Z</time></trkpt><trkpt lat="43.0592896" lon="13.1840405"><ele>649.6</ele><time>2026-05-03T11:30:10.158Z</time></trkpt><trkpt lat="43.0593867" lon="13.1840901"><ele>652.2</ele><time>2026-05-03T11:30:12.159Z</time></trkpt><trkpt lat="43.0594833" lon="13.1841689"><ele>654.8</ele><time>2026-05-03T11:30:14.158Z</time></trkpt><trkpt lat="43.0595698" lon="13.1842581"><ele>657.4</ele><time>2026-05-03T11:30:16.158Z</time></trkpt><trkpt lat="43.0596471" lon="13.1843593"><ele>660.0</ele><time>2026-05-03T11:30:18.157Z</time></trkpt><trkpt lat="43.0597384" lon="13.1844747"><ele>660.0</ele><time>2026-05-03T11:30:20.158Z</time></trkpt><trkpt lat="43.0598149" lon="13.1845888"><ele>660.0</ele><time>2026-05-03T11:30:22.158Z</time></trkpt><trkpt lat="43.0598939" lon="13.1847029"><ele>660.0</ele><time>2026-05-03T11:30:24.157Z</time></trkpt><trkpt lat="43.0599682" lon="13.1848155"><ele>660.0</ele><time>2026-05-03T11:30:26.158Z</time></trkpt><trkpt lat="43.060047" lon="13.184935"><ele>658.8</ele><time>2026-05-03T11:30:28.157Z</time></trkpt><trkpt lat="43.0601237" lon="13.1850532"><ele>657.6</ele><time>2026-05-03T11:30:30.159Z</time></trkpt><trkpt lat="43.0602003" lon="13.1851683"><ele>656.4000000000001</ele><time>2026-05-03T11:30:32.158Z</time></trkpt><trkpt lat="43.0602505" lon="13.185227"><ele>655.2</ele><time>2026-05-03T11:30:33.158Z</time></trkpt><trkpt lat="43.0603459" lon="13.1853287"><ele>654.0</ele><time>2026-05-03T11:30:35.158Z</time></trkpt><trkpt lat="43.0604191" lon="13.1854464"><ele>654.0</ele><time>2026-05-03T11:30:37.159Z</time></trkpt><trkpt lat="43.0605037" lon="13.1855608"><ele>654.0</ele><time>2026-05-03T11:30:39.159Z</time></trkpt><trkpt lat="43.0605624" lon="13.1856738"><ele>654.0</ele><time>2026-05-03T11:30:41.158Z</time></trkpt><trkpt lat="43.0606064" lon="13.1857361"><ele>654.0</ele><time>2026-05-03T11:30:42.157Z</time></trkpt><trkpt lat="43.0606796" lon="13.1858581"><ele>654.0</ele><time>2026-05-03T11:30:44.157Z</time></trkpt><trkpt lat="43.06073" lon="13.1859903"><ele>656.6</ele><time>2026-05-03T11:30:46.158Z</time></trkpt><trkpt lat="43.0607869" lon="13.1861103"><ele>659.2</ele><time>2026-05-03T11:30:48.157Z</time></trkpt><trkpt lat="43.0608435" lon="13.1862295"><ele>661.8000000000001</ele><time>2026-05-03T11:30:50.157Z</time></trkpt><trkpt lat="43.0609248" lon="13.1863518"><ele>664.4000000000001</ele><time>2026-05-03T11:30:52.156Z</time></trkpt><trkpt lat="43.0609771" lon="13.1864719"><ele>667.0</ele><time>2026-05-03T11:30:54.156Z</time></trkpt><trkpt lat="43.0610446" lon="13.1865782"><ele>667.0</ele><time>2026-05-03T11:30:56.156Z</time></trkpt><trkpt lat="43.0611236" lon="13.1866818"><ele>667.0</ele><time>2026-05-03T11:30:58.159Z</time></trkpt><trkpt lat="43.0611876" lon="13.1867882"><ele>667.0</ele><time>2026-05-03T11:31:00.158Z</time></trkpt><trkpt lat="43.0612684" lon="13.186872"><ele>667.0</ele><time>2026-05-03T11:31:02.158Z</time></trkpt><trkpt lat="43.0613271" lon="13.1869616"><ele>667.0</ele><time>2026-05-03T11:31:04.157Z</time></trkpt><trkpt lat="43.061379" lon="13.1870595"><ele>667.0</ele><time>2026-05-03T11:31:06.158Z</time></trkpt><trkpt lat="43.0614505" lon="13.187163"><ele>667.0</ele><time>2026-05-03T11:31:08.156Z</time></trkpt><trkpt lat="43.061524" lon="13.1872718"><ele>667.0</ele><time>2026-05-03T11:31:10.157Z</time></trkpt><trkpt lat="43.0615894" lon="13.1873713"><ele>667.0</ele><time>2026-05-03T11:31:12.159Z</time></trkpt><trkpt lat="43.0616601" lon="13.1874629"><ele>667.0</ele><time>2026-05-03T11:31:14.158Z</time></trkpt><trkpt lat="43.061712" lon="13.1875587"><ele>667.6666666666667</ele><time>2026-05-03T11:31:16.158Z</time></trkpt><trkpt lat="43.0617788" lon="13.187659"><ele>668.3333333333334</ele><time>2026-05-03T11:31:18.156Z</time></trkpt><trkpt lat="43.061813" lon="13.1877685"><ele>669.0</ele><time>2026-05-03T11:31:20.156Z</time></trkpt><trkpt lat="43.0618576" lon="13.187878"><ele>669.6666666666666</ele><time>2026-05-03T11:31:22.159Z</time></trkpt><trkpt lat="43.0618814" lon="13.1879865"><ele>670.3333333333333</ele><time>2026-05-03T11:31:24.156Z</time></trkpt><trkpt lat="43.0619089" lon="13.1880829"><ele>671.0</ele><time>2026-05-03T11:31:26.157Z</time></trkpt><trkpt lat="43.0619172" lon="13.1881836"><ele>671.0</ele><time>2026-05-03T11:31:28.158Z</time></trkpt><trkpt lat="43.0619193" lon="13.1882716"><ele>671.0</ele><time>2026-05-03T11:31:30.158Z</time></trkpt><trkpt lat="43.0619213" lon="13.1883937"><ele>671.0</ele><time>2026-05-03T11:31:33.159Z</time></trkpt><trkpt lat="43.061929" lon="13.1885249"><ele>671.0</ele><time>2026-05-03T11:31:36.158Z</time></trkpt><trkpt lat="43.0619352" lon="13.1886126"><ele>671.0</ele><time>2026-05-03T11:31:38.159Z</time></trkpt><trkpt lat="43.0619487" lon="13.1887021"><ele>671.0</ele><time>2026-05-03T11:31:40.158Z</time></trkpt><trkpt lat="43.0619815" lon="13.1887836"><ele>671.0</ele><time>2026-05-03T11:31:42.161Z</time></trkpt><trkpt lat="43.0620296" lon="13.1888917"><ele>671.0</ele><time>2026-05-03T11:31:45.158Z</time></trkpt><trkpt lat="43.0620756" lon="13.1889709"><ele>671.0</ele><time>2026-05-03T11:31:47.158Z</time></trkpt><trkpt lat="43.0621287" lon="13.1890369"><ele>671.0</ele><time>2026-05-03T11:31:49.159Z</time></trkpt><trkpt lat="43.0621696" lon="13.1891037"><ele>671.0</ele><time>2026-05-03T11:31:51.159Z</time></trkpt><trkpt lat="43.0622109" lon="13.1891703"><ele>671.0</ele><time>2026-05-03T11:31:53.159Z</time></trkpt><trkpt lat="43.0622577" lon="13.1892741"><ele>671.0</ele><time>2026-05-03T11:31:56.155Z</time></trkpt><trkpt lat="43.0622923" lon="13.1893526"><ele>671.0</ele><time>2026-05-03T11:31:58.158Z</time></trkpt><trkpt lat="43.0623218" lon="13.1894686"><ele>673.8333333333333</ele><time>2026-05-03T11:32:01.158Z</time></trkpt><trkpt lat="43.0623423" lon="13.1895697"><ele>676.6666666666666</ele><time>2026-05-03T11:32:04.155Z</time></trkpt><trkpt lat="43.0623085" lon="13.1896899"><ele>679.5</ele><time>2026-05-03T11:32:07.159Z</time></trkpt><trkpt lat="43.0622774" lon="13.189766"><ele>682.3333333333334</ele><time>2026-05-03T11:32:09.162Z</time></trkpt><trkpt lat="43.0622484" lon="13.1898725"><ele>685.1666666666667</ele><time>2026-05-03T11:32:12.157Z</time></trkpt><trkpt lat="43.0622343" lon="13.1899972"><ele>688.0</ele><time>2026-05-03T11:32:15.158Z</time></trkpt><trkpt lat="43.0622203" lon="13.190082"><ele>691.5714285714287</ele><time>2026-05-03T11:32:17.158Z</time></trkpt><trkpt lat="43.0622162" lon="13.1901686"><ele>695.1428571428571</ele><time>2026-05-03T11:32:19.155Z</time></trkpt><trkpt lat="43.0622242" lon="13.1902931"><ele>698.7142857142858</ele><time>2026-05-03T11:32:22.158Z</time></trkpt><trkpt lat="43.0622375" lon="13.1903789"><ele>702.2857142857143</ele><time>2026-05-03T11:32:24.158Z</time></trkpt><trkpt lat="43.0622824" lon="13.1904863"><ele>705.8571428571429</ele><time>2026-05-03T11:32:27.159Z</time></trkpt><trkpt lat="43.0623361" lon="13.1905516"><ele>709.4285714285714</ele><time>2026-05-03T11:32:29.159Z</time></trkpt><trkpt lat="43.0623902" lon="13.1906039"><ele>713.0</ele><time>2026-05-03T11:32:31.158Z</time></trkpt><trkpt lat="43.0624455" lon="13.190652"><ele>707.3333333333333</ele><time>2026-05-03T11:32:33.158Z</time></trkpt><trkpt lat="43.0625334" lon="13.1907096"><ele>701.6666666666666</ele><time>2026-05-03T11:32:36.155Z</time></trkpt><trkpt lat="43.0625991" lon="13.1907251"><ele>696.0</ele><time>2026-05-03T11:32:38.159Z</time></trkpt><trkpt lat="43.0626732" lon="13.1907462"><ele>690.3333333333334</ele><time>2026-05-03T11:32:41.159Z</time></trkpt><trkpt lat="43.0627635" lon="13.1907499"><ele>684.6666666666667</ele><time>2026-05-03T11:32:44.157Z</time></trkpt><trkpt lat="43.0628591" lon="13.1907498"><ele>679.0</ele><time>2026-05-03T11:32:47.157Z</time></trkpt><trkpt lat="43.0629251" lon="13.1907531"><ele>679.0</ele><time>2026-05-03T11:32:49.158Z</time></trkpt><trkpt lat="43.0630044" lon="13.1907572"><ele>679.0</ele><time>2026-05-03T11:32:52.157Z</time></trkpt><trkpt lat="43.063072" lon="13.1907667"><ele>679.0</ele><time>2026-05-03T11:32:55.157Z</time></trkpt><trkpt lat="43.0631501" lon="13.1907884"><ele>679.0</ele><time>2026-05-03T11:32:58.156Z</time></trkpt><trkpt lat="43.0632238" lon="13.1908238"><ele>679.0</ele><time>2026-05-03T11:33:01.158Z</time></trkpt><trkpt lat="43.0632788" lon="13.1908797"><ele>679.0</ele><time>2026-05-03T11:33:04.156Z</time></trkpt><trkpt lat="43.0633345" lon="13.1909539"><ele>677.1428571428571</ele><time>2026-05-03T11:33:07.156Z</time></trkpt><trkpt lat="43.063373" lon="13.1910428"><ele>675.2857142857142</ele><time>2026-05-03T11:33:10.157Z</time></trkpt><trkpt lat="43.0634073" lon="13.1911318"><ele>673.4285714285714</ele><time>2026-05-03T11:33:13.158Z</time></trkpt><trkpt lat="43.0634448" lon="13.1912163"><ele>671.5714285714286</ele><time>2026-05-03T11:33:16.158Z</time></trkpt><trkpt lat="43.0634791" lon="13.1913022"><ele>669.7142857142857</ele><time>2026-05-03T11:33:19.157Z</time></trkpt><trkpt lat="43.0635281" lon="13.191385"><ele>667.8571428571429</ele><time>2026-05-03T11:33:22.158Z</time></trkpt><trkpt lat="43.0635642" lon="13.1914651"><ele>666.0</ele><time>2026-05-03T11:33:25.159Z</time></trkpt><trkpt lat="43.0635927" lon="13.1915461"><ele>669.8571428571429</ele><time>2026-05-03T11:33:28.158Z</time></trkpt><trkpt lat="43.0636113" lon="13.1916318"><ele>673.7142857142857</ele><time>2026-05-03T11:33:31.158Z</time></trkpt><trkpt lat="43.0636381" lon="13.1917192"><ele>677.5714285714286</ele><time>2026-05-03T11:33:34.158Z</time></trkpt><trkpt lat="43.0636807" lon="13.1918035"><ele>681.4285714285714</ele><time>2026-05-03T11:33:37.158Z</time></trkpt><trkpt lat="43.0637131" lon="13.1918846"><ele>685.2857142857142</ele><time>2026-05-03T11:33:40.158Z</time></trkpt><trkpt lat="43.0637318" lon="13.1919677"><ele>689.1428571428571</ele><time>2026-05-03T11:33:43.159Z</time></trkpt><trkpt lat="43.06376" lon="13.1920481"><ele>693.0</ele><time>2026-05-03T11:33:46.158Z</time></trkpt><trkpt lat="43.0637775" lon="13.1921329"><ele>693.0</ele><time>2026-05-03T11:33:49.159Z</time></trkpt><trkpt lat="43.0637822" lon="13.192235"><ele>693.0</ele><time>2026-05-03T11:33:52.158Z</time></trkpt><trkpt lat="43.0637827" lon="13.1923232"><ele>693.0</ele><time>2026-05-03T11:33:55.155Z</time></trkpt><trkpt lat="43.0637786" lon="13.1924279"><ele>693.0</ele><time>2026-05-03T11:33:59.16Z</time></trkpt><trkpt lat="43.0637937" lon="13.1925211"><ele>693.0</ele><time>2026-05-03T11:34:02.16Z</time></trkpt><trkpt lat="43.0637997" lon="13.1926095"><ele>693.0</ele><time>2026-05-03T11:34:05.159Z</time></trkpt><trkpt lat="43.0638095" lon="13.1927173"><ele>693.0</ele><time>2026-05-03T11:34:09.159Z</time></trkpt><trkpt lat="43.0637968" lon="13.1928069"><ele>695.2857142857143</ele><time>2026-05-03T11:34:12.157Z</time></trkpt><trkpt lat="43.0637554" lon="13.1929135"><ele>697.5714285714286</ele><time>2026-05-03T11:34:16.157Z</time></trkpt><trkpt lat="43.0637039" lon="13.1929938"><ele>699.8571428571429</ele><time>2026-05-03T11:34:20.156Z</time></trkpt><trkpt lat="43.0636685" lon="13.1930668"><ele>702.1428571428571</ele><time>2026-05-03T11:34:23.158Z</time></trkpt><trkpt lat="43.0636478" lon="13.1931482"><ele>704.4285714285714</ele><time>2026-05-03T11:34:26.161Z</time></trkpt><trkpt lat="43.0636593" lon="13.193261"><ele>706.7142857142858</ele><time>2026-05-03T11:34:30.159Z</time></trkpt><trkpt lat="43.0636631" lon="13.1933596"><ele>709.0</ele><time>2026-05-03T11:34:33.158Z</time></trkpt><trkpt lat="43.0636954" lon="13.1934381"><ele>710.5</ele><time>2026-05-03T11:34:37.205Z</time></trkpt><trkpt lat="43.0637522" lon="13.1935266"><ele>712.0</ele><time>2026-05-03T11:34:40.16Z</time></trkpt><trkpt lat="43.0638037" lon="13.1936042"><ele>713.5</ele><time>2026-05-03T11:34:43.158Z</time></trkpt><trkpt lat="43.0638626" lon="13.1936563"><ele>715.0</ele><time>2026-05-03T11:34:46.158Z</time></trkpt><trkpt lat="43.0639319" lon="13.1937068"><ele>716.5</ele><time>2026-05-03T11:34:50.158Z</time></trkpt><trkpt lat="43.0639986" lon="13.1937614"><ele>718.0</ele><time>2026-05-03T11:34:54.159Z</time></trkpt><trkpt lat="43.0640567" lon="13.1938082"><ele>718.0</ele><time>2026-05-03T11:34:57.158Z</time></trkpt><trkpt lat="43.0641018" lon="13.1938689"><ele>718.0</ele><time>2026-05-03T11:35:00.161Z</time></trkpt><trkpt lat="43.0641372" lon="13.193948"><ele>718.0</ele><time>2026-05-03T11:35:03.159Z</time></trkpt><trkpt lat="43.06416" lon="13.1940294"><ele>718.0</ele><time>2026-05-03T11:35:06.129Z</time></trkpt><trkpt lat="43.0641604" lon="13.1941207"><ele>718.0</ele><time>2026-05-03T11:35:09.159Z</time></trkpt><trkpt lat="43.0641611" lon="13.1942166"><ele>718.0</ele><time>2026-05-03T11:35:12.158Z</time></trkpt><trkpt lat="43.0641677" lon="13.194309"><ele>718.0</ele><time>2026-05-03T11:35:15.158Z</time></trkpt><trkpt lat="43.0641724" lon="13.1944046"><ele>716.1428571428571</ele><time>2026-05-03T11:35:18.159Z</time></trkpt><trkpt lat="43.064183" lon="13.194499"><ele>714.2857142857143</ele><time>2026-05-03T11:35:21.16Z</time></trkpt><trkpt lat="43.0641981" lon="13.1945923"><ele>712.4285714285713</ele><time>2026-05-03T11:35:24.157Z</time></trkpt><trkpt lat="43.0642101" lon="13.1946921"><ele>710.5714285714286</ele><time>2026-05-03T11:35:28.158Z</time></trkpt><trkpt lat="43.0642031" lon="13.1947945"><ele>708.7142857142857</ele><time>2026-05-03T11:35:31.158Z</time></trkpt><trkpt lat="43.0641999" lon="13.1948872"><ele>706.8571428571428</ele><time>2026-05-03T11:35:34.159Z</time></trkpt><trkpt lat="43.0641842" lon="13.195002"><ele>705.0</ele><time>2026-05-03T11:35:38.158Z</time></trkpt><trkpt lat="43.0641592" lon="13.1950955"><ele>704.9999999999999</ele><time>2026-05-03T11:35:41.158Z</time></trkpt><trkpt lat="43.0641354" lon="13.1951793"><ele>705.0</ele><time>2026-05-03T11:35:44.157Z</time></trkpt><trkpt lat="43.0640979" lon="13.1952686"><ele>705.0</ele><time>2026-05-03T11:35:47.157Z</time></trkpt><trkpt lat="43.0640765" lon="13.1953577"><ele>705.0</ele><time>2026-05-03T11:35:51.158Z</time></trkpt><trkpt lat="43.0640174" lon="13.1954285"><ele>705.0</ele><time>2026-05-03T11:35:55.157Z</time></trkpt><trkpt lat="43.063945" lon="13.1954783"><ele>704.9999999999999</ele><time>2026-05-03T11:35:59.16Z</time></trkpt><trkpt lat="43.0639044" lon="13.1955463"><ele>705.0</ele><time>2026-05-03T11:36:02.156Z</time></trkpt><trkpt lat="43.0638856" lon="13.1956374"><ele>711.6666666666666</ele><time>2026-05-03T11:36:05.157Z</time></trkpt><trkpt lat="43.0638518" lon="13.1957337"><ele>718.3333333333334</ele><time>2026-05-03T11:36:08.157Z</time></trkpt><trkpt lat="43.0638309" lon="13.1958299"><ele>725.0</ele><time>2026-05-03T11:36:11.158Z</time></trkpt><trkpt lat="43.063803" lon="13.1959229"><ele>731.6666666666667</ele><time>2026-05-03T11:36:14.16Z</time></trkpt><trkpt lat="43.0637577" lon="13.196015"><ele>738.3333333333334</ele><time>2026-05-03T11:36:17.155Z</time></trkpt><trkpt lat="43.0637248" lon="13.1960993"><ele>745.0</ele><time>2026-05-03T11:36:20.155Z</time></trkpt><trkpt lat="43.0636658" lon="13.196188"><ele>745.0</ele><time>2026-05-03T11:36:23.158Z</time></trkpt><trkpt lat="43.0636124" lon="13.196273"><ele>745.0</ele><time>2026-05-03T11:36:27.158Z</time></trkpt><trkpt lat="43.0635761" lon="13.1963447"><ele>745.0</ele><time>2026-05-03T11:36:31.159Z</time></trkpt><trkpt lat="43.0635431" lon="13.1964394"><ele>745.0</ele><time>2026-05-03T11:36:35.156Z</time></trkpt><trkpt lat="43.0634985" lon="13.1965312"><ele>745.0</ele><time>2026-05-03T11:36:39.157Z</time></trkpt><trkpt lat="43.0634668" lon="13.1966297"><ele>745.0</ele><time>2026-05-03T11:36:42.157Z</time></trkpt><trkpt lat="43.0634557" lon="13.1967451"><ele>741.5</ele><time>2026-05-03T11:36:46.158Z</time></trkpt><trkpt lat="43.063423" lon="13.1968447"><ele>738.0</ele><time>2026-05-03T11:36:49.157Z</time></trkpt><trkpt lat="43.0633963" lon="13.19694"><ele>734.5</ele><time>2026-05-03T11:36:52.157Z</time></trkpt><trkpt lat="43.0633403" lon="13.1970368"><ele>731.0</ele><time>2026-05-03T11:36:55.159Z</time></trkpt><trkpt lat="43.0632855" lon="13.197095"><ele>727.5</ele><time>2026-05-03T11:36:58.157Z</time></trkpt><trkpt lat="43.0632415" lon="13.1971658"><ele>724.0</ele><time>2026-05-03T11:37:01.158Z</time></trkpt><trkpt lat="43.0631757" lon="13.1972431"><ele>726.8571428571429</ele><time>2026-05-03T11:37:04.157Z</time></trkpt><trkpt lat="43.0631088" lon="13.1972942"><ele>729.7142857142857</ele><time>2026-05-03T11:37:07.158Z</time></trkpt><trkpt lat="43.0630488" lon="13.1973236"><ele>732.5714285714287</ele><time>2026-05-03T11:37:10.155Z</time></trkpt><trkpt lat="43.0630006" lon="13.1973808"><ele>735.4285714285714</ele><time>2026-05-03T11:37:13.156Z</time></trkpt><trkpt lat="43.0629657" lon="13.1974654"><ele>738.2857142857143</ele><time>2026-05-03T11:37:17.159Z</time></trkpt><trkpt lat="43.0629705" lon="13.1975813"><ele>741.1428571428572</ele><time>2026-05-03T11:37:20.159Z</time></trkpt><trkpt lat="43.0629851" lon="13.1977022"><ele>744.0</ele><time>2026-05-03T11:37:23.159Z</time></trkpt><trkpt lat="43.0630238" lon="13.1977986"><ele>744.0</ele><time>2026-05-03T11:37:26.158Z</time></trkpt><trkpt lat="43.0630831" lon="13.197848"><ele>744.0</ele><time>2026-05-03T11:37:29.156Z</time></trkpt><trkpt lat="43.0631454" lon="13.1978746"><ele>744.0</ele><time>2026-05-03T11:37:31.156Z</time></trkpt><trkpt lat="43.0632278" lon="13.1979039"><ele>744.0</ele><time>2026-05-03T11:37:35.156Z</time></trkpt><trkpt lat="43.0633048" lon="13.1979318"><ele>744.0</ele><time>2026-05-03T11:37:38.159Z</time></trkpt><trkpt lat="43.0633798" lon="13.1979649"><ele>744.0</ele><time>2026-05-03T11:37:41.157Z</time></trkpt><trkpt lat="43.0634508" lon="13.1980129"><ele>741.8571428571429</ele><time>2026-05-03T11:37:44.159Z</time></trkpt><trkpt lat="43.0634807" lon="13.1980959"><ele>739.7142857142858</ele><time>2026-05-03T11:37:47.156Z</time></trkpt><trkpt lat="43.0635402" lon="13.1981788"><ele>737.5714285714287</ele><time>2026-05-03T11:37:50.158Z</time></trkpt><trkpt lat="43.0635952" lon="13.198241"><ele>735.4285714285714</ele><time>2026-05-03T11:37:53.156Z</time></trkpt><trkpt lat="43.0636553" lon="13.1983086"><ele>733.2857142857142</ele><time>2026-05-03T11:37:56.157Z</time></trkpt><trkpt lat="43.0637178" lon="13.1983492"><ele>731.1428571428572</ele><time>2026-05-03T11:37:58.158Z</time></trkpt><trkpt lat="43.0637878" lon="13.1983763"><ele>729.0</ele><time>2026-05-03T11:38:00.158Z</time></trkpt><trkpt lat="43.0638611" lon="13.1983914"><ele>729.0</ele><time>2026-05-03T11:38:02.158Z</time></trkpt><trkpt lat="43.0639359" lon="13.1984099"><ele>729.0</ele><time>2026-05-03T11:38:04.156Z</time></trkpt><trkpt lat="43.0640038" lon="13.1984242"><ele>729.0</ele><time>2026-05-03T11:38:06.155Z</time></trkpt><trkpt lat="43.0640716" lon="13.1984241"><ele>729.0</ele><time>2026-05-03T11:38:08.158Z</time></trkpt><trkpt lat="43.0641579" lon="13.1984159"><ele>729.0</ele><time>2026-05-03T11:38:10.157Z</time></trkpt><trkpt lat="43.0642575" lon="13.1984199"><ele>729.0</ele><time>2026-05-03T11:38:12.158Z</time></trkpt><trkpt lat="43.0643418" lon="13.1983973"><ele>726.8333333333334</ele><time>2026-05-03T11:38:14.156Z</time></trkpt><trkpt lat="43.0644278" lon="13.1983943"><ele>724.6666666666666</ele><time>2026-05-03T11:38:16.159Z</time></trkpt><trkpt lat="43.0645122" lon="13.1984088"><ele>722.5</ele><time>2026-05-03T11:38:18.154Z</time></trkpt><trkpt lat="43.0645992" lon="13.1984423"><ele>720.3333333333333</ele><time>2026-05-03T11:38:20.156Z</time></trkpt><trkpt lat="43.0646734" lon="13.198495"><ele>718.1666666666666</ele><time>2026-05-03T11:38:22.156Z</time></trkpt><trkpt lat="43.0647266" lon="13.1985636"><ele>716.0</ele><time>2026-05-03T11:38:24.159Z</time></trkpt><trkpt lat="43.0647668" lon="13.1986385"><ele>716.0000000000001</ele><time>2026-05-03T11:38:26.156Z</time></trkpt><trkpt lat="43.0648174" lon="13.1987269"><ele>716.0</ele><time>2026-05-03T11:38:28.158Z</time></trkpt><trkpt lat="43.0648701" lon="13.1987994"><ele>716.0</ele><time>2026-05-03T11:38:30.159Z</time></trkpt><trkpt lat="43.0649189" lon="13.1988772"><ele>716.0</ele><time>2026-05-03T11:38:32.159Z</time></trkpt><trkpt lat="43.0649596" lon="13.1989608"><ele>716.0</ele><time>2026-05-03T11:38:34.157Z</time></trkpt><trkpt lat="43.0649844" lon="13.1990405"><ele>716.0000000000001</ele><time>2026-05-03T11:38:36.156Z</time></trkpt><trkpt lat="43.0650119" lon="13.1991209"><ele>716.0</ele><time>2026-05-03T11:38:38.156Z</time></trkpt><trkpt lat="43.06506" lon="13.1991948"><ele>717.2857142857143</ele><time>2026-05-03T11:38:40.159Z</time></trkpt><trkpt lat="43.0651025" lon="13.1992629"><ele>718.5714285714286</ele><time>2026-05-03T11:38:42.157Z</time></trkpt><trkpt lat="43.0651604" lon="13.1993408"><ele>719.8571428571429</ele><time>2026-05-03T11:38:45.157Z</time></trkpt><trkpt lat="43.0651844" lon="13.1994253"><ele>721.1428571428571</ele><time>2026-05-03T11:41:55.158Z</time></trkpt><trkpt lat="43.0652279" lon="13.1994969"><ele>722.4285714285714</ele><time>2026-05-03T11:41:58.161Z</time></trkpt><trkpt lat="43.0652797" lon="13.1995684"><ele>723.7142857142858</ele><time>2026-05-03T11:42:01.155Z</time></trkpt><trkpt lat="43.0653246" lon="13.1996401"><ele>725.0</ele><time>2026-05-03T11:42:04.157Z</time></trkpt><trkpt lat="43.0653633" lon="13.1997218"><ele>725.0</ele><time>2026-05-03T11:42:07.16Z</time></trkpt><trkpt lat="43.0654109" lon="13.1997958"><ele>725.0</ele><time>2026-05-03T11:42:10.157Z</time></trkpt><trkpt lat="43.0654262" lon="13.1999003"><ele>725.0</ele><time>2026-05-03T11:42:13.159Z</time></trkpt><trkpt lat="43.0654842" lon="13.1999761"><ele>725.0</ele><time>2026-05-03T11:42:16.155Z</time></trkpt><trkpt lat="43.0655397" lon="13.2000508"><ele>725.0</ele><time>2026-05-03T11:42:19.16Z</time></trkpt><trkpt lat="43.0655913" lon="13.200138"><ele>725.0</ele><time>2026-05-03T11:42:22.156Z</time></trkpt><trkpt lat="43.0656371" lon="13.2002233"><ele>724.1666666666666</ele><time>2026-05-03T11:42:25.156Z</time></trkpt><trkpt lat="43.0656801" lon="13.2002992"><ele>723.3333333333333</ele><time>2026-05-03T11:42:28.157Z</time></trkpt><trkpt lat="43.06575" lon="13.2003751"><ele>722.5</ele><time>2026-05-03T11:42:31.158Z</time></trkpt><trkpt lat="43.0658279" lon="13.2004305"><ele>721.6666666666666</ele><time>2026-05-03T11:42:34.157Z</time></trkpt><trkpt lat="43.0658771" lon="13.2005195"><ele>720.8333333333334</ele><time>2026-05-03T11:42:37.157Z</time></trkpt><trkpt lat="43.0659311" lon="13.2006171"><ele>720.0</ele><time>2026-05-03T11:42:40.158Z</time></trkpt><trkpt lat="43.0659926" lon="13.2006892"><ele>724.6666666666666</ele><time>2026-05-03T11:42:43.16Z</time></trkpt><trkpt lat="43.0660467" lon="13.2007371"><ele>729.3333333333334</ele><time>2026-05-03T11:42:45.155Z</time></trkpt><trkpt lat="43.0661227" lon="13.2008086"><ele>734.0</ele><time>2026-05-03T11:42:48.156Z</time></trkpt><trkpt lat="43.0661772" lon="13.2008918"><ele>738.6666666666667</ele><time>2026-05-03T11:42:51.159Z</time></trkpt><trkpt lat="43.0662191" lon="13.2009771"><ele>743.3333333333334</ele><time>2026-05-03T11:42:54.159Z</time></trkpt><trkpt lat="43.0662396" lon="13.2010722"><ele>748.0</ele><time>2026-05-03T11:42:57.158Z</time></trkpt><trkpt lat="43.0662724" lon="13.2011564"><ele>748.0</ele><time>2026-05-03T11:43:00.157Z</time></trkpt><trkpt lat="43.0662946" lon="13.2012472"><ele>748.0</ele><time>2026-05-03T11:43:03.157Z</time></trkpt><trkpt lat="43.0663441" lon="13.2013341"><ele>748.0</ele><time>2026-05-03T11:43:06.161Z</time></trkpt><trkpt lat="43.0663984" lon="13.2013998"><ele>748.0</ele><time>2026-05-03T11:43:09.159Z</time></trkpt><trkpt lat="43.0664468" lon="13.2014848"><ele>748.0</ele><time>2026-05-03T11:43:12.16Z</time></trkpt><trkpt lat="43.0665172" lon="13.2015576"><ele>748.0</ele><time>2026-05-03T11:43:15.157Z</time></trkpt><trkpt lat="43.0665692" lon="13.2016253"><ele>746.6666666666667</ele><time>2026-05-03T11:43:18.16Z</time></trkpt><trkpt lat="43.0666241" lon="13.2017062"><ele>745.3333333333334</ele><time>2026-05-03T11:43:21.158Z</time></trkpt><trkpt lat="43.066673" lon="13.2017962"><ele>744.0</ele><time>2026-05-03T11:43:24.157Z</time></trkpt><trkpt lat="43.0667416" lon="13.2018601"><ele>742.6666666666666</ele><time>2026-05-03T11:43:27.155Z</time></trkpt><trkpt lat="43.066798" lon="13.2019324"><ele>741.3333333333333</ele><time>2026-05-03T11:43:30.159Z</time></trkpt><trkpt lat="43.0668656" lon="13.202004"><ele>740.0</ele><time>2026-05-03T11:43:33.158Z</time></trkpt><trkpt lat="43.066924" lon="13.2020681"><ele>739.9999999999999</ele><time>2026-05-03T11:43:36.158Z</time></trkpt><trkpt lat="43.0669805" lon="13.2021354"><ele>740.0</ele><time>2026-05-03T11:43:39.158Z</time></trkpt><trkpt lat="43.0670448" lon="13.2022029"><ele>740.0</ele><time>2026-05-03T11:43:42.159Z</time></trkpt><trkpt lat="43.0671085" lon="13.2022524"><ele>740.0</ele><time>2026-05-03T11:43:45.16Z</time></trkpt><trkpt lat="43.0671603" lon="13.2023093"><ele>740.0</ele><time>2026-05-03T11:43:48.159Z</time></trkpt><trkpt lat="43.0672173" lon="13.2024016"><ele>739.9999999999999</ele><time>2026-05-03T11:43:52.159Z</time></trkpt><trkpt lat="43.0672594" lon="13.2024687"><ele>740.0</ele><time>2026-05-03T11:43:55.16Z</time></trkpt><trkpt lat="43.0673132" lon="13.2025376"><ele>744.1666666666666</ele><time>2026-05-03T11:43:58.16Z</time></trkpt><trkpt lat="43.0673356" lon="13.2026207"><ele>748.3333333333333</ele><time>2026-05-03T11:44:01.158Z</time></trkpt><trkpt lat="43.0673132" lon="13.202722"><ele>752.5</ele><time>2026-05-03T11:44:05.16Z</time></trkpt><trkpt lat="43.0672453" lon="13.2027856"><ele>756.6666666666666</ele><time>2026-05-03T11:44:09.157Z</time></trkpt><trkpt lat="43.0671844" lon="13.2028556"><ele>760.8333333333334</ele><time>2026-05-03T11:44:13.159Z</time></trkpt><trkpt lat="43.0671219" lon="13.2029231"><ele>765.0</ele><time>2026-05-03T11:44:17.157Z</time></trkpt><trkpt lat="43.0670542" lon="13.2029565"><ele>765.0</ele><time>2026-05-03T11:44:20.158Z</time></trkpt><trkpt lat="43.0669973" lon="13.2029995"><ele>765.0</ele><time>2026-05-03T11:44:24.16Z</time></trkpt><trkpt lat="43.0669285" lon="13.203028"><ele>765.0</ele><time>2026-05-03T11:44:27.159Z</time></trkpt><trkpt lat="43.0668494" lon="13.2030719"><ele>765.0</ele><time>2026-05-03T11:44:31.158Z</time></trkpt><trkpt lat="43.0667874" lon="13.2031516"><ele>765.0</ele><time>2026-05-03T11:44:35.155Z</time></trkpt><trkpt lat="43.066715" lon="13.2032143"><ele>765.0</ele><time>2026-05-03T11:44:38.157Z</time></trkpt><trkpt lat="43.0666544" lon="13.2032632"><ele>770.4285714285714</ele><time>2026-05-03T11:44:41.158Z</time></trkpt><trkpt lat="43.0666103" lon="13.2033333"><ele>775.8571428571429</ele><time>2026-05-03T11:44:44.16Z</time></trkpt><trkpt lat="43.066562" lon="13.2033969"><ele>781.2857142857142</ele><time>2026-05-03T11:44:47.155Z</time></trkpt><trkpt lat="43.066508" lon="13.2034702"><ele>786.7142857142858</ele><time>2026-05-03T11:44:50.159Z</time></trkpt><trkpt lat="43.0664584" lon="13.20355"><ele>792.1428571428571</ele><time>2026-05-03T11:44:53.159Z</time></trkpt><trkpt lat="43.0664182" lon="13.2036506"><ele>797.5714285714286</ele><time>2026-05-03T11:44:56.158Z</time></trkpt><trkpt lat="43.0664064" lon="13.2037558"><ele>803.0</ele><time>2026-05-03T11:45:00.16Z</time></trkpt><trkpt lat="43.0663965" lon="13.2038582"><ele>802.9999999999999</ele><time>2026-05-03T11:45:04.157Z</time></trkpt><trkpt lat="43.0663748" lon="13.2039397"><ele>803.0</ele><time>2026-05-03T11:45:08.157Z</time></trkpt><trkpt lat="43.0663374" lon="13.2040093"><ele>803.0</ele><time>2026-05-03T11:45:11.159Z</time></trkpt><trkpt lat="43.0662827" lon="13.204079"><ele>803.0</ele><time>2026-05-03T11:45:14.16Z</time></trkpt><trkpt lat="43.0662226" lon="13.2041465"><ele>803.0</ele><time>2026-05-03T11:45:17.157Z</time></trkpt><trkpt lat="43.0661726" lon="13.2042212"><ele>802.9999999999999</ele><time>2026-05-03T11:45:21.159Z</time></trkpt><trkpt lat="43.0661285" lon="13.204302"><ele>803.0</ele><time>2026-05-03T11:45:24.157Z</time></trkpt><trkpt lat="43.0660906" lon="13.2043921"><ele>799.6666666666667</ele><time>2026-05-03T11:45:27.16Z</time></trkpt><trkpt lat="43.0660558" lon="13.2045022"><ele>796.3333333333334</ele><time>2026-05-03T11:45:30.16Z</time></trkpt><trkpt lat="43.066018" lon="13.2045963"><ele>793.0</ele><time>2026-05-03T11:45:33.156Z</time></trkpt><trkpt lat="43.0659968" lon="13.2046897"><ele>789.6666666666667</ele><time>2026-05-03T11:45:36.16Z</time></trkpt><trkpt lat="43.0659447" lon="13.2047561"><ele>786.3333333333334</ele><time>2026-05-03T11:45:39.159Z</time></trkpt><trkpt lat="43.0658918" lon="13.2048108"><ele>783.0</ele><time>2026-05-03T11:45:42.158Z</time></trkpt><trkpt lat="43.0658314" lon="13.2049008"><ele>786.8571428571428</ele><time>2026-05-03T11:45:46.159Z</time></trkpt><trkpt lat="43.0657667" lon="13.2049521"><ele>790.7142857142858</ele><time>2026-05-03T11:45:49.156Z</time></trkpt><trkpt lat="43.0656942" lon="13.2050061"><ele>794.5714285714286</ele><time>2026-05-03T11:45:52.159Z</time></trkpt><trkpt lat="43.0656385" lon="13.2050628"><ele>798.4285714285713</ele><time>2026-05-03T11:45:55.16Z</time></trkpt><trkpt lat="43.0656073" lon="13.2051399"><ele>802.2857142857142</ele><time>2026-05-03T11:45:58.16Z</time></trkpt><trkpt lat="43.0655865" lon="13.2052228"><ele>806.1428571428571</ele><time>2026-05-03T11:46:01.16Z</time></trkpt><trkpt lat="43.0655369" lon="13.2053151"><ele>810.0</ele><time>2026-05-03T11:46:04.157Z</time></trkpt><trkpt lat="43.0655319" lon="13.2054283"><ele>810.0</ele><time>2026-05-03T11:46:07.16Z</time></trkpt><trkpt lat="43.065571" lon="13.2055376"><ele>810.0</ele><time>2026-05-03T11:46:10.157Z</time></trkpt><trkpt lat="43.0656265" lon="13.2055934"><ele>810.0</ele><time>2026-05-03T11:46:12.157Z</time></trkpt><trkpt lat="43.0657034" lon="13.2056316"><ele>810.0</ele><time>2026-05-03T11:46:15.16Z</time></trkpt><trkpt lat="43.0657784" lon="13.2056521"><ele>810.0</ele><time>2026-05-03T11:46:18.158Z</time></trkpt><trkpt lat="43.0659813" lon="13.2056603"><ele>805.5</ele><time>2026-05-03T11:46:27.155Z</time></trkpt><trkpt lat="43.0660382" lon="13.2056981"><ele>801.0</ele><time>2026-05-03T11:46:30.157Z</time></trkpt><trkpt lat="43.0661012" lon="13.205769"><ele>796.5</ele><time>2026-05-03T11:46:33.16Z</time></trkpt><trkpt lat="43.0661751" lon="13.2058481"><ele>792.0</ele><time>2026-05-03T11:46:36.156Z</time></trkpt><trkpt lat="43.0662309" lon="13.2058985"><ele>787.5</ele><time>2026-05-03T11:46:39.158Z</time></trkpt><trkpt lat="43.0663073" lon="13.205933"><ele>783.0</ele><time>2026-05-03T11:46:42.157Z</time></trkpt><trkpt lat="43.066369" lon="13.2059573"><ele>783.0</ele><time>2026-05-03T11:46:44.158Z</time></trkpt><trkpt lat="43.0664299" lon="13.2059952"><ele>783.0</ele><time>2026-05-03T11:46:46.16Z</time></trkpt><trkpt lat="43.066495" lon="13.2060367"><ele>783.0</ele><time>2026-05-03T11:46:48.158Z</time></trkpt><trkpt lat="43.0665565" lon="13.206068"><ele>783.0</ele><time>2026-05-03T11:46:50.159Z</time></trkpt><trkpt lat="43.0666396" lon="13.2061361"><ele>783.0</ele><time>2026-05-03T11:46:53.16Z</time></trkpt><trkpt lat="43.0667151" lon="13.2061757"><ele>783.0</ele><time>2026-05-03T11:46:56.158Z</time></trkpt><trkpt lat="43.0667808" lon="13.2062179"><ele>786.5</ele><time>2026-05-03T11:46:59.157Z</time></trkpt><trkpt lat="43.0668475" lon="13.2062393"><ele>790.0</ele><time>2026-05-03T11:47:02.157Z</time></trkpt><trkpt lat="43.0669249" lon="13.2062682"><ele>793.5</ele><time>2026-05-03T11:47:05.157Z</time></trkpt><trkpt lat="43.0669928" lon="13.2063108"><ele>797.0</ele><time>2026-05-03T11:47:08.159Z</time></trkpt><trkpt lat="43.0670489" lon="13.2063948"><ele>800.5</ele><time>2026-05-03T11:47:11.16Z</time></trkpt><trkpt lat="43.0670866" lon="13.2064742"><ele>804.0</ele><time>2026-05-03T11:47:14.157Z</time></trkpt><trkpt lat="43.0671555" lon="13.2065661"><ele>804.0</ele><time>2026-05-03T11:47:18.16Z</time></trkpt><trkpt lat="43.067215" lon="13.2065945"><ele>804.0</ele><time>2026-05-03T11:47:20.16Z</time></trkpt><trkpt lat="43.067284" lon="13.2066537"><ele>804.0</ele><time>2026-05-03T11:47:23.157Z</time></trkpt><trkpt lat="43.0673349" lon="13.2067153"><ele>804.0</ele><time>2026-05-03T11:47:25.157Z</time></trkpt><trkpt lat="43.0673945" lon="13.2067713"><ele>804.0</ele><time>2026-05-03T11:47:27.159Z</time></trkpt><trkpt lat="43.0674903" lon="13.2068322"><ele>804.0</ele><time>2026-05-03T11:47:29.158Z</time></trkpt><trkpt lat="43.0675553" lon="13.2068795"><ele>797.2</ele><time>2026-05-03T11:47:31.159Z</time></trkpt><trkpt lat="43.0676464" lon="13.2069428"><ele>790.4000000000001</ele><time>2026-05-03T11:47:34.157Z</time></trkpt><trkpt lat="43.067723" lon="13.2069755"><ele>783.6</ele><time>2026-05-03T11:47:36.157Z</time></trkpt><trkpt lat="43.0677527" lon="13.2070786"><ele>776.8</ele><time>2026-05-03T11:47:39.159Z</time></trkpt><trkpt lat="43.0677916" lon="13.2071956"><ele>770.0</ele><time>2026-05-03T11:47:42.157Z</time></trkpt><trkpt lat="43.0678029" lon="13.2073212"><ele>774.6666666666667</ele><time>2026-05-03T11:47:45.158Z</time></trkpt><trkpt lat="43.0678018" lon="13.2074086"><ele>779.3333333333334</ele><time>2026-05-03T11:47:47.157Z</time></trkpt><trkpt lat="43.0678017" lon="13.2075167"><ele>784.0</ele><time>2026-05-03T11:47:49.157Z</time></trkpt><trkpt lat="43.0677866" lon="13.2076516"><ele>788.6666666666667</ele><time>2026-05-03T11:47:51.159Z</time></trkpt><trkpt lat="43.0678325" lon="13.2077641"><ele>793.3333333333334</ele><time>2026-05-03T11:47:53.158Z</time></trkpt><trkpt lat="43.067857" lon="13.2078971"><ele>798.0</ele><time>2026-05-03T11:47:55.158Z</time></trkpt><trkpt lat="43.06792" lon="13.2079286"><ele>798.0</ele><time>2026-05-03T11:47:56.158Z</time></trkpt><trkpt lat="43.0679609" lon="13.2080245"><ele>798.0</ele><time>2026-05-03T11:47:58.158Z</time></trkpt><trkpt lat="43.0680059" lon="13.2080971"><ele>798.0</ele><time>2026-05-03T11:48:00.157Z</time></trkpt><trkpt lat="43.0680535" lon="13.2081608"><ele>798.0</ele><time>2026-05-03T11:48:02.159Z</time></trkpt><trkpt lat="43.0681325" lon="13.2082354"><ele>798.0</ele><time>2026-05-03T11:48:04.158Z</time></trkpt><trkpt lat="43.0681888" lon="13.2083371"><ele>798.0</ele><time>2026-05-03T11:48:06.16Z</time></trkpt><trkpt lat="43.0682201" lon="13.2084538"><ele>800.6666666666666</ele><time>2026-05-03T11:48:08.16Z</time></trkpt><trkpt lat="43.0682287" lon="13.2085567"><ele>803.3333333333333</ele><time>2026-05-03T11:48:10.157Z</time></trkpt><trkpt lat="43.068226" lon="13.2086528"><ele>806.0</ele><time>2026-05-03T11:48:12.158Z</time></trkpt><trkpt lat="43.0682053" lon="13.2087609"><ele>808.6666666666666</ele><time>2026-05-03T11:48:14.158Z</time></trkpt><trkpt lat="43.0682087" lon="13.208884"><ele>811.3333333333333</ele><time>2026-05-03T11:48:16.157Z</time></trkpt><trkpt lat="43.0682114" lon="13.2090022"><ele>814.0</ele><time>2026-05-03T11:48:18.158Z</time></trkpt><trkpt lat="43.0681908" lon="13.2091018"><ele>815.3333333333333</ele><time>2026-05-03T11:48:20.155Z</time></trkpt><trkpt lat="43.0681185" lon="13.2092029"><ele>816.6666666666666</ele><time>2026-05-03T11:48:22.158Z</time></trkpt><trkpt lat="43.0680854" lon="13.209286"><ele>818.0</ele><time>2026-05-03T11:48:24.159Z</time></trkpt><trkpt lat="43.0680387" lon="13.2093609"><ele>819.3333333333333</ele><time>2026-05-03T11:48:26.158Z</time></trkpt><trkpt lat="43.0679992" lon="13.2094754"><ele>820.6666666666666</ele><time>2026-05-03T11:48:29.158Z</time></trkpt><trkpt lat="43.0679871" lon="13.2095606"><ele>822.0</ele><time>2026-05-03T11:48:31.158Z</time></trkpt><trkpt lat="43.0679791" lon="13.2096952"><ele>822.0</ele><time>2026-05-03T11:48:33.157Z</time></trkpt><trkpt lat="43.0680155" lon="13.2098238"><ele>822.0</ele><time>2026-05-03T11:48:35.157Z</time></trkpt><trkpt lat="43.0680654" lon="13.2099005"><ele>822.0</ele><time>2026-05-03T11:48:37.158Z</time></trkpt><trkpt lat="43.0681509" lon="13.2099726"><ele>822.0</ele><time>2026-05-03T11:48:39.155Z</time></trkpt><trkpt lat="43.0682483" lon="13.2100085"><ele>822.0</ele><time>2026-05-03T11:48:41.16Z</time></trkpt><trkpt lat="43.0683388" lon="13.2100443"><ele>814.2</ele><time>2026-05-03T11:48:44.157Z</time></trkpt><trkpt lat="43.0684329" lon="13.2100993"><ele>806.4000000000001</ele><time>2026-05-03T11:48:46.157Z</time></trkpt><trkpt lat="43.0685233" lon="13.2101628"><ele>798.5999999999999</ele><time>2026-05-03T11:48:48.158Z</time></trkpt><trkpt lat="43.0685909" lon="13.210225"><ele>790.8</ele><time>2026-05-03T11:48:50.157Z</time></trkpt><trkpt lat="43.0686596" lon="13.2103173"><ele>783.0</ele><time>2026-05-03T11:48:52.159Z</time></trkpt><trkpt lat="43.0686879" lon="13.2104373"><ele>783.0</ele><time>2026-05-03T11:48:54.159Z</time></trkpt><trkpt lat="43.0687708" lon="13.2105366"><ele>783.0</ele><time>2026-05-03T11:48:56.158Z</time></trkpt><trkpt lat="43.0688453" lon="13.2106074"><ele>783.0</ele><time>2026-05-03T11:48:58.16Z</time></trkpt><trkpt lat="43.0689358" lon="13.2107229"><ele>783.0</ele><time>2026-05-03T11:49:00.157Z</time></trkpt><trkpt lat="43.0690221" lon="13.2107962"><ele>783.0</ele><time>2026-05-03T11:49:02.159Z</time></trkpt><trkpt lat="43.0691583" lon="13.210928"><ele>783.8</ele><time>2026-05-03T11:49:04.159Z</time></trkpt><trkpt lat="43.0692247" lon="13.2109305"><ele>784.5999999999999</ele><time>2026-05-03T11:49:05.158Z</time></trkpt><trkpt lat="43.0693438" lon="13.2109743"><ele>785.4000000000001</ele><time>2026-05-03T11:49:07.161Z</time></trkpt><trkpt lat="43.069418" lon="13.2110029"><ele>786.2</ele><time>2026-05-03T11:49:08.158Z</time></trkpt><trkpt lat="43.0695358" lon="13.2110938"><ele>787.0</ele><time>2026-05-03T11:49:10.158Z</time></trkpt><trkpt lat="43.0696256" lon="13.2111593"><ele>787.0</ele><time>2026-05-03T11:49:12.159Z</time></trkpt><trkpt lat="43.0697313" lon="13.2112068"><ele>787.0</ele><time>2026-05-03T11:49:14.16Z</time></trkpt><trkpt lat="43.0698031" lon="13.2112288"><ele>787.0</ele><time>2026-05-03T11:49:15.159Z</time></trkpt><trkpt lat="43.0698702" lon="13.2112367"><ele>787.0</ele><time>2026-05-03T11:49:16.156Z</time></trkpt><trkpt lat="43.0699683" lon="13.2112568"><ele>787.0</ele><time>2026-05-03T11:49:18.158Z</time></trkpt><trkpt lat="43.0700892" lon="13.2112652"><ele>783.7142857142857</ele><time>2026-05-03T11:49:20.16Z</time></trkpt><trkpt lat="43.0701583" lon="13.2112597"><ele>780.4285714285713</ele><time>2026-05-03T11:49:21.159Z</time></trkpt><trkpt lat="43.0702217" lon="13.2112784"><ele>777.1428571428571</ele><time>2026-05-03T11:49:22.159Z</time></trkpt><trkpt lat="43.070289" lon="13.2113062"><ele>773.8571428571429</ele><time>2026-05-03T11:49:23.159Z</time></trkpt><trkpt lat="43.0703545" lon="13.2113195"><ele>770.5714285714286</ele><time>2026-05-03T11:49:24.158Z</time></trkpt><trkpt lat="43.07042" lon="13.2113283"><ele>767.2857142857143</ele><time>2026-05-03T11:49:25.159Z</time></trkpt><trkpt lat="43.0704883" lon="13.2113315"><ele>764.0</ele><time>2026-05-03T11:49:26.159Z</time></trkpt><trkpt lat="43.0705535" lon="13.2113443"><ele>764.0</ele><time>2026-05-03T11:49:27.159Z</time></trkpt><trkpt lat="43.0706543" lon="13.2113257"><ele>764.0</ele><time>2026-05-03T11:49:29.16Z</time></trkpt><trkpt lat="43.0707465" lon="13.2113308"><ele>764.0</ele><time>2026-05-03T11:49:31.158Z</time></trkpt><trkpt lat="43.0708276" lon="13.2113268"><ele>764.0</ele><time>2026-05-03T11:49:33.159Z</time></trkpt><trkpt lat="43.0709318" lon="13.211359"><ele>764.0</ele><time>2026-05-03T11:49:35.16Z</time></trkpt><trkpt lat="43.0710404" lon="13.2114113"><ele>767.0</ele><time>2026-05-03T11:49:37.16Z</time></trkpt><trkpt lat="43.0711193" lon="13.211542"><ele>770.0</ele><time>2026-05-03T11:49:39.156Z</time></trkpt><trkpt lat="43.0711366" lon="13.2116254"><ele>773.0</ele><time>2026-05-03T11:49:40.162Z</time></trkpt><trkpt lat="43.07113" lon="13.2117154"><ele>776.0</ele><time>2026-05-03T11:49:41.158Z</time></trkpt><trkpt lat="43.0710984" lon="13.2118674"><ele>779.0000000000001</ele><time>2026-05-03T11:49:43.158Z</time></trkpt><trkpt lat="43.0710674" lon="13.2119425"><ele>782.0</ele><time>2026-05-03T11:49:44.159Z</time></trkpt><trkpt lat="43.0709833" lon="13.2120652"><ele>782.0000000000001</ele><time>2026-05-03T11:49:46.158Z</time></trkpt><trkpt lat="43.0708903" lon="13.212165"><ele>782.0</ele><time>2026-05-03T11:49:48.158Z</time></trkpt><trkpt lat="43.0708386" lon="13.2122389"><ele>782.0</ele><time>2026-05-03T11:49:49.16Z</time></trkpt><trkpt lat="43.0708017" lon="13.2123102"><ele>782.0</ele><time>2026-05-03T11:49:50.16Z</time></trkpt><trkpt lat="43.0707741" lon="13.2123883"><ele>782.0000000000001</ele><time>2026-05-03T11:49:51.159Z</time></trkpt><trkpt lat="43.0706964" lon="13.2125057"><ele>782.0</ele><time>2026-05-03T11:49:53.161Z</time></trkpt><trkpt lat="43.0706413" lon="13.212569"><ele>787.5714285714286</ele><time>2026-05-03T11:49:54.16Z</time></trkpt><trkpt lat="43.0705986" lon="13.2126367"><ele>793.1428571428571</ele><time>2026-05-03T11:49:55.159Z</time></trkpt><trkpt lat="43.0705526" lon="13.2126978"><ele>798.7142857142858</ele><time>2026-05-03T11:49:56.159Z</time></trkpt><trkpt lat="43.0705005" lon="13.2127513"><ele>804.2857142857142</ele><time>2026-05-03T11:49:57.158Z</time></trkpt><trkpt lat="43.0704475" lon="13.212814"><ele>809.8571428571429</ele><time>2026-05-03T11:49:58.16Z</time></trkpt><trkpt lat="43.0703991" lon="13.212878"><ele>815.4285714285714</ele><time>2026-05-03T11:49:59.16Z</time></trkpt><trkpt lat="43.0703749" lon="13.2129634"><ele>821.0</ele><time>2026-05-03T11:50:00.16Z</time></trkpt><trkpt lat="43.0703225" lon="13.2130461"><ele>821.0000000000001</ele><time>2026-05-03T11:50:01.16Z</time></trkpt><trkpt lat="43.0703035" lon="13.2131517"><ele>821.0</ele><time>2026-05-03T11:50:02.159Z</time></trkpt><trkpt lat="43.0702776" lon="13.2132345"><ele>821.0</ele><time>2026-05-03T11:50:03.159Z</time></trkpt><trkpt lat="43.0702704" lon="13.2133485"><ele>821.0</ele><time>2026-05-03T11:50:04.158Z</time></trkpt><trkpt lat="43.0702489" lon="13.2134654"><ele>821.0000000000001</ele><time>2026-05-03T11:50:05.159Z</time></trkpt><trkpt lat="43.0702561" lon="13.2135737"><ele>821.0</ele><time>2026-05-03T11:50:06.16Z</time></trkpt><trkpt lat="43.0701696" lon="13.2137258"><ele>819.1666666666667</ele><time>2026-05-03T11:50:08.161Z</time></trkpt><trkpt lat="43.0701054" lon="13.2137875"><ele>817.3333333333334</ele><time>2026-05-03T11:50:09.16Z</time></trkpt><trkpt lat="43.070049" lon="13.2138349"><ele>815.5</ele><time>2026-05-03T11:50:10.159Z</time></trkpt><trkpt lat="43.0699854" lon="13.2138788"><ele>813.6666666666667</ele><time>2026-05-03T11:50:11.161Z</time></trkpt><trkpt lat="43.069927" lon="13.2139251"><ele>811.8333333333334</ele><time>2026-05-03T11:50:12.159Z</time></trkpt><trkpt lat="43.069861" lon="13.2139716"><ele>810.0</ele><time>2026-05-03T11:50:13.16Z</time></trkpt><trkpt lat="43.0697679" lon="13.2140732"><ele>809.9999999999999</ele><time>2026-05-03T11:50:15.159Z</time></trkpt><trkpt lat="43.0697134" lon="13.2141302"><ele>810.0</ele><time>2026-05-03T11:50:16.158Z</time></trkpt><trkpt lat="43.0696783" lon="13.2142053"><ele>810.0</ele><time>2026-05-03T11:50:17.158Z</time></trkpt><trkpt lat="43.0696194" lon="13.2142815"><ele>810.0</ele><time>2026-05-03T11:50:18.159Z</time></trkpt><trkpt lat="43.0695719" lon="13.2143534"><ele>810.0</ele><time>2026-05-03T11:50:19.159Z</time></trkpt><trkpt lat="43.06952" lon="13.2144082"><ele>809.9999999999999</ele><time>2026-05-03T11:50:20.157Z</time></trkpt><trkpt lat="43.0694828" lon="13.214514"><ele>810.0</ele><time>2026-05-03T11:50:21.159Z</time></trkpt><trkpt lat="43.0694568" lon="13.2146004"><ele>810.0</ele><time>2026-05-03T11:50:22.159Z</time></trkpt><trkpt lat="43.0694338" lon="13.2146817"><ele>810.0</ele><time>2026-05-03T11:50:23.16Z</time></trkpt><trkpt lat="43.0694042" lon="13.2147851"><ele>810.0</ele><time>2026-05-03T11:50:24.159Z</time></trkpt><trkpt lat="43.0693765" lon="13.2148663"><ele>810.0</ele><time>2026-05-03T11:50:25.16Z</time></trkpt><trkpt lat="43.0693176" lon="13.2150184"><ele>810.0</ele><time>2026-05-03T11:50:27.159Z</time></trkpt><trkpt lat="43.0692863" lon="13.2151027"><ele>810.0</ele><time>2026-05-03T11:50:28.16Z</time></trkpt><trkpt lat="43.0692487" lon="13.2151759"><ele>809.75</ele><time>2026-05-03T11:50:29.16Z</time></trkpt><trkpt lat="43.0691735" lon="13.2153123"><ele>809.5</ele><time>2026-05-03T11:50:31.161Z</time></trkpt><trkpt lat="43.0690979" lon="13.2154371"><ele>809.25</ele><time>2026-05-03T11:50:33.16Z</time></trkpt><trkpt lat="43.0690293" lon="13.2155516"><ele>809.0</ele><time>2026-05-03T11:50:35.16Z</time></trkpt><trkpt lat="43.0689676" lon="13.2156859"><ele>809.0</ele><time>2026-05-03T11:50:37.158Z</time></trkpt><trkpt lat="43.0689341" lon="13.2158178"><ele>809.0</ele><time>2026-05-03T11:50:39.16Z</time></trkpt><trkpt lat="43.068934" lon="13.2159723"><ele>809.0</ele><time>2026-05-03T11:50:41.16Z</time></trkpt><trkpt lat="43.0689113" lon="13.2160598"><ele>809.0</ele><time>2026-05-03T11:50:42.16Z</time></trkpt><trkpt lat="43.0688854" lon="13.2162189"><ele>809.0</ele><time>2026-05-03T11:50:44.16Z</time></trkpt><trkpt lat="43.0688319" lon="13.2163603"><ele>798.25</ele><time>2026-05-03T11:50:46.159Z</time></trkpt><trkpt lat="43.0687802" lon="13.2164864"><ele>787.5</ele><time>2026-05-03T11:50:48.159Z</time></trkpt><trkpt lat="43.0686758" lon="13.2165628"><ele>776.75</ele><time>2026-05-03T11:50:50.16Z</time></trkpt><trkpt lat="43.0685579" lon="13.2166066"><ele>766.0</ele><time>2026-05-03T11:50:52.158Z</time></trkpt><trkpt lat="43.0684338" lon="13.2166557"><ele>766.0</ele><time>2026-05-03T11:50:54.16Z</time></trkpt><trkpt lat="43.0683135" lon="13.2167191"><ele>766.0</ele><time>2026-05-03T11:50:56.162Z</time></trkpt><trkpt lat="43.0682437" lon="13.2167344"><ele>766.0</ele><time>2026-05-03T11:50:57.16Z</time></trkpt><trkpt lat="43.0681784" lon="13.2167503"><ele>766.0</ele><time>2026-05-03T11:50:58.161Z</time></trkpt><trkpt lat="43.0681079" lon="13.2167632"><ele>766.0</ele><time>2026-05-03T11:50:59.161Z</time></trkpt><trkpt lat="43.0680434" lon="13.2167664"><ele>766.0</ele><time>2026-05-03T11:51:00.16Z</time></trkpt><trkpt lat="43.0679797" lon="13.2167574"><ele>764.0</ele><time>2026-05-03T11:51:01.161Z</time></trkpt><trkpt lat="43.0678689" lon="13.2167184"><ele>762.0</ele><time>2026-05-03T11:51:03.16Z</time></trkpt><trkpt lat="43.0678111" lon="13.2166684"><ele>760.0</ele><time>2026-05-03T11:51:04.159Z</time></trkpt><trkpt lat="43.0677506" lon="13.2166247"><ele>758.0</ele><time>2026-05-03T11:51:05.16Z</time></trkpt><trkpt lat="43.0676918" lon="13.2165797"><ele>756.0</ele><time>2026-05-03T11:51:06.161Z</time></trkpt><trkpt lat="43.0676382" lon="13.2165262"><ele>754.0</ele><time>2026-05-03T11:51:07.16Z</time></trkpt><trkpt lat="43.0675807" lon="13.2164701"><ele>756.1428571428571</ele><time>2026-05-03T11:51:08.159Z</time></trkpt><trkpt lat="43.0675544" lon="13.2163707"><ele>758.2857142857142</ele><time>2026-05-03T11:51:09.162Z</time></trkpt><trkpt lat="43.0675129" lon="13.216303"><ele>760.4285714285713</ele><time>2026-05-03T11:51:10.16Z</time></trkpt><trkpt lat="43.0674718" lon="13.2162318"><ele>762.5714285714286</ele><time>2026-05-03T11:51:11.159Z</time></trkpt><trkpt lat="43.0674266" lon="13.2161632"><ele>764.7142857142858</ele><time>2026-05-03T11:51:12.16Z</time></trkpt><trkpt lat="43.067381" lon="13.2161032"><ele>766.8571428571428</ele><time>2026-05-03T11:51:13.16Z</time></trkpt><trkpt lat="43.067334" lon="13.2160328"><ele>769.0</ele><time>2026-05-03T11:51:14.16Z</time></trkpt><trkpt lat="43.0672431" lon="13.2159386"><ele>769.0</ele><time>2026-05-03T11:51:16.158Z</time></trkpt><trkpt lat="43.06714" lon="13.2158553"><ele>769.0</ele><time>2026-05-03T11:51:18.16Z</time></trkpt><trkpt lat="43.0670374" lon="13.2158048"><ele>769.0</ele><time>2026-05-03T11:51:20.16Z</time></trkpt><trkpt lat="43.0669133" lon="13.2157905"><ele>769.0</ele><time>2026-05-03T11:51:22.161Z</time></trkpt><trkpt lat="43.0668468" lon="13.2158176"><ele>769.0</ele><time>2026-05-03T11:51:23.161Z</time></trkpt><trkpt lat="43.0667212" lon="13.2158686"><ele>768.9999999999999</ele><time>2026-05-03T11:51:25.161Z</time></trkpt><trkpt lat="43.0666631" lon="13.2159038"><ele>769.0</ele><time>2026-05-03T11:51:26.158Z</time></trkpt><trkpt lat="43.0665975" lon="13.2159284"><ele>769.0</ele><time>2026-05-03T11:51:27.162Z</time></trkpt><trkpt lat="43.0665324" lon="13.2159552"><ele>769.0</ele><time>2026-05-03T11:51:28.161Z</time></trkpt><trkpt lat="43.0664089" lon="13.2159194"><ele>768.9999999999999</ele><time>2026-05-03T11:51:30.16Z</time></trkpt><trkpt lat="43.0663505" lon="13.2158847"><ele>769.0</ele><time>2026-05-03T11:51:31.16Z</time></trkpt><trkpt lat="43.0662233" lon="13.2158323"><ele>776.25</ele><time>2026-05-03T11:51:33.16Z</time></trkpt><trkpt lat="43.0661135" lon="13.2158067"><ele>783.5</ele><time>2026-05-03T11:51:35.161Z</time></trkpt><trkpt lat="43.065995" lon="13.2157893"><ele>790.75</ele><time>2026-05-03T11:51:37.16Z</time></trkpt><trkpt lat="43.0658918" lon="13.2158145"><ele>798.0</ele><time>2026-05-03T11:51:39.159Z</time></trkpt><trkpt lat="43.065783" lon="13.2158696"><ele>800.6666666666666</ele><time>2026-05-03T11:51:41.155Z</time></trkpt><trkpt lat="43.0656986" lon="13.215928"><ele>803.3333333333333</ele><time>2026-05-03T11:51:43.156Z</time></trkpt><trkpt lat="43.065647" lon="13.2160085"><ele>806.0</ele><time>2026-05-03T11:51:44.162Z</time></trkpt><trkpt lat="43.0655863" lon="13.2159818"><ele>808.6666666666666</ele><time>2026-05-03T11:51:45.158Z</time></trkpt><trkpt lat="43.0655361" lon="13.2160372"><ele>811.3333333333333</ele><time>2026-05-03T11:51:46.158Z</time></trkpt><trkpt lat="43.0654178" lon="13.2160561"><ele>814.0</ele><time>2026-05-03T11:51:48.158Z</time></trkpt><trkpt lat="43.0653354" lon="13.2160315"><ele>814.0</ele><time>2026-05-03T11:51:49.158Z</time></trkpt><trkpt lat="43.0651062" lon="13.2162346"><ele>814.0</ele><time>2026-05-03T11:51:54.159Z</time></trkpt><trkpt lat="43.0650727" lon="13.2163576"><ele>814.0</ele><time>2026-05-03T11:51:55.158Z</time></trkpt><trkpt lat="43.0650121" lon="13.2163969"><ele>814.0</ele><time>2026-05-03T11:51:56.158Z</time></trkpt><trkpt lat="43.064951" lon="13.2164554"><ele>806.9999999999999</ele><time>2026-05-03T11:51:57.16Z</time></trkpt><trkpt lat="43.0648867" lon="13.2165"><ele>800.0</ele><time>2026-05-03T11:51:58.159Z</time></trkpt><trkpt lat="43.0647717" lon="13.2165702"><ele>793.0</ele><time>2026-05-03T11:52:00.159Z</time></trkpt><trkpt lat="43.0647092" lon="13.2166006"><ele>786.0</ele><time>2026-05-03T11:52:01.158Z</time></trkpt><trkpt lat="43.064645" lon="13.2166239"><ele>778.9999999999999</ele><time>2026-05-03T11:52:02.159Z</time></trkpt><trkpt lat="43.064576" lon="13.2166419"><ele>772.0</ele><time>2026-05-03T11:52:03.159Z</time></trkpt><trkpt lat="43.0644506" lon="13.2166694"><ele>771.9999999999999</ele><time>2026-05-03T11:52:05.159Z</time></trkpt><trkpt lat="43.0643815" lon="13.2167182"><ele>772.0</ele><time>2026-05-03T11:52:06.158Z</time></trkpt><trkpt lat="43.0643166" lon="13.216749"><ele>772.0</ele><time>2026-05-03T11:52:07.159Z</time></trkpt><trkpt lat="43.0642497" lon="13.2167753"><ele>772.0</ele><time>2026-05-03T11:52:08.161Z</time></trkpt><trkpt lat="43.0641902" lon="13.2168427"><ele>771.9999999999999</ele><time>2026-05-03T11:52:09.16Z</time></trkpt><trkpt lat="43.0641222" lon="13.216884"><ele>772.0</ele><time>2026-05-03T11:52:10.159Z</time></trkpt><trkpt lat="43.0640648" lon="13.2169679"><ele>775.4999999999999</ele><time>2026-05-03T11:52:11.159Z</time></trkpt><trkpt lat="43.0639625" lon="13.2170824"><ele>779.0</ele><time>2026-05-03T11:52:13.16Z</time></trkpt><trkpt lat="43.0639" lon="13.2171387"><ele>782.5</ele><time>2026-05-03T11:52:14.161Z</time></trkpt><trkpt lat="43.0638531" lon="13.2172051"><ele>786.0</ele><time>2026-05-03T11:52:15.161Z</time></trkpt><trkpt lat="43.0637997" lon="13.2172655"><ele>789.4999999999999</ele><time>2026-05-03T11:52:16.157Z</time></trkpt><trkpt lat="43.0637317" lon="13.2173207"><ele>793.0</ele><time>2026-05-03T11:52:17.159Z</time></trkpt><trkpt lat="43.0636261" lon="13.2174154"><ele>785.6666666666666</ele><time>2026-05-03T11:52:19.161Z</time></trkpt><trkpt lat="43.0635687" lon="13.2174744"><ele>778.3333333333333</ele><time>2026-05-03T11:52:20.16Z</time></trkpt><trkpt lat="43.0634994" lon="13.2175118"><ele>771.0</ele><time>2026-05-03T11:52:21.16Z</time></trkpt><trkpt lat="43.0634332" lon="13.2175461"><ele>763.6666666666666</ele><time>2026-05-03T11:52:22.16Z</time></trkpt><trkpt lat="43.0633629" lon="13.2175665"><ele>756.3333333333333</ele><time>2026-05-03T11:52:23.158Z</time></trkpt><trkpt lat="43.0632797" lon="13.2175802"><ele>749.0</ele><time>2026-05-03T11:52:24.161Z</time></trkpt><trkpt lat="43.0632015" lon="13.2175818"><ele>749.0</ele><time>2026-05-03T11:52:25.16Z</time></trkpt><trkpt lat="43.0631266" lon="13.2175873"><ele>749.0</ele><time>2026-05-03T11:52:26.159Z</time></trkpt><trkpt lat="43.0630487" lon="13.2175993"><ele>749.0</ele><time>2026-05-03T11:52:27.159Z</time></trkpt><trkpt lat="43.062958" lon="13.2176251"><ele>749.0</ele><time>2026-05-03T11:52:28.159Z</time></trkpt><trkpt lat="43.0628862" lon="13.21765"><ele>749.0</ele><time>2026-05-03T11:52:29.161Z</time></trkpt><trkpt lat="43.0628132" lon="13.2176792"><ele>749.0</ele><time>2026-05-03T11:52:30.158Z</time></trkpt><trkpt lat="43.0627417" lon="13.2177131"><ele>749.0</ele><time>2026-05-03T11:52:31.159Z</time></trkpt><trkpt lat="43.0626809" lon="13.2177537"><ele>749.0</ele><time>2026-05-03T11:52:32.158Z</time></trkpt><trkpt lat="43.0626145" lon="13.2177864"><ele>749.0</ele><time>2026-05-03T11:52:33.158Z</time></trkpt><trkpt lat="43.0625518" lon="13.2178287"><ele>749.0</ele><time>2026-05-03T11:52:34.159Z</time></trkpt><trkpt lat="43.0624747" lon="13.2178538"><ele>749.0</ele><time>2026-05-03T11:52:35.158Z</time></trkpt><trkpt lat="43.0623936" lon="13.2178646"><ele>749.0</ele><time>2026-05-03T11:52:36.158Z</time></trkpt><trkpt lat="43.0623121" lon="13.2178895"><ele>748.3333333333333</ele><time>2026-05-03T11:52:37.158Z</time></trkpt><trkpt lat="43.0622371" lon="13.2179058"><ele>747.6666666666666</ele><time>2026-05-03T11:52:38.159Z</time></trkpt><trkpt lat="43.062158" lon="13.2178998"><ele>747.0</ele><time>2026-05-03T11:52:39.158Z</time></trkpt><trkpt lat="43.0620846" lon="13.2178964"><ele>746.3333333333334</ele><time>2026-05-03T11:52:40.159Z</time></trkpt><trkpt lat="43.0620093" lon="13.2178772"><ele>745.6666666666667</ele><time>2026-05-03T11:52:41.158Z</time></trkpt><trkpt lat="43.0619243" lon="13.2178497"><ele>745.0</ele><time>2026-05-03T11:52:42.159Z</time></trkpt><trkpt lat="43.061851" lon="13.2178266"><ele>745.0</ele><time>2026-05-03T11:52:43.158Z</time></trkpt><trkpt lat="43.0617771" lon="13.2177972"><ele>745.0</ele><time>2026-05-03T11:52:44.159Z</time></trkpt><trkpt lat="43.0617033" lon="13.2177876"><ele>745.0</ele><time>2026-05-03T11:52:45.159Z</time></trkpt><trkpt lat="43.0616322" lon="13.2177821"><ele>745.0</ele><time>2026-05-03T11:52:46.159Z</time></trkpt><trkpt lat="43.0615642" lon="13.2178087"><ele>745.0</ele><time>2026-05-03T11:52:47.159Z</time></trkpt><trkpt lat="43.0615003" lon="13.2178467"><ele>745.0</ele><time>2026-05-03T11:52:48.159Z</time></trkpt><trkpt lat="43.0614039" lon="13.2179631"><ele>744.75</ele><time>2026-05-03T11:52:50.16Z</time></trkpt><trkpt lat="43.0613743" lon="13.2181209"><ele>744.5</ele><time>2026-05-03T11:52:52.158Z</time></trkpt><trkpt lat="43.0613979" lon="13.2182948"><ele>744.25</ele><time>2026-05-03T11:52:54.158Z</time></trkpt><trkpt lat="43.0614765" lon="13.2184166"><ele>744.0</ele><time>2026-05-03T11:52:56.159Z</time></trkpt><trkpt lat="43.0615565" lon="13.218538"><ele>741.0</ele><time>2026-05-03T11:52:58.158Z</time></trkpt><trkpt lat="43.0616461" lon="13.2186393"><ele>738.0</ele><time>2026-05-03T11:53:00.159Z</time></trkpt><trkpt lat="43.0617039" lon="13.2187414"><ele>735.0</ele><time>2026-05-03T11:53:02.158Z</time></trkpt><trkpt lat="43.0617659" lon="13.2188186"><ele>732.0</ele><time>2026-05-03T11:53:04.158Z</time></trkpt><trkpt lat="43.0618385" lon="13.2188961"><ele>729.0</ele><time>2026-05-03T11:53:06.161Z</time></trkpt><trkpt lat="43.0619389" lon="13.2189547"><ele>731.8000000000001</ele><time>2026-05-03T11:53:08.159Z</time></trkpt><trkpt lat="43.0620518" lon="13.2190001"><ele>734.6</ele><time>2026-05-03T11:53:10.159Z</time></trkpt><trkpt lat="43.0621668" lon="13.219025"><ele>737.4</ele><time>2026-05-03T11:53:12.159Z</time></trkpt><trkpt lat="43.0622585" lon="13.2190524"><ele>740.2</ele><time>2026-05-03T11:53:14.158Z</time></trkpt><trkpt lat="43.0623355" lon="13.2190752"><ele>743.0</ele><time>2026-05-03T11:53:16.157Z</time></trkpt><trkpt lat="43.0624526" lon="13.2191097"><ele>743.0</ele><time>2026-05-03T11:53:18.16Z</time></trkpt><trkpt lat="43.0625307" lon="13.2191469"><ele>743.0</ele><time>2026-05-03T11:53:20.159Z</time></trkpt><trkpt lat="43.062604" lon="13.2191807"><ele>743.0</ele><time>2026-05-03T11:53:22.159Z</time></trkpt><trkpt lat="43.0626935" lon="13.2192566"><ele>743.0</ele><time>2026-05-03T11:53:25.158Z</time></trkpt><trkpt lat="43.0627567" lon="13.219317"><ele>743.0</ele><time>2026-05-03T11:53:27.158Z</time></trkpt><trkpt lat="43.0628172" lon="13.2193717"><ele>743.0</ele><time>2026-05-03T11:53:29.157Z</time></trkpt><trkpt lat="43.0628894" lon="13.2194345"><ele>743.0</ele><time>2026-05-03T11:53:31.159Z</time></trkpt><trkpt lat="43.06295" lon="13.2194736"><ele>743.0</ele><time>2026-05-03T11:53:33.159Z</time></trkpt><trkpt lat="43.0630131" lon="13.2194957"><ele>743.0</ele><time>2026-05-03T11:53:35.16Z</time></trkpt><trkpt lat="43.0630973" lon="13.2194907"><ele>743.0</ele><time>2026-05-03T11:53:37.16Z</time></trkpt><trkpt lat="43.0631857" lon="13.2194544"><ele>743.0</ele><time>2026-05-03T11:53:39.161Z</time></trkpt><trkpt lat="43.0632587" lon="13.2194121"><ele>743.0</ele><time>2026-05-03T11:53:41.163Z</time></trkpt><trkpt lat="43.0633415" lon="13.219369"><ele>741.1666666666666</ele><time>2026-05-03T11:53:43.159Z</time></trkpt><trkpt lat="43.0634186" lon="13.2193284"><ele>739.3333333333333</ele><time>2026-05-03T11:53:45.16Z</time></trkpt><trkpt lat="43.0635007" lon="13.2193085"><ele>737.5</ele><time>2026-05-03T11:53:47.16Z</time></trkpt><trkpt lat="43.0635955" lon="13.2192934"><ele>735.6666666666666</ele><time>2026-05-03T11:53:49.16Z</time></trkpt><trkpt lat="43.0636882" lon="13.2192871"><ele>733.8333333333334</ele><time>2026-05-03T11:53:51.16Z</time></trkpt><trkpt lat="43.0637823" lon="13.2193056"><ele>732.0</ele><time>2026-05-03T11:53:53.161Z</time></trkpt><trkpt lat="43.063872" lon="13.2193437"><ele>732.0</ele><time>2026-05-03T11:53:55.161Z</time></trkpt><trkpt lat="43.0639533" lon="13.2193649"><ele>732.0</ele><time>2026-05-03T11:53:57.16Z</time></trkpt><trkpt lat="43.0640441" lon="13.2193868"><ele>732.0</ele><time>2026-05-03T11:53:59.161Z</time></trkpt><trkpt lat="43.0641145" lon="13.2194301"><ele>732.0</ele><time>2026-05-03T11:54:01.161Z</time></trkpt><trkpt lat="43.0641916" lon="13.2194879"><ele>732.0</ele><time>2026-05-03T11:54:03.161Z</time></trkpt><trkpt lat="43.0642582" lon="13.2195747"><ele>732.0</ele><time>2026-05-03T11:54:05.161Z</time></trkpt><trkpt lat="43.0643183" lon="13.2196437"><ele>730.2</ele><time>2026-05-03T11:54:07.16Z</time></trkpt><trkpt lat="43.0644025" lon="13.2196966"><ele>728.4000000000001</ele><time>2026-05-03T11:54:09.16Z</time></trkpt><trkpt lat="43.0644927" lon="13.2197313"><ele>726.5999999999999</ele><time>2026-05-03T11:54:11.162Z</time></trkpt><trkpt lat="43.0645882" lon="13.2197671"><ele>724.8</ele><time>2026-05-03T11:54:13.16Z</time></trkpt><trkpt lat="43.0646714" lon="13.219799"><ele>723.0</ele><time>2026-05-03T11:54:15.159Z</time></trkpt><trkpt lat="43.0647646" lon="13.2198663"><ele>724.5</ele><time>2026-05-03T11:54:17.157Z</time></trkpt><trkpt lat="43.0648684" lon="13.2199527"><ele>726.0</ele><time>2026-05-03T11:54:19.16Z</time></trkpt><trkpt lat="43.0649247" lon="13.2199925"><ele>727.5</ele><time>2026-05-03T11:54:20.16Z</time></trkpt><trkpt lat="43.0650218" lon="13.2200937"><ele>729.0</ele><time>2026-05-03T11:54:22.161Z</time></trkpt><trkpt lat="43.0650763" lon="13.2201469"><ele>730.5</ele><time>2026-05-03T11:54:23.161Z</time></trkpt><trkpt lat="43.0651274" lon="13.2202101"><ele>732.0</ele><time>2026-05-03T11:54:24.16Z</time></trkpt><trkpt lat="43.0651739" lon="13.2202745"><ele>732.0</ele><time>2026-05-03T11:54:25.162Z</time></trkpt><trkpt lat="43.0652491" lon="13.2204116"><ele>732.0</ele><time>2026-05-03T11:54:27.16Z</time></trkpt><trkpt lat="43.065285" lon="13.2204969"><ele>732.0</ele><time>2026-05-03T11:54:28.16Z</time></trkpt><trkpt lat="43.0653127" lon="13.220576"><ele>732.0</ele><time>2026-05-03T11:54:29.164Z</time></trkpt><trkpt lat="43.0653411" lon="13.2206602"><ele>732.0</ele><time>2026-05-03T11:54:30.16Z</time></trkpt><trkpt lat="43.0653728" lon="13.2207412"><ele>732.0</ele><time>2026-05-03T11:54:31.16Z</time></trkpt><trkpt lat="43.0654056" lon="13.2208199"><ele>737.0</ele><time>2026-05-03T11:54:32.16Z</time></trkpt><trkpt lat="43.0654458" lon="13.2209852"><ele>742.0</ele><time>2026-05-03T11:54:34.16Z</time></trkpt><trkpt lat="43.0654878" lon="13.2210699"><ele>747.0</ele><time>2026-05-03T11:54:35.161Z</time></trkpt><trkpt lat="43.0655193" lon="13.2211491"><ele>752.0</ele><time>2026-05-03T11:54:36.159Z</time></trkpt><trkpt lat="43.0655585" lon="13.2212359"><ele>757.0</ele><time>2026-05-03T11:54:37.161Z</time></trkpt><trkpt lat="43.0655942" lon="13.2213169"><ele>762.0</ele><time>2026-05-03T11:54:38.161Z</time></trkpt><trkpt lat="43.0656322" lon="13.221405"><ele>764.7142857142857</ele><time>2026-05-03T11:54:39.161Z</time></trkpt><trkpt lat="43.06567" lon="13.2214899"><ele>767.4285714285714</ele><time>2026-05-03T11:54:40.161Z</time></trkpt><trkpt lat="43.065723" lon="13.2215569"><ele>770.1428571428571</ele><time>2026-05-03T11:54:41.161Z</time></trkpt><trkpt lat="43.0657662" lon="13.2216301"><ele>772.8571428571429</ele><time>2026-05-03T11:54:42.16Z</time></trkpt><trkpt lat="43.0658159" lon="13.2216866"><ele>775.5714285714287</ele><time>2026-05-03T11:54:43.161Z</time></trkpt><trkpt lat="43.065863" lon="13.2217534"><ele>778.2857142857143</ele><time>2026-05-03T11:54:44.161Z</time></trkpt><trkpt lat="43.0659265" lon="13.2218197"><ele>781.0</ele><time>2026-05-03T11:54:45.162Z</time></trkpt><trkpt lat="43.0659783" lon="13.2218779"><ele>774.7142857142858</ele><time>2026-05-03T11:54:46.161Z</time></trkpt><trkpt lat="43.0660362" lon="13.2219336"><ele>768.4285714285714</ele><time>2026-05-03T11:54:47.161Z</time></trkpt><trkpt lat="43.0660935" lon="13.2219892"><ele>762.1428571428571</ele><time>2026-05-03T11:54:48.161Z</time></trkpt><trkpt lat="43.0661524" lon="13.2220435"><ele>755.8571428571429</ele><time>2026-05-03T11:54:49.159Z</time></trkpt><trkpt lat="43.0662167" lon="13.2220909"><ele>749.5714285714286</ele><time>2026-05-03T11:54:50.161Z</time></trkpt><trkpt lat="43.0662835" lon="13.2221387"><ele>743.2857142857143</ele><time>2026-05-03T11:54:51.161Z</time></trkpt><trkpt lat="43.0663514" lon="13.2221841"><ele>737.0</ele><time>2026-05-03T11:54:52.159Z</time></trkpt><trkpt lat="43.0664129" lon="13.2222414"><ele>737.0000000000001</ele><time>2026-05-03T11:54:53.161Z</time></trkpt><trkpt lat="43.066467" lon="13.2222957"><ele>737.0</ele><time>2026-05-03T11:54:54.162Z</time></trkpt><trkpt lat="43.0665187" lon="13.2223619"><ele>737.0</ele><time>2026-05-03T11:54:55.161Z</time></trkpt><trkpt lat="43.0665873" lon="13.2224229"><ele>737.0</ele><time>2026-05-03T11:54:56.16Z</time></trkpt><trkpt lat="43.0666405" lon="13.222503"><ele>737.0</ele><time>2026-05-03T11:54:57.161Z</time></trkpt><trkpt lat="43.0666911" lon="13.2225613"><ele>737.0000000000001</ele><time>2026-05-03T11:54:58.162Z</time></trkpt><trkpt lat="43.0667397" lon="13.2226377"><ele>737.0</ele><time>2026-05-03T11:54:59.16Z</time></trkpt><trkpt lat="43.0667973" lon="13.2227107"><ele>736.1666666666666</ele><time>2026-05-03T11:55:00.161Z</time></trkpt><trkpt lat="43.0668438" lon="13.2227704"><ele>735.3333333333333</ele><time>2026-05-03T11:55:01.158Z</time></trkpt><trkpt lat="43.0669004" lon="13.2228351"><ele>734.5</ele><time>2026-05-03T11:55:02.161Z</time></trkpt><trkpt lat="43.0669649" lon="13.2228936"><ele>733.6666666666666</ele><time>2026-05-03T11:55:03.16Z</time></trkpt><trkpt lat="43.0670271" lon="13.2229563"><ele>732.8333333333334</ele><time>2026-05-03T11:55:04.16Z</time></trkpt><trkpt lat="43.0671414" lon="13.2230628"><ele>732.0</ele><time>2026-05-03T11:55:06.16Z</time></trkpt><trkpt lat="43.0672183" lon="13.2231003"><ele>732.0</ele><time>2026-05-03T11:55:07.161Z</time></trkpt><trkpt lat="43.06729" lon="13.2231405"><ele>732.0</ele><time>2026-05-03T11:55:08.159Z</time></trkpt><trkpt lat="43.0673749" lon="13.2231468"><ele>732.0</ele><time>2026-05-03T11:55:09.161Z</time></trkpt><trkpt lat="43.0674616" lon="13.223146"><ele>732.0</ele><time>2026-05-03T11:55:10.161Z</time></trkpt><trkpt lat="43.0675337" lon="13.2231591"><ele>732.0</ele><time>2026-05-03T11:55:11.159Z</time></trkpt><trkpt lat="43.0676154" lon="13.2231775"><ele>732.0</ele><time>2026-05-03T11:55:12.161Z</time></trkpt><trkpt lat="43.067692" lon="13.2232056"><ele>732.1666666666666</ele><time>2026-05-03T11:55:13.161Z</time></trkpt><trkpt lat="43.0677672" lon="13.2232417"><ele>732.3333333333334</ele><time>2026-05-03T11:55:14.161Z</time></trkpt><trkpt lat="43.0678181" lon="13.2233157"><ele>732.5</ele><time>2026-05-03T11:55:15.161Z</time></trkpt><trkpt lat="43.0678753" lon="13.2233788"><ele>732.6666666666667</ele><time>2026-05-03T11:55:16.158Z</time></trkpt><trkpt lat="43.0679253" lon="13.2234561"><ele>732.8333333333334</ele><time>2026-05-03T11:55:17.159Z</time></trkpt><trkpt lat="43.0679344" lon="13.2235618"><ele>733.0</ele><time>2026-05-03T11:55:18.158Z</time></trkpt><trkpt lat="43.0679679" lon="13.2236473"><ele>733.0</ele><time>2026-05-03T11:55:19.16Z</time></trkpt><trkpt lat="43.0679996" lon="13.2237464"><ele>733.0</ele><time>2026-05-03T11:55:20.161Z</time></trkpt><trkpt lat="43.0680322" lon="13.2239005"><ele>733.0</ele><time>2026-05-03T11:55:22.16Z</time></trkpt><trkpt lat="43.0680726" lon="13.2239928"><ele>733.0</ele><time>2026-05-03T11:55:23.161Z</time></trkpt><trkpt lat="43.0680924" lon="13.2240813"><ele>733.0</ele><time>2026-05-03T11:55:24.159Z</time></trkpt><trkpt lat="43.0681476" lon="13.224236"><ele>731.1666666666667</ele><time>2026-05-03T11:55:26.162Z</time></trkpt><trkpt lat="43.0681903" lon="13.2243983"><ele>729.3333333333334</ele><time>2026-05-03T11:55:28.158Z</time></trkpt><trkpt lat="43.0682071" lon="13.2244851"><ele>727.5</ele><time>2026-05-03T11:55:29.162Z</time></trkpt><trkpt lat="43.0682401" lon="13.2245655"><ele>725.6666666666666</ele><time>2026-05-03T11:55:30.161Z</time></trkpt><trkpt lat="43.0682561" lon="13.224692"><ele>723.8333333333333</ele><time>2026-05-03T11:55:32.16Z</time></trkpt><trkpt lat="43.0682743" lon="13.2248214"><ele>722.0</ele><time>2026-05-03T11:55:34.161Z</time></trkpt><trkpt lat="43.0682949" lon="13.224974"><ele>722.0</ele><time>2026-05-03T11:55:36.16Z</time></trkpt><trkpt lat="43.0683116" lon="13.225067"><ele>722.0</ele><time>2026-05-03T11:55:37.162Z</time></trkpt><trkpt lat="43.0683246" lon="13.2251562"><ele>722.0</ele><time>2026-05-03T11:55:38.162Z</time></trkpt><trkpt lat="43.0683199" lon="13.2252574"><ele>722.0</ele><time>2026-05-03T11:55:39.161Z</time></trkpt><trkpt lat="43.0683263" lon="13.2253451"><ele>722.0</ele><time>2026-05-03T11:55:40.159Z</time></trkpt><trkpt lat="43.0683396" lon="13.225508"><ele>722.0</ele><time>2026-05-03T11:55:42.158Z</time></trkpt><trkpt lat="43.0683347" lon="13.2256795"><ele>723.5</ele><time>2026-05-03T11:55:44.16Z</time></trkpt><trkpt lat="43.0683297" lon="13.2257809"><ele>725.0</ele><time>2026-05-03T11:55:45.161Z</time></trkpt><trkpt lat="43.0683592" lon="13.2259356"><ele>726.5</ele><time>2026-05-03T11:55:47.161Z</time></trkpt><trkpt lat="43.0683683" lon="13.2260242"><ele>728.0</ele><time>2026-05-03T11:55:48.161Z</time></trkpt><trkpt lat="43.068383" lon="13.2261795"><ele>729.5</ele><time>2026-05-03T11:55:50.161Z</time></trkpt><trkpt lat="43.0683779" lon="13.2262701"><ele>731.0</ele><time>2026-05-03T11:55:51.162Z</time></trkpt><trkpt lat="43.0683711" lon="13.2264289"><ele>729.6666666666666</ele><time>2026-05-03T11:55:53.161Z</time></trkpt><trkpt lat="43.0683564" lon="13.2265138"><ele>728.3333333333333</ele><time>2026-05-03T11:55:54.161Z</time></trkpt><trkpt lat="43.0683533" lon="13.2266039"><ele>727.0</ele><time>2026-05-03T11:55:55.161Z</time></trkpt><trkpt lat="43.0683462" lon="13.226772"><ele>725.6666666666666</ele><time>2026-05-03T11:55:57.162Z</time></trkpt><trkpt lat="43.0683431" lon="13.2268591"><ele>724.3333333333334</ele><time>2026-05-03T11:55:58.162Z</time></trkpt><trkpt lat="43.0683286" lon="13.2269496"><ele>723.0</ele><time>2026-05-03T11:55:59.162Z</time></trkpt><trkpt lat="43.068336" lon="13.2271187"><ele>723.0</ele><time>2026-05-03T11:56:01.161Z</time></trkpt><trkpt lat="43.0683196" lon="13.2272908"><ele>723.0</ele><time>2026-05-03T11:56:03.161Z</time></trkpt><trkpt lat="43.0683134" lon="13.2273787"><ele>723.0</ele><time>2026-05-03T11:56:04.16Z</time></trkpt><trkpt lat="43.0683048" lon="13.2275453"><ele>723.0</ele><time>2026-05-03T11:56:06.16Z</time></trkpt><trkpt lat="43.0683032" lon="13.2276324"><ele>723.0</ele><time>2026-05-03T11:56:07.161Z</time></trkpt><trkpt lat="43.0682923" lon="13.2278"><ele>727.5999999999999</ele><time>2026-05-03T11:56:09.161Z</time></trkpt><trkpt lat="43.0682737" lon="13.2279581"><ele>732.1999999999999</ele><time>2026-05-03T11:56:11.161Z</time></trkpt><trkpt lat="43.068238" lon="13.2281045"><ele>736.8</ele><time>2026-05-03T11:56:13.161Z</time></trkpt><trkpt lat="43.068189" lon="13.228255"><ele>741.4</ele><time>2026-05-03T11:56:15.16Z</time></trkpt><trkpt lat="43.0681598" lon="13.2283324"><ele>746.0</ele><time>2026-05-03T11:56:16.159Z</time></trkpt><trkpt lat="43.0681048" lon="13.228488"><ele>746.0</ele><time>2026-05-03T11:56:18.159Z</time></trkpt><trkpt lat="43.0680427" lon="13.2286352"><ele>746.0</ele><time>2026-05-03T11:56:20.162Z</time></trkpt><trkpt lat="43.0679892" lon="13.2287864"><ele>746.0</ele><time>2026-05-03T11:56:22.162Z</time></trkpt><trkpt lat="43.0679559" lon="13.2288633"><ele>746.0</ele><time>2026-05-03T11:56:23.16Z</time></trkpt><trkpt lat="43.0678973" lon="13.229015"><ele>746.0</ele><time>2026-05-03T11:56:25.162Z</time></trkpt><trkpt lat="43.0678325" lon="13.2291667"><ele>743.4</ele><time>2026-05-03T11:56:27.164Z</time></trkpt><trkpt lat="43.067778" lon="13.2293155"><ele>740.8</ele><time>2026-05-03T11:56:29.16Z</time></trkpt><trkpt lat="43.0677161" lon="13.2294716"><ele>738.1999999999999</ele><time>2026-05-03T11:56:31.16Z</time></trkpt><trkpt lat="43.0676888" lon="13.229551"><ele>735.5999999999999</ele><time>2026-05-03T11:56:32.161Z</time></trkpt><trkpt lat="43.0676352" lon="13.2296955"><ele>733.0</ele><time>2026-05-03T11:56:34.161Z</time></trkpt><trkpt lat="43.067604" lon="13.2297738"><ele>731.1666666666667</ele><time>2026-05-03T11:56:35.159Z</time></trkpt><trkpt lat="43.0675712" lon="13.2298492"><ele>729.3333333333334</ele><time>2026-05-03T11:56:36.162Z</time></trkpt><trkpt lat="43.0675352" lon="13.2299247"><ele>727.5</ele><time>2026-05-03T11:56:37.161Z</time></trkpt><trkpt lat="43.0674646" lon="13.2300524"><ele>725.6666666666666</ele><time>2026-05-03T11:56:39.162Z</time></trkpt><trkpt lat="43.0674266" lon="13.2301233"><ele>723.8333333333333</ele><time>2026-05-03T11:56:40.16Z</time></trkpt><trkpt lat="43.0673567" lon="13.230258"><ele>722.0</ele><time>2026-05-03T11:56:42.16Z</time></trkpt><trkpt lat="43.0673234" lon="13.230333"><ele>726.2</ele><time>2026-05-03T11:56:43.16Z</time></trkpt><trkpt lat="43.0672631" lon="13.2304637"><ele>730.4000000000001</ele><time>2026-05-03T11:56:45.161Z</time></trkpt><trkpt lat="43.0672379" lon="13.2305528"><ele>734.5999999999999</ele><time>2026-05-03T11:56:46.161Z</time></trkpt><trkpt lat="43.067189" lon="13.2307081"><ele>738.8</ele><time>2026-05-03T11:56:48.161Z</time></trkpt><trkpt lat="43.0671485" lon="13.2308596"><ele>743.0</ele><time>2026-05-03T11:56:50.163Z</time></trkpt><trkpt lat="43.0671232" lon="13.230941"><ele>743.0</ele><time>2026-05-03T11:56:51.161Z</time></trkpt><trkpt lat="43.0670776" lon="13.2310896"><ele>743.0</ele><time>2026-05-03T11:56:53.16Z</time></trkpt><trkpt lat="43.0670335" lon="13.2311577"><ele>743.0</ele><time>2026-05-03T11:56:54.16Z</time></trkpt><trkpt lat="43.0669818" lon="13.2312851"><ele>743.0</ele><time>2026-05-03T11:56:56.161Z</time></trkpt><trkpt lat="43.0669357" lon="13.2314127"><ele>743.0</ele><time>2026-05-03T11:56:58.161Z</time></trkpt><trkpt lat="43.0668709" lon="13.2315414"><ele>744.5999999999999</ele><time>2026-05-03T11:57:00.159Z</time></trkpt><trkpt lat="43.0667981" lon="13.2316868"><ele>746.1999999999999</ele><time>2026-05-03T11:57:02.161Z</time></trkpt><trkpt lat="43.0667589" lon="13.2317569"><ele>747.8</ele><time>2026-05-03T11:57:03.161Z</time></trkpt><trkpt lat="43.0666878" lon="13.2318968"><ele>749.4</ele><time>2026-05-03T11:57:05.161Z</time></trkpt><trkpt lat="43.0666435" lon="13.231967"><ele>751.0</ele><time>2026-05-03T11:57:06.161Z</time></trkpt><trkpt lat="43.0665688" lon="13.2320909"><ele>751.0</ele><time>2026-05-03T11:57:08.16Z</time></trkpt><trkpt lat="43.0665295" lon="13.2321588"><ele>751.0</ele><time>2026-05-03T11:57:09.161Z</time></trkpt><trkpt lat="43.0664472" lon="13.2322884"><ele>751.0</ele><time>2026-05-03T11:57:11.161Z</time></trkpt><trkpt lat="43.0663731" lon="13.2324064"><ele>751.0</ele><time>2026-05-03T11:57:13.161Z</time></trkpt><trkpt lat="43.0662866" lon="13.2325319"><ele>751.0</ele><time>2026-05-03T11:57:15.162Z</time></trkpt><trkpt lat="43.0662435" lon="13.2326038"><ele>747.5</ele><time>2026-05-03T11:57:16.159Z</time></trkpt><trkpt lat="43.0661976" lon="13.2326737"><ele>744.0</ele><time>2026-05-03T11:57:17.158Z</time></trkpt><trkpt lat="43.0661049" lon="13.2327968"><ele>740.5</ele><time>2026-05-03T11:57:19.16Z</time></trkpt><trkpt lat="43.0660661" lon="13.2328676"><ele>737.0</ele><time>2026-05-03T11:57:20.159Z</time></trkpt><trkpt lat="43.0660191" lon="13.2329277"><ele>733.5</ele><time>2026-05-03T11:57:21.162Z</time></trkpt><trkpt lat="43.0659718" lon="13.2329957"><ele>730.0</ele><time>2026-05-03T11:57:22.162Z</time></trkpt><trkpt lat="43.0659166" lon="13.2330502"><ele>729.2</ele><time>2026-05-03T11:57:23.164Z</time></trkpt><trkpt lat="43.0658246" lon="13.2331569"><ele>728.4</ele><time>2026-05-03T11:57:25.161Z</time></trkpt><trkpt lat="43.0657294" lon="13.2332457"><ele>727.5999999999999</ele><time>2026-05-03T11:57:27.162Z</time></trkpt><trkpt lat="43.0656324" lon="13.2333264"><ele>726.8</ele><time>2026-05-03T11:57:29.162Z</time></trkpt><trkpt lat="43.0655411" lon="13.2333665"><ele>726.0</ele><time>2026-05-03T11:57:31.161Z</time></trkpt><trkpt lat="43.0654478" lon="13.2334283"><ele>726.0</ele><time>2026-05-03T11:57:33.16Z</time></trkpt><trkpt lat="43.065334" lon="13.2334773"><ele>726.0</ele><time>2026-05-03T11:57:35.162Z</time></trkpt><trkpt lat="43.0652174" lon="13.2335128"><ele>726.0</ele><time>2026-05-03T11:57:37.16Z</time></trkpt><trkpt lat="43.0650989" lon="13.2335473"><ele>726.0</ele><time>2026-05-03T11:57:39.16Z</time></trkpt><trkpt lat="43.0650354" lon="13.2335582"><ele>726.0</ele><time>2026-05-03T11:57:40.161Z</time></trkpt><trkpt lat="43.0649364" lon="13.2335806"><ele>724.0</ele><time>2026-05-03T11:57:42.161Z</time></trkpt><trkpt lat="43.0648183" lon="13.2335806"><ele>722.0</ele><time>2026-05-03T11:57:44.161Z</time></trkpt><trkpt lat="43.0646986" lon="13.2335776"><ele>720.0</ele><time>2026-05-03T11:57:46.16Z</time></trkpt><trkpt lat="43.0646341" lon="13.2335699"><ele>718.0</ele><time>2026-05-03T11:57:47.161Z</time></trkpt><trkpt lat="43.0645695" lon="13.2335567"><ele>716.0</ele><time>2026-05-03T11:57:48.158Z</time></trkpt><trkpt lat="43.0645023" lon="13.2335385"><ele>714.0</ele><time>2026-05-03T11:57:49.161Z</time></trkpt><trkpt lat="43.0644355" lon="13.2335149"><ele>714.0</ele><time>2026-05-03T11:57:50.162Z</time></trkpt><trkpt lat="43.0643714" lon="13.2334704"><ele>714.0</ele><time>2026-05-03T11:57:51.161Z</time></trkpt><trkpt lat="43.064305" lon="13.2334297"><ele>714.0</ele><time>2026-05-03T11:57:52.161Z</time></trkpt><trkpt lat="43.0642428" lon="13.2333837"><ele>714.0</ele><time>2026-05-03T11:57:53.162Z</time></trkpt><trkpt lat="43.0641752" lon="13.2333288"><ele>714.0</ele><time>2026-05-03T11:57:54.162Z</time></trkpt><trkpt lat="43.0641032" lon="13.233271"><ele>714.0</ele><time>2026-05-03T11:57:55.162Z</time></trkpt><trkpt lat="43.0640338" lon="13.2332161"><ele>715.3333333333334</ele><time>2026-05-03T11:57:56.16Z</time></trkpt><trkpt lat="43.063961" lon="13.233159"><ele>716.6666666666666</ele><time>2026-05-03T11:57:57.161Z</time></trkpt><trkpt lat="43.0638844" lon="13.2331048"><ele>718.0</ele><time>2026-05-03T11:57:58.161Z</time></trkpt><trkpt lat="43.0638035" lon="13.2330618"><ele>719.3333333333333</ele><time>2026-05-03T11:57:59.163Z</time></trkpt><trkpt lat="43.0637153" lon="13.2330365"><ele>720.6666666666666</ele><time>2026-05-03T11:58:00.161Z</time></trkpt><trkpt lat="43.0636299" lon="13.2330068"><ele>722.0</ele><time>2026-05-03T11:58:01.162Z</time></trkpt><trkpt lat="43.0635348" lon="13.2329889"><ele>722.0</ele><time>2026-05-03T11:58:02.161Z</time></trkpt><trkpt lat="43.0634393" lon="13.2329654"><ele>722.0</ele><time>2026-05-03T11:58:03.16Z</time></trkpt><trkpt lat="43.063345" lon="13.2329489"><ele>722.0</ele><time>2026-05-03T11:58:04.159Z</time></trkpt><trkpt lat="43.0632479" lon="13.2329314"><ele>722.0</ele><time>2026-05-03T11:58:05.16Z</time></trkpt><trkpt lat="43.0631527" lon="13.2329114"><ele>722.0</ele><time>2026-05-03T11:58:06.161Z</time></trkpt><trkpt lat="43.063058" lon="13.2328761"><ele>715.8</ele><time>2026-05-03T11:58:07.161Z</time></trkpt><trkpt lat="43.0629589" lon="13.2328303"><ele>709.6</ele><time>2026-05-03T11:58:08.161Z</time></trkpt><trkpt lat="43.0628604" lon="13.2327754"><ele>703.4</ele><time>2026-05-03T11:58:09.161Z</time></trkpt><trkpt lat="43.0627674" lon="13.2326982"><ele>697.1999999999999</ele><time>2026-05-03T11:58:10.162Z</time></trkpt><trkpt lat="43.06268" lon="13.2326108"><ele>691.0</ele><time>2026-05-03T11:58:11.161Z</time></trkpt><trkpt lat="43.0626092" lon="13.2325036"><ele>691.0</ele><time>2026-05-03T11:58:12.161Z</time></trkpt><trkpt lat="43.0625517" lon="13.2323757"><ele>691.0</ele><time>2026-05-03T11:58:13.16Z</time></trkpt><trkpt lat="43.0625034" lon="13.2322447"><ele>691.0</ele><time>2026-05-03T11:58:14.161Z</time></trkpt><trkpt lat="43.0624544" lon="13.2321128"><ele>691.0</ele><time>2026-05-03T11:58:15.161Z</time></trkpt><trkpt lat="43.0624049" lon="13.2319825"><ele>691.0</ele><time>2026-05-03T11:58:16.161Z</time></trkpt><trkpt lat="43.0623504" lon="13.2318587"><ele>691.0</ele><time>2026-05-03T11:58:17.158Z</time></trkpt><trkpt lat="43.0622899" lon="13.2317316"><ele>691.0</ele><time>2026-05-03T11:58:18.159Z</time></trkpt><trkpt lat="43.0622125" lon="13.2316292"><ele>691.0</ele><time>2026-05-03T11:58:19.161Z</time></trkpt><trkpt lat="43.062113" lon="13.2315538"><ele>691.0</ele><time>2026-05-03T11:58:20.16Z</time></trkpt><trkpt lat="43.0620067" lon="13.2315022"><ele>691.0</ele><time>2026-05-03T11:58:21.161Z</time></trkpt><trkpt lat="43.0619096" lon="13.2314356"><ele>691.0</ele><time>2026-05-03T11:58:22.162Z</time></trkpt><trkpt lat="43.0618322" lon="13.2313695"><ele>691.0</ele><time>2026-05-03T11:58:23.161Z</time></trkpt><trkpt lat="43.0617778" lon="13.2312644"><ele>691.0</ele><time>2026-05-03T11:58:24.162Z</time></trkpt><trkpt lat="43.0617559" lon="13.2311358"><ele>691.0</ele><time>2026-05-03T11:58:25.16Z</time></trkpt><trkpt lat="43.061732" lon="13.2310082"><ele>691.0</ele><time>2026-05-03T11:58:26.162Z</time></trkpt><trkpt lat="43.0617095" lon="13.230889"><ele>691.0</ele><time>2026-05-03T11:58:27.161Z</time></trkpt><trkpt lat="43.0616604" lon="13.2307781"><ele>691.0</ele><time>2026-05-03T11:58:28.16Z</time></trkpt><trkpt lat="43.0616158" lon="13.2306722"><ele>691.0</ele><time>2026-05-03T11:58:29.163Z</time></trkpt><trkpt lat="43.0615442" lon="13.2306088"><ele>691.0</ele><time>2026-05-03T11:58:30.161Z</time></trkpt><trkpt lat="43.061473" lon="13.2305409"><ele>691.0</ele><time>2026-05-03T11:58:31.161Z</time></trkpt><trkpt lat="43.0613868" lon="13.2304969"><ele>691.0</ele><time>2026-05-03T11:58:32.161Z</time></trkpt><trkpt lat="43.061309" lon="13.2304652"><ele>690.1666666666667</ele><time>2026-05-03T11:58:33.161Z</time></trkpt><trkpt lat="43.0612286" lon="13.230458"><ele>689.3333333333334</ele><time>2026-05-03T11:58:34.161Z</time></trkpt><trkpt lat="43.0611415" lon="13.2304747"><ele>688.5</ele><time>2026-05-03T11:58:35.161Z</time></trkpt><trkpt lat="43.0610663" lon="13.2304963"><ele>687.6666666666666</ele><time>2026-05-03T11:58:36.159Z</time></trkpt><trkpt lat="43.0609886" lon="13.2305471"><ele>686.8333333333333</ele><time>2026-05-03T11:58:37.161Z</time></trkpt><trkpt lat="43.0609244" lon="13.2305956"><ele>686.0</ele><time>2026-05-03T11:58:38.162Z</time></trkpt><trkpt lat="43.0608664" lon="13.2306469"><ele>686.0</ele><time>2026-05-03T11:58:39.16Z</time></trkpt><trkpt lat="43.060803" lon="13.2307006"><ele>686.0</ele><time>2026-05-03T11:58:40.161Z</time></trkpt><trkpt lat="43.0607061" lon="13.2308138"><ele>686.0</ele><time>2026-05-03T11:58:42.162Z</time></trkpt><trkpt lat="43.0606603" lon="13.2308737"><ele>686.0</ele><time>2026-05-03T11:58:43.161Z</time></trkpt><trkpt lat="43.0606119" lon="13.2309322"><ele>686.0</ele><time>2026-05-03T11:58:44.161Z</time></trkpt><trkpt lat="43.0605183" lon="13.2310319"><ele>686.0</ele><time>2026-05-03T11:58:46.161Z</time></trkpt><trkpt lat="43.0604563" lon="13.2310831"><ele>689.5999999999999</ele><time>2026-05-03T11:58:47.161Z</time></trkpt><trkpt lat="43.0603773" lon="13.2312043"><ele>693.2</ele><time>2026-05-03T11:58:49.164Z</time></trkpt><trkpt lat="43.060336" lon="13.2313293"><ele>696.8</ele><time>2026-05-03T11:58:51.161Z</time></trkpt><trkpt lat="43.0603233" lon="13.2314141"><ele>700.4000000000001</ele><time>2026-05-03T11:58:52.159Z</time></trkpt><trkpt lat="43.0603049" lon="13.2314989"><ele>704.0</ele><time>2026-05-03T11:58:53.161Z</time></trkpt><trkpt lat="43.0603037" lon="13.2316533"><ele>704.0</ele><time>2026-05-03T11:58:55.161Z</time></trkpt><trkpt lat="43.0603138" lon="13.2318101"><ele>704.0</ele><time>2026-05-03T11:58:57.161Z</time></trkpt><trkpt lat="43.0603151" lon="13.2319693"><ele>704.0</ele><time>2026-05-03T11:58:59.16Z</time></trkpt><trkpt lat="43.0603026" lon="13.2321296"><ele>704.0</ele><time>2026-05-03T11:59:01.162Z</time></trkpt><trkpt lat="43.0602726" lon="13.2322832"><ele>705.2</ele><time>2026-05-03T11:59:03.161Z</time></trkpt><trkpt lat="43.0602528" lon="13.2324427"><ele>706.4000000000001</ele><time>2026-05-03T11:59:05.162Z</time></trkpt><trkpt lat="43.0602592" lon="13.2326008"><ele>707.6</ele><time>2026-05-03T11:59:07.162Z</time></trkpt><trkpt lat="43.0602682" lon="13.232687"><ele>708.8</ele><time>2026-05-03T11:59:08.159Z</time></trkpt><trkpt lat="43.0602953" lon="13.2328332"><ele>710.0</ele><time>2026-05-03T11:59:10.161Z</time></trkpt><trkpt lat="43.0603056" lon="13.2329197"><ele>710.0</ele><time>2026-05-03T11:59:11.162Z</time></trkpt><trkpt lat="43.0603241" lon="13.2330023"><ele>710.0</ele><time>2026-05-03T11:59:12.162Z</time></trkpt><trkpt lat="43.0603477" lon="13.2330903"><ele>710.0</ele><time>2026-05-03T11:59:13.16Z</time></trkpt><trkpt lat="43.0603789" lon="13.2332434"><ele>710.0</ele><time>2026-05-03T11:59:15.16Z</time></trkpt><trkpt lat="43.0604096" lon="13.233379"><ele>710.0</ele><time>2026-05-03T11:59:17.158Z</time></trkpt><trkpt lat="43.0604041" lon="13.2335378"><ele>711.0</ele><time>2026-05-03T11:59:19.163Z</time></trkpt><trkpt lat="43.0603838" lon="13.2336878"><ele>712.0</ele><time>2026-05-03T11:59:21.161Z</time></trkpt><trkpt lat="43.0603874" lon="13.2338155"><ele>713.0</ele><time>2026-05-03T11:59:23.161Z</time></trkpt><trkpt lat="43.0604108" lon="13.2339541"><ele>714.0</ele><time>2026-05-03T11:59:25.16Z</time></trkpt><trkpt lat="43.0604369" lon="13.2340358"><ele>715.0</ele><time>2026-05-03T11:59:26.158Z</time></trkpt><trkpt lat="43.060497" lon="13.234115"><ele>715.0</ele><time>2026-05-03T11:59:28.158Z</time></trkpt><trkpt lat="43.0605639" lon="13.2342145"><ele>715.0</ele><time>2026-05-03T11:59:30.16Z</time></trkpt><trkpt lat="43.0606287" lon="13.2343305"><ele>715.0</ele><time>2026-05-03T11:59:32.16Z</time></trkpt><trkpt lat="43.060672" lon="13.2343941"><ele>715.0</ele><time>2026-05-03T11:59:33.163Z</time></trkpt><trkpt lat="43.0607248" lon="13.2345538"><ele>715.0</ele><time>2026-05-03T11:59:35.163Z</time></trkpt><trkpt lat="43.0608016" lon="13.2347007"><ele>710.8</ele><time>2026-05-03T11:59:37.16Z</time></trkpt><trkpt lat="43.0608514" lon="13.2347752"><ele>706.6</ele><time>2026-05-03T11:59:38.16Z</time></trkpt><trkpt lat="43.060902" lon="13.2348514"><ele>702.4000000000001</ele><time>2026-05-03T11:59:39.161Z</time></trkpt><trkpt lat="43.0609665" lon="13.2349227"><ele>698.2</ele><time>2026-05-03T11:59:40.159Z</time></trkpt><trkpt lat="43.0610274" lon="13.2350697"><ele>694.0</ele><time>2026-05-03T11:59:42.159Z</time></trkpt><trkpt lat="43.061089" lon="13.2351905"><ele>694.0</ele><time>2026-05-03T11:59:44.16Z</time></trkpt><trkpt lat="43.0611406" lon="13.2352826"><ele>694.0</ele><time>2026-05-03T11:59:47.161Z</time></trkpt><trkpt lat="43.0611964" lon="13.2353278"><ele>694.0</ele><time>2026-05-03T12:00:18.16Z</time></trkpt><trkpt lat="43.0612454" lon="13.2353972"><ele>694.0</ele><time>2026-05-03T12:00:21.159Z</time></trkpt><trkpt lat="43.0613092" lon="13.2354736"><ele>694.0</ele><time>2026-05-03T12:00:23.164Z</time></trkpt><trkpt lat="43.0613712" lon="13.2355171"><ele>694.0</ele><time>2026-05-03T12:00:24.161Z</time></trkpt><trkpt lat="43.061422" lon="13.2355882"><ele>694.0</ele><time>2026-05-03T12:00:25.161Z</time></trkpt><trkpt lat="43.0614682" lon="13.2356655"><ele>698.0</ele><time>2026-05-03T12:00:26.161Z</time></trkpt><trkpt lat="43.0614903" lon="13.2357571"><ele>702.0</ele><time>2026-05-03T12:00:27.16Z</time></trkpt><trkpt lat="43.0615038" lon="13.2358626"><ele>706.0</ele><time>2026-05-03T12:00:28.16Z</time></trkpt><trkpt lat="43.0614981" lon="13.2359619"><ele>710.0</ele><time>2026-05-03T12:00:29.16Z</time></trkpt><trkpt lat="43.0615055" lon="13.2360669"><ele>714.0</ele><time>2026-05-03T12:00:30.159Z</time></trkpt><trkpt lat="43.0615407" lon="13.2361819"><ele>718.0</ele><time>2026-05-03T12:00:31.159Z</time></trkpt><trkpt lat="43.0615925" lon="13.2362587"><ele>711.1666666666667</ele><time>2026-05-03T12:00:32.159Z</time></trkpt><trkpt lat="43.0616773" lon="13.236313"><ele>704.3333333333334</ele><time>2026-05-03T12:00:33.161Z</time></trkpt><trkpt lat="43.0617612" lon="13.2363387"><ele>697.5</ele><time>2026-05-03T12:00:34.16Z</time></trkpt><trkpt lat="43.0618365" lon="13.2363755"><ele>690.6666666666666</ele><time>2026-05-03T12:00:35.16Z</time></trkpt><trkpt lat="43.0618937" lon="13.2364219"><ele>683.8333333333333</ele><time>2026-05-03T12:00:36.159Z</time></trkpt><trkpt lat="43.0619563" lon="13.2364972"><ele>677.0</ele><time>2026-05-03T12:00:37.158Z</time></trkpt><trkpt lat="43.0620212" lon="13.2365922"><ele>677.0</ele><time>2026-05-03T12:00:38.16Z</time></trkpt><trkpt lat="43.0620614" lon="13.2367022"><ele>677.0</ele><time>2026-05-03T12:00:39.161Z</time></trkpt><trkpt lat="43.0620642" lon="13.2368264"><ele>677.0</ele><time>2026-05-03T12:00:40.16Z</time></trkpt><trkpt lat="43.0620925" lon="13.2369495"><ele>677.0</ele><time>2026-05-03T12:00:41.159Z</time></trkpt><trkpt lat="43.0621914" lon="13.2370347"><ele>677.0</ele><time>2026-05-03T12:00:42.16Z</time></trkpt><trkpt lat="43.0622622" lon="13.2371188"><ele>677.0</ele><time>2026-05-03T12:00:43.161Z</time></trkpt><trkpt lat="43.0623664" lon="13.2371795"><ele>677.0</ele><time>2026-05-03T12:00:44.16Z</time></trkpt><trkpt lat="43.0624675" lon="13.2371951"><ele>677.0</ele><time>2026-05-03T12:00:45.159Z</time></trkpt><trkpt lat="43.0625777" lon="13.237202"><ele>677.0</ele><time>2026-05-03T12:00:46.161Z</time></trkpt><trkpt lat="43.0626405" lon="13.2372324"><ele>677.0</ele><time>2026-05-03T12:00:47.161Z</time></trkpt><trkpt lat="43.0627215" lon="13.2372538"><ele>675.2</ele><time>2026-05-03T12:00:48.157Z</time></trkpt><trkpt lat="43.0628373" lon="13.2372813"><ele>673.4000000000001</ele><time>2026-05-03T12:00:49.159Z</time></trkpt><trkpt lat="43.062932" lon="13.2373246"><ele>671.5999999999999</ele><time>2026-05-03T12:00:50.16Z</time></trkpt><trkpt lat="43.0630243" lon="13.2373707"><ele>669.8</ele><time>2026-05-03T12:00:51.16Z</time></trkpt><trkpt lat="43.0631205" lon="13.2374466"><ele>668.0</ele><time>2026-05-03T12:00:52.159Z</time></trkpt><trkpt lat="43.0632059" lon="13.237536"><ele>659.5</ele><time>2026-05-03T12:00:53.159Z</time></trkpt><trkpt lat="43.0632938" lon="13.2376441"><ele>651.0</ele><time>2026-05-03T12:00:54.159Z</time></trkpt><trkpt lat="43.0633399" lon="13.237781"><ele>642.5</ele><time>2026-05-03T12:00:55.159Z</time></trkpt><trkpt lat="43.0633722" lon="13.2379307"><ele>634.0</ele><time>2026-05-03T12:00:56.16Z</time></trkpt><trkpt lat="43.0633899" lon="13.2380888"><ele>637.2</ele><time>2026-05-03T12:00:57.16Z</time></trkpt><trkpt lat="43.0633946" lon="13.238245"><ele>640.4</ele><time>2026-05-03T12:00:58.159Z</time></trkpt><trkpt lat="43.0633848" lon="13.2383956"><ele>643.6</ele><time>2026-05-03T12:00:59.159Z</time></trkpt><trkpt lat="43.0633794" lon="13.2385467"><ele>646.8</ele><time>2026-05-03T12:01:00.16Z</time></trkpt><trkpt lat="43.0633895" lon="13.238699"><ele>650.0</ele><time>2026-05-03T12:01:01.161Z</time></trkpt><trkpt lat="43.0635329" lon="13.2387511"><ele>650.0</ele><time>2026-05-03T12:01:02.161Z</time></trkpt><trkpt lat="43.0636421" lon="13.2387973"><ele>650.0</ele><time>2026-05-03T12:01:03.161Z</time></trkpt><trkpt lat="43.0637268" lon="13.2388214"><ele>650.0</ele><time>2026-05-03T12:01:04.159Z</time></trkpt><trkpt lat="43.0638251" lon="13.2388337"><ele>650.0</ele><time>2026-05-03T12:01:05.159Z</time></trkpt><trkpt lat="43.0639273" lon="13.2388396"><ele>650.0</ele><time>2026-05-03T12:01:06.161Z</time></trkpt><trkpt lat="43.0640281" lon="13.2388615"><ele>649.25</ele><time>2026-05-03T12:01:07.16Z</time></trkpt><trkpt lat="43.064143" lon="13.238889"><ele>648.5</ele><time>2026-05-03T12:01:08.158Z</time></trkpt><trkpt lat="43.0642446" lon="13.2389349"><ele>647.75</ele><time>2026-05-03T12:01:09.158Z</time></trkpt><trkpt lat="43.0643578" lon="13.238999"><ele>647.0</ele><time>2026-05-03T12:01:10.159Z</time></trkpt><trkpt lat="43.0644519" lon="13.2390673"><ele>647.0</ele><time>2026-05-03T12:01:11.16Z</time></trkpt><trkpt lat="43.0645537" lon="13.2391286"><ele>647.0</ele><time>2026-05-03T12:01:12.161Z</time></trkpt><trkpt lat="43.0646514" lon="13.2391924"><ele>647.0</ele><time>2026-05-03T12:01:13.159Z</time></trkpt><trkpt lat="43.0647517" lon="13.2392482"><ele>647.0</ele><time>2026-05-03T12:01:14.159Z</time></trkpt><trkpt lat="43.064857" lon="13.2393157"><ele>647.0</ele><time>2026-05-03T12:01:15.16Z</time></trkpt><trkpt lat="43.0649571" lon="13.2393901"><ele>639.25</ele><time>2026-05-03T12:01:16.16Z</time></trkpt><trkpt lat="43.0650458" lon="13.2394654"><ele>631.5</ele><time>2026-05-03T12:01:17.16Z</time></trkpt><trkpt lat="43.0651435" lon="13.2395423"><ele>623.75</ele><time>2026-05-03T12:01:18.161Z</time></trkpt><trkpt lat="43.0652495" lon="13.2396224"><ele>616.0</ele><time>2026-05-03T12:01:19.161Z</time></trkpt><trkpt lat="43.0653569" lon="13.2396883"><ele>616.0</ele><time>2026-05-03T12:01:20.162Z</time></trkpt><trkpt lat="43.0654403" lon="13.239767"><ele>616.0</ele><time>2026-05-03T12:01:21.16Z</time></trkpt><trkpt lat="43.0655328" lon="13.2398383"><ele>616.0</ele><time>2026-05-03T12:01:22.163Z</time></trkpt><trkpt lat="43.0656275" lon="13.2399138"><ele>616.0</ele><time>2026-05-03T12:01:23.16Z</time></trkpt><trkpt lat="43.0657251" lon="13.2399823"><ele>616.0</ele><time>2026-05-03T12:01:24.162Z</time></trkpt><trkpt lat="43.065827" lon="13.2400533"><ele>615.5</ele><time>2026-05-03T12:01:25.16Z</time></trkpt><trkpt lat="43.0659276" lon="13.240135"><ele>615.0</ele><time>2026-05-03T12:01:26.161Z</time></trkpt><trkpt lat="43.0660295" lon="13.2402265"><ele>614.5</ele><time>2026-05-03T12:01:27.162Z</time></trkpt><trkpt lat="43.0661202" lon="13.2403053"><ele>614.0</ele><time>2026-05-03T12:01:28.159Z</time></trkpt><trkpt lat="43.0662199" lon="13.2403867"><ele>614.0</ele><time>2026-05-03T12:01:29.158Z</time></trkpt><trkpt lat="43.0663188" lon="13.2404627"><ele>614.0</ele><time>2026-05-03T12:01:30.161Z</time></trkpt><trkpt lat="43.0664164" lon="13.2405314"><ele>614.0</ele><time>2026-05-03T12:01:31.16Z</time></trkpt><trkpt lat="43.0665127" lon="13.2405942"><ele>614.0</ele><time>2026-05-03T12:01:32.159Z</time></trkpt><trkpt lat="43.0666166" lon="13.2406488"><ele>614.0</ele><time>2026-05-03T12:01:33.16Z</time></trkpt><trkpt lat="43.0667166" lon="13.2407011"><ele>613.8</ele><time>2026-05-03T12:01:34.161Z</time></trkpt><trkpt lat="43.0668234" lon="13.2407436"><ele>613.5999999999999</ele><time>2026-05-03T12:01:35.162Z</time></trkpt><trkpt lat="43.0669338" lon="13.240784"><ele>613.4</ele><time>2026-05-03T12:01:36.16Z</time></trkpt><trkpt lat="43.0670435" lon="13.2408239"><ele>613.1999999999999</ele><time>2026-05-03T12:01:37.161Z</time></trkpt><trkpt lat="43.0671411" lon="13.2408673"><ele>613.0</ele><time>2026-05-03T12:01:38.161Z</time></trkpt><trkpt lat="43.0672665" lon="13.2408849"><ele>613.0</ele><time>2026-05-03T12:01:39.16Z</time></trkpt><trkpt lat="43.0673859" lon="13.2409143"><ele>613.0</ele><time>2026-05-03T12:01:40.161Z</time></trkpt><trkpt lat="43.0675062" lon="13.240938"><ele>613.0</ele><time>2026-05-03T12:01:41.159Z</time></trkpt><trkpt lat="43.0676168" lon="13.2409583"><ele>613.0</ele><time>2026-05-03T12:01:42.161Z</time></trkpt><trkpt lat="43.0677222" lon="13.2409768"><ele>607.0</ele><time>2026-05-03T12:01:43.162Z</time></trkpt><trkpt lat="43.0678323" lon="13.2410329"><ele>601.0</ele><time>2026-05-03T12:01:44.16Z</time></trkpt><trkpt lat="43.0679465" lon="13.2410831"><ele>595.0</ele><time>2026-05-03T12:01:45.162Z</time></trkpt><trkpt lat="43.068051" lon="13.2411195"><ele>589.0</ele><time>2026-05-03T12:01:46.161Z</time></trkpt><trkpt lat="43.0681542" lon="13.2411567"><ele>589.0</ele><time>2026-05-03T12:01:47.162Z</time></trkpt><trkpt lat="43.0682575" lon="13.2412039"><ele>589.0</ele><time>2026-05-03T12:01:48.159Z</time></trkpt><trkpt lat="43.0683649" lon="13.2412605"><ele>589.0</ele><time>2026-05-03T12:01:49.163Z</time></trkpt><trkpt lat="43.0684619" lon="13.2413099"><ele>589.0</ele><time>2026-05-03T12:01:50.161Z</time></trkpt><trkpt lat="43.068565" lon="13.2413649"><ele>589.0</ele><time>2026-05-03T12:01:51.161Z</time></trkpt><trkpt lat="43.0686673" lon="13.2414218"><ele>587.4</ele><time>2026-05-03T12:01:52.161Z</time></trkpt><trkpt lat="43.0687715" lon="13.2414818"><ele>585.8</ele><time>2026-05-03T12:01:53.162Z</time></trkpt><trkpt lat="43.0688746" lon="13.2415391"><ele>584.2</ele><time>2026-05-03T12:01:54.161Z</time></trkpt><trkpt lat="43.068973" lon="13.2416022"><ele>582.6</ele><time>2026-05-03T12:01:55.161Z</time></trkpt><trkpt lat="43.0690666" lon="13.2416683"><ele>581.0</ele><time>2026-05-03T12:01:56.162Z</time></trkpt><trkpt lat="43.0691651" lon="13.241745"><ele>581.0</ele><time>2026-05-03T12:01:57.16Z</time></trkpt><trkpt lat="43.069263" lon="13.2418266"><ele>581.0</ele><time>2026-05-03T12:01:58.16Z</time></trkpt><trkpt lat="43.0693604" lon="13.2419167"><ele>581.0</ele><time>2026-05-03T12:01:59.161Z</time></trkpt><trkpt lat="43.0694553" lon="13.2420102"><ele>581.0</ele><time>2026-05-03T12:02:00.161Z</time></trkpt><trkpt lat="43.0695364" lon="13.2421068"><ele>581.0</ele><time>2026-05-03T12:02:01.16Z</time></trkpt><trkpt lat="43.0696213" lon="13.2422105"><ele>581.0</ele><time>2026-05-03T12:02:02.162Z</time></trkpt><trkpt lat="43.0697017" lon="13.2423257"><ele>581.0</ele><time>2026-05-03T12:02:03.16Z</time></trkpt><trkpt lat="43.0697756" lon="13.2424403"><ele>581.0</ele><time>2026-05-03T12:02:04.16Z</time></trkpt><trkpt lat="43.0698467" lon="13.2425614"><ele>582.25</ele><time>2026-05-03T12:02:05.16Z</time></trkpt><trkpt lat="43.0699255" lon="13.2426773"><ele>583.5</ele><time>2026-05-03T12:02:06.161Z</time></trkpt><trkpt lat="43.0700018" lon="13.2427915"><ele>584.75</ele><time>2026-05-03T12:02:07.161Z</time></trkpt><trkpt lat="43.0700752" lon="13.242907"><ele>586.0</ele><time>2026-05-03T12:02:08.161Z</time></trkpt><trkpt lat="43.0701522" lon="13.2430183"><ele>584.6</ele><time>2026-05-03T12:02:09.161Z</time></trkpt><trkpt lat="43.0702279" lon="13.2431293"><ele>583.2</ele><time>2026-05-03T12:02:10.161Z</time></trkpt><trkpt lat="43.070311" lon="13.2432361"><ele>581.8</ele><time>2026-05-03T12:02:11.16Z</time></trkpt><trkpt lat="43.0703859" lon="13.2433436"><ele>580.4</ele><time>2026-05-03T12:02:12.161Z</time></trkpt><trkpt lat="43.0704589" lon="13.243453"><ele>579.0</ele><time>2026-05-03T12:02:13.163Z</time></trkpt><trkpt lat="43.0705356" lon="13.2435612"><ele>579.0</ele><time>2026-05-03T12:02:14.161Z</time></trkpt><trkpt lat="43.0706096" lon="13.2436744"><ele>579.0</ele><time>2026-05-03T12:02:15.163Z</time></trkpt><trkpt lat="43.070678" lon="13.2437877"><ele>579.0</ele><time>2026-05-03T12:02:16.16Z</time></trkpt><trkpt lat="43.0707408" lon="13.243912"><ele>579.0</ele><time>2026-05-03T12:02:17.161Z</time></trkpt><trkpt lat="43.0707866" lon="13.2440469"><ele>579.0</ele><time>2026-05-03T12:02:18.161Z</time></trkpt><trkpt lat="43.0707983" lon="13.244189"><ele>574.8</ele><time>2026-05-03T12:02:19.161Z</time></trkpt><trkpt lat="43.0707669" lon="13.2443115"><ele>570.5999999999999</ele><time>2026-05-03T12:02:20.16Z</time></trkpt><trkpt lat="43.070695" lon="13.2444056"><ele>566.4</ele><time>2026-05-03T12:02:21.161Z</time></trkpt><trkpt lat="43.0706094" lon="13.2444123"><ele>562.1999999999999</ele><time>2026-05-03T12:02:22.162Z</time></trkpt><trkpt lat="43.0705199" lon="13.244393"><ele>558.0</ele><time>2026-05-03T12:02:23.161Z</time></trkpt><trkpt lat="43.0704179" lon="13.2443616"><ele>558.0</ele><time>2026-05-03T12:02:24.16Z</time></trkpt><trkpt lat="43.0703194" lon="13.2443249"><ele>558.0</ele><time>2026-05-03T12:02:25.161Z</time></trkpt><trkpt lat="43.0702241" lon="13.2442764"><ele>558.0</ele><time>2026-05-03T12:02:26.162Z</time></trkpt><trkpt lat="43.0701241" lon="13.244223"><ele>558.0</ele><time>2026-05-03T12:02:27.161Z</time></trkpt><trkpt lat="43.0700379" lon="13.244151"><ele>558.0</ele><time>2026-05-03T12:02:28.159Z</time></trkpt><trkpt lat="43.0699464" lon="13.244082"><ele>556.8</ele><time>2026-05-03T12:02:29.157Z</time></trkpt><trkpt lat="43.069855" lon="13.2440114"><ele>555.5999999999999</ele><time>2026-05-03T12:02:30.16Z</time></trkpt><trkpt lat="43.0697532" lon="13.2439459"><ele>554.4000000000001</ele><time>2026-05-03T12:02:31.161Z</time></trkpt><trkpt lat="43.0696699" lon="13.2438707"><ele>553.2</ele><time>2026-05-03T12:02:32.163Z</time></trkpt><trkpt lat="43.06958" lon="13.243785"><ele>552.0</ele><time>2026-05-03T12:02:33.162Z</time></trkpt><trkpt lat="43.0694952" lon="13.2436858"><ele>552.0</ele><time>2026-05-03T12:02:34.16Z</time></trkpt><trkpt lat="43.069422" lon="13.2435754"><ele>552.0</ele><time>2026-05-03T12:02:35.162Z</time></trkpt><trkpt lat="43.0693591" lon="13.2434511"><ele>552.0</ele><time>2026-05-03T12:02:36.159Z</time></trkpt><trkpt lat="43.069291" lon="13.2433293"><ele>552.0</ele><time>2026-05-03T12:02:37.161Z</time></trkpt><trkpt lat="43.0692184" lon="13.2432167"><ele>552.0</ele><time>2026-05-03T12:02:38.161Z</time></trkpt><trkpt lat="43.0691321" lon="13.2431238"><ele>558.0</ele><time>2026-05-03T12:02:39.16Z</time></trkpt><trkpt lat="43.0690328" lon="13.2430607"><ele>564.0</ele><time>2026-05-03T12:02:40.161Z</time></trkpt><trkpt lat="43.0689347" lon="13.2430163"><ele>570.0</ele><time>2026-05-03T12:02:41.16Z</time></trkpt><trkpt lat="43.0688272" lon="13.2429784"><ele>576.0</ele><time>2026-05-03T12:02:42.161Z</time></trkpt><trkpt lat="43.0687224" lon="13.2429501"><ele>582.0</ele><time>2026-05-03T12:02:43.161Z</time></trkpt><trkpt lat="43.0685984" lon="13.242986"><ele>582.0</ele><time>2026-05-03T12:02:44.161Z</time></trkpt><trkpt lat="43.0684952" lon="13.24299"><ele>582.0</ele><time>2026-05-03T12:02:45.161Z</time></trkpt><trkpt lat="43.0683772" lon="13.2430225"><ele>582.0</ele><time>2026-05-03T12:02:46.162Z</time></trkpt><trkpt lat="43.0682633" lon="13.2430112"><ele>582.0</ele><time>2026-05-03T12:02:47.16Z</time></trkpt><trkpt lat="43.0681571" lon="13.2430183"><ele>582.0</ele><time>2026-05-03T12:02:48.16Z</time></trkpt><trkpt lat="43.068043" lon="13.2429972"><ele>581.6</ele><time>2026-05-03T12:02:49.161Z</time></trkpt><trkpt lat="43.0679258" lon="13.2429966"><ele>581.2</ele><time>2026-05-03T12:02:50.161Z</time></trkpt><trkpt lat="43.0678215" lon="13.2429992"><ele>580.8</ele><time>2026-05-03T12:02:51.16Z</time></trkpt><trkpt lat="43.067712" lon="13.2430039"><ele>580.4</ele><time>2026-05-03T12:02:52.161Z</time></trkpt><trkpt lat="43.0676042" lon="13.2430013"><ele>580.0</ele><time>2026-05-03T12:02:53.162Z</time></trkpt><trkpt lat="43.0674927" lon="13.2429807"><ele>579.8</ele><time>2026-05-03T12:02:54.159Z</time></trkpt><trkpt lat="43.067387" lon="13.2429745"><ele>579.6</ele><time>2026-05-03T12:02:55.162Z</time></trkpt><trkpt lat="43.0672846" lon="13.2429679"><ele>579.4</ele><time>2026-05-03T12:02:56.164Z</time></trkpt><trkpt lat="43.0671774" lon="13.2429792"><ele>579.2</ele><time>2026-05-03T12:02:57.162Z</time></trkpt><trkpt lat="43.0670763" lon="13.2429951"><ele>579.0</ele><time>2026-05-03T12:02:58.161Z</time></trkpt><trkpt lat="43.0669719" lon="13.2430314"><ele>579.0</ele><time>2026-05-03T12:02:59.16Z</time></trkpt><trkpt lat="43.0668716" lon="13.2430686"><ele>579.0</ele><time>2026-05-03T12:03:00.16Z</time></trkpt><trkpt lat="43.066775" lon="13.2430978"><ele>579.0</ele><time>2026-05-03T12:03:01.162Z</time></trkpt><trkpt lat="43.066662" lon="13.2431094"><ele>579.0</ele><time>2026-05-03T12:03:02.161Z</time></trkpt><trkpt lat="43.066562" lon="13.2431207"><ele>579.0</ele><time>2026-05-03T12:03:03.16Z</time></trkpt><trkpt lat="43.0664597" lon="13.2431228"><ele>582.4</ele><time>2026-05-03T12:03:04.162Z</time></trkpt><trkpt lat="43.0663615" lon="13.2431047"><ele>585.8</ele><time>2026-05-03T12:03:05.161Z</time></trkpt><trkpt lat="43.0662594" lon="13.24309"><ele>589.2</ele><time>2026-05-03T12:03:06.16Z</time></trkpt><trkpt lat="43.0661617" lon="13.2431309"><ele>592.6</ele><time>2026-05-03T12:03:07.16Z</time></trkpt><trkpt lat="43.0660581" lon="13.2431768"><ele>596.0</ele><time>2026-05-03T12:03:08.16Z</time></trkpt><trkpt lat="43.0659706" lon="13.2432314"><ele>586.8</ele><time>2026-05-03T12:03:09.161Z</time></trkpt><trkpt lat="43.0658922" lon="13.2433132"><ele>577.6</ele><time>2026-05-03T12:03:10.16Z</time></trkpt><trkpt lat="43.0658352" lon="13.2434249"><ele>568.4</ele><time>2026-05-03T12:03:11.162Z</time></trkpt><trkpt lat="43.0657922" lon="13.2435708"><ele>559.2</ele><time>2026-05-03T12:03:12.161Z</time></trkpt><trkpt lat="43.0657768" lon="13.2437139"><ele>550.0</ele><time>2026-05-03T12:03:13.162Z</time></trkpt><trkpt lat="43.0657794" lon="13.2438193"><ele>543.8</ele><time>2026-05-03T12:03:14.162Z</time></trkpt><trkpt lat="43.0657614" lon="13.2439653"><ele>537.6</ele><time>2026-05-03T12:03:15.161Z</time></trkpt><trkpt lat="43.0657703" lon="13.2440852"><ele>531.4</ele><time>2026-05-03T12:03:16.162Z</time></trkpt><trkpt lat="43.0657903" lon="13.2442206"><ele>525.2</ele><time>2026-05-03T12:03:17.16Z</time></trkpt><trkpt lat="43.0658386" lon="13.2443327"><ele>519.0</ele><time>2026-05-03T12:03:18.161Z</time></trkpt><trkpt lat="43.0659013" lon="13.2444058"><ele>519.0</ele><time>2026-05-03T12:03:19.16Z</time></trkpt><trkpt lat="43.0659723" lon="13.2444512"><ele>519.0</ele><time>2026-05-03T12:03:20.16Z</time></trkpt><trkpt lat="43.0660412" lon="13.244464"><ele>519.0</ele><time>2026-05-03T12:03:21.16Z</time></trkpt><trkpt lat="43.0661048" lon="13.2444293"><ele>519.0</ele><time>2026-05-03T12:03:22.16Z</time></trkpt><trkpt lat="43.0661659" lon="13.2443955"><ele>519.0</ele><time>2026-05-03T12:03:23.161Z</time></trkpt><trkpt lat="43.0662886" lon="13.2443563"><ele>519.0</ele><time>2026-05-03T12:03:25.161Z</time></trkpt><trkpt lat="43.0663991" lon="13.2443577"><ele>519.0</ele><time>2026-05-03T12:03:27.161Z</time></trkpt><trkpt lat="43.0664903" lon="13.2443845"><ele>519.0</ele><time>2026-05-03T12:03:29.158Z</time></trkpt><trkpt lat="43.066581" lon="13.2444297"><ele>519.0</ele><time>2026-05-03T12:03:31.161Z</time></trkpt><trkpt lat="43.0666477" lon="13.2444505"><ele>519.0</ele><time>2026-05-03T12:03:33.158Z</time></trkpt><trkpt lat="43.0667228" lon="13.2445038"><ele>519.0</ele><time>2026-05-03T12:03:35.161Z</time></trkpt><trkpt lat="43.0668302" lon="13.2445256"><ele>518.5</ele><time>2026-05-03T12:03:37.164Z</time></trkpt><trkpt lat="43.0669575" lon="13.244518"><ele>518.0</ele><time>2026-05-03T12:03:39.16Z</time></trkpt><trkpt lat="43.0670238" lon="13.2445271"><ele>517.5</ele><time>2026-05-03T12:03:40.158Z</time></trkpt><trkpt lat="43.0670952" lon="13.2445363"><ele>517.0</ele><time>2026-05-03T12:03:41.16Z</time></trkpt><trkpt lat="43.0671656" lon="13.2445474"><ele>516.5</ele><time>2026-05-03T12:03:42.16Z</time></trkpt><trkpt lat="43.0672303" lon="13.2445588"><ele>516.0</ele><time>2026-05-03T12:03:43.16Z</time></trkpt><trkpt lat="43.0673349" lon="13.2445783"><ele>515.25</ele><time>2026-05-03T12:03:45.161Z</time></trkpt><trkpt lat="43.0674472" lon="13.2446179"><ele>514.5</ele><time>2026-05-03T12:03:47.161Z</time></trkpt><trkpt lat="43.0675617" lon="13.2446183"><ele>513.75</ele><time>2026-05-03T12:03:49.161Z</time></trkpt><trkpt lat="43.0676827" lon="13.2446188"><ele>513.0</ele><time>2026-05-03T12:03:51.161Z</time></trkpt><trkpt lat="43.0677985" lon="13.2446213"><ele>513.0</ele><time>2026-05-03T12:03:53.161Z</time></trkpt><trkpt lat="43.0679111" lon="13.2446265"><ele>513.0</ele><time>2026-05-03T12:03:55.161Z</time></trkpt><trkpt lat="43.0679987" lon="13.2446241"><ele>513.0</ele><time>2026-05-03T12:03:57.161Z</time></trkpt><trkpt lat="43.0680665" lon="13.2446524"><ele>513.0</ele><time>2026-05-03T12:03:58.158Z</time></trkpt><trkpt lat="43.0681937" lon="13.2447387"><ele>513.0</ele><time>2026-05-03T12:04:00.161Z</time></trkpt><trkpt lat="43.0682488" lon="13.244793"><ele>516.4</ele><time>2026-05-03T12:04:02.162Z</time></trkpt><trkpt lat="43.0683257" lon="13.244846"><ele>519.8</ele><time>2026-05-03T12:04:04.16Z</time></trkpt><trkpt lat="43.0684148" lon="13.2449417"><ele>523.2</ele><time>2026-05-03T12:04:06.161Z</time></trkpt><trkpt lat="43.0684975" lon="13.2450429"><ele>526.6</ele><time>2026-05-03T12:04:08.161Z</time></trkpt><trkpt lat="43.0685726" lon="13.2451568"><ele>530.0</ele><time>2026-05-03T12:04:10.161Z</time></trkpt><trkpt lat="43.06866" lon="13.2452606"><ele>530.0</ele><time>2026-05-03T12:04:12.158Z</time></trkpt><trkpt lat="43.0687652" lon="13.2453327"><ele>530.0</ele><time>2026-05-03T12:04:14.163Z</time></trkpt><trkpt lat="43.0688481" lon="13.2454372"><ele>530.0</ele><time>2026-05-03T12:04:16.161Z</time></trkpt><trkpt lat="43.0689161" lon="13.2454782"><ele>530.0</ele><time>2026-05-03T12:04:17.16Z</time></trkpt><trkpt lat="43.0689798" lon="13.2455257"><ele>530.0</ele><time>2026-05-03T12:04:18.161Z</time></trkpt><trkpt lat="43.0690537" lon="13.2456252"><ele>529.6</ele><time>2026-05-03T12:04:20.161Z</time></trkpt><trkpt lat="43.069114" lon="13.2457382"><ele>529.2</ele><time>2026-05-03T12:04:22.161Z</time></trkpt><trkpt lat="43.0691505" lon="13.2458694"><ele>528.8</ele><time>2026-05-03T12:04:24.161Z</time></trkpt><trkpt lat="43.0692245" lon="13.2459854"><ele>528.4</ele><time>2026-05-03T12:04:26.161Z</time></trkpt><trkpt lat="43.0692691" lon="13.2461206"><ele>528.0</ele><time>2026-05-03T12:04:28.159Z</time></trkpt><trkpt lat="43.0693438" lon="13.2462378"><ele>528.0</ele><time>2026-05-03T12:04:30.161Z</time></trkpt><trkpt lat="43.0694167" lon="13.2463527"><ele>528.0</ele><time>2026-05-03T12:04:32.161Z</time></trkpt><trkpt lat="43.0694793" lon="13.2464481"><ele>528.0</ele><time>2026-05-03T12:04:34.161Z</time></trkpt><trkpt lat="43.069561" lon="13.2465228"><ele>528.0</ele><time>2026-05-03T12:04:36.16Z</time></trkpt><trkpt lat="43.0696693" lon="13.2465965"><ele>528.0</ele><time>2026-05-03T12:04:38.16Z</time></trkpt><trkpt lat="43.0697496" lon="13.2466885"><ele>527.4</ele><time>2026-05-03T12:04:40.161Z</time></trkpt><trkpt lat="43.0698172" lon="13.2467297"><ele>526.8</ele><time>2026-05-03T12:04:41.162Z</time></trkpt><trkpt lat="43.069886" lon="13.2467817"><ele>526.2</ele><time>2026-05-03T12:04:42.162Z</time></trkpt><trkpt lat="43.0699637" lon="13.2468964"><ele>525.6</ele><time>2026-05-03T12:04:44.16Z</time></trkpt><trkpt lat="43.070051" lon="13.2470142"><ele>525.0</ele><time>2026-05-03T12:04:46.162Z</time></trkpt><trkpt lat="43.0701015" lon="13.2470737"><ele>525.0</ele><time>2026-05-03T12:04:47.16Z</time></trkpt><trkpt lat="43.0701515" lon="13.2471325"><ele>525.0</ele><time>2026-05-03T12:04:48.163Z</time></trkpt><trkpt lat="43.0702067" lon="13.2471914"><ele>525.0</ele><time>2026-05-03T12:04:49.162Z</time></trkpt><trkpt lat="43.0702823" lon="13.2473297"><ele>525.0</ele><time>2026-05-03T12:04:51.162Z</time></trkpt><trkpt lat="43.0703486" lon="13.2474402"><ele>525.0</ele><time>2026-05-03T12:04:53.164Z</time></trkpt><trkpt lat="43.0704273" lon="13.247555"><ele>524.6666666666666</ele><time>2026-05-03T12:04:55.162Z</time></trkpt><trkpt lat="43.0704746" lon="13.2476159"><ele>524.3333333333334</ele><time>2026-05-03T12:04:56.161Z</time></trkpt><trkpt lat="43.0705206" lon="13.2476794"><ele>524.0</ele><time>2026-05-03T12:04:57.161Z</time></trkpt><trkpt lat="43.0705889" lon="13.2477828"><ele>523.6666666666667</ele><time>2026-05-03T12:04:59.162Z</time></trkpt><trkpt lat="43.0706619" lon="13.2478232"><ele>523.3333333333334</ele><time>2026-05-03T12:05:00.161Z</time></trkpt><trkpt lat="43.0707293" lon="13.2478648"><ele>523.0</ele><time>2026-05-03T12:05:01.162Z</time></trkpt><trkpt lat="43.070847" lon="13.2479328"><ele>523.0</ele><time>2026-05-03T12:05:03.162Z</time></trkpt><trkpt lat="43.070959" lon="13.2480049"><ele>523.0</ele><time>2026-05-03T12:05:05.161Z</time></trkpt><trkpt lat="43.071021" lon="13.248033"><ele>523.0</ele><time>2026-05-03T12:05:06.16Z</time></trkpt><trkpt lat="43.071085" lon="13.2480658"><ele>523.0</ele><time>2026-05-03T12:05:07.161Z</time></trkpt><trkpt lat="43.0712009" lon="13.2480999"><ele>523.0</ele><time>2026-05-03T12:05:09.161Z</time></trkpt><trkpt lat="43.0713002" lon="13.2481257"><ele>525.8</ele><time>2026-05-03T12:05:11.161Z</time></trkpt><trkpt lat="43.0713974" lon="13.248149"><ele>528.5999999999999</ele><time>2026-05-03T12:05:13.161Z</time></trkpt><trkpt lat="43.0714999" lon="13.2481497"><ele>531.4000000000001</ele><time>2026-05-03T12:05:15.16Z</time></trkpt><trkpt lat="43.0716204" lon="13.2481615"><ele>534.2</ele><time>2026-05-03T12:05:17.162Z</time></trkpt><trkpt lat="43.0717448" lon="13.2481755"><ele>537.0</ele><time>2026-05-03T12:05:19.161Z</time></trkpt><trkpt lat="43.0718085" lon="13.2481953"><ele>537.0</ele><time>2026-05-03T12:05:20.161Z</time></trkpt><trkpt lat="43.0719237" lon="13.2482422"><ele>537.0</ele><time>2026-05-03T12:05:22.161Z</time></trkpt><trkpt lat="43.0720394" lon="13.2482977"><ele>537.0</ele><time>2026-05-03T12:05:24.162Z</time></trkpt><trkpt lat="43.0721483" lon="13.2483737"><ele>537.0</ele><time>2026-05-03T12:05:26.161Z</time></trkpt><trkpt lat="43.0722035" lon="13.2484264"><ele>537.0</ele><time>2026-05-03T12:05:27.16Z</time></trkpt><trkpt lat="43.0722631" lon="13.248471"><ele>537.0</ele><time>2026-05-03T12:05:28.159Z</time></trkpt><trkpt lat="43.0723244" lon="13.2485185"><ele>537.0</ele><time>2026-05-03T12:05:29.158Z</time></trkpt><trkpt lat="43.0723808" lon="13.24856"><ele>537.0</ele><time>2026-05-03T12:05:30.16Z</time></trkpt><trkpt lat="43.0724481" lon="13.2486637"><ele>537.0</ele><time>2026-05-03T12:05:32.159Z</time></trkpt><trkpt lat="43.0725177" lon="13.2487653"><ele>537.0</ele><time>2026-05-03T12:05:34.161Z</time></trkpt><trkpt lat="43.0725991" lon="13.248884"><ele>535.0</ele><time>2026-05-03T12:05:36.162Z</time></trkpt><trkpt lat="43.0726461" lon="13.2489462"><ele>533.0</ele><time>2026-05-03T12:05:37.161Z</time></trkpt><trkpt lat="43.0726897" lon="13.2490136"><ele>531.0</ele><time>2026-05-03T12:05:38.161Z</time></trkpt><trkpt lat="43.072736" lon="13.2490753"><ele>529.0</ele><time>2026-05-03T12:05:39.163Z</time></trkpt><trkpt lat="43.0727823" lon="13.2491408"><ele>527.0</ele><time>2026-05-03T12:05:40.162Z</time></trkpt><trkpt lat="43.0728755" lon="13.2492565"><ele>525.0</ele><time>2026-05-03T12:05:42.161Z</time></trkpt><trkpt lat="43.0729351" lon="13.2493046"><ele>529.8</ele><time>2026-05-03T12:05:43.161Z</time></trkpt><trkpt lat="43.07302" lon="13.2494132"><ele>534.6</ele><time>2026-05-03T12:05:45.163Z</time></trkpt><trkpt lat="43.0730695" lon="13.2494758"><ele>539.4</ele><time>2026-05-03T12:05:46.162Z</time></trkpt><trkpt lat="43.0731346" lon="13.2495762"><ele>544.2</ele><time>2026-05-03T12:05:48.159Z</time></trkpt><trkpt lat="43.0731999" lon="13.2496678"><ele>549.0</ele><time>2026-05-03T12:05:50.16Z</time></trkpt><trkpt lat="43.073263" lon="13.2497651"><ele>545.25</ele><time>2026-05-03T12:05:52.161Z</time></trkpt><trkpt lat="43.0733238" lon="13.2498809"><ele>541.5</ele><time>2026-05-03T12:05:54.162Z</time></trkpt><trkpt lat="43.0733949" lon="13.2500138"><ele>537.75</ele><time>2026-05-03T12:05:56.162Z</time></trkpt><trkpt lat="43.0734531" lon="13.2501503"><ele>534.0</ele><time>2026-05-03T12:05:58.162Z</time></trkpt><trkpt lat="43.0735109" lon="13.2502894"><ele>534.0</ele><time>2026-05-03T12:06:00.162Z</time></trkpt><trkpt lat="43.0735607" lon="13.2504258"><ele>534.0</ele><time>2026-05-03T12:06:02.16Z</time></trkpt><trkpt lat="43.0735944" lon="13.2505592"><ele>534.0</ele><time>2026-05-03T12:06:04.158Z</time></trkpt><trkpt lat="43.0736497" lon="13.2506802"><ele>534.0</ele><time>2026-05-03T12:06:06.162Z</time></trkpt><trkpt lat="43.0737044" lon="13.2508009"><ele>534.0</ele><time>2026-05-03T12:06:08.161Z</time></trkpt><trkpt lat="43.0737602" lon="13.2509177"><ele>535.6666666666666</ele><time>2026-05-03T12:06:10.163Z</time></trkpt><trkpt lat="43.0738009" lon="13.2510293"><ele>537.3333333333334</ele><time>2026-05-03T12:06:12.161Z</time></trkpt><trkpt lat="43.0738422" lon="13.2511374"><ele>539.0</ele><time>2026-05-03T12:06:14.161Z</time></trkpt><trkpt lat="43.0738848" lon="13.2512435"><ele>540.6666666666667</ele><time>2026-05-03T12:06:16.162Z</time></trkpt><trkpt lat="43.0739318" lon="13.2513457"><ele>542.3333333333334</ele><time>2026-05-03T12:06:18.159Z</time></trkpt><trkpt lat="43.0739741" lon="13.2514477"><ele>544.0</ele><time>2026-05-03T12:06:20.16Z</time></trkpt><trkpt lat="43.0740091" lon="13.2515567"><ele>548.0</ele><time>2026-05-03T12:06:22.16Z</time></trkpt><trkpt lat="43.0740591" lon="13.2516862"><ele>552.0</ele><time>2026-05-03T12:06:24.159Z</time></trkpt><trkpt lat="43.0741069" lon="13.2518153"><ele>556.0</ele><time>2026-05-03T12:06:26.16Z</time></trkpt><trkpt lat="43.0741496" lon="13.2519703"><ele>560.0</ele><time>2026-05-03T12:06:28.161Z</time></trkpt><trkpt lat="43.0741698" lon="13.2520662"><ele>564.0</ele><time>2026-05-03T12:06:29.159Z</time></trkpt><trkpt lat="43.0741951" lon="13.2521578"><ele>558.4285714285714</ele><time>2026-05-03T12:06:30.158Z</time></trkpt><trkpt lat="43.0742139" lon="13.2522444"><ele>552.8571428571429</ele><time>2026-05-03T12:06:31.162Z</time></trkpt><trkpt lat="43.0742334" lon="13.2523403"><ele>547.2857142857142</ele><time>2026-05-03T12:06:32.161Z</time></trkpt><trkpt lat="43.0742553" lon="13.252435"><ele>541.7142857142858</ele><time>2026-05-03T12:06:33.161Z</time></trkpt><trkpt lat="43.0742669" lon="13.2525344"><ele>536.1428571428571</ele><time>2026-05-03T12:06:34.161Z</time></trkpt><trkpt lat="43.0742809" lon="13.2526234"><ele>530.5714285714286</ele><time>2026-05-03T12:06:35.162Z</time></trkpt><trkpt lat="43.074297" lon="13.2527174"><ele>525.0</ele><time>2026-05-03T12:06:36.161Z</time></trkpt><trkpt lat="43.0743051" lon="13.2528088"><ele>525.0</ele><time>2026-05-03T12:06:37.16Z</time></trkpt><trkpt lat="43.0743118" lon="13.2529168"><ele>525.0</ele><time>2026-05-03T12:06:38.16Z</time></trkpt><trkpt lat="43.0743125" lon="13.2530066"><ele>525.0</ele><time>2026-05-03T12:06:39.162Z</time></trkpt><trkpt lat="43.0743087" lon="13.2531035"><ele>525.0</ele><time>2026-05-03T12:06:40.162Z</time></trkpt><trkpt lat="43.0743025" lon="13.2531932"><ele>525.0</ele><time>2026-05-03T12:06:41.161Z</time></trkpt><trkpt lat="43.0742916" lon="13.2532886"><ele>525.0</ele><time>2026-05-03T12:06:42.163Z</time></trkpt><trkpt lat="43.0742707" lon="13.2533827"><ele>525.0</ele><time>2026-05-03T12:06:43.162Z</time></trkpt><trkpt lat="43.0742439" lon="13.2534707"><ele>525.1666666666666</ele><time>2026-05-03T12:06:44.16Z</time></trkpt><trkpt lat="43.0742194" lon="13.2535547"><ele>525.3333333333334</ele><time>2026-05-03T12:06:45.162Z</time></trkpt><trkpt lat="43.0741824" lon="13.2536489"><ele>525.5</ele><time>2026-05-03T12:06:46.16Z</time></trkpt><trkpt lat="43.0741574" lon="13.2537388"><ele>525.6666666666667</ele><time>2026-05-03T12:06:47.162Z</time></trkpt><trkpt lat="43.0741296" lon="13.253827"><ele>525.8333333333334</ele><time>2026-05-03T12:06:48.161Z</time></trkpt><trkpt lat="43.0741009" lon="13.2539224"><ele>526.0</ele><time>2026-05-03T12:06:49.159Z</time></trkpt><trkpt lat="43.0740731" lon="13.2541009"><ele>526.5</ele><time>2026-05-03T12:06:51.16Z</time></trkpt><trkpt lat="43.0740836" lon="13.254192"><ele>527.0</ele><time>2026-05-03T12:06:52.16Z</time></trkpt><trkpt lat="43.0740825" lon="13.2542998"><ele>527.5</ele><time>2026-05-03T12:06:53.162Z</time></trkpt><trkpt lat="43.0741297" lon="13.2543675"><ele>528.0</ele><time>2026-05-03T12:06:54.16Z</time></trkpt><trkpt lat="43.0741669" lon="13.2544699"><ele>528.5</ele><time>2026-05-03T12:06:55.162Z</time></trkpt><trkpt lat="43.0743015" lon="13.2545139"><ele>529.0</ele><time>2026-05-03T12:06:57.16Z</time></trkpt><trkpt lat="43.07437" lon="13.2545253"><ele>529.0</ele><time>2026-05-03T12:06:58.163Z</time></trkpt><trkpt lat="43.0744398" lon="13.2545273"><ele>529.0</ele><time>2026-05-03T12:06:59.16Z</time></trkpt><trkpt lat="43.0745118" lon="13.2545361"><ele>529.0</ele><time>2026-05-03T12:07:00.161Z</time></trkpt><trkpt lat="43.0745905" lon="13.2545406"><ele>529.0</ele><time>2026-05-03T12:07:01.161Z</time></trkpt><trkpt lat="43.0746568" lon="13.2545506"><ele>529.0</ele><time>2026-05-03T12:07:02.16Z</time></trkpt><trkpt lat="43.074727" lon="13.2545825"><ele>529.0</ele><time>2026-05-03T12:07:03.162Z</time></trkpt><trkpt lat="43.0747916" lon="13.2546265"><ele>529.0</ele><time>2026-05-03T12:07:04.161Z</time></trkpt><trkpt lat="43.0748572" lon="13.2546987"><ele>529.0</ele><time>2026-05-03T12:07:05.161Z</time></trkpt><trkpt lat="43.0749178" lon="13.2547647"><ele>529.0</ele><time>2026-05-03T12:07:06.161Z</time></trkpt><trkpt lat="43.0749702" lon="13.2548349"><ele>529.0</ele><time>2026-05-03T12:07:07.161Z</time></trkpt><trkpt lat="43.0750307" lon="13.2549191"><ele>529.0</ele><time>2026-05-03T12:07:08.16Z</time></trkpt><trkpt lat="43.0750877" lon="13.2549893"><ele>529.0</ele><time>2026-05-03T12:07:09.161Z</time></trkpt><trkpt lat="43.0752054" lon="13.2550435"><ele>529.0</ele><time>2026-05-03T12:07:10.162Z</time></trkpt><trkpt lat="43.0752858" lon="13.2550996"><ele>529.6</ele><time>2026-05-03T12:07:11.162Z</time></trkpt><trkpt lat="43.0753706" lon="13.2551508"><ele>530.2</ele><time>2026-05-03T12:07:12.162Z</time></trkpt><trkpt lat="43.0754577" lon="13.2552109"><ele>530.8000000000001</ele><time>2026-05-03T12:07:13.162Z</time></trkpt><trkpt lat="43.0755252" lon="13.2552745"><ele>531.4</ele><time>2026-05-03T12:07:14.162Z</time></trkpt><trkpt lat="43.0756033" lon="13.2553644"><ele>532.0</ele><time>2026-05-03T12:07:15.16Z</time></trkpt><trkpt lat="43.0756576" lon="13.2554584"><ele>532.0</ele><time>2026-05-03T12:07:16.161Z</time></trkpt><trkpt lat="43.0757185" lon="13.2555525"><ele>532.0</ele><time>2026-05-03T12:07:17.161Z</time></trkpt><trkpt lat="43.0757844" lon="13.2556488"><ele>532.0</ele><time>2026-05-03T12:07:18.161Z</time></trkpt><trkpt lat="43.0758434" lon="13.2557462"><ele>532.0</ele><time>2026-05-03T12:07:19.162Z</time></trkpt><trkpt lat="43.0758957" lon="13.2558458"><ele>532.0</ele><time>2026-05-03T12:07:20.161Z</time></trkpt><trkpt lat="43.075945" lon="13.2559478"><ele>529.3333333333334</ele><time>2026-05-03T12:07:21.161Z</time></trkpt><trkpt lat="43.0759943" lon="13.256043"><ele>526.6666666666667</ele><time>2026-05-03T12:07:22.161Z</time></trkpt><trkpt lat="43.0760445" lon="13.2561345"><ele>524.0</ele><time>2026-05-03T12:07:23.163Z</time></trkpt><trkpt lat="43.07609" lon="13.2562314"><ele>521.3333333333334</ele><time>2026-05-03T12:07:24.158Z</time></trkpt><trkpt lat="43.0761271" lon="13.2563389"><ele>518.6666666666666</ele><time>2026-05-03T12:07:25.162Z</time></trkpt><trkpt lat="43.0761672" lon="13.2564395"><ele>516.0</ele><time>2026-05-03T12:07:26.162Z</time></trkpt><trkpt lat="43.0762122" lon="13.2565379"><ele>510.3333333333333</ele><time>2026-05-03T12:07:27.161Z</time></trkpt><trkpt lat="43.0762601" lon="13.256637"><ele>504.66666666666663</ele><time>2026-05-03T12:07:28.162Z</time></trkpt><trkpt lat="43.0763323" lon="13.2567147"><ele>499.0</ele><time>2026-05-03T12:07:29.16Z</time></trkpt><trkpt lat="43.0763967" lon="13.2567991"><ele>493.3333333333333</ele><time>2026-05-03T12:07:30.158Z</time></trkpt><trkpt lat="43.076464" lon="13.2568769"><ele>487.66666666666663</ele><time>2026-05-03T12:07:31.16Z</time></trkpt><trkpt lat="43.0765443" lon="13.2569421"><ele>482.0</ele><time>2026-05-03T12:07:32.162Z</time></trkpt><trkpt lat="43.0766175" lon="13.2570126"><ele>481.99999999999994</ele><time>2026-05-03T12:07:33.162Z</time></trkpt><trkpt lat="43.0766829" lon="13.2570984"><ele>482.0</ele><time>2026-05-03T12:07:34.161Z</time></trkpt><trkpt lat="43.076737" lon="13.2571809"><ele>482.0</ele><time>2026-05-03T12:07:35.161Z</time></trkpt><trkpt lat="43.0767772" lon="13.2572713"><ele>482.0</ele><time>2026-05-03T12:07:36.162Z</time></trkpt><trkpt lat="43.0768056" lon="13.2573691"><ele>481.99999999999994</ele><time>2026-05-03T12:07:37.161Z</time></trkpt><trkpt lat="43.0768061" lon="13.2574717"><ele>482.0</ele><time>2026-05-03T12:07:38.16Z</time></trkpt><trkpt lat="43.0768011" lon="13.2575634"><ele>485.6</ele><time>2026-05-03T12:07:39.161Z</time></trkpt><trkpt lat="43.0767886" lon="13.2577298"><ele>489.20000000000005</ele><time>2026-05-03T12:07:41.161Z</time></trkpt><trkpt lat="43.0767773" lon="13.2578703"><ele>492.8</ele><time>2026-05-03T12:07:43.161Z</time></trkpt><trkpt lat="43.0767659" lon="13.2580308"><ele>496.4</ele><time>2026-05-03T12:07:45.161Z</time></trkpt><trkpt lat="43.0767418" lon="13.2581221"><ele>500.0</ele><time>2026-05-03T12:07:46.161Z</time></trkpt><trkpt lat="43.0766888" lon="13.2582419"><ele>503.8</ele><time>2026-05-03T12:07:48.161Z</time></trkpt><trkpt lat="43.0765851" lon="13.2583347"><ele>507.6</ele><time>2026-05-03T12:07:50.162Z</time></trkpt><trkpt lat="43.0764736" lon="13.2583833"><ele>511.4</ele><time>2026-05-03T12:07:52.161Z</time></trkpt><trkpt lat="43.0763618" lon="13.258411"><ele>515.2</ele><time>2026-05-03T12:07:54.162Z</time></trkpt><trkpt lat="43.0762932" lon="13.258415"><ele>519.0</ele><time>2026-05-03T12:07:55.163Z</time></trkpt><trkpt lat="43.0761629" lon="13.2584202"><ele>519.0</ele><time>2026-05-03T12:07:57.161Z</time></trkpt><trkpt lat="43.0760572" lon="13.258451"><ele>519.0</ele><time>2026-05-03T12:07:59.161Z</time></trkpt><trkpt lat="43.0759647" lon="13.2584754"><ele>519.0</ele><time>2026-05-03T12:08:01.161Z</time></trkpt><trkpt lat="43.0758964" lon="13.2585032"><ele>519.0</ele><time>2026-05-03T12:08:02.161Z</time></trkpt><trkpt lat="43.0757822" lon="13.2585541"><ele>519.0</ele><time>2026-05-03T12:08:04.161Z</time></trkpt><trkpt lat="43.075658" lon="13.2585943"><ele>520.8571428571429</ele><time>2026-05-03T12:08:06.161Z</time></trkpt><trkpt lat="43.075585" lon="13.2586237"><ele>522.7142857142857</ele><time>2026-05-03T12:08:07.161Z</time></trkpt><trkpt lat="43.0755208" lon="13.2586597"><ele>524.5714285714286</ele><time>2026-05-03T12:08:08.161Z</time></trkpt><trkpt lat="43.0754512" lon="13.2586793"><ele>526.4285714285714</ele><time>2026-05-03T12:08:09.162Z</time></trkpt><trkpt lat="43.0753848" lon="13.2586987"><ele>528.2857142857142</ele><time>2026-05-03T12:08:10.161Z</time></trkpt><trkpt lat="43.075314" lon="13.2587111"><ele>530.1428571428571</ele><time>2026-05-03T12:08:11.162Z</time></trkpt><trkpt lat="43.0752487" lon="13.2587401"><ele>532.0</ele><time>2026-05-03T12:08:12.16Z</time></trkpt><trkpt lat="43.0751295" lon="13.2587848"><ele>532.0</ele><time>2026-05-03T12:08:14.163Z</time></trkpt><trkpt lat="43.0750289" lon="13.2588644"><ele>532.0</ele><time>2026-05-03T12:08:16.162Z</time></trkpt><trkpt lat="43.0749719" lon="13.2589058"><ele>532.0</ele><time>2026-05-03T12:08:17.161Z</time></trkpt><trkpt lat="43.0749185" lon="13.2589687"><ele>532.0</ele><time>2026-05-03T12:08:18.161Z</time></trkpt><trkpt lat="43.074855" lon="13.259072"><ele>532.0</ele><time>2026-05-03T12:08:20.162Z</time></trkpt><trkpt lat="43.074829" lon="13.2591994"><ele>532.0</ele><time>2026-05-03T12:08:22.161Z</time></trkpt><trkpt lat="43.0748279" lon="13.2593045"><ele>528.6</ele><time>2026-05-03T12:08:24.161Z</time></trkpt><trkpt lat="43.0748443" lon="13.2593966"><ele>525.2</ele><time>2026-05-03T12:08:26.162Z</time></trkpt><trkpt lat="43.0749184" lon="13.2595093"><ele>521.8</ele><time>2026-05-03T12:08:28.16Z</time></trkpt><trkpt lat="43.0750078" lon="13.2595989"><ele>518.4</ele><time>2026-05-03T12:08:30.159Z</time></trkpt><trkpt lat="43.0751221" lon="13.259645"><ele>515.0</ele><time>2026-05-03T12:08:32.162Z</time></trkpt><trkpt lat="43.0752381" lon="13.2596662"><ele>512.6</ele><time>2026-05-03T12:08:34.16Z</time></trkpt><trkpt lat="43.0753555" lon="13.2596894"><ele>510.2</ele><time>2026-05-03T12:08:36.161Z</time></trkpt><trkpt lat="43.0754595" lon="13.2597158"><ele>507.79999999999995</ele><time>2026-05-03T12:08:38.162Z</time></trkpt><trkpt lat="43.0755628" lon="13.2597422"><ele>505.4</ele><time>2026-05-03T12:08:40.163Z</time></trkpt><trkpt lat="43.0756789" lon="13.259767"><ele>503.0</ele><time>2026-05-03T12:08:42.161Z</time></trkpt><trkpt lat="43.0757873" lon="13.2598009"><ele>503.0</ele><time>2026-05-03T12:08:44.16Z</time></trkpt><trkpt lat="43.0759006" lon="13.2598491"><ele>503.0</ele><time>2026-05-03T12:08:46.161Z</time></trkpt><trkpt lat="43.0760064" lon="13.2598926"><ele>503.0</ele><time>2026-05-03T12:08:48.161Z</time></trkpt><trkpt lat="43.0761159" lon="13.2599283"><ele>503.0</ele><time>2026-05-03T12:08:50.162Z</time></trkpt><trkpt lat="43.0762215" lon="13.2599629"><ele>503.0</ele><time>2026-05-03T12:08:52.161Z</time></trkpt><trkpt lat="43.0763368" lon="13.2600056"><ele>502.99999999999994</ele><time>2026-05-03T12:08:54.161Z</time></trkpt><trkpt lat="43.0764418" lon="13.2600546"><ele>502.99999999999994</ele><time>2026-05-03T12:08:56.161Z</time></trkpt><trkpt lat="43.0765276" lon="13.260128"><ele>503.0</ele><time>2026-05-03T12:08:58.162Z</time></trkpt><trkpt lat="43.0765762" lon="13.260255"><ele>503.0</ele><time>2026-05-03T12:09:00.161Z</time></trkpt><trkpt lat="43.0765696" lon="13.2603858"><ele>503.0</ele><time>2026-05-03T12:09:02.162Z</time></trkpt><trkpt lat="43.0765556" lon="13.2605208"><ele>502.99999999999994</ele><time>2026-05-03T12:09:04.161Z</time></trkpt><trkpt lat="43.0765443" lon="13.2606498"><ele>502.99999999999994</ele><time>2026-05-03T12:09:06.161Z</time></trkpt><trkpt lat="43.0765365" lon="13.260795"><ele>503.0</ele><time>2026-05-03T12:09:08.162Z</time></trkpt><trkpt lat="43.0765191" lon="13.2609409"><ele>503.0</ele><time>2026-05-03T12:09:10.161Z</time></trkpt><trkpt lat="43.0764848" lon="13.261102"><ele>504.49999999999994</ele><time>2026-05-03T12:09:12.163Z</time></trkpt><trkpt lat="43.0764701" lon="13.2611901"><ele>506.0</ele><time>2026-05-03T12:09:13.162Z</time></trkpt><trkpt lat="43.0764433" lon="13.2612781"><ele>507.5</ele><time>2026-05-03T12:09:14.161Z</time></trkpt><trkpt lat="43.0764213" lon="13.2613661"><ele>509.0</ele><time>2026-05-03T12:09:15.162Z</time></trkpt><trkpt lat="43.0764005" lon="13.2615301"><ele>510.49999999999994</ele><time>2026-05-03T12:09:17.162Z</time></trkpt><trkpt lat="43.076383" lon="13.2616965"><ele>512.0</ele><time>2026-05-03T12:09:19.161Z</time></trkpt><trkpt lat="43.0763426" lon="13.2618546"><ele>512.0</ele><time>2026-05-03T12:09:21.163Z</time></trkpt><trkpt lat="43.0763105" lon="13.2619348"><ele>512.0</ele><time>2026-05-03T12:09:22.162Z</time></trkpt><trkpt lat="43.0762566" lon="13.2620812"><ele>512.0</ele><time>2026-05-03T12:09:24.162Z</time></trkpt><trkpt lat="43.0762012" lon="13.262207"><ele>512.0</ele><time>2026-05-03T12:09:26.161Z</time></trkpt><trkpt lat="43.0761408" lon="13.2623409"><ele>512.0</ele><time>2026-05-03T12:09:28.162Z</time></trkpt><trkpt lat="43.0760901" lon="13.262489"><ele>509.99999999999994</ele><time>2026-05-03T12:09:30.159Z</time></trkpt><trkpt lat="43.076058" lon="13.2625682"><ele>508.0</ele><time>2026-05-03T12:09:31.163Z</time></trkpt><trkpt lat="43.0760148" lon="13.2627354"><ele>506.0</ele><time>2026-05-03T12:09:33.162Z</time></trkpt><trkpt lat="43.0760035" lon="13.2628212"><ele>504.0</ele><time>2026-05-03T12:09:34.163Z</time></trkpt><trkpt lat="43.0759974" lon="13.2629144"><ele>501.99999999999994</ele><time>2026-05-03T12:09:35.162Z</time></trkpt><trkpt lat="43.0759982" lon="13.2630099"><ele>500.0</ele><time>2026-05-03T12:09:36.162Z</time></trkpt><trkpt lat="43.0760132" lon="13.2630969"><ele>498.66666666666663</ele><time>2026-05-03T12:09:37.161Z</time></trkpt><trkpt lat="43.0760241" lon="13.2631912"><ele>497.3333333333333</ele><time>2026-05-03T12:09:38.162Z</time></trkpt><trkpt lat="43.0760401" lon="13.2632761"><ele>496.0</ele><time>2026-05-03T12:09:39.162Z</time></trkpt><trkpt lat="43.0760618" lon="13.26336"><ele>494.66666666666663</ele><time>2026-05-03T12:09:40.162Z</time></trkpt><trkpt lat="43.076083" lon="13.2634481"><ele>493.3333333333333</ele><time>2026-05-03T12:09:41.163Z</time></trkpt><trkpt lat="43.0761024" lon="13.2635352"><ele>492.0</ele><time>2026-05-03T12:09:42.163Z</time></trkpt><trkpt lat="43.0761496" lon="13.2636943"><ele>492.0</ele><time>2026-05-03T12:09:44.162Z</time></trkpt><trkpt lat="43.0761866" lon="13.2638508"><ele>492.00000000000006</ele><time>2026-05-03T12:09:46.162Z</time></trkpt><trkpt lat="43.0762035" lon="13.2639355"><ele>492.00000000000006</ele><time>2026-05-03T12:09:47.163Z</time></trkpt><trkpt lat="43.0762223" lon="13.2640189"><ele>492.0</ele><time>2026-05-03T12:09:48.161Z</time></trkpt><trkpt lat="43.0762645" lon="13.2641696"><ele>492.0</ele><time>2026-05-03T12:09:50.162Z</time></trkpt><trkpt lat="43.0763089" lon="13.2643128"><ele>491.7142857142858</ele><time>2026-05-03T12:09:52.163Z</time></trkpt><trkpt lat="43.0763502" lon="13.2644617"><ele>491.42857142857144</ele><time>2026-05-03T12:09:54.163Z</time></trkpt><trkpt lat="43.0763711" lon="13.2645457"><ele>491.14285714285717</ele><time>2026-05-03T12:09:55.163Z</time></trkpt><trkpt lat="43.0763934" lon="13.2646281"><ele>490.8571428571429</ele><time>2026-05-03T12:09:56.161Z</time></trkpt><trkpt lat="43.076416" lon="13.2647163"><ele>490.57142857142856</ele><time>2026-05-03T12:09:57.164Z</time></trkpt><trkpt lat="43.0764383" lon="13.2648042"><ele>490.2857142857143</ele><time>2026-05-03T12:09:58.163Z</time></trkpt><trkpt lat="43.0764593" lon="13.2648884"><ele>490.0</ele><time>2026-05-03T12:09:59.161Z</time></trkpt><trkpt lat="43.0765011" lon="13.265047"><ele>490.0</ele><time>2026-05-03T12:10:01.162Z</time></trkpt><trkpt lat="43.0765455" lon="13.2652118"><ele>490.0</ele><time>2026-05-03T12:10:03.163Z</time></trkpt><trkpt lat="43.0765695" lon="13.2652953"><ele>490.0</ele><time>2026-05-03T12:10:04.162Z</time></trkpt><trkpt lat="43.0765973" lon="13.2653777"><ele>490.0</ele><time>2026-05-03T12:10:05.163Z</time></trkpt><trkpt lat="43.0766345" lon="13.2655479"><ele>490.0</ele><time>2026-05-03T12:10:07.162Z</time></trkpt><trkpt lat="43.0766577" lon="13.2656373"><ele>489.6</ele><time>2026-05-03T12:10:08.161Z</time></trkpt><trkpt lat="43.0767027" lon="13.2658019"><ele>489.2</ele><time>2026-05-03T12:10:10.163Z</time></trkpt><trkpt lat="43.0767203" lon="13.2658853"><ele>488.79999999999995</ele><time>2026-05-03T12:10:11.161Z</time></trkpt><trkpt lat="43.0767645" lon="13.2660409"><ele>488.4</ele><time>2026-05-03T12:10:13.164Z</time></trkpt><trkpt lat="43.0768121" lon="13.2662015"><ele>488.0</ele><time>2026-05-03T12:10:15.16Z</time></trkpt><trkpt lat="43.0768523" lon="13.2663673"><ele>487.66666666666663</ele><time>2026-05-03T12:10:17.162Z</time></trkpt><trkpt lat="43.0769005" lon="13.2665182"><ele>487.3333333333333</ele><time>2026-05-03T12:10:19.163Z</time></trkpt><trkpt lat="43.0769368" lon="13.2666763"><ele>487.0</ele><time>2026-05-03T12:10:21.162Z</time></trkpt><trkpt lat="43.0769582" lon="13.2667587"><ele>486.66666666666663</ele><time>2026-05-03T12:10:22.162Z</time></trkpt><trkpt lat="43.0769805" lon="13.2668425"><ele>486.3333333333333</ele><time>2026-05-03T12:10:23.162Z</time></trkpt><trkpt lat="43.0770079" lon="13.2669246"><ele>486.0</ele><time>2026-05-03T12:10:24.162Z</time></trkpt><trkpt lat="43.0770472" lon="13.267081"><ele>486.0</ele><time>2026-05-03T12:10:26.163Z</time></trkpt><trkpt lat="43.0770706" lon="13.2671683"><ele>486.0</ele><time>2026-05-03T12:10:27.162Z</time></trkpt><trkpt lat="43.0770901" lon="13.267253"><ele>486.0</ele><time>2026-05-03T12:10:28.162Z</time></trkpt><trkpt lat="43.0771124" lon="13.2673363"><ele>486.0</ele><time>2026-05-03T12:10:29.159Z</time></trkpt><trkpt lat="43.0771432" lon="13.2674213"><ele>486.0</ele><time>2026-05-03T12:10:30.16Z</time></trkpt><trkpt lat="43.0771805" lon="13.2675835"><ele>486.0</ele><time>2026-05-03T12:10:32.163Z</time></trkpt><trkpt lat="43.0772206" lon="13.2677411"><ele>485.6</ele><time>2026-05-03T12:10:34.162Z</time></trkpt><trkpt lat="43.0772629" lon="13.2678897"><ele>485.20000000000005</ele><time>2026-05-03T12:10:36.162Z</time></trkpt><trkpt lat="43.077282" lon="13.2679758"><ele>484.79999999999995</ele><time>2026-05-03T12:10:37.163Z</time></trkpt><trkpt lat="43.0773254" lon="13.26813"><ele>484.4</ele><time>2026-05-03T12:10:39.162Z</time></trkpt><trkpt lat="43.0773722" lon="13.268285"><ele>484.0</ele><time>2026-05-03T12:10:41.163Z</time></trkpt><trkpt lat="43.077424" lon="13.268444"><ele>483.4</ele><time>2026-05-03T12:10:43.162Z</time></trkpt><trkpt lat="43.0774862" lon="13.2685792"><ele>482.79999999999995</ele><time>2026-05-03T12:10:45.162Z</time></trkpt><trkpt lat="43.0775569" lon="13.2687192"><ele>482.20000000000005</ele><time>2026-05-03T12:10:47.162Z</time></trkpt><trkpt lat="43.077584" lon="13.2688001"><ele>481.6</ele><time>2026-05-03T12:10:48.16Z</time></trkpt><trkpt lat="43.0776568" lon="13.268927"><ele>481.0</ele><time>2026-05-03T12:10:50.161Z</time></trkpt><trkpt lat="43.0777181" lon="13.2690422"><ele>481.0</ele><time>2026-05-03T12:10:52.162Z</time></trkpt><trkpt lat="43.0777755" lon="13.2691698"><ele>481.0</ele><time>2026-05-03T12:10:54.161Z</time></trkpt><trkpt lat="43.0778318" lon="13.2692945"><ele>481.0</ele><time>2026-05-03T12:10:56.163Z</time></trkpt><trkpt lat="43.0778981" lon="13.2694143"><ele>481.0</ele><time>2026-05-03T12:10:58.162Z</time></trkpt><trkpt lat="43.0779673" lon="13.2695601"><ele>481.00000000000006</ele><time>2026-05-03T12:11:00.162Z</time></trkpt><trkpt lat="43.077999" lon="13.2696364"><ele>481.0</ele><time>2026-05-03T12:11:01.163Z</time></trkpt><trkpt lat="43.0780349" lon="13.2697098"><ele>481.0</ele><time>2026-05-03T12:11:02.162Z</time></trkpt><trkpt lat="43.0781101" lon="13.2698527"><ele>481.0</ele><time>2026-05-03T12:11:04.162Z</time></trkpt><trkpt lat="43.0781467" lon="13.2699281"><ele>481.00000000000006</ele><time>2026-05-03T12:11:05.163Z</time></trkpt><trkpt lat="43.0781807" lon="13.2700056"><ele>481.0</ele><time>2026-05-03T12:11:06.161Z</time></trkpt><trkpt lat="43.0782186" lon="13.2700794"><ele>480.75</ele><time>2026-05-03T12:11:07.163Z</time></trkpt><trkpt lat="43.0782849" lon="13.2702051"><ele>480.5</ele><time>2026-05-03T12:11:09.162Z</time></trkpt><trkpt lat="43.0783416" lon="13.2703431"><ele>480.25</ele><time>2026-05-03T12:11:11.161Z</time></trkpt><trkpt lat="43.0784067" lon="13.2704721"><ele>480.0</ele><time>2026-05-03T12:11:13.163Z</time></trkpt><trkpt lat="43.0784657" lon="13.2705983"><ele>479.8333333333333</ele><time>2026-05-03T12:11:15.163Z</time></trkpt><trkpt lat="43.0785393" lon="13.2707124"><ele>479.66666666666663</ele><time>2026-05-03T12:11:17.161Z</time></trkpt><trkpt lat="43.0786091" lon="13.2708524"><ele>479.5</ele><time>2026-05-03T12:11:19.16Z</time></trkpt><trkpt lat="43.0786434" lon="13.2709312"><ele>479.3333333333333</ele><time>2026-05-03T12:11:20.164Z</time></trkpt><trkpt lat="43.0786808" lon="13.2710058"><ele>479.16666666666663</ele><time>2026-05-03T12:11:21.164Z</time></trkpt><trkpt lat="43.0787225" lon="13.2710874"><ele>479.0</ele><time>2026-05-03T12:11:22.162Z</time></trkpt><trkpt lat="43.0787602" lon="13.2711668"><ele>478.99999999999994</ele><time>2026-05-03T12:11:23.163Z</time></trkpt><trkpt lat="43.0787955" lon="13.2712403"><ele>479.0</ele><time>2026-05-03T12:11:24.161Z</time></trkpt><trkpt lat="43.0788309" lon="13.2713214"><ele>479.0</ele><time>2026-05-03T12:11:25.164Z</time></trkpt><trkpt lat="43.0788672" lon="13.2713954"><ele>479.0</ele><time>2026-05-03T12:11:26.162Z</time></trkpt><trkpt lat="43.0789045" lon="13.2714699"><ele>478.99999999999994</ele><time>2026-05-03T12:11:27.162Z</time></trkpt><trkpt lat="43.0789711" lon="13.2716149"><ele>479.0</ele><time>2026-05-03T12:11:29.161Z</time></trkpt><trkpt lat="43.0790074" lon="13.2716891"><ele>478.8333333333333</ele><time>2026-05-03T12:11:30.159Z</time></trkpt><trkpt lat="43.079042" lon="13.2717697"><ele>478.66666666666663</ele><time>2026-05-03T12:11:31.162Z</time></trkpt><trkpt lat="43.0791028" lon="13.271924"><ele>478.5</ele><time>2026-05-03T12:11:33.162Z</time></trkpt><trkpt lat="43.0791297" lon="13.2720041"><ele>478.33333333333337</ele><time>2026-05-03T12:11:34.163Z</time></trkpt><trkpt lat="43.0791498" lon="13.2720871"><ele>478.1666666666667</ele><time>2026-05-03T12:11:35.162Z</time></trkpt><trkpt lat="43.0791624" lon="13.2721732"><ele>478.0</ele><time>2026-05-03T12:11:36.162Z</time></trkpt><trkpt lat="43.07918" lon="13.2722624"><ele>477.79999999999995</ele><time>2026-05-03T12:11:37.163Z</time></trkpt><trkpt lat="43.0791855" lon="13.2723492"><ele>477.59999999999997</ele><time>2026-05-03T12:11:38.163Z</time></trkpt><trkpt lat="43.0792184" lon="13.2725169"><ele>477.40000000000003</ele><time>2026-05-03T12:11:40.163Z</time></trkpt><trkpt lat="43.0792294" lon="13.2726048"><ele>477.20000000000005</ele><time>2026-05-03T12:11:41.163Z</time></trkpt><trkpt lat="43.0792453" lon="13.2727656"><ele>477.0</ele><time>2026-05-03T12:11:43.163Z</time></trkpt><trkpt lat="43.079259" lon="13.2729057"><ele>477.0</ele><time>2026-05-03T12:11:45.162Z</time></trkpt><trkpt lat="43.0792705" lon="13.2730427"><ele>477.00000000000006</ele><time>2026-05-03T12:11:47.164Z</time></trkpt><trkpt lat="43.0792793" lon="13.273129"><ele>477.00000000000006</ele><time>2026-05-03T12:11:48.163Z</time></trkpt><trkpt lat="43.0792985" lon="13.2733043"><ele>477.0</ele><time>2026-05-03T12:11:50.163Z</time></trkpt><trkpt lat="43.0793087" lon="13.2733971"><ele>477.0</ele><time>2026-05-03T12:11:51.161Z</time></trkpt><trkpt lat="43.0793277" lon="13.273566"><ele>476.6</ele><time>2026-05-03T12:11:53.163Z</time></trkpt><trkpt lat="43.0793418" lon="13.2736527"><ele>476.20000000000005</ele><time>2026-05-03T12:11:54.162Z</time></trkpt><trkpt lat="43.079351" lon="13.2737417"><ele>475.8</ele><time>2026-05-03T12:11:55.164Z</time></trkpt><trkpt lat="43.0793708" lon="13.2738984"><ele>475.4</ele><time>2026-05-03T12:11:57.164Z</time></trkpt><trkpt lat="43.0793903" lon="13.2740368"><ele>475.0</ele><time>2026-05-03T12:11:59.163Z</time></trkpt><trkpt lat="43.0794054" lon="13.2741784"><ele>474.6</ele><time>2026-05-03T12:12:01.163Z</time></trkpt><trkpt lat="43.0794245" lon="13.2743165"><ele>474.2</ele><time>2026-05-03T12:12:03.162Z</time></trkpt><trkpt lat="43.0794312" lon="13.2744698"><ele>473.79999999999995</ele><time>2026-05-03T12:12:05.171Z</time></trkpt><trkpt lat="43.0794428" lon="13.2746203"><ele>473.4</ele><time>2026-05-03T12:12:07.162Z</time></trkpt><trkpt lat="43.0794897" lon="13.27475"><ele>473.0</ele><time>2026-05-03T12:12:09.162Z</time></trkpt><trkpt lat="43.0795851" lon="13.2747936"><ele>473.0</ele><time>2026-05-03T12:12:11.162Z</time></trkpt><trkpt lat="43.0796676" lon="13.2747651"><ele>472.99999999999994</ele><time>2026-05-03T12:12:13.162Z</time></trkpt><trkpt lat="43.0797226" lon="13.2746897"><ele>472.99999999999994</ele><time>2026-05-03T12:12:15.163Z</time></trkpt><trkpt lat="43.0797889" lon="13.2745938"><ele>473.0</ele><time>2026-05-03T12:12:17.163Z</time></trkpt><trkpt lat="43.0798485" lon="13.2744974"><ele>473.0</ele><time>2026-05-03T12:12:19.163Z</time></trkpt><trkpt lat="43.0799274" lon="13.2743934"><ele>473.49999999999994</ele><time>2026-05-03T12:12:21.162Z</time></trkpt><trkpt lat="43.079968" lon="13.2743269"><ele>474.0</ele><time>2026-05-03T12:12:22.163Z</time></trkpt><trkpt lat="43.0800416" lon="13.2742174"><ele>474.5</ele><time>2026-05-03T12:12:24.163Z</time></trkpt><trkpt lat="43.0800981" lon="13.2741064"><ele>475.0</ele><time>2026-05-03T12:12:26.163Z</time></trkpt><trkpt lat="43.0801687" lon="13.2740009"><ele>475.49999999999994</ele><time>2026-05-03T12:12:28.162Z</time></trkpt><trkpt lat="43.0802408" lon="13.274016"><ele>476.0</ele><time>2026-05-03T12:12:30.161Z</time></trkpt><trkpt lat="43.0802986" lon="13.2740904"><ele>476.0</ele><time>2026-05-03T12:12:32.16Z</time></trkpt><trkpt lat="43.0803392" lon="13.2741849"><ele>476.0</ele><time>2026-05-03T12:12:34.159Z</time></trkpt><trkpt lat="43.0803941" lon="13.2742895"><ele>476.0</ele><time>2026-05-03T12:12:36.162Z</time></trkpt><trkpt lat="43.0804612" lon="13.2744072"><ele>476.0</ele><time>2026-05-03T12:12:38.162Z</time></trkpt><trkpt lat="43.0805289" lon="13.274521"><ele>476.0</ele><time>2026-05-03T12:12:40.163Z</time></trkpt><trkpt lat="43.0805938" lon="13.2746358"><ele>476.0</ele><time>2026-05-03T12:12:42.164Z</time></trkpt><trkpt lat="43.0806505" lon="13.2747621"><ele>476.0</ele><time>2026-05-03T12:12:44.161Z</time></trkpt><trkpt lat="43.0807157" lon="13.2748724"><ele>476.0</ele><time>2026-05-03T12:12:46.163Z</time></trkpt><trkpt lat="43.0807819" lon="13.2749721"><ele>476.0</ele><time>2026-05-03T12:12:48.162Z</time></trkpt><trkpt lat="43.0808473" lon="13.2750874"><ele>476.0</ele><time>2026-05-03T12:12:50.162Z</time></trkpt><trkpt lat="43.0809124" lon="13.2752013"><ele>476.20000000000005</ele><time>2026-05-03T12:12:52.165Z</time></trkpt><trkpt lat="43.0809572" lon="13.275317"><ele>476.40000000000003</ele><time>2026-05-03T12:12:54.164Z</time></trkpt><trkpt lat="43.0809933" lon="13.2754383"><ele>476.6</ele><time>2026-05-03T12:12:56.163Z</time></trkpt><trkpt lat="43.0810329" lon="13.2755699"><ele>476.8</ele><time>2026-05-03T12:12:58.163Z</time></trkpt><trkpt lat="43.0810674" lon="13.2756976"><ele>477.0</ele><time>2026-05-03T12:13:00.161Z</time></trkpt><trkpt lat="43.0810901" lon="13.2758309"><ele>476.6</ele><time>2026-05-03T12:13:02.164Z</time></trkpt><trkpt lat="43.081111" lon="13.2759609"><ele>476.20000000000005</ele><time>2026-05-03T12:13:04.162Z</time></trkpt><trkpt lat="43.0811379" lon="13.2760999"><ele>475.8</ele><time>2026-05-03T12:13:06.163Z</time></trkpt><trkpt lat="43.0811721" lon="13.276214"><ele>475.4</ele><time>2026-05-03T12:13:08.164Z</time></trkpt><trkpt lat="43.0812237" lon="13.2763241"><ele>475.0</ele><time>2026-05-03T12:13:10.162Z</time></trkpt><trkpt lat="43.0812751" lon="13.2764314"><ele>475.0</ele><time>2026-05-03T12:13:12.161Z</time></trkpt><trkpt lat="43.081334" lon="13.2765364"><ele>475.0</ele><time>2026-05-03T12:13:14.162Z</time></trkpt><trkpt lat="43.0814112" lon="13.2766433"><ele>475.0</ele><time>2026-05-03T12:13:16.16Z</time></trkpt><trkpt lat="43.0814863" lon="13.2767436"><ele>475.0</ele><time>2026-05-03T12:13:18.162Z</time></trkpt><trkpt lat="43.0815629" lon="13.2768371"><ele>475.0</ele><time>2026-05-03T12:13:20.163Z</time></trkpt><trkpt lat="43.081639" lon="13.2769542"><ele>475.5</ele><time>2026-05-03T12:13:22.164Z</time></trkpt><trkpt lat="43.0817026" lon="13.2770995"><ele>476.0</ele><time>2026-05-03T12:13:24.163Z</time></trkpt><trkpt lat="43.0817673" lon="13.2772346"><ele>476.5</ele><time>2026-05-03T12:13:26.164Z</time></trkpt><trkpt lat="43.081825" lon="13.2773571"><ele>477.0</ele><time>2026-05-03T12:13:28.163Z</time></trkpt><trkpt lat="43.0818816" lon="13.2774862"><ele>477.0</ele><time>2026-05-03T12:13:30.159Z</time></trkpt><trkpt lat="43.081914" lon="13.2775637"><ele>477.00000000000006</ele><time>2026-05-03T12:13:31.162Z</time></trkpt><trkpt lat="43.0819761" lon="13.2777008"><ele>477.00000000000006</ele><time>2026-05-03T12:13:33.164Z</time></trkpt><trkpt lat="43.0820265" lon="13.2778459"><ele>477.0</ele><time>2026-05-03T12:13:35.161Z</time></trkpt><trkpt lat="43.0820616" lon="13.278004"><ele>477.0</ele><time>2026-05-03T12:13:37.163Z</time></trkpt><trkpt lat="43.0820708" lon="13.27809"><ele>476.8</ele><time>2026-05-03T12:13:38.162Z</time></trkpt><trkpt lat="43.0820772" lon="13.2781779"><ele>476.6</ele><time>2026-05-03T12:13:39.162Z</time></trkpt><trkpt lat="43.082075" lon="13.2782679"><ele>476.40000000000003</ele><time>2026-05-03T12:13:40.163Z</time></trkpt><trkpt lat="43.0820581" lon="13.2784309"><ele>476.20000000000005</ele><time>2026-05-03T12:13:42.162Z</time></trkpt><trkpt lat="43.0820288" lon="13.2785665"><ele>476.0</ele><time>2026-05-03T12:13:44.162Z</time></trkpt><trkpt lat="43.0820055" lon="13.2787181"><ele>476.0</ele><time>2026-05-03T12:13:46.162Z</time></trkpt><trkpt lat="43.0819674" lon="13.2788674"><ele>476.0</ele><time>2026-05-03T12:13:48.163Z</time></trkpt><trkpt lat="43.0819442" lon="13.2789519"><ele>476.0</ele><time>2026-05-03T12:13:49.163Z</time></trkpt><trkpt lat="43.081889" lon="13.279089"><ele>476.0</ele><time>2026-05-03T12:13:51.164Z</time></trkpt><trkpt lat="43.0818584" lon="13.2792326"><ele>476.0</ele><time>2026-05-03T12:13:53.162Z</time></trkpt><trkpt lat="43.0818077" lon="13.2793574"><ele>476.6</ele><time>2026-05-03T12:13:55.162Z</time></trkpt><trkpt lat="43.0817714" lon="13.2795285"><ele>477.20000000000005</ele><time>2026-05-03T12:13:57.161Z</time></trkpt><trkpt lat="43.0816821" lon="13.2796761"><ele>477.79999999999995</ele><time>2026-05-03T12:13:59.162Z</time></trkpt><trkpt lat="43.0816191" lon="13.2797567"><ele>478.4</ele><time>2026-05-03T12:14:00.164Z</time></trkpt><trkpt lat="43.0815691" lon="13.2798247"><ele>479.0</ele><time>2026-05-03T12:14:01.163Z</time></trkpt><trkpt lat="43.0815072" lon="13.2799061"><ele>477.49999999999994</ele><time>2026-05-03T12:14:02.161Z</time></trkpt><trkpt lat="43.0814544" lon="13.2799744"><ele>476.0</ele><time>2026-05-03T12:14:03.163Z</time></trkpt><trkpt lat="43.0813826" lon="13.2800484"><ele>474.5</ele><time>2026-05-03T12:14:04.16Z</time></trkpt><trkpt lat="43.0813354" lon="13.2801358"><ele>473.0</ele><time>2026-05-03T12:14:05.162Z</time></trkpt><trkpt lat="43.0812782" lon="13.2802207"><ele>471.49999999999994</ele><time>2026-05-03T12:14:06.163Z</time></trkpt><trkpt lat="43.081233" lon="13.2803032"><ele>470.0</ele><time>2026-05-03T12:14:07.162Z</time></trkpt><trkpt lat="43.0811985" lon="13.2803999"><ele>470.0</ele><time>2026-05-03T12:14:08.162Z</time></trkpt><trkpt lat="43.0811634" lon="13.2804956"><ele>469.99999999999994</ele><time>2026-05-03T12:14:09.161Z</time></trkpt><trkpt lat="43.0811305" lon="13.2805722"><ele>470.0</ele><time>2026-05-03T12:14:10.162Z</time></trkpt><trkpt lat="43.081107" lon="13.2806528"><ele>470.0</ele><time>2026-05-03T12:14:11.163Z</time></trkpt><trkpt lat="43.0810738" lon="13.2807419"><ele>469.99999999999994</ele><time>2026-05-03T12:14:12.163Z</time></trkpt><trkpt lat="43.0810501" lon="13.2808235"><ele>470.0</ele><time>2026-05-03T12:14:13.165Z</time></trkpt><trkpt lat="43.0810207" lon="13.2809058"><ele>470.0</ele><time>2026-05-03T12:14:14.163Z</time></trkpt><trkpt lat="43.0809934" lon="13.2809848"><ele>470.2</ele><time>2026-05-03T12:14:15.162Z</time></trkpt><trkpt lat="43.0809628" lon="13.2810661"><ele>470.4</ele><time>2026-05-03T12:14:16.163Z</time></trkpt><trkpt lat="43.0808805" lon="13.2812164"><ele>470.6</ele><time>2026-05-03T12:14:18.163Z</time></trkpt><trkpt lat="43.0808067" lon="13.2813633"><ele>470.8</ele><time>2026-05-03T12:14:20.166Z</time></trkpt><trkpt lat="43.0807611" lon="13.2814355"><ele>471.0</ele><time>2026-05-03T12:14:21.163Z</time></trkpt><trkpt lat="43.0806845" lon="13.2815663"><ele>468.75</ele><time>2026-05-03T12:14:23.163Z</time></trkpt><trkpt lat="43.0806166" lon="13.2816905"><ele>466.5</ele><time>2026-05-03T12:14:25.163Z</time></trkpt><trkpt lat="43.0805365" lon="13.281801"><ele>464.25</ele><time>2026-05-03T12:14:27.162Z</time></trkpt><trkpt lat="43.0804273" lon="13.2818663"><ele>462.0</ele><time>2026-05-03T12:14:29.159Z</time></trkpt><trkpt lat="43.0803048" lon="13.281896"><ele>462.0</ele><time>2026-05-03T12:14:31.163Z</time></trkpt><trkpt lat="43.0802362" lon="13.2818953"><ele>462.0</ele><time>2026-05-03T12:14:32.162Z</time></trkpt><trkpt lat="43.0801649" lon="13.2818815"><ele>462.0</ele><time>2026-05-03T12:14:33.163Z</time></trkpt><trkpt lat="43.0800983" lon="13.2818482"><ele>462.0</ele><time>2026-05-03T12:14:34.163Z</time></trkpt><trkpt lat="43.0800323" lon="13.2818217"><ele>462.0</ele><time>2026-05-03T12:14:35.162Z</time></trkpt><trkpt lat="43.0799011" lon="13.2817986"><ele>462.0</ele><time>2026-05-03T12:14:37.164Z</time></trkpt><trkpt lat="43.0798362" lon="13.2818078"><ele>462.20000000000005</ele><time>2026-05-03T12:14:38.16Z</time></trkpt><trkpt lat="43.0797712" lon="13.2818231"><ele>462.40000000000003</ele><time>2026-05-03T12:14:39.164Z</time></trkpt><trkpt lat="43.0796571" lon="13.28186"><ele>462.59999999999997</ele><time>2026-05-03T12:14:41.163Z</time></trkpt><trkpt lat="43.0795952" lon="13.2818797"><ele>462.79999999999995</ele><time>2026-05-03T12:14:42.164Z</time></trkpt><trkpt lat="43.079486" lon="13.281925"><ele>463.0</ele><time>2026-05-03T12:14:44.163Z</time></trkpt><trkpt lat="43.0793757" lon="13.2819639"><ele>463.0</ele><time>2026-05-03T12:14:46.163Z</time></trkpt><trkpt lat="43.0792733" lon="13.2820085"><ele>462.99999999999994</ele><time>2026-05-03T12:14:48.163Z</time></trkpt><trkpt lat="43.0791714" lon="13.2820437"><ele>462.99999999999994</ele><time>2026-05-03T12:14:50.163Z</time></trkpt><trkpt lat="43.0790725" lon="13.2820676"><ele>463.0</ele><time>2026-05-03T12:14:52.162Z</time></trkpt><trkpt lat="43.0789724" lon="13.282107"><ele>463.0</ele><time>2026-05-03T12:14:54.163Z</time></trkpt><trkpt lat="43.0788493" lon="13.282149"><ele>462.79999999999995</ele><time>2026-05-03T12:14:56.161Z</time></trkpt><trkpt lat="43.078729" lon="13.2821887"><ele>462.59999999999997</ele><time>2026-05-03T12:14:58.164Z</time></trkpt><trkpt lat="43.0786681" lon="13.2822107"><ele>462.40000000000003</ele><time>2026-05-03T12:14:59.163Z</time></trkpt><trkpt lat="43.0785564" lon="13.2822508"><ele>462.20000000000005</ele><time>2026-05-03T12:15:01.162Z</time></trkpt><trkpt lat="43.0784492" lon="13.2822927"><ele>462.0</ele><time>2026-05-03T12:15:03.162Z</time></trkpt><trkpt lat="43.0783403" lon="13.2823323"><ele>461.8333333333333</ele><time>2026-05-03T12:15:05.163Z</time></trkpt><trkpt lat="43.0782375" lon="13.282368"><ele>461.66666666666663</ele><time>2026-05-03T12:15:07.163Z</time></trkpt><trkpt lat="43.0781477" lon="13.2824033"><ele>461.5</ele><time>2026-05-03T12:15:09.163Z</time></trkpt><trkpt lat="43.0780329" lon="13.2824378"><ele>461.3333333333333</ele><time>2026-05-03T12:15:11.162Z</time></trkpt><trkpt lat="43.0779708" lon="13.282462"><ele>461.16666666666663</ele><time>2026-05-03T12:15:12.166Z</time></trkpt><trkpt lat="43.0779058" lon="13.2824845"><ele>461.0</ele><time>2026-05-03T12:15:13.162Z</time></trkpt><trkpt lat="43.0778444" lon="13.2825041"><ele>461.0</ele><time>2026-05-03T12:15:14.164Z</time></trkpt><trkpt lat="43.07775" lon="13.2825846"><ele>461.0</ele><time>2026-05-03T12:15:16.162Z</time></trkpt><trkpt lat="43.0776967" lon="13.2827047"><ele>461.0</ele><time>2026-05-03T12:15:18.162Z</time></trkpt><trkpt lat="43.0777016" lon="13.2828154"><ele>461.0</ele><time>2026-05-03T12:15:20.163Z</time></trkpt><trkpt lat="43.0777109" lon="13.282927"><ele>461.0</ele><time>2026-05-03T12:15:22.162Z</time></trkpt><trkpt lat="43.077743" lon="13.2830622"><ele>461.5</ele><time>2026-05-03T12:15:24.164Z</time></trkpt><trkpt lat="43.0778012" lon="13.2832077"><ele>462.0</ele><time>2026-05-03T12:15:26.161Z</time></trkpt><trkpt lat="43.0778605" lon="13.2833592"><ele>462.5</ele><time>2026-05-03T12:15:28.163Z</time></trkpt><trkpt lat="43.0779168" lon="13.2835081"><ele>463.0</ele><time>2026-05-03T12:15:30.16Z</time></trkpt><trkpt lat="43.077976" lon="13.2836496"><ele>463.0</ele><time>2026-05-03T12:15:32.162Z</time></trkpt><trkpt lat="43.0780298" lon="13.2837908"><ele>463.0</ele><time>2026-05-03T12:15:34.163Z</time></trkpt><trkpt lat="43.078089" lon="13.2839241"><ele>463.0</ele><time>2026-05-03T12:15:36.162Z</time></trkpt><trkpt lat="43.0781492" lon="13.2840628"><ele>463.0</ele><time>2026-05-03T12:15:38.163Z</time></trkpt><trkpt lat="43.0782042" lon="13.2842075"><ele>461.75</ele><time>2026-05-03T12:15:40.162Z</time></trkpt><trkpt lat="43.0782683" lon="13.2843461"><ele>460.5</ele><time>2026-05-03T12:15:42.162Z</time></trkpt><trkpt lat="43.0783223" lon="13.2844929"><ele>459.25</ele><time>2026-05-03T12:15:44.162Z</time></trkpt><trkpt lat="43.0783842" lon="13.2846287"><ele>458.0</ele><time>2026-05-03T12:15:46.162Z</time></trkpt><trkpt lat="43.0784403" lon="13.284766"><ele>458.0</ele><time>2026-05-03T12:15:48.163Z</time></trkpt><trkpt lat="43.0784978" lon="13.2849011"><ele>458.0</ele><time>2026-05-03T12:15:50.163Z</time></trkpt><trkpt lat="43.0785552" lon="13.2850353"><ele>458.0</ele><time>2026-05-03T12:15:52.162Z</time></trkpt><trkpt lat="43.0786117" lon="13.2851808"><ele>458.0</ele><time>2026-05-03T12:15:54.163Z</time></trkpt><trkpt lat="43.0786649" lon="13.2853157"><ele>458.0</ele><time>2026-05-03T12:15:56.16Z</time></trkpt><trkpt lat="43.0787245" lon="13.2854584"><ele>457.99999999999994</ele><time>2026-05-03T12:15:58.163Z</time></trkpt><trkpt lat="43.0787822" lon="13.2855956"><ele>457.99999999999994</ele><time>2026-05-03T12:16:00.162Z</time></trkpt><trkpt lat="43.0788163" lon="13.2856693"><ele>458.0</ele><time>2026-05-03T12:16:01.162Z</time></trkpt><trkpt lat="43.0788718" lon="13.2858089"><ele>458.0</ele><time>2026-05-03T12:16:03.164Z</time></trkpt><trkpt lat="43.0789215" lon="13.2859568"><ele>457.75</ele><time>2026-05-03T12:16:05.163Z</time></trkpt><trkpt lat="43.0789773" lon="13.2860962"><ele>457.5</ele><time>2026-05-03T12:16:07.164Z</time></trkpt><trkpt lat="43.0790354" lon="13.2862211"><ele>457.25</ele><time>2026-05-03T12:16:09.163Z</time></trkpt><trkpt lat="43.0790845" lon="13.2863649"><ele>457.0</ele><time>2026-05-03T12:16:11.162Z</time></trkpt><trkpt lat="43.0791483" lon="13.2864947"><ele>456.75</ele><time>2026-05-03T12:16:13.163Z</time></trkpt><trkpt lat="43.0792045" lon="13.2866288"><ele>456.5</ele><time>2026-05-03T12:16:15.161Z</time></trkpt><trkpt lat="43.0792575" lon="13.2867632"><ele>456.25</ele><time>2026-05-03T12:16:17.157Z</time></trkpt><trkpt lat="43.0793193" lon="13.2869051"><ele>456.0</ele><time>2026-05-03T12:16:19.162Z</time></trkpt><trkpt lat="43.0793795" lon="13.2870448"><ele>456.0</ele><time>2026-05-03T12:16:21.161Z</time></trkpt><trkpt lat="43.079438" lon="13.2871825"><ele>456.0</ele><time>2026-05-03T12:16:23.164Z</time></trkpt><trkpt lat="43.0794994" lon="13.287327"><ele>456.0</ele><time>2026-05-03T12:16:25.163Z</time></trkpt><trkpt lat="43.0795576" lon="13.287473"><ele>456.0</ele><time>2026-05-03T12:16:27.163Z</time></trkpt><trkpt lat="43.0796118" lon="13.2876249"><ele>455.20000000000005</ele><time>2026-05-03T12:16:29.159Z</time></trkpt><trkpt lat="43.0796676" lon="13.2877734"><ele>454.40000000000003</ele><time>2026-05-03T12:16:31.165Z</time></trkpt><trkpt lat="43.0796945" lon="13.2878527"><ele>453.6</ele><time>2026-05-03T12:16:32.164Z</time></trkpt><trkpt lat="43.0797537" lon="13.2879969"><ele>452.8</ele><time>2026-05-03T12:16:34.162Z</time></trkpt><trkpt lat="43.0798209" lon="13.2881247"><ele>452.0</ele><time>2026-05-03T12:16:36.168Z</time></trkpt><trkpt lat="43.0798848" lon="13.2882765"><ele>451.8333333333333</ele><time>2026-05-03T12:16:38.162Z</time></trkpt><trkpt lat="43.0799444" lon="13.2884269"><ele>451.66666666666663</ele><time>2026-05-03T12:16:40.164Z</time></trkpt><trkpt lat="43.0799782" lon="13.2885037"><ele>451.5</ele><time>2026-05-03T12:16:41.161Z</time></trkpt><trkpt lat="43.0800112" lon="13.2885806"><ele>451.33333333333337</ele><time>2026-05-03T12:16:42.164Z</time></trkpt><trkpt lat="43.0800449" lon="13.288654"><ele>451.1666666666667</ele><time>2026-05-03T12:16:43.163Z</time></trkpt><trkpt lat="43.0800766" lon="13.2887312"><ele>451.0</ele><time>2026-05-03T12:16:44.16Z</time></trkpt><trkpt lat="43.0801091" lon="13.288811"><ele>450.5</ele><time>2026-05-03T12:16:45.163Z</time></trkpt><trkpt lat="43.0801693" lon="13.2889492"><ele>450.0</ele><time>2026-05-03T12:16:47.162Z</time></trkpt><trkpt lat="43.0802279" lon="13.2890968"><ele>449.5</ele><time>2026-05-03T12:16:49.163Z</time></trkpt><trkpt lat="43.0802825" lon="13.2892342"><ele>449.0</ele><time>2026-05-03T12:16:51.164Z</time></trkpt><trkpt lat="43.0803445" lon="13.2893769"><ele>448.99999999999994</ele><time>2026-05-03T12:16:53.166Z</time></trkpt><trkpt lat="43.0803759" lon="13.2894527"><ele>449.0</ele><time>2026-05-03T12:16:54.162Z</time></trkpt><trkpt lat="43.0804094" lon="13.2895272"><ele>449.0</ele><time>2026-05-03T12:16:55.163Z</time></trkpt><trkpt lat="43.0804712" lon="13.2896768"><ele>449.0</ele><time>2026-05-03T12:16:57.162Z</time></trkpt><trkpt lat="43.0805037" lon="13.2897586"><ele>448.99999999999994</ele><time>2026-05-03T12:16:58.164Z</time></trkpt><trkpt lat="43.0805362" lon="13.2898334"><ele>449.0</ele><time>2026-05-03T12:16:59.163Z</time></trkpt><trkpt lat="43.0805633" lon="13.2899143"><ele>448.79999999999995</ele><time>2026-05-03T12:17:00.162Z</time></trkpt><trkpt lat="43.0805957" lon="13.28999"><ele>448.59999999999997</ele><time>2026-05-03T12:17:01.164Z</time></trkpt><trkpt lat="43.0806257" lon="13.2900672"><ele>448.4</ele><time>2026-05-03T12:17:02.164Z</time></trkpt><trkpt lat="43.0806875" lon="13.2902064"><ele>448.2</ele><time>2026-05-03T12:17:04.164Z</time></trkpt><trkpt lat="43.0807551" lon="13.2903517"><ele>448.0</ele><time>2026-05-03T12:17:06.164Z</time></trkpt><trkpt lat="43.0808146" lon="13.2904866"><ele>448.0</ele><time>2026-05-03T12:17:08.163Z</time></trkpt><trkpt lat="43.08088" lon="13.2906257"><ele>447.99999999999994</ele><time>2026-05-03T12:17:10.163Z</time></trkpt><trkpt lat="43.0809378" lon="13.2907653"><ele>447.99999999999994</ele><time>2026-05-03T12:17:12.164Z</time></trkpt><trkpt lat="43.0809967" lon="13.2909024"><ele>448.0</ele><time>2026-05-03T12:17:14.162Z</time></trkpt><trkpt lat="43.0810303" lon="13.2909819"><ele>448.0</ele><time>2026-05-03T12:17:15.163Z</time></trkpt><trkpt lat="43.0810615" lon="13.2910631"><ele>448.0</ele><time>2026-05-03T12:17:16.16Z</time></trkpt><trkpt lat="43.0811209" lon="13.2912137"><ele>448.0</ele><time>2026-05-03T12:17:18.164Z</time></trkpt><trkpt lat="43.0811721" lon="13.2913652"><ele>448.0</ele><time>2026-05-03T12:17:20.165Z</time></trkpt><trkpt lat="43.0812268" lon="13.2915172"><ele>448.0</ele><time>2026-05-03T12:17:22.162Z</time></trkpt><trkpt lat="43.0812809" lon="13.2916649"><ele>447.79999999999995</ele><time>2026-05-03T12:17:24.163Z</time></trkpt><trkpt lat="43.0813132" lon="13.2917427"><ele>447.59999999999997</ele><time>2026-05-03T12:17:25.164Z</time></trkpt><trkpt lat="43.0813724" lon="13.2918916"><ele>447.40000000000003</ele><time>2026-05-03T12:17:27.164Z</time></trkpt><trkpt lat="43.0814037" lon="13.2919695"><ele>447.20000000000005</ele><time>2026-05-03T12:17:28.161Z</time></trkpt><trkpt lat="43.0814647" lon="13.2921098"><ele>447.0</ele><time>2026-05-03T12:17:30.162Z</time></trkpt><trkpt lat="43.0815249" lon="13.2922575"><ele>446.8</ele><time>2026-05-03T12:17:32.16Z</time></trkpt><trkpt lat="43.0815577" lon="13.2923347"><ele>446.6</ele><time>2026-05-03T12:17:33.163Z</time></trkpt><trkpt lat="43.0816086" lon="13.2924923"><ele>446.40000000000003</ele><time>2026-05-03T12:17:35.164Z</time></trkpt><trkpt lat="43.081679" lon="13.2926281"><ele>446.20000000000005</ele><time>2026-05-03T12:17:37.162Z</time></trkpt><trkpt lat="43.0817403" lon="13.2927694"><ele>446.0</ele><time>2026-05-03T12:17:39.164Z</time></trkpt><trkpt lat="43.0817746" lon="13.292843"><ele>446.0</ele><time>2026-05-03T12:17:40.163Z</time></trkpt><trkpt lat="43.0818331" lon="13.29299"><ele>446.0</ele><time>2026-05-03T12:17:42.163Z</time></trkpt><trkpt lat="43.0818653" lon="13.2930676"><ele>446.0</ele><time>2026-05-03T12:17:43.163Z</time></trkpt><trkpt lat="43.0819273" lon="13.2932058"><ele>446.0</ele><time>2026-05-03T12:17:45.163Z</time></trkpt><trkpt lat="43.0819881" lon="13.2933529"><ele>446.0</ele><time>2026-05-03T12:17:47.162Z</time></trkpt><trkpt lat="43.0820553" lon="13.2935008"><ele>445.6</ele><time>2026-05-03T12:17:49.163Z</time></trkpt><trkpt lat="43.0820865" lon="13.2935814"><ele>445.20000000000005</ele><time>2026-05-03T12:17:50.162Z</time></trkpt><trkpt lat="43.0821473" lon="13.2937336"><ele>444.79999999999995</ele><time>2026-05-03T12:17:52.162Z</time></trkpt><trkpt lat="43.0821768" lon="13.2938121"><ele>444.4</ele><time>2026-05-03T12:17:53.163Z</time></trkpt><trkpt lat="43.0822415" lon="13.2939615"><ele>444.0</ele><time>2026-05-03T12:17:55.163Z</time></trkpt><trkpt lat="43.0822729" lon="13.2940392"><ele>443.6666666666667</ele><time>2026-05-03T12:17:56.163Z</time></trkpt><trkpt lat="43.0823377" lon="13.2941875"><ele>443.33333333333337</ele><time>2026-05-03T12:17:58.163Z</time></trkpt><trkpt lat="43.0823991" lon="13.2943325"><ele>443.0</ele><time>2026-05-03T12:18:00.161Z</time></trkpt><trkpt lat="43.0824275" lon="13.2944161"><ele>442.6666666666667</ele><time>2026-05-03T12:18:01.162Z</time></trkpt><trkpt lat="43.0824607" lon="13.2944936"><ele>442.33333333333337</ele><time>2026-05-03T12:18:02.164Z</time></trkpt><trkpt lat="43.0824889" lon="13.2945761"><ele>442.0</ele><time>2026-05-03T12:18:03.163Z</time></trkpt><trkpt lat="43.0825542" lon="13.294722"><ele>442.75</ele><time>2026-05-03T12:18:05.161Z</time></trkpt><trkpt lat="43.0826072" lon="13.2948691"><ele>443.5</ele><time>2026-05-03T12:18:07.162Z</time></trkpt><trkpt lat="43.0826611" lon="13.2950142"><ele>444.25</ele><time>2026-05-03T12:18:09.162Z</time></trkpt><trkpt lat="43.0827128" lon="13.2951626"><ele>445.0</ele><time>2026-05-03T12:18:11.162Z</time></trkpt><trkpt lat="43.0827719" lon="13.2952952"><ele>445.00000000000006</ele><time>2026-05-03T12:18:13.163Z</time></trkpt><trkpt lat="43.0828342" lon="13.2954315"><ele>445.0</ele><time>2026-05-03T12:18:15.162Z</time></trkpt><trkpt lat="43.0828969" lon="13.2955621"><ele>445.0</ele><time>2026-05-03T12:18:17.163Z</time></trkpt><trkpt lat="43.0829304" lon="13.2956435"><ele>445.0</ele><time>2026-05-03T12:18:18.162Z</time></trkpt><trkpt lat="43.082963" lon="13.2957199"><ele>445.00000000000006</ele><time>2026-05-03T12:18:19.163Z</time></trkpt><trkpt lat="43.0829895" lon="13.2957995"><ele>445.0</ele><time>2026-05-03T12:18:20.162Z</time></trkpt><trkpt lat="43.083028" lon="13.2958871"><ele>444.50000000000006</ele><time>2026-05-03T12:18:21.163Z</time></trkpt><trkpt lat="43.0831009" lon="13.2960473"><ele>444.0</ele><time>2026-05-03T12:18:23.163Z</time></trkpt><trkpt lat="43.0831354" lon="13.2961282"><ele>443.5</ele><time>2026-05-03T12:18:24.162Z</time></trkpt><trkpt lat="43.0831705" lon="13.296212"><ele>443.0</ele><time>2026-05-03T12:18:25.163Z</time></trkpt><trkpt lat="43.0832098" lon="13.2962872"><ele>442.50000000000006</ele><time>2026-05-03T12:18:26.165Z</time></trkpt><trkpt lat="43.0832418" lon="13.2963757"><ele>442.0</ele><time>2026-05-03T12:18:27.163Z</time></trkpt><trkpt lat="43.0832743" lon="13.2964566"><ele>441.1666666666667</ele><time>2026-05-03T12:18:28.164Z</time></trkpt><trkpt lat="43.0833034" lon="13.2965364"><ele>440.33333333333337</ele><time>2026-05-03T12:18:29.159Z</time></trkpt><trkpt lat="43.0833381" lon="13.2966097"><ele>439.5</ele><time>2026-05-03T12:18:30.16Z</time></trkpt><trkpt lat="43.0833766" lon="13.2966935"><ele>438.66666666666663</ele><time>2026-05-03T12:18:31.163Z</time></trkpt><trkpt lat="43.0834032" lon="13.2967734"><ele>437.8333333333333</ele><time>2026-05-03T12:18:32.162Z</time></trkpt><trkpt lat="43.0834588" lon="13.2969209"><ele>437.0</ele><time>2026-05-03T12:18:34.162Z</time></trkpt><trkpt lat="43.0835216" lon="13.2970435"><ele>436.99999999999994</ele><time>2026-05-03T12:18:36.162Z</time></trkpt><trkpt lat="43.0835799" lon="13.2971899"><ele>437.0</ele><time>2026-05-03T12:18:38.162Z</time></trkpt><trkpt lat="43.0836076" lon="13.2972701"><ele>437.0</ele><time>2026-05-03T12:18:39.162Z</time></trkpt><trkpt lat="43.0836665" lon="13.2974182"><ele>437.0</ele><time>2026-05-03T12:18:41.163Z</time></trkpt><trkpt lat="43.0836951" lon="13.2974981"><ele>436.99999999999994</ele><time>2026-05-03T12:18:42.163Z</time></trkpt><trkpt lat="43.0837314" lon="13.2975794"><ele>437.0</ele><time>2026-05-03T12:18:43.164Z</time></trkpt><trkpt lat="43.0837881" lon="13.2977321"><ele>436.99999999999994</ele><time>2026-05-03T12:18:45.165Z</time></trkpt><trkpt lat="43.0838254" lon="13.2978046"><ele>437.0</ele><time>2026-05-03T12:18:46.165Z</time></trkpt><trkpt lat="43.083851" lon="13.2978845"><ele>437.0</ele><time>2026-05-03T12:18:47.163Z</time></trkpt><trkpt lat="43.0839146" lon="13.2980349"><ele>437.0</ele><time>2026-05-03T12:18:49.163Z</time></trkpt><trkpt lat="43.0839437" lon="13.2981129"><ele>436.99999999999994</ele><time>2026-05-03T12:18:50.164Z</time></trkpt><trkpt lat="43.0839768" lon="13.2981992"><ele>437.0</ele><time>2026-05-03T12:18:51.163Z</time></trkpt><trkpt lat="43.0840485" lon="13.2983413"><ele>436.8</ele><time>2026-05-03T12:18:53.162Z</time></trkpt><trkpt lat="43.0841031" lon="13.298488"><ele>436.6</ele><time>2026-05-03T12:18:55.162Z</time></trkpt><trkpt lat="43.0841347" lon="13.2985665"><ele>436.40000000000003</ele><time>2026-05-03T12:18:56.163Z</time></trkpt><trkpt lat="43.0841701" lon="13.2986453"><ele>436.20000000000005</ele><time>2026-05-03T12:18:57.163Z</time></trkpt><trkpt lat="43.0842288" lon="13.2987994"><ele>436.0</ele><time>2026-05-03T12:18:59.163Z</time></trkpt><trkpt lat="43.0842923" lon="13.2989491"><ele>436.0</ele><time>2026-05-03T12:19:01.164Z</time></trkpt><trkpt lat="43.0843512" lon="13.2990966"><ele>436.0</ele><time>2026-05-03T12:19:03.163Z</time></trkpt><trkpt lat="43.084389" lon="13.299169"><ele>436.0</ele><time>2026-05-03T12:19:04.164Z</time></trkpt><trkpt lat="43.0844466" lon="13.2993244"><ele>436.0</ele><time>2026-05-03T12:19:06.165Z</time></trkpt><trkpt lat="43.0844855" lon="13.299396"><ele>436.0</ele><time>2026-05-03T12:19:07.162Z</time></trkpt><trkpt lat="43.0845427" lon="13.2995496"><ele>436.0</ele><time>2026-05-03T12:19:09.163Z</time></trkpt><trkpt lat="43.0846038" lon="13.2997048"><ele>436.0</ele><time>2026-05-03T12:19:11.163Z</time></trkpt><trkpt lat="43.0846391" lon="13.2997799"><ele>436.0</ele><time>2026-05-03T12:19:12.162Z</time></trkpt><trkpt lat="43.0847077" lon="13.2999256"><ele>436.0</ele><time>2026-05-03T12:19:14.163Z</time></trkpt><trkpt lat="43.0847549" lon="13.3000723"><ele>436.0</ele><time>2026-05-03T12:19:16.162Z</time></trkpt><trkpt lat="43.0847854" lon="13.3001504"><ele>435.8</ele><time>2026-05-03T12:19:17.164Z</time></trkpt><trkpt lat="43.0848402" lon="13.300295"><ele>435.6</ele><time>2026-05-03T12:19:19.163Z</time></trkpt><trkpt lat="43.0848732" lon="13.3003733"><ele>435.4</ele><time>2026-05-03T12:19:20.163Z</time></trkpt><trkpt lat="43.0849354" lon="13.3005192"><ele>435.2</ele><time>2026-05-03T12:19:22.163Z</time></trkpt><trkpt lat="43.0849671" lon="13.3005953"><ele>435.0</ele><time>2026-05-03T12:19:23.163Z</time></trkpt><trkpt lat="43.0850308" lon="13.3007454"><ele>435.0</ele><time>2026-05-03T12:19:25.163Z</time></trkpt><trkpt lat="43.0850926" lon="13.3009008"><ele>435.0</ele><time>2026-05-03T12:19:27.163Z</time></trkpt><trkpt lat="43.0851503" lon="13.3010397"><ele>435.0</ele><time>2026-05-03T12:19:29.16Z</time></trkpt><trkpt lat="43.0851901" lon="13.3011183"><ele>435.0</ele><time>2026-05-03T12:19:30.161Z</time></trkpt><trkpt lat="43.0852368" lon="13.3012629"><ele>435.0</ele><time>2026-05-03T12:19:32.162Z</time></trkpt><trkpt lat="43.0853091" lon="13.3014163"><ele>434.5714285714286</ele><time>2026-05-03T12:19:34.162Z</time></trkpt><trkpt lat="43.085344" lon="13.3014952"><ele>434.14285714285717</ele><time>2026-05-03T12:19:35.163Z</time></trkpt><trkpt lat="43.0853795" lon="13.3015711"><ele>433.7142857142857</ele><time>2026-05-03T12:19:36.162Z</time></trkpt><trkpt lat="43.0854081" lon="13.3016555"><ele>433.28571428571433</ele><time>2026-05-03T12:19:37.163Z</time></trkpt><trkpt lat="43.0854373" lon="13.3017329"><ele>432.85714285714283</ele><time>2026-05-03T12:19:38.162Z</time></trkpt><trkpt lat="43.0854673" lon="13.3018116"><ele>432.42857142857144</ele><time>2026-05-03T12:19:39.161Z</time></trkpt><trkpt lat="43.0854958" lon="13.3018885"><ele>432.0</ele><time>2026-05-03T12:19:40.16Z</time></trkpt><trkpt lat="43.0855266" lon="13.301964"><ele>432.0</ele><time>2026-05-03T12:19:41.162Z</time></trkpt><trkpt lat="43.0855506" lon="13.3020438"><ele>432.0</ele><time>2026-05-03T12:19:42.163Z</time></trkpt><trkpt lat="43.0855781" lon="13.3021251"><ele>432.0</ele><time>2026-05-03T12:19:43.161Z</time></trkpt><trkpt lat="43.0856373" lon="13.3022749"><ele>432.0</ele><time>2026-05-03T12:19:45.163Z</time></trkpt><trkpt lat="43.0857002" lon="13.3024141"><ele>432.0</ele><time>2026-05-03T12:19:47.161Z</time></trkpt><trkpt lat="43.085734" lon="13.3024938"><ele>432.0</ele><time>2026-05-03T12:19:48.163Z</time></trkpt><trkpt lat="43.085765" lon="13.3025721"><ele>432.1666666666667</ele><time>2026-05-03T12:19:49.164Z</time></trkpt><trkpt lat="43.0857971" lon="13.3026491"><ele>432.33333333333337</ele><time>2026-05-03T12:19:50.162Z</time></trkpt><trkpt lat="43.0858594" lon="13.3027981"><ele>432.5</ele><time>2026-05-03T12:19:52.163Z</time></trkpt><trkpt lat="43.0858928" lon="13.302873"><ele>432.6666666666667</ele><time>2026-05-03T12:19:53.163Z</time></trkpt><trkpt lat="43.0859206" lon="13.3029511"><ele>432.83333333333337</ele><time>2026-05-03T12:19:54.161Z</time></trkpt><trkpt lat="43.0859814" lon="13.3030964"><ele>433.0</ele><time>2026-05-03T12:19:56.161Z</time></trkpt><trkpt lat="43.0860138" lon="13.3031728"><ele>432.0</ele><time>2026-05-03T12:19:57.163Z</time></trkpt><trkpt lat="43.0860724" lon="13.3033173"><ele>430.99999999999994</ele><time>2026-05-03T12:19:59.163Z</time></trkpt><trkpt lat="43.086135" lon="13.3034618"><ele>429.99999999999994</ele><time>2026-05-03T12:20:01.163Z</time></trkpt><trkpt lat="43.0861579" lon="13.303547"><ele>429.0</ele><time>2026-05-03T12:20:02.164Z</time></trkpt><trkpt lat="43.086192" lon="13.3036197"><ele>428.0</ele><time>2026-05-03T12:20:03.164Z</time></trkpt><trkpt lat="43.0862602" lon="13.3037496"><ele>428.00000000000006</ele><time>2026-05-03T12:20:05.162Z</time></trkpt><trkpt lat="43.086291" lon="13.3038308"><ele>428.0</ele><time>2026-05-03T12:20:06.162Z</time></trkpt><trkpt lat="43.0863218" lon="13.3039066"><ele>428.0</ele><time>2026-05-03T12:20:07.164Z</time></trkpt><trkpt lat="43.0863529" lon="13.3039834"><ele>428.0</ele><time>2026-05-03T12:20:08.162Z</time></trkpt><trkpt lat="43.0864175" lon="13.3041241"><ele>428.0</ele><time>2026-05-03T12:20:10.164Z</time></trkpt><trkpt lat="43.0864488" lon="13.3042014"><ele>428.00000000000006</ele><time>2026-05-03T12:20:11.162Z</time></trkpt><trkpt lat="43.0864787" lon="13.3042836"><ele>428.0</ele><time>2026-05-03T12:20:12.161Z</time></trkpt><trkpt lat="43.0865125" lon="13.3043625"><ele>428.2</ele><time>2026-05-03T12:20:13.163Z</time></trkpt><trkpt lat="43.0865707" lon="13.3045216"><ele>428.4</ele><time>2026-05-03T12:20:15.164Z</time></trkpt><trkpt lat="43.0866415" lon="13.3046668"><ele>428.59999999999997</ele><time>2026-05-03T12:20:17.163Z</time></trkpt><trkpt lat="43.0866735" lon="13.3047455"><ele>428.79999999999995</ele><time>2026-05-03T12:20:18.164Z</time></trkpt><trkpt lat="43.0867305" lon="13.3048819"><ele>429.0</ele><time>2026-05-03T12:20:20.163Z</time></trkpt><trkpt lat="43.086795" lon="13.3050141"><ele>428.6666666666667</ele><time>2026-05-03T12:20:22.166Z</time></trkpt><trkpt lat="43.0868238" lon="13.3051033"><ele>428.33333333333337</ele><time>2026-05-03T12:20:23.164Z</time></trkpt><trkpt lat="43.0868581" lon="13.3051815"><ele>428.0</ele><time>2026-05-03T12:20:24.162Z</time></trkpt><trkpt lat="43.0868881" lon="13.3052646"><ele>427.6666666666667</ele><time>2026-05-03T12:20:25.165Z</time></trkpt><trkpt lat="43.0869242" lon="13.305341"><ele>427.33333333333337</ele><time>2026-05-03T12:20:26.162Z</time></trkpt><trkpt lat="43.0869915" lon="13.3054751"><ele>427.0</ele><time>2026-05-03T12:20:28.162Z</time></trkpt><trkpt lat="43.0870268" lon="13.3055566"><ele>426.33333333333337</ele><time>2026-05-03T12:20:29.16Z</time></trkpt><trkpt lat="43.0870538" lon="13.3056374"><ele>425.6666666666667</ele><time>2026-05-03T12:20:30.16Z</time></trkpt><trkpt lat="43.0871165" lon="13.3057744"><ele>425.0</ele><time>2026-05-03T12:20:32.162Z</time></trkpt><trkpt lat="43.0871559" lon="13.3058451"><ele>424.33333333333337</ele><time>2026-05-03T12:20:33.164Z</time></trkpt><trkpt lat="43.0871872" lon="13.3059202"><ele>423.6666666666667</ele><time>2026-05-03T12:20:34.164Z</time></trkpt><trkpt lat="43.0872492" lon="13.3060752"><ele>423.0</ele><time>2026-05-03T12:20:36.162Z</time></trkpt><trkpt lat="43.0872786" lon="13.306155"><ele>423.0</ele><time>2026-05-03T12:20:37.163Z</time></trkpt><trkpt lat="43.0873099" lon="13.3062325"><ele>423.0</ele><time>2026-05-03T12:20:38.162Z</time></trkpt><trkpt lat="43.0873555" lon="13.3063868"><ele>423.0</ele><time>2026-05-03T12:20:40.163Z</time></trkpt><trkpt lat="43.0874143" lon="13.3065302"><ele>423.0</ele><time>2026-05-03T12:20:42.163Z</time></trkpt><trkpt lat="43.0874416" lon="13.3066082"><ele>423.0</ele><time>2026-05-03T12:20:43.163Z</time></trkpt><trkpt lat="43.0874773" lon="13.3066793"><ele>423.0</ele><time>2026-05-03T12:20:44.161Z</time></trkpt><trkpt lat="43.0875098" lon="13.3067579"><ele>423.1666666666667</ele><time>2026-05-03T12:20:45.164Z</time></trkpt><trkpt lat="43.0875448" lon="13.306835"><ele>423.33333333333337</ele><time>2026-05-03T12:20:46.164Z</time></trkpt><trkpt lat="43.0875875" lon="13.3069323"><ele>423.5</ele><time>2026-05-03T12:20:47.162Z</time></trkpt><trkpt lat="43.0876342" lon="13.3070899"><ele>423.6666666666667</ele><time>2026-05-03T12:20:49.163Z</time></trkpt><trkpt lat="43.0876785" lon="13.3071546"><ele>423.83333333333337</ele><time>2026-05-03T12:20:50.163Z</time></trkpt><trkpt lat="43.0877062" lon="13.3072369"><ele>424.0</ele><time>2026-05-03T12:20:51.162Z</time></trkpt><trkpt lat="43.087769" lon="13.3073831"><ele>424.0</ele><time>2026-05-03T12:20:53.163Z</time></trkpt><trkpt lat="43.0878262" lon="13.3075275"><ele>424.0</ele><time>2026-05-03T12:20:55.163Z</time></trkpt><trkpt lat="43.0878719" lon="13.3076768"><ele>424.0</ele><time>2026-05-03T12:20:57.165Z</time></trkpt><trkpt lat="43.0879372" lon="13.3078224"><ele>424.0</ele><time>2026-05-03T12:20:59.162Z</time></trkpt><trkpt lat="43.087974" lon="13.3078995"><ele>424.0</ele><time>2026-05-03T12:21:00.161Z</time></trkpt><trkpt lat="43.0880386" lon="13.3080396"><ele>424.0</ele><time>2026-05-03T12:21:02.164Z</time></trkpt><trkpt lat="43.0880993" lon="13.3081596"><ele>424.0</ele><time>2026-05-03T12:21:04.163Z</time></trkpt><trkpt lat="43.0881553" lon="13.3082832"><ele>424.0</ele><time>2026-05-03T12:21:06.162Z</time></trkpt><trkpt lat="43.0882044" lon="13.3084069"><ele>424.0</ele><time>2026-05-03T12:21:08.162Z</time></trkpt><trkpt lat="43.0882565" lon="13.3085319"><ele>424.0</ele><time>2026-05-03T12:21:10.162Z</time></trkpt><trkpt lat="43.0883111" lon="13.3086672"><ele>424.0</ele><time>2026-05-03T12:21:12.163Z</time></trkpt><trkpt lat="43.0883648" lon="13.3088159"><ele>424.0</ele><time>2026-05-03T12:21:14.163Z</time></trkpt><trkpt lat="43.0884303" lon="13.3089599"><ele>424.0</ele><time>2026-05-03T12:21:16.162Z</time></trkpt><trkpt lat="43.0884583" lon="13.3090387"><ele>424.0</ele><time>2026-05-03T12:21:17.163Z</time></trkpt><trkpt lat="43.0885232" lon="13.3092018"><ele>424.0</ele><time>2026-05-03T12:21:19.163Z</time></trkpt><trkpt lat="43.0885567" lon="13.3092843"><ele>423.83333333333337</ele><time>2026-05-03T12:21:20.164Z</time></trkpt><trkpt lat="43.0885934" lon="13.3093561"><ele>423.6666666666667</ele><time>2026-05-03T12:21:21.162Z</time></trkpt><trkpt lat="43.088625" lon="13.3094335"><ele>423.5</ele><time>2026-05-03T12:21:22.163Z</time></trkpt><trkpt lat="43.0886571" lon="13.3095171"><ele>423.33333333333337</ele><time>2026-05-03T12:21:23.164Z</time></trkpt><trkpt lat="43.0886916" lon="13.30959"><ele>423.1666666666667</ele><time>2026-05-03T12:21:24.163Z</time></trkpt><trkpt lat="43.0887473" lon="13.3097342"><ele>423.0</ele><time>2026-05-03T12:21:26.163Z</time></trkpt><trkpt lat="43.0888067" lon="13.3098603"><ele>422.59999999999997</ele><time>2026-05-03T12:21:28.161Z</time></trkpt><trkpt lat="43.0888597" lon="13.3100012"><ele>422.2</ele><time>2026-05-03T12:21:30.161Z</time></trkpt><trkpt lat="43.0889141" lon="13.3101278"><ele>421.8</ele><time>2026-05-03T12:21:32.162Z</time></trkpt><trkpt lat="43.0889674" lon="13.3102587"><ele>421.4</ele><time>2026-05-03T12:21:34.163Z</time></trkpt><trkpt lat="43.0890151" lon="13.3103892"><ele>421.0</ele><time>2026-05-03T12:21:36.162Z</time></trkpt><trkpt lat="43.0890638" lon="13.3105066"><ele>420.4</ele><time>2026-05-03T12:21:38.164Z</time></trkpt><trkpt lat="43.0891171" lon="13.3106166"><ele>419.8</ele><time>2026-05-03T12:21:40.163Z</time></trkpt><trkpt lat="43.0891553" lon="13.3107381"><ele>419.2</ele><time>2026-05-03T12:21:42.166Z</time></trkpt><trkpt lat="43.0892062" lon="13.3108386"><ele>418.59999999999997</ele><time>2026-05-03T12:21:44.162Z</time></trkpt><trkpt lat="43.089248" lon="13.3109436"><ele>418.0</ele><time>2026-05-03T12:21:46.162Z</time></trkpt><trkpt lat="43.089289" lon="13.3110602"><ele>418.0</ele><time>2026-05-03T12:21:48.161Z</time></trkpt><trkpt lat="43.0893437" lon="13.3111841"><ele>418.0</ele><time>2026-05-03T12:21:50.162Z</time></trkpt><trkpt lat="43.0894017" lon="13.3113241"><ele>418.0</ele><time>2026-05-03T12:21:52.163Z</time></trkpt><trkpt lat="43.0894324" lon="13.3114018"><ele>418.0</ele><time>2026-05-03T12:21:53.162Z</time></trkpt><trkpt lat="43.0894623" lon="13.3114781"><ele>418.0</ele><time>2026-05-03T12:21:54.161Z</time></trkpt><trkpt lat="43.0895206" lon="13.3116208"><ele>417.83333333333337</ele><time>2026-05-03T12:21:56.163Z</time></trkpt><trkpt lat="43.0895513" lon="13.3116977"><ele>417.6666666666667</ele><time>2026-05-03T12:21:57.162Z</time></trkpt><trkpt lat="43.089585" lon="13.3117728"><ele>417.5</ele><time>2026-05-03T12:21:58.163Z</time></trkpt><trkpt lat="43.0896148" lon="13.3118506"><ele>417.33333333333337</ele><time>2026-05-03T12:21:59.164Z</time></trkpt><trkpt lat="43.0896822" lon="13.3120011"><ele>417.1666666666667</ele><time>2026-05-03T12:22:01.162Z</time></trkpt><trkpt lat="43.0897161" lon="13.3120793"><ele>417.0</ele><time>2026-05-03T12:22:02.163Z</time></trkpt><trkpt lat="43.0897456" lon="13.3121559"><ele>416.8</ele><time>2026-05-03T12:22:03.162Z</time></trkpt><trkpt lat="43.0898053" lon="13.3123106"><ele>416.6</ele><time>2026-05-03T12:22:05.162Z</time></trkpt><trkpt lat="43.0898565" lon="13.3124697"><ele>416.40000000000003</ele><time>2026-05-03T12:22:07.164Z</time></trkpt><trkpt lat="43.0898873" lon="13.3125546"><ele>416.20000000000005</ele><time>2026-05-03T12:22:08.163Z</time></trkpt><trkpt lat="43.0899154" lon="13.3126356"><ele>416.0</ele><time>2026-05-03T12:22:09.163Z</time></trkpt><trkpt lat="43.0899537" lon="13.3127087"><ele>416.0</ele><time>2026-05-03T12:22:10.163Z</time></trkpt><trkpt lat="43.0899837" lon="13.3127922"><ele>416.0</ele><time>2026-05-03T12:22:11.163Z</time></trkpt><trkpt lat="43.0900208" lon="13.3128702"><ele>416.0</ele><time>2026-05-03T12:22:12.164Z</time></trkpt><trkpt lat="43.0900471" lon="13.3129565"><ele>416.0</ele><time>2026-05-03T12:22:13.163Z</time></trkpt><trkpt lat="43.090083" lon="13.3130466"><ele>416.0</ele><time>2026-05-03T12:22:14.165Z</time></trkpt><trkpt lat="43.0901253" lon="13.313139"><ele>416.0</ele><time>2026-05-03T12:22:15.163Z</time></trkpt><trkpt lat="43.0901581" lon="13.3132143"><ele>416.0</ele><time>2026-05-03T12:22:16.162Z</time></trkpt><trkpt lat="43.0901911" lon="13.3132901"><ele>415.85714285714283</ele><time>2026-05-03T12:22:17.164Z</time></trkpt><trkpt lat="43.0902254" lon="13.3133776"><ele>415.7142857142857</ele><time>2026-05-03T12:22:18.163Z</time></trkpt><trkpt lat="43.0902561" lon="13.3134649"><ele>415.57142857142856</ele><time>2026-05-03T12:22:19.165Z</time></trkpt><trkpt lat="43.0902932" lon="13.3135441"><ele>415.42857142857144</ele><time>2026-05-03T12:22:20.161Z</time></trkpt><trkpt lat="43.0903347" lon="13.3136112"><ele>415.28571428571433</ele><time>2026-05-03T12:22:21.164Z</time></trkpt><trkpt lat="43.090372" lon="13.3136886"><ele>415.14285714285717</ele><time>2026-05-03T12:22:22.164Z</time></trkpt><trkpt lat="43.090401" lon="13.3137704"><ele>415.0</ele><time>2026-05-03T12:22:23.164Z</time></trkpt><trkpt lat="43.0904382" lon="13.3138408"><ele>414.6666666666667</ele><time>2026-05-03T12:22:24.165Z</time></trkpt><trkpt lat="43.0904654" lon="13.3139237"><ele>414.33333333333337</ele><time>2026-05-03T12:22:25.163Z</time></trkpt><trkpt lat="43.0904979" lon="13.3140073"><ele>414.0</ele><time>2026-05-03T12:22:26.163Z</time></trkpt><trkpt lat="43.0905304" lon="13.3140854"><ele>413.66666666666663</ele><time>2026-05-03T12:22:27.163Z</time></trkpt><trkpt lat="43.0905846" lon="13.3142381"><ele>413.3333333333333</ele><time>2026-05-03T12:22:29.161Z</time></trkpt><trkpt lat="43.0906476" lon="13.3143818"><ele>413.0</ele><time>2026-05-03T12:22:31.163Z</time></trkpt><trkpt lat="43.0906797" lon="13.3144595"><ele>413.0</ele><time>2026-05-03T12:22:32.163Z</time></trkpt><trkpt lat="43.0907405" lon="13.314583"><ele>413.0</ele><time>2026-05-03T12:22:34.163Z</time></trkpt><trkpt lat="43.0907997" lon="13.3147247"><ele>413.0</ele><time>2026-05-03T12:22:36.16Z</time></trkpt><trkpt lat="43.0908595" lon="13.3148693"><ele>413.0</ele><time>2026-05-03T12:22:38.162Z</time></trkpt><trkpt lat="43.0909235" lon="13.3150095"><ele>413.2</ele><time>2026-05-03T12:22:40.163Z</time></trkpt><trkpt lat="43.090954" lon="13.3150867"><ele>413.4</ele><time>2026-05-03T12:22:41.162Z</time></trkpt><trkpt lat="43.0909845" lon="13.3151664"><ele>413.59999999999997</ele><time>2026-05-03T12:22:42.162Z</time></trkpt><trkpt lat="43.091041" lon="13.3153121"><ele>413.79999999999995</ele><time>2026-05-03T12:22:44.161Z</time></trkpt><trkpt lat="43.0910997" lon="13.3154501"><ele>414.0</ele><time>2026-05-03T12:22:46.162Z</time></trkpt><trkpt lat="43.0911598" lon="13.3155954"><ele>413.5</ele><time>2026-05-03T12:22:48.163Z</time></trkpt><trkpt lat="43.0912234" lon="13.3157399"><ele>413.0</ele><time>2026-05-03T12:22:50.163Z</time></trkpt><trkpt lat="43.0912801" lon="13.3158792"><ele>412.5</ele><time>2026-05-03T12:22:52.16Z</time></trkpt><trkpt lat="43.0913357" lon="13.3160199"><ele>412.0</ele><time>2026-05-03T12:22:54.163Z</time></trkpt><trkpt lat="43.0913876" lon="13.3161528"><ele>412.0</ele><time>2026-05-03T12:22:56.163Z</time></trkpt><trkpt lat="43.0914399" lon="13.3162769"><ele>412.0</ele><time>2026-05-03T12:22:58.162Z</time></trkpt><trkpt lat="43.0914873" lon="13.3163923"><ele>412.0</ele><time>2026-05-03T12:23:00.164Z</time></trkpt><trkpt lat="43.0915292" lon="13.3165084"><ele>412.0</ele><time>2026-05-03T12:23:02.164Z</time></trkpt><trkpt lat="43.091573" lon="13.3166138"><ele>412.0</ele><time>2026-05-03T12:23:04.164Z</time></trkpt><trkpt lat="43.0916195" lon="13.3167076"><ele>412.0</ele><time>2026-05-03T12:23:06.164Z</time></trkpt><trkpt lat="43.0916641" lon="13.3168276"><ele>412.0</ele><time>2026-05-03T12:23:08.162Z</time></trkpt><trkpt lat="43.0917164" lon="13.3169622"><ele>412.0</ele><time>2026-05-03T12:23:10.164Z</time></trkpt><trkpt lat="43.0917768" lon="13.317095"><ele>412.0</ele><time>2026-05-03T12:23:12.161Z</time></trkpt><trkpt lat="43.091845" lon="13.3172312"><ele>412.0</ele><time>2026-05-03T12:23:14.163Z</time></trkpt><trkpt lat="43.0919021" lon="13.3173669"><ele>412.0</ele><time>2026-05-03T12:23:16.163Z</time></trkpt><trkpt lat="43.091956" lon="13.3175037"><ele>412.0</ele><time>2026-05-03T12:23:18.162Z</time></trkpt><trkpt lat="43.092005" lon="13.3176417"><ele>412.0</ele><time>2026-05-03T12:23:20.163Z</time></trkpt><trkpt lat="43.0920642" lon="13.3177737"><ele>412.0</ele><time>2026-05-03T12:23:22.163Z</time></trkpt><trkpt lat="43.0920996" lon="13.3178496"><ele>412.0</ele><time>2026-05-03T12:23:23.164Z</time></trkpt><trkpt lat="43.0921503" lon="13.3179939"><ele>411.75</ele><time>2026-05-03T12:23:25.164Z</time></trkpt><trkpt lat="43.0921954" lon="13.3180811"><ele>411.5</ele><time>2026-05-03T12:23:26.164Z</time></trkpt><trkpt lat="43.0922514" lon="13.318228"><ele>411.25</ele><time>2026-05-03T12:23:28.165Z</time></trkpt><trkpt lat="43.0923139" lon="13.3183719"><ele>411.0</ele><time>2026-05-03T12:23:30.16Z</time></trkpt><trkpt lat="43.0923741" lon="13.318532"><ele>411.0</ele><time>2026-05-03T12:23:32.162Z</time></trkpt><trkpt lat="43.0924035" lon="13.318615"><ele>411.0</ele><time>2026-05-03T12:23:33.161Z</time></trkpt><trkpt lat="43.0924619" lon="13.3187684"><ele>411.0</ele><time>2026-05-03T12:23:35.163Z</time></trkpt><trkpt lat="43.0925272" lon="13.3189284"><ele>411.0</ele><time>2026-05-03T12:23:37.162Z</time></trkpt><trkpt lat="43.0925571" lon="13.3190075"><ele>411.0</ele><time>2026-05-03T12:23:38.162Z</time></trkpt><trkpt lat="43.09259" lon="13.3190939"><ele>410.8333333333333</ele><time>2026-05-03T12:23:39.163Z</time></trkpt><trkpt lat="43.0926233" lon="13.3191766"><ele>410.66666666666663</ele><time>2026-05-03T12:23:40.162Z</time></trkpt><trkpt lat="43.092658" lon="13.3192549"><ele>410.5</ele><time>2026-05-03T12:23:41.162Z</time></trkpt><trkpt lat="43.0927207" lon="13.3194112"><ele>410.3333333333333</ele><time>2026-05-03T12:23:43.162Z</time></trkpt><trkpt lat="43.092751" lon="13.3194933"><ele>410.16666666666663</ele><time>2026-05-03T12:23:44.162Z</time></trkpt><trkpt lat="43.0927834" lon="13.3195767"><ele>410.0</ele><time>2026-05-03T12:23:45.163Z</time></trkpt><trkpt lat="43.0928112" lon="13.3196579"><ele>409.5714285714286</ele><time>2026-05-03T12:23:46.163Z</time></trkpt><trkpt lat="43.0928436" lon="13.3197359"><ele>409.1428571428571</ele><time>2026-05-03T12:23:47.163Z</time></trkpt><trkpt lat="43.092877" lon="13.3198181"><ele>408.7142857142857</ele><time>2026-05-03T12:23:48.162Z</time></trkpt><trkpt lat="43.0929078" lon="13.3198992"><ele>408.28571428571433</ele><time>2026-05-03T12:23:49.163Z</time></trkpt><trkpt lat="43.0929413" lon="13.3199851"><ele>407.8571428571429</ele><time>2026-05-03T12:23:50.161Z</time></trkpt><trkpt lat="43.092974" lon="13.3200629"><ele>407.42857142857144</ele><time>2026-05-03T12:23:51.162Z</time></trkpt><trkpt lat="43.093005" lon="13.3201438"><ele>407.0</ele><time>2026-05-03T12:23:52.163Z</time></trkpt><trkpt lat="43.0930377" lon="13.3202272"><ele>407.00000000000006</ele><time>2026-05-03T12:23:53.163Z</time></trkpt><trkpt lat="43.0930688" lon="13.3203106"><ele>407.0</ele><time>2026-05-03T12:23:54.162Z</time></trkpt><trkpt lat="43.0931027" lon="13.3203897"><ele>407.0</ele><time>2026-05-03T12:23:55.163Z</time></trkpt><trkpt lat="43.0931312" lon="13.3204728"><ele>407.0</ele><time>2026-05-03T12:23:56.162Z</time></trkpt><trkpt lat="43.0931622" lon="13.3205605"><ele>407.0</ele><time>2026-05-03T12:23:57.163Z</time></trkpt><trkpt lat="43.0931934" lon="13.3206397"><ele>407.00000000000006</ele><time>2026-05-03T12:23:58.163Z</time></trkpt><trkpt lat="43.0932283" lon="13.3207294"><ele>407.0</ele><time>2026-05-03T12:23:59.162Z</time></trkpt><trkpt lat="43.0933038" lon="13.3208694"><ele>406.28571428571433</ele><time>2026-05-03T12:24:01.163Z</time></trkpt><trkpt lat="43.0933332" lon="13.3209525"><ele>405.57142857142856</ele><time>2026-05-03T12:24:02.163Z</time></trkpt><trkpt lat="43.0933659" lon="13.3210356"><ele>404.8571428571429</ele><time>2026-05-03T12:24:03.164Z</time></trkpt><trkpt lat="43.0934042" lon="13.321121"><ele>404.14285714285717</ele><time>2026-05-03T12:24:04.163Z</time></trkpt><trkpt lat="43.0934387" lon="13.3212062"><ele>403.42857142857144</ele><time>2026-05-03T12:24:05.163Z</time></trkpt><trkpt lat="43.093472" lon="13.3212853"><ele>402.7142857142857</ele><time>2026-05-03T12:24:06.163Z</time></trkpt><trkpt lat="43.0935086" lon="13.3213662"><ele>402.0</ele><time>2026-05-03T12:24:07.161Z</time></trkpt><trkpt lat="43.0935428" lon="13.321442"><ele>401.8</ele><time>2026-05-03T12:24:08.162Z</time></trkpt><trkpt lat="43.0936089" lon="13.321595"><ele>401.6</ele><time>2026-05-03T12:24:10.163Z</time></trkpt><trkpt lat="43.093642" lon="13.3216715"><ele>401.40000000000003</ele><time>2026-05-03T12:24:11.163Z</time></trkpt><trkpt lat="43.0937056" lon="13.3218131"><ele>401.20000000000005</ele><time>2026-05-03T12:24:13.164Z</time></trkpt><trkpt lat="43.0937423" lon="13.3218906"><ele>401.0</ele><time>2026-05-03T12:24:14.165Z</time></trkpt><trkpt lat="43.0937865" lon="13.3220346"><ele>401.0</ele><time>2026-05-03T12:24:16.163Z</time></trkpt><trkpt lat="43.0938231" lon="13.3221156"><ele>401.0</ele><time>2026-05-03T12:24:17.163Z</time></trkpt><trkpt lat="43.093864" lon="13.3221909"><ele>401.0</ele><time>2026-05-03T12:24:18.162Z</time></trkpt><trkpt lat="43.0939261" lon="13.3223256"><ele>401.0</ele><time>2026-05-03T12:24:20.163Z</time></trkpt><trkpt lat="43.0939868" lon="13.3224644"><ele>401.0</ele><time>2026-05-03T12:24:22.163Z</time></trkpt><trkpt lat="43.0940485" lon="13.322601"><ele>401.20000000000005</ele><time>2026-05-03T12:24:24.163Z</time></trkpt><trkpt lat="43.0941047" lon="13.3227393"><ele>401.40000000000003</ele><time>2026-05-03T12:24:26.164Z</time></trkpt><trkpt lat="43.0941748" lon="13.3228792"><ele>401.6</ele><time>2026-05-03T12:24:28.161Z</time></trkpt><trkpt lat="43.094211" lon="13.3229534"><ele>401.8</ele><time>2026-05-03T12:24:29.16Z</time></trkpt><trkpt lat="43.0942697" lon="13.3230884"><ele>402.0</ele><time>2026-05-03T12:24:31.163Z</time></trkpt><trkpt lat="43.0943268" lon="13.3232302"><ele>401.5</ele><time>2026-05-03T12:24:33.163Z</time></trkpt><trkpt lat="43.0943921" lon="13.3233598"><ele>401.0</ele><time>2026-05-03T12:24:35.163Z</time></trkpt><trkpt lat="43.094454" lon="13.3234973"><ele>400.5</ele><time>2026-05-03T12:24:37.164Z</time></trkpt><trkpt lat="43.0945231" lon="13.3236226"><ele>400.0</ele><time>2026-05-03T12:24:39.162Z</time></trkpt><trkpt lat="43.0945831" lon="13.3237578"><ele>400.00000000000006</ele><time>2026-05-03T12:24:41.164Z</time></trkpt><trkpt lat="43.0946204" lon="13.3238298"><ele>400.0</ele><time>2026-05-03T12:24:42.164Z</time></trkpt><trkpt lat="43.0946524" lon="13.3239152"><ele>400.0</ele><time>2026-05-03T12:24:43.163Z</time></trkpt><trkpt lat="43.0947127" lon="13.3240591"><ele>400.0</ele><time>2026-05-03T12:24:45.164Z</time></trkpt><trkpt lat="43.0947677" lon="13.3241975"><ele>400.00000000000006</ele><time>2026-05-03T12:24:47.163Z</time></trkpt><trkpt lat="43.0948083" lon="13.3242723"><ele>400.0</ele><time>2026-05-03T12:24:48.164Z</time></trkpt><trkpt lat="43.0948624" lon="13.3244056"><ele>400.0</ele><time>2026-05-03T12:24:50.164Z</time></trkpt><trkpt lat="43.0948969" lon="13.3244847"><ele>400.0</ele><time>2026-05-03T12:24:51.163Z</time></trkpt><trkpt lat="43.0949589" lon="13.3246323"><ele>400.0</ele><time>2026-05-03T12:24:53.163Z</time></trkpt><trkpt lat="43.095017" lon="13.3247768"><ele>400.0</ele><time>2026-05-03T12:24:55.163Z</time></trkpt><trkpt lat="43.0950711" lon="13.3249212"><ele>400.0</ele><time>2026-05-03T12:24:57.163Z</time></trkpt><trkpt lat="43.0951101" lon="13.3250692"><ele>400.0</ele><time>2026-05-03T12:24:59.163Z</time></trkpt><trkpt lat="43.0951549" lon="13.3252172"><ele>400.0</ele><time>2026-05-03T12:25:01.165Z</time></trkpt><trkpt lat="43.0951862" lon="13.325378"><ele>400.0</ele><time>2026-05-03T12:25:03.163Z</time></trkpt><trkpt lat="43.0952326" lon="13.3255292"><ele>400.0</ele><time>2026-05-03T12:25:05.163Z</time></trkpt><trkpt lat="43.0952705" lon="13.325665"><ele>399.75</ele><time>2026-05-03T12:25:07.163Z</time></trkpt><trkpt lat="43.0953101" lon="13.3258193"><ele>399.5</ele><time>2026-05-03T12:25:09.163Z</time></trkpt><trkpt lat="43.095339" lon="13.325973"><ele>399.25</ele><time>2026-05-03T12:25:11.163Z</time></trkpt><trkpt lat="43.0953699" lon="13.3261156"><ele>399.0</ele><time>2026-05-03T12:25:13.162Z</time></trkpt><trkpt lat="43.0954166" lon="13.3262701"><ele>399.0</ele><time>2026-05-03T12:25:15.164Z</time></trkpt><trkpt lat="43.0954534" lon="13.3264203"><ele>399.0</ele><time>2026-05-03T12:25:17.163Z</time></trkpt><trkpt lat="43.0954766" lon="13.3265078"><ele>399.0</ele><time>2026-05-03T12:25:18.163Z</time></trkpt><trkpt lat="43.0955103" lon="13.326674"><ele>399.0</ele><time>2026-05-03T12:25:20.163Z</time></trkpt><trkpt lat="43.0955469" lon="13.3268364"><ele>399.0</ele><time>2026-05-03T12:25:22.164Z</time></trkpt><trkpt lat="43.0955725" lon="13.3269249"><ele>399.0</ele><time>2026-05-03T12:25:23.163Z</time></trkpt><trkpt lat="43.0956" lon="13.3270101"><ele>399.0</ele><time>2026-05-03T12:25:24.163Z</time></trkpt><trkpt lat="43.095625" lon="13.3271004"><ele>399.0</ele><time>2026-05-03T12:25:25.161Z</time></trkpt><trkpt lat="43.0956273" lon="13.3271985"><ele>399.0</ele><time>2026-05-03T12:25:26.164Z</time></trkpt><trkpt lat="43.0956528" lon="13.3272945"><ele>399.0</ele><time>2026-05-03T12:25:27.164Z</time></trkpt><trkpt lat="43.0956919" lon="13.3274616"><ele>399.0</ele><time>2026-05-03T12:25:29.161Z</time></trkpt><trkpt lat="43.0957288" lon="13.3276239"><ele>396.0</ele><time>2026-05-03T12:25:31.162Z</time></trkpt><trkpt lat="43.0957482" lon="13.3277077"><ele>396.0</ele><time>2026-05-03T12:25:32.161Z</time></trkpt><trkpt lat="43.095771" lon="13.3277883"><ele>400.0</ele><time>2026-05-03T12:25:33.163Z</time></trkpt><trkpt lat="43.0957881" lon="13.3278958"><ele>400.0</ele><time>2026-05-03T12:25:35.163Z</time></trkpt><trkpt lat="43.0957409" lon="13.3279583"><ele>396.0</ele><time>2026-05-03T12:25:38.163Z</time></trkpt></trkseg></trk></gpx>